<?xml version='1.0' encoding='UTF-8'?><gpx version="1.1" creator="JPX - https://github.com/jenetics/jpx" xmlns="http://www.topografix.com/GPX/1/1"><trk><trkseg><trkpt lat="33.45669553074595" lon="9.025187881220537"><ele>71.0</ele><time>2026-03-30T08:46:26.999Z</time></trkpt><trkpt lat="33.456784503437305" lon="9.025158796751487"><ele>71.0</ele><time>2026-03-30T08:46:28.999Z</time></trkpt><trkpt lat="33.45690442541292" lon="9.0251364302543"><ele>71.0</ele><time>2026-03-30T08:46:32.999Z</time></trkpt><trkpt lat="33.45698624614" lon="9.025092118657325"><ele>71.0</ele><time>2026-03-30T08:46:35.999Z</time></trkpt><trkpt lat="33.45706849436516" lon="9.025082386293944"><ele>71.0</ele><time>2026-03-30T08:46:37.999Z</time></trkpt><trkpt lat="33.457142632735625" lon="9.025060567304553"><ele>70.83333333333334</ele><time>2026-03-30T08:46:39.999Z</time></trkpt><trkpt lat="33.4571499850653" lon="9.024960255044425"><ele>70.66666666666667</ele><time>2026-03-30T08:46:42.999Z</time></trkpt><trkpt lat="33.457117821707016" lon="9.024882288679764"><ele>70.5</ele><time>2026-03-30T08:46:43.999Z</time></trkpt><trkpt lat="33.45707704618807" lon="9.024822685990115"><ele>70.33333333333333</ele><time>2026-03-30T08:46:44.999Z</time></trkpt><trkpt lat="33.45701759545635" lon="9.024723206383376"><ele>70.16666666666666</ele><time>2026-03-30T08:46:46.999Z</time></trkpt><trkpt lat="33.45697870628393" lon="9.024588458459645"><ele>70.0</ele><time>2026-03-30T08:46:48.999Z</time></trkpt><trkpt lat="33.456937885696895" lon="9.024491336503083"><ele>69.8</ele><time>2026-03-30T08:46:50.999Z</time></trkpt><trkpt lat="33.4568992444161" lon="9.024397010921247"><ele>69.6</ele><time>2026-03-30T08:46:52.999Z</time></trkpt><trkpt lat="33.45686204934118" lon="9.02428110127203"><ele>69.4</ele><time>2026-03-30T08:46:54.999Z</time></trkpt><trkpt lat="33.45681347143026" lon="9.024163156336032"><ele>69.2</ele><time>2026-03-30T08:46:56.999Z</time></trkpt><trkpt lat="33.45676221371996" lon="9.024082040274573"><ele>69.0</ele><time>2026-03-30T08:46:58.999Z</time></trkpt><trkpt lat="33.45671652630912" lon="9.024011771298976"><ele>68.8</ele><time>2026-03-30T08:47:00.999Z</time></trkpt><trkpt lat="33.45666204507607" lon="9.023893585053875"><ele>68.60000000000001</ele><time>2026-03-30T08:47:02.999Z</time></trkpt><trkpt lat="33.45661119514134" lon="9.023789033283068"><ele>68.4</ele><time>2026-03-30T08:47:04.998Z</time></trkpt><trkpt lat="33.45657023234727" lon="9.02366019494818"><ele>68.2</ele><time>2026-03-30T08:47:06.998Z</time></trkpt><trkpt lat="33.456557680189185" lon="9.023565396862582"><ele>68.0</ele><time>2026-03-30T08:47:07.998Z</time></trkpt><trkpt lat="33.45654233199948" lon="9.023466513930357"><ele>68.0</ele><time>2026-03-30T08:47:08.998Z</time></trkpt><trkpt lat="33.456515070302316" lon="9.023367007480283"><ele>68.0</ele><time>2026-03-30T08:47:09.998Z</time></trkpt><trkpt lat="33.45648630174147" lon="9.02326931915578"><ele>68.0</ele><time>2026-03-30T08:47:10.998Z</time></trkpt><trkpt lat="33.45646347545356" lon="9.023162720824535"><ele>68.0</ele><time>2026-03-30T08:47:11.998Z</time></trkpt><trkpt lat="33.456440167375135" lon="9.023057240130871"><ele>68.0</ele><time>2026-03-30T08:47:12.998Z</time></trkpt><trkpt lat="33.4564081394391" lon="9.022948692797073"><ele>68.0</ele><time>2026-03-30T08:47:13.998Z</time></trkpt><trkpt lat="33.45637759729172" lon="9.022842954235509"><ele>68.0</ele><time>2026-03-30T08:47:15Z</time></trkpt><trkpt lat="33.456356732105505" lon="9.022730567600147"><ele>68.0</ele><time>2026-03-30T08:47:16Z</time></trkpt><trkpt lat="33.456334982304966" lon="9.022611417932062"><ele>68.0</ele><time>2026-03-30T08:47:17Z</time></trkpt><trkpt lat="33.45630763516209" lon="9.022490883690526"><ele>68.0</ele><time>2026-03-30T08:47:18Z</time></trkpt><trkpt lat="33.45627813355216" lon="9.022381541337287"><ele>68.2</ele><time>2026-03-30T08:47:19Z</time></trkpt><trkpt lat="33.456251387212866" lon="9.022275938787631"><ele>68.4</ele><time>2026-03-30T08:47:20Z</time></trkpt><trkpt lat="33.45622510750338" lon="9.022164866422385"><ele>68.60000000000001</ele><time>2026-03-30T08:47:21Z</time></trkpt><trkpt lat="33.45620318390363" lon="9.022057469276325"><ele>68.8</ele><time>2026-03-30T08:47:22Z</time></trkpt><trkpt lat="33.456182127923455" lon="9.021950736299534"><ele>69.0</ele><time>2026-03-30T08:47:23Z</time></trkpt><trkpt lat="33.45616343370487" lon="9.021841484827842"><ele>69.0</ele><time>2026-03-30T08:47:24Z</time></trkpt><trkpt lat="33.45614654063664" lon="9.021727214180665"><ele>69.0</ele><time>2026-03-30T08:47:25Z</time></trkpt><trkpt lat="33.456139157909874" lon="9.021610212415018"><ele>69.0</ele><time>2026-03-30T08:47:26Z</time></trkpt><trkpt lat="33.45614655328606" lon="9.021489136200064"><ele>69.0</ele><time>2026-03-30T08:47:27Z</time></trkpt><trkpt lat="33.45616847648544" lon="9.021362252230265"><ele>69.0</ele><time>2026-03-30T08:47:28Z</time></trkpt><trkpt lat="33.45619985981625" lon="9.021235091137626"><ele>69.4</ele><time>2026-03-30T08:47:29Z</time></trkpt><trkpt lat="33.45622450035704" lon="9.021109512993293"><ele>69.80000000000001</ele><time>2026-03-30T08:47:30Z</time></trkpt><trkpt lat="33.456242256564714" lon="9.020986925182854"><ele>70.19999999999999</ele><time>2026-03-30T08:47:31Z</time></trkpt><trkpt lat="33.4562568376884" lon="9.020881451492631"><ele>70.6</ele><time>2026-03-30T08:47:32Z</time></trkpt><trkpt lat="33.45627271767104" lon="9.020785997403408"><ele>71.0</ele><time>2026-03-30T08:47:33Z</time></trkpt><trkpt lat="33.45628704600822" lon="9.020698941243719"><ele>71.0</ele><time>2026-03-30T08:47:34Z</time></trkpt><trkpt lat="33.45628559318378" lon="9.020609182958609"><ele>71.0</ele><time>2026-03-30T08:47:35Z</time></trkpt><trkpt lat="33.456263654005234" lon="9.02051838446489"><ele>71.0</ele><time>2026-03-30T08:47:36Z</time></trkpt><trkpt lat="33.45622732158966" lon="9.020429137141308"><ele>71.0</ele><time>2026-03-30T08:47:37Z</time></trkpt><trkpt lat="33.45619263920427" lon="9.020348004698493"><ele>71.0</ele><time>2026-03-30T08:47:38Z</time></trkpt><trkpt lat="33.456161730130724" lon="9.02026599910154"><ele>71.0</ele><time>2026-03-30T08:47:39Z</time></trkpt><trkpt lat="33.45613150673751" lon="9.020182004555913"><ele>71.0</ele><time>2026-03-30T08:47:40Z</time></trkpt><trkpt lat="33.45610368948542" lon="9.020098088751757"><ele>71.0</ele><time>2026-03-30T08:47:41Z</time></trkpt><trkpt lat="33.456088439770305" lon="9.020014393768244"><ele>71.0</ele><time>2026-03-30T08:47:42Z</time></trkpt><trkpt lat="33.456034401770005" lon="9.019901594094156"><ele>71.0</ele><time>2026-03-30T08:47:44Z</time></trkpt><trkpt lat="33.45594662192903" lon="9.019855316976123"><ele>71.0</ele><time>2026-03-30T08:47:46Z</time></trkpt><trkpt lat="33.45585912966899" lon="9.019845179172629"><ele>71.0</ele><time>2026-03-30T08:47:48.999Z</time></trkpt><trkpt lat="33.45576081700568" lon="9.019814774084802"><ele>71.2</ele><time>2026-03-30T08:47:50.999Z</time></trkpt><trkpt lat="33.45565377798025" lon="9.019789906787276"><ele>71.39999999999999</ele><time>2026-03-30T08:47:52.999Z</time></trkpt><trkpt lat="33.455558438144315" lon="9.0197392592834"><ele>71.6</ele><time>2026-03-30T08:47:54.999Z</time></trkpt><trkpt lat="33.455476331807866" lon="9.019710627672266"><ele>71.8</ele><time>2026-03-30T08:47:56.999Z</time></trkpt><trkpt lat="33.45539283607014" lon="9.019669203648522"><ele>72.0</ele><time>2026-03-30T08:47:59.999Z</time></trkpt><trkpt lat="33.455296672647904" lon="9.019651474997339"><ele>71.4</ele><time>2026-03-30T08:48:01.999Z</time></trkpt><trkpt lat="33.455189734955546" lon="9.019670852917269"><ele>70.80000000000001</ele><time>2026-03-30T08:48:03.999Z</time></trkpt><trkpt lat="33.45508942184836" lon="9.019680042214537"><ele>70.2</ele><time>2026-03-30T08:48:05.999Z</time></trkpt><trkpt lat="33.45501564690092" lon="9.019681744516417"><ele>69.60000000000001</ele><time>2026-03-30T08:48:09.999Z</time></trkpt><trkpt lat="33.45498436790736" lon="9.019576203777419"><ele>69.0</ele><time>2026-03-30T08:48:11.999Z</time></trkpt><trkpt lat="33.45499387852329" lon="9.019460391308982"><ele>69.0</ele><time>2026-03-30T08:48:12.999Z</time></trkpt><trkpt lat="33.45498922579683" lon="9.01934470569111"><ele>69.0</ele><time>2026-03-30T08:48:13.999Z</time></trkpt><trkpt lat="33.45497705132637" lon="9.019251812545768"><ele>69.0</ele><time>2026-03-30T08:48:14.999Z</time></trkpt><trkpt lat="33.45496555807531" lon="9.019159609123822"><ele>69.0</ele><time>2026-03-30T08:48:15.999Z</time></trkpt><trkpt lat="33.4549551474466" lon="9.019059904398604"><ele>69.0</ele><time>2026-03-30T08:48:16.999Z</time></trkpt><trkpt lat="33.4549348916962" lon="9.01894731798543"><ele>69.0</ele><time>2026-03-30T08:48:17.999Z</time></trkpt><trkpt lat="33.45491229079047" lon="9.018838843870899"><ele>69.0</ele><time>2026-03-30T08:48:18.999Z</time></trkpt><trkpt lat="33.45488967733596" lon="9.018729746428473"><ele>69.0</ele><time>2026-03-30T08:48:19.999Z</time></trkpt><trkpt lat="33.45486470733597" lon="9.01862018957185"><ele>69.0</ele><time>2026-03-30T08:48:20.999Z</time></trkpt><trkpt lat="33.454842518058754" lon="9.018520419267526"><ele>69.0</ele><time>2026-03-30T08:48:21.999Z</time></trkpt><trkpt lat="33.454822282893204" lon="9.018433803199708"><ele>69.0</ele><time>2026-03-30T08:48:22.999Z</time></trkpt><trkpt lat="33.45480720911738" lon="9.018347642234371"><ele>69.0</ele><time>2026-03-30T08:48:23.999Z</time></trkpt><trkpt lat="33.45478947860074" lon="9.01825521565926"><ele>69.0</ele><time>2026-03-30T08:48:24.999Z</time></trkpt><trkpt lat="33.454769173933975" lon="9.018154654838948"><ele>69.0</ele><time>2026-03-30T08:48:25.999Z</time></trkpt><trkpt lat="33.45474657182339" lon="9.018048411035705"><ele>69.0</ele><time>2026-03-30T08:48:26.999Z</time></trkpt><trkpt lat="33.454722405171104" lon="9.017943165228905"><ele>69.0</ele><time>2026-03-30T08:48:27.999Z</time></trkpt><trkpt lat="33.4546939129209" lon="9.017829953754612"><ele>69.0</ele><time>2026-03-30T08:48:28.999Z</time></trkpt><trkpt lat="33.45466867942376" lon="9.017714957741648"><ele>69.0</ele><time>2026-03-30T08:48:29.999Z</time></trkpt><trkpt lat="33.45464157648624" lon="9.017597562604536"><ele>69.0</ele><time>2026-03-30T08:48:30.999Z</time></trkpt><trkpt lat="33.45461767049241" lon="9.017480024103195"><ele>69.0</ele><time>2026-03-30T08:48:31.999Z</time></trkpt><trkpt lat="33.454597251926074" lon="9.01736370192493"><ele>69.0</ele><time>2026-03-30T08:48:32.999Z</time></trkpt><trkpt lat="33.45458382907379" lon="9.017246756740816"><ele>69.0</ele><time>2026-03-30T08:48:33.999Z</time></trkpt><trkpt lat="33.45458030115582" lon="9.017116956340287"><ele>67.8</ele><time>2026-03-30T08:48:34.999Z</time></trkpt><trkpt lat="33.454577544166575" lon="9.016991460166217"><ele>66.60000000000001</ele><time>2026-03-30T08:48:35.999Z</time></trkpt><trkpt lat="33.454582701479815" lon="9.016875197649464"><ele>65.4</ele><time>2026-03-30T08:48:36.999Z</time></trkpt><trkpt lat="33.45457875233717" lon="9.016766751084715"><ele>64.2</ele><time>2026-03-30T08:48:37.999Z</time></trkpt><trkpt lat="33.45457710085368" lon="9.016664235352348"><ele>63.0</ele><time>2026-03-30T08:48:38.999Z</time></trkpt><trkpt lat="33.45458052847705" lon="9.016565051992245"><ele>62.8</ele><time>2026-03-30T08:48:39.999Z</time></trkpt><trkpt lat="33.45459689863548" lon="9.016456140242115"><ele>62.599999999999994</ele><time>2026-03-30T08:48:40.999Z</time></trkpt><trkpt lat="33.454626426715826" lon="9.016345139256451"><ele>62.400000000000006</ele><time>2026-03-30T08:48:41.999Z</time></trkpt><trkpt lat="33.45466070818157" lon="9.016233431439241"><ele>62.2</ele><time>2026-03-30T08:48:42.999Z</time></trkpt><trkpt lat="33.45469756949388" lon="9.016114084848288"><ele>62.0</ele><time>2026-03-30T08:48:43.999Z</time></trkpt><trkpt lat="33.45472827890082" lon="9.015993611021146"><ele>62.0</ele><time>2026-03-30T08:48:44.999Z</time></trkpt><trkpt lat="33.45475349019426" lon="9.015862122601717"><ele>62.0</ele><time>2026-03-30T08:48:45.999Z</time></trkpt><trkpt lat="33.45476464163555" lon="9.015730041498937"><ele>62.0</ele><time>2026-03-30T08:48:46.999Z</time></trkpt><trkpt lat="33.454772404256566" lon="9.015599026664411"><ele>62.0</ele><time>2026-03-30T08:48:47.999Z</time></trkpt><trkpt lat="33.45477953863246" lon="9.015470647693745"><ele>62.0</ele><time>2026-03-30T08:48:48.999Z</time></trkpt><trkpt lat="33.45478747582673" lon="9.015339890984588"><ele>61.50000000000001</ele><time>2026-03-30T08:48:49.999Z</time></trkpt><trkpt lat="33.45479797652786" lon="9.015222981691139"><ele>61.0</ele><time>2026-03-30T08:48:50.999Z</time></trkpt><trkpt lat="33.45481441696002" lon="9.015113147926677"><ele>60.5</ele><time>2026-03-30T08:48:51.999Z</time></trkpt><trkpt lat="33.454833499637935" lon="9.015007474335059"><ele>60.0</ele><time>2026-03-30T08:48:52.999Z</time></trkpt><trkpt lat="33.454851322803066" lon="9.014904977739507"><ele>59.50000000000001</ele><time>2026-03-30T08:48:53.999Z</time></trkpt><trkpt lat="33.45486225733602" lon="9.014814465687122"><ele>59.0</ele><time>2026-03-30T08:48:54.999Z</time></trkpt><trkpt lat="33.45487456505684" lon="9.014692946609605"><ele>58.800000000000004</ele><time>2026-03-30T08:48:56.999Z</time></trkpt><trkpt lat="33.45483220261527" lon="9.014627053573506"><ele>58.60000000000001</ele><time>2026-03-30T08:49:01.999Z</time></trkpt><trkpt lat="33.45470957111767" lon="9.014670451980061"><ele>58.4</ele><time>2026-03-30T08:49:03.999Z</time></trkpt><trkpt lat="33.4546376537673" lon="9.014727893382041"><ele>58.2</ele><time>2026-03-30T08:49:04.999Z</time></trkpt><trkpt lat="33.454525718564526" lon="9.014789795431309"><ele>58.0</ele><time>2026-03-30T08:49:06.998Z</time></trkpt><trkpt lat="33.45445150614085" lon="9.014823674294098"><ele>57.83333333333333</ele><time>2026-03-30T08:49:07.998Z</time></trkpt><trkpt lat="33.45437497075887" lon="9.014863314128018"><ele>57.666666666666664</ele><time>2026-03-30T08:49:08.998Z</time></trkpt><trkpt lat="33.45430989655568" lon="9.014902300748997"><ele>57.5</ele><time>2026-03-30T08:49:09.998Z</time></trkpt><trkpt lat="33.45423981289092" lon="9.014945239452775"><ele>57.33333333333333</ele><time>2026-03-30T08:49:10.998Z</time></trkpt><trkpt lat="33.45416326118357" lon="9.01499363608388"><ele>57.166666666666664</ele><time>2026-03-30T08:49:11.998Z</time></trkpt><trkpt lat="33.454087312460686" lon="9.015039280243352"><ele>57.0</ele><time>2026-03-30T08:49:12.998Z</time></trkpt><trkpt lat="33.454019453536084" lon="9.015083284512455"><ele>57.0</ele><time>2026-03-30T08:49:13.998Z</time></trkpt><trkpt lat="33.45395165613263" lon="9.015125119539155"><ele>57.0</ele><time>2026-03-30T08:49:14.998Z</time></trkpt><trkpt lat="33.453882710328585" lon="9.015170690327965"><ele>57.0</ele><time>2026-03-30T08:49:15.998Z</time></trkpt><trkpt lat="33.453803002481" lon="9.01521948545538"><ele>57.0</ele><time>2026-03-30T08:49:16.998Z</time></trkpt><trkpt lat="33.45372450653788" lon="9.0152686945578"><ele>57.0</ele><time>2026-03-30T08:49:17.998Z</time></trkpt><trkpt lat="33.45363970455685" lon="9.015319711830527"><ele>57.0</ele><time>2026-03-30T08:49:18.998Z</time></trkpt><trkpt lat="33.45355638972742" lon="9.015371174164162"><ele>57.6</ele><time>2026-03-30T08:49:19.998Z</time></trkpt><trkpt lat="33.45346879582009" lon="9.015417589985068"><ele>58.2</ele><time>2026-03-30T08:49:20.999Z</time></trkpt><trkpt lat="33.45338269244261" lon="9.015459893564676"><ele>58.8</ele><time>2026-03-30T08:49:21.999Z</time></trkpt><trkpt lat="33.45329333022531" lon="9.01550642578452"><ele>59.4</ele><time>2026-03-30T08:49:22.999Z</time></trkpt><trkpt lat="33.45320835505145" lon="9.015561390904065"><ele>60.0</ele><time>2026-03-30T08:49:23.999Z</time></trkpt><trkpt lat="33.45312370321203" lon="9.01561232658477"><ele>60.0</ele><time>2026-03-30T08:49:24.999Z</time></trkpt><trkpt lat="33.453036437430036" lon="9.015664440078178"><ele>60.0</ele><time>2026-03-30T08:49:25.999Z</time></trkpt><trkpt lat="33.45294981830174" lon="9.015711461140985"><ele>60.0</ele><time>2026-03-30T08:49:26.999Z</time></trkpt><trkpt lat="33.45286855608271" lon="9.015759100683876"><ele>60.0</ele><time>2026-03-30T08:49:27.999Z</time></trkpt><trkpt lat="33.45278703067853" lon="9.015808148192303"><ele>60.0</ele><time>2026-03-30T08:49:28.999Z</time></trkpt><trkpt lat="33.4527042378804" lon="9.015859057698322"><ele>60.2</ele><time>2026-03-30T08:49:29.999Z</time></trkpt><trkpt lat="33.45262081456741" lon="9.015897237933416"><ele>60.4</ele><time>2026-03-30T08:49:30.999Z</time></trkpt><trkpt lat="33.45253033566487" lon="9.015929864510914"><ele>60.599999999999994</ele><time>2026-03-30T08:49:31.999Z</time></trkpt><trkpt lat="33.4524370865102" lon="9.015964920815067"><ele>60.8</ele><time>2026-03-30T08:49:32.999Z</time></trkpt><trkpt lat="33.4523384335129" lon="9.016005457844518"><ele>61.0</ele><time>2026-03-30T08:49:33.999Z</time></trkpt><trkpt lat="33.4522375361286" lon="9.016043245137832"><ele>61.0</ele><time>2026-03-30T08:49:34.999Z</time></trkpt><trkpt lat="33.452134945563465" lon="9.016077127967556"><ele>60.99999999999999</ele><time>2026-03-30T08:49:35.999Z</time></trkpt><trkpt lat="33.45203388934949" lon="9.016095868194279"><ele>60.99999999999999</ele><time>2026-03-30T08:49:36.999Z</time></trkpt><trkpt lat="33.451925739520476" lon="9.016116405211383"><ele>61.0</ele><time>2026-03-30T08:49:37.999Z</time></trkpt><trkpt lat="33.45181102258208" lon="9.016129993164782"><ele>61.0</ele><time>2026-03-30T08:49:38.999Z</time></trkpt><trkpt lat="33.45169586456517" lon="9.016152283617423"><ele>60.5</ele><time>2026-03-30T08:49:39.999Z</time></trkpt><trkpt lat="33.45157813813467" lon="9.016176161927886"><ele>60.0</ele><time>2026-03-30T08:49:40.999Z</time></trkpt><trkpt lat="33.451461154637165" lon="9.016199332769341"><ele>59.5</ele><time>2026-03-30T08:49:41.999Z</time></trkpt><trkpt lat="33.45134084056082" lon="9.016220428451481"><ele>59.0</ele><time>2026-03-30T08:49:42.999Z</time></trkpt><trkpt lat="33.45122159395817" lon="9.01623448670765"><ele>58.75</ele><time>2026-03-30T08:49:43.999Z</time></trkpt><trkpt lat="33.451101939563415" lon="9.016251663420716"><ele>58.5</ele><time>2026-03-30T08:49:44.999Z</time></trkpt><trkpt lat="33.45098558582489" lon="9.016273912733437"><ele>58.25</ele><time>2026-03-30T08:49:45.999Z</time></trkpt><trkpt lat="33.45086989042884" lon="9.016296435172043"><ele>58.0</ele><time>2026-03-30T08:49:46.999Z</time></trkpt><trkpt lat="33.450755098101375" lon="9.016316597200518"><ele>58.0</ele><time>2026-03-30T08:49:47.999Z</time></trkpt><trkpt lat="33.450638718459636" lon="9.016340466846573"><ele>58.0</ele><time>2026-03-30T08:49:48.999Z</time></trkpt><trkpt lat="33.45052440439707" lon="9.016366403685552"><ele>58.0</ele><time>2026-03-30T08:49:49.999Z</time></trkpt><trkpt lat="33.45040907272754" lon="9.01639065904748"><ele>58.0</ele><time>2026-03-30T08:49:50.999Z</time></trkpt><trkpt lat="33.450294846118766" lon="9.016414538156889"><ele>58.0</ele><time>2026-03-30T08:49:51.999Z</time></trkpt><trkpt lat="33.45017512395592" lon="9.016428265145812"><ele>58.0</ele><time>2026-03-30T08:49:52.999Z</time></trkpt><trkpt lat="33.45004973110513" lon="9.016434403798518"><ele>58.0</ele><time>2026-03-30T08:49:53.999Z</time></trkpt><trkpt lat="33.44992343105795" lon="9.016441056632754"><ele>58.0</ele><time>2026-03-30T08:49:54.999Z</time></trkpt><trkpt lat="33.4497975484185" lon="9.01644808351219"><ele>58.0</ele><time>2026-03-30T08:49:55.999Z</time></trkpt><trkpt lat="33.44967088893204" lon="9.016459157941547"><ele>58.0</ele><time>2026-03-30T08:49:56.999Z</time></trkpt><trkpt lat="33.44953966024545" lon="9.016472048348318"><ele>58.0</ele><time>2026-03-30T08:49:57.999Z</time></trkpt><trkpt lat="33.44940389390752" lon="9.016482243490788"><ele>58.0</ele><time>2026-03-30T08:49:58.999Z</time></trkpt><trkpt lat="33.44926151993331" lon="9.016493274430584"><ele>58.0</ele><time>2026-03-30T08:49:59.999Z</time></trkpt><trkpt lat="33.44911265759901" lon="9.01650486041085"><ele>58.0</ele><time>2026-03-30T08:50:00.999Z</time></trkpt><trkpt lat="33.44896443174" lon="9.016516873286434"><ele>58.0</ele><time>2026-03-30T08:50:01.999Z</time></trkpt><trkpt lat="33.448809990194164" lon="9.01652792119812"><ele>57.666666666666664</ele><time>2026-03-30T08:50:02.999Z</time></trkpt><trkpt lat="33.448656568760605" lon="9.016538293172797"><ele>57.33333333333333</ele><time>2026-03-30T08:50:03.999Z</time></trkpt><trkpt lat="33.44850233040739" lon="9.016553922506384"><ele>57.0</ele><time>2026-03-30T08:50:04.999Z</time></trkpt><trkpt lat="33.44835459178054" lon="9.016568166776398"><ele>57.0</ele><time>2026-03-30T08:50:05.999Z</time></trkpt><trkpt lat="33.448211192949564" lon="9.016579372980514"><ele>57.0</ele><time>2026-03-30T08:50:06.999Z</time></trkpt><trkpt lat="33.448074050364916" lon="9.016602062964648"><ele>57.0</ele><time>2026-03-30T08:50:07.999Z</time></trkpt><trkpt lat="33.44793844021259" lon="9.01661689759839"><ele>57.0</ele><time>2026-03-30T08:50:08.999Z</time></trkpt><trkpt lat="33.44780748361979" lon="9.016627851954233"><ele>57.0</ele><time>2026-03-30T08:50:09.999Z</time></trkpt><trkpt lat="33.44767549525359" lon="9.016636839406356"><ele>57.0</ele><time>2026-03-30T08:50:10.999Z</time></trkpt><trkpt lat="33.44754729114355" lon="9.016642642321345"><ele>57.0</ele><time>2026-03-30T08:50:11.999Z</time></trkpt><trkpt lat="33.44741098000744" lon="9.016641985246334"><ele>57.0</ele><time>2026-03-30T08:50:12.999Z</time></trkpt><trkpt lat="33.447273116321746" lon="9.016634832419342"><ele>57.0</ele><time>2026-03-30T08:50:13.999Z</time></trkpt><trkpt lat="33.44713478256042" lon="9.016631882508237"><ele>57.0</ele><time>2026-03-30T08:50:14.999Z</time></trkpt><trkpt lat="33.44699578960421" lon="9.016634339022314"><ele>57.0</ele><time>2026-03-30T08:50:15.999Z</time></trkpt><trkpt lat="33.44685519974257" lon="9.016630828466209"><ele>57.0</ele><time>2026-03-30T08:50:16.999Z</time></trkpt><trkpt lat="33.446708470202026" lon="9.016625991195985"><ele>56.66666666666667</ele><time>2026-03-30T08:50:17.999Z</time></trkpt><trkpt lat="33.44656169906513" lon="9.016619096909682"><ele>56.333333333333336</ele><time>2026-03-30T08:50:18.999Z</time></trkpt><trkpt lat="33.44640842587246" lon="9.016611859290169"><ele>56.0</ele><time>2026-03-30T08:50:19.999Z</time></trkpt><trkpt lat="33.4462580898838" lon="9.016602226154214"><ele>55.66666666666667</ele><time>2026-03-30T08:50:20.999Z</time></trkpt><trkpt lat="33.446106109882905" lon="9.01659176523311"><ele>55.33333333333333</ele><time>2026-03-30T08:50:21.999Z</time></trkpt><trkpt lat="33.445951847575685" lon="9.016580170329306"><ele>55.0</ele><time>2026-03-30T08:50:22.999Z</time></trkpt><trkpt lat="33.44579633754411" lon="9.016566617664699"><ele>55.0</ele><time>2026-03-30T08:50:23.999Z</time></trkpt><trkpt lat="33.445648129855265" lon="9.016551875346858"><ele>55.0</ele><time>2026-03-30T08:50:24.999Z</time></trkpt><trkpt lat="33.445503776517015" lon="9.016530005528994"><ele>55.0</ele><time>2026-03-30T08:50:25.999Z</time></trkpt><trkpt lat="33.44537300214834" lon="9.01649675422536"><ele>55.0</ele><time>2026-03-30T08:50:26.999Z</time></trkpt><trkpt lat="33.445243343592324" lon="9.01645041741428"><ele>54.75</ele><time>2026-03-30T08:50:27.999Z</time></trkpt><trkpt lat="33.44510660368865" lon="9.01639708933052"><ele>54.5</ele><time>2026-03-30T08:50:28.999Z</time></trkpt><trkpt lat="33.444970451443275" lon="9.01634321271308"><ele>54.25</ele><time>2026-03-30T08:50:29.999Z</time></trkpt><trkpt lat="33.444829966859515" lon="9.01628935697555"><ele>54.0</ele><time>2026-03-30T08:50:30.999Z</time></trkpt><trkpt lat="33.444688270078615" lon="9.01623818749537"><ele>54.25</ele><time>2026-03-30T08:50:31.999Z</time></trkpt><trkpt lat="33.44455073519631" lon="9.01619125957139"><ele>54.5</ele><time>2026-03-30T08:50:32.999Z</time></trkpt><trkpt lat="33.44441135847082" lon="9.016142937181856"><ele>54.75</ele><time>2026-03-30T08:50:33.999Z</time></trkpt><trkpt lat="33.444270021087654" lon="9.016095563862278"><ele>55.0</ele><time>2026-03-30T08:50:34.999Z</time></trkpt><trkpt lat="33.44413000226931" lon="9.016047862048188"><ele>55.0</ele><time>2026-03-30T08:50:35.999Z</time></trkpt><trkpt lat="33.443984483028565" lon="9.016001146748074"><ele>55.0</ele><time>2026-03-30T08:50:36.999Z</time></trkpt><trkpt lat="33.443838522243524" lon="9.015955224036041"><ele>55.0</ele><time>2026-03-30T08:50:37.999Z</time></trkpt><trkpt lat="33.443688935836555" lon="9.015912802516807"><ele>55.0</ele><time>2026-03-30T08:50:38.999Z</time></trkpt><trkpt lat="33.443541939951224" lon="9.015871096744482"><ele>55.0</ele><time>2026-03-30T08:50:39.999Z</time></trkpt><trkpt lat="33.44339044192903" lon="9.015830910651744"><ele>55.0</ele><time>2026-03-30T08:50:40.999Z</time></trkpt><trkpt lat="33.443245358431916" lon="9.015790631358428"><ele>55.0</ele><time>2026-03-30T08:50:41.999Z</time></trkpt><trkpt lat="33.443095886713294" lon="9.015753314723083"><ele>55.0</ele><time>2026-03-30T08:50:42.999Z</time></trkpt><trkpt lat="33.44295455860109" lon="9.015721719708285"><ele>55.0</ele><time>2026-03-30T08:50:43.999Z</time></trkpt><trkpt lat="33.44281179838102" lon="9.015690768265188"><ele>55.0</ele><time>2026-03-30T08:50:44.999Z</time></trkpt><trkpt lat="33.44267126540366" lon="9.01565885802279"><ele>55.0</ele><time>2026-03-30T08:50:45.999Z</time></trkpt><trkpt lat="33.442527709904816" lon="9.015629537149108"><ele>55.0</ele><time>2026-03-30T08:50:46.999Z</time></trkpt><trkpt lat="33.44238636806444" lon="9.015603395802234"><ele>55.0</ele><time>2026-03-30T08:50:47.999Z</time></trkpt><trkpt lat="33.44223920375186" lon="9.01557280681379"><ele>55.0</ele><time>2026-03-30T08:50:48.999Z</time></trkpt><trkpt lat="33.442099147746276" lon="9.015536433938646"><ele>55.5</ele><time>2026-03-30T08:50:49.999Z</time></trkpt><trkpt lat="33.441950882567724" lon="9.015497642858552"><ele>56.0</ele><time>2026-03-30T08:50:50.999Z</time></trkpt><trkpt lat="33.441807803761115" lon="9.015463355363263"><ele>56.5</ele><time>2026-03-30T08:50:51.999Z</time></trkpt><trkpt lat="33.44166287969293" lon="9.015426108033633"><ele>57.0</ele><time>2026-03-30T08:50:52.999Z</time></trkpt><trkpt lat="33.44152483039637" lon="9.015385405843762"><ele>57.0</ele><time>2026-03-30T08:50:53.999Z</time></trkpt><trkpt lat="33.44138626241423" lon="9.015350561675458"><ele>57.0</ele><time>2026-03-30T08:50:54.999Z</time></trkpt><trkpt lat="33.44124170924785" lon="9.015322243014843"><ele>57.0</ele><time>2026-03-30T08:50:55.999Z</time></trkpt><trkpt lat="33.44109249366407" lon="9.015302803915795"><ele>57.0</ele><time>2026-03-30T08:50:56.999Z</time></trkpt><trkpt lat="33.44094201584702" lon="9.015291480157194"><ele>57.25</ele><time>2026-03-30T08:50:57.999Z</time></trkpt><trkpt lat="33.44079179199405" lon="9.015282005942057"><ele>57.5</ele><time>2026-03-30T08:50:58.999Z</time></trkpt><trkpt lat="33.440650359582726" lon="9.015267380705268"><ele>57.75</ele><time>2026-03-30T08:50:59.999Z</time></trkpt><trkpt lat="33.44051792934936" lon="9.015250903857446"><ele>58.0</ele><time>2026-03-30T08:51:00.999Z</time></trkpt><trkpt lat="33.44038358070792" lon="9.01523866707884"><ele>57.5</ele><time>2026-03-30T08:51:01.999Z</time></trkpt><trkpt lat="33.44025556988789" lon="9.015230866233622"><ele>57.0</ele><time>2026-03-30T08:51:02.999Z</time></trkpt><trkpt lat="33.440124391978216" lon="9.015218702008482"><ele>56.5</ele><time>2026-03-30T08:51:03.999Z</time></trkpt><trkpt lat="33.44000775963708" lon="9.01520693942682"><ele>56.0</ele><time>2026-03-30T08:51:04.999Z</time></trkpt><trkpt lat="33.43989463544905" lon="9.015190522776981"><ele>56.0</ele><time>2026-03-30T08:51:05.999Z</time></trkpt><trkpt lat="33.43978882897628" lon="9.015177665470443"><ele>56.0</ele><time>2026-03-30T08:51:06.999Z</time></trkpt><trkpt lat="33.43967640519479" lon="9.015167175242844"><ele>56.0</ele><time>2026-03-30T08:51:07.999Z</time></trkpt><trkpt lat="33.43956308845358" lon="9.01515336200263"><ele>56.0</ele><time>2026-03-30T08:51:08.999Z</time></trkpt><trkpt lat="33.43944137743488" lon="9.015134370170733"><ele>55.75</ele><time>2026-03-30T08:51:09.999Z</time></trkpt><trkpt lat="33.43931616566157" lon="9.015115715303306"><ele>55.5</ele><time>2026-03-30T08:51:10.999Z</time></trkpt><trkpt lat="33.43919106558682" lon="9.015095251967143"><ele>55.25</ele><time>2026-03-30T08:51:11.999Z</time></trkpt><trkpt lat="33.4390595465409" lon="9.015070490632139"><ele>55.0</ele><time>2026-03-30T08:51:12.998Z</time></trkpt><trkpt lat="33.43893248235171" lon="9.015047132303305"><ele>55.0</ele><time>2026-03-30T08:51:13.998Z</time></trkpt><trkpt lat="33.438808148814296" lon="9.015023801144899"><ele>55.0</ele><time>2026-03-30T08:51:14.998Z</time></trkpt><trkpt lat="33.43868659614248" lon="9.015004966366073"><ele>55.0</ele><time>2026-03-30T08:51:15.998Z</time></trkpt><trkpt lat="33.43857043387792" lon="9.014979471517705"><ele>55.0</ele><time>2026-03-30T08:51:16.998Z</time></trkpt><trkpt lat="33.43845138577767" lon="9.01495375916691"><ele>55.0</ele><time>2026-03-30T08:51:17.998Z</time></trkpt><trkpt lat="33.438328108561855" lon="9.01492197556296"><ele>55.0</ele><time>2026-03-30T08:51:18.998Z</time></trkpt><trkpt lat="33.438205998869975" lon="9.014889940555607"><ele>55.0</ele><time>2026-03-30T08:51:19.998Z</time></trkpt><trkpt lat="33.43807725775233" lon="9.014855534571465"><ele>55.0</ele><time>2026-03-30T08:51:20.998Z</time></trkpt><trkpt lat="33.437966642105636" lon="9.014829512202745"><ele>55.0</ele><time>2026-03-30T08:51:21.998Z</time></trkpt><trkpt lat="33.437862284801895" lon="9.01481376289214"><ele>55.0</ele><time>2026-03-30T08:51:22.998Z</time></trkpt><trkpt lat="33.437765179974804" lon="9.0147986320472"><ele>55.0</ele><time>2026-03-30T08:51:23.998Z</time></trkpt><trkpt lat="33.43767367790786" lon="9.014777153213364"><ele>55.0</ele><time>2026-03-30T08:51:24.998Z</time></trkpt><trkpt lat="33.437565952828976" lon="9.014744349633256"><ele>55.0</ele><time>2026-03-30T08:51:25.998Z</time></trkpt><trkpt lat="33.43745244554683" lon="9.014707048672737"><ele>55.0</ele><time>2026-03-30T08:51:26.999Z</time></trkpt><trkpt lat="33.43733369829756" lon="9.014667383120415"><ele>55.0</ele><time>2026-03-30T08:51:27.999Z</time></trkpt><trkpt lat="33.437209563756255" lon="9.014636142895284"><ele>55.0</ele><time>2026-03-30T08:51:28.999Z</time></trkpt><trkpt lat="33.437082122489926" lon="9.014607779217311"><ele>55.0</ele><time>2026-03-30T08:51:29.999Z</time></trkpt><trkpt lat="33.43696438653467" lon="9.014586799060316"><ele>55.0</ele><time>2026-03-30T08:51:30.999Z</time></trkpt><trkpt lat="33.43684226820654" lon="9.014564698648844"><ele>55.0</ele><time>2026-03-30T08:51:31.999Z</time></trkpt><trkpt lat="33.43672297299895" lon="9.01454897371313"><ele>55.0</ele><time>2026-03-30T08:51:32.999Z</time></trkpt><trkpt lat="33.436607376916946" lon="9.014540805146597"><ele>55.0</ele><time>2026-03-30T08:51:33.999Z</time></trkpt><trkpt lat="33.43648767543962" lon="9.01452734051032"><ele>55.0</ele><time>2026-03-30T08:51:34.999Z</time></trkpt><trkpt lat="33.436361892048204" lon="9.014509064148703"><ele>55.0</ele><time>2026-03-30T08:51:35.999Z</time></trkpt><trkpt lat="33.43624862420376" lon="9.014485150077121"><ele>55.0</ele><time>2026-03-30T08:51:36.999Z</time></trkpt><trkpt lat="33.436139316286955" lon="9.01446441514544"><ele>55.0</ele><time>2026-03-30T08:51:37.999Z</time></trkpt><trkpt lat="33.43603444825392" lon="9.0144449334111"><ele>55.6</ele><time>2026-03-30T08:51:38.999Z</time></trkpt><trkpt lat="33.4359206572485" lon="9.014433843271858"><ele>56.2</ele><time>2026-03-30T08:51:39.999Z</time></trkpt><trkpt lat="33.43580472102407" lon="9.01441989634377"><ele>56.8</ele><time>2026-03-30T08:51:40.999Z</time></trkpt><trkpt lat="33.43570020613721" lon="9.014402135718438"><ele>57.4</ele><time>2026-03-30T08:51:41.999Z</time></trkpt><trkpt lat="33.435597137839075" lon="9.014387685957582"><ele>58.0</ele><time>2026-03-30T08:51:42.999Z</time></trkpt><trkpt lat="33.435505891424086" lon="9.014374218423313"><ele>58.33333333333333</ele><time>2026-03-30T08:51:43.999Z</time></trkpt><trkpt lat="33.43543017993952" lon="9.014366510262304"><ele>58.666666666666664</ele><time>2026-03-30T08:51:44.999Z</time></trkpt><trkpt lat="33.4353611326114" lon="9.01435688803501"><ele>59.0</ele><time>2026-03-30T08:51:45.999Z</time></trkpt><trkpt lat="33.43529097317517" lon="9.014344967122792"><ele>59.33333333333333</ele><time>2026-03-30T08:51:46.999Z</time></trkpt><trkpt lat="33.43520985052159" lon="9.014332688789827"><ele>59.666666666666664</ele><time>2026-03-30T08:51:47.999Z</time></trkpt><trkpt lat="33.43511823652498" lon="9.014323340621369"><ele>60.0</ele><time>2026-03-30T08:51:48.999Z</time></trkpt><trkpt lat="33.435020451674575" lon="9.014312348456873"><ele>60.0</ele><time>2026-03-30T08:51:49.999Z</time></trkpt><trkpt lat="33.43491534270036" lon="9.014304841230993"><ele>60.0</ele><time>2026-03-30T08:51:50.999Z</time></trkpt><trkpt lat="33.43480417629506" lon="9.014294755496314"><ele>60.0</ele><time>2026-03-30T08:51:51.999Z</time></trkpt><trkpt lat="33.434692302178924" lon="9.014281081135433"><ele>60.0</ele><time>2026-03-30T08:51:52.999Z</time></trkpt><trkpt lat="33.43457315805343" lon="9.01426393044185"><ele>60.0</ele><time>2026-03-30T08:51:53.999Z</time></trkpt><trkpt lat="33.434442578953096" lon="9.014242430781568"><ele>60.0</ele><time>2026-03-30T08:51:54.999Z</time></trkpt><trkpt lat="33.434318781717344" lon="9.014223644808027"><ele>60.0</ele><time>2026-03-30T08:51:55.999Z</time></trkpt><trkpt lat="33.43419495554504" lon="9.014212669294967"><ele>60.0</ele><time>2026-03-30T08:51:56.999Z</time></trkpt><trkpt lat="33.434072462223234" lon="9.014204259604622"><ele>60.0</ele><time>2026-03-30T08:51:57.999Z</time></trkpt><trkpt lat="33.433952999137645" lon="9.014197793240479"><ele>60.0</ele><time>2026-03-30T08:51:58.999Z</time></trkpt><trkpt lat="33.433831246109015" lon="9.014184209239097"><ele>60.0</ele><time>2026-03-30T08:51:59.999Z</time></trkpt><trkpt lat="33.43370531668733" lon="9.014160954059722"><ele>60.0</ele><time>2026-03-30T08:52:00.999Z</time></trkpt><trkpt lat="33.43357795245036" lon="9.014139953172748"><ele>60.0</ele><time>2026-03-30T08:52:01.999Z</time></trkpt><trkpt lat="33.433441874496566" lon="9.014122582342646"><ele>60.25</ele><time>2026-03-30T08:52:02.999Z</time></trkpt><trkpt lat="33.43330270535875" lon="9.014106514849292"><ele>60.5</ele><time>2026-03-30T08:52:03.999Z</time></trkpt><trkpt lat="33.43316288679992" lon="9.014093816719479"><ele>60.75</ele><time>2026-03-30T08:52:04.999Z</time></trkpt><trkpt lat="33.43303514921717" lon="9.01407551046538"><ele>61.0</ele><time>2026-03-30T08:52:05.999Z</time></trkpt><trkpt lat="33.43289425822274" lon="9.014055688545813"><ele>61.5</ele><time>2026-03-30T08:52:06.999Z</time></trkpt><trkpt lat="33.432754930511706" lon="9.014036764062924"><ele>62.0</ele><time>2026-03-30T08:52:07.999Z</time></trkpt><trkpt lat="33.43261464663062" lon="9.014021888048878"><ele>62.5</ele><time>2026-03-30T08:52:08.999Z</time></trkpt><trkpt lat="33.4324735834339" lon="9.014008592757953"><ele>63.0</ele><time>2026-03-30T08:52:09.999Z</time></trkpt><trkpt lat="33.43233813133043" lon="9.013996177743882"><ele>63.0</ele><time>2026-03-30T08:52:10.999Z</time></trkpt><trkpt lat="33.432209363905834" lon="9.013981975891474"><ele>63.0</ele><time>2026-03-30T08:52:11.999Z</time></trkpt><trkpt lat="33.432085357439554" lon="9.013966608336768"><ele>63.0</ele><time>2026-03-30T08:52:12.999Z</time></trkpt><trkpt lat="33.43196140902099" lon="9.013948138363682"><ele>63.0</ele><time>2026-03-30T08:52:13.999Z</time></trkpt><trkpt lat="33.43182780523182" lon="9.013930490002098"><ele>62.75</ele><time>2026-03-30T08:52:14.999Z</time></trkpt><trkpt lat="33.43169582418237" lon="9.013917006596486"><ele>62.5</ele><time>2026-03-30T08:52:15.999Z</time></trkpt><trkpt lat="33.431560782563" lon="9.013905009359567"><ele>62.25</ele><time>2026-03-30T08:52:16.999Z</time></trkpt><trkpt lat="33.43141866237734" lon="9.01389190180965"><ele>62.0</ele><time>2026-03-30T08:52:17.999Z</time></trkpt><trkpt lat="33.431272437456016" lon="9.013870061773028"><ele>62.0</ele><time>2026-03-30T08:52:18.999Z</time></trkpt><trkpt lat="33.431126275858524" lon="9.013844546907363"><ele>62.0</ele><time>2026-03-30T08:52:19.999Z</time></trkpt><trkpt lat="33.43098119800684" lon="9.013820204203656"><ele>62.0</ele><time>2026-03-30T08:52:20.999Z</time></trkpt><trkpt lat="33.43083924351802" lon="9.013792763384489"><ele>62.0</ele><time>2026-03-30T08:52:21.999Z</time></trkpt><trkpt lat="33.430703519685466" lon="9.013773406163153"><ele>62.0</ele><time>2026-03-30T08:52:22.999Z</time></trkpt><trkpt lat="33.43057186284187" lon="9.013756774463582"><ele>62.0</ele><time>2026-03-30T08:52:23.999Z</time></trkpt><trkpt lat="33.43043733990271" lon="9.013743282762809"><ele>62.0</ele><time>2026-03-30T08:52:24.999Z</time></trkpt><trkpt lat="33.43029935424207" lon="9.013726149496133"><ele>62.0</ele><time>2026-03-30T08:52:25.999Z</time></trkpt><trkpt lat="33.43015961033679" lon="9.013696984219775"><ele>62.0</ele><time>2026-03-30T08:52:26.999Z</time></trkpt><trkpt lat="33.4300116741744" lon="9.013686585849328"><ele>62.0</ele><time>2026-03-30T08:52:27.999Z</time></trkpt><trkpt lat="33.42987843014489" lon="9.013672498429816"><ele>62.0</ele><time>2026-03-30T08:52:28.999Z</time></trkpt><trkpt lat="33.42972971995404" lon="9.013655575987416"><ele>62.0</ele><time>2026-03-30T08:52:29.999Z</time></trkpt><trkpt lat="33.42957744404318" lon="9.013637473300676"><ele>62.75</ele><time>2026-03-30T08:52:30.999Z</time></trkpt><trkpt lat="33.4294394307787" lon="9.013614074443682"><ele>63.5</ele><time>2026-03-30T08:52:31.999Z</time></trkpt><trkpt lat="33.4293033488975" lon="9.013590895758568"><ele>64.25</ele><time>2026-03-30T08:52:32.999Z</time></trkpt><trkpt lat="33.42917618180749" lon="9.013572454386521"><ele>65.0</ele><time>2026-03-30T08:52:33.999Z</time></trkpt><trkpt lat="33.42904066921921" lon="9.01355684435354"><ele>65.0</ele><time>2026-03-30T08:52:34.999Z</time></trkpt><trkpt lat="33.42889359132466" lon="9.013548882173547"><ele>65.0</ele><time>2026-03-30T08:52:35.999Z</time></trkpt><trkpt lat="33.4287483518494" lon="9.01352140764865"><ele>65.0</ele><time>2026-03-30T08:52:36.999Z</time></trkpt><trkpt lat="33.428601788446976" lon="9.013493923952357"><ele>65.0</ele><time>2026-03-30T08:52:37.999Z</time></trkpt><trkpt lat="33.428451493625374" lon="9.013466730979195"><ele>65.75</ele><time>2026-03-30T08:52:38.999Z</time></trkpt><trkpt lat="33.42829900405215" lon="9.013440647009828"><ele>66.5</ele><time>2026-03-30T08:52:39.999Z</time></trkpt><trkpt lat="33.42815649411973" lon="9.013418886399858"><ele>67.25</ele><time>2026-03-30T08:52:40.999Z</time></trkpt><trkpt lat="33.428018702599466" lon="9.013393742300728"><ele>68.0</ele><time>2026-03-30T08:52:41.999Z</time></trkpt><trkpt lat="33.427881521322256" lon="9.013369969439681"><ele>68.0</ele><time>2026-03-30T08:52:42.999Z</time></trkpt><trkpt lat="33.42774570789659" lon="9.013345703496283"><ele>68.0</ele><time>2026-03-30T08:52:43.999Z</time></trkpt><trkpt lat="33.42760855213611" lon="9.013317462327631"><ele>68.0</ele><time>2026-03-30T08:52:44.999Z</time></trkpt><trkpt lat="33.427468446889606" lon="9.013286876863999"><ele>68.0</ele><time>2026-03-30T08:52:45.999Z</time></trkpt><trkpt lat="33.427324766793426" lon="9.013250075644425"><ele>68.0</ele><time>2026-03-30T08:52:46.999Z</time></trkpt><trkpt lat="33.42718369430898" lon="9.01321917997489"><ele>68.0</ele><time>2026-03-30T08:52:47.999Z</time></trkpt><trkpt lat="33.42703472661055" lon="9.013192871439754"><ele>68.0</ele><time>2026-03-30T08:52:48.999Z</time></trkpt><trkpt lat="33.42688967965433" lon="9.01317167329281"><ele>68.0</ele><time>2026-03-30T08:52:49.999Z</time></trkpt><trkpt lat="33.426745486792" lon="9.013154308479688"><ele>67.75</ele><time>2026-03-30T08:52:50.999Z</time></trkpt><trkpt lat="33.42660482325303" lon="9.013138539550734"><ele>67.5</ele><time>2026-03-30T08:52:51.999Z</time></trkpt><trkpt lat="33.42646683304232" lon="9.013121815873204"><ele>67.25</ele><time>2026-03-30T08:52:52.999Z</time></trkpt><trkpt lat="33.42633535945714" lon="9.01310875144137"><ele>67.0</ele><time>2026-03-30T08:52:53.999Z</time></trkpt><trkpt lat="33.426201874023064" lon="9.013094004014341"><ele>67.0</ele><time>2026-03-30T08:52:54.999Z</time></trkpt><trkpt lat="33.426063500370844" lon="9.013081250092972"><ele>67.0</ele><time>2026-03-30T08:52:55.999Z</time></trkpt><trkpt lat="33.425926738503534" lon="9.013063347743445"><ele>67.0</ele><time>2026-03-30T08:52:56.999Z</time></trkpt><trkpt lat="33.425780668848226" lon="9.013042511970767"><ele>67.0</ele><time>2026-03-30T08:52:57.999Z</time></trkpt><trkpt lat="33.42563607336226" lon="9.013022281398985"><ele>67.0</ele><time>2026-03-30T08:52:58.999Z</time></trkpt><trkpt lat="33.425488858577175" lon="9.01299991700863"><ele>67.0</ele><time>2026-03-30T08:52:59.999Z</time></trkpt><trkpt lat="33.42534402063459" lon="9.012978479457"><ele>67.0</ele><time>2026-03-30T08:53:00.999Z</time></trkpt><trkpt lat="33.42519998247334" lon="9.012956591356183"><ele>67.0</ele><time>2026-03-30T08:53:01.999Z</time></trkpt><trkpt lat="33.42505385400304" lon="9.012937950448991"><ele>67.0</ele><time>2026-03-30T08:53:02.999Z</time></trkpt><trkpt lat="33.4249108788558" lon="9.012922803780121"><ele>67.0</ele><time>2026-03-30T08:53:03.999Z</time></trkpt><trkpt lat="33.42476415470569" lon="9.012905827079871"><ele>67.0</ele><time>2026-03-30T08:53:04.999Z</time></trkpt><trkpt lat="33.4246177406017" lon="9.012889242220126"><ele>67.0</ele><time>2026-03-30T08:53:05.999Z</time></trkpt><trkpt lat="33.42446864568034" lon="9.012866395864567"><ele>67.0</ele><time>2026-03-30T08:53:06.999Z</time></trkpt><trkpt lat="33.424319896879936" lon="9.01283638825587"><ele>67.0</ele><time>2026-03-30T08:53:07.999Z</time></trkpt><trkpt lat="33.424173772477445" lon="9.01280725819432"><ele>67.0</ele><time>2026-03-30T08:53:08.999Z</time></trkpt><trkpt lat="33.42402585378289" lon="9.01278097955619"><ele>67.0</ele><time>2026-03-30T08:53:09.999Z</time></trkpt><trkpt lat="33.42387693027555" lon="9.01275336670371"><ele>67.25</ele><time>2026-03-30T08:53:10.999Z</time></trkpt><trkpt lat="33.42373314061957" lon="9.012722165381202"><ele>67.5</ele><time>2026-03-30T08:53:11.999Z</time></trkpt><trkpt lat="33.42359217288662" lon="9.012692707470817"><ele>67.75</ele><time>2026-03-30T08:53:12.999Z</time></trkpt><trkpt lat="33.4234509343809" lon="9.012654745267975"><ele>68.0</ele><time>2026-03-30T08:53:13.999Z</time></trkpt><trkpt lat="33.42331106045045" lon="9.012613026171948"><ele>68.0</ele><time>2026-03-30T08:53:14.999Z</time></trkpt><trkpt lat="33.42317171612463" lon="9.012576128002687"><ele>68.0</ele><time>2026-03-30T08:53:15.999Z</time></trkpt><trkpt lat="33.423032499401515" lon="9.01253677596218"><ele>68.0</ele><time>2026-03-30T08:53:16.999Z</time></trkpt><trkpt lat="33.42289373365349" lon="9.012498741439314"><ele>68.0</ele><time>2026-03-30T08:53:17.999Z</time></trkpt><trkpt lat="33.422752535022916" lon="9.01245712764615"><ele>68.0</ele><time>2026-03-30T08:53:18.999Z</time></trkpt><trkpt lat="33.42260793046151" lon="9.012420575782858"><ele>68.0</ele><time>2026-03-30T08:53:19.999Z</time></trkpt><trkpt lat="33.422469093764626" lon="9.012392950887646"><ele>68.0</ele><time>2026-03-30T08:53:20.999Z</time></trkpt><trkpt lat="33.42232257075325" lon="9.01236827853032"><ele>68.0</ele><time>2026-03-30T08:53:21.999Z</time></trkpt><trkpt lat="33.422176949561205" lon="9.012352845484"><ele>67.33333333333334</ele><time>2026-03-30T08:53:22.999Z</time></trkpt><trkpt lat="33.42202354288044" lon="9.012340190613534"><ele>66.66666666666667</ele><time>2026-03-30T08:53:23.999Z</time></trkpt><trkpt lat="33.4218716222983" lon="9.012327825391868"><ele>66.0</ele><time>2026-03-30T08:53:24.999Z</time></trkpt><trkpt lat="33.42171946862757" lon="9.012319963325027"><ele>66.0</ele><time>2026-03-30T08:53:25.999Z</time></trkpt><trkpt lat="33.421564223262884" lon="9.012311662125224"><ele>66.0</ele><time>2026-03-30T08:53:26.999Z</time></trkpt><trkpt lat="33.421407398162394" lon="9.01230155258191"><ele>66.0</ele><time>2026-03-30T08:53:27.999Z</time></trkpt><trkpt lat="33.4212548692377" lon="9.012301085281223"><ele>65.5</ele><time>2026-03-30T08:53:28.999Z</time></trkpt><trkpt lat="33.421110755879546" lon="9.012302204257626"><ele>65.0</ele><time>2026-03-30T08:53:29.999Z</time></trkpt><trkpt lat="33.42096140906245" lon="9.012301243634035"><ele>64.5</ele><time>2026-03-30T08:53:30.999Z</time></trkpt><trkpt lat="33.42080574038234" lon="9.012294804165727"><ele>64.0</ele><time>2026-03-30T08:53:31.999Z</time></trkpt><trkpt lat="33.42065087331286" lon="9.012290599613575"><ele>64.0</ele><time>2026-03-30T08:53:32.999Z</time></trkpt><trkpt lat="33.42049882123178" lon="9.012285728911257"><ele>64.0</ele><time>2026-03-30T08:53:33.999Z</time></trkpt><trkpt lat="33.42035638956161" lon="9.012278196674876"><ele>64.0</ele><time>2026-03-30T08:53:34.999Z</time></trkpt><trkpt lat="33.42020860046919" lon="9.012261629810416"><ele>64.0</ele><time>2026-03-30T08:53:35.999Z</time></trkpt><trkpt lat="33.420056216923335" lon="9.01223956423354"><ele>64.0</ele><time>2026-03-30T08:53:36.999Z</time></trkpt><trkpt lat="33.41991129368049" lon="9.012212636056175"><ele>64.0</ele><time>2026-03-30T08:53:37.999Z</time></trkpt><trkpt lat="33.41976773468703" lon="9.012182617478128"><ele>64.0</ele><time>2026-03-30T08:53:38.999Z</time></trkpt><trkpt lat="33.41962204216247" lon="9.012150870440307"><ele>64.0</ele><time>2026-03-30T08:53:39.999Z</time></trkpt><trkpt lat="33.419475200800015" lon="9.012115569815046"><ele>64.0</ele><time>2026-03-30T08:53:40.999Z</time></trkpt><trkpt lat="33.41932666549682" lon="9.012074580144152"><ele>64.0</ele><time>2026-03-30T08:53:41.999Z</time></trkpt><trkpt lat="33.419180626217695" lon="9.012037399781574"><ele>64.0</ele><time>2026-03-30T08:53:43Z</time></trkpt><trkpt lat="33.41902929207181" lon="9.011995403011944"><ele>64.0</ele><time>2026-03-30T08:53:44Z</time></trkpt><trkpt lat="33.41888480233184" lon="9.011946844462377"><ele>64.0</ele><time>2026-03-30T08:53:45Z</time></trkpt><trkpt lat="33.41874040301147" lon="9.011900051988416"><ele>64.0</ele><time>2026-03-30T08:53:46Z</time></trkpt><trkpt lat="33.41859164324507" lon="9.011853789881812"><ele>64.66666666666666</ele><time>2026-03-30T08:53:47Z</time></trkpt><trkpt lat="33.418437893542546" lon="9.011802934637394"><ele>65.33333333333333</ele><time>2026-03-30T08:53:48Z</time></trkpt><trkpt lat="33.418290587813274" lon="9.0117510985927"><ele>66.0</ele><time>2026-03-30T08:53:49Z</time></trkpt><trkpt lat="33.4181433957355" lon="9.011697957880925"><ele>65.25</ele><time>2026-03-30T08:53:50Z</time></trkpt><trkpt lat="33.41800161451843" lon="9.011651392334127"><ele>64.5</ele><time>2026-03-30T08:53:51Z</time></trkpt><trkpt lat="33.417862775570676" lon="9.011603771889112"><ele>63.75</ele><time>2026-03-30T08:53:52Z</time></trkpt><trkpt lat="33.417719536026475" lon="9.011557759628069"><ele>63.0</ele><time>2026-03-30T08:53:53Z</time></trkpt><trkpt lat="33.41757114074164" lon="9.011510511339782"><ele>63.0</ele><time>2026-03-30T08:53:54Z</time></trkpt><trkpt lat="33.41742403661683" lon="9.011456873212914"><ele>63.0</ele><time>2026-03-30T08:53:55Z</time></trkpt><trkpt lat="33.41727740841118" lon="9.011404596034316"><ele>63.0</ele><time>2026-03-30T08:53:56Z</time></trkpt><trkpt lat="33.417122672930596" lon="9.011353117449989"><ele>63.0</ele><time>2026-03-30T08:53:57Z</time></trkpt><trkpt lat="33.4169721815878" lon="9.011300703683778"><ele>63.0</ele><time>2026-03-30T08:53:58Z</time></trkpt><trkpt lat="33.416818661541726" lon="9.011239042571471"><ele>63.0</ele><time>2026-03-30T08:53:59Z</time></trkpt><trkpt lat="33.41666805911306" lon="9.011180887943725"><ele>63.0</ele><time>2026-03-30T08:54:00Z</time></trkpt><trkpt lat="33.41652122334246" lon="9.01112620770849"><ele>63.0</ele><time>2026-03-30T08:54:01Z</time></trkpt><trkpt lat="33.41637059585233" lon="9.011063543633727"><ele>63.0</ele><time>2026-03-30T08:54:02Z</time></trkpt><trkpt lat="33.41621675873068" lon="9.010999943675412"><ele>63.33333333333333</ele><time>2026-03-30T08:54:03Z</time></trkpt><trkpt lat="33.41606996070777" lon="9.010941218915107"><ele>63.666666666666664</ele><time>2026-03-30T08:54:04Z</time></trkpt><trkpt lat="33.415922773613694" lon="9.010878224318391"><ele>64.0</ele><time>2026-03-30T08:54:05Z</time></trkpt><trkpt lat="33.41577274974958" lon="9.010811404354138"><ele>64.0</ele><time>2026-03-30T08:54:06Z</time></trkpt><trkpt lat="33.415623428344745" lon="9.010738413915337"><ele>64.0</ele><time>2026-03-30T08:54:07Z</time></trkpt><trkpt lat="33.41547705404597" lon="9.01066585507329"><ele>64.0</ele><time>2026-03-30T08:54:08Z</time></trkpt><trkpt lat="33.415320835042124" lon="9.010595086416947"><ele>64.66666666666666</ele><time>2026-03-30T08:54:09Z</time></trkpt><trkpt lat="33.41516353108313" lon="9.010524666212856"><ele>65.33333333333333</ele><time>2026-03-30T08:54:10Z</time></trkpt><trkpt lat="33.415007504674804" lon="9.010458896103346"><ele>66.0</ele><time>2026-03-30T08:54:11Z</time></trkpt><trkpt lat="33.41484793802486" lon="9.010389668845013"><ele>66.0</ele><time>2026-03-30T08:54:12Z</time></trkpt><trkpt lat="33.41470429033332" lon="9.01032685889254"><ele>66.0</ele><time>2026-03-30T08:54:13Z</time></trkpt><trkpt lat="33.41454819484536" lon="9.01025734955562"><ele>66.0</ele><time>2026-03-30T08:54:14Z</time></trkpt><trkpt lat="33.41439939276125" lon="9.01019189489295"><ele>66.33333333333333</ele><time>2026-03-30T08:54:15Z</time></trkpt><trkpt lat="33.41424819399789" lon="9.01012040531345"><ele>66.66666666666666</ele><time>2026-03-30T08:54:16Z</time></trkpt><trkpt lat="33.41409827812533" lon="9.010052563296044"><ele>67.0</ele><time>2026-03-30T08:54:17Z</time></trkpt><trkpt lat="33.41395255479603" lon="9.00999090575674"><ele>66.33333333333333</ele><time>2026-03-30T08:54:18Z</time></trkpt><trkpt lat="33.41380412976803" lon="9.009923819338363"><ele>65.66666666666667</ele><time>2026-03-30T08:54:19Z</time></trkpt><trkpt lat="33.41365859724728" lon="9.00985771571105"><ele>65.0</ele><time>2026-03-30T08:54:20Z</time></trkpt><trkpt lat="33.41351784372036" lon="9.009782597670112"><ele>65.0</ele><time>2026-03-30T08:54:21Z</time></trkpt><trkpt lat="33.41339314986229" lon="9.009704063914093"><ele>65.0</ele><time>2026-03-30T08:54:22Z</time></trkpt><trkpt lat="33.41327372068265" lon="9.009626907969308"><ele>65.0</ele><time>2026-03-30T08:54:23Z</time></trkpt><trkpt lat="33.413156269324965" lon="9.00955292360548"><ele>65.0</ele><time>2026-03-30T08:54:24Z</time></trkpt><trkpt lat="33.4130413815924" lon="9.009480150009809"><ele>65.0</ele><time>2026-03-30T08:54:25Z</time></trkpt><trkpt lat="33.412911672149015" lon="9.009405303810063"><ele>65.0</ele><time>2026-03-30T08:54:26Z</time></trkpt><trkpt lat="33.41277512899326" lon="9.009327801227222"><ele>65.0</ele><time>2026-03-30T08:54:27Z</time></trkpt><trkpt lat="33.412637572356005" lon="9.009248751930409"><ele>65.0</ele><time>2026-03-30T08:54:28Z</time></trkpt><trkpt lat="33.41249902181981" lon="9.009168579335046"><ele>64.66666666666667</ele><time>2026-03-30T08:54:29Z</time></trkpt><trkpt lat="33.412362093886024" lon="9.009089675773641"><ele>64.33333333333333</ele><time>2026-03-30T08:54:30Z</time></trkpt><trkpt lat="33.412221412003525" lon="9.009008760563042"><ele>64.0</ele><time>2026-03-30T08:54:31Z</time></trkpt><trkpt lat="33.41207589101415" lon="9.008933468587223"><ele>64.5</ele><time>2026-03-30T08:54:32Z</time></trkpt><trkpt lat="33.41194269938822" lon="9.00886521602098"><ele>65.0</ele><time>2026-03-30T08:54:32.999Z</time></trkpt><trkpt lat="33.411817705843845" lon="9.008796176325788"><ele>65.5</ele><time>2026-03-30T08:54:33.999Z</time></trkpt><trkpt lat="33.4117000637827" lon="9.008734391680866"><ele>66.0</ele><time>2026-03-30T08:54:34.999Z</time></trkpt><trkpt lat="33.411580872390886" lon="9.008672696179858"><ele>66.0</ele><time>2026-03-30T08:54:35.999Z</time></trkpt><trkpt lat="33.411451894499606" lon="9.00860265365724"><ele>66.0</ele><time>2026-03-30T08:54:36.999Z</time></trkpt><trkpt lat="33.411319875790355" lon="9.008530004821463"><ele>66.0</ele><time>2026-03-30T08:54:37.999Z</time></trkpt><trkpt lat="33.41118149436801" lon="9.008464095659093"><ele>66.0</ele><time>2026-03-30T08:54:38.999Z</time></trkpt><trkpt lat="33.4110398042932" lon="9.00839748672151"><ele>66.0</ele><time>2026-03-30T08:54:39.999Z</time></trkpt><trkpt lat="33.410900080907865" lon="9.008333642409902"><ele>66.0</ele><time>2026-03-30T08:54:40.999Z</time></trkpt><trkpt lat="33.41074822726134" lon="9.00826705795798"><ele>66.0</ele><time>2026-03-30T08:54:41.999Z</time></trkpt><trkpt lat="33.410599003865784" lon="9.008204169882983"><ele>66.0</ele><time>2026-03-30T08:54:42.999Z</time></trkpt><trkpt lat="33.41044619919892" lon="9.00814248332759"><ele>66.0</ele><time>2026-03-30T08:54:43.999Z</time></trkpt><trkpt lat="33.41028353105053" lon="9.00807918640876"><ele>66.0</ele><time>2026-03-30T08:54:44.999Z</time></trkpt><trkpt lat="33.41012704404282" lon="9.008020729348445"><ele>66.0</ele><time>2026-03-30T08:54:45.999Z</time></trkpt><trkpt lat="33.409971832868145" lon="9.0079669771237"><ele>66.0</ele><time>2026-03-30T08:54:46.999Z</time></trkpt><trkpt lat="33.40981094632934" lon="9.0079049698567"><ele>66.0</ele><time>2026-03-30T08:54:47.999Z</time></trkpt><trkpt lat="33.40965005929554" lon="9.007845150900362"><ele>65.66666666666667</ele><time>2026-03-30T08:54:48.999Z</time></trkpt><trkpt lat="33.40950054491358" lon="9.007791625214079"><ele>65.33333333333334</ele><time>2026-03-30T08:54:49.999Z</time></trkpt><trkpt lat="33.40934188276842" lon="9.007736567852858"><ele>65.0</ele><time>2026-03-30T08:54:50.999Z</time></trkpt><trkpt lat="33.409192818019164" lon="9.007683896253813"><ele>65.0</ele><time>2026-03-30T08:54:51.999Z</time></trkpt><trkpt lat="33.409038987959526" lon="9.007628720409658"><ele>65.0</ele><time>2026-03-30T08:54:52.999Z</time></trkpt><trkpt lat="33.4088826290218" lon="9.007572931005063"><ele>65.0</ele><time>2026-03-30T08:54:53.999Z</time></trkpt><trkpt lat="33.40872425291059" lon="9.007519211394083"><ele>65.0</ele><time>2026-03-30T08:54:54.999Z</time></trkpt><trkpt lat="33.40856991931662" lon="9.007462799684602"><ele>65.0</ele><time>2026-03-30T08:54:55.999Z</time></trkpt><trkpt lat="33.408409236737576" lon="9.007397384325607"><ele>65.0</ele><time>2026-03-30T08:54:56.999Z</time></trkpt><trkpt lat="33.408249044354584" lon="9.007331322867309"><ele>65.0</ele><time>2026-03-30T08:54:57.999Z</time></trkpt><trkpt lat="33.40809212341059" lon="9.007271928230674"><ele>65.0</ele><time>2026-03-30T08:54:58.999Z</time></trkpt><trkpt lat="33.407925993939756" lon="9.007212859844545"><ele>65.0</ele><time>2026-03-30T08:54:59.999Z</time></trkpt><trkpt lat="33.407760571023346" lon="9.007149412475528"><ele>65.0</ele><time>2026-03-30T08:55:00.999Z</time></trkpt><trkpt lat="33.40759746408028" lon="9.007081881218523"><ele>65.0</ele><time>2026-03-30T08:55:01.999Z</time></trkpt><trkpt lat="33.407430377796096" lon="9.007011530423979"><ele>65.0</ele><time>2026-03-30T08:55:02.999Z</time></trkpt><trkpt lat="33.40726493932892" lon="9.00695004440052"><ele>64.33333333333334</ele><time>2026-03-30T08:55:03.999Z</time></trkpt><trkpt lat="33.40709638257741" lon="9.006891180991493"><ele>63.66666666666667</ele><time>2026-03-30T08:55:04.999Z</time></trkpt><trkpt lat="33.40692439629072" lon="9.006827251385472"><ele>63.0</ele><time>2026-03-30T08:55:05.999Z</time></trkpt><trkpt lat="33.406761531748124" lon="9.006769655218589"><ele>63.0</ele><time>2026-03-30T08:55:06.999Z</time></trkpt><trkpt lat="33.4065913077456" lon="9.00671275713218"><ele>63.0</ele><time>2026-03-30T08:55:07.999Z</time></trkpt><trkpt lat="33.406424166933824" lon="9.00665701701951"><ele>63.0</ele><time>2026-03-30T08:55:08.999Z</time></trkpt><trkpt lat="33.406256414996705" lon="9.0065983459767"><ele>63.66666666666667</ele><time>2026-03-30T08:55:09.999Z</time></trkpt><trkpt lat="33.406090444105516" lon="9.006541790115524"><ele>64.33333333333334</ele><time>2026-03-30T08:55:10.999Z</time></trkpt><trkpt lat="33.40593320231388" lon="9.00649235137652"><ele>65.0</ele><time>2026-03-30T08:55:11.999Z</time></trkpt><trkpt lat="33.40577916451963" lon="9.0064488877459"><ele>65.0</ele><time>2026-03-30T08:55:12.999Z</time></trkpt><trkpt lat="33.405634318943996" lon="9.006421093818442"><ele>65.0</ele><time>2026-03-30T08:55:13.999Z</time></trkpt><trkpt lat="33.405509579769564" lon="9.006431000253581"><ele>65.0</ele><time>2026-03-30T08:55:14.999Z</time></trkpt><trkpt lat="33.405405589166214" lon="9.006481017660743"><ele>65.0</ele><time>2026-03-30T08:55:15.999Z</time></trkpt><trkpt lat="33.40531704765807" lon="9.006552309785715"><ele>65.0</ele><time>2026-03-30T08:55:16.999Z</time></trkpt><trkpt lat="33.40524692894209" lon="9.006637005942446"><ele>65.0</ele><time>2026-03-30T08:55:17.999Z</time></trkpt><trkpt lat="33.40518321435987" lon="9.006736655620777"><ele>65.0</ele><time>2026-03-30T08:55:18.999Z</time></trkpt><trkpt lat="33.40513397044163" lon="9.006853849301445"><ele>65.0</ele><time>2026-03-30T08:55:19.999Z</time></trkpt><trkpt lat="33.40510010497025" lon="9.006988751619142"><ele>65.0</ele><time>2026-03-30T08:55:20.999Z</time></trkpt><trkpt lat="33.405078781444416" lon="9.00713520429969"><ele>65.0</ele><time>2026-03-30T08:55:21.999Z</time></trkpt><trkpt lat="33.4050676318022" lon="9.007286965427008"><ele>65.0</ele><time>2026-03-30T08:55:22.999Z</time></trkpt><trkpt lat="33.40505714796592" lon="9.007440714728885"><ele>65.0</ele><time>2026-03-30T08:55:23.999Z</time></trkpt><trkpt lat="33.40504600762825" lon="9.00759412300132"><ele>65.0</ele><time>2026-03-30T08:55:24.999Z</time></trkpt><trkpt lat="33.40503451262" lon="9.007748649421144"><ele>65.0</ele><time>2026-03-30T08:55:25.999Z</time></trkpt><trkpt lat="33.405019656932964" lon="9.007906302444336"><ele>65.0</ele><time>2026-03-30T08:55:26.999Z</time></trkpt><trkpt lat="33.4049917151092" lon="9.008054500310212"><ele>65.0</ele><time>2026-03-30T08:55:27.999Z</time></trkpt><trkpt lat="33.40494723239361" lon="9.00817600329524"><ele>65.0</ele><time>2026-03-30T08:55:28.999Z</time></trkpt><trkpt lat="33.40487436443144" lon="9.008282166108792"><ele>65.0</ele><time>2026-03-30T08:55:29.999Z</time></trkpt><trkpt lat="33.4047836285494" lon="9.008380198856413"><ele>65.0</ele><time>2026-03-30T08:55:30.999Z</time></trkpt><trkpt lat="33.40469105950641" lon="9.008457328829524"><ele>65.0</ele><time>2026-03-30T08:55:31.999Z</time></trkpt><trkpt lat="33.404591008069744" lon="9.008521944519686"><ele>65.0</ele><time>2026-03-30T08:55:32.999Z</time></trkpt><trkpt lat="33.40448203010666" lon="9.008578413272838"><ele>65.0</ele><time>2026-03-30T08:55:33.999Z</time></trkpt><trkpt lat="33.40436602732917" lon="9.00863484421498"><ele>65.0</ele><time>2026-03-30T08:55:34.999Z</time></trkpt><trkpt lat="33.40424998188579" lon="9.008685486746625"><ele>65.0</ele><time>2026-03-30T08:55:35.999Z</time></trkpt><trkpt lat="33.404119871872744" lon="9.00873865879961"><ele>65.0</ele><time>2026-03-30T08:55:36.999Z</time></trkpt><trkpt lat="33.40398229967642" lon="9.008793542024897"><ele>65.0</ele><time>2026-03-30T08:55:37.999Z</time></trkpt><trkpt lat="33.4038430981682" lon="9.00884747165939"><ele>65.0</ele><time>2026-03-30T08:55:39Z</time></trkpt><trkpt lat="33.403704429417196" lon="9.008895124678727"><ele>65.0</ele><time>2026-03-30T08:55:40Z</time></trkpt><trkpt lat="33.40358193378972" lon="9.008924752510012"><ele>65.0</ele><time>2026-03-30T08:55:41Z</time></trkpt><trkpt lat="33.40346831695092" lon="9.008938257358366"><ele>65.0</ele><time>2026-03-30T08:55:42Z</time></trkpt><trkpt lat="33.4033605777301" lon="9.00894466821516"><ele>65.0</ele><time>2026-03-30T08:55:43Z</time></trkpt><trkpt lat="33.40325943373304" lon="9.00893262631261"><ele>65.0</ele><time>2026-03-30T08:55:44Z</time></trkpt><trkpt lat="33.403162721968044" lon="9.008919594909347"><ele>65.0</ele><time>2026-03-30T08:55:45Z</time></trkpt><trkpt lat="33.40306032740178" lon="9.008917268238314"><ele>65.0</ele><time>2026-03-30T08:55:46Z</time></trkpt><trkpt lat="33.402941854839725" lon="9.008918089713443"><ele>65.0</ele><time>2026-03-30T08:55:47Z</time></trkpt><trkpt lat="33.40281719191888" lon="9.00892015967761"><ele>65.0</ele><time>2026-03-30T08:55:48Z</time></trkpt><trkpt lat="33.40268429731571" lon="9.008919877865747"><ele>65.0</ele><time>2026-03-30T08:55:49Z</time></trkpt><trkpt lat="33.40254268248662" lon="9.008928781361165"><ele>65.0</ele><time>2026-03-30T08:55:50Z</time></trkpt><trkpt lat="33.40239883845722" lon="9.00893805485114"><ele>65.0</ele><time>2026-03-30T08:55:51Z</time></trkpt><trkpt lat="33.4022495260359" lon="9.00895092851118"><ele>65.0</ele><time>2026-03-30T08:55:52Z</time></trkpt><trkpt lat="33.402094238013156" lon="9.00896611841325"><ele>65.0</ele><time>2026-03-30T08:55:53Z</time></trkpt><trkpt lat="33.401947107270786" lon="9.00897682167955"><ele>64.33333333333334</ele><time>2026-03-30T08:55:54Z</time></trkpt><trkpt lat="33.40179149936971" lon="9.00897937932072"><ele>63.66666666666667</ele><time>2026-03-30T08:55:55Z</time></trkpt><trkpt lat="33.401632294609904" lon="9.00898978981539"><ele>63.0</ele><time>2026-03-30T08:55:56Z</time></trkpt><trkpt lat="33.40146047323036" lon="9.00900530594932"><ele>63.33333333333333</ele><time>2026-03-30T08:55:57Z</time></trkpt><trkpt lat="33.401291699326116" lon="9.009023103705914"><ele>63.666666666666664</ele><time>2026-03-30T08:55:58Z</time></trkpt><trkpt lat="33.40112433324789" lon="9.00903719973869"><ele>64.0</ele><time>2026-03-30T08:55:59Z</time></trkpt><trkpt lat="33.400956237797594" lon="9.009038559459508"><ele>64.0</ele><time>2026-03-30T08:56:00Z</time></trkpt><trkpt lat="33.40079134432946" lon="9.009034820759336"><ele>64.0</ele><time>2026-03-30T08:56:01Z</time></trkpt><trkpt lat="33.40062817715827" lon="9.009021872544634"><ele>64.0</ele><time>2026-03-30T08:56:02Z</time></trkpt><trkpt lat="33.40046335818061" lon="9.008993726178149"><ele>63.33333333333333</ele><time>2026-03-30T08:56:03Z</time></trkpt><trkpt lat="33.40029691121621" lon="9.008963562630967"><ele>62.66666666666667</ele><time>2026-03-30T08:56:04Z</time></trkpt><trkpt lat="33.40013970526897" lon="9.00893255229535"><ele>62.0</ele><time>2026-03-30T08:56:05Z</time></trkpt><trkpt lat="33.399979870791114" lon="9.008903036451146"><ele>62.0</ele><time>2026-03-30T08:56:06Z</time></trkpt><trkpt lat="33.39982345225628" lon="9.008876556897192"><ele>62.0</ele><time>2026-03-30T08:56:07Z</time></trkpt><trkpt lat="33.39966143125304" lon="9.008851313385343"><ele>62.0</ele><time>2026-03-30T08:56:08Z</time></trkpt><trkpt lat="33.39950683506449" lon="9.008828405918262"><ele>62.66666666666667</ele><time>2026-03-30T08:56:09Z</time></trkpt><trkpt lat="33.39934860733477" lon="9.008813379434695"><ele>63.33333333333333</ele><time>2026-03-30T08:56:10Z</time></trkpt><trkpt lat="33.39919018060009" lon="9.008804860407954"><ele>64.0</ele><time>2026-03-30T08:56:11Z</time></trkpt><trkpt lat="33.39903179836833" lon="9.008798232923368"><ele>64.0</ele><time>2026-03-30T08:56:12Z</time></trkpt><trkpt lat="33.39887424310613" lon="9.008793970981278"><ele>64.0</ele><time>2026-03-30T08:56:13Z</time></trkpt><trkpt lat="33.39871262267294" lon="9.00879225496837"><ele>64.0</ele><time>2026-03-30T08:56:14Z</time></trkpt><trkpt lat="33.39855545267982" lon="9.008791532525752"><ele>63.666666666666664</ele><time>2026-03-30T08:56:15Z</time></trkpt><trkpt lat="33.39839793149944" lon="9.008788534448222"><ele>63.33333333333333</ele><time>2026-03-30T08:56:16Z</time></trkpt><trkpt lat="33.39823961589768" lon="9.008783340432835"><ele>63.0</ele><time>2026-03-30T08:56:17Z</time></trkpt><trkpt lat="33.398080622708896" lon="9.008779706824587"><ele>63.33333333333333</ele><time>2026-03-30T08:56:18Z</time></trkpt><trkpt lat="33.39792328072714" lon="9.008774753665492"><ele>63.666666666666664</ele><time>2026-03-30T08:56:19Z</time></trkpt><trkpt lat="33.39776496091021" lon="9.008766883324922"><ele>64.0</ele><time>2026-03-30T08:56:20Z</time></trkpt><trkpt lat="33.397606922700476" lon="9.008766372677659"><ele>64.0</ele><time>2026-03-30T08:56:21Z</time></trkpt><trkpt lat="33.3974485130512" lon="9.008765631527842"><ele>64.0</ele><time>2026-03-30T08:56:22Z</time></trkpt><trkpt lat="33.39729273412577" lon="9.008766289621684"><ele>64.0</ele><time>2026-03-30T08:56:23Z</time></trkpt><trkpt lat="33.39714143169593" lon="9.008766109423421"><ele>64.33333333333333</ele><time>2026-03-30T08:56:24Z</time></trkpt><trkpt lat="33.39698943653734" lon="9.008765740832846"><ele>64.66666666666667</ele><time>2026-03-30T08:56:25Z</time></trkpt><trkpt lat="33.39683272197967" lon="9.008762380715714"><ele>65.0</ele><time>2026-03-30T08:56:26Z</time></trkpt><trkpt lat="33.396672913222254" lon="9.008758167844112"><ele>65.0</ele><time>2026-03-30T08:56:27Z</time></trkpt><trkpt lat="33.39651270242662" lon="9.008753047922673"><ele>65.0</ele><time>2026-03-30T08:56:28Z</time></trkpt><trkpt lat="33.396355747756054" lon="9.00874729584043"><ele>65.0</ele><time>2026-03-30T08:56:29Z</time></trkpt><trkpt lat="33.39619920882663" lon="9.008744183693963"><ele>65.33333333333334</ele><time>2026-03-30T08:56:30Z</time></trkpt><trkpt lat="33.396047323126574" lon="9.00874737435306"><ele>65.66666666666667</ele><time>2026-03-30T08:56:31Z</time></trkpt><trkpt lat="33.39589121301776" lon="9.00875163649907"><ele>66.0</ele><time>2026-03-30T08:56:32Z</time></trkpt><trkpt lat="33.39574035637829" lon="9.008753829088286"><ele>66.0</ele><time>2026-03-30T08:56:33Z</time></trkpt><trkpt lat="33.39559078047929" lon="9.00875237231382"><ele>66.0</ele><time>2026-03-30T08:56:34Z</time></trkpt><trkpt lat="33.395432593652856" lon="9.00875221391458"><ele>66.0</ele><time>2026-03-30T08:56:35Z</time></trkpt><trkpt lat="33.39528240489696" lon="9.008744998178923"><ele>65.0</ele><time>2026-03-30T08:56:36Z</time></trkpt><trkpt lat="33.39514196490264" lon="9.008738124326111"><ele>64.0</ele><time>2026-03-30T08:56:37Z</time></trkpt><trkpt lat="33.39499140618403" lon="9.008736100211376"><ele>63.0</ele><time>2026-03-30T08:56:38Z</time></trkpt><trkpt lat="33.394839653785304" lon="9.008732675145154"><ele>62.0</ele><time>2026-03-30T08:56:39Z</time></trkpt><trkpt lat="33.394685536836036" lon="9.008725438616432"><ele>61.333333333333336</ele><time>2026-03-30T08:56:40Z</time></trkpt><trkpt lat="33.3945364026974" lon="9.008724216201697"><ele>60.66666666666667</ele><time>2026-03-30T08:56:41Z</time></trkpt><trkpt lat="33.39438595953037" lon="9.008732288919692"><ele>60.0</ele><time>2026-03-30T08:56:42Z</time></trkpt><trkpt lat="33.39422696155746" lon="9.008743146521843"><ele>60.0</ele><time>2026-03-30T08:56:43Z</time></trkpt><trkpt lat="33.39407626493073" lon="9.008757095477867"><ele>60.0</ele><time>2026-03-30T08:56:44Z</time></trkpt><trkpt lat="33.393916289482895" lon="9.008771469670116"><ele>60.0</ele><time>2026-03-30T08:56:45Z</time></trkpt><trkpt lat="33.39375794779159" lon="9.008786055103924"><ele>61.66666666666667</ele><time>2026-03-30T08:56:46Z</time></trkpt><trkpt lat="33.393599509852905" lon="9.008804569742619"><ele>63.333333333333336</ele><time>2026-03-30T08:56:47Z</time></trkpt><trkpt lat="33.393443267786346" lon="9.008830779293177"><ele>65.0</ele><time>2026-03-30T08:56:48Z</time></trkpt><trkpt lat="33.39328639357401" lon="9.008861983099111"><ele>65.0</ele><time>2026-03-30T08:56:49Z</time></trkpt><trkpt lat="33.3931338949999" lon="9.008895051936175"><ele>65.0</ele><time>2026-03-30T08:56:50Z</time></trkpt><trkpt lat="33.39298099295013" lon="9.008932250363177"><ele>65.0</ele><time>2026-03-30T08:56:51Z</time></trkpt><trkpt lat="33.39282945010851" lon="9.008966734853066"><ele>65.0</ele><time>2026-03-30T08:56:52Z</time></trkpt><trkpt lat="33.39268019402325" lon="9.009005224678452"><ele>65.0</ele><time>2026-03-30T08:56:53Z</time></trkpt><trkpt lat="33.39253431383134" lon="9.009049156189318"><ele>65.0</ele><time>2026-03-30T08:56:54Z</time></trkpt><trkpt lat="33.392385601584465" lon="9.009096723473148"><ele>65.0</ele><time>2026-03-30T08:56:55Z</time></trkpt><trkpt lat="33.39223870659125" lon="9.00915178210756"><ele>65.0</ele><time>2026-03-30T08:56:56Z</time></trkpt><trkpt lat="33.39210169209104" lon="9.009206210865534"><ele>65.0</ele><time>2026-03-30T08:56:57Z</time></trkpt><trkpt lat="33.39195942062463" lon="9.009261398735019"><ele>65.0</ele><time>2026-03-30T08:56:58Z</time></trkpt><trkpt lat="33.39182059166411" lon="9.0093207005473"><ele>64.25</ele><time>2026-03-30T08:56:59Z</time></trkpt><trkpt lat="33.39168413833905" lon="9.0093833997542"><ele>63.5</ele><time>2026-03-30T08:57:00Z</time></trkpt><trkpt lat="33.391547179123734" lon="9.009445513458061"><ele>62.75</ele><time>2026-03-30T08:57:01Z</time></trkpt><trkpt lat="33.391408454079986" lon="9.009503689525074"><ele>62.0</ele><time>2026-03-30T08:57:02Z</time></trkpt><trkpt lat="33.39127035727938" lon="9.009569257426248"><ele>62.0</ele><time>2026-03-30T08:57:03Z</time></trkpt><trkpt lat="33.39113878129695" lon="9.009643548650535"><ele>62.0</ele><time>2026-03-30T08:57:04Z</time></trkpt><trkpt lat="33.39100152623201" lon="9.009716402640167"><ele>62.0</ele><time>2026-03-30T08:57:05Z</time></trkpt><trkpt lat="33.39087119383172" lon="9.009793942528617"><ele>62.0</ele><time>2026-03-30T08:57:06Z</time></trkpt><trkpt lat="33.390727907470044" lon="9.009877316961676"><ele>62.0</ele><time>2026-03-30T08:57:07Z</time></trkpt><trkpt lat="33.39058317411558" lon="9.009966634424385"><ele>62.0</ele><time>2026-03-30T08:57:08Z</time></trkpt><trkpt lat="33.390445225540425" lon="9.010055792006407"><ele>62.0</ele><time>2026-03-30T08:57:09Z</time></trkpt><trkpt lat="33.390308757604345" lon="9.010149127323713"><ele>63.0</ele><time>2026-03-30T08:57:10Z</time></trkpt><trkpt lat="33.39017477520322" lon="9.010250672908308"><ele>64.0</ele><time>2026-03-30T08:57:10.999Z</time></trkpt><trkpt lat="33.39004288751472" lon="9.010353832069663"><ele>65.0</ele><time>2026-03-30T08:57:11.999Z</time></trkpt><trkpt lat="33.38990571196312" lon="9.01046317910331"><ele>65.0</ele><time>2026-03-30T08:57:12.999Z</time></trkpt><trkpt lat="33.38977341357427" lon="9.010570014552894"><ele>65.0</ele><time>2026-03-30T08:57:13.999Z</time></trkpt><trkpt lat="33.3896420687641" lon="9.010682799527713"><ele>65.0</ele><time>2026-03-30T08:57:14.999Z</time></trkpt><trkpt lat="33.389522928410145" lon="9.010793283789507"><ele>64.75</ele><time>2026-03-30T08:57:15.999Z</time></trkpt><trkpt lat="33.38940805970811" lon="9.010910155915425"><ele>64.5</ele><time>2026-03-30T08:57:16.999Z</time></trkpt><trkpt lat="33.389293138548496" lon="9.011025368170696"><ele>64.25</ele><time>2026-03-30T08:57:17.999Z</time></trkpt><trkpt lat="33.3891791363893" lon="9.011134651258345"><ele>64.0</ele><time>2026-03-30T08:57:18.999Z</time></trkpt><trkpt lat="33.389071062584755" lon="9.011248794004713"><ele>64.0</ele><time>2026-03-30T08:57:19.999Z</time></trkpt><trkpt lat="33.388969543490894" lon="9.01136137708716"><ele>64.0</ele><time>2026-03-30T08:57:20.999Z</time></trkpt><trkpt lat="33.38886509958656" lon="9.011481165166938"><ele>64.0</ele><time>2026-03-30T08:57:21.999Z</time></trkpt><trkpt lat="33.3887639550592" lon="9.011603723170188"><ele>64.0</ele><time>2026-03-30T08:57:22.999Z</time></trkpt><trkpt lat="33.38866086354714" lon="9.011728106722323"><ele>63.75</ele><time>2026-03-30T08:57:23.999Z</time></trkpt><trkpt lat="33.38856102818979" lon="9.011851177227005"><ele>63.5</ele><time>2026-03-30T08:57:24.999Z</time></trkpt><trkpt lat="33.38846781134284" lon="9.011973078501272"><ele>63.25</ele><time>2026-03-30T08:57:25.999Z</time></trkpt><trkpt lat="33.388375015446435" lon="9.01209681799609"><ele>63.0</ele><time>2026-03-30T08:57:26.999Z</time></trkpt><trkpt lat="33.388284747536055" lon="9.012222538166002"><ele>63.0</ele><time>2026-03-30T08:57:27.999Z</time></trkpt><trkpt lat="33.38820152169065" lon="9.01234389727052"><ele>63.0</ele><time>2026-03-30T08:57:28.999Z</time></trkpt><trkpt lat="33.38811857981503" lon="9.012466096815617"><ele>63.0</ele><time>2026-03-30T08:57:29.999Z</time></trkpt><trkpt lat="33.38803024172628" lon="9.012592249396143"><ele>63.0</ele><time>2026-03-30T08:57:30.999Z</time></trkpt><trkpt lat="33.38795469177667" lon="9.012717760628536"><ele>63.5</ele><time>2026-03-30T08:57:31.999Z</time></trkpt><trkpt lat="33.38786727590485" lon="9.012847899159919"><ele>64.0</ele><time>2026-03-30T08:57:32.999Z</time></trkpt><trkpt lat="33.38779006049431" lon="9.012979065144972"><ele>64.5</ele><time>2026-03-30T08:57:33.999Z</time></trkpt><trkpt lat="33.38772339921357" lon="9.013112561620604"><ele>65.0</ele><time>2026-03-30T08:57:34.999Z</time></trkpt><trkpt lat="33.38765446830992" lon="9.01325244909574"><ele>65.0</ele><time>2026-03-30T08:57:35.999Z</time></trkpt><trkpt lat="33.387592757712206" lon="9.013383774620202"><ele>65.0</ele><time>2026-03-30T08:57:36.999Z</time></trkpt><trkpt lat="33.38752421134661" lon="9.013507838267083"><ele>65.0</ele><time>2026-03-30T08:57:37.999Z</time></trkpt><trkpt lat="33.387467423763695" lon="9.013609792058737"><ele>65.0</ele><time>2026-03-30T08:57:38.999Z</time></trkpt><trkpt lat="33.387415017903955" lon="9.013715864555447"><ele>65.0</ele><time>2026-03-30T08:57:39.999Z</time></trkpt><trkpt lat="33.38737435316047" lon="9.013814505965872"><ele>65.0</ele><time>2026-03-30T08:57:40.999Z</time></trkpt><trkpt lat="33.387333127226434" lon="9.013904325545893"><ele>65.0</ele><time>2026-03-30T08:57:41.999Z</time></trkpt><trkpt lat="33.38728882276527" lon="9.014018813699847"><ele>65.0</ele><time>2026-03-30T08:57:42.999Z</time></trkpt><trkpt lat="33.3872366843797" lon="9.014145528380118"><ele>65.0</ele><time>2026-03-30T08:57:43.999Z</time></trkpt><trkpt lat="33.387174771829535" lon="9.014285537283559"><ele>66.0</ele><time>2026-03-30T08:57:45Z</time></trkpt><trkpt lat="33.38710945061806" lon="9.014440607832091"><ele>67.0</ele><time>2026-03-30T08:57:46Z</time></trkpt><trkpt lat="33.38704428674808" lon="9.014591077891808"><ele>68.0</ele><time>2026-03-30T08:57:47Z</time></trkpt><trkpt lat="33.38698584503831" lon="9.014732220957555"><ele>69.0</ele><time>2026-03-30T08:57:48Z</time></trkpt><trkpt lat="33.38692660505441" lon="9.014877100235342"><ele>68.25</ele><time>2026-03-30T08:57:49Z</time></trkpt><trkpt lat="33.38686480895765" lon="9.015038052129418"><ele>67.5</ele><time>2026-03-30T08:57:50Z</time></trkpt><trkpt lat="33.38680501571862" lon="9.015208267600276"><ele>66.75</ele><time>2026-03-30T08:57:51Z</time></trkpt><trkpt lat="33.386745985721916" lon="9.015369083234676"><ele>66.0</ele><time>2026-03-30T08:57:52Z</time></trkpt><trkpt lat="33.38668646205584" lon="9.015523332060479"><ele>66.0</ele><time>2026-03-30T08:57:53Z</time></trkpt><trkpt lat="33.38662952666264" lon="9.015674588008052"><ele>66.0</ele><time>2026-03-30T08:57:54Z</time></trkpt><trkpt lat="33.38657319851176" lon="9.015819858878038"><ele>66.0</ele><time>2026-03-30T08:57:55Z</time></trkpt><trkpt lat="33.38652119254773" lon="9.015966207185727"><ele>66.0</ele><time>2026-03-30T08:57:56Z</time></trkpt><trkpt lat="33.3864657157925" lon="9.01611418573135"><ele>66.0</ele><time>2026-03-30T08:57:57Z</time></trkpt><trkpt lat="33.38640900076932" lon="9.016264781541453"><ele>66.0</ele><time>2026-03-30T08:57:58Z</time></trkpt><trkpt lat="33.386354821876346" lon="9.016413733354687"><ele>66.0</ele><time>2026-03-30T08:57:59Z</time></trkpt><trkpt lat="33.38630018835659" lon="9.016575705637381"><ele>66.0</ele><time>2026-03-30T08:58:00Z</time></trkpt><trkpt lat="33.38624740100366" lon="9.016737464186477"><ele>66.0</ele><time>2026-03-30T08:58:01Z</time></trkpt><trkpt lat="33.386194517185" lon="9.016906177631883"><ele>66.0</ele><time>2026-03-30T08:58:02Z</time></trkpt><trkpt lat="33.38614510767992" lon="9.01707566742173"><ele>66.0</ele><time>2026-03-30T08:58:03Z</time></trkpt><trkpt lat="33.38609888337113" lon="9.017245419452872"><ele>66.0</ele><time>2026-03-30T08:58:04Z</time></trkpt><trkpt lat="33.386052273917926" lon="9.017414004510362"><ele>66.75</ele><time>2026-03-30T08:58:05Z</time></trkpt><trkpt lat="33.386010315159076" lon="9.017579172434234"><ele>67.5</ele><time>2026-03-30T08:58:06Z</time></trkpt><trkpt lat="33.38596529363226" lon="9.017753996452221"><ele>68.25</ele><time>2026-03-30T08:58:07Z</time></trkpt><trkpt lat="33.38592755865961" lon="9.017918631862884"><ele>69.0</ele><time>2026-03-30T08:58:08Z</time></trkpt><trkpt lat="33.385886756725284" lon="9.018089443372892"><ele>69.0</ele><time>2026-03-30T08:58:09Z</time></trkpt><trkpt lat="33.38585105878615" lon="9.018245441991105"><ele>69.0</ele><time>2026-03-30T08:58:10Z</time></trkpt><trkpt lat="33.38581801869044" lon="9.018404956878097"><ele>69.0</ele><time>2026-03-30T08:58:11Z</time></trkpt><trkpt lat="33.385784178807" lon="9.018568328326026"><ele>69.0</ele><time>2026-03-30T08:58:12Z</time></trkpt><trkpt lat="33.38575111543434" lon="9.018736274771884"><ele>69.0</ele><time>2026-03-30T08:58:13Z</time></trkpt><trkpt lat="33.38572263818041" lon="9.018905702014402"><ele>69.0</ele><time>2026-03-30T08:58:14Z</time></trkpt><trkpt lat="33.385697181760975" lon="9.01907869213857"><ele>69.0</ele><time>2026-03-30T08:58:15Z</time></trkpt><trkpt lat="33.38567277772516" lon="9.019260152659987"><ele>69.0</ele><time>2026-03-30T08:58:16Z</time></trkpt><trkpt lat="33.38565437231781" lon="9.019440936034291"><ele>69.0</ele><time>2026-03-30T08:58:17Z</time></trkpt><trkpt lat="33.385639537198095" lon="9.019623671651665"><ele>69.0</ele><time>2026-03-30T08:58:18Z</time></trkpt><trkpt lat="33.38562566263896" lon="9.019807135127746"><ele>69.0</ele><time>2026-03-30T08:58:19Z</time></trkpt><trkpt lat="33.38561305943074" lon="9.019987210062384"><ele>68.75</ele><time>2026-03-30T08:58:20Z</time></trkpt><trkpt lat="33.385601678522114" lon="9.020159894128403"><ele>68.5</ele><time>2026-03-30T08:58:21Z</time></trkpt><trkpt lat="33.38559150448684" lon="9.020335976628203"><ele>68.25</ele><time>2026-03-30T08:58:22Z</time></trkpt><trkpt lat="33.38558196698209" lon="9.020504108383035"><ele>68.0</ele><time>2026-03-30T08:58:23Z</time></trkpt><trkpt lat="33.38557437037983" lon="9.02067571087712"><ele>67.75</ele><time>2026-03-30T08:58:24Z</time></trkpt><trkpt lat="33.38556871509947" lon="9.020842141015077"><ele>67.5</ele><time>2026-03-30T08:58:25Z</time></trkpt><trkpt lat="33.3855643925951" lon="9.021009099759066"><ele>67.25</ele><time>2026-03-30T08:58:26Z</time></trkpt><trkpt lat="33.38555558839227" lon="9.02118150297442"><ele>67.0</ele><time>2026-03-30T08:58:27Z</time></trkpt><trkpt lat="33.38555796577397" lon="9.02134904614587"><ele>67.0</ele><time>2026-03-30T08:58:28Z</time></trkpt><trkpt lat="33.385567617875445" lon="9.02152005480308"><ele>67.0</ele><time>2026-03-30T08:58:29Z</time></trkpt><trkpt lat="33.385578870333866" lon="9.021693801950699"><ele>67.0</ele><time>2026-03-30T08:58:30Z</time></trkpt><trkpt lat="33.38559170374914" lon="9.021865364339646"><ele>67.0</ele><time>2026-03-30T08:58:31Z</time></trkpt><trkpt lat="33.38560435752035" lon="9.022035883746211"><ele>67.5</ele><time>2026-03-30T08:58:32Z</time></trkpt><trkpt lat="33.38561530928697" lon="9.022212778927672"><ele>68.0</ele><time>2026-03-30T08:58:33Z</time></trkpt><trkpt lat="33.38563060591345" lon="9.022389107750257"><ele>68.5</ele><time>2026-03-30T08:58:34Z</time></trkpt><trkpt lat="33.38564920641636" lon="9.022561831037818"><ele>69.0</ele><time>2026-03-30T08:58:35Z</time></trkpt><trkpt lat="33.38567077749073" lon="9.022738553061895"><ele>69.33333333333333</ele><time>2026-03-30T08:58:36Z</time></trkpt><trkpt lat="33.38569830543408" lon="9.022923973846574"><ele>69.66666666666666</ele><time>2026-03-30T08:58:37Z</time></trkpt><trkpt lat="33.38572791556954" lon="9.02310012230399"><ele>70.0</ele><time>2026-03-30T08:58:38Z</time></trkpt><trkpt lat="33.38575391330763" lon="9.023277958742877"><ele>69.75</ele><time>2026-03-30T08:58:39Z</time></trkpt><trkpt lat="33.38578298933658" lon="9.023452111099472"><ele>69.5</ele><time>2026-03-30T08:58:40Z</time></trkpt><trkpt lat="33.38581219693442" lon="9.023617349233845"><ele>69.25</ele><time>2026-03-30T08:58:41Z</time></trkpt><trkpt lat="33.38585115706344" lon="9.023790260243596"><ele>69.0</ele><time>2026-03-30T08:58:42Z</time></trkpt><trkpt lat="33.385883009856" lon="9.023956220871725"><ele>69.0</ele><time>2026-03-30T08:58:43Z</time></trkpt><trkpt lat="33.38591796643263" lon="9.024121742186063"><ele>69.0</ele><time>2026-03-30T08:58:44Z</time></trkpt><trkpt lat="33.38595334858073" lon="9.02428528880373"><ele>69.0</ele><time>2026-03-30T08:58:45Z</time></trkpt><trkpt lat="33.38598631950095" lon="9.024449825865915"><ele>69.0</ele><time>2026-03-30T08:58:46Z</time></trkpt><trkpt lat="33.3860130234989" lon="9.024610553281594"><ele>69.25</ele><time>2026-03-30T08:58:47Z</time></trkpt><trkpt lat="33.3860446582706" lon="9.024772477882445"><ele>69.5</ele><time>2026-03-30T08:58:48Z</time></trkpt><trkpt lat="33.386077516002615" lon="9.024937617935082"><ele>69.75</ele><time>2026-03-30T08:58:49Z</time></trkpt><trkpt lat="33.38610794280125" lon="9.025098991547601"><ele>70.0</ele><time>2026-03-30T08:58:50Z</time></trkpt><trkpt lat="33.38613661946813" lon="9.02526617533625"><ele>70.0</ele><time>2026-03-30T08:58:51Z</time></trkpt><trkpt lat="33.38616550859396" lon="9.025428308836203"><ele>70.0</ele><time>2026-03-30T08:58:52Z</time></trkpt><trkpt lat="33.386195688807284" lon="9.025583390913651"><ele>70.0</ele><time>2026-03-30T08:58:53Z</time></trkpt><trkpt lat="33.386215239835416" lon="9.025736971661637"><ele>70.0</ele><time>2026-03-30T08:58:54Z</time></trkpt><trkpt lat="33.3862297322866" lon="9.025890086187875"><ele>70.0</ele><time>2026-03-30T08:58:55Z</time></trkpt><trkpt lat="33.38624355731364" lon="9.02604610077806"><ele>70.0</ele><time>2026-03-30T08:58:56Z</time></trkpt><trkpt lat="33.386262861857084" lon="9.026203209680048"><ele>70.0</ele><time>2026-03-30T08:58:57Z</time></trkpt><trkpt lat="33.38627746800432" lon="9.026354717936993"><ele>70.0</ele><time>2026-03-30T08:58:58Z</time></trkpt><trkpt lat="33.386282730296365" lon="9.026510201228882"><ele>70.5</ele><time>2026-03-30T08:58:59Z</time></trkpt><trkpt lat="33.38629394453652" lon="9.026668515037098"><ele>71.0</ele><time>2026-03-30T08:59:00Z</time></trkpt><trkpt lat="33.38630783078469" lon="9.026828681609844"><ele>71.5</ele><time>2026-03-30T08:59:01Z</time></trkpt><trkpt lat="33.386322684519584" lon="9.026986615877165"><ele>72.0</ele><time>2026-03-30T08:59:02Z</time></trkpt><trkpt lat="33.386328201497015" lon="9.027149267162782"><ele>72.0</ele><time>2026-03-30T08:59:03Z</time></trkpt><trkpt lat="33.38633273217541" lon="9.027304928858356"><ele>72.0</ele><time>2026-03-30T08:59:04Z</time></trkpt><trkpt lat="33.38633089064166" lon="9.027450086692276"><ele>72.0</ele><time>2026-03-30T08:59:05Z</time></trkpt><trkpt lat="33.386327667093035" lon="9.027596354177517"><ele>72.0</ele><time>2026-03-30T08:59:06Z</time></trkpt><trkpt lat="33.386329048144574" lon="9.027748190510453"><ele>72.0</ele><time>2026-03-30T08:59:07Z</time></trkpt><trkpt lat="33.3863260375761" lon="9.027907094165018"><ele>72.0</ele><time>2026-03-30T08:59:08Z</time></trkpt><trkpt lat="33.386319130705715" lon="9.028066216221317"><ele>72.0</ele><time>2026-03-30T08:59:09Z</time></trkpt><trkpt lat="33.38631352130928" lon="9.028219644799048"><ele>72.0</ele><time>2026-03-30T08:59:10Z</time></trkpt><trkpt lat="33.38630302240646" lon="9.028379324727956"><ele>71.5</ele><time>2026-03-30T08:59:11Z</time></trkpt><trkpt lat="33.38629621061055" lon="9.028541661569184"><ele>71.0</ele><time>2026-03-30T08:59:12Z</time></trkpt><trkpt lat="33.386288093050645" lon="9.02870414271938"><ele>70.5</ele><time>2026-03-30T08:59:13Z</time></trkpt><trkpt lat="33.38628496408084" lon="9.028869624995751"><ele>70.0</ele><time>2026-03-30T08:59:14Z</time></trkpt><trkpt lat="33.38627373927281" lon="9.029037842814922"><ele>70.25</ele><time>2026-03-30T08:59:15Z</time></trkpt><trkpt lat="33.38626251586725" lon="9.029199978314713"><ele>70.5</ele><time>2026-03-30T08:59:16Z</time></trkpt><trkpt lat="33.38625048105859" lon="9.029364348538746"><ele>70.75</ele><time>2026-03-30T08:59:17Z</time></trkpt><trkpt lat="33.38624026582525" lon="9.029531420880605"><ele>71.0</ele><time>2026-03-30T08:59:18Z</time></trkpt><trkpt lat="33.38623509371602" lon="9.029692810454263"><ele>71.0</ele><time>2026-03-30T08:59:19Z</time></trkpt><trkpt lat="33.38622666125762" lon="9.029853756331038"><ele>71.0</ele><time>2026-03-30T08:59:20Z</time></trkpt><trkpt lat="33.38622004181186" lon="9.030013589817154"><ele>71.0</ele><time>2026-03-30T08:59:21Z</time></trkpt><trkpt lat="33.38620845634257" lon="9.030173861108375"><ele>71.0</ele><time>2026-03-30T08:59:22Z</time></trkpt><trkpt lat="33.38619832540081" lon="9.030327740799112"><ele>71.5</ele><time>2026-03-30T08:59:23Z</time></trkpt><trkpt lat="33.38618923044406" lon="9.03048254227923"><ele>72.0</ele><time>2026-03-30T08:59:24Z</time></trkpt><trkpt lat="33.38617885762476" lon="9.030638804996821"><ele>72.5</ele><time>2026-03-30T08:59:25Z</time></trkpt><trkpt lat="33.386162466746256" lon="9.03079501638632"><ele>73.0</ele><time>2026-03-30T08:59:26Z</time></trkpt><trkpt lat="33.3861469985722" lon="9.030953717910739"><ele>71.75</ele><time>2026-03-30T08:59:27Z</time></trkpt><trkpt lat="33.38613364205112" lon="9.031116514044479"><ele>70.5</ele><time>2026-03-30T08:59:28Z</time></trkpt><trkpt lat="33.386123900132674" lon="9.031276486752994"><ele>69.25</ele><time>2026-03-30T08:59:29Z</time></trkpt><trkpt lat="33.386109907855705" lon="9.03143538641643"><ele>68.0</ele><time>2026-03-30T08:59:30Z</time></trkpt><trkpt lat="33.38609664033384" lon="9.03159185415236"><ele>68.5</ele><time>2026-03-30T08:59:31Z</time></trkpt><trkpt lat="33.38608247767771" lon="9.031759436216921"><ele>69.0</ele><time>2026-03-30T08:59:32Z</time></trkpt><trkpt lat="33.38607377144419" lon="9.031919306758592"><ele>69.5</ele><time>2026-03-30T08:59:33Z</time></trkpt><trkpt lat="33.38606580302103" lon="9.032083111710323"><ele>70.0</ele><time>2026-03-30T08:59:34Z</time></trkpt><trkpt lat="33.386059011635204" lon="9.03224291000125"><ele>70.0</ele><time>2026-03-30T08:59:35Z</time></trkpt><trkpt lat="33.38604856924608" lon="9.03240842753495"><ele>70.0</ele><time>2026-03-30T08:59:36Z</time></trkpt><trkpt lat="33.38604038941456" lon="9.032572321287446"><ele>70.0</ele><time>2026-03-30T08:59:37Z</time></trkpt><trkpt lat="33.38603058107358" lon="9.03274903643349"><ele>70.0</ele><time>2026-03-30T08:59:38Z</time></trkpt><trkpt lat="33.38602277448411" lon="9.032918693779523"><ele>70.25</ele><time>2026-03-30T08:59:39Z</time></trkpt><trkpt lat="33.38600797321238" lon="9.033088131744393"><ele>70.5</ele><time>2026-03-30T08:59:40Z</time></trkpt><trkpt lat="33.38599580857112" lon="9.033260457214716"><ele>70.75</ele><time>2026-03-30T08:59:41Z</time></trkpt><trkpt lat="33.385984317582164" lon="9.03343214430185"><ele>71.0</ele><time>2026-03-30T08:59:42Z</time></trkpt><trkpt lat="33.38597141598552" lon="9.033601236291165"><ele>71.0</ele><time>2026-03-30T08:59:43Z</time></trkpt><trkpt lat="33.385957484455574" lon="9.033774769665973"><ele>71.0</ele><time>2026-03-30T08:59:43.999Z</time></trkpt><trkpt lat="33.38594724931968" lon="9.033947676041139"><ele>71.0</ele><time>2026-03-30T08:59:44.999Z</time></trkpt><trkpt lat="33.38594421222961" lon="9.034120833368494"><ele>71.0</ele><time>2026-03-30T08:59:45.999Z</time></trkpt><trkpt lat="33.38594185013099" lon="9.03429754895039"><ele>71.0</ele><time>2026-03-30T08:59:46.999Z</time></trkpt><trkpt lat="33.38593278175089" lon="9.034475996559117"><ele>71.0</ele><time>2026-03-30T08:59:47.999Z</time></trkpt><trkpt lat="33.38591830670228" lon="9.034650306146943"><ele>71.0</ele><time>2026-03-30T08:59:48.999Z</time></trkpt><trkpt lat="33.3859077569406" lon="9.034820115684834"><ele>71.0</ele><time>2026-03-30T08:59:49.999Z</time></trkpt><trkpt lat="33.38589903863591" lon="9.03498311084049"><ele>71.5</ele><time>2026-03-30T08:59:51Z</time></trkpt><trkpt lat="33.38588807053197" lon="9.035139940870224"><ele>72.0</ele><time>2026-03-30T08:59:52Z</time></trkpt><trkpt lat="33.38587848433583" lon="9.035291953039145"><ele>72.5</ele><time>2026-03-30T08:59:53Z</time></trkpt><trkpt lat="33.38587088830975" lon="9.035447689246054"><ele>73.0</ele><time>2026-03-30T08:59:54Z</time></trkpt><trkpt lat="33.38586120582442" lon="9.03560388645301"><ele>73.0</ele><time>2026-03-30T08:59:55Z</time></trkpt><trkpt lat="33.38584698454721" lon="9.035761225670113"><ele>73.0</ele><time>2026-03-30T08:59:56Z</time></trkpt><trkpt lat="33.38583555335448" lon="9.035913479652207"><ele>73.0</ele><time>2026-03-30T08:59:57Z</time></trkpt><trkpt lat="33.38582444987336" lon="9.0360615954334"><ele>73.0</ele><time>2026-03-30T08:59:58Z</time></trkpt><trkpt lat="33.385811289735685" lon="9.036201638975266"><ele>72.75</ele><time>2026-03-30T08:59:59Z</time></trkpt><trkpt lat="33.385800290307074" lon="9.03633270149418"><ele>72.5</ele><time>2026-03-30T09:00:00Z</time></trkpt><trkpt lat="33.385792182021156" lon="9.036511721413534"><ele>72.25</ele><time>2026-03-30T09:00:01Z</time></trkpt><trkpt lat="33.385781868751096" lon="9.036670385862239"><ele>72.0</ele><time>2026-03-30T09:00:02Z</time></trkpt><trkpt lat="33.3857706443258" lon="9.03679323805426"><ele>71.75</ele><time>2026-03-30T09:00:03Z</time></trkpt><trkpt lat="33.38576022702315" lon="9.036931182330532"><ele>71.5</ele><time>2026-03-30T09:00:04Z</time></trkpt><trkpt lat="33.3857496962699" lon="9.037058046939775"><ele>71.25</ele><time>2026-03-30T09:00:05Z</time></trkpt><trkpt lat="33.38573924148807" lon="9.037179883188111"><ele>71.0</ele><time>2026-03-30T09:00:06Z</time></trkpt><trkpt lat="33.38573206484025" lon="9.037353528052009"><ele>71.25</ele><time>2026-03-30T09:00:07Z</time></trkpt><trkpt lat="33.38572795562726" lon="9.03753737459623"><ele>71.5</ele><time>2026-03-30T09:00:08Z</time></trkpt><trkpt lat="33.38571845456661" lon="9.037693118215753"><ele>71.75</ele><time>2026-03-30T09:00:09Z</time></trkpt><trkpt lat="33.38570222381162" lon="9.037847602357829"><ele>72.0</ele><time>2026-03-30T09:00:10Z</time></trkpt><trkpt lat="33.385687780460685" lon="9.038017625848765"><ele>72.0</ele><time>2026-03-30T09:00:11Z</time></trkpt><trkpt lat="33.385680919366536" lon="9.038218874838538"><ele>72.0</ele><time>2026-03-30T09:00:12Z</time></trkpt><trkpt lat="33.38567439630217" lon="9.03840685168376"><ele>72.0</ele><time>2026-03-30T09:00:13Z</time></trkpt><trkpt lat="33.38566340774208" lon="9.038588237811448"><ele>71.66666666666667</ele><time>2026-03-30T09:00:14Z</time></trkpt><trkpt lat="33.38564340002783" lon="9.038778184429116"><ele>71.33333333333334</ele><time>2026-03-30T09:00:15Z</time></trkpt><trkpt lat="33.38563039576572" lon="9.038972512640115"><ele>71.0</ele><time>2026-03-30T09:00:16Z</time></trkpt><trkpt lat="33.38562250361388" lon="9.039182303709037"><ele>71.0</ele><time>2026-03-30T09:00:17Z</time></trkpt><trkpt lat="33.38560650069089" lon="9.039419490707788"><ele>71.0</ele><time>2026-03-30T09:00:18Z</time></trkpt><trkpt lat="33.38558735855185" lon="9.039645496918666"><ele>71.0</ele><time>2026-03-30T09:00:19Z</time></trkpt><trkpt lat="33.385572699383175" lon="9.039855511760587"><ele>71.33333333333334</ele><time>2026-03-30T09:00:20Z</time></trkpt><trkpt lat="33.38556119731939" lon="9.040065540002967"><ele>71.66666666666667</ele><time>2026-03-30T09:00:21Z</time></trkpt><trkpt lat="33.38554892372974" lon="9.040287778312793"><ele>72.0</ele><time>2026-03-30T09:00:22Z</time></trkpt><trkpt lat="33.385538814576925" lon="9.040497301123468"><ele>72.0</ele><time>2026-03-30T09:00:23Z</time></trkpt><trkpt lat="33.38552924808291" lon="9.040693904092311"><ele>72.0</ele><time>2026-03-30T09:00:24Z</time></trkpt><trkpt lat="33.38551488143838" lon="9.040890675223126"><ele>72.0</ele><time>2026-03-30T09:00:25Z</time></trkpt><trkpt lat="33.38549855632917" lon="9.041102132637628"><ele>71.66666666666667</ele><time>2026-03-30T09:00:26Z</time></trkpt><trkpt lat="33.38547899037931" lon="9.041328897031425"><ele>71.33333333333334</ele><time>2026-03-30T09:00:27Z</time></trkpt><trkpt lat="33.38546068889548" lon="9.04155955801217"><ele>71.0</ele><time>2026-03-30T09:00:28Z</time></trkpt><trkpt lat="33.38544341126283" lon="9.041782541057087"><ele>71.0</ele><time>2026-03-30T09:00:29Z</time></trkpt><trkpt lat="33.38542443923861" lon="9.042010946958545"><ele>71.0</ele><time>2026-03-30T09:00:30Z</time></trkpt><trkpt lat="33.385405819888746" lon="9.042249725525023"><ele>71.0</ele><time>2026-03-30T09:00:31Z</time></trkpt><trkpt lat="33.38539082984681" lon="9.042482523093867"><ele>71.0</ele><time>2026-03-30T09:00:32Z</time></trkpt><trkpt lat="33.38537655073206" lon="9.042735004418683"><ele>71.0</ele><time>2026-03-30T09:00:33Z</time></trkpt><trkpt lat="33.38535875078331" lon="9.042988657342308"><ele>71.0</ele><time>2026-03-30T09:00:34Z</time></trkpt><trkpt lat="33.38533833417286" lon="9.043234830138552"><ele>70.66666666666667</ele><time>2026-03-30T09:00:35Z</time></trkpt><trkpt lat="33.385320469643545" lon="9.04346755890969"><ele>70.33333333333333</ele><time>2026-03-30T09:00:36Z</time></trkpt><trkpt lat="33.3853011602153" lon="9.043702680765671"><ele>70.0</ele><time>2026-03-30T09:00:37Z</time></trkpt><trkpt lat="33.38529103236854" lon="9.043924829843325"><ele>70.33333333333333</ele><time>2026-03-30T09:00:38Z</time></trkpt><trkpt lat="33.38527892053548" lon="9.044153265901453"><ele>70.66666666666667</ele><time>2026-03-30T09:00:39Z</time></trkpt><trkpt lat="33.38526520075471" lon="9.044372455527117"><ele>71.0</ele><time>2026-03-30T09:00:40Z</time></trkpt><trkpt lat="33.385255421184276" lon="9.04459093406268"><ele>71.0</ele><time>2026-03-30T09:00:41Z</time></trkpt><trkpt lat="33.38524524632902" lon="9.044806999650197"><ele>71.0</ele><time>2026-03-30T09:00:42Z</time></trkpt><trkpt lat="33.385233466521285" lon="9.045021326561782"><ele>71.0</ele><time>2026-03-30T09:00:43Z</time></trkpt><trkpt lat="33.38522024435995" lon="9.045213258762296"><ele>71.0</ele><time>2026-03-30T09:00:44Z</time></trkpt><trkpt lat="33.385213156665344" lon="9.045387378890009"><ele>71.0</ele><time>2026-03-30T09:00:45Z</time></trkpt><trkpt lat="33.385215384636155" lon="9.045559166899897"><ele>71.0</ele><time>2026-03-30T09:00:46Z</time></trkpt><trkpt lat="33.385214202305534" lon="9.045735056411997"><ele>71.0</ele><time>2026-03-30T09:00:47Z</time></trkpt><trkpt lat="33.385213794818085" lon="9.045922446443546"><ele>70.66666666666667</ele><time>2026-03-30T09:00:48Z</time></trkpt><trkpt lat="33.38521845243554" lon="9.046116072947456"><ele>70.33333333333333</ele><time>2026-03-30T09:00:49Z</time></trkpt><trkpt lat="33.385227399939886" lon="9.046309687307888"><ele>70.0</ele><time>2026-03-30T09:00:50Z</time></trkpt><trkpt lat="33.38523668103874" lon="9.046504395856989"><ele>70.0</ele><time>2026-03-30T09:00:51Z</time></trkpt><trkpt lat="33.38524386237899" lon="9.046698675267125"><ele>70.0</ele><time>2026-03-30T09:00:52Z</time></trkpt><trkpt lat="33.38525639208208" lon="9.046889039599588"><ele>70.0</ele><time>2026-03-30T09:00:53Z</time></trkpt><trkpt lat="33.38527271198569" lon="9.047069802213649"><ele>70.0</ele><time>2026-03-30T09:00:54Z</time></trkpt><trkpt lat="33.38529042844983" lon="9.047252188771282"><ele>70.0</ele><time>2026-03-30T09:00:55Z</time></trkpt><trkpt lat="33.385309576785296" lon="9.047435614619344"><ele>70.0</ele><time>2026-03-30T09:00:56Z</time></trkpt><trkpt lat="33.3853248167131" lon="9.047611584296062"><ele>70.25</ele><time>2026-03-30T09:00:57Z</time></trkpt><trkpt lat="33.38533992691435" lon="9.04778934678787"><ele>70.5</ele><time>2026-03-30T09:00:58Z</time></trkpt><trkpt lat="33.385361622905826" lon="9.047965924901801"><ele>70.75</ele><time>2026-03-30T09:00:59Z</time></trkpt><trkpt lat="33.3853872075848" lon="9.048139114077719"><ele>71.0</ele><time>2026-03-30T09:01:00Z</time></trkpt><trkpt lat="33.385410996665065" lon="9.048313227970747"><ele>72.5</ele><time>2026-03-30T09:01:01Z</time></trkpt><trkpt lat="33.38543423800032" lon="9.048481547847157"><ele>74.0</ele><time>2026-03-30T09:01:02Z</time></trkpt><trkpt lat="33.385455601228834" lon="9.048653389048434"><ele>75.5</ele><time>2026-03-30T09:01:03Z</time></trkpt><trkpt lat="33.385472421253176" lon="9.048813260689785"><ele>77.0</ele><time>2026-03-30T09:01:04Z</time></trkpt><trkpt lat="33.38549418161472" lon="9.048980095581623"><ele>76.25</ele><time>2026-03-30T09:01:05Z</time></trkpt><trkpt lat="33.385515225375265" lon="9.049143742968603"><ele>75.5</ele><time>2026-03-30T09:01:06Z</time></trkpt><trkpt lat="33.385539232477676" lon="9.049303657313914"><ele>74.75</ele><time>2026-03-30T09:01:07Z</time></trkpt><trkpt lat="33.38556175130732" lon="9.049470342409023"><ele>74.0</ele><time>2026-03-30T09:01:08Z</time></trkpt><trkpt lat="33.38557797104415" lon="9.049639115976591"><ele>74.0</ele><time>2026-03-30T09:01:09Z</time></trkpt><trkpt lat="33.38559840439205" lon="9.049816634311233"><ele>74.0</ele><time>2026-03-30T09:01:10Z</time></trkpt><trkpt lat="33.38561358998386" lon="9.04998844945194"><ele>74.0</ele><time>2026-03-30T09:01:11Z</time></trkpt><trkpt lat="33.38562455734288" lon="9.050159515710446"><ele>74.0</ele><time>2026-03-30T09:01:12Z</time></trkpt><trkpt lat="33.385632443690724" lon="9.050335554437499"><ele>74.25</ele><time>2026-03-30T09:01:13Z</time></trkpt><trkpt lat="33.385640082015605" lon="9.050510209523562"><ele>74.5</ele><time>2026-03-30T09:01:14Z</time></trkpt><trkpt lat="33.38564524685406" lon="9.050676660615089"><ele>74.75</ele><time>2026-03-30T09:01:15Z</time></trkpt><trkpt lat="33.38565139372867" lon="9.050835655995504"><ele>75.0</ele><time>2026-03-30T09:01:16Z</time></trkpt><trkpt lat="33.38564789106848" lon="9.050976511357874"><ele>74.5</ele><time>2026-03-30T09:01:17Z</time></trkpt><trkpt lat="33.38564463096891" lon="9.051098423615805"><ele>74.0</ele><time>2026-03-30T09:01:18Z</time></trkpt><trkpt lat="33.38564337153131" lon="9.051193506010097"><ele>73.5</ele><time>2026-03-30T09:01:19Z</time></trkpt><trkpt lat="33.3856405063829" lon="9.051270391766586"><ele>73.0</ele><time>2026-03-30T09:01:20Z</time></trkpt><trkpt lat="33.38563395323446" lon="9.051372624944847"><ele>72.5</ele><time>2026-03-30T09:01:22Z</time></trkpt><trkpt lat="33.38564968102224" lon="9.051502499960328"><ele>72.0</ele><time>2026-03-30T09:01:59Z</time></trkpt><trkpt lat="33.385639178947805" lon="9.051594568870259"><ele>71.8</ele><time>2026-03-30T09:02:00Z</time></trkpt><trkpt lat="33.38562958420985" lon="9.051681916005723"><ele>71.6</ele><time>2026-03-30T09:02:01Z</time></trkpt><trkpt lat="33.38562632012424" lon="9.051797277725527"><ele>71.39999999999999</ele><time>2026-03-30T09:02:02Z</time></trkpt><trkpt lat="33.385623565925634" lon="9.051925012740934"><ele>71.2</ele><time>2026-03-30T09:02:03Z</time></trkpt><trkpt lat="33.38561891089441" lon="9.052046979510582"><ele>71.0</ele><time>2026-03-30T09:02:04Z</time></trkpt><trkpt lat="33.38561060831042" lon="9.052192004579616"><ele>71.0</ele><time>2026-03-30T09:02:05Z</time></trkpt><trkpt lat="33.38559842416482" lon="9.052352163061606"><ele>71.0</ele><time>2026-03-30T09:02:06Z</time></trkpt><trkpt lat="33.38558058167366" lon="9.052514980042144"><ele>71.0</ele><time>2026-03-30T09:02:07Z</time></trkpt><trkpt lat="33.38556166685094" lon="9.0526819631621"><ele>71.0</ele><time>2026-03-30T09:02:08Z</time></trkpt><trkpt lat="33.38553890068591" lon="9.052861360282835"><ele>71.66666666666667</ele><time>2026-03-30T09:02:09Z</time></trkpt><trkpt lat="33.38551456100573" lon="9.053052172131565"><ele>72.33333333333333</ele><time>2026-03-30T09:02:10Z</time></trkpt><trkpt lat="33.3854859492113" lon="9.053246050608125"><ele>73.0</ele><time>2026-03-30T09:02:11Z</time></trkpt><trkpt lat="33.38545433344597" lon="9.053432953646405"><ele>73.0</ele><time>2026-03-30T09:02:12Z</time></trkpt><trkpt lat="33.38541709415921" lon="9.053629658221308"><ele>73.0</ele><time>2026-03-30T09:02:13Z</time></trkpt><trkpt lat="33.38537684623046" lon="9.053835236490594"><ele>73.0</ele><time>2026-03-30T09:02:14Z</time></trkpt><trkpt lat="33.38533313487271" lon="9.05404965682852"><ele>73.33333333333333</ele><time>2026-03-30T09:02:15Z</time></trkpt><trkpt lat="33.38528796809375" lon="9.05426349567785"><ele>73.66666666666667</ele><time>2026-03-30T09:02:16Z</time></trkpt><trkpt lat="33.3852416760943" lon="9.054480072150582"><ele>74.0</ele><time>2026-03-30T09:02:17Z</time></trkpt><trkpt lat="33.38519221501569" lon="9.054703386888992"><ele>74.0</ele><time>2026-03-30T09:02:18Z</time></trkpt><trkpt lat="33.38514630187209" lon="9.054924839036442"><ele>74.0</ele><time>2026-03-30T09:02:19Z</time></trkpt><trkpt lat="33.3850961582509" lon="9.055153373272192"><ele>74.0</ele><time>2026-03-30T09:02:20Z</time></trkpt><trkpt lat="33.38504215304574" lon="9.055388265756287"><ele>75.0</ele><time>2026-03-30T09:02:21Z</time></trkpt><trkpt lat="33.384984305192944" lon="9.055626409381338"><ele>76.0</ele><time>2026-03-30T09:02:22Z</time></trkpt><trkpt lat="33.384925733274905" lon="9.055855020466376"><ele>77.0</ele><time>2026-03-30T09:02:23Z</time></trkpt><trkpt lat="33.38487114993786" lon="9.056089108921233"><ele>77.0</ele><time>2026-03-30T09:02:24Z</time></trkpt><trkpt lat="33.38481686872716" lon="9.056330112029569"><ele>77.0</ele><time>2026-03-30T09:02:25Z</time></trkpt><trkpt lat="33.3847638649111" lon="9.056568862022528"><ele>77.0</ele><time>2026-03-30T09:02:26Z</time></trkpt><trkpt lat="33.38470820572631" lon="9.056803319290701"><ele>77.33333333333334</ele><time>2026-03-30T09:02:27Z</time></trkpt><trkpt lat="33.384650967446404" lon="9.057046988335173"><ele>77.66666666666667</ele><time>2026-03-30T09:02:28Z</time></trkpt><trkpt lat="33.38459899965299" lon="9.057287181424845"><ele>78.0</ele><time>2026-03-30T09:02:29Z</time></trkpt><trkpt lat="33.3845448822959" lon="9.057527248515838"><ele>77.33333333333333</ele><time>2026-03-30T09:02:30Z</time></trkpt><trkpt lat="33.38448815728048" lon="9.057770053865815"><ele>76.66666666666666</ele><time>2026-03-30T09:02:31Z</time></trkpt><trkpt lat="33.384432164146716" lon="9.058011024045593"><ele>76.0</ele><time>2026-03-30T09:02:32Z</time></trkpt><trkpt lat="33.384378029147214" lon="9.05825132541107"><ele>76.66666666666666</ele><time>2026-03-30T09:02:33Z</time></trkpt><trkpt lat="33.38432279753918" lon="9.058499907090965"><ele>77.33333333333333</ele><time>2026-03-30T09:02:34Z</time></trkpt><trkpt lat="33.38427283746111" lon="9.058746655608907"><ele>78.0</ele><time>2026-03-30T09:02:35Z</time></trkpt><trkpt lat="33.384223324381516" lon="9.058995776248347"><ele>77.33333333333333</ele><time>2026-03-30T09:02:36Z</time></trkpt><trkpt lat="33.384165648270546" lon="9.059244734868141"><ele>76.66666666666666</ele><time>2026-03-30T09:02:37Z</time></trkpt><trkpt lat="33.38410482854446" lon="9.059483031853572"><ele>76.0</ele><time>2026-03-30T09:02:38Z</time></trkpt><trkpt lat="33.38404216728943" lon="9.059715510546505"><ele>76.0</ele><time>2026-03-30T09:02:39Z</time></trkpt><trkpt lat="33.383970190580946" lon="9.059935746761223"><ele>76.0</ele><time>2026-03-30T09:02:40Z</time></trkpt><trkpt lat="33.383877917290036" lon="9.060149668220598"><ele>76.0</ele><time>2026-03-30T09:02:41Z</time></trkpt><trkpt lat="33.38376518851828" lon="9.060349799424433"><ele>76.66666666666666</ele><time>2026-03-30T09:02:42Z</time></trkpt><trkpt lat="33.38363598421173" lon="9.060537900724183"><ele>77.33333333333333</ele><time>2026-03-30T09:02:43Z</time></trkpt><trkpt lat="33.383502483540866" lon="9.060714496747877"><ele>78.0</ele><time>2026-03-30T09:02:44Z</time></trkpt><trkpt lat="33.38335901021118" lon="9.06088938746874"><ele>78.33333333333333</ele><time>2026-03-30T09:02:45Z</time></trkpt><trkpt lat="33.383220517632736" lon="9.061056280330174"><ele>78.66666666666666</ele><time>2026-03-30T09:02:46Z</time></trkpt><trkpt lat="33.38308221302016" lon="9.06121205940075"><ele>79.0</ele><time>2026-03-30T09:02:47Z</time></trkpt><trkpt lat="33.382935603934236" lon="9.061360257350334"><ele>78.66666666666666</ele><time>2026-03-30T09:02:48Z</time></trkpt><trkpt lat="33.38278038616525" lon="9.061500506890534"><ele>78.33333333333333</ele><time>2026-03-30T09:02:49Z</time></trkpt><trkpt lat="33.3826257660686" lon="9.061635931781817"><ele>78.0</ele><time>2026-03-30T09:02:50Z</time></trkpt><trkpt lat="33.382471191980024" lon="9.061773220860582"><ele>78.0</ele><time>2026-03-30T09:02:51Z</time></trkpt><trkpt lat="33.382322797396334" lon="9.061900479417922"><ele>78.0</ele><time>2026-03-30T09:02:52Z</time></trkpt><trkpt lat="33.382182908989904" lon="9.062021665046533"><ele>78.0</ele><time>2026-03-30T09:02:53Z</time></trkpt><trkpt lat="33.38204516472387" lon="9.06214600862876"><ele>78.33333333333333</ele><time>2026-03-30T09:02:54Z</time></trkpt><trkpt lat="33.38190831307282" lon="9.062261740029601"><ele>78.66666666666666</ele><time>2026-03-30T09:02:55Z</time></trkpt><trkpt lat="33.38178623786536" lon="9.062357681397113"><ele>79.0</ele><time>2026-03-30T09:02:56Z</time></trkpt><trkpt lat="33.38166218118931" lon="9.062460951924217"><ele>79.0</ele><time>2026-03-30T09:02:57Z</time></trkpt><trkpt lat="33.38154634420117" lon="9.062549326052759"><ele>79.0</ele><time>2026-03-30T09:02:58Z</time></trkpt><trkpt lat="33.381442060509215" lon="9.06262878521928"><ele>79.0</ele><time>2026-03-30T09:02:59Z</time></trkpt><trkpt lat="33.38133021969244" lon="9.062723342028441"><ele>79.0</ele><time>2026-03-30T09:03:00Z</time></trkpt><trkpt lat="33.38121552093224" lon="9.062824954820412"><ele>78.75</ele><time>2026-03-30T09:03:01Z</time></trkpt><trkpt lat="33.381107618737126" lon="9.062928322373546"><ele>78.5</ele><time>2026-03-30T09:03:02Z</time></trkpt><trkpt lat="33.38101263687766" lon="9.06302186274123"><ele>78.25</ele><time>2026-03-30T09:03:03Z</time></trkpt><trkpt lat="33.38091077580703" lon="9.063120255585668"><ele>78.0</ele><time>2026-03-30T09:03:04Z</time></trkpt><trkpt lat="33.38081895058233" lon="9.06322178633477"><ele>77.75</ele><time>2026-03-30T09:03:05Z</time></trkpt><trkpt lat="33.380724692322715" lon="9.063330358141684"><ele>77.5</ele><time>2026-03-30T09:03:06Z</time></trkpt><trkpt lat="33.380633197276225" lon="9.063441386183777"><ele>77.25</ele><time>2026-03-30T09:03:07Z</time></trkpt><trkpt lat="33.38054881097484" lon="9.06354535714591"><ele>77.0</ele><time>2026-03-30T09:03:08Z</time></trkpt><trkpt lat="33.38045781801119" lon="9.063654395075172"><ele>77.5</ele><time>2026-03-30T09:03:09Z</time></trkpt><trkpt lat="33.38037162357127" lon="9.063763670057801"><ele>78.0</ele><time>2026-03-30T09:03:10Z</time></trkpt><trkpt lat="33.38028571617973" lon="9.063877896334821"><ele>78.5</ele><time>2026-03-30T09:03:11Z</time></trkpt><trkpt lat="33.380203897470714" lon="9.06399869023374"><ele>79.0</ele><time>2026-03-30T09:03:12Z</time></trkpt><trkpt lat="33.38013036812077" lon="9.064121921561812"><ele>79.25</ele><time>2026-03-30T09:03:13Z</time></trkpt><trkpt lat="33.38005787931591" lon="9.064237404107159"><ele>79.5</ele><time>2026-03-30T09:03:14Z</time></trkpt><trkpt lat="33.3799896821" lon="9.064353940023846"><ele>79.75</ele><time>2026-03-30T09:03:15Z</time></trkpt><trkpt lat="33.37992002500298" lon="9.064483328431066"><ele>80.0</ele><time>2026-03-30T09:03:16Z</time></trkpt><trkpt lat="33.379850307650706" lon="9.064613667423234"><ele>80.0</ele><time>2026-03-30T09:03:17Z</time></trkpt><trkpt lat="33.37978085004117" lon="9.064748783320452"><ele>80.0</ele><time>2026-03-30T09:03:18Z</time></trkpt><trkpt lat="33.379710962221196" lon="9.064879360263609"><ele>80.0</ele><time>2026-03-30T09:03:19Z</time></trkpt><trkpt lat="33.3796401219224" lon="9.065010764489179"><ele>80.0</ele><time>2026-03-30T09:03:20Z</time></trkpt><trkpt lat="33.37957890647063" lon="9.06514523158929"><ele>79.75</ele><time>2026-03-30T09:03:21Z</time></trkpt><trkpt lat="33.379523637546875" lon="9.065284845021951"><ele>79.5</ele><time>2026-03-30T09:03:22Z</time></trkpt><trkpt lat="33.37947468222485" lon="9.065423861981627"><ele>79.25</ele><time>2026-03-30T09:03:23Z</time></trkpt><trkpt lat="33.37942683860201" lon="9.065561644029648"><ele>79.0</ele><time>2026-03-30T09:03:24Z</time></trkpt><trkpt lat="33.37938037039257" lon="9.065699326267463"><ele>78.60000000000001</ele><time>2026-03-30T09:03:25Z</time></trkpt><trkpt lat="33.379344928040716" lon="9.065817920089852"><ele>78.2</ele><time>2026-03-30T09:03:26Z</time></trkpt><trkpt lat="33.37931474614865" lon="9.06592966090961"><ele>77.80000000000001</ele><time>2026-03-30T09:03:27Z</time></trkpt><trkpt lat="33.379287340324396" lon="9.066032064226626"><ele>77.4</ele><time>2026-03-30T09:03:28Z</time></trkpt><trkpt lat="33.379267295716375" lon="9.066123726563687"><ele>77.0</ele><time>2026-03-30T09:03:29Z</time></trkpt><trkpt lat="33.37924523050038" lon="9.06621270417133"><ele>77.0</ele><time>2026-03-30T09:03:30Z</time></trkpt><trkpt lat="33.379222554191884" lon="9.066306296411293"><ele>77.0</ele><time>2026-03-30T09:03:31Z</time></trkpt><trkpt lat="33.37919060127715" lon="9.066418452856633"><ele>77.0</ele><time>2026-03-30T09:03:32Z</time></trkpt><trkpt lat="33.37916286272182" lon="9.06653963427459"><ele>77.0</ele><time>2026-03-30T09:03:33Z</time></trkpt><trkpt lat="33.379134753168024" lon="9.066666439045521"><ele>77.0</ele><time>2026-03-30T09:03:34Z</time></trkpt><trkpt lat="33.37912306164414" lon="9.066785803669038"><ele>76.25</ele><time>2026-03-30T09:03:35Z</time></trkpt><trkpt lat="33.37910486267927" lon="9.066915581396591"><ele>75.5</ele><time>2026-03-30T09:03:36Z</time></trkpt><trkpt lat="33.37908971572574" lon="9.067047165661975"><ele>74.75</ele><time>2026-03-30T09:03:36.999Z</time></trkpt><trkpt lat="33.37907311614304" lon="9.067186436615097"><ele>74.0</ele><time>2026-03-30T09:03:37.999Z</time></trkpt><trkpt lat="33.37905810367845" lon="9.067334152780559"><ele>73.75</ele><time>2026-03-30T09:03:38.999Z</time></trkpt><trkpt lat="33.37904601246946" lon="9.067480844140471"><ele>73.5</ele><time>2026-03-30T09:03:39.999Z</time></trkpt><trkpt lat="33.37903982118518" lon="9.067633094027755"><ele>73.25</ele><time>2026-03-30T09:03:40.999Z</time></trkpt><trkpt lat="33.37903302719402" lon="9.067780155038752"><ele>73.0</ele><time>2026-03-30T09:03:41.999Z</time></trkpt><trkpt lat="33.37902952292265" lon="9.067921207529533"><ele>73.0</ele><time>2026-03-30T09:03:42.999Z</time></trkpt><trkpt lat="33.37903170773481" lon="9.068064380180083"><ele>73.0</ele><time>2026-03-30T09:03:43.999Z</time></trkpt><trkpt lat="33.37903912168702" lon="9.068198602970169"><ele>73.0</ele><time>2026-03-30T09:03:44.999Z</time></trkpt><trkpt lat="33.37904473928326" lon="9.06833920154629"><ele>73.0</ele><time>2026-03-30T09:03:45.999Z</time></trkpt><trkpt lat="33.379052407284625" lon="9.068483206449184"><ele>73.25</ele><time>2026-03-30T09:03:46.999Z</time></trkpt><trkpt lat="33.37906072905603" lon="9.06863113168962"><ele>73.5</ele><time>2026-03-30T09:03:47.999Z</time></trkpt><trkpt lat="33.37907845203149" lon="9.068769369401629"><ele>73.75</ele><time>2026-03-30T09:03:48.999Z</time></trkpt><trkpt lat="33.37908977923678" lon="9.068909251399216"><ele>74.0</ele><time>2026-03-30T09:03:49.999Z</time></trkpt><trkpt lat="33.379098665534926" lon="9.069053833502604"><ele>74.0</ele><time>2026-03-30T09:03:50.999Z</time></trkpt><trkpt lat="33.37911670299069" lon="9.069192240130114"><ele>74.0</ele><time>2026-03-30T09:03:51.999Z</time></trkpt><trkpt lat="33.37913001851091" lon="9.06933098547429"><ele>74.0</ele><time>2026-03-30T09:03:52.999Z</time></trkpt><trkpt lat="33.37913608314426" lon="9.069472388752034"><ele>74.0</ele><time>2026-03-30T09:03:53.999Z</time></trkpt><trkpt lat="33.379141121223526" lon="9.06961339759615"><ele>74.0</ele><time>2026-03-30T09:03:54.999Z</time></trkpt><trkpt lat="33.37915018997063" lon="9.069757584511901"><ele>74.0</ele><time>2026-03-30T09:03:55.999Z</time></trkpt><trkpt lat="33.37916118591834" lon="9.069907538692698"><ele>74.0</ele><time>2026-03-30T09:03:56.999Z</time></trkpt><trkpt lat="33.37917103030431" lon="9.070054888115967"><ele>74.0</ele><time>2026-03-30T09:03:57.999Z</time></trkpt><trkpt lat="33.37918114391418" lon="9.070201229066994"><ele>74.75</ele><time>2026-03-30T09:03:58.999Z</time></trkpt><trkpt lat="33.37919360891227" lon="9.070359590615249"><ele>75.5</ele><time>2026-03-30T09:03:59.999Z</time></trkpt><trkpt lat="33.37920462441423" lon="9.07052441217142"><ele>76.25</ele><time>2026-03-30T09:04:00.999Z</time></trkpt><trkpt lat="33.37922179224519" lon="9.070680518580478"><ele>77.0</ele><time>2026-03-30T09:04:01.999Z</time></trkpt><trkpt lat="33.379240512447346" lon="9.070840756995954"><ele>77.0</ele><time>2026-03-30T09:04:03Z</time></trkpt><trkpt lat="33.379250597332394" lon="9.07101775761903"><ele>77.0</ele><time>2026-03-30T09:04:04Z</time></trkpt><trkpt lat="33.379268012089476" lon="9.071215225178923"><ele>77.0</ele><time>2026-03-30T09:04:05Z</time></trkpt><trkpt lat="33.379283784922" lon="9.07141268373922"><ele>77.0</ele><time>2026-03-30T09:04:06Z</time></trkpt><trkpt lat="33.37929984541737" lon="9.071601660504001"><ele>77.0</ele><time>2026-03-30T09:04:07Z</time></trkpt><trkpt lat="33.379309683331776" lon="9.071793623578708"><ele>77.0</ele><time>2026-03-30T09:04:08Z</time></trkpt><trkpt lat="33.3793131458587" lon="9.07197908051498"><ele>76.75</ele><time>2026-03-30T09:04:09Z</time></trkpt><trkpt lat="33.37932076362776" lon="9.072143182248645"><ele>76.5</ele><time>2026-03-30T09:04:10Z</time></trkpt><trkpt lat="33.379333578931316" lon="9.072313381494677"><ele>76.25</ele><time>2026-03-30T09:04:11Z</time></trkpt><trkpt lat="33.37934897477949" lon="9.072476612235214"><ele>76.0</ele><time>2026-03-30T09:04:12Z</time></trkpt><trkpt lat="33.37936034337197" lon="9.072630301253804"><ele>76.39999999999999</ele><time>2026-03-30T09:04:13Z</time></trkpt><trkpt lat="33.379368641863984" lon="9.072773591746671"><ele>76.8</ele><time>2026-03-30T09:04:14Z</time></trkpt><trkpt lat="33.37937674438761" lon="9.072914311713538"><ele>77.19999999999999</ele><time>2026-03-30T09:04:15Z</time></trkpt><trkpt lat="33.37938602190578" lon="9.073038894573074"><ele>77.6</ele><time>2026-03-30T09:04:16Z</time></trkpt><trkpt lat="33.3793948407683" lon="9.073156724533666"><ele>78.0</ele><time>2026-03-30T09:04:17Z</time></trkpt><trkpt lat="33.379401572461695" lon="9.073265775310976"><ele>77.8</ele><time>2026-03-30T09:04:18Z</time></trkpt><trkpt lat="33.379406669999945" lon="9.07336468108332"><ele>77.6</ele><time>2026-03-30T09:04:19Z</time></trkpt><trkpt lat="33.37942051854419" lon="9.073453501843426"><ele>77.4</ele><time>2026-03-30T09:04:20Z</time></trkpt><trkpt lat="33.379439613703966" lon="9.073549855835804"><ele>77.2</ele><time>2026-03-30T09:04:21Z</time></trkpt><trkpt lat="33.379449692552534" lon="9.07366175170593"><ele>77.0</ele><time>2026-03-30T09:04:22Z</time></trkpt><trkpt lat="33.37945726628226" lon="9.073800716549266"><ele>77.0</ele><time>2026-03-30T09:04:23Z</time></trkpt><trkpt lat="33.37946569604937" lon="9.073972281296534"><ele>77.0</ele><time>2026-03-30T09:04:24Z</time></trkpt><trkpt lat="33.37948188273209" lon="9.074121344377557"><ele>77.0</ele><time>2026-03-30T09:04:25Z</time></trkpt><trkpt lat="33.379496906130726" lon="9.07425729045718"><ele>77.0</ele><time>2026-03-30T09:04:26Z</time></trkpt><trkpt lat="33.37950759369795" lon="9.074400316109712"><ele>75.66666666666667</ele><time>2026-03-30T09:04:27Z</time></trkpt><trkpt lat="33.37951082393788" lon="9.074587786840066"><ele>74.33333333333333</ele><time>2026-03-30T09:04:28Z</time></trkpt><trkpt lat="33.37952167997275" lon="9.074786143827538"><ele>73.0</ele><time>2026-03-30T09:04:29Z</time></trkpt><trkpt lat="33.37954425229231" lon="9.07498896481639"><ele>73.0</ele><time>2026-03-30T09:04:30Z</time></trkpt><trkpt lat="33.3795628260211" lon="9.075194083891509"><ele>73.0</ele><time>2026-03-30T09:04:31Z</time></trkpt><trkpt lat="33.37956243305658" lon="9.07540596860684"><ele>73.0</ele><time>2026-03-30T09:04:32Z</time></trkpt><trkpt lat="33.37957251044479" lon="9.075607166961571"><ele>73.0</ele><time>2026-03-30T09:04:33Z</time></trkpt><trkpt lat="33.379583858276355" lon="9.075789538528868"><ele>73.0</ele><time>2026-03-30T09:04:34Z</time></trkpt><trkpt lat="33.379596728333695" lon="9.075957787986027"><ele>73.0</ele><time>2026-03-30T09:04:35Z</time></trkpt><trkpt lat="33.37960537681864" lon="9.076117820572104"><ele>73.0</ele><time>2026-03-30T09:04:36Z</time></trkpt><trkpt lat="33.37960700530171" lon="9.07628345079952"><ele>73.0</ele><time>2026-03-30T09:04:37Z</time></trkpt><trkpt lat="33.37960491553313" lon="9.076443489615125"><ele>73.0</ele><time>2026-03-30T09:04:38Z</time></trkpt><trkpt lat="33.37960321264718" lon="9.076611162143474"><ele>73.0</ele><time>2026-03-30T09:04:39Z</time></trkpt><trkpt lat="33.379604654614454" lon="9.076779169856271"><ele>73.0</ele><time>2026-03-30T09:04:40Z</time></trkpt><trkpt lat="33.379595917531525" lon="9.076938454700791"><ele>73.75</ele><time>2026-03-30T09:04:41Z</time></trkpt><trkpt lat="33.37958509705542" lon="9.077097639731601"><ele>74.5</ele><time>2026-03-30T09:04:42Z</time></trkpt><trkpt lat="33.37957387800098" lon="9.07725161346934"><ele>75.25</ele><time>2026-03-30T09:04:43Z</time></trkpt><trkpt lat="33.379560117385054" lon="9.077393856291488"><ele>76.0</ele><time>2026-03-30T09:04:44Z</time></trkpt><trkpt lat="33.379541772154624" lon="9.077519802826417"><ele>76.39999999999999</ele><time>2026-03-30T09:04:45Z</time></trkpt><trkpt lat="33.37952409103082" lon="9.077638042596584"><ele>76.8</ele><time>2026-03-30T09:04:46Z</time></trkpt><trkpt lat="33.379504393993564" lon="9.077756915248052"><ele>77.19999999999999</ele><time>2026-03-30T09:04:47Z</time></trkpt><trkpt lat="33.37948098826224" lon="9.077883498252385"><ele>77.6</ele><time>2026-03-30T09:04:48Z</time></trkpt><trkpt lat="33.37945613639433" lon="9.078001040019911"><ele>78.0</ele><time>2026-03-30T09:04:49Z</time></trkpt><trkpt lat="33.37943523298679" lon="9.07810443047826"><ele>78.0</ele><time>2026-03-30T09:04:50Z</time></trkpt><trkpt lat="33.37941159529991" lon="9.078222955144511"><ele>78.0</ele><time>2026-03-30T09:04:51Z</time></trkpt><trkpt lat="33.37938115695851" lon="9.078354459446633"><ele>78.0</ele><time>2026-03-30T09:04:52Z</time></trkpt><trkpt lat="33.37934966841529" lon="9.078495611203223"><ele>78.0</ele><time>2026-03-30T09:04:53Z</time></trkpt><trkpt lat="33.37931125294785" lon="9.078632640734646"><ele>78.25</ele><time>2026-03-30T09:04:54Z</time></trkpt><trkpt lat="33.37926907778467" lon="9.078768742189645"><ele>78.5</ele><time>2026-03-30T09:04:55Z</time></trkpt><trkpt lat="33.37922310943837" lon="9.078902865183675"><ele>78.75</ele><time>2026-03-30T09:04:56Z</time></trkpt><trkpt lat="33.37917247587903" lon="9.079049019865742"><ele>79.0</ele><time>2026-03-30T09:04:57Z</time></trkpt><trkpt lat="33.37912433352283" lon="9.079182319343158"><ele>79.25</ele><time>2026-03-30T09:04:58Z</time></trkpt><trkpt lat="33.37906963544916" lon="9.079322178515332"><ele>79.5</ele><time>2026-03-30T09:04:59Z</time></trkpt><trkpt lat="33.37901111619239" lon="9.079462135271836"><ele>79.75</ele><time>2026-03-30T09:05:00Z</time></trkpt><trkpt lat="33.378951069922735" lon="9.079608036357858"><ele>80.0</ele><time>2026-03-30T09:05:01Z</time></trkpt><trkpt lat="33.37889162368249" lon="9.079750977068013"><ele>79.75</ele><time>2026-03-30T09:05:02Z</time></trkpt><trkpt lat="33.37883274240569" lon="9.0798960166475"><ele>79.5</ele><time>2026-03-30T09:05:03Z</time></trkpt><trkpt lat="33.37878399427302" lon="9.080041085562293"><ele>79.25</ele><time>2026-03-30T09:05:04Z</time></trkpt><trkpt lat="33.3787320644908" lon="9.080182701999991"><ele>79.0</ele><time>2026-03-30T09:05:05Z</time></trkpt><trkpt lat="33.37867685112997" lon="9.080325252313179"><ele>78.75</ele><time>2026-03-30T09:05:06Z</time></trkpt><trkpt lat="33.37861645086488" lon="9.080477433572364"><ele>78.5</ele><time>2026-03-30T09:05:07Z</time></trkpt><trkpt lat="33.378553694768485" lon="9.080631019983775"><ele>78.25</ele><time>2026-03-30T09:05:08Z</time></trkpt><trkpt lat="33.37849702062432" lon="9.08078121498369"><ele>78.0</ele><time>2026-03-30T09:05:09Z</time></trkpt><trkpt lat="33.37843640132178" lon="9.080943072965963"><ele>78.0</ele><time>2026-03-30T09:05:10Z</time></trkpt><trkpt lat="33.378375915634436" lon="9.081111787839044"><ele>78.0</ele><time>2026-03-30T09:05:11Z</time></trkpt><trkpt lat="33.37831914283899" lon="9.081273883398405"><ele>78.0</ele><time>2026-03-30T09:05:12Z</time></trkpt><trkpt lat="33.37825794662538" lon="9.081438826213335"><ele>78.33333333333333</ele><time>2026-03-30T09:05:13Z</time></trkpt><trkpt lat="33.37819889385963" lon="9.081609190143665"><ele>78.66666666666666</ele><time>2026-03-30T09:05:14Z</time></trkpt><trkpt lat="33.37814575556091" lon="9.081779905368599"><ele>79.0</ele><time>2026-03-30T09:05:15Z</time></trkpt><trkpt lat="33.37809669996957" lon="9.081949495303178"><ele>79.0</ele><time>2026-03-30T09:05:16Z</time></trkpt><trkpt lat="33.378058239420255" lon="9.082116693898815"><ele>79.0</ele><time>2026-03-30T09:05:17Z</time></trkpt><trkpt lat="33.378022734270395" lon="9.082284889407255"><ele>79.0</ele><time>2026-03-30T09:05:18Z</time></trkpt><trkpt lat="33.377995965876465" lon="9.082456275905393"><ele>79.0</ele><time>2026-03-30T09:05:19Z</time></trkpt><trkpt lat="33.37797505349523" lon="9.082624140058941"><ele>78.75</ele><time>2026-03-30T09:05:20Z</time></trkpt><trkpt lat="33.3779558134114" lon="9.082785787184067"><ele>78.5</ele><time>2026-03-30T09:05:21Z</time></trkpt><trkpt lat="33.377944867928406" lon="9.082943325649476"><ele>78.25</ele><time>2026-03-30T09:05:22Z</time></trkpt><trkpt lat="33.37793891831961" lon="9.08310085485856"><ele>78.0</ele><time>2026-03-30T09:05:23Z</time></trkpt><trkpt lat="33.3779398168405" lon="9.08324924211818"><ele>77.8</ele><time>2026-03-30T09:05:24Z</time></trkpt><trkpt lat="33.3779476543774" lon="9.083375402011566"><ele>77.6</ele><time>2026-03-30T09:05:25Z</time></trkpt><trkpt lat="33.377953379434" lon="9.083493892652326"><ele>77.4</ele><time>2026-03-30T09:05:26Z</time></trkpt><trkpt lat="33.37796360742113" lon="9.083615766185268"><ele>77.2</ele><time>2026-03-30T09:05:27Z</time></trkpt><trkpt lat="33.377970804294236" lon="9.083729176920741"><ele>77.0</ele><time>2026-03-30T09:05:28Z</time></trkpt><trkpt lat="33.37797676796296" lon="9.083843882737794"><ele>77.0</ele><time>2026-03-30T09:05:28.999Z</time></trkpt><trkpt lat="33.37798376764711" lon="9.0839492525953"><ele>77.0</ele><time>2026-03-30T09:05:29.999Z</time></trkpt><trkpt lat="33.377992504629496" lon="9.084054849061106"><ele>77.0</ele><time>2026-03-30T09:05:30.999Z</time></trkpt><trkpt lat="33.37800823961496" lon="9.084165891404771"><ele>77.0</ele><time>2026-03-30T09:05:31.999Z</time></trkpt><trkpt lat="33.37802236835726" lon="9.08429349498876"><ele>77.0</ele><time>2026-03-30T09:05:32.999Z</time></trkpt><trkpt lat="33.37802800628761" lon="9.08443827979226"><ele>76.0</ele><time>2026-03-30T09:05:33.999Z</time></trkpt><trkpt lat="33.378044045162284" lon="9.084576290973489"><ele>75.0</ele><time>2026-03-30T09:05:34.999Z</time></trkpt><trkpt lat="33.37806453761705" lon="9.084696142734645"><ele>74.0</ele><time>2026-03-30T09:05:35.999Z</time></trkpt><trkpt lat="33.37808138458492" lon="9.0848180320369"><ele>73.0</ele><time>2026-03-30T09:05:36.999Z</time></trkpt><trkpt lat="33.37809414182638" lon="9.084943880609904"><ele>72.0</ele><time>2026-03-30T09:05:37.999Z</time></trkpt><trkpt lat="33.37810745944662" lon="9.085082404111107"><ele>71.5</ele><time>2026-03-30T09:05:38.999Z</time></trkpt><trkpt lat="33.378125973691986" lon="9.08521180394739"><ele>71.0</ele><time>2026-03-30T09:05:39.999Z</time></trkpt><trkpt lat="33.378143306656526" lon="9.085348245883312"><ele>70.5</ele><time>2026-03-30T09:05:40.999Z</time></trkpt><trkpt lat="33.37815342533829" lon="9.08547639084747"><ele>70.0</ele><time>2026-03-30T09:05:41.999Z</time></trkpt><trkpt lat="33.37816406574914" lon="9.085621103724002"><ele>71.0</ele><time>2026-03-30T09:05:42.999Z</time></trkpt><trkpt lat="33.37818407879796" lon="9.085802808362367"><ele>72.0</ele><time>2026-03-30T09:05:43.999Z</time></trkpt><trkpt lat="33.37821419409104" lon="9.086005784323651"><ele>73.0</ele><time>2026-03-30T09:05:44.999Z</time></trkpt><trkpt lat="33.37823285883593" lon="9.08621334742688"><ele>73.0</ele><time>2026-03-30T09:05:45.999Z</time></trkpt><trkpt lat="33.37824909830255" lon="9.086420240875164"><ele>73.0</ele><time>2026-03-30T09:05:46.999Z</time></trkpt><trkpt lat="33.378279644809915" lon="9.086598250798547"><ele>73.0</ele><time>2026-03-30T09:05:47.999Z</time></trkpt><trkpt lat="33.378299047583056" lon="9.086755009870208"><ele>73.5</ele><time>2026-03-30T09:05:48.999Z</time></trkpt><trkpt lat="33.37831282280154" lon="9.086892899907737"><ele>74.0</ele><time>2026-03-30T09:05:49.999Z</time></trkpt><trkpt lat="33.378330288114995" lon="9.087025379397055"><ele>74.5</ele><time>2026-03-30T09:05:50.999Z</time></trkpt><trkpt lat="33.3783437440453" lon="9.08717176549371"><ele>75.0</ele><time>2026-03-30T09:05:51.999Z</time></trkpt><trkpt lat="33.37836053937906" lon="9.087318860709892"><ele>75.25</ele><time>2026-03-30T09:05:52.999Z</time></trkpt><trkpt lat="33.3783780987958" lon="9.087466979480745"><ele>75.5</ele><time>2026-03-30T09:05:53.999Z</time></trkpt><trkpt lat="33.37839857789807" lon="9.087614244258392"><ele>75.75</ele><time>2026-03-30T09:05:54.999Z</time></trkpt><trkpt lat="33.37841278509085" lon="9.087770113042621"><ele>76.0</ele><time>2026-03-30T09:05:55.999Z</time></trkpt><trkpt lat="33.378429021786616" lon="9.087941877107596"><ele>76.0</ele><time>2026-03-30T09:05:56.999Z</time></trkpt><trkpt lat="33.3784464795544" lon="9.088105827639781"><ele>76.0</ele><time>2026-03-30T09:05:57.999Z</time></trkpt><trkpt lat="33.378463475223626" lon="9.08826686266203"><ele>76.0</ele><time>2026-03-30T09:05:58.999Z</time></trkpt><trkpt lat="33.37848034487672" lon="9.088422445482538"><ele>76.0</ele><time>2026-03-30T09:05:59.999Z</time></trkpt><trkpt lat="33.378497800864274" lon="9.088581672083542"><ele>75.75</ele><time>2026-03-30T09:06:00.999Z</time></trkpt><trkpt lat="33.37851802645727" lon="9.08873314392036"><ele>75.5</ele><time>2026-03-30T09:06:01.999Z</time></trkpt><trkpt lat="33.378537229635086" lon="9.088875786015722"><ele>75.25</ele><time>2026-03-30T09:06:02.999Z</time></trkpt><trkpt lat="33.37855053721755" lon="9.08902354449161"><ele>75.0</ele><time>2026-03-30T09:06:03.999Z</time></trkpt><trkpt lat="33.37856542990373" lon="9.089168064461804"><ele>75.0</ele><time>2026-03-30T09:06:04.999Z</time></trkpt><trkpt lat="33.37858326414631" lon="9.089318522214459"><ele>75.0</ele><time>2026-03-30T09:06:05.999Z</time></trkpt><trkpt lat="33.37859793841483" lon="9.08946976006655"><ele>75.0</ele><time>2026-03-30T09:06:06.999Z</time></trkpt><trkpt lat="33.37861021219363" lon="9.089626565517456"><ele>75.0</ele><time>2026-03-30T09:06:07.999Z</time></trkpt><trkpt lat="33.378623505208836" lon="9.08980681775195"><ele>74.75</ele><time>2026-03-30T09:06:09Z</time></trkpt><trkpt lat="33.37864094770619" lon="9.089972572346346"><ele>74.5</ele><time>2026-03-30T09:06:10Z</time></trkpt><trkpt lat="33.37865838796045" lon="9.09013805707598"><ele>74.25</ele><time>2026-03-30T09:06:11Z</time></trkpt><trkpt lat="33.378678927615965" lon="9.090299283043352"><ele>74.0</ele><time>2026-03-30T09:06:12Z</time></trkpt><trkpt lat="33.378698096155155" lon="9.09046456545942"><ele>74.0</ele><time>2026-03-30T09:06:13Z</time></trkpt><trkpt lat="33.37871636253516" lon="9.090617717121717"><ele>74.0</ele><time>2026-03-30T09:06:14Z</time></trkpt><trkpt lat="33.37873157025508" lon="9.090783771446803"><ele>74.0</ele><time>2026-03-30T09:06:15Z</time></trkpt><trkpt lat="33.37874975190984" lon="9.090944359465173"><ele>74.0</ele><time>2026-03-30T09:06:16Z</time></trkpt><trkpt lat="33.378768329834216" lon="9.09110042295655"><ele>74.4</ele><time>2026-03-30T09:06:17Z</time></trkpt><trkpt lat="33.37878784666308" lon="9.091253885304933"><ele>74.80000000000001</ele><time>2026-03-30T09:06:18Z</time></trkpt><trkpt lat="33.37880651652922" lon="9.091410585953057"><ele>75.19999999999999</ele><time>2026-03-30T09:06:19Z</time></trkpt><trkpt lat="33.37882318934273" lon="9.09155841197333"><ele>75.6</ele><time>2026-03-30T09:06:20Z</time></trkpt><trkpt lat="33.37882318934273" lon="9.09155841197333"><ele>76.0</ele><time>2026-03-30T09:06:20Z</time></trkpt><trkpt lat="33.37921943657033" lon="9.093437018252803"><ele>76.0</ele><time>2026-03-30T09:06:33Z</time></trkpt><trkpt lat="33.379264797688435" lon="9.093583077175621"><ele>76.0</ele><time>2026-03-30T09:06:34Z</time></trkpt><trkpt lat="33.379312122202116" lon="9.093728043483308"><ele>76.0</ele><time>2026-03-30T09:06:35Z</time></trkpt><trkpt lat="33.37935693670766" lon="9.093869860520782"><ele>76.0</ele><time>2026-03-30T09:06:36Z</time></trkpt><trkpt lat="33.37940701517646" lon="9.094013133269819"><ele>76.0</ele><time>2026-03-30T09:06:37Z</time></trkpt><trkpt lat="33.37945872927461" lon="9.094156371387589"><ele>76.0</ele><time>2026-03-30T09:06:38Z</time></trkpt><trkpt lat="33.37950968417934" lon="9.094297498663762"><ele>76.0</ele><time>2026-03-30T09:06:39Z</time></trkpt><trkpt lat="33.37955623958486" lon="9.09443602233651"><ele>76.0</ele><time>2026-03-30T09:06:40Z</time></trkpt><trkpt lat="33.37960391012311" lon="9.094573431327257"><ele>76.0</ele><time>2026-03-30T09:06:41Z</time></trkpt><trkpt lat="33.37965088411037" lon="9.094709868557818"><ele>76.0</ele><time>2026-03-30T09:06:42Z</time></trkpt><trkpt lat="33.379696886798236" lon="9.094839628470256"><ele>76.0</ele><time>2026-03-30T09:06:43Z</time></trkpt><trkpt lat="33.37974664361134" lon="9.094976850248509"><ele>76.0</ele><time>2026-03-30T09:06:44Z</time></trkpt><trkpt lat="33.3797950886766" lon="9.095115712389713"><ele>76.5</ele><time>2026-03-30T09:06:45Z</time></trkpt><trkpt lat="33.37984128891551" lon="9.095257444980911"><ele>77.0</ele><time>2026-03-30T09:06:46Z</time></trkpt><trkpt lat="33.37988866992348" lon="9.095400151800844"><ele>77.5</ele><time>2026-03-30T09:06:47Z</time></trkpt><trkpt lat="33.37993265649934" lon="9.095542859808376"><ele>78.0</ele><time>2026-03-30T09:06:48Z</time></trkpt><trkpt lat="33.379976752757116" lon="9.095684739585417"><ele>77.75</ele><time>2026-03-30T09:06:49Z</time></trkpt><trkpt lat="33.38002399093031" lon="9.095828592034893"><ele>77.5</ele><time>2026-03-30T09:06:50Z</time></trkpt><trkpt lat="33.38007319796439" lon="9.095972339326957"><ele>77.25</ele><time>2026-03-30T09:06:51Z</time></trkpt><trkpt lat="33.38011988369031" lon="9.096115600223534"><ele>77.0</ele><time>2026-03-30T09:06:52Z</time></trkpt><trkpt lat="33.380169795872206" lon="9.096258974700108"><ele>77.0</ele><time>2026-03-30T09:06:53Z</time></trkpt><trkpt lat="33.380219696289224" lon="9.096406304922134"><ele>77.0</ele><time>2026-03-30T09:06:54Z</time></trkpt><trkpt lat="33.3802675184516" lon="9.096552904063492"><ele>77.0</ele><time>2026-03-30T09:06:55Z</time></trkpt><trkpt lat="33.38031873737567" lon="9.096704720917087"><ele>77.0</ele><time>2026-03-30T09:06:56Z</time></trkpt><trkpt lat="33.38036759125528" lon="9.096849162115847"><ele>76.75</ele><time>2026-03-30T09:06:57Z</time></trkpt><trkpt lat="33.38041471994916" lon="9.09699534474813"><ele>76.5</ele><time>2026-03-30T09:06:58Z</time></trkpt><trkpt lat="33.38046165101136" lon="9.097138175528448"><ele>76.25</ele><time>2026-03-30T09:06:59Z</time></trkpt><trkpt lat="33.380503650397536" lon="9.097258186026577"><ele>76.0</ele><time>2026-03-30T09:07:00Z</time></trkpt><trkpt lat="33.380549156064674" lon="9.097378255674425"><ele>75.75</ele><time>2026-03-30T09:07:01Z</time></trkpt><trkpt lat="33.38059129509174" lon="9.097501419699762"><ele>75.5</ele><time>2026-03-30T09:07:02Z</time></trkpt><trkpt lat="33.38063691190349" lon="9.097633023351138"><ele>75.25</ele><time>2026-03-30T09:07:03Z</time></trkpt><trkpt lat="33.38068301987647" lon="9.09777113720884"><ele>75.0</ele><time>2026-03-30T09:07:04Z</time></trkpt><trkpt lat="33.38072406676244" lon="9.09790758745539"><ele>75.0</ele><time>2026-03-30T09:07:05Z</time></trkpt><trkpt lat="33.38076386998844" lon="9.098037650591682"><ele>75.0</ele><time>2026-03-30T09:07:06Z</time></trkpt><trkpt lat="33.38080563023053" lon="9.098164832709692"><ele>75.0</ele><time>2026-03-30T09:07:07Z</time></trkpt><trkpt lat="33.38084653922214" lon="9.098288905729383"><ele>75.0</ele><time>2026-03-30T09:07:08Z</time></trkpt><trkpt lat="33.38087978531026" lon="9.098417721380772"><ele>75.0</ele><time>2026-03-30T09:07:09Z</time></trkpt><trkpt lat="33.38091349516157" lon="9.098550413955353"><ele>75.0</ele><time>2026-03-30T09:07:10Z</time></trkpt><trkpt lat="33.380954033410575" lon="9.098676896145822"><ele>75.0</ele><time>2026-03-30T09:07:11Z</time></trkpt><trkpt lat="33.38100313985835" lon="9.09881405467284"><ele>75.0</ele><time>2026-03-30T09:07:12Z</time></trkpt><trkpt lat="33.38104817693547" lon="9.098952496285508"><ele>75.25</ele><time>2026-03-30T09:07:13Z</time></trkpt><trkpt lat="33.38109509562851" lon="9.099091134958744"><ele>75.5</ele><time>2026-03-30T09:07:14Z</time></trkpt><trkpt lat="33.38113918148261" lon="9.099231760646335"><ele>75.75</ele><time>2026-03-30T09:07:15Z</time></trkpt><trkpt lat="33.38118074512555" lon="9.099373673855965"><ele>76.0</ele><time>2026-03-30T09:07:16Z</time></trkpt><trkpt lat="33.38121929622847" lon="9.09951976996847"><ele>76.0</ele><time>2026-03-30T09:07:17Z</time></trkpt><trkpt lat="33.38125470192608" lon="9.099661781477389"><ele>76.0</ele><time>2026-03-30T09:07:18Z</time></trkpt><trkpt lat="33.38129538214322" lon="9.099806744350497"><ele>76.0</ele><time>2026-03-30T09:07:19Z</time></trkpt><trkpt lat="33.381334151969014" lon="9.099947666227468"><ele>76.0</ele><time>2026-03-30T09:07:19.999Z</time></trkpt><trkpt lat="33.38136390738621" lon="9.100095808497114"><ele>76.0</ele><time>2026-03-30T09:07:20.999Z</time></trkpt><trkpt lat="33.38139097229112" lon="9.100253089320583"><ele>76.0</ele><time>2026-03-30T09:07:21.999Z</time></trkpt><trkpt lat="33.381417378921974" lon="9.100408998648154"><ele>76.0</ele><time>2026-03-30T09:07:22.999Z</time></trkpt><trkpt lat="33.38144102594497" lon="9.100556934108685"><ele>76.0</ele><time>2026-03-30T09:07:23.999Z</time></trkpt><trkpt lat="33.381462398900645" lon="9.100698002316427"><ele>75.75</ele><time>2026-03-30T09:07:24.999Z</time></trkpt><trkpt lat="33.38148664481963" lon="9.100839537482802"><ele>75.5</ele><time>2026-03-30T09:07:25.999Z</time></trkpt><trkpt lat="33.38150947998423" lon="9.100979408899205"><ele>75.25</ele><time>2026-03-30T09:07:26.999Z</time></trkpt><trkpt lat="33.38152843822053" lon="9.101121522440424"><ele>75.0</ele><time>2026-03-30T09:07:27.999Z</time></trkpt><trkpt lat="33.38154566047647" lon="9.101267624393742"><ele>75.0</ele><time>2026-03-30T09:07:28.999Z</time></trkpt><trkpt lat="33.38156071133702" lon="9.101417415862215"><ele>75.0</ele><time>2026-03-30T09:07:29.999Z</time></trkpt><trkpt lat="33.381579311296846" lon="9.101567648233207"><ele>75.0</ele><time>2026-03-30T09:07:30.999Z</time></trkpt><trkpt lat="33.38159677483182" lon="9.10171953826967"><ele>75.0</ele><time>2026-03-30T09:07:31.999Z</time></trkpt><trkpt lat="33.381611404718896" lon="9.10187649145298"><ele>75.75</ele><time>2026-03-30T09:07:32.999Z</time></trkpt><trkpt lat="33.38162515879829" lon="9.102034161010026"><ele>76.5</ele><time>2026-03-30T09:07:33.999Z</time></trkpt><trkpt lat="33.38163364934882" lon="9.102188680567165"><ele>77.25</ele><time>2026-03-30T09:07:34.999Z</time></trkpt><trkpt lat="33.38164090614728" lon="9.102340376734752"><ele>78.0</ele><time>2026-03-30T09:07:35.999Z</time></trkpt><trkpt lat="33.38164602485936" lon="9.102491141176454"><ele>78.5</ele><time>2026-03-30T09:07:36.999Z</time></trkpt><trkpt lat="33.3816497156561" lon="9.102640418555723"><ele>79.0</ele><time>2026-03-30T09:07:37.999Z</time></trkpt><trkpt lat="33.38164922829758" lon="9.102788961104947"><ele>79.5</ele><time>2026-03-30T09:07:38.999Z</time></trkpt><trkpt lat="33.38164659741954" lon="9.102936714979398"><ele>80.0</ele><time>2026-03-30T09:07:39.999Z</time></trkpt><trkpt lat="33.38164523846986" lon="9.103089910729981"><ele>80.0</ele><time>2026-03-30T09:07:40.999Z</time></trkpt><trkpt lat="33.381644430862295" lon="9.1032367791658"><ele>80.0</ele><time>2026-03-30T09:07:41.999Z</time></trkpt><trkpt lat="33.381643511296865" lon="9.103386042174643"><ele>80.0</ele><time>2026-03-30T09:07:42.999Z</time></trkpt><trkpt lat="33.381637713574925" lon="9.103535533460064"><ele>80.0</ele><time>2026-03-30T09:07:43.999Z</time></trkpt><trkpt lat="33.38162441946016" lon="9.103679334481381"><ele>78.75</ele><time>2026-03-30T09:07:44.999Z</time></trkpt><trkpt lat="33.381609859417395" lon="9.103834582332032"><ele>77.5</ele><time>2026-03-30T09:07:45.999Z</time></trkpt><trkpt lat="33.38159975775084" lon="9.10398523315984"><ele>76.25</ele><time>2026-03-30T09:07:46.999Z</time></trkpt><trkpt lat="33.38158832447447" lon="9.104134387079233"><ele>75.0</ele><time>2026-03-30T09:07:47.999Z</time></trkpt><trkpt lat="33.38156345227123" lon="9.104282714490555"><ele>74.5</ele><time>2026-03-30T09:07:48.999Z</time></trkpt><trkpt lat="33.38154171367362" lon="9.10440639629029"><ele>74.0</ele><time>2026-03-30T09:07:49.999Z</time></trkpt><trkpt lat="33.38153542186716" lon="9.104561032547572"><ele>73.5</ele><time>2026-03-30T09:07:50.999Z</time></trkpt><trkpt lat="33.38152165558676" lon="9.104701620769749"><ele>73.0</ele><time>2026-03-30T09:07:51.999Z</time></trkpt><trkpt lat="33.38149411079178" lon="9.104835683467861"><ele>73.75</ele><time>2026-03-30T09:07:52.999Z</time></trkpt><trkpt lat="33.381459225857306" lon="9.104979808408348"><ele>74.5</ele><time>2026-03-30T09:07:53.999Z</time></trkpt><trkpt lat="33.38142799466118" lon="9.105132431126176"><ele>75.25</ele><time>2026-03-30T09:07:54.999Z</time></trkpt><trkpt lat="33.381396512536725" lon="9.105289571834442"><ele>76.0</ele><time>2026-03-30T09:07:55.999Z</time></trkpt><trkpt lat="33.381364936720345" lon="9.10544283770697"><ele>76.0</ele><time>2026-03-30T09:07:56.999Z</time></trkpt><trkpt lat="33.38133042215828" lon="9.105601636656148"><ele>76.0</ele><time>2026-03-30T09:07:57.999Z</time></trkpt><trkpt lat="33.38130675934263" lon="9.105745756384142"><ele>76.0</ele><time>2026-03-30T09:07:58.999Z</time></trkpt><trkpt lat="33.38128557987879" lon="9.10589300239616"><ele>76.0</ele><time>2026-03-30T09:07:59.999Z</time></trkpt><trkpt lat="33.38125259026225" lon="9.106002498785706"><ele>75.75</ele><time>2026-03-30T09:08:00.999Z</time></trkpt><trkpt lat="33.381223493142826" lon="9.106127276672462"><ele>75.5</ele><time>2026-03-30T09:08:01.999Z</time></trkpt><trkpt lat="33.381184477939236" lon="9.106256562344822"><ele>75.25</ele><time>2026-03-30T09:08:02.999Z</time></trkpt><trkpt lat="33.38114760982598" lon="9.106399897928553"><ele>75.0</ele><time>2026-03-30T09:08:03.999Z</time></trkpt><trkpt lat="33.38109888780091" lon="9.106542774535324"><ele>75.0</ele><time>2026-03-30T09:08:04.999Z</time></trkpt><trkpt lat="33.38104748484276" lon="9.106693014134127"><ele>75.0</ele><time>2026-03-30T09:08:05.999Z</time></trkpt><trkpt lat="33.38099612172636" lon="9.106845983352638"><ele>75.0</ele><time>2026-03-30T09:08:06.999Z</time></trkpt><trkpt lat="33.38093231320983" lon="9.107011806158253"><ele>75.0</ele><time>2026-03-30T09:08:07.999Z</time></trkpt><trkpt lat="33.380856758270866" lon="9.107195493784818"><ele>75.0</ele><time>2026-03-30T09:08:08.999Z</time></trkpt><trkpt lat="33.38078295888291" lon="9.107382040286884"><ele>75.0</ele><time>2026-03-30T09:08:09.999Z</time></trkpt><trkpt lat="33.3807207693315" lon="9.107567044385519"><ele>75.0</ele><time>2026-03-30T09:08:10.999Z</time></trkpt><trkpt lat="33.380657492441365" lon="9.107725818830868"><ele>75.5</ele><time>2026-03-30T09:08:11.999Z</time></trkpt><trkpt lat="33.38059448508233" lon="9.107875165930755"><ele>76.0</ele><time>2026-03-30T09:08:12.999Z</time></trkpt><trkpt lat="33.380531926422115" lon="9.108032865704136"><ele>76.5</ele><time>2026-03-30T09:08:13.999Z</time></trkpt><trkpt lat="33.380466180994496" lon="9.108200297435285"><ele>77.0</ele><time>2026-03-30T09:08:15Z</time></trkpt><trkpt lat="33.380397839467456" lon="9.108363755762456"><ele>77.25</ele><time>2026-03-30T09:08:16Z</time></trkpt><trkpt lat="33.380333233786615" lon="9.108522893822096"><ele>77.5</ele><time>2026-03-30T09:08:17Z</time></trkpt><trkpt lat="33.380270098730875" lon="9.108680553809235"><ele>77.75</ele><time>2026-03-30T09:08:18Z</time></trkpt><trkpt lat="33.38021560217971" lon="9.108827261059156"><ele>78.0</ele><time>2026-03-30T09:08:19Z</time></trkpt><trkpt lat="33.38015021129466" lon="9.108995723576648"><ele>77.75</ele><time>2026-03-30T09:08:20Z</time></trkpt><trkpt lat="33.380092054663756" lon="9.109144739645046"><ele>77.5</ele><time>2026-03-30T09:08:21Z</time></trkpt><trkpt lat="33.3800278731868" lon="9.109299773814255"><ele>77.25</ele><time>2026-03-30T09:08:22Z</time></trkpt><trkpt lat="33.379964501434436" lon="9.109456130174596"><ele>77.0</ele><time>2026-03-30T09:08:23Z</time></trkpt><trkpt lat="33.37989934310344" lon="9.109612635102971"><ele>77.0</ele><time>2026-03-30T09:08:24Z</time></trkpt><trkpt lat="33.37983940114785" lon="9.109768193937596"><ele>77.0</ele><time>2026-03-30T09:08:25Z</time></trkpt><trkpt lat="33.37978017101645" lon="9.109927333972697"><ele>77.0</ele><time>2026-03-30T09:08:26Z</time></trkpt><trkpt lat="33.37971998930757" lon="9.110087812171054"><ele>77.0</ele><time>2026-03-30T09:08:27Z</time></trkpt><trkpt lat="33.37966091206436" lon="9.110247179202151"><ele>77.5</ele><time>2026-03-30T09:08:28Z</time></trkpt><trkpt lat="33.37959994519365" lon="9.11040286870135"><ele>78.0</ele><time>2026-03-30T09:08:29Z</time></trkpt><trkpt lat="33.37953884259354" lon="9.110557647255765"><ele>78.5</ele><time>2026-03-30T09:08:30Z</time></trkpt><trkpt lat="33.37947329316677" lon="9.110719820824373"><ele>79.0</ele><time>2026-03-30T09:08:31Z</time></trkpt><trkpt lat="33.379418412625164" lon="9.110865760283495"><ele>78.0</ele><time>2026-03-30T09:08:32Z</time></trkpt><trkpt lat="33.37935892111017" lon="9.111015311299692"><ele>77.0</ele><time>2026-03-30T09:08:33Z</time></trkpt><trkpt lat="33.379296907861146" lon="9.11116404830219"><ele>76.0</ele><time>2026-03-30T09:08:34Z</time></trkpt><trkpt lat="33.37923973475414" lon="9.111312052618699"><ele>75.0</ele><time>2026-03-30T09:08:35Z</time></trkpt><trkpt lat="33.379182597571905" lon="9.111463868595333"><ele>75.25</ele><time>2026-03-30T09:08:36Z</time></trkpt><trkpt lat="33.37912310561925" lon="9.111616609366397"><ele>75.5</ele><time>2026-03-30T09:08:37Z</time></trkpt><trkpt lat="33.37906193094822" lon="9.11176012170056"><ele>75.75</ele><time>2026-03-30T09:08:38Z</time></trkpt><trkpt lat="33.378996866908" lon="9.111926817618315"><ele>76.0</ele><time>2026-03-30T09:08:39Z</time></trkpt><trkpt lat="33.37893113069162" lon="9.112078535615998"><ele>76.0</ele><time>2026-03-30T09:08:40Z</time></trkpt><trkpt lat="33.37886157237814" lon="9.112229471665668"><ele>76.0</ele><time>2026-03-30T09:08:41Z</time></trkpt><trkpt lat="33.378788226409995" lon="9.112378889697313"><ele>76.0</ele><time>2026-03-30T09:08:42Z</time></trkpt><trkpt lat="33.378718392833356" lon="9.112529727982867"><ele>76.0</ele><time>2026-03-30T09:08:43Z</time></trkpt><trkpt lat="33.37864478457105" lon="9.112690945270401"><ele>76.33333333333333</ele><time>2026-03-30T09:08:44Z</time></trkpt><trkpt lat="33.378567873804954" lon="9.112853776244776"><ele>76.66666666666667</ele><time>2026-03-30T09:08:45Z</time></trkpt><trkpt lat="33.37849440434631" lon="9.113006774946435"><ele>77.0</ele><time>2026-03-30T09:08:46Z</time></trkpt><trkpt lat="33.3784177042844" lon="9.113162864367672"><ele>77.0</ele><time>2026-03-30T09:08:47Z</time></trkpt><trkpt lat="33.37833406604616" lon="9.113322777171827"><ele>77.0</ele><time>2026-03-30T09:08:48Z</time></trkpt><trkpt lat="33.37824721352703" lon="9.113474746736342"><ele>77.0</ele><time>2026-03-30T09:08:49Z</time></trkpt><trkpt lat="33.378167187904" lon="9.113620892193516"><ele>77.0</ele><time>2026-03-30T09:08:50Z</time></trkpt><trkpt lat="33.37808420503585" lon="9.113772955535858"><ele>77.0</ele><time>2026-03-30T09:08:51Z</time></trkpt><trkpt lat="33.37800092214339" lon="9.113926859160959"><ele>77.0</ele><time>2026-03-30T09:08:52Z</time></trkpt><trkpt lat="33.3779202695178" lon="9.114077115649968"><ele>77.0</ele><time>2026-03-30T09:08:53Z</time></trkpt><trkpt lat="33.37784016643398" lon="9.114216792979487"><ele>77.0</ele><time>2026-03-30T09:08:54Z</time></trkpt><trkpt lat="33.37775864084685" lon="9.114358972126876"><ele>77.0</ele><time>2026-03-30T09:08:55Z</time></trkpt><trkpt lat="33.37767949654904" lon="9.114502640494862"><ele>77.0</ele><time>2026-03-30T09:08:56Z</time></trkpt><trkpt lat="33.37759409776728" lon="9.114646870453022"><ele>77.0</ele><time>2026-03-30T09:08:57Z</time></trkpt><trkpt lat="33.37750716324127" lon="9.114792279177259"><ele>77.0</ele><time>2026-03-30T09:08:58Z</time></trkpt><trkpt lat="33.377428300274666" lon="9.114918795187023"><ele>77.0</ele><time>2026-03-30T09:08:59Z</time></trkpt><trkpt lat="33.377344660253655" lon="9.115066174093242"><ele>77.0</ele><time>2026-03-30T09:09:00Z</time></trkpt><trkpt lat="33.377259646827234" lon="9.115219304574055"><ele>77.33333333333334</ele><time>2026-03-30T09:09:01Z</time></trkpt><trkpt lat="33.37717594159908" lon="9.1153699741812"><ele>77.66666666666667</ele><time>2026-03-30T09:09:02Z</time></trkpt><trkpt lat="33.37709045377405" lon="9.115524443753703"><ele>78.0</ele><time>2026-03-30T09:09:03Z</time></trkpt><trkpt lat="33.3770108467726" lon="9.115669893894035"><ele>77.66666666666667</ele><time>2026-03-30T09:09:04Z</time></trkpt><trkpt lat="33.376930255703904" lon="9.11581775369213"><ele>77.33333333333334</ele><time>2026-03-30T09:09:05Z</time></trkpt><trkpt lat="33.376845606153786" lon="9.115976674197794"><ele>77.0</ele><time>2026-03-30T09:09:06Z</time></trkpt><trkpt lat="33.376763510771184" lon="9.116122431553181"><ele>77.0</ele><time>2026-03-30T09:09:07Z</time></trkpt><trkpt lat="33.37667755052461" lon="9.116276520794582"><ele>77.0</ele><time>2026-03-30T09:09:08Z</time></trkpt><trkpt lat="33.376592727046024" lon="9.11642364704916"><ele>77.0</ele><time>2026-03-30T09:09:09Z</time></trkpt><trkpt lat="33.376506748978876" lon="9.11656731270912"><ele>77.0</ele><time>2026-03-30T09:09:10Z</time></trkpt><trkpt lat="33.37642145416946" lon="9.116708742652168"><ele>77.0</ele><time>2026-03-30T09:09:11Z</time></trkpt><trkpt lat="33.376340854426736" lon="9.116858230889433"><ele>77.0</ele><time>2026-03-30T09:09:12Z</time></trkpt><trkpt lat="33.37626393994443" lon="9.11700161990922"><ele>77.0</ele><time>2026-03-30T09:09:13Z</time></trkpt><trkpt lat="33.37618390394672" lon="9.117146787286394"><ele>77.0</ele><time>2026-03-30T09:09:13.999Z</time></trkpt><trkpt lat="33.3761071067933" lon="9.117273240047483"><ele>77.0</ele><time>2026-03-30T09:09:14.999Z</time></trkpt><trkpt lat="33.376022326951194" lon="9.117402905668007"><ele>77.0</ele><time>2026-03-30T09:09:15.999Z</time></trkpt><trkpt lat="33.37593934100957" lon="9.117523859785905"><ele>77.0</ele><time>2026-03-30T09:09:16.999Z</time></trkpt><trkpt lat="33.37586553281822" lon="9.117633721404381"><ele>77.0</ele><time>2026-03-30T09:09:17.999Z</time></trkpt><trkpt lat="33.3757818121661" lon="9.1177478390086"><ele>77.0</ele><time>2026-03-30T09:09:18.999Z</time></trkpt><trkpt lat="33.37570207974638" lon="9.11786095267355"><ele>77.0</ele><time>2026-03-30T09:09:19.999Z</time></trkpt><trkpt lat="33.375622642557886" lon="9.117986452980608"><ele>77.0</ele><time>2026-03-30T09:09:20.999Z</time></trkpt><trkpt lat="33.37553750929372" lon="9.11810882093609"><ele>77.33333333333334</ele><time>2026-03-30T09:09:21.999Z</time></trkpt><trkpt lat="33.37543524210893" lon="9.118260256302111"><ele>77.66666666666667</ele><time>2026-03-30T09:09:22.999Z</time></trkpt><trkpt lat="33.375328011468575" lon="9.118425198780784"><ele>78.0</ele><time>2026-03-30T09:09:23.999Z</time></trkpt><trkpt lat="33.375227406266646" lon="9.118585686523073"><ele>78.0</ele><time>2026-03-30T09:09:24.999Z</time></trkpt><trkpt lat="33.37512852389813" lon="9.118740633302139"><ele>78.0</ele><time>2026-03-30T09:09:25.999Z</time></trkpt><trkpt lat="33.375029286767784" lon="9.118891415207193"><ele>78.0</ele><time>2026-03-30T09:09:26.999Z</time></trkpt><trkpt lat="33.374935002739356" lon="9.119030509060552"><ele>78.0</ele><time>2026-03-30T09:09:27.999Z</time></trkpt><trkpt lat="33.37483916845741" lon="9.119175794240236"><ele>78.0</ele><time>2026-03-30T09:09:28.999Z</time></trkpt><trkpt lat="33.374750336701645" lon="9.119312978887049"><ele>78.0</ele><time>2026-03-30T09:09:29.999Z</time></trkpt><trkpt lat="33.37466123455128" lon="9.119449733421401"><ele>78.0</ele><time>2026-03-30T09:09:30.999Z</time></trkpt><trkpt lat="33.374568961226146" lon="9.1195828445159"><ele>78.25</ele><time>2026-03-30T09:09:31.999Z</time></trkpt><trkpt lat="33.374478326354335" lon="9.119715074647935"><ele>78.5</ele><time>2026-03-30T09:09:32.999Z</time></trkpt><trkpt lat="33.37438238573205" lon="9.11985122161997"><ele>78.75</ele><time>2026-03-30T09:09:33.999Z</time></trkpt><trkpt lat="33.37428827157188" lon="9.119988268586676"><ele>79.0</ele><time>2026-03-30T09:09:34.999Z</time></trkpt><trkpt lat="33.37419411632782" lon="9.120123404876379"><ele>79.0</ele><time>2026-03-30T09:09:35.999Z</time></trkpt><trkpt lat="33.37409925948402" lon="9.12025589044893"><ele>79.0</ele><time>2026-03-30T09:09:36.999Z</time></trkpt><trkpt lat="33.37400593014853" lon="9.12038901886748"><ele>79.0</ele><time>2026-03-30T09:09:37.999Z</time></trkpt><trkpt lat="33.373906450769745" lon="9.120528813183595"><ele>79.0</ele><time>2026-03-30T09:09:38.999Z</time></trkpt><trkpt lat="33.37381508885829" lon="9.120649186075628"><ele>79.5</ele><time>2026-03-30T09:09:39.999Z</time></trkpt><trkpt lat="33.373716363300964" lon="9.120773668333046"><ele>80.0</ele><time>2026-03-30T09:09:40.999Z</time></trkpt><trkpt lat="33.373624774752415" lon="9.120895306073276"><ele>80.5</ele><time>2026-03-30T09:09:41.999Z</time></trkpt><trkpt lat="33.373525450685484" lon="9.12102485275918"><ele>81.0</ele><time>2026-03-30T09:09:42.999Z</time></trkpt><trkpt lat="33.37342735365563" lon="9.121155975189355"><ele>81.0</ele><time>2026-03-30T09:09:43.999Z</time></trkpt><trkpt lat="33.37332700691787" lon="9.121287379447338"><ele>81.0</ele><time>2026-03-30T09:09:44.999Z</time></trkpt><trkpt lat="33.37322789627074" lon="9.121423106265091"><ele>81.0</ele><time>2026-03-30T09:09:45.999Z</time></trkpt><trkpt lat="33.373128101523704" lon="9.121552630669942"><ele>81.0</ele><time>2026-03-30T09:09:46.999Z</time></trkpt><trkpt lat="33.373037720770775" lon="9.121682539667589"><ele>80.0</ele><time>2026-03-30T09:09:47.999Z</time></trkpt><trkpt lat="33.37293949915727" lon="9.12181030735416"><ele>79.0</ele><time>2026-03-30T09:09:48.999Z</time></trkpt><trkpt lat="33.37283940825737" lon="9.121937081506182"><ele>78.0</ele><time>2026-03-30T09:09:49.999Z</time></trkpt><trkpt lat="33.37273950900958" lon="9.122067244973119"><ele>77.0</ele><time>2026-03-30T09:09:50.999Z</time></trkpt><trkpt lat="33.372640607479845" lon="9.122198440933328"><ele>77.0</ele><time>2026-03-30T09:09:51.999Z</time></trkpt><trkpt lat="33.37254478717364" lon="9.122327811901837"><ele>77.0</ele><time>2026-03-30T09:09:52.999Z</time></trkpt><trkpt lat="33.37244319421137" lon="9.122461029105597"><ele>77.0</ele><time>2026-03-30T09:09:53.999Z</time></trkpt><trkpt lat="33.372346398815715" lon="9.122586798011838"><ele>77.0</ele><time>2026-03-30T09:09:54.999Z</time></trkpt><trkpt lat="33.37227896688127" lon="9.122719097703373"><ele>79.0</ele><time>2026-03-30T09:09:55.999Z</time></trkpt><trkpt lat="33.372155229115926" lon="9.122838332393455"><ele>81.0</ele><time>2026-03-30T09:09:56.999Z</time></trkpt><trkpt lat="33.37204573226091" lon="9.122971290613602"><ele>83.0</ele><time>2026-03-30T09:09:57.999Z</time></trkpt><trkpt lat="33.371935832383976" lon="9.123116350962286"><ele>81.33333333333334</ele><time>2026-03-30T09:09:58.999Z</time></trkpt><trkpt lat="33.37182121959712" lon="9.123260179616981"><ele>79.66666666666667</ele><time>2026-03-30T09:09:59.999Z</time></trkpt><trkpt lat="33.371707948170716" lon="9.123400429667647"><ele>78.0</ele><time>2026-03-30T09:10:00.999Z</time></trkpt><trkpt lat="33.371598278142336" lon="9.123536380959012"><ele>78.0</ele><time>2026-03-30T09:10:01.999Z</time></trkpt><trkpt lat="33.37148816323229" lon="9.123672822562094"><ele>78.0</ele><time>2026-03-30T09:10:02.999Z</time></trkpt><trkpt lat="33.371374282929644" lon="9.123811572986561"><ele>78.0</ele><time>2026-03-30T09:10:03.999Z</time></trkpt><trkpt lat="33.371266922015394" lon="9.12395066896642"><ele>78.66666666666667</ele><time>2026-03-30T09:10:04.999Z</time></trkpt><trkpt lat="33.37115300045498" lon="9.1240880155521"><ele>79.33333333333334</ele><time>2026-03-30T09:10:05.999Z</time></trkpt><trkpt lat="33.37104332769482" lon="9.124218422970928"><ele>80.0</ele><time>2026-03-30T09:10:06.999Z</time></trkpt><trkpt lat="33.37092637353144" lon="9.124348751211041"><ele>80.0</ele><time>2026-03-30T09:10:07.999Z</time></trkpt><trkpt lat="33.37081246095055" lon="9.12448372760485"><ele>80.0</ele><time>2026-03-30T09:10:08.999Z</time></trkpt><trkpt lat="33.37069373778666" lon="9.124618836764414"><ele>80.0</ele><time>2026-03-30T09:10:09.999Z</time></trkpt><trkpt lat="33.37057788132693" lon="9.124748519191263"><ele>79.33333333333334</ele><time>2026-03-30T09:10:10.999Z</time></trkpt><trkpt lat="33.37045284061093" lon="9.124883431619253"><ele>78.66666666666667</ele><time>2026-03-30T09:10:11.999Z</time></trkpt><trkpt lat="33.37034187941225" lon="9.125009369863484"><ele>78.0</ele><time>2026-03-30T09:10:12.999Z</time></trkpt><trkpt lat="33.37024533875043" lon="9.125131410909393"><ele>79.0</ele><time>2026-03-30T09:10:13.999Z</time></trkpt><trkpt lat="33.370147650303366" lon="9.125245150500437"><ele>80.0</ele><time>2026-03-30T09:10:14.999Z</time></trkpt><trkpt lat="33.370038891934854" lon="9.125365362975824"><ele>81.0</ele><time>2026-03-30T09:10:15.999Z</time></trkpt><trkpt lat="33.36992389956332" lon="9.125492095112309"><ele>82.0</ele><time>2026-03-30T09:10:16.999Z</time></trkpt><trkpt lat="33.36980137036595" lon="9.125623063776526"><ele>81.75</ele><time>2026-03-30T09:10:17.999Z</time></trkpt><trkpt lat="33.36968920927964" lon="9.12574110131928"><ele>81.5</ele><time>2026-03-30T09:10:18.999Z</time></trkpt><trkpt lat="33.369574178188095" lon="9.125857220242588"><ele>81.25</ele><time>2026-03-30T09:10:19.999Z</time></trkpt><trkpt lat="33.36946788034349" lon="9.125969208083458"><ele>81.0</ele><time>2026-03-30T09:10:21Z</time></trkpt><trkpt lat="33.369357771575515" lon="9.126073667936637"><ele>81.0</ele><time>2026-03-30T09:10:22Z</time></trkpt><trkpt lat="33.36923975077772" lon="9.126174285034462"><ele>81.0</ele><time>2026-03-30T09:10:23Z</time></trkpt><trkpt lat="33.36913346535568" lon="9.126264106154515"><ele>81.0</ele><time>2026-03-30T09:10:24Z</time></trkpt><trkpt lat="33.369015018564696" lon="9.126369884231664"><ele>81.0</ele><time>2026-03-30T09:10:25Z</time></trkpt><trkpt lat="33.36889254204013" lon="9.12649279436495"><ele>80.0</ele><time>2026-03-30T09:10:26Z</time></trkpt><trkpt lat="33.368773497580186" lon="9.126623931194793"><ele>79.0</ele><time>2026-03-30T09:10:27Z</time></trkpt><trkpt lat="33.36865309668269" lon="9.126753409744538"><ele>78.0</ele><time>2026-03-30T09:10:28Z</time></trkpt><trkpt lat="33.3685349526938" lon="9.126876985795995"><ele>78.0</ele><time>2026-03-30T09:10:29Z</time></trkpt><trkpt lat="33.36842077060303" lon="9.126996655792844"><ele>78.0</ele><time>2026-03-30T09:10:30Z</time></trkpt><trkpt lat="33.36830777734684" lon="9.127112544553864"><ele>78.0</ele><time>2026-03-30T09:10:31Z</time></trkpt><trkpt lat="33.36819762042525" lon="9.127224816677282"><ele>78.0</ele><time>2026-03-30T09:10:32Z</time></trkpt><trkpt lat="33.36809898443487" lon="9.127327133441176"><ele>78.0</ele><time>2026-03-30T09:10:33Z</time></trkpt><trkpt lat="33.36799516656661" lon="9.127429985436295"><ele>78.0</ele><time>2026-03-30T09:10:34Z</time></trkpt><trkpt lat="33.36788608594309" lon="9.127544107462315"><ele>78.0</ele><time>2026-03-30T09:10:35Z</time></trkpt><trkpt lat="33.367764408955026" lon="9.127669567518485"><ele>78.0</ele><time>2026-03-30T09:10:36Z</time></trkpt><trkpt lat="33.36764735434817" lon="9.127784494215897"><ele>78.0</ele><time>2026-03-30T09:10:37Z</time></trkpt><trkpt lat="33.36753030559526" lon="9.127904714645002"><ele>78.0</ele><time>2026-03-30T09:10:38Z</time></trkpt><trkpt lat="33.367418380787285" lon="9.128024522675583"><ele>78.0</ele><time>2026-03-30T09:10:39Z</time></trkpt><trkpt lat="33.367303818500645" lon="9.128144180945649"><ele>78.66666666666667</ele><time>2026-03-30T09:10:40Z</time></trkpt><trkpt lat="33.36718628394533" lon="9.128264490400303"><ele>79.33333333333334</ele><time>2026-03-30T09:10:41Z</time></trkpt><trkpt lat="33.367071020462966" lon="9.128380692629564"><ele>80.0</ele><time>2026-03-30T09:10:42Z</time></trkpt><trkpt lat="33.36694983654863" lon="9.128501265027834"><ele>80.0</ele><time>2026-03-30T09:10:43Z</time></trkpt><trkpt lat="33.366831490275" lon="9.128624241958189"><ele>80.0</ele><time>2026-03-30T09:10:44Z</time></trkpt><trkpt lat="33.36670205306993" lon="9.128755180073094"><ele>80.0</ele><time>2026-03-30T09:10:45Z</time></trkpt><trkpt lat="33.366576800260894" lon="9.12888106950502"><ele>80.0</ele><time>2026-03-30T09:10:46Z</time></trkpt><trkpt lat="33.366454693808784" lon="9.129004905542917"><ele>80.0</ele><time>2026-03-30T09:10:47Z</time></trkpt><trkpt lat="33.366335089957374" lon="9.129127328472261"><ele>80.0</ele><time>2026-03-30T09:10:48Z</time></trkpt><trkpt lat="33.36621838815144" lon="9.129248774436439"><ele>80.0</ele><time>2026-03-30T09:10:49Z</time></trkpt><trkpt lat="33.366099612084135" lon="9.129374123756769"><ele>80.0</ele><time>2026-03-30T09:10:50Z</time></trkpt><trkpt lat="33.36598261117885" lon="9.12949628564822"><ele>80.0</ele><time>2026-03-30T09:10:51Z</time></trkpt><trkpt lat="33.36586687360431" lon="9.129616672500594"><ele>80.0</ele><time>2026-03-30T09:10:52Z</time></trkpt><trkpt lat="33.36574707103442" lon="9.12973870749411"><ele>80.0</ele><time>2026-03-30T09:10:53Z</time></trkpt><trkpt lat="33.36562136125345" lon="9.12986263894263"><ele>80.0</ele><time>2026-03-30T09:10:54Z</time></trkpt><trkpt lat="33.36550848292064" lon="9.129980590929279"><ele>79.5</ele><time>2026-03-30T09:10:55Z</time></trkpt><trkpt lat="33.36539586874178" lon="9.130096011800504"><ele>79.0</ele><time>2026-03-30T09:10:56Z</time></trkpt><trkpt lat="33.365296494086905" lon="9.130201197235358"><ele>78.5</ele><time>2026-03-30T09:10:57Z</time></trkpt><trkpt lat="33.36517625873191" lon="9.130317264303255"><ele>78.0</ele><time>2026-03-30T09:10:58Z</time></trkpt><trkpt lat="33.36507006280276" lon="9.130416844134524"><ele>78.0</ele><time>2026-03-30T09:10:59Z</time></trkpt><trkpt lat="33.36495975010446" lon="9.130525506342872"><ele>78.0</ele><time>2026-03-30T09:11:00Z</time></trkpt><trkpt lat="33.36484593761784" lon="9.130644059189155"><ele>78.0</ele><time>2026-03-30T09:11:01Z</time></trkpt><trkpt lat="33.364733748217844" lon="9.130766152151232"><ele>78.0</ele><time>2026-03-30T09:11:02Z</time></trkpt><trkpt lat="33.364615609669244" lon="9.130887495093772"><ele>78.33333333333333</ele><time>2026-03-30T09:11:03Z</time></trkpt><trkpt lat="33.36450286981318" lon="9.131010287489152"><ele>78.66666666666666</ele><time>2026-03-30T09:11:04Z</time></trkpt><trkpt lat="33.36438879939733" lon="9.131134623059173"><ele>79.0</ele><time>2026-03-30T09:11:05Z</time></trkpt><trkpt lat="33.364265138486566" lon="9.131260755528071"><ele>79.0</ele><time>2026-03-30T09:11:06Z</time></trkpt><trkpt lat="33.36413804208024" lon="9.131380590733992"><ele>79.0</ele><time>2026-03-30T09:11:07Z</time></trkpt><trkpt lat="33.36401653596897" lon="9.131493586129253"><ele>79.0</ele><time>2026-03-30T09:11:08Z</time></trkpt><trkpt lat="33.36390034364062" lon="9.131601716271362"><ele>79.0</ele><time>2026-03-30T09:11:09Z</time></trkpt><trkpt lat="33.36378079132554" lon="9.131713897081228"><ele>79.0</ele><time>2026-03-30T09:11:10Z</time></trkpt><trkpt lat="33.36366497040154" lon="9.13183086982384"><ele>79.0</ele><time>2026-03-30T09:11:11Z</time></trkpt><trkpt lat="33.363558397170436" lon="9.131946154677259"><ele>79.0</ele><time>2026-03-30T09:11:12Z</time></trkpt><trkpt lat="33.36344721213106" lon="9.132064317020603"><ele>79.0</ele><time>2026-03-30T09:11:13Z</time></trkpt><trkpt lat="33.363339244545195" lon="9.13218561038598"><ele>79.0</ele><time>2026-03-30T09:11:14Z</time></trkpt><trkpt lat="33.363228012908564" lon="9.132300368795635"><ele>79.0</ele><time>2026-03-30T09:11:15Z</time></trkpt><trkpt lat="33.36311441055285" lon="9.13241122096173"><ele>79.0</ele><time>2026-03-30T09:11:16Z</time></trkpt><trkpt lat="33.363000665541186" lon="9.132520089494475"><ele>78.33333333333333</ele><time>2026-03-30T09:11:17Z</time></trkpt><trkpt lat="33.36288788257224" lon="9.132630030086943"><ele>77.66666666666667</ele><time>2026-03-30T09:11:18Z</time></trkpt><trkpt lat="33.3627762952523" lon="9.132749801940967"><ele>77.0</ele><time>2026-03-30T09:11:19Z</time></trkpt><trkpt lat="33.362655225989144" lon="9.132870152785399"><ele>77.0</ele><time>2026-03-30T09:11:20Z</time></trkpt><trkpt lat="33.36254544585153" lon="9.13299261812286"><ele>77.0</ele><time>2026-03-30T09:11:21Z</time></trkpt><trkpt lat="33.362423255853976" lon="9.13311618722746"><ele>77.0</ele><time>2026-03-30T09:11:22Z</time></trkpt><trkpt lat="33.362309467279495" lon="9.133246730049928"><ele>77.0</ele><time>2026-03-30T09:11:23Z</time></trkpt><trkpt lat="33.36219056518183" lon="9.133373763001222"><ele>77.0</ele><time>2026-03-30T09:11:24Z</time></trkpt><trkpt lat="33.36207282752876" lon="9.13349605088716"><ele>77.0</ele><time>2026-03-30T09:11:25Z</time></trkpt><trkpt lat="33.36196297893978" lon="9.133618639774294"><ele>77.0</ele><time>2026-03-30T09:11:26Z</time></trkpt><trkpt lat="33.36185077139888" lon="9.133741187753985"><ele>77.0</ele><time>2026-03-30T09:11:27Z</time></trkpt><trkpt lat="33.36174030647152" lon="9.13386658297308"><ele>77.0</ele><time>2026-03-30T09:11:28Z</time></trkpt><trkpt lat="33.36162665317882" lon="9.1339922342184"><ele>79.0</ele><time>2026-03-30T09:11:29Z</time></trkpt><trkpt lat="33.36151846778416" lon="9.134121388810403"><ele>81.0</ele><time>2026-03-30T09:11:30Z</time></trkpt><trkpt lat="33.36140779456411" lon="9.134253729526884"><ele>83.0</ele><time>2026-03-30T09:11:31Z</time></trkpt><trkpt lat="33.36130436027572" lon="9.134381998831893"><ele>83.0</ele><time>2026-03-30T09:11:32Z</time></trkpt><trkpt lat="33.36119986198232" lon="9.134508424374257"><ele>83.0</ele><time>2026-03-30T09:11:33Z</time></trkpt><trkpt lat="33.36109755571848" lon="9.134630023050839"><ele>83.0</ele><time>2026-03-30T09:11:34Z</time></trkpt><trkpt lat="33.36099466861283" lon="9.134750569814717"><ele>83.0</ele><time>2026-03-30T09:11:35Z</time></trkpt><trkpt lat="33.36089323449166" lon="9.134879726435116"><ele>82.0</ele><time>2026-03-30T09:11:36Z</time></trkpt><trkpt lat="33.36078964997206" lon="9.13500632569618"><ele>81.0</ele><time>2026-03-30T09:11:37Z</time></trkpt><trkpt lat="33.360680686405544" lon="9.135139064941248"><ele>80.0</ele><time>2026-03-30T09:11:38Z</time></trkpt><trkpt lat="33.360569682081504" lon="9.135269198460383"><ele>81.0</ele><time>2026-03-30T09:11:39Z</time></trkpt><trkpt lat="33.36045299359944" lon="9.135400814311577"><ele>82.0</ele><time>2026-03-30T09:11:40Z</time></trkpt><trkpt lat="33.360347038264855" lon="9.13552901927248"><ele>83.0</ele><time>2026-03-30T09:11:41Z</time></trkpt><trkpt lat="33.360239949494826" lon="9.135663131645002"><ele>83.25</ele><time>2026-03-30T09:11:42Z</time></trkpt><trkpt lat="33.36013483725888" lon="9.135791534763746"><ele>83.5</ele><time>2026-03-30T09:11:43Z</time></trkpt><trkpt lat="33.360030953363925" lon="9.135912703901843"><ele>83.75</ele><time>2026-03-30T09:11:44Z</time></trkpt><trkpt lat="33.35993423840309" lon="9.1360332291636"><ele>84.0</ele><time>2026-03-30T09:11:44.999Z</time></trkpt><trkpt lat="33.3598363387084" lon="9.136152436643545"><ele>84.0</ele><time>2026-03-30T09:11:45.999Z</time></trkpt><trkpt lat="33.35973528619537" lon="9.136265262990293"><ele>84.0</ele><time>2026-03-30T09:11:46.999Z</time></trkpt><trkpt lat="33.359632582620655" lon="9.136381953657523"><ele>84.0</ele><time>2026-03-30T09:11:47.999Z</time></trkpt><trkpt lat="33.3595289770176" lon="9.136496098697737"><ele>84.0</ele><time>2026-03-30T09:11:48.999Z</time></trkpt><trkpt lat="33.35942286442524" lon="9.136621574679905"><ele>82.66666666666667</ele><time>2026-03-30T09:11:49.999Z</time></trkpt><trkpt lat="33.35931887216298" lon="9.136744461715379"><ele>81.33333333333334</ele><time>2026-03-30T09:11:50.999Z</time></trkpt><trkpt lat="33.35920858477685" lon="9.13687678226494"><ele>80.0</ele><time>2026-03-30T09:11:51.999Z</time></trkpt><trkpt lat="33.35909451453115" lon="9.13701177092049"><ele>80.0</ele><time>2026-03-30T09:11:52.999Z</time></trkpt><trkpt lat="33.35898538780299" lon="9.137138714216999"><ele>80.0</ele><time>2026-03-30T09:11:53.999Z</time></trkpt><trkpt lat="33.35887232123499" lon="9.137262671623986"><ele>80.0</ele><time>2026-03-30T09:11:54.999Z</time></trkpt><trkpt lat="33.35876080854097" lon="9.137386721349513"><ele>80.75</ele><time>2026-03-30T09:11:55.999Z</time></trkpt><trkpt lat="33.35864727937241" lon="9.137507533834494"><ele>81.5</ele><time>2026-03-30T09:11:56.999Z</time></trkpt><trkpt lat="33.358536892758885" lon="9.13762606262368"><ele>82.25</ele><time>2026-03-30T09:11:57.999Z</time></trkpt><trkpt lat="33.35843196803158" lon="9.137749501181798"><ele>83.0</ele><time>2026-03-30T09:11:58.999Z</time></trkpt><trkpt lat="33.358320328367554" lon="9.137878132597187"><ele>83.0</ele><time>2026-03-30T09:11:59.999Z</time></trkpt><trkpt lat="33.35820824665431" lon="9.138003145000088"><ele>83.0</ele><time>2026-03-30T09:12:00.999Z</time></trkpt><trkpt lat="33.35808965291376" lon="9.13812543940745"><ele>83.0</ele><time>2026-03-30T09:12:01.999Z</time></trkpt><trkpt lat="33.35797471746848" lon="9.138235165566778"><ele>84.0</ele><time>2026-03-30T09:12:02.999Z</time></trkpt><trkpt lat="33.357856195232635" lon="9.138350508164"><ele>85.0</ele><time>2026-03-30T09:12:03.999Z</time></trkpt><trkpt lat="33.357730139960594" lon="9.138468562706663"><ele>86.0</ele><time>2026-03-30T09:12:04.999Z</time></trkpt><trkpt lat="33.35761731477485" lon="9.138579308734142"><ele>86.0</ele><time>2026-03-30T09:12:05.999Z</time></trkpt><trkpt lat="33.35750674894383" lon="9.138689009295911"><ele>86.0</ele><time>2026-03-30T09:12:06.999Z</time></trkpt><trkpt lat="33.35738787831589" lon="9.138807110187917"><ele>86.0</ele><time>2026-03-30T09:12:07.999Z</time></trkpt><trkpt lat="33.35727568852518" lon="9.13892399138679"><ele>86.0</ele><time>2026-03-30T09:12:08.999Z</time></trkpt><trkpt lat="33.357150410635796" lon="9.139045589058787"><ele>86.0</ele><time>2026-03-30T09:12:09.999Z</time></trkpt><trkpt lat="33.3570246284667" lon="9.1391658345537"><ele>86.0</ele><time>2026-03-30T09:12:10.999Z</time></trkpt><trkpt lat="33.35690719987845" lon="9.139285260359026"><ele>86.0</ele><time>2026-03-30T09:12:11.999Z</time></trkpt><trkpt lat="33.35678812150026" lon="9.139400295110718"><ele>86.0</ele><time>2026-03-30T09:12:12.999Z</time></trkpt><trkpt lat="33.356675155803444" lon="9.139518127302615"><ele>86.0</ele><time>2026-03-30T09:12:13.999Z</time></trkpt><trkpt lat="33.356564434930235" lon="9.13963410545423"><ele>86.0</ele><time>2026-03-30T09:12:14.999Z</time></trkpt><trkpt lat="33.356440849522755" lon="9.139755697518266"><ele>85.66666666666667</ele><time>2026-03-30T09:12:15.999Z</time></trkpt><trkpt lat="33.35631668083461" lon="9.139874069149881"><ele>85.33333333333333</ele><time>2026-03-30T09:12:16.999Z</time></trkpt><trkpt lat="33.35619320985058" lon="9.139990850890777"><ele>85.0</ele><time>2026-03-30T09:12:17.999Z</time></trkpt><trkpt lat="33.356068532483484" lon="9.140112550193322"><ele>84.66666666666666</ele><time>2026-03-30T09:12:18.999Z</time></trkpt><trkpt lat="33.355952769778526" lon="9.140232146099553"><ele>84.33333333333333</ele><time>2026-03-30T09:12:19.999Z</time></trkpt><trkpt lat="33.35582423365318" lon="9.140349384456867"><ele>84.0</ele><time>2026-03-30T09:12:20.999Z</time></trkpt><trkpt lat="33.35570441912762" lon="9.140467412163963"><ele>84.0</ele><time>2026-03-30T09:12:21.999Z</time></trkpt><trkpt lat="33.35558490684036" lon="9.140583340299534"><ele>84.0</ele><time>2026-03-30T09:12:22.999Z</time></trkpt><trkpt lat="33.35546684015272" lon="9.140694999241768"><ele>84.0</ele><time>2026-03-30T09:12:23.999Z</time></trkpt><trkpt lat="33.35535077375979" lon="9.14080349245681"><ele>83.66666666666667</ele><time>2026-03-30T09:12:24.999Z</time></trkpt><trkpt lat="33.35522003754174" lon="9.140920130723456"><ele>83.33333333333334</ele><time>2026-03-30T09:12:25.999Z</time></trkpt><trkpt lat="33.35509724459787" lon="9.141038827004389"><ele>83.0</ele><time>2026-03-30T09:12:27Z</time></trkpt><trkpt lat="33.35497843446548" lon="9.141149089401393"><ele>83.0</ele><time>2026-03-30T09:12:28Z</time></trkpt><trkpt lat="33.3548654215384" lon="9.141253318137204"><ele>83.0</ele><time>2026-03-30T09:12:29Z</time></trkpt><trkpt lat="33.354749994115465" lon="9.14135077653057"><ele>83.0</ele><time>2026-03-30T09:12:30Z</time></trkpt><trkpt lat="33.3546400562898" lon="9.141457201543322"><ele>83.0</ele><time>2026-03-30T09:12:31Z</time></trkpt><trkpt lat="33.35453076594919" lon="9.141569503598358"><ele>82.75</ele><time>2026-03-30T09:12:32Z</time></trkpt><trkpt lat="33.3544243070908" lon="9.141680049619564"><ele>82.5</ele><time>2026-03-30T09:12:33Z</time></trkpt><trkpt lat="33.35430828964353" lon="9.14178968114891"><ele>82.25</ele><time>2026-03-30T09:12:34Z</time></trkpt><trkpt lat="33.35418955923304" lon="9.14189472675202"><ele>82.0</ele><time>2026-03-30T09:12:35Z</time></trkpt><trkpt lat="33.35406432053219" lon="9.14199357245565"><ele>82.0</ele><time>2026-03-30T09:12:36Z</time></trkpt><trkpt lat="33.353924592595526" lon="9.142086870652093"><ele>82.0</ele><time>2026-03-30T09:12:37Z</time></trkpt><trkpt lat="33.35377740409233" lon="9.142186959610783"><ele>82.0</ele><time>2026-03-30T09:12:38Z</time></trkpt><trkpt lat="33.35363733385773" lon="9.142290177208555"><ele>82.33333333333333</ele><time>2026-03-30T09:12:39Z</time></trkpt><trkpt lat="33.35348757507487" lon="9.142399778915653"><ele>82.66666666666667</ele><time>2026-03-30T09:12:40Z</time></trkpt><trkpt lat="33.353342470581495" lon="9.142513720291527"><ele>83.0</ele><time>2026-03-30T09:12:41Z</time></trkpt><trkpt lat="33.35319638825595" lon="9.142631768600674"><ele>83.0</ele><time>2026-03-30T09:12:42Z</time></trkpt><trkpt lat="33.35304865953279" lon="9.142745691851145"><ele>83.0</ele><time>2026-03-30T09:12:43Z</time></trkpt><trkpt lat="33.352911667368396" lon="9.142850734049322"><ele>83.0</ele><time>2026-03-30T09:12:44Z</time></trkpt><trkpt lat="33.352778552652744" lon="9.142954252178983"><ele>83.0</ele><time>2026-03-30T09:12:45Z</time></trkpt><trkpt lat="33.352633398006525" lon="9.143062228017477"><ele>83.0</ele><time>2026-03-30T09:12:46Z</time></trkpt><trkpt lat="33.35249576924948" lon="9.143165215459272"><ele>83.0</ele><time>2026-03-30T09:12:47Z</time></trkpt><trkpt lat="33.352365619958846" lon="9.143265536913004"><ele>83.33333333333334</ele><time>2026-03-30T09:12:48Z</time></trkpt><trkpt lat="33.35223265413512" lon="9.14337004196431"><ele>83.66666666666667</ele><time>2026-03-30T09:12:49Z</time></trkpt><trkpt lat="33.35209275373672" lon="9.143475765579616"><ele>84.0</ele><time>2026-03-30T09:12:50Z</time></trkpt><trkpt lat="33.35195591564843" lon="9.143582900808937"><ele>84.0</ele><time>2026-03-30T09:12:51Z</time></trkpt><trkpt lat="33.35182221855674" lon="9.143686490550811"><ele>84.0</ele><time>2026-03-30T09:12:52Z</time></trkpt><trkpt lat="33.3516869199294" lon="9.143793016030326"><ele>84.0</ele><time>2026-03-30T09:12:53Z</time></trkpt><trkpt lat="33.35155217710894" lon="9.14389824635814"><ele>84.0</ele><time>2026-03-30T09:12:54Z</time></trkpt><trkpt lat="33.35141746189138" lon="9.144008783880334"><ele>84.0</ele><time>2026-03-30T09:12:55Z</time></trkpt><trkpt lat="33.35128244488797" lon="9.144118052208446"><ele>84.0</ele><time>2026-03-30T09:12:56Z</time></trkpt><trkpt lat="33.351149879296756" lon="9.14422770761301"><ele>83.66666666666667</ele><time>2026-03-30T09:12:57Z</time></trkpt><trkpt lat="33.351019783387855" lon="9.144341043565863"><ele>83.33333333333334</ele><time>2026-03-30T09:12:58Z</time></trkpt><trkpt lat="33.35089149784309" lon="9.144456525300269"><ele>83.0</ele><time>2026-03-30T09:12:59Z</time></trkpt><trkpt lat="33.350768600199174" lon="9.144573067271187"><ele>83.0</ele><time>2026-03-30T09:13:00Z</time></trkpt><trkpt lat="33.35063940825455" lon="9.1446917592885"><ele>83.0</ele><time>2026-03-30T09:13:01Z</time></trkpt><trkpt lat="33.35050711103609" lon="9.144812245586271"><ele>83.0</ele><time>2026-03-30T09:13:02Z</time></trkpt><trkpt lat="33.35037737977242" lon="9.14492703678953"><ele>82.66666666666667</ele><time>2026-03-30T09:13:03Z</time></trkpt><trkpt lat="33.350245736959046" lon="9.145046772953744"><ele>82.33333333333333</ele><time>2026-03-30T09:13:04Z</time></trkpt><trkpt lat="33.35009908695194" lon="9.145178503082333"><ele>82.0</ele><time>2026-03-30T09:13:05Z</time></trkpt><trkpt lat="33.34995608571499" lon="9.145324742128102"><ele>82.0</ele><time>2026-03-30T09:13:06Z</time></trkpt><trkpt lat="33.34982691156104" lon="9.145461143662379"><ele>82.0</ele><time>2026-03-30T09:13:07Z</time></trkpt><trkpt lat="33.34969300510376" lon="9.14560626738917"><ele>82.0</ele><time>2026-03-30T09:13:08Z</time></trkpt><trkpt lat="33.34955701815385" lon="9.145759030918393"><ele>83.0</ele><time>2026-03-30T09:13:09Z</time></trkpt><trkpt lat="33.34941409257596" lon="9.145917839730746"><ele>84.0</ele><time>2026-03-30T09:13:10Z</time></trkpt><trkpt lat="33.349282090762735" lon="9.146064205457428"><ele>85.0</ele><time>2026-03-30T09:13:11Z</time></trkpt><trkpt lat="33.34915063257733" lon="9.146210951347557"><ele>85.0</ele><time>2026-03-30T09:13:12Z</time></trkpt><trkpt lat="33.34902604003081" lon="9.14634899246429"><ele>85.0</ele><time>2026-03-30T09:13:13Z</time></trkpt><trkpt lat="33.34890012573879" lon="9.146484736532477"><ele>85.0</ele><time>2026-03-30T09:13:14Z</time></trkpt><trkpt lat="33.34877726606605" lon="9.146618619020675"><ele>84.33333333333333</ele><time>2026-03-30T09:13:15Z</time></trkpt><trkpt lat="33.34865557263268" lon="9.146746094034603"><ele>83.66666666666667</ele><time>2026-03-30T09:13:16Z</time></trkpt><trkpt lat="33.34853267897507" lon="9.146879585208618"><ele>83.0</ele><time>2026-03-30T09:13:17Z</time></trkpt><trkpt lat="33.34841962976627" lon="9.147005396447137"><ele>83.0</ele><time>2026-03-30T09:13:18Z</time></trkpt><trkpt lat="33.34830054161301" lon="9.147141749364573"><ele>83.0</ele><time>2026-03-30T09:13:19Z</time></trkpt><trkpt lat="33.34817945890247" lon="9.147273988592616"><ele>83.0</ele><time>2026-03-30T09:13:20Z</time></trkpt><trkpt lat="33.34805977430286" lon="9.147406093071787"><ele>84.0</ele><time>2026-03-30T09:13:21Z</time></trkpt><trkpt lat="33.34793601032685" lon="9.147542804226985"><ele>85.0</ele><time>2026-03-30T09:13:22Z</time></trkpt><trkpt lat="33.347815857627616" lon="9.14767879806511"><ele>86.0</ele><time>2026-03-30T09:13:23Z</time></trkpt><trkpt lat="33.34769233425664" lon="9.147817392432767"><ele>86.0</ele><time>2026-03-30T09:13:24Z</time></trkpt><trkpt lat="33.347570768977135" lon="9.147952035419902"><ele>86.0</ele><time>2026-03-30T09:13:25Z</time></trkpt><trkpt lat="33.34744612937232" lon="9.148095157788957"><ele>86.0</ele><time>2026-03-30T09:13:26Z</time></trkpt><trkpt lat="33.347325869475966" lon="9.148230153354874"><ele>86.66666666666667</ele><time>2026-03-30T09:13:27Z</time></trkpt><trkpt lat="33.34719990483919" lon="9.148364807710239"><ele>87.33333333333333</ele><time>2026-03-30T09:13:28Z</time></trkpt><trkpt lat="33.347068658322065" lon="9.148499877200337"><ele>88.0</ele><time>2026-03-30T09:13:29Z</time></trkpt><trkpt lat="33.34694328576168" lon="9.148635087049712"><ele>88.0</ele><time>2026-03-30T09:13:30Z</time></trkpt><trkpt lat="33.34681231526635" lon="9.148773498942111"><ele>88.0</ele><time>2026-03-30T09:13:31Z</time></trkpt><trkpt lat="33.34668190916838" lon="9.148908957623007"><ele>88.0</ele><time>2026-03-30T09:13:32Z</time></trkpt><trkpt lat="33.34654945497728" lon="9.149049442125301"><ele>87.33333333333333</ele><time>2026-03-30T09:13:33Z</time></trkpt><trkpt lat="33.346420668299466" lon="9.14919141680839"><ele>86.66666666666667</ele><time>2026-03-30T09:13:34Z</time></trkpt><trkpt lat="33.346300581551006" lon="9.14933136290481"><ele>86.0</ele><time>2026-03-30T09:13:35Z</time></trkpt><trkpt lat="33.34617978411114" lon="9.149472040714175"><ele>86.66666666666667</ele><time>2026-03-30T09:13:36Z</time></trkpt><trkpt lat="33.34605308752414" lon="9.14961221822913"><ele>87.33333333333333</ele><time>2026-03-30T09:13:37Z</time></trkpt><trkpt lat="33.34592683529465" lon="9.14974929854715"><ele>88.0</ele><time>2026-03-30T09:13:38Z</time></trkpt><trkpt lat="33.345801627196145" lon="9.14988503376689"><ele>88.0</ele><time>2026-03-30T09:13:39Z</time></trkpt><trkpt lat="33.34567064347021" lon="9.150022662165826"><ele>88.0</ele><time>2026-03-30T09:13:40Z</time></trkpt><trkpt lat="33.345551551503696" lon="9.150158988888984"><ele>88.0</ele><time>2026-03-30T09:13:41Z</time></trkpt><trkpt lat="33.34543173878479" lon="9.150298049897193"><ele>87.33333333333333</ele><time>2026-03-30T09:13:42Z</time></trkpt><trkpt lat="33.34531672257702" lon="9.150435288000187"><ele>86.66666666666667</ele><time>2026-03-30T09:13:43Z</time></trkpt><trkpt lat="33.34519771493895" lon="9.150569944865127"><ele>86.0</ele><time>2026-03-30T09:13:44Z</time></trkpt><trkpt lat="33.34506826079033" lon="9.150704512755272"><ele>86.0</ele><time>2026-03-30T09:13:45Z</time></trkpt><trkpt lat="33.34493966550733" lon="9.150843936298635"><ele>86.0</ele><time>2026-03-30T09:13:46Z</time></trkpt><trkpt lat="33.34481489261255" lon="9.150978720037683"><ele>86.0</ele><time>2026-03-30T09:13:47Z</time></trkpt><trkpt lat="33.34469710152923" lon="9.151108980802942"><ele>85.0</ele><time>2026-03-30T09:13:48Z</time></trkpt><trkpt lat="33.34457093730194" lon="9.151244494321599"><ele>84.0</ele><time>2026-03-30T09:13:49Z</time></trkpt><trkpt lat="33.344449175173466" lon="9.151370326494108"><ele>83.0</ele><time>2026-03-30T09:13:50Z</time></trkpt><trkpt lat="33.34433421578621" lon="9.151496616603259"><ele>83.0</ele><time>2026-03-30T09:13:51Z</time></trkpt><trkpt lat="33.344223198892585" lon="9.151627346235612"><ele>83.0</ele><time>2026-03-30T09:13:52Z</time></trkpt><trkpt lat="33.34410616451889" lon="9.151760908299268"><ele>83.0</ele><time>2026-03-30T09:13:53Z</time></trkpt><trkpt lat="33.343988848413574" lon="9.15189292757673"><ele>84.0</ele><time>2026-03-30T09:13:54Z</time></trkpt><trkpt lat="33.34387038008661" lon="9.152023364579215"><ele>85.0</ele><time>2026-03-30T09:13:55Z</time></trkpt><trkpt lat="33.34375048014592" lon="9.152153940420733"><ele>86.0</ele><time>2026-03-30T09:13:56Z</time></trkpt><trkpt lat="33.34363426340576" lon="9.152284083227784"><ele>85.75</ele><time>2026-03-30T09:13:57Z</time></trkpt><trkpt lat="33.3435262115238" lon="9.15240509551009"><ele>85.5</ele><time>2026-03-30T09:13:58Z</time></trkpt><trkpt lat="33.34342328401858" lon="9.152518914293973"><ele>85.25</ele><time>2026-03-30T09:13:59Z</time></trkpt><trkpt lat="33.34331053978545" lon="9.152637796563498"><ele>85.0</ele><time>2026-03-30T09:14:00Z</time></trkpt><trkpt lat="33.34319222286285" lon="9.152768126514015"><ele>85.0</ele><time>2026-03-30T09:14:01Z</time></trkpt><trkpt lat="33.34307583353485" lon="9.152899727084577"><ele>85.0</ele><time>2026-03-30T09:14:02Z</time></trkpt><trkpt lat="33.3429562319271" lon="9.15302886588945"><ele>85.0</ele><time>2026-03-30T09:14:03Z</time></trkpt><trkpt lat="33.342834760066985" lon="9.153159713862294"><ele>85.66666666666666</ele><time>2026-03-30T09:14:04Z</time></trkpt><trkpt lat="33.342714268098696" lon="9.153287362975066"><ele>86.33333333333333</ele><time>2026-03-30T09:14:05Z</time></trkpt><trkpt lat="33.342588448492926" lon="9.15342478946824"><ele>87.0</ele><time>2026-03-30T09:14:05.999Z</time></trkpt><trkpt lat="33.34246395042294" lon="9.153557595125914"><ele>87.0</ele><time>2026-03-30T09:14:06.999Z</time></trkpt><trkpt lat="33.342333229318264" lon="9.15369663285782"><ele>87.0</ele><time>2026-03-30T09:14:07.999Z</time></trkpt><trkpt lat="33.34221117682871" lon="9.153831015906098"><ele>87.0</ele><time>2026-03-30T09:14:08.999Z</time></trkpt><trkpt lat="33.34209305728398" lon="9.153969392823413"><ele>86.33333333333333</ele><time>2026-03-30T09:14:09.999Z</time></trkpt><trkpt lat="33.34197818321718" lon="9.154097434030865"><ele>85.66666666666666</ele><time>2026-03-30T09:14:10.999Z</time></trkpt><trkpt lat="33.34185562661663" lon="9.154229707586016"><ele>85.0</ele><time>2026-03-30T09:14:11.999Z</time></trkpt><trkpt lat="33.341733711253816" lon="9.15436145760088"><ele>85.0</ele><time>2026-03-30T09:14:12.999Z</time></trkpt><trkpt lat="33.34162215201558" lon="9.154486136964762"><ele>85.0</ele><time>2026-03-30T09:14:13.999Z</time></trkpt><trkpt lat="33.3415015735907" lon="9.154617458251215"><ele>85.0</ele><time>2026-03-30T09:14:14.999Z</time></trkpt><trkpt lat="33.34138985222816" lon="9.154742901903422"><ele>84.66666666666666</ele><time>2026-03-30T09:14:15.999Z</time></trkpt><trkpt lat="33.34127653704235" lon="9.154864435015773"><ele>84.33333333333333</ele><time>2026-03-30T09:14:16.999Z</time></trkpt><trkpt lat="33.34116318608799" lon="9.154986348510931"><ele>84.0</ele><time>2026-03-30T09:14:17.999Z</time></trkpt><trkpt lat="33.34105566373198" lon="9.155107229255634"><ele>84.0</ele><time>2026-03-30T09:14:18.999Z</time></trkpt><trkpt lat="33.34094195054933" lon="9.15522743087818"><ele>84.0</ele><time>2026-03-30T09:14:19.999Z</time></trkpt><trkpt lat="33.340827807674735" lon="9.155352177975523"><ele>84.0</ele><time>2026-03-30T09:14:20.999Z</time></trkpt><trkpt lat="33.340716263946355" lon="9.155474192341007"><ele>84.0</ele><time>2026-03-30T09:14:21.999Z</time></trkpt><trkpt lat="33.3406044986729" lon="9.155592992873405"><ele>84.0</ele><time>2026-03-30T09:14:22.999Z</time></trkpt><trkpt lat="33.34049242267129" lon="9.15571913445082"><ele>84.0</ele><time>2026-03-30T09:14:23.999Z</time></trkpt><trkpt lat="33.34037681603497" lon="9.155844101131303"><ele>84.33333333333333</ele><time>2026-03-30T09:14:24.999Z</time></trkpt><trkpt lat="33.340268562850554" lon="9.155974668240757"><ele>84.66666666666666</ele><time>2026-03-30T09:14:25.999Z</time></trkpt><trkpt lat="33.34015423576258" lon="9.156106650713877"><ele>85.0</ele><time>2026-03-30T09:14:26.999Z</time></trkpt><trkpt lat="33.340037698597996" lon="9.15623295846876"><ele>85.0</ele><time>2026-03-30T09:14:27.999Z</time></trkpt><trkpt lat="33.339914989672145" lon="9.156357266365468"><ele>85.0</ele><time>2026-03-30T09:14:28.999Z</time></trkpt><trkpt lat="33.33979565233984" lon="9.156491331879911"><ele>85.0</ele><time>2026-03-30T09:14:29.999Z</time></trkpt><trkpt lat="33.33967367491687" lon="9.156621378421391"><ele>86.0</ele><time>2026-03-30T09:14:30.999Z</time></trkpt><trkpt lat="33.339552810841994" lon="9.156754991970306"><ele>87.0</ele><time>2026-03-30T09:14:31.999Z</time></trkpt><trkpt lat="33.3394268778865" lon="9.156887391024442"><ele>88.0</ele><time>2026-03-30T09:14:33.001Z</time></trkpt><trkpt lat="33.339301442539835" lon="9.157020022479283"><ele>88.0</ele><time>2026-03-30T09:14:34.001Z</time></trkpt><trkpt lat="33.33918189009624" lon="9.157152467242609"><ele>88.0</ele><time>2026-03-30T09:14:35.001Z</time></trkpt><trkpt lat="33.33906241754643" lon="9.157286490143736"><ele>88.0</ele><time>2026-03-30T09:14:36.001Z</time></trkpt><trkpt lat="33.33894889288591" lon="9.15742220774479"><ele>87.0</ele><time>2026-03-30T09:14:37.001Z</time></trkpt><trkpt lat="33.338825203199455" lon="9.157552063095334"><ele>86.0</ele><time>2026-03-30T09:14:38Z</time></trkpt><trkpt lat="33.33870415403169" lon="9.157686505806252"><ele>85.0</ele><time>2026-03-30T09:14:39.001Z</time></trkpt><trkpt lat="33.33858321197301" lon="9.157817595712201"><ele>85.0</ele><time>2026-03-30T09:14:40Z</time></trkpt><trkpt lat="33.33846412647321" lon="9.15794375603791"><ele>85.0</ele><time>2026-03-30T09:14:41Z</time></trkpt><trkpt lat="33.33834919690654" lon="9.158069329615829"><ele>85.0</ele><time>2026-03-30T09:14:42Z</time></trkpt><trkpt lat="33.33823754881696" lon="9.158192904374522"><ele>85.33333333333333</ele><time>2026-03-30T09:14:43Z</time></trkpt><trkpt lat="33.33812616431348" lon="9.15831635530784"><ele>85.66666666666667</ele><time>2026-03-30T09:14:44Z</time></trkpt><trkpt lat="33.33801079027772" lon="9.158444754019209"><ele>86.0</ele><time>2026-03-30T09:14:45Z</time></trkpt><trkpt lat="33.33789122622698" lon="9.15856862937653"><ele>86.0</ele><time>2026-03-30T09:14:46Z</time></trkpt><trkpt lat="33.337776415152995" lon="9.158690710315339"><ele>86.0</ele><time>2026-03-30T09:14:47Z</time></trkpt><trkpt lat="33.337662712788685" lon="9.158813315065055"><ele>86.0</ele><time>2026-03-30T09:14:48Z</time></trkpt><trkpt lat="33.33755491755871" lon="9.158935127725941"><ele>85.66666666666667</ele><time>2026-03-30T09:14:49Z</time></trkpt><trkpt lat="33.33744094623256" lon="9.15906077279615"><ele>85.33333333333333</ele><time>2026-03-30T09:14:50Z</time></trkpt><trkpt lat="33.33733062545838" lon="9.15918472482062"><ele>85.0</ele><time>2026-03-30T09:14:51Z</time></trkpt><trkpt lat="33.337222346334286" lon="9.15930486310861"><ele>84.75</ele><time>2026-03-30T09:14:52Z</time></trkpt><trkpt lat="33.33711989159071" lon="9.159424583301684"><ele>84.5</ele><time>2026-03-30T09:14:53Z</time></trkpt><trkpt lat="33.337010673967626" lon="9.159552560755166"><ele>84.25</ele><time>2026-03-30T09:14:54Z</time></trkpt><trkpt lat="33.33690713375847" lon="9.159679225832496"><ele>84.0</ele><time>2026-03-30T09:14:55Z</time></trkpt><trkpt lat="33.336803909314774" lon="9.159803522679434"><ele>84.0</ele><time>2026-03-30T09:14:56Z</time></trkpt><trkpt lat="33.336696187657544" lon="9.159925776634713"><ele>84.0</ele><time>2026-03-30T09:14:57Z</time></trkpt><trkpt lat="33.33659149199014" lon="9.160048415521949"><ele>84.0</ele><time>2026-03-30T09:14:58Z</time></trkpt><trkpt lat="33.336486679042864" lon="9.160170321989431"><ele>84.0</ele><time>2026-03-30T09:14:59Z</time></trkpt><trkpt lat="33.33637841078885" lon="9.160292954783676"><ele>84.0</ele><time>2026-03-30T09:15:00Z</time></trkpt><trkpt lat="33.33626963173501" lon="9.160424639687777"><ele>84.0</ele><time>2026-03-30T09:15:01Z</time></trkpt><trkpt lat="33.336162973168875" lon="9.160559337349707"><ele>84.0</ele><time>2026-03-30T09:15:02Z</time></trkpt><trkpt lat="33.33606386593118" lon="9.160695804004314"><ele>83.33333333333333</ele><time>2026-03-30T09:15:03Z</time></trkpt><trkpt lat="33.33596204311088" lon="9.160831153761142"><ele>82.66666666666666</ele><time>2026-03-30T09:15:04Z</time></trkpt><trkpt lat="33.33586267873577" lon="9.160972477546602"><ele>82.0</ele><time>2026-03-30T09:15:05Z</time></trkpt><trkpt lat="33.33575732740996" lon="9.161112387951151"><ele>82.0</ele><time>2026-03-30T09:15:06Z</time></trkpt><trkpt lat="33.3356548534888" lon="9.161249435376961"><ele>82.0</ele><time>2026-03-30T09:15:07Z</time></trkpt><trkpt lat="33.33555474782439" lon="9.161386890512938"><ele>82.0</ele><time>2026-03-30T09:15:08Z</time></trkpt><trkpt lat="33.33545428865051" lon="9.161523532462587"><ele>83.66666666666666</ele><time>2026-03-30T09:15:09Z</time></trkpt><trkpt lat="33.33535718413091" lon="9.16166361844132"><ele>85.33333333333333</ele><time>2026-03-30T09:15:10Z</time></trkpt><trkpt lat="33.33526350199812" lon="9.161805285678655"><ele>87.0</ele><time>2026-03-30T09:15:11Z</time></trkpt><trkpt lat="33.33516725963221" lon="9.161949221469966"><ele>87.0</ele><time>2026-03-30T09:15:12Z</time></trkpt><trkpt lat="33.33507919459593" lon="9.162087749587652"><ele>87.0</ele><time>2026-03-30T09:15:13Z</time></trkpt><trkpt lat="33.334994515424555" lon="9.162223018934514"><ele>87.0</ele><time>2026-03-30T09:15:14Z</time></trkpt><trkpt lat="33.33490184065224" lon="9.162367470325101"><ele>87.0</ele><time>2026-03-30T09:15:15Z</time></trkpt><trkpt lat="33.33481654424044" lon="9.16251188864288"><ele>87.66666666666667</ele><time>2026-03-30T09:15:16Z</time></trkpt><trkpt lat="33.334725446724505" lon="9.162668555772278"><ele>88.33333333333334</ele><time>2026-03-30T09:15:17Z</time></trkpt><trkpt lat="33.334630578676986" lon="9.162826174659186"><ele>89.0</ele><time>2026-03-30T09:15:18Z</time></trkpt><trkpt lat="33.33454074309575" lon="9.162985305734264"><ele>87.33333333333334</ele><time>2026-03-30T09:15:19Z</time></trkpt><trkpt lat="33.33445653756717" lon="9.163144795960422"><ele>85.66666666666667</ele><time>2026-03-30T09:15:20Z</time></trkpt><trkpt lat="33.334376660259736" lon="9.163298674280533"><ele>84.0</ele><time>2026-03-30T09:15:21Z</time></trkpt><trkpt lat="33.33429549520879" lon="9.16345322148564"><ele>84.0</ele><time>2026-03-30T09:15:22Z</time></trkpt><trkpt lat="33.33421772275385" lon="9.163603376789732"><ele>84.0</ele><time>2026-03-30T09:15:23Z</time></trkpt><trkpt lat="33.334138260385814" lon="9.16375765302702"><ele>84.0</ele><time>2026-03-30T09:15:24Z</time></trkpt><trkpt lat="33.33405736394299" lon="9.163910195675891"><ele>84.0</ele><time>2026-03-30T09:15:25Z</time></trkpt><trkpt lat="33.333975647864065" lon="9.164060418721649"><ele>84.0</ele><time>2026-03-30T09:15:26Z</time></trkpt><trkpt lat="33.33390222806115" lon="9.164215409262436"><ele>84.0</ele><time>2026-03-30T09:15:27Z</time></trkpt><trkpt lat="33.333827756002805" lon="9.164375975007443"><ele>84.33333333333333</ele><time>2026-03-30T09:15:28Z</time></trkpt><trkpt lat="33.33375747743024" lon="9.164538720462396"><ele>84.66666666666666</ele><time>2026-03-30T09:15:29Z</time></trkpt><trkpt lat="33.33368805033847" lon="9.164704098329064"><ele>85.0</ele><time>2026-03-30T09:15:30Z</time></trkpt><trkpt lat="33.333619004952446" lon="9.164864840889337"><ele>86.33333333333333</ele><time>2026-03-30T09:15:31Z</time></trkpt><trkpt lat="33.33355064425564" lon="9.165023480950504"><ele>87.66666666666667</ele><time>2026-03-30T09:15:32Z</time></trkpt><trkpt lat="33.333484646137165" lon="9.165186057930729"><ele>89.0</ele><time>2026-03-30T09:15:33Z</time></trkpt><trkpt lat="33.33341883748488" lon="9.165352443600241"><ele>89.0</ele><time>2026-03-30T09:15:34Z</time></trkpt><trkpt lat="33.333354621035625" lon="9.165519106904183"><ele>89.0</ele><time>2026-03-30T09:15:35Z</time></trkpt><trkpt lat="33.33329318783649" lon="9.165678471028535"><ele>89.0</ele><time>2026-03-30T09:15:36Z</time></trkpt><trkpt lat="33.333227859572126" lon="9.165841671299694"><ele>88.75</ele><time>2026-03-30T09:15:37Z</time></trkpt><trkpt lat="33.33317338807215" lon="9.166003597517607"><ele>88.5</ele><time>2026-03-30T09:15:38Z</time></trkpt><trkpt lat="33.333125241834836" lon="9.166165896725285"><ele>88.25</ele><time>2026-03-30T09:15:39Z</time></trkpt><trkpt lat="33.333075131121824" lon="9.16633239100846"><ele>88.0</ele><time>2026-03-30T09:15:40Z</time></trkpt><trkpt lat="33.33301943194024" lon="9.16649738293174"><ele>87.0</ele><time>2026-03-30T09:15:41Z</time></trkpt><trkpt lat="33.332960032562184" lon="9.16665903773886"><ele>86.0</ele><time>2026-03-30T09:15:42Z</time></trkpt><trkpt lat="33.33290581969487" lon="9.166820723929073"><ele>85.0</ele><time>2026-03-30T09:15:43Z</time></trkpt><trkpt lat="33.332851754215625" lon="9.166989950237511"><ele>84.0</ele><time>2026-03-30T09:15:44Z</time></trkpt><trkpt lat="33.33279085304135" lon="9.167170286502968"><ele>84.0</ele><time>2026-03-30T09:15:45Z</time></trkpt><trkpt lat="33.332730634576386" lon="9.167349723546845"><ele>84.0</ele><time>2026-03-30T09:15:46Z</time></trkpt><trkpt lat="33.332672767009335" lon="9.167530826980709"><ele>84.0</ele><time>2026-03-30T09:15:47Z</time></trkpt><trkpt lat="33.33261842483218" lon="9.167700327503123"><ele>83.5</ele><time>2026-03-30T09:15:48Z</time></trkpt><trkpt lat="33.33256202386144" lon="9.167866591980603"><ele>83.0</ele><time>2026-03-30T09:15:49Z</time></trkpt><trkpt lat="33.332507129067345" lon="9.1680247103614"><ele>82.5</ele><time>2026-03-30T09:15:50Z</time></trkpt><trkpt lat="33.332450527202234" lon="9.168183767398315"><ele>82.0</ele><time>2026-03-30T09:15:51Z</time></trkpt><trkpt lat="33.332394862024" lon="9.168342969208483"><ele>83.0</ele><time>2026-03-30T09:15:52Z</time></trkpt><trkpt lat="33.332341104570375" lon="9.168501909679236"><ele>84.0</ele><time>2026-03-30T09:15:53Z</time></trkpt><trkpt lat="33.33228754681085" lon="9.168659322808276"><ele>85.0</ele><time>2026-03-30T09:15:54Z</time></trkpt><trkpt lat="33.332234264014986" lon="9.168814094359757"><ele>86.0</ele><time>2026-03-30T09:15:55Z</time></trkpt><trkpt lat="33.33217799472985" lon="9.16897797091823"><ele>86.66666666666667</ele><time>2026-03-30T09:15:56Z</time></trkpt><trkpt lat="33.33211951773203" lon="9.16914615469621"><ele>87.33333333333333</ele><time>2026-03-30T09:15:57Z</time></trkpt><trkpt lat="33.33206183245375" lon="9.169314611196437"><ele>88.0</ele><time>2026-03-30T09:15:58Z</time></trkpt><trkpt lat="33.33200571503854" lon="9.169486799127908"><ele>88.0</ele><time>2026-03-30T09:15:59Z</time></trkpt><trkpt lat="33.331948107572025" lon="9.169656984449768"><ele>88.0</ele><time>2026-03-30T09:16:00Z</time></trkpt><trkpt lat="33.33189168870435" lon="9.169828493319681"><ele>88.0</ele><time>2026-03-30T09:16:01Z</time></trkpt><trkpt lat="33.331835272292054" lon="9.170001162393403"><ele>88.33333333333333</ele><time>2026-03-30T09:16:01.999Z</time></trkpt><trkpt lat="33.331773714228156" lon="9.170173342990498"><ele>88.66666666666667</ele><time>2026-03-30T09:16:02.999Z</time></trkpt><trkpt lat="33.33171426576739" lon="9.17033305983253"><ele>89.0</ele><time>2026-03-30T09:16:03.999Z</time></trkpt><trkpt lat="33.331655650981496" lon="9.170496949612957"><ele>89.0</ele><time>2026-03-30T09:16:04.999Z</time></trkpt><trkpt lat="33.33160018058641" lon="9.170668632667674"><ele>89.0</ele><time>2026-03-30T09:16:05.999Z</time></trkpt><trkpt lat="33.3315475833424" lon="9.170825548210306"><ele>89.0</ele><time>2026-03-30T09:16:06.999Z</time></trkpt><trkpt lat="33.33149213457366" lon="9.170993516188968"><ele>89.0</ele><time>2026-03-30T09:16:07.999Z</time></trkpt><trkpt lat="33.331436558217725" lon="9.171153795202452"><ele>89.0</ele><time>2026-03-30T09:16:08.999Z</time></trkpt><trkpt lat="33.331380788719066" lon="9.171315430876364"><ele>89.0</ele><time>2026-03-30T09:16:09.999Z</time></trkpt><trkpt lat="33.33132618100471" lon="9.17147593108373"><ele>89.0</ele><time>2026-03-30T09:16:10.999Z</time></trkpt><trkpt lat="33.331274041588294" lon="9.171631968746627"><ele>89.0</ele><time>2026-03-30T09:16:11.999Z</time></trkpt><trkpt lat="33.3312211286138" lon="9.17178862260609"><ele>89.0</ele><time>2026-03-30T09:16:12.999Z</time></trkpt><trkpt lat="33.33116646459627" lon="9.171948801432368"><ele>89.0</ele><time>2026-03-30T09:16:13.999Z</time></trkpt><trkpt lat="33.33111214775582" lon="9.172116102877892"><ele>89.0</ele><time>2026-03-30T09:16:14.999Z</time></trkpt><trkpt lat="33.33105518813324" lon="9.17227755988957"><ele>89.0</ele><time>2026-03-30T09:16:15.999Z</time></trkpt><trkpt lat="33.330997291151114" lon="9.17244126307781"><ele>89.0</ele><time>2026-03-30T09:16:16.999Z</time></trkpt><trkpt lat="33.33093920355762" lon="9.172597692314556"><ele>89.0</ele><time>2026-03-30T09:16:17.999Z</time></trkpt><trkpt lat="33.33088095734359" lon="9.172758541203834"><ele>89.0</ele><time>2026-03-30T09:16:18.999Z</time></trkpt><trkpt lat="33.33081841360738" lon="9.172906656060498"><ele>89.0</ele><time>2026-03-30T09:16:19.999Z</time></trkpt><trkpt lat="33.33075950476732" lon="9.173062078928353"><ele>89.0</ele><time>2026-03-30T09:16:20.999Z</time></trkpt><trkpt lat="33.33069528580085" lon="9.173225994054505"><ele>89.0</ele><time>2026-03-30T09:16:21.999Z</time></trkpt><trkpt lat="33.33063389524166" lon="9.173388579577807"><ele>89.0</ele><time>2026-03-30T09:16:22.999Z</time></trkpt><trkpt lat="33.33057828629273" lon="9.173545284395757"><ele>89.0</ele><time>2026-03-30T09:16:23.999Z</time></trkpt><trkpt lat="33.33051640941914" lon="9.173706218895903"><ele>89.0</ele><time>2026-03-30T09:16:24.999Z</time></trkpt><trkpt lat="33.33044604035255" lon="9.173867368295598"><ele>89.0</ele><time>2026-03-30T09:16:25.999Z</time></trkpt><trkpt lat="33.33037513945778" lon="9.174024837365293"><ele>89.0</ele><time>2026-03-30T09:16:26.999Z</time></trkpt><trkpt lat="33.330301409595066" lon="9.174186210572445"><ele>88.0</ele><time>2026-03-30T09:16:27.999Z</time></trkpt><trkpt lat="33.33022630006432" lon="9.174348765204288"><ele>87.0</ele><time>2026-03-30T09:16:28.999Z</time></trkpt><trkpt lat="33.330152850255665" lon="9.174507294799676"><ele>86.0</ele><time>2026-03-30T09:16:29.999Z</time></trkpt><trkpt lat="33.330077664477685" lon="9.174655842376106"><ele>86.0</ele><time>2026-03-30T09:16:30.999Z</time></trkpt><trkpt lat="33.33000093539806" lon="9.174799047843054"><ele>86.0</ele><time>2026-03-30T09:16:31.999Z</time></trkpt><trkpt lat="33.32992010638381" lon="9.174944389156433"><ele>86.0</ele><time>2026-03-30T09:16:32.999Z</time></trkpt><trkpt lat="33.32984103504309" lon="9.17509108507131"><ele>86.0</ele><time>2026-03-30T09:16:33.999Z</time></trkpt><trkpt lat="33.32976004656414" lon="9.175238295574351"><ele>86.66666666666667</ele><time>2026-03-30T09:16:34.999Z</time></trkpt><trkpt lat="33.329677667667866" lon="9.175396110276763"><ele>87.33333333333333</ele><time>2026-03-30T09:16:35.999Z</time></trkpt><trkpt lat="33.329594756681196" lon="9.17556127897698"><ele>88.0</ele><time>2026-03-30T09:16:36.999Z</time></trkpt><trkpt lat="33.32951511055469" lon="9.175719320589542"><ele>86.66666666666666</ele><time>2026-03-30T09:16:37.999Z</time></trkpt><trkpt lat="33.329434307887" lon="9.175884679330643"><ele>85.33333333333333</ele><time>2026-03-30T09:16:39Z</time></trkpt><trkpt lat="33.32935461319492" lon="9.176039670746832"><ele>84.0</ele><time>2026-03-30T09:16:40Z</time></trkpt><trkpt lat="33.32926968289078" lon="9.176188948539176"><ele>84.0</ele><time>2026-03-30T09:16:41Z</time></trkpt><trkpt lat="33.329183432905076" lon="9.1763361453636"><ele>84.0</ele><time>2026-03-30T09:16:42Z</time></trkpt><trkpt lat="33.3290929390758" lon="9.176480629234462"><ele>84.0</ele><time>2026-03-30T09:16:43Z</time></trkpt><trkpt lat="33.32900416639044" lon="9.176624180452613"><ele>83.66666666666667</ele><time>2026-03-30T09:16:44Z</time></trkpt><trkpt lat="33.32890639452333" lon="9.176777097722645"><ele>83.33333333333334</ele><time>2026-03-30T09:16:45Z</time></trkpt><trkpt lat="33.32881408314625" lon="9.176919004204686"><ele>83.0</ele><time>2026-03-30T09:16:46Z</time></trkpt><trkpt lat="33.32872159116457" lon="9.177072268699334"><ele>84.0</ele><time>2026-03-30T09:16:47Z</time></trkpt><trkpt lat="33.32862265232791" lon="9.17722063306398"><ele>85.0</ele><time>2026-03-30T09:16:48Z</time></trkpt><trkpt lat="33.32851590694501" lon="9.177380324112196"><ele>86.0</ele><time>2026-03-30T09:16:49Z</time></trkpt><trkpt lat="33.32841515969837" lon="9.177526281824155"><ele>87.66666666666667</ele><time>2026-03-30T09:16:50Z</time></trkpt><trkpt lat="33.32831872883202" lon="9.17766202376069"><ele>89.33333333333333</ele><time>2026-03-30T09:16:51Z</time></trkpt><trkpt lat="33.328217560415766" lon="9.177799277831351"><ele>91.0</ele><time>2026-03-30T09:16:52Z</time></trkpt><trkpt lat="33.32811568463024" lon="9.177935983514242"><ele>91.0</ele><time>2026-03-30T09:16:53Z</time></trkpt><trkpt lat="33.32801180759699" lon="9.178073371565329"><ele>91.0</ele><time>2026-03-30T09:16:54Z</time></trkpt><trkpt lat="33.327906033201174" lon="9.178211270150126"><ele>91.0</ele><time>2026-03-30T09:16:55Z</time></trkpt><trkpt lat="33.32780225966947" lon="9.178353771379927"><ele>91.0</ele><time>2026-03-30T09:16:56Z</time></trkpt><trkpt lat="33.3277011291259" lon="9.178496579429721"><ele>91.0</ele><time>2026-03-30T09:16:57Z</time></trkpt><trkpt lat="33.32760267032938" lon="9.17863364536131"><ele>91.0</ele><time>2026-03-30T09:16:58Z</time></trkpt><trkpt lat="33.32750318499561" lon="9.178763014465245"><ele>91.0</ele><time>2026-03-30T09:16:59Z</time></trkpt><trkpt lat="33.32739650168332" lon="9.178896402291631"><ele>91.0</ele><time>2026-03-30T09:17:00Z</time></trkpt><trkpt lat="33.327282085721244" lon="9.179028904855913"><ele>91.0</ele><time>2026-03-30T09:17:01Z</time></trkpt><trkpt lat="33.327167749816276" lon="9.179165827495925"><ele>91.33333333333333</ele><time>2026-03-30T09:17:02Z</time></trkpt><trkpt lat="33.32705024781295" lon="9.179295713519185"><ele>91.66666666666667</ele><time>2026-03-30T09:17:03Z</time></trkpt><trkpt lat="33.32693497231634" lon="9.179420897162467"><ele>92.0</ele><time>2026-03-30T09:17:04Z</time></trkpt><trkpt lat="33.32681510394127" lon="9.179552007308121"><ele>92.0</ele><time>2026-03-30T09:17:05Z</time></trkpt><trkpt lat="33.32669837910412" lon="9.179678990414363"><ele>92.0</ele><time>2026-03-30T09:17:06Z</time></trkpt><trkpt lat="33.32657750188786" lon="9.17980450527694"><ele>92.0</ele><time>2026-03-30T09:17:07Z</time></trkpt><trkpt lat="33.32646007079939" lon="9.179936386851711"><ele>91.66666666666667</ele><time>2026-03-30T09:17:08Z</time></trkpt><trkpt lat="33.32634224768611" lon="9.180062076224575"><ele>91.33333333333333</ele><time>2026-03-30T09:17:09Z</time></trkpt><trkpt lat="33.32622707474745" lon="9.18018966293544"><ele>91.0</ele><time>2026-03-30T09:17:10Z</time></trkpt><trkpt lat="33.32611011828904" lon="9.180309581104243"><ele>91.0</ele><time>2026-03-30T09:17:11Z</time></trkpt><trkpt lat="33.32599213580607" lon="9.180430291591067"><ele>91.0</ele><time>2026-03-30T09:17:12Z</time></trkpt><trkpt lat="33.325879743176365" lon="9.180553092066733"><ele>91.0</ele><time>2026-03-30T09:17:13Z</time></trkpt><trkpt lat="33.32576268621444" lon="9.180677612310802"><ele>91.0</ele><time>2026-03-30T09:17:14Z</time></trkpt><trkpt lat="33.325649479562685" lon="9.180800067995136"><ele>91.0</ele><time>2026-03-30T09:17:15Z</time></trkpt><trkpt lat="33.32552605707012" lon="9.180921086029999"><ele>91.0</ele><time>2026-03-30T09:17:16Z</time></trkpt><trkpt lat="33.32540755998933" lon="9.181041330453908"><ele>91.0</ele><time>2026-03-30T09:17:17Z</time></trkpt><trkpt lat="33.32528150969725" lon="9.181164483879458"><ele>91.0</ele><time>2026-03-30T09:17:18Z</time></trkpt><trkpt lat="33.325157430649675" lon="9.181287530607946"><ele>91.0</ele><time>2026-03-30T09:17:19Z</time></trkpt><trkpt lat="33.32503704235361" lon="9.181417682589924"><ele>91.0</ele><time>2026-03-30T09:17:20Z</time></trkpt><trkpt lat="33.324917794376894" lon="9.181544752878159"><ele>91.0</ele><time>2026-03-30T09:17:21Z</time></trkpt><trkpt lat="33.32479430448026" lon="9.18167692925961"><ele>91.0</ele><time>2026-03-30T09:17:22Z</time></trkpt><trkpt lat="33.32467364023743" lon="9.18180483045244"><ele>91.0</ele><time>2026-03-30T09:17:23Z</time></trkpt><trkpt lat="33.324551222970086" lon="9.181937307739766"><ele>91.0</ele><time>2026-03-30T09:17:24Z</time></trkpt><trkpt lat="33.32442982830567" lon="9.182065314824388"><ele>91.0</ele><time>2026-03-30T09:17:25Z</time></trkpt><trkpt lat="33.324302396352" lon="9.182195956588608"><ele>91.0</ele><time>2026-03-30T09:17:26Z</time></trkpt><trkpt lat="33.32417929265637" lon="9.182326101573548"><ele>91.0</ele><time>2026-03-30T09:17:27Z</time></trkpt><trkpt lat="33.32405183016835" lon="9.182458974097937"><ele>91.0</ele><time>2026-03-30T09:17:28Z</time></trkpt><trkpt lat="33.32392554610303" lon="9.182593647868945"><ele>90.33333333333333</ele><time>2026-03-30T09:17:29Z</time></trkpt><trkpt lat="33.32379051168394" lon="9.182731065864106"><ele>89.66666666666667</ele><time>2026-03-30T09:17:30Z</time></trkpt><trkpt lat="33.32366604535556" lon="9.182858249764882"><ele>89.0</ele><time>2026-03-30T09:17:31Z</time></trkpt><trkpt lat="33.323536872519426" lon="9.18298814654859"><ele>89.0</ele><time>2026-03-30T09:17:32Z</time></trkpt><trkpt lat="33.32341602773384" lon="9.18311538032843"><ele>89.0</ele><time>2026-03-30T09:17:33Z</time></trkpt><trkpt lat="33.32329236428494" lon="9.183242404999053"><ele>89.0</ele><time>2026-03-30T09:17:34Z</time></trkpt><trkpt lat="33.32316658146262" lon="9.183371551141004"><ele>89.0</ele><time>2026-03-30T09:17:35Z</time></trkpt><trkpt lat="33.32304496278" lon="9.183501064611216"><ele>89.0</ele><time>2026-03-30T09:17:36Z</time></trkpt><trkpt lat="33.32292499302269" lon="9.18362824933554"><ele>89.0</ele><time>2026-03-30T09:17:37Z</time></trkpt><trkpt lat="33.322802459442556" lon="9.183746008223936"><ele>89.0</ele><time>2026-03-30T09:17:38Z</time></trkpt><trkpt lat="33.32268022344228" lon="9.183871291563934"><ele>89.0</ele><time>2026-03-30T09:17:39Z</time></trkpt><trkpt lat="33.32255654409941" lon="9.183997448895587"><ele>89.0</ele><time>2026-03-30T09:17:40Z</time></trkpt><trkpt lat="33.32243466836982" lon="9.184120907691"><ele>89.66666666666667</ele><time>2026-03-30T09:17:41Z</time></trkpt><trkpt lat="33.322314877510905" lon="9.184243912849407"><ele>90.33333333333333</ele><time>2026-03-30T09:17:42Z</time></trkpt><trkpt lat="33.32218889554347" lon="9.184366391153377"><ele>91.0</ele><time>2026-03-30T09:17:43Z</time></trkpt><trkpt lat="33.32206525962984" lon="9.184488467324043"><ele>91.0</ele><time>2026-03-30T09:17:44Z</time></trkpt><trkpt lat="33.32194645276233" lon="9.184612447629139"><ele>91.0</ele><time>2026-03-30T09:17:45Z</time></trkpt><trkpt lat="33.32183020677903" lon="9.184739743997374"><ele>91.0</ele><time>2026-03-30T09:17:46Z</time></trkpt><trkpt lat="33.321710392738545" lon="9.184859940797551"><ele>91.0</ele><time>2026-03-30T09:17:47Z</time></trkpt><trkpt lat="33.32158897525625" lon="9.184976419846635"><ele>91.0</ele><time>2026-03-30T09:17:48Z</time></trkpt><trkpt lat="33.321463914036414" lon="9.185099316889389"><ele>91.0</ele><time>2026-03-30T09:17:49Z</time></trkpt><trkpt lat="33.32134741691826" lon="9.185224832158363"><ele>90.33333333333333</ele><time>2026-03-30T09:17:49.999Z</time></trkpt><trkpt lat="33.32122840381524" lon="9.185347164564792"><ele>89.66666666666667</ele><time>2026-03-30T09:17:50.999Z</time></trkpt><trkpt lat="33.3211100833939" lon="9.185471283514465"><ele>89.0</ele><time>2026-03-30T09:17:51.999Z</time></trkpt><trkpt lat="33.32099406265131" lon="9.185597730695513"><ele>89.66666666666667</ele><time>2026-03-30T09:17:52.999Z</time></trkpt><trkpt lat="33.32087006750767" lon="9.185725231471347"><ele>90.33333333333333</ele><time>2026-03-30T09:17:53.999Z</time></trkpt><trkpt lat="33.32074723757697" lon="9.185852056353417"><ele>91.0</ele><time>2026-03-30T09:17:54.999Z</time></trkpt><trkpt lat="33.32063005098753" lon="9.18598275086454"><ele>91.66666666666666</ele><time>2026-03-30T09:17:55.999Z</time></trkpt><trkpt lat="33.32051231156268" lon="9.186104433319432"><ele>92.33333333333333</ele><time>2026-03-30T09:17:56.999Z</time></trkpt><trkpt lat="33.320389941182235" lon="9.186235155807147"><ele>93.0</ele><time>2026-03-30T09:17:57.999Z</time></trkpt><trkpt lat="33.32026797102086" lon="9.186365664984606"><ele>93.0</ele><time>2026-03-30T09:17:58.999Z</time></trkpt><trkpt lat="33.32014137029765" lon="9.186493005232956"><ele>93.0</ele><time>2026-03-30T09:17:59.999Z</time></trkpt><trkpt lat="33.320018254291206" lon="9.186617965774206"><ele>93.0</ele><time>2026-03-30T09:18:00.999Z</time></trkpt><trkpt lat="33.31989197621211" lon="9.186741426308458"><ele>93.0</ele><time>2026-03-30T09:18:01.999Z</time></trkpt><trkpt lat="33.319767635926404" lon="9.186868066198842"><ele>93.0</ele><time>2026-03-30T09:18:02.999Z</time></trkpt><trkpt lat="33.31964515059498" lon="9.186994239944664"><ele>93.0</ele><time>2026-03-30T09:18:03.999Z</time></trkpt><trkpt lat="33.31952632168922" lon="9.187124344622317"><ele>93.66666666666667</ele><time>2026-03-30T09:18:04.999Z</time></trkpt><trkpt lat="33.319399323269316" lon="9.187251085315731"><ele>94.33333333333334</ele><time>2026-03-30T09:18:05.999Z</time></trkpt><trkpt lat="33.31927410864803" lon="9.18737606231636"><ele>95.0</ele><time>2026-03-30T09:18:06.999Z</time></trkpt><trkpt lat="33.319150323274336" lon="9.18750784123237"><ele>93.66666666666667</ele><time>2026-03-30T09:18:07.999Z</time></trkpt><trkpt lat="33.319035189839916" lon="9.187639750440743"><ele>92.33333333333333</ele><time>2026-03-30T09:18:08.999Z</time></trkpt><trkpt lat="33.318910985374195" lon="9.187771251871032"><ele>91.0</ele><time>2026-03-30T09:18:09.999Z</time></trkpt><trkpt lat="33.318789754300155" lon="9.187905406519999"><ele>91.0</ele><time>2026-03-30T09:18:10.999Z</time></trkpt><trkpt lat="33.31866987672318" lon="9.1880332918952"><ele>91.0</ele><time>2026-03-30T09:18:11.999Z</time></trkpt><trkpt lat="33.318547527443414" lon="9.188166191790383"><ele>91.0</ele><time>2026-03-30T09:18:12.999Z</time></trkpt><trkpt lat="33.31841943016847" lon="9.18830152252824"><ele>91.0</ele><time>2026-03-30T09:18:13.999Z</time></trkpt><trkpt lat="33.318291021215295" lon="9.188432985551904"><ele>91.0</ele><time>2026-03-30T09:18:14.999Z</time></trkpt><trkpt lat="33.318160717163316" lon="9.188562575683676"><ele>91.0</ele><time>2026-03-30T09:18:15.999Z</time></trkpt><trkpt lat="33.318028175012955" lon="9.188688932490603"><ele>90.66666666666666</ele><time>2026-03-30T09:18:16.999Z</time></trkpt><trkpt lat="33.31789747331501" lon="9.188819119309105"><ele>90.33333333333333</ele><time>2026-03-30T09:18:17.999Z</time></trkpt><trkpt lat="33.317772319869036" lon="9.188947559046097"><ele>90.0</ele><time>2026-03-30T09:18:18.999Z</time></trkpt><trkpt lat="33.317641176132085" lon="9.189082455070155"><ele>90.0</ele><time>2026-03-30T09:18:19.999Z</time></trkpt><trkpt lat="33.31751319933977" lon="9.189220248068843"><ele>90.0</ele><time>2026-03-30T09:18:20.999Z</time></trkpt><trkpt lat="33.317379945596976" lon="9.189346966430032"><ele>90.0</ele><time>2026-03-30T09:18:21.999Z</time></trkpt><trkpt lat="33.31724613948549" lon="9.189479754256322"><ele>90.0</ele><time>2026-03-30T09:18:22.999Z</time></trkpt><trkpt lat="33.317116533083734" lon="9.18961249667609"><ele>90.0</ele><time>2026-03-30T09:18:23.999Z</time></trkpt><trkpt lat="33.316989670468274" lon="9.189753595527101"><ele>90.0</ele><time>2026-03-30T09:18:24.999Z</time></trkpt><trkpt lat="33.31687282270031" lon="9.189895737723027"><ele>90.33333333333333</ele><time>2026-03-30T09:18:25.999Z</time></trkpt><trkpt lat="33.316741455549014" lon="9.190027813382933"><ele>90.66666666666666</ele><time>2026-03-30T09:18:26.999Z</time></trkpt><trkpt lat="33.31661210259545" lon="9.190151998666598"><ele>91.0</ele><time>2026-03-30T09:18:27.999Z</time></trkpt><trkpt lat="33.316488000872305" lon="9.190281168889264"><ele>90.66666666666666</ele><time>2026-03-30T09:18:28.999Z</time></trkpt><trkpt lat="33.316366189352934" lon="9.190407613970917"><ele>90.33333333333333</ele><time>2026-03-30T09:18:29.999Z</time></trkpt><trkpt lat="33.31624515466667" lon="9.190529838581416"><ele>90.0</ele><time>2026-03-30T09:18:30.999Z</time></trkpt><trkpt lat="33.316124845587154" lon="9.19065890391659"><ele>90.33333333333333</ele><time>2026-03-30T09:18:31.999Z</time></trkpt><trkpt lat="33.316004298217564" lon="9.190786324887394"><ele>90.66666666666666</ele><time>2026-03-30T09:18:32.999Z</time></trkpt><trkpt lat="33.31588552806502" lon="9.190912744419547"><ele>91.0</ele><time>2026-03-30T09:18:33.999Z</time></trkpt><trkpt lat="33.315760830089864" lon="9.191036903141994"><ele>91.0</ele><time>2026-03-30T09:18:34.999Z</time></trkpt><trkpt lat="33.31564085468013" lon="9.191161524524178"><ele>91.0</ele><time>2026-03-30T09:18:35.999Z</time></trkpt><trkpt lat="33.31552066233022" lon="9.191285082288102"><ele>91.0</ele><time>2026-03-30T09:18:36.999Z</time></trkpt><trkpt lat="33.315400338872806" lon="9.191414529859978"><ele>90.66666666666666</ele><time>2026-03-30T09:18:37.999Z</time></trkpt><trkpt lat="33.31527393932164" lon="9.1915400544954"><ele>90.33333333333333</ele><time>2026-03-30T09:18:38.999Z</time></trkpt><trkpt lat="33.31514834725222" lon="9.191668350650259"><ele>90.0</ele><time>2026-03-30T09:18:39.999Z</time></trkpt><trkpt lat="33.31503129336577" lon="9.191800690706932"><ele>90.0</ele><time>2026-03-30T09:18:40.999Z</time></trkpt><trkpt lat="33.314905484435094" lon="9.191924455518853"><ele>90.0</ele><time>2026-03-30T09:18:41.999Z</time></trkpt><trkpt lat="33.314791615283944" lon="9.192047234013362"><ele>90.0</ele><time>2026-03-30T09:18:42.999Z</time></trkpt><trkpt lat="33.314676219041175" lon="9.192170210718118"><ele>90.0</ele><time>2026-03-30T09:18:43.999Z</time></trkpt><trkpt lat="33.314554044807856" lon="9.192299891927671"><ele>90.0</ele><time>2026-03-30T09:18:45Z</time></trkpt><trkpt lat="33.314429617052255" lon="9.192430559554465"><ele>90.0</ele><time>2026-03-30T09:18:46Z</time></trkpt><trkpt lat="33.31430351193761" lon="9.192559259491166"><ele>90.33333333333333</ele><time>2026-03-30T09:18:47Z</time></trkpt><trkpt lat="33.31417609736469" lon="9.192684902968557"><ele>90.66666666666666</ele><time>2026-03-30T09:18:48Z</time></trkpt><trkpt lat="33.3140527917649" lon="9.192812557444533"><ele>91.0</ele><time>2026-03-30T09:18:49Z</time></trkpt><trkpt lat="33.313926371212396" lon="9.192938678926966"><ele>91.33333333333333</ele><time>2026-03-30T09:18:50Z</time></trkpt><trkpt lat="33.31380359270969" lon="9.193064610854277"><ele>91.66666666666667</ele><time>2026-03-30T09:18:51Z</time></trkpt><trkpt lat="33.31367887423046" lon="9.193193081059613"><ele>92.0</ele><time>2026-03-30T09:18:52Z</time></trkpt><trkpt lat="33.31355450557916" lon="9.193324975919744"><ele>92.0</ele><time>2026-03-30T09:18:53Z</time></trkpt><trkpt lat="33.313428914875445" lon="9.193454080622484"><ele>92.0</ele><time>2026-03-30T09:18:54Z</time></trkpt><trkpt lat="33.31330685761423" lon="9.193582554344877"><ele>92.0</ele><time>2026-03-30T09:18:55Z</time></trkpt><trkpt lat="33.31317805497263" lon="9.193710711651693"><ele>91.66666666666667</ele><time>2026-03-30T09:18:56Z</time></trkpt><trkpt lat="33.31304860438505" lon="9.193842133004043"><ele>91.33333333333333</ele><time>2026-03-30T09:18:57Z</time></trkpt><trkpt lat="33.312920385238144" lon="9.193975931106523"><ele>91.0</ele><time>2026-03-30T09:18:58Z</time></trkpt><trkpt lat="33.312797016406044" lon="9.19411273618465"><ele>91.0</ele><time>2026-03-30T09:18:59Z</time></trkpt><trkpt lat="33.31266193161907" lon="9.194259166283363"><ele>91.0</ele><time>2026-03-30T09:19:00Z</time></trkpt><trkpt lat="33.3125290915933" lon="9.194394656685722"><ele>91.0</ele><time>2026-03-30T09:19:01Z</time></trkpt><trkpt lat="33.31239468487105" lon="9.194527531597855"><ele>91.0</ele><time>2026-03-30T09:19:02Z</time></trkpt><trkpt lat="33.312267331407895" lon="9.194655878769478"><ele>91.0</ele><time>2026-03-30T09:19:03Z</time></trkpt><trkpt lat="33.312132413162594" lon="9.19478530384002"><ele>91.0</ele><time>2026-03-30T09:19:04Z</time></trkpt><trkpt lat="33.31200572583136" lon="9.194908938147245"><ele>90.0</ele><time>2026-03-30T09:19:05Z</time></trkpt><trkpt lat="33.311875556154085" lon="9.195036723742374"><ele>89.0</ele><time>2026-03-30T09:19:06Z</time></trkpt><trkpt lat="33.311744337766775" lon="9.195161644744209"><ele>88.0</ele><time>2026-03-30T09:19:07Z</time></trkpt><trkpt lat="33.311614171868094" lon="9.195290840783326"><ele>88.0</ele><time>2026-03-30T09:19:08Z</time></trkpt><trkpt lat="33.31148460628323" lon="9.195417376632909"><ele>88.0</ele><time>2026-03-30T09:19:09Z</time></trkpt><trkpt lat="33.31135939630392" lon="9.195541397819795"><ele>88.0</ele><time>2026-03-30T09:19:10Z</time></trkpt><trkpt lat="33.3112363728606" lon="9.195670856009645"><ele>88.33333333333333</ele><time>2026-03-30T09:19:11Z</time></trkpt><trkpt lat="33.31112127527913" lon="9.195793259381864"><ele>88.66666666666667</ele><time>2026-03-30T09:19:12Z</time></trkpt><trkpt lat="33.31099422883278" lon="9.195926948041901"><ele>89.0</ele><time>2026-03-30T09:19:13Z</time></trkpt><trkpt lat="33.3108704292547" lon="9.19605966373791"><ele>89.0</ele><time>2026-03-30T09:19:14Z</time></trkpt><trkpt lat="33.31073873891429" lon="9.196202456132989"><ele>89.0</ele><time>2026-03-30T09:19:15Z</time></trkpt><trkpt lat="33.31061585937912" lon="9.196333416179673"><ele>89.0</ele><time>2026-03-30T09:19:16Z</time></trkpt><trkpt lat="33.31048354453515" lon="9.196465350305086"><ele>89.66666666666667</ele><time>2026-03-30T09:19:17Z</time></trkpt><trkpt lat="33.3103516624473" lon="9.196595608281179"><ele>90.33333333333333</ele><time>2026-03-30T09:19:18Z</time></trkpt><trkpt lat="33.310222190355624" lon="9.196725004121113"><ele>91.0</ele><time>2026-03-30T09:19:19Z</time></trkpt><trkpt lat="33.310093336718765" lon="9.196853748242654"><ele>91.0</ele><time>2026-03-30T09:19:20Z</time></trkpt><trkpt lat="33.309962029382405" lon="9.196981437779682"><ele>91.0</ele><time>2026-03-30T09:19:21Z</time></trkpt><trkpt lat="33.30983528985911" lon="9.197109560981325"><ele>91.0</ele><time>2026-03-30T09:19:22Z</time></trkpt><trkpt lat="33.309705047694784" lon="9.197241397903339"><ele>92.0</ele><time>2026-03-30T09:19:23Z</time></trkpt><trkpt lat="33.30957763244115" lon="9.197364618512676"><ele>93.0</ele><time>2026-03-30T09:19:24Z</time></trkpt><trkpt lat="33.309441252872695" lon="9.197489103465575"><ele>94.0</ele><time>2026-03-30T09:19:25Z</time></trkpt><trkpt lat="33.30930452091016" lon="9.19760551800041"><ele>94.0</ele><time>2026-03-30T09:19:26Z</time></trkpt><trkpt lat="33.30916636084859" lon="9.197719348618827"><ele>94.0</ele><time>2026-03-30T09:19:27Z</time></trkpt><trkpt lat="33.30902919143576" lon="9.197830831436029"><ele>94.0</ele><time>2026-03-30T09:19:28Z</time></trkpt><trkpt lat="33.30890195443458" lon="9.197942640789709"><ele>93.33333333333333</ele><time>2026-03-30T09:19:29Z</time></trkpt><trkpt lat="33.308766721978124" lon="9.198058253958564"><ele>92.66666666666667</ele><time>2026-03-30T09:19:30Z</time></trkpt><trkpt lat="33.30862968720034" lon="9.198173601793737"><ele>92.0</ele><time>2026-03-30T09:19:31Z</time></trkpt><trkpt lat="33.30849009899578" lon="9.198289573613675"><ele>92.0</ele><time>2026-03-30T09:19:32Z</time></trkpt><trkpt lat="33.30835291104776" lon="9.198403317808957"><ele>92.0</ele><time>2026-03-30T09:19:33Z</time></trkpt><trkpt lat="33.308209105270805" lon="9.198519043559608"><ele>92.0</ele><time>2026-03-30T09:19:34Z</time></trkpt><trkpt lat="33.308076164410174" lon="9.198629848120195"><ele>92.0</ele><time>2026-03-30T09:19:35Z</time></trkpt><trkpt lat="33.30793328839587" lon="9.198741874510555"><ele>92.0</ele><time>2026-03-30T09:19:36Z</time></trkpt><trkpt lat="33.30779036156515" lon="9.198850030550574"><ele>92.0</ele><time>2026-03-30T09:19:37Z</time></trkpt><trkpt lat="33.30764938099306" lon="9.198960863356701"><ele>92.0</ele><time>2026-03-30T09:19:38Z</time></trkpt><trkpt lat="33.30750912121883" lon="9.199069644013617"><ele>92.0</ele><time>2026-03-30T09:19:39Z</time></trkpt><trkpt lat="33.30737011295211" lon="9.199187000781414"><ele>92.0</ele><time>2026-03-30T09:19:40Z</time></trkpt><trkpt lat="33.30722604544208" lon="9.199307336664518"><ele>92.0</ele><time>2026-03-30T09:19:41Z</time></trkpt><trkpt lat="33.30708674798293" lon="9.199427254872194"><ele>92.0</ele><time>2026-03-30T09:19:42Z</time></trkpt><trkpt lat="33.30694784820093" lon="9.199543486448235"><ele>92.0</ele><time>2026-03-30T09:19:43Z</time></trkpt><trkpt lat="33.30680514503125" lon="9.19966141769186"><ele>92.0</ele><time>2026-03-30T09:19:44Z</time></trkpt><trkpt lat="33.30665987018538" lon="9.199774671634623"><ele>92.0</ele><time>2026-03-30T09:19:45Z</time></trkpt><trkpt lat="33.306517194573516" lon="9.199890950393875"><ele>92.0</ele><time>2026-03-30T09:19:46Z</time></trkpt><trkpt lat="33.30638237842862" lon="9.200001328701259"><ele>92.0</ele><time>2026-03-30T09:19:47Z</time></trkpt><trkpt lat="33.30625168677419" lon="9.200113072459528"><ele>92.0</ele><time>2026-03-30T09:19:48Z</time></trkpt><trkpt lat="33.30612746685787" lon="9.200224386417947"><ele>92.0</ele><time>2026-03-30T09:19:49Z</time></trkpt><trkpt lat="33.30600682930126" lon="9.20033097056232"><ele>92.0</ele><time>2026-03-30T09:19:50Z</time></trkpt><trkpt lat="33.30587418493992" lon="9.200440324336263"><ele>92.0</ele><time>2026-03-30T09:19:51Z</time></trkpt><trkpt lat="33.305742749462205" lon="9.200545178327168"><ele>92.0</ele><time>2026-03-30T09:19:52Z</time></trkpt><trkpt lat="33.30561009532027" lon="9.200651194669259"><ele>91.66666666666667</ele><time>2026-03-30T09:19:53Z</time></trkpt><trkpt lat="33.30547987775652" lon="9.200759185502102"><ele>91.33333333333333</ele><time>2026-03-30T09:19:53.999Z</time></trkpt><trkpt lat="33.305346940743746" lon="9.200870009084063"><ele>91.0</ele><time>2026-03-30T09:19:54.999Z</time></trkpt><trkpt lat="33.30522285366256" lon="9.200979916858286"><ele>91.0</ele><time>2026-03-30T09:19:55.999Z</time></trkpt><trkpt lat="33.30509586450607" lon="9.2010944444727"><ele>91.0</ele><time>2026-03-30T09:19:56.999Z</time></trkpt><trkpt lat="33.304962918171576" lon="9.201208758889477"><ele>91.0</ele><time>2026-03-30T09:19:57.999Z</time></trkpt><trkpt lat="33.30482745490619" lon="9.20131838840674"><ele>91.33333333333333</ele><time>2026-03-30T09:19:58.999Z</time></trkpt><trkpt lat="33.30469475775387" lon="9.201430445874546"><ele>91.66666666666667</ele><time>2026-03-30T09:19:59.999Z</time></trkpt><trkpt lat="33.304563146394" lon="9.201543784162565"><ele>92.0</ele><time>2026-03-30T09:20:00.999Z</time></trkpt><trkpt lat="33.30443394608908" lon="9.201657902786764"><ele>92.0</ele><time>2026-03-30T09:20:01.999Z</time></trkpt><trkpt lat="33.30430198675122" lon="9.201769223788675"><ele>92.0</ele><time>2026-03-30T09:20:02.999Z</time></trkpt><trkpt lat="33.304170989086934" lon="9.201881649518727"><ele>92.0</ele><time>2026-03-30T09:20:03.999Z</time></trkpt><trkpt lat="33.30403463493377" lon="9.201992991103358"><ele>92.0</ele><time>2026-03-30T09:20:04.999Z</time></trkpt><trkpt lat="33.30388546827367" lon="9.202105966160024"><ele>92.0</ele><time>2026-03-30T09:20:05.999Z</time></trkpt><trkpt lat="33.30373764139692" lon="9.202221402792713"><ele>92.0</ele><time>2026-03-30T09:20:06.999Z</time></trkpt><trkpt lat="33.30358686642949" lon="9.202345662544653"><ele>92.0</ele><time>2026-03-30T09:20:07.999Z</time></trkpt><trkpt lat="33.30343693283121" lon="9.202463710858572"><ele>92.0</ele><time>2026-03-30T09:20:08.999Z</time></trkpt><trkpt lat="33.30327898610043" lon="9.202582711702664"><ele>92.0</ele><time>2026-03-30T09:20:09.999Z</time></trkpt><trkpt lat="33.30312601557493" lon="9.20270582089815"><ele>92.0</ele><time>2026-03-30T09:20:10.999Z</time></trkpt><trkpt lat="33.30297613287773" lon="9.202823315084897"><ele>92.0</ele><time>2026-03-30T09:20:11.999Z</time></trkpt><trkpt lat="33.3028254869999" lon="9.202938196960728"><ele>92.0</ele><time>2026-03-30T09:20:12.999Z</time></trkpt><trkpt lat="33.302669493108986" lon="9.203063242758871"><ele>92.33333333333334</ele><time>2026-03-30T09:20:13.999Z</time></trkpt><trkpt lat="33.30251724640228" lon="9.203180741696128"><ele>92.66666666666667</ele><time>2026-03-30T09:20:14.999Z</time></trkpt><trkpt lat="33.30236999923974" lon="9.203296201235759"><ele>93.0</ele><time>2026-03-30T09:20:15.999Z</time></trkpt><trkpt lat="33.30221004386899" lon="9.203416921771325"><ele>92.33333333333333</ele><time>2026-03-30T09:20:16.999Z</time></trkpt><trkpt lat="33.30206930142219" lon="9.203540292212695"><ele>91.66666666666666</ele><time>2026-03-30T09:20:17.999Z</time></trkpt><trkpt lat="33.30192782090988" lon="9.203659743257928"><ele>91.0</ele><time>2026-03-30T09:20:18.999Z</time></trkpt><trkpt lat="33.301783003980525" lon="9.203778742602452"><ele>91.0</ele><time>2026-03-30T09:20:19.999Z</time></trkpt><trkpt lat="33.301637255361904" lon="9.203893152428396"><ele>91.0</ele><time>2026-03-30T09:20:20.999Z</time></trkpt><trkpt lat="33.30149154071039" lon="9.204008084860064"><ele>91.0</ele><time>2026-03-30T09:20:21.999Z</time></trkpt><trkpt lat="33.30134223694141" lon="9.204127745847638"><ele>90.33333333333333</ele><time>2026-03-30T09:20:22.999Z</time></trkpt><trkpt lat="33.30119998841393" lon="9.204243674688572"><ele>89.66666666666667</ele><time>2026-03-30T09:20:23.999Z</time></trkpt><trkpt lat="33.30105851831158" lon="9.204359414698631"><ele>89.0</ele><time>2026-03-30T09:20:24.999Z</time></trkpt><trkpt lat="33.30090625492567" lon="9.204485449560684"><ele>89.0</ele><time>2026-03-30T09:20:25.999Z</time></trkpt><trkpt lat="33.30075878360685" lon="9.204602786352677"><ele>89.0</ele><time>2026-03-30T09:20:26.999Z</time></trkpt><trkpt lat="33.30061540590173" lon="9.204717476590583"><ele>89.0</ele><time>2026-03-30T09:20:27.999Z</time></trkpt><trkpt lat="33.30047574400562" lon="9.204829637735573"><ele>89.33333333333334</ele><time>2026-03-30T09:20:28.999Z</time></trkpt><trkpt lat="33.30033043551363" lon="9.204949202319666"><ele>89.66666666666667</ele><time>2026-03-30T09:20:29.999Z</time></trkpt><trkpt lat="33.30018189032667" lon="9.205067001748418"><ele>90.0</ele><time>2026-03-30T09:20:30.999Z</time></trkpt><trkpt lat="33.300026141697764" lon="9.205183186327732"><ele>90.0</ele><time>2026-03-30T09:20:31.999Z</time></trkpt><trkpt lat="33.29987309962281" lon="9.205297638205979"><ele>90.0</ele><time>2026-03-30T09:20:32.999Z</time></trkpt><trkpt lat="33.29972419607529" lon="9.205408591918616"><ele>90.0</ele><time>2026-03-30T09:20:33.999Z</time></trkpt><trkpt lat="33.29957378591994" lon="9.205518141885337"><ele>90.33333333333333</ele><time>2026-03-30T09:20:34.999Z</time></trkpt><trkpt lat="33.29942489048966" lon="9.205634645762279"><ele>90.66666666666666</ele><time>2026-03-30T09:20:35.999Z</time></trkpt><trkpt lat="33.299281572548665" lon="9.205745572598662"><ele>91.0</ele><time>2026-03-30T09:20:36.999Z</time></trkpt><trkpt lat="33.299145395204334" lon="9.20585621929639"><ele>91.0</ele><time>2026-03-30T09:20:37.999Z</time></trkpt><trkpt lat="33.29900807855018" lon="9.205966977484218"><ele>91.0</ele><time>2026-03-30T09:20:38.999Z</time></trkpt><trkpt lat="33.29887050455585" lon="9.206074413239252"><ele>91.0</ele><time>2026-03-30T09:20:39.999Z</time></trkpt><trkpt lat="33.298734206140296" lon="9.206174014648768"><ele>91.0</ele><time>2026-03-30T09:20:40.999Z</time></trkpt><trkpt lat="33.298594157420546" lon="9.206282219066836"><ele>91.0</ele><time>2026-03-30T09:20:41.999Z</time></trkpt><trkpt lat="33.298447408710345" lon="9.206398567506143"><ele>91.0</ele><time>2026-03-30T09:20:42.999Z</time></trkpt><trkpt lat="33.29830941791259" lon="9.206510128104078"><ele>91.33333333333333</ele><time>2026-03-30T09:20:43.999Z</time></trkpt><trkpt lat="33.29817230910187" lon="9.206614077887217"><ele>91.66666666666667</ele><time>2026-03-30T09:20:44.999Z</time></trkpt><trkpt lat="33.29803439252278" lon="9.206724915098006"><ele>92.0</ele><time>2026-03-30T09:20:45.999Z</time></trkpt><trkpt lat="33.297893329812275" lon="9.206837844251135"><ele>92.33333333333334</ele><time>2026-03-30T09:20:46.999Z</time></trkpt><trkpt lat="33.297750378550035" lon="9.206950358345306"><ele>92.66666666666667</ele><time>2026-03-30T09:20:47.999Z</time></trkpt><trkpt lat="33.29760383526735" lon="9.207063984772924"><ele>93.0</ele><time>2026-03-30T09:20:48.999Z</time></trkpt><trkpt lat="33.297461761649075" lon="9.207174605196107"><ele>93.0</ele><time>2026-03-30T09:20:49.999Z</time></trkpt><trkpt lat="33.29732045098376" lon="9.207287048141328"><ele>93.0</ele><time>2026-03-30T09:20:51Z</time></trkpt><trkpt lat="33.297178528347395" lon="9.207397767849663"><ele>93.0</ele><time>2026-03-30T09:20:52Z</time></trkpt><trkpt lat="33.29703388427861" lon="9.207514213634171"><ele>93.33333333333333</ele><time>2026-03-30T09:20:53Z</time></trkpt><trkpt lat="33.296898025699306" lon="9.207624295846383"><ele>93.66666666666666</ele><time>2026-03-30T09:20:54Z</time></trkpt><trkpt lat="33.29675804330027" lon="9.20773851187077"><ele>94.0</ele><time>2026-03-30T09:20:55Z</time></trkpt><trkpt lat="33.296630931834486" lon="9.207843391715764"><ele>94.0</ele><time>2026-03-30T09:20:56Z</time></trkpt><trkpt lat="33.296495962110264" lon="9.207955997893757"><ele>94.0</ele><time>2026-03-30T09:20:57Z</time></trkpt><trkpt lat="33.296365639325224" lon="9.208064990478817"><ele>94.0</ele><time>2026-03-30T09:20:58Z</time></trkpt><trkpt lat="33.29623581723141" lon="9.20817224290032"><ele>94.33333333333333</ele><time>2026-03-30T09:20:59Z</time></trkpt><trkpt lat="33.296099852692194" lon="9.208281320939921"><ele>94.66666666666667</ele><time>2026-03-30T09:21:00Z</time></trkpt><trkpt lat="33.29597262733836" lon="9.208392242454188"><ele>95.0</ele><time>2026-03-30T09:21:01Z</time></trkpt><trkpt lat="33.295837975388935" lon="9.208506485763905"><ele>95.0</ele><time>2026-03-30T09:21:02Z</time></trkpt><trkpt lat="33.29570662032108" lon="9.208618854728522"><ele>95.0</ele><time>2026-03-30T09:21:03Z</time></trkpt><trkpt lat="33.29557136185607" lon="9.208725249133577"><ele>95.0</ele><time>2026-03-30T09:21:04Z</time></trkpt><trkpt lat="33.295442124760754" lon="9.208826715486543"><ele>96.0</ele><time>2026-03-30T09:21:05Z</time></trkpt><trkpt lat="33.295305494211256" lon="9.2089378241127"><ele>97.0</ele><time>2026-03-30T09:21:06Z</time></trkpt><trkpt lat="33.295174557184396" lon="9.20905114372825"><ele>98.0</ele><time>2026-03-30T09:21:07Z</time></trkpt><trkpt lat="33.29504124700167" lon="9.209170557697004"><ele>98.0</ele><time>2026-03-30T09:21:08Z</time></trkpt><trkpt lat="33.2949097302729" lon="9.209291688158155"><ele>98.0</ele><time>2026-03-30T09:21:09Z</time></trkpt><trkpt lat="33.29477666423119" lon="9.209413874519049"><ele>98.0</ele><time>2026-03-30T09:21:10Z</time></trkpt><trkpt lat="33.294643147380604" lon="9.209529424454821"><ele>97.66666666666666</ele><time>2026-03-30T09:21:11Z</time></trkpt><trkpt lat="33.29450225179745" lon="9.209644864284298"><ele>97.33333333333334</ele><time>2026-03-30T09:21:12Z</time></trkpt><trkpt lat="33.29436577879535" lon="9.20975521844613"><ele>97.0</ele><time>2026-03-30T09:21:13Z</time></trkpt><trkpt lat="33.29423311256402" lon="9.2098654221659"><ele>97.33333333333334</ele><time>2026-03-30T09:21:14Z</time></trkpt><trkpt lat="33.29409682366465" lon="9.20997802376499"><ele>97.66666666666666</ele><time>2026-03-30T09:21:15Z</time></trkpt><trkpt lat="33.29395734400412" lon="9.210099227591938"><ele>98.0</ele><time>2026-03-30T09:21:16Z</time></trkpt><trkpt lat="33.29382728787058" lon="9.210220153236445"><ele>98.0</ele><time>2026-03-30T09:21:17Z</time></trkpt><trkpt lat="33.29369462583344" lon="9.21034217067501"><ele>98.0</ele><time>2026-03-30T09:21:18Z</time></trkpt><trkpt lat="33.29356836266046" lon="9.210459299577757"><ele>98.0</ele><time>2026-03-30T09:21:19Z</time></trkpt><trkpt lat="33.29343694387657" lon="9.21057846446694"><ele>97.0</ele><time>2026-03-30T09:21:20Z</time></trkpt><trkpt lat="33.29330165548694" lon="9.21069385057802"><ele>96.0</ele><time>2026-03-30T09:21:21Z</time></trkpt><trkpt lat="33.293172628896684" lon="9.210810355517678"><ele>95.0</ele><time>2026-03-30T09:21:22Z</time></trkpt><trkpt lat="33.29304314270593" lon="9.21092571478062"><ele>94.33333333333334</ele><time>2026-03-30T09:21:23Z</time></trkpt><trkpt lat="33.29290844659731" lon="9.211045854724642"><ele>93.66666666666667</ele><time>2026-03-30T09:21:24Z</time></trkpt><trkpt lat="33.292783129245684" lon="9.211160107583213"><ele>93.0</ele><time>2026-03-30T09:21:25Z</time></trkpt><trkpt lat="33.292651494566755" lon="9.211282081385155"><ele>93.0</ele><time>2026-03-30T09:21:26Z</time></trkpt><trkpt lat="33.292523280050624" lon="9.21140761241375"><ele>93.0</ele><time>2026-03-30T09:21:27Z</time></trkpt><trkpt lat="33.29239523842487" lon="9.211531092000563"><ele>93.0</ele><time>2026-03-30T09:21:28Z</time></trkpt><trkpt lat="33.29225591311115" lon="9.211658377503811"><ele>92.33333333333333</ele><time>2026-03-30T09:21:29Z</time></trkpt><trkpt lat="33.29212014973698" lon="9.211783692939225"><ele>91.66666666666666</ele><time>2026-03-30T09:21:30Z</time></trkpt><trkpt lat="33.29198935466241" lon="9.211902808527345"><ele>91.0</ele><time>2026-03-30T09:21:31Z</time></trkpt><trkpt lat="33.29185986301777" lon="9.212016778431106"><ele>91.0</ele><time>2026-03-30T09:21:32Z</time></trkpt><trkpt lat="33.291734944257804" lon="9.212129176226423"><ele>91.0</ele><time>2026-03-30T09:21:33Z</time></trkpt><trkpt lat="33.29161406439234" lon="9.212246000929671"><ele>91.0</ele><time>2026-03-30T09:21:34Z</time></trkpt><trkpt lat="33.29149481139933" lon="9.212367575681917"><ele>91.33333333333333</ele><time>2026-03-30T09:21:35Z</time></trkpt><trkpt lat="33.29137627739112" lon="9.212484486772057"><ele>91.66666666666667</ele><time>2026-03-30T09:21:36Z</time></trkpt><trkpt lat="33.291248090800465" lon="9.212606039902575"><ele>92.0</ele><time>2026-03-30T09:21:37Z</time></trkpt><trkpt lat="33.29112385870474" lon="9.212723979127137"><ele>92.0</ele><time>2026-03-30T09:21:38Z</time></trkpt><trkpt lat="33.290993103297176" lon="9.2128417764119"><ele>92.0</ele><time>2026-03-30T09:21:39Z</time></trkpt><trkpt lat="33.29085698602445" lon="9.212966289543335"><ele>92.0</ele><time>2026-03-30T09:21:40Z</time></trkpt><trkpt lat="33.2907306215119" lon="9.213084097166082"><ele>91.66666666666667</ele><time>2026-03-30T09:21:41Z</time></trkpt><trkpt lat="33.290598543497865" lon="9.213207820697559"><ele>91.33333333333333</ele><time>2026-03-30T09:21:42Z</time></trkpt><trkpt lat="33.29047169315338" lon="9.213327040731993"><ele>91.0</ele><time>2026-03-30T09:21:43Z</time></trkpt><trkpt lat="33.29034652364404" lon="9.213441328670447"><ele>91.0</ele><time>2026-03-30T09:21:44Z</time></trkpt><trkpt lat="33.2902123183229" lon="9.213566490447814"><ele>91.0</ele><time>2026-03-30T09:21:45Z</time></trkpt><trkpt lat="33.290091518295625" lon="9.213687208201057"><ele>91.0</ele><time>2026-03-30T09:21:46Z</time></trkpt><trkpt lat="33.28996679067689" lon="9.21381265535687"><ele>91.0</ele><time>2026-03-30T09:21:47Z</time></trkpt><trkpt lat="33.289850741433234" lon="9.213939267590057"><ele>91.0</ele><time>2026-03-30T09:21:48Z</time></trkpt><trkpt lat="33.28972213470404" lon="9.214080291621924"><ele>91.0</ele><time>2026-03-30T09:21:49Z</time></trkpt><trkpt lat="33.28960092534877" lon="9.214212446078694"><ele>90.66666666666666</ele><time>2026-03-30T09:21:50Z</time></trkpt><trkpt lat="33.28948298019846" lon="9.214338668355738"><ele>90.33333333333333</ele><time>2026-03-30T09:21:51Z</time></trkpt><trkpt lat="33.28936354544457" lon="9.21447026686699"><ele>90.0</ele><time>2026-03-30T09:21:52Z</time></trkpt><trkpt lat="33.28923573805695" lon="9.214609210653576"><ele>90.0</ele><time>2026-03-30T09:21:53Z</time></trkpt><trkpt lat="33.28910909313556" lon="9.214749080651421"><ele>90.0</ele><time>2026-03-30T09:21:54Z</time></trkpt><trkpt lat="33.288978898703846" lon="9.214880527413424"><ele>90.0</ele><time>2026-03-30T09:21:55Z</time></trkpt><trkpt lat="33.288857240809314" lon="9.215003664577933"><ele>90.33333333333333</ele><time>2026-03-30T09:21:56Z</time></trkpt><trkpt lat="33.288725291142995" lon="9.215133651651279"><ele>90.66666666666666</ele><time>2026-03-30T09:21:57Z</time></trkpt><trkpt lat="33.2885973597313" lon="9.215262357012927"><ele>91.0</ele><time>2026-03-30T09:21:58Z</time></trkpt><trkpt lat="33.28846824824145" lon="9.215392670851873"><ele>91.0</ele><time>2026-03-30T09:21:59Z</time></trkpt><trkpt lat="33.28834334959658" lon="9.21552455627079"><ele>91.0</ele><time>2026-03-30T09:22:00Z</time></trkpt><trkpt lat="33.28821423464491" lon="9.215660711439446"><ele>91.0</ele><time>2026-03-30T09:22:01Z</time></trkpt><trkpt lat="33.28809205380154" lon="9.215793640139475"><ele>91.66666666666666</ele><time>2026-03-30T09:22:02Z</time></trkpt><trkpt lat="33.28797023569052" lon="9.21592883308173"><ele>92.33333333333333</ele><time>2026-03-30T09:22:02.999Z</time></trkpt><trkpt lat="33.28785256406304" lon="9.21605951156854"><ele>93.0</ele><time>2026-03-30T09:22:03.999Z</time></trkpt><trkpt lat="33.28772915590781" lon="9.216192719732742"><ele>93.0</ele><time>2026-03-30T09:22:04.999Z</time></trkpt><trkpt lat="33.28760842183968" lon="9.216322062615056"><ele>93.0</ele><time>2026-03-30T09:22:05.999Z</time></trkpt><trkpt lat="33.28748311358261" lon="9.216453734700176"><ele>93.0</ele><time>2026-03-30T09:22:06.999Z</time></trkpt><trkpt lat="33.2873554403576" lon="9.216590876507393"><ele>92.66666666666667</ele><time>2026-03-30T09:22:07.999Z</time></trkpt><trkpt lat="33.28722990161538" lon="9.216727528443997"><ele>92.33333333333334</ele><time>2026-03-30T09:22:08.999Z</time></trkpt><trkpt lat="33.287105452424136" lon="9.216862846407604"><ele>92.0</ele><time>2026-03-30T09:22:09.999Z</time></trkpt><trkpt lat="33.28698010379532" lon="9.217000219029895"><ele>92.0</ele><time>2026-03-30T09:22:10.999Z</time></trkpt><trkpt lat="33.28686161132359" lon="9.217133477245028"><ele>92.0</ele><time>2026-03-30T09:22:11.999Z</time></trkpt><trkpt lat="33.286740978747446" lon="9.217261221084856"><ele>92.0</ele><time>2026-03-30T09:22:12.999Z</time></trkpt><trkpt lat="33.2866194405812" lon="9.217389318056746"><ele>92.0</ele><time>2026-03-30T09:22:13.999Z</time></trkpt><trkpt lat="33.28649525742085" lon="9.217517771369513"><ele>92.0</ele><time>2026-03-30T09:22:14.999Z</time></trkpt><trkpt lat="33.286374413723664" lon="9.217647456794271"><ele>92.0</ele><time>2026-03-30T09:22:15.999Z</time></trkpt><trkpt lat="33.28626210602494" lon="9.217773534757667"><ele>91.0</ele><time>2026-03-30T09:22:16.999Z</time></trkpt><trkpt lat="33.28614312455699" lon="9.217904970664502"><ele>90.0</ele><time>2026-03-30T09:22:17.999Z</time></trkpt><trkpt lat="33.28602536459151" lon="9.218034901374336"><ele>89.0</ele><time>2026-03-30T09:22:18.999Z</time></trkpt><trkpt lat="33.285905935403036" lon="9.218162666450079"><ele>89.0</ele><time>2026-03-30T09:22:19.999Z</time></trkpt><trkpt lat="33.285783818758205" lon="9.218288351718959"><ele>89.0</ele><time>2026-03-30T09:22:20.999Z</time></trkpt><trkpt lat="33.28565586513247" lon="9.218416338681735"><ele>89.0</ele><time>2026-03-30T09:22:21.999Z</time></trkpt><trkpt lat="33.28553625200083" lon="9.218547374499034"><ele>89.66666666666667</ele><time>2026-03-30T09:22:22.999Z</time></trkpt><trkpt lat="33.28541666827344" lon="9.21868063298916"><ele>90.33333333333333</ele><time>2026-03-30T09:22:23.999Z</time></trkpt><trkpt lat="33.285301343364964" lon="9.218815532958597"><ele>91.0</ele><time>2026-03-30T09:22:24.999Z</time></trkpt><trkpt lat="33.285181123684765" lon="9.218953162406567"><ele>92.0</ele><time>2026-03-30T09:22:25.999Z</time></trkpt><trkpt lat="33.28506409626227" lon="9.21908468853346"><ele>93.0</ele><time>2026-03-30T09:22:26.999Z</time></trkpt><trkpt lat="33.28494844124773" lon="9.219218348219371"><ele>94.0</ele><time>2026-03-30T09:22:27.999Z</time></trkpt><trkpt lat="33.28482669373586" lon="9.219353226240026"><ele>93.33333333333333</ele><time>2026-03-30T09:22:28.999Z</time></trkpt><trkpt lat="33.284711147704" lon="9.219488328795203"><ele>92.66666666666667</ele><time>2026-03-30T09:22:29.999Z</time></trkpt><trkpt lat="33.28459587472507" lon="9.219627418591372"><ele>92.0</ele><time>2026-03-30T09:22:30.999Z</time></trkpt><trkpt lat="33.284481167181426" lon="9.21976739127782"><ele>92.33333333333334</ele><time>2026-03-30T09:22:31.999Z</time></trkpt><trkpt lat="33.28435462241654" lon="9.219865858122606"><ele>92.66666666666667</ele><time>2026-03-30T09:22:32.999Z</time></trkpt><trkpt lat="33.28425085668837" lon="9.220035551723967"><ele>93.0</ele><time>2026-03-30T09:22:33.999Z</time></trkpt><trkpt lat="33.284132307597154" lon="9.220177346894308"><ele>93.0</ele><time>2026-03-30T09:22:34.999Z</time></trkpt><trkpt lat="33.28401513462611" lon="9.22031592160679"><ele>93.0</ele><time>2026-03-30T09:22:35.999Z</time></trkpt><trkpt lat="33.28390262228224" lon="9.220450489393818"><ele>93.0</ele><time>2026-03-30T09:22:36.999Z</time></trkpt><trkpt lat="33.28378998156887" lon="9.220589038967216"><ele>92.33333333333333</ele><time>2026-03-30T09:22:37.999Z</time></trkpt><trkpt lat="33.28366963204201" lon="9.220721888730544"><ele>91.66666666666666</ele><time>2026-03-30T09:22:38.999Z</time></trkpt><trkpt lat="33.28355488488622" lon="9.220861423096034"><ele>91.0</ele><time>2026-03-30T09:22:39.999Z</time></trkpt><trkpt lat="33.2834472321972" lon="9.220996666039019"><ele>91.0</ele><time>2026-03-30T09:22:40.999Z</time></trkpt><trkpt lat="33.283339240300045" lon="9.221123975429173"><ele>91.0</ele><time>2026-03-30T09:22:41.999Z</time></trkpt><trkpt lat="33.28323166124775" lon="9.221256662498991"><ele>91.0</ele><time>2026-03-30T09:22:42.999Z</time></trkpt><trkpt lat="33.283123057253974" lon="9.221394897864606"><ele>91.0</ele><time>2026-03-30T09:22:43.999Z</time></trkpt><trkpt lat="33.28301177991514" lon="9.221530936974132"><ele>91.0</ele><time>2026-03-30T09:22:44.999Z</time></trkpt><trkpt lat="33.28289669177497" lon="9.221669788306576"><ele>91.0</ele><time>2026-03-30T09:22:45.999Z</time></trkpt><trkpt lat="33.28278610723179" lon="9.221802828683115"><ele>91.0</ele><time>2026-03-30T09:22:46.999Z</time></trkpt><trkpt lat="33.282668794833874" lon="9.221936008717483"><ele>91.0</ele><time>2026-03-30T09:22:47.999Z</time></trkpt><trkpt lat="33.282554967889574" lon="9.222071281913422"><ele>91.0</ele><time>2026-03-30T09:22:48.999Z</time></trkpt><trkpt lat="33.282429567536354" lon="9.22221664841346"><ele>91.0</ele><time>2026-03-30T09:22:49.999Z</time></trkpt><trkpt lat="33.28230851228465" lon="9.222359438503679"><ele>91.0</ele><time>2026-03-30T09:22:50.999Z</time></trkpt><trkpt lat="33.28218803859159" lon="9.222500218827237"><ele>91.0</ele><time>2026-03-30T09:22:51.999Z</time></trkpt><trkpt lat="33.2820694753503" lon="9.222640923002436"><ele>91.33333333333333</ele><time>2026-03-30T09:22:52.999Z</time></trkpt><trkpt lat="33.28194111845431" lon="9.22278141939585"><ele>91.66666666666667</ele><time>2026-03-30T09:22:53.999Z</time></trkpt><trkpt lat="33.28181907061784" lon="9.22292094200549"><ele>92.0</ele><time>2026-03-30T09:22:54.999Z</time></trkpt><trkpt lat="33.28169418659231" lon="9.223062417006478"><ele>92.0</ele><time>2026-03-30T09:22:55.999Z</time></trkpt><trkpt lat="33.28157376321639" lon="9.223207272384625"><ele>92.0</ele><time>2026-03-30T09:22:57Z</time></trkpt><trkpt lat="33.281452672819064" lon="9.223353181116066"><ele>92.0</ele><time>2026-03-30T09:22:58Z</time></trkpt><trkpt lat="33.281331038304025" lon="9.223501051023696"><ele>92.0</ele><time>2026-03-30T09:22:59Z</time></trkpt><trkpt lat="33.28121603102952" lon="9.223648030134532"><ele>92.0</ele><time>2026-03-30T09:23:00Z</time></trkpt><trkpt lat="33.28109812467434" lon="9.22379685839953"><ele>92.0</ele><time>2026-03-30T09:23:01Z</time></trkpt><trkpt lat="33.280981400900664" lon="9.223943978431246"><ele>91.0</ele><time>2026-03-30T09:23:02Z</time></trkpt><trkpt lat="33.280865479414665" lon="9.224095369984829"><ele>90.0</ele><time>2026-03-30T09:23:03Z</time></trkpt><trkpt lat="33.280743471995144" lon="9.22426687252562"><ele>89.0</ele><time>2026-03-30T09:23:04Z</time></trkpt><trkpt lat="33.28063216828916" lon="9.224421776906947"><ele>89.66666666666667</ele><time>2026-03-30T09:23:05Z</time></trkpt><trkpt lat="33.280539992807086" lon="9.224563077675356"><ele>90.33333333333333</ele><time>2026-03-30T09:23:06Z</time></trkpt><trkpt lat="33.280448743105076" lon="9.224707619559924"><ele>91.0</ele><time>2026-03-30T09:23:07Z</time></trkpt><trkpt lat="33.28035731372925" lon="9.22484976338459"><ele>91.0</ele><time>2026-03-30T09:23:08Z</time></trkpt><trkpt lat="33.28026113933968" lon="9.224998222174557"><ele>91.0</ele><time>2026-03-30T09:23:09Z</time></trkpt><trkpt lat="33.28016594743886" lon="9.225157025315148"><ele>91.0</ele><time>2026-03-30T09:23:10Z</time></trkpt><trkpt lat="33.280072833311245" lon="9.225309035936279"><ele>91.0</ele><time>2026-03-30T09:23:11Z</time></trkpt><trkpt lat="33.279979455494995" lon="9.225469609775116"><ele>91.0</ele><time>2026-03-30T09:23:12Z</time></trkpt><trkpt lat="33.27989115113357" lon="9.225619881883448"><ele>91.0</ele><time>2026-03-30T09:23:13Z</time></trkpt><trkpt lat="33.279805529702934" lon="9.225775509651218"><ele>92.0</ele><time>2026-03-30T09:23:14Z</time></trkpt><trkpt lat="33.27971898195013" lon="9.225930247448881"><ele>93.0</ele><time>2026-03-30T09:23:15Z</time></trkpt><trkpt lat="33.27963160430994" lon="9.226070462331418"><ele>94.0</ele><time>2026-03-30T09:23:16Z</time></trkpt><trkpt lat="33.279536867470576" lon="9.22621380916018"><ele>94.0</ele><time>2026-03-30T09:23:17Z</time></trkpt><trkpt lat="33.27944453520056" lon="9.226351898961813"><ele>94.0</ele><time>2026-03-30T09:23:18Z</time></trkpt><trkpt lat="33.279355709410304" lon="9.226489735746943"><ele>94.0</ele><time>2026-03-30T09:23:19Z</time></trkpt><trkpt lat="33.27927022193322" lon="9.226627373291404"><ele>94.0</ele><time>2026-03-30T09:23:20Z</time></trkpt><trkpt lat="33.2791853859969" lon="9.226776965256386"><ele>94.25</ele><time>2026-03-30T09:23:21Z</time></trkpt><trkpt lat="33.27910354779008" lon="9.226934352195356"><ele>94.5</ele><time>2026-03-30T09:23:22Z</time></trkpt><trkpt lat="33.279014623458735" lon="9.227084241905283"><ele>94.75</ele><time>2026-03-30T09:23:23Z</time></trkpt><trkpt lat="33.278921574165494" lon="9.227210023866196"><ele>95.0</ele><time>2026-03-30T09:23:24Z</time></trkpt><trkpt lat="33.278826207023506" lon="9.227355592580723"><ele>95.0</ele><time>2026-03-30T09:23:25Z</time></trkpt><trkpt lat="33.27872878201097" lon="9.227495232531755"><ele>95.0</ele><time>2026-03-30T09:23:26Z</time></trkpt><trkpt lat="33.27863071832665" lon="9.227640594378151"><ele>95.0</ele><time>2026-03-30T09:23:27Z</time></trkpt><trkpt lat="33.2785280363651" lon="9.227791768195"><ele>95.0</ele><time>2026-03-30T09:23:28Z</time></trkpt><trkpt lat="33.278426356761486" lon="9.227940124194461"><ele>95.0</ele><time>2026-03-30T09:23:29Z</time></trkpt><trkpt lat="33.27832514691999" lon="9.22809096849034"><ele>95.0</ele><time>2026-03-30T09:23:30Z</time></trkpt><trkpt lat="33.278230825579776" lon="9.228238108090881"><ele>94.66666666666667</ele><time>2026-03-30T09:23:31Z</time></trkpt><trkpt lat="33.27813193223991" lon="9.228395848860433"><ele>94.33333333333333</ele><time>2026-03-30T09:23:32Z</time></trkpt><trkpt lat="33.278038287870416" lon="9.228552596061114"><ele>94.0</ele><time>2026-03-30T09:23:33Z</time></trkpt><trkpt lat="33.27794052879282" lon="9.228711005950764"><ele>94.66666666666666</ele><time>2026-03-30T09:23:34Z</time></trkpt><trkpt lat="33.277846437143566" lon="9.228859259508305"><ele>95.33333333333333</ele><time>2026-03-30T09:23:35Z</time></trkpt><trkpt lat="33.277749100124495" lon="9.229007120378364"><ele>96.0</ele><time>2026-03-30T09:23:36Z</time></trkpt><trkpt lat="33.27765630562679" lon="9.229146933824373"><ele>96.33333333333334</ele><time>2026-03-30T09:23:37Z</time></trkpt><trkpt lat="33.27755827396411" lon="9.229290797032348"><ele>96.66666666666667</ele><time>2026-03-30T09:23:38Z</time></trkpt><trkpt lat="33.27745862989202" lon="9.229438362527793"><ele>97.0</ele><time>2026-03-30T09:23:39Z</time></trkpt><trkpt lat="33.27735773134671" lon="9.22957861366859"><ele>97.0</ele><time>2026-03-30T09:23:40Z</time></trkpt><trkpt lat="33.27726389506688" lon="9.229721717764551"><ele>97.0</ele><time>2026-03-30T09:23:41Z</time></trkpt><trkpt lat="33.27716781347832" lon="9.229871487020622"><ele>97.0</ele><time>2026-03-30T09:23:42Z</time></trkpt><trkpt lat="33.27707565751929" lon="9.230014460518726"><ele>97.0</ele><time>2026-03-30T09:23:43Z</time></trkpt><trkpt lat="33.27697964098187" lon="9.230163428521635"><ele>97.0</ele><time>2026-03-30T09:23:44Z</time></trkpt><trkpt lat="33.2768869822488" lon="9.230308674138577"><ele>97.0</ele><time>2026-03-30T09:23:45Z</time></trkpt><trkpt lat="33.276792595072" lon="9.230468606783436"><ele>97.0</ele><time>2026-03-30T09:23:46Z</time></trkpt><trkpt lat="33.27670056542766" lon="9.230625266292652"><ele>97.0</ele><time>2026-03-30T09:23:47Z</time></trkpt><trkpt lat="33.276609940881166" lon="9.230773699221988"><ele>97.0</ele><time>2026-03-30T09:23:48Z</time></trkpt><trkpt lat="33.27651186836846" lon="9.230918501129562"><ele>97.33333333333334</ele><time>2026-03-30T09:23:49Z</time></trkpt><trkpt lat="33.27640887945707" lon="9.231065154106702"><ele>97.66666666666666</ele><time>2026-03-30T09:23:50Z</time></trkpt><trkpt lat="33.27630242080121" lon="9.231210632883254"><ele>98.0</ele><time>2026-03-30T09:23:51Z</time></trkpt><trkpt lat="33.27620165658705" lon="9.231361890304534"><ele>98.66666666666666</ele><time>2026-03-30T09:23:52Z</time></trkpt><trkpt lat="33.27609542993554" lon="9.231521813246788"><ele>99.33333333333334</ele><time>2026-03-30T09:23:53Z</time></trkpt><trkpt lat="33.275998763052385" lon="9.231670371146107"><ele>100.0</ele><time>2026-03-30T09:23:54Z</time></trkpt><trkpt lat="33.27589095323482" lon="9.231820992891198"><ele>100.0</ele><time>2026-03-30T09:23:55Z</time></trkpt><trkpt lat="33.27579028481891" lon="9.23196277155871"><ele>100.0</ele><time>2026-03-30T09:23:56Z</time></trkpt><trkpt lat="33.27568403866271" lon="9.232107502383501"><ele>100.0</ele><time>2026-03-30T09:23:57Z</time></trkpt><trkpt lat="33.27558244137683" lon="9.232244540181687"><ele>99.33333333333334</ele><time>2026-03-30T09:23:58Z</time></trkpt><trkpt lat="33.27547551066657" lon="9.232378015913707"><ele>98.66666666666666</ele><time>2026-03-30T09:23:59Z</time></trkpt><trkpt lat="33.275365076537376" lon="9.232517691833817"><ele>98.0</ele><time>2026-03-30T09:23:59.999Z</time></trkpt><trkpt lat="33.27525851106537" lon="9.23265527054932"><ele>98.0</ele><time>2026-03-30T09:24:00.999Z</time></trkpt><trkpt lat="33.275153725077544" lon="9.232793106450961"><ele>98.0</ele><time>2026-03-30T09:24:01.999Z</time></trkpt><trkpt lat="33.275043640741735" lon="9.232933997792692"><ele>98.0</ele><time>2026-03-30T09:24:02.999Z</time></trkpt><trkpt lat="33.274939619073464" lon="9.233070392950706"><ele>97.33333333333333</ele><time>2026-03-30T09:24:03.999Z</time></trkpt><trkpt lat="33.274833287280366" lon="9.23320345366218"><ele>96.66666666666666</ele><time>2026-03-30T09:24:04.999Z</time></trkpt><trkpt lat="33.27472355155986" lon="9.23334057137342"><ele>96.0</ele><time>2026-03-30T09:24:05.999Z</time></trkpt><trkpt lat="33.274618120174665" lon="9.233481142738977"><ele>96.0</ele><time>2026-03-30T09:24:06.999Z</time></trkpt><trkpt lat="33.27451189028376" lon="9.233618226785072"><ele>96.0</ele><time>2026-03-30T09:24:07.999Z</time></trkpt><trkpt lat="33.2743985292094" lon="9.233756201543471"><ele>96.0</ele><time>2026-03-30T09:24:08.999Z</time></trkpt><trkpt lat="33.27428901033598" lon="9.233887830954723"><ele>95.66666666666667</ele><time>2026-03-30T09:24:09.999Z</time></trkpt><trkpt lat="33.274173567518694" lon="9.234015870771998"><ele>95.33333333333334</ele><time>2026-03-30T09:24:10.999Z</time></trkpt><trkpt lat="33.274054080103696" lon="9.234143603152152"><ele>95.0</ele><time>2026-03-30T09:24:11.999Z</time></trkpt><trkpt lat="33.27393675683341" lon="9.234265760375843"><ele>95.66666666666667</ele><time>2026-03-30T09:24:12.999Z</time></trkpt><trkpt lat="33.27381524311018" lon="9.234391120553875"><ele>96.33333333333334</ele><time>2026-03-30T09:24:13.999Z</time></trkpt><trkpt lat="33.27369460192677" lon="9.234516065666048"><ele>97.0</ele><time>2026-03-30T09:24:14.999Z</time></trkpt><trkpt lat="33.27357814570911" lon="9.234640018795048"><ele>97.0</ele><time>2026-03-30T09:24:15.999Z</time></trkpt><trkpt lat="33.27346348666953" lon="9.234760810671972"><ele>97.0</ele><time>2026-03-30T09:24:16.999Z</time></trkpt><trkpt lat="33.27334878655505" lon="9.234880249385416"><ele>97.0</ele><time>2026-03-30T09:24:17.999Z</time></trkpt><trkpt lat="33.27323138337051" lon="9.234993321492505"><ele>97.0</ele><time>2026-03-30T09:24:18.999Z</time></trkpt><trkpt lat="33.273119899510085" lon="9.235111468968396"><ele>97.0</ele><time>2026-03-30T09:24:19.999Z</time></trkpt><trkpt lat="33.27302000916227" lon="9.235218973924466"><ele>97.0</ele><time>2026-03-30T09:24:20.999Z</time></trkpt><trkpt lat="33.27293448337153" lon="9.235305780373709"><ele>97.0</ele><time>2026-03-30T09:24:21.999Z</time></trkpt><trkpt lat="33.27285937906636" lon="9.235378889706217"><ele>97.00000000000001</ele><time>2026-03-30T09:24:22.999Z</time></trkpt><trkpt lat="33.272800429114504" lon="9.23544315626135"><ele>97.0</ele><time>2026-03-30T09:24:23.999Z</time></trkpt><trkpt lat="33.272745249017724" lon="9.235507152798585"><ele>97.0</ele><time>2026-03-30T09:24:24.999Z</time></trkpt><trkpt lat="33.27265885448697" lon="9.235600230579195"><ele>97.0</ele><time>2026-03-30T09:24:26.999Z</time></trkpt><trkpt lat="33.27259282933447" lon="9.235683870130035"><ele>97.00000000000001</ele><time>2026-03-30T09:24:28.999Z</time></trkpt><trkpt lat="33.272550773845005" lon="9.235765132619957"><ele>97.0</ele><time>2026-03-30T09:24:30.999Z</time></trkpt><trkpt lat="33.27248776400716" lon="9.23580281520932"><ele>97.0</ele><time>2026-03-30T09:24:43.999Z</time></trkpt><trkpt lat="33.272428678783875" lon="9.235745554730519"><ele>97.0</ele><time>2026-03-30T09:24:45.999Z</time></trkpt><trkpt lat="33.27235110701684" lon="9.23566169081028"><ele>97.0</ele><time>2026-03-30T09:24:48.999Z</time></trkpt><trkpt lat="33.27222801758155" lon="9.23557806084901"><ele>97.0</ele><time>2026-03-30T09:24:50.999Z</time></trkpt><trkpt lat="33.2721523305125" lon="9.235537228272266"><ele>97.0</ele><time>2026-03-30T09:24:51.999Z</time></trkpt><trkpt lat="33.27203144792415" lon="9.235460699699651"><ele>97.39999999999999</ele><time>2026-03-30T09:24:53.999Z</time></trkpt><trkpt lat="33.27196033457419" lon="9.235415832652821"><ele>97.8</ele><time>2026-03-30T09:24:54.999Z</time></trkpt><trkpt lat="33.27184505613127" lon="9.235339344132074"><ele>98.2</ele><time>2026-03-30T09:24:56.999Z</time></trkpt><trkpt lat="33.27178419751213" lon="9.235289521355982"><ele>98.6</ele><time>2026-03-30T09:24:58.999Z</time></trkpt><trkpt lat="33.27169797194771" lon="9.235235061447609"><ele>99.0</ele><time>2026-03-30T09:25:00.999Z</time></trkpt><trkpt lat="33.27162843812057" lon="9.235236748442802"><ele>99.0</ele><time>2026-03-30T09:25:01.999Z</time></trkpt><trkpt lat="33.27155496828383" lon="9.23524524336191"><ele>99.0</ele><time>2026-03-30T09:25:03Z</time></trkpt><trkpt lat="33.27145650595404" lon="9.235237894110103"><ele>99.0</ele><time>2026-03-30T09:25:05Z</time></trkpt><trkpt lat="33.271361064964886" lon="9.235222234736037"><ele>99.0</ele><time>2026-03-30T09:25:07Z</time></trkpt><trkpt lat="33.2712484232369" lon="9.235194796226716"><ele>99.0</ele><time>2026-03-30T09:25:09Z</time></trkpt><trkpt lat="33.27118447768955" lon="9.235231795158844"><ele>98.83333333333333</ele><time>2026-03-30T09:25:12Z</time></trkpt><trkpt lat="33.27110819296819" lon="9.23526030257737"><ele>98.66666666666666</ele><time>2026-03-30T09:25:14Z</time></trkpt><trkpt lat="33.27104117120377" lon="9.23525921999938"><ele>98.5</ele><time>2026-03-30T09:25:16Z</time></trkpt><trkpt lat="33.27097383921813" lon="9.235256190417319"><ele>98.33333333333333</ele><time>2026-03-30T09:25:17Z</time></trkpt><trkpt lat="33.27090942436176" lon="9.235242786029184"><ele>98.16666666666666</ele><time>2026-03-30T09:25:18Z</time></trkpt><trkpt lat="33.270805150996715" lon="9.23527759872785"><ele>98.0</ele><time>2026-03-30T09:25:20Z</time></trkpt><trkpt lat="33.2706975958846" lon="9.235293427565196"><ele>97.99999999999999</ele><time>2026-03-30T09:25:22Z</time></trkpt><trkpt lat="33.27063125256437" lon="9.235301233737303"><ele>98.0</ele><time>2026-03-30T09:25:24Z</time></trkpt><trkpt lat="33.27054176580112" lon="9.235312974931551"><ele>98.0</ele><time>2026-03-30T09:25:26Z</time></trkpt><trkpt lat="33.270436930420885" lon="9.23534195471909"><ele>98.0</ele><time>2026-03-30T09:25:28Z</time></trkpt><trkpt lat="33.27037357478396" lon="9.235343100330098"><ele>97.99999999999999</ele><time>2026-03-30T09:25:30Z</time></trkpt><trkpt lat="33.270263501350634" lon="9.23535658683464"><ele>98.0</ele><time>2026-03-30T09:25:32Z</time></trkpt><trkpt lat="33.27014291178372" lon="9.235399172846638"><ele>98.16666666666666</ele><time>2026-03-30T09:25:34Z</time></trkpt><trkpt lat="33.27003843834327" lon="9.235409111098301"><ele>98.33333333333333</ele><time>2026-03-30T09:25:36Z</time></trkpt><trkpt lat="33.26997331584988" lon="9.235409700515609"><ele>98.5</ele><time>2026-03-30T09:25:37Z</time></trkpt><trkpt lat="33.26988094293677" lon="9.235403285330522"><ele>98.66666666666666</ele><time>2026-03-30T09:25:39Z</time></trkpt><trkpt lat="33.269792887280616" lon="9.235430880034869"><ele>98.83333333333333</ele><time>2026-03-30T09:25:41Z</time></trkpt><trkpt lat="33.26973438608926" lon="9.235459553687159"><ele>99.0</ele><time>2026-03-30T09:25:42Z</time></trkpt><trkpt lat="33.269671281665175" lon="9.235479388574502"><ele>99.0</ele><time>2026-03-30T09:25:43Z</time></trkpt><trkpt lat="33.26954486554093" lon="9.235492524170219"><ele>99.0</ele><time>2026-03-30T09:25:45Z</time></trkpt><trkpt lat="33.269469253322924" lon="9.235505668433554"><ele>99.0</ele><time>2026-03-30T09:25:46Z</time></trkpt><trkpt lat="33.26940146539774" lon="9.235518627640596"><ele>99.0</ele><time>2026-03-30T09:25:47Z</time></trkpt><trkpt lat="33.269305232896706" lon="9.235567332529275"><ele>99.0</ele><time>2026-03-30T09:25:49Z</time></trkpt><trkpt lat="33.26921967479873" lon="9.235551882889187"><ele>99.0</ele><time>2026-03-30T09:25:51Z</time></trkpt><trkpt lat="33.269151987556306" lon="9.235525772751442"><ele>99.0</ele><time>2026-03-30T09:25:53Z</time></trkpt><trkpt lat="33.26908213444563" lon="9.235500844867921"><ele>99.0</ele><time>2026-03-30T09:25:55Z</time></trkpt><trkpt lat="33.268952014603435" lon="9.235471980350505"><ele>99.0</ele><time>2026-03-30T09:25:57Z</time></trkpt><trkpt lat="33.268892047301165" lon="9.235443536453868"><ele>99.0</ele><time>2026-03-30T09:25:58Z</time></trkpt><trkpt lat="33.268803357610985" lon="9.235378470922896"><ele>99.0</ele><time>2026-03-30T09:26:00.999Z</time></trkpt><trkpt lat="33.2687064685586" lon="9.235359602520015"><ele>99.16666666666667</ele><time>2026-03-30T09:26:02.999Z</time></trkpt><trkpt lat="33.26862951650536" lon="9.235355774319737"><ele>99.33333333333334</ele><time>2026-03-30T09:26:04.999Z</time></trkpt><trkpt lat="33.26853338459504" lon="9.235366959453762"><ele>99.5</ele><time>2026-03-30T09:26:06.999Z</time></trkpt><trkpt lat="33.26846574391141" lon="9.235390785558716"><ele>99.66666666666667</ele><time>2026-03-30T09:26:08.999Z</time></trkpt><trkpt lat="33.268391412973365" lon="9.235398856644826"><ele>99.83333333333334</ele><time>2026-03-30T09:27:47Z</time></trkpt><trkpt lat="33.26829649302355" lon="9.23540915979063"><ele>100.0</ele><time>2026-03-30T09:27:49Z</time></trkpt><trkpt lat="33.268175279066384" lon="9.235432315494299"><ele>100.00000000000001</ele><time>2026-03-30T09:27:51Z</time></trkpt><trkpt lat="33.26810594177821" lon="9.235442507752595"><ele>100.0</ele><time>2026-03-30T09:27:52Z</time></trkpt><trkpt lat="33.26803700713874" lon="9.235447717254992"><ele>100.0</ele><time>2026-03-30T09:27:53Z</time></trkpt><trkpt lat="33.26793486774572" lon="9.235445388031321"><ele>100.0</ele><time>2026-03-30T09:27:55Z</time></trkpt><trkpt lat="33.267850362400225" lon="9.23541004589511"><ele>100.00000000000001</ele><time>2026-03-30T09:27:57Z</time></trkpt><trkpt lat="33.267745703312286" lon="9.23541294522382"><ele>100.0</ele><time>2026-03-30T09:27:59Z</time></trkpt><trkpt lat="33.2676491507967" lon="9.235427851511528"><ele>100.0</ele><time>2026-03-30T09:28:01Z</time></trkpt><trkpt lat="33.26753806634908" lon="9.235427224859043"><ele>100.0</ele><time>2026-03-30T09:28:03Z</time></trkpt><trkpt lat="33.267439542115014" lon="9.23540366927022"><ele>100.0</ele><time>2026-03-30T09:28:05Z</time></trkpt><trkpt lat="33.26736378763954" lon="9.235364709138398"><ele>100.0</ele><time>2026-03-30T09:28:07Z</time></trkpt><trkpt lat="33.26731061631443" lon="9.23532412850628"><ele>100.0</ele><time>2026-03-30T09:28:08Z</time></trkpt><trkpt lat="33.26721571659539" lon="9.235297482212655"><ele>100.0</ele><time>2026-03-30T09:28:10Z</time></trkpt><trkpt lat="33.267125590648874" lon="9.235315573271455"><ele>100.0</ele><time>2026-03-30T09:28:12Z</time></trkpt><trkpt lat="33.267044416232274" lon="9.235358950969172"><ele>100.0</ele><time>2026-03-30T09:28:14Z</time></trkpt><trkpt lat="33.26695243442712" lon="9.235367595863714"><ele>100.0</ele><time>2026-03-30T09:28:15.999Z</time></trkpt><trkpt lat="33.26684982160379" lon="9.235380527687287"><ele>100.0</ele><time>2026-03-30T09:28:17.999Z</time></trkpt><trkpt lat="33.266750310682056" lon="9.235432104732084"><ele>100.0</ele><time>2026-03-30T09:28:19.999Z</time></trkpt><trkpt lat="33.26666391434254" lon="9.235446934001429"><ele>100.0</ele><time>2026-03-30T09:28:21.999Z</time></trkpt><trkpt lat="33.26658401422329" lon="9.235480520067352"><ele>100.0</ele><time>2026-03-30T09:28:23.999Z</time></trkpt><trkpt lat="33.26647644660184" lon="9.235456006288965"><ele>100.0</ele><time>2026-03-30T09:28:25.999Z</time></trkpt><trkpt lat="33.266394587816386" lon="9.235462186615084"><ele>100.0</ele><time>2026-03-30T09:28:27.999Z</time></trkpt><trkpt lat="33.2662850224781" lon="9.235481179278594"><ele>100.2</ele><time>2026-03-30T09:28:29.999Z</time></trkpt><trkpt lat="33.26619195539194" lon="9.235483044607212"><ele>100.4</ele><time>2026-03-30T09:28:31.999Z</time></trkpt><trkpt lat="33.266069607303365" lon="9.235476633723573"><ele>100.6</ele><time>2026-03-30T09:28:33.999Z</time></trkpt><trkpt lat="33.26595491238431" lon="9.235464907693952"><ele>100.8</ele><time>2026-03-30T09:28:35.999Z</time></trkpt><trkpt lat="33.26586194445357" lon="9.235484072969399"><ele>101.0</ele><time>2026-03-30T09:28:37.999Z</time></trkpt><trkpt lat="33.26574983047784" lon="9.235504079492095"><ele>100.99999999999999</ele><time>2026-03-30T09:28:39.999Z</time></trkpt><trkpt lat="33.26564577771125" lon="9.235536176337153"><ele>101.0</ele><time>2026-03-30T09:28:41.999Z</time></trkpt><trkpt lat="33.265572162303926" lon="9.235591824752118"><ele>101.0</ele><time>2026-03-30T09:28:43.999Z</time></trkpt><trkpt lat="33.265511343626905" lon="9.23564082390984"><ele>101.0</ele><time>2026-03-30T09:28:45.999Z</time></trkpt><trkpt lat="33.265416504521745" lon="9.23567620189189"><ele>100.99999999999999</ele><time>2026-03-30T09:28:47.999Z</time></trkpt><trkpt lat="33.265346584202995" lon="9.235719835166003"><ele>101.0</ele><time>2026-03-30T09:29:19Z</time></trkpt><trkpt lat="33.26529180077973" lon="9.235780045938036"><ele>100.49999999999999</ele><time>2026-03-30T09:29:21Z</time></trkpt><trkpt lat="33.26521626646239" lon="9.235812816256189"><ele>100.0</ele><time>2026-03-30T09:29:23Z</time></trkpt><trkpt lat="33.26511964422799" lon="9.235865585905211"><ele>99.5</ele><time>2026-03-30T09:29:25Z</time></trkpt><trkpt lat="33.26506030928292" lon="9.235894303719965"><ele>99.0</ele><time>2026-03-30T09:29:26Z</time></trkpt><trkpt lat="33.26496334750131" lon="9.23596674073735"><ele>98.49999999999999</ele><time>2026-03-30T09:29:28Z</time></trkpt><trkpt lat="33.26490993098754" lon="9.236018914195865"><ele>98.0</ele><time>2026-03-30T09:29:30Z</time></trkpt><trkpt lat="33.26481668183569" lon="9.236020050792265"><ele>98.0</ele><time>2026-03-30T09:29:56Z</time></trkpt><trkpt lat="33.264709083015525" lon="9.235997393369697"><ele>98.0</ele><time>2026-03-30T09:29:58Z</time></trkpt><trkpt lat="33.264619525167994" lon="9.235955877614266"><ele>98.0</ele><time>2026-03-30T09:30:00Z</time></trkpt><trkpt lat="33.26452387146675" lon="9.235951165516221"><ele>98.0</ele><time>2026-03-30T09:30:02Z</time></trkpt><trkpt lat="33.26443773834371" lon="9.235974115677754"><ele>98.0</ele><time>2026-03-30T09:30:04Z</time></trkpt><trkpt lat="33.264377520032745" lon="9.236005762999355"><ele>98.0</ele><time>2026-03-30T09:30:05Z</time></trkpt><trkpt lat="33.26428672648355" lon="9.236042694327873"><ele>98.0</ele><time>2026-03-30T09:30:07Z</time></trkpt><trkpt lat="33.26417696055389" lon="9.236074448539947"><ele>98.0</ele><time>2026-03-30T09:30:09Z</time></trkpt><trkpt lat="33.26406061223999" lon="9.236093536879135"><ele>98.0</ele><time>2026-03-30T09:30:11Z</time></trkpt><trkpt lat="33.26395254952212" lon="9.236140255434167"><ele>98.0</ele><time>2026-03-30T09:30:13Z</time></trkpt><trkpt lat="33.26388906135003" lon="9.236143828696207"><ele>97.80000000000001</ele><time>2026-03-30T09:30:14Z</time></trkpt><trkpt lat="33.26379806729613" lon="9.236171878722523"><ele>97.6</ele><time>2026-03-30T09:30:16Z</time></trkpt><trkpt lat="33.263731334765644" lon="9.236285304453801"><ele>97.4</ele><time>2026-03-30T09:30:17.999Z</time></trkpt><trkpt lat="33.263644025311585" lon="9.236359255254115"><ele>97.19999999999999</ele><time>2026-03-30T09:30:19.999Z</time></trkpt><trkpt lat="33.26353769394371" lon="9.236345899363643"><ele>97.0</ele><time>2026-03-30T09:30:21.999Z</time></trkpt><trkpt lat="33.26342939286499" lon="9.236359382612159"><ele>97.0</ele><time>2026-03-30T09:30:23.999Z</time></trkpt><trkpt lat="33.26333039810762" lon="9.236391201307114"><ele>97.0</ele><time>2026-03-30T09:30:25.999Z</time></trkpt><trkpt lat="33.26323936931475" lon="9.236370901360173"><ele>97.0</ele><time>2026-03-30T09:30:27.999Z</time></trkpt><trkpt lat="33.26314552497617" lon="9.23640148678904"><ele>97.0</ele><time>2026-03-30T09:30:29.999Z</time></trkpt><trkpt lat="33.26303995561021" lon="9.236440414434826"><ele>97.0</ele><time>2026-03-30T09:30:31.999Z</time></trkpt><trkpt lat="33.26297451777209" lon="9.236520491332545"><ele>97.8</ele><time>2026-03-30T09:30:33.999Z</time></trkpt><trkpt lat="33.26288715849119" lon="9.236600209897272"><ele>98.6</ele><time>2026-03-30T09:30:35.999Z</time></trkpt><trkpt lat="33.262825435936094" lon="9.236618294053685"><ele>99.39999999999999</ele><time>2026-03-30T09:30:36.999Z</time></trkpt><trkpt lat="33.26270284453429" lon="9.236626445521738"><ele>100.19999999999999</ele><time>2026-03-30T09:30:38.999Z</time></trkpt><trkpt lat="33.26258342591736" lon="9.236616416848493"><ele>101.0</ele><time>2026-03-30T09:30:40.999Z</time></trkpt><trkpt lat="33.262520005056544" lon="9.236634394887897"><ele>101.0</ele><time>2026-03-30T09:30:41.999Z</time></trkpt><trkpt lat="33.26246601649562" lon="9.236675717708396"><ele>101.0</ele><time>2026-03-30T09:30:42.999Z</time></trkpt><trkpt lat="33.26239022637242" lon="9.236748964909147"><ele>101.0</ele><time>2026-03-30T09:30:44.999Z</time></trkpt><trkpt lat="33.26229412143983" lon="9.236827400092"><ele>101.0</ele><time>2026-03-30T09:30:46.999Z</time></trkpt><trkpt lat="33.262239956751515" lon="9.2368788165866"><ele>101.0</ele><time>2026-03-30T09:30:47.999Z</time></trkpt><trkpt lat="33.262151458133665" lon="9.236958075326553"><ele>100.6</ele><time>2026-03-30T09:30:49.999Z</time></trkpt><trkpt lat="33.262035398000336" lon="9.236973243678957"><ele>100.19999999999999</ele><time>2026-03-30T09:30:51.999Z</time></trkpt><trkpt lat="33.261926444033435" lon="9.236983934249862"><ele>99.80000000000001</ele><time>2026-03-30T09:30:53.999Z</time></trkpt><trkpt lat="33.26184405830421" lon="9.237070788671616"><ele>99.4</ele><time>2026-03-30T09:30:55.999Z</time></trkpt><trkpt lat="33.261831574930795" lon="9.237144773052329"><ele>99.0</ele><time>2026-03-30T09:30:56.999Z</time></trkpt><trkpt lat="33.261755986196654" lon="9.237248802599982"><ele>99.0</ele><time>2026-03-30T09:30:58.999Z</time></trkpt><trkpt lat="33.26166944332622" lon="9.237332809148025"><ele>99.0</ele><time>2026-03-30T09:31:00.999Z</time></trkpt><trkpt lat="33.2615982611043" lon="9.237438639149545"><ele>99.0</ele><time>2026-03-30T09:31:02.999Z</time></trkpt><trkpt lat="33.26149446526862" lon="9.237499857748128"><ele>99.0</ele><time>2026-03-30T09:31:04.999Z</time></trkpt><trkpt lat="33.261431674821644" lon="9.237505933282511"><ele>99.0</ele><time>2026-03-30T09:31:05.999Z</time></trkpt><trkpt lat="33.26132062689019" lon="9.23757358144125"><ele>98.75</ele><time>2026-03-30T09:31:07.999Z</time></trkpt><trkpt lat="33.26121958806064" lon="9.237633816983095"><ele>98.5</ele><time>2026-03-30T09:31:09.999Z</time></trkpt><trkpt lat="33.261148374772134" lon="9.237741739707621"><ele>98.25</ele><time>2026-03-30T09:31:11.999Z</time></trkpt><trkpt lat="33.2610509804098" lon="9.237838521789218"><ele>98.0</ele><time>2026-03-30T09:31:13.999Z</time></trkpt><trkpt lat="33.26096941155213" lon="9.237924156610989"><ele>97.99999999999999</ele><time>2026-03-30T09:31:15.999Z</time></trkpt><trkpt lat="33.260920342538654" lon="9.23798204865422"><ele>98.0</ele><time>2026-03-30T09:31:16.999Z</time></trkpt><trkpt lat="33.26087153648766" lon="9.238043109295946"><ele>98.0</ele><time>2026-03-30T09:31:17.999Z</time></trkpt><trkpt lat="33.26083591921029" lon="9.238110462176513"><ele>98.0</ele><time>2026-03-30T09:31:18.999Z</time></trkpt><trkpt lat="33.26079826475835" lon="9.238184980684567"><ele>97.99999999999999</ele><time>2026-03-30T09:31:19.999Z</time></trkpt><trkpt lat="33.26071222282917" lon="9.238299053007704"><ele>98.0</ele><time>2026-03-30T09:31:22Z</time></trkpt><trkpt lat="33.26061888919911" lon="9.238362582868184"><ele>98.0</ele><time>2026-03-30T09:31:24Z</time></trkpt><trkpt lat="33.26055328826572" lon="9.238429825891085"><ele>98.0</ele><time>2026-03-30T09:31:26Z</time></trkpt><trkpt lat="33.26049872350352" lon="9.238554331043211"><ele>98.0</ele><time>2026-03-30T09:31:28Z</time></trkpt><trkpt lat="33.26046068934825" lon="9.238698204938956"><ele>98.0</ele><time>2026-03-30T09:31:30Z</time></trkpt><trkpt lat="33.2604009194861" lon="9.238827304424818"><ele>97.99999999999999</ele><time>2026-03-30T09:31:32Z</time></trkpt><trkpt lat="33.26032827726217" lon="9.238956292906867"><ele>98.0</ele><time>2026-03-30T09:31:34Z</time></trkpt><trkpt lat="33.26026903866389" lon="9.239065491670003"><ele>98.0</ele><time>2026-03-30T09:31:36Z</time></trkpt><trkpt lat="33.26024858778557" lon="9.239140691635052"><ele>98.0</ele><time>2026-03-30T09:31:37Z</time></trkpt><trkpt lat="33.260216758134895" lon="9.239208368703748"><ele>97.99999999999999</ele><time>2026-03-30T09:31:38Z</time></trkpt><trkpt lat="33.26017046328013" lon="9.23926583304791"><ele>98.0</ele><time>2026-03-30T09:31:39Z</time></trkpt><trkpt lat="33.26013793505578" lon="9.239342560294588"><ele>97.99999999999999</ele><time>2026-03-30T09:31:40Z</time></trkpt><trkpt lat="33.26010967073414" lon="9.239432445806703"><ele>98.0</ele><time>2026-03-30T09:31:41Z</time></trkpt><trkpt lat="33.26007364699574" lon="9.239515282572725"><ele>98.0</ele><time>2026-03-30T09:31:42Z</time></trkpt><trkpt lat="33.260018012474866" lon="9.239613361476597"><ele>98.0</ele><time>2026-03-30T09:31:44Z</time></trkpt><trkpt lat="33.259951684553755" lon="9.239726343566469"><ele>97.99999999999999</ele><time>2026-03-30T09:31:46Z</time></trkpt><trkpt lat="33.25990859971556" lon="9.239795869791955"><ele>98.0</ele><time>2026-03-30T09:31:47Z</time></trkpt><trkpt lat="33.2598661222774" lon="9.23986287091902"><ele>98.16666666666666</ele><time>2026-03-30T09:31:48Z</time></trkpt><trkpt lat="33.259814502018315" lon="9.239939469209803"><ele>98.33333333333333</ele><time>2026-03-30T09:31:49Z</time></trkpt><trkpt lat="33.25976398651343" lon="9.240002191052216"><ele>98.5</ele><time>2026-03-30T09:31:50Z</time></trkpt><trkpt lat="33.259712959430395" lon="9.240061652273525"><ele>98.66666666666666</ele><time>2026-03-30T09:31:51Z</time></trkpt><trkpt lat="33.25967061233857" lon="9.240118208737435"><ele>98.83333333333333</ele><time>2026-03-30T09:31:52Z</time></trkpt><trkpt lat="33.25961170598293" lon="9.240242871290754"><ele>99.0</ele><time>2026-03-30T09:31:54Z</time></trkpt><trkpt lat="33.25957310769603" lon="9.240309567520567"><ele>99.2</ele><time>2026-03-30T09:31:55Z</time></trkpt><trkpt lat="33.25952756129292" lon="9.240373023650147"><ele>99.4</ele><time>2026-03-30T09:31:56Z</time></trkpt><trkpt lat="33.25944258626958" lon="9.240482710382919"><ele>99.6</ele><time>2026-03-30T09:31:58Z</time></trkpt><trkpt lat="33.259336353549955" lon="9.240551569961335"><ele>99.8</ele><time>2026-03-30T09:32:00Z</time></trkpt><trkpt lat="33.259226904934714" lon="9.240582830240385"><ele>100.0</ele><time>2026-03-30T09:32:02Z</time></trkpt><trkpt lat="33.25913833536304" lon="9.240597300744007"><ele>100.14285714285715</ele><time>2026-03-30T09:32:04Z</time></trkpt><trkpt lat="33.25908354092118" lon="9.240638089263088"><ele>100.28571428571429</ele><time>2026-03-30T09:32:05Z</time></trkpt><trkpt lat="33.259024247429835" lon="9.240676495094512"><ele>100.42857142857143</ele><time>2026-03-30T09:32:06Z</time></trkpt><trkpt lat="33.258958823815796" lon="9.24071070339697"><ele>100.57142857142858</ele><time>2026-03-30T09:32:07Z</time></trkpt><trkpt lat="33.25889989398527" lon="9.240746675266106"><ele>100.71428571428571</ele><time>2026-03-30T09:32:08Z</time></trkpt><trkpt lat="33.258839004414526" lon="9.240783398549251"><ele>100.85714285714286</ele><time>2026-03-30T09:32:09Z</time></trkpt><trkpt lat="33.25878597077759" lon="9.240825302897381"><ele>101.0</ele><time>2026-03-30T09:32:10Z</time></trkpt><trkpt lat="33.258731323414004" lon="9.2408681337244"><ele>100.19999999999999</ele><time>2026-03-30T09:32:11Z</time></trkpt><trkpt lat="33.25867401245378" lon="9.240901827051033"><ele>99.39999999999999</ele><time>2026-03-30T09:32:12Z</time></trkpt><trkpt lat="33.25860917110336" lon="9.240920102967708"><ele>98.6</ele><time>2026-03-30T09:32:13Z</time></trkpt><trkpt lat="33.258485029188215" lon="9.240940464152928"><ele>97.8</ele><time>2026-03-30T09:32:15Z</time></trkpt><trkpt lat="33.25837252598918" lon="9.240952760002056"><ele>97.0</ele><time>2026-03-30T09:32:16.999Z</time></trkpt><trkpt lat="33.25825864031868" lon="9.241011574832562"><ele>97.0</ele><time>2026-03-30T09:32:18.999Z</time></trkpt><trkpt lat="33.25820438809017" lon="9.241053853884546"><ele>97.0</ele><time>2026-03-30T09:32:19.999Z</time></trkpt><trkpt lat="33.25808686511943" lon="9.241059596506169"><ele>97.0</ele><time>2026-03-30T09:32:21.999Z</time></trkpt><trkpt lat="33.257972605707245" lon="9.241060108678566"><ele>97.0</ele><time>2026-03-30T09:32:23.999Z</time></trkpt><trkpt lat="33.257859300097" lon="9.24108005579582"><ele>97.0</ele><time>2026-03-30T09:32:25.999Z</time></trkpt><trkpt lat="33.25778002135678" lon="9.24109527599206"><ele>97.16666666666667</ele><time>2026-03-30T09:32:27.999Z</time></trkpt><trkpt lat="33.2576684433037" lon="9.24111825782472"><ele>97.33333333333334</ele><time>2026-03-30T09:32:29.999Z</time></trkpt><trkpt lat="33.25760099232861" lon="9.241137302341192"><ele>97.5</ele><time>2026-03-30T09:32:30.999Z</time></trkpt><trkpt lat="33.25753686570353" lon="9.241148318525926"><ele>97.66666666666666</ele><time>2026-03-30T09:32:31.999Z</time></trkpt><trkpt lat="33.257412921364065" lon="9.24116349036763"><ele>97.83333333333333</ele><time>2026-03-30T09:32:33.999Z</time></trkpt><trkpt lat="33.257335962727566" lon="9.241168443784462"><ele>98.0</ele><time>2026-03-30T09:32:34.999Z</time></trkpt><trkpt lat="33.25726741654544" lon="9.241166685073772"><ele>98.49999999999999</ele><time>2026-03-30T09:32:35.999Z</time></trkpt><trkpt lat="33.25719264743966" lon="9.241157042134464"><ele>99.0</ele><time>2026-03-30T09:32:36.999Z</time></trkpt><trkpt lat="33.25712959557878" lon="9.241151589663422"><ele>99.5</ele><time>2026-03-30T09:32:37.999Z</time></trkpt><trkpt lat="33.257033127191825" lon="9.241158262394162"><ele>100.0</ele><time>2026-03-30T09:32:39.999Z</time></trkpt><trkpt lat="33.25694988767202" lon="9.241160805875966"><ele>100.49999999999999</ele><time>2026-03-30T09:32:41.999Z</time></trkpt><trkpt lat="33.25684038713991" lon="9.24109044375053"><ele>101.0</ele><time>2026-03-30T09:32:43.999Z</time></trkpt><trkpt lat="33.256798802863344" lon="9.241024375732087"><ele>101.0</ele><time>2026-03-30T09:32:44.999Z</time></trkpt><trkpt lat="33.25672238048472" lon="9.2408954857623"><ele>101.0</ele><time>2026-03-30T09:32:46.999Z</time></trkpt><trkpt lat="33.2566656422564" lon="9.240818157435799"><ele>101.0</ele><time>2026-03-30T09:32:47.999Z</time></trkpt><trkpt lat="33.25662039948158" lon="9.240744079560638"><ele>101.0</ele><time>2026-03-30T09:32:48.999Z</time></trkpt><trkpt lat="33.256568994094266" lon="9.240645664918734"><ele>101.0</ele><time>2026-03-30T09:32:49.999Z</time></trkpt><trkpt lat="33.25652719717573" lon="9.240558270892128"><ele>101.33333333333333</ele><time>2026-03-30T09:32:50.999Z</time></trkpt><trkpt lat="33.25648677222943" lon="9.24048041994376"><ele>101.66666666666666</ele><time>2026-03-30T09:32:51.999Z</time></trkpt><trkpt lat="33.25643569654765" lon="9.24040926193126"><ele>102.0</ele><time>2026-03-30T09:32:52.999Z</time></trkpt><trkpt lat="33.256385969859096" lon="9.24035293656396"><ele>102.33333333333334</ele><time>2026-03-30T09:32:53.999Z</time></trkpt><trkpt lat="33.25633945725559" lon="9.24029679811529"><ele>102.66666666666667</ele><time>2026-03-30T09:32:54.999Z</time></trkpt><trkpt lat="33.25629146956984" lon="9.24023620086573"><ele>103.0</ele><time>2026-03-30T09:32:55.999Z</time></trkpt><trkpt lat="33.256225224710406" lon="9.240125166335757"><ele>103.16666666666667</ele><time>2026-03-30T09:32:57.999Z</time></trkpt><trkpt lat="33.25616464296064" lon="9.240057319096625"><ele>103.33333333333334</ele><time>2026-03-30T09:32:59.999Z</time></trkpt><trkpt lat="33.25611134918768" lon="9.239991963844654"><ele>103.5</ele><time>2026-03-30T09:33:09.999Z</time></trkpt><trkpt lat="33.25607667226738" lon="9.239923346831347"><ele>103.66666666666666</ele><time>2026-03-30T09:33:10.999Z</time></trkpt><trkpt lat="33.25602014008302" lon="9.239846733525585"><ele>103.83333333333333</ele><time>2026-03-30T09:33:11.999Z</time></trkpt><trkpt lat="33.25596230801823" lon="9.239779545152155"><ele>104.0</ele><time>2026-03-30T09:33:12.999Z</time></trkpt><trkpt lat="33.25591171610412" lon="9.239702806448879"><ele>103.80000000000001</ele><time>2026-03-30T09:33:13.999Z</time></trkpt><trkpt lat="33.25585595784022" lon="9.23961532890244"><ele>103.60000000000001</ele><time>2026-03-30T09:33:14.999Z</time></trkpt><trkpt lat="33.25577884883962" lon="9.239516532321684"><ele>103.4</ele><time>2026-03-30T09:33:15.999Z</time></trkpt><trkpt lat="33.255701923867484" lon="9.239409411948936"><ele>103.2</ele><time>2026-03-30T09:33:16.999Z</time></trkpt><trkpt lat="33.255633913125116" lon="9.239317169999968"><ele>103.0</ele><time>2026-03-30T09:33:17.999Z</time></trkpt><trkpt lat="33.25555548256917" lon="9.239211967811743"><ele>103.0</ele><time>2026-03-30T09:33:18.999Z</time></trkpt><trkpt lat="33.255479925438514" lon="9.23910668036658"><ele>103.0</ele><time>2026-03-30T09:33:19.999Z</time></trkpt><trkpt lat="33.25539955964376" lon="9.239000223437813"><ele>103.0</ele><time>2026-03-30T09:33:20.999Z</time></trkpt><trkpt lat="33.255318165712346" lon="9.23888289546377"><ele>103.0</ele><time>2026-03-30T09:33:21.999Z</time></trkpt><trkpt lat="33.25522393242977" lon="9.238760783281263"><ele>102.33333333333334</ele><time>2026-03-30T09:33:22.999Z</time></trkpt><trkpt lat="33.25511343257354" lon="9.238623325932712"><ele>101.66666666666666</ele><time>2026-03-30T09:33:23.999Z</time></trkpt><trkpt lat="33.25500327616568" lon="9.238474813349477"><ele>101.0</ele><time>2026-03-30T09:33:24.999Z</time></trkpt><trkpt lat="33.25491436419046" lon="9.238332373653117"><ele>101.0</ele><time>2026-03-30T09:33:25.999Z</time></trkpt><trkpt lat="33.254828852406796" lon="9.2382072570778"><ele>101.0</ele><time>2026-03-30T09:33:27Z</time></trkpt><trkpt lat="33.254734744228784" lon="9.238090453332132"><ele>101.0</ele><time>2026-03-30T09:33:28Z</time></trkpt><trkpt lat="33.25465157967855" lon="9.237986785437096"><ele>101.0</ele><time>2026-03-30T09:33:29Z</time></trkpt><trkpt lat="33.254569619152" lon="9.237855397644672"><ele>101.75</ele><time>2026-03-30T09:33:30Z</time></trkpt><trkpt lat="33.2544813569119" lon="9.23770671605557"><ele>102.5</ele><time>2026-03-30T09:33:31Z</time></trkpt><trkpt lat="33.25439597010657" lon="9.237569959957169"><ele>103.25</ele><time>2026-03-30T09:33:32Z</time></trkpt><trkpt lat="33.25431370014007" lon="9.23745669207908"><ele>104.0</ele><time>2026-03-30T09:33:33Z</time></trkpt><trkpt lat="33.25423591358343" lon="9.237350004121774"><ele>104.0</ele><time>2026-03-30T09:33:34Z</time></trkpt><trkpt lat="33.25415812093928" lon="9.23723520902753"><ele>104.0</ele><time>2026-03-30T09:33:35Z</time></trkpt><trkpt lat="33.254072283108336" lon="9.237123962607642"><ele>104.0</ele><time>2026-03-30T09:33:36Z</time></trkpt><trkpt lat="33.253988276541826" lon="9.237009951452007"><ele>104.0</ele><time>2026-03-30T09:33:37Z</time></trkpt><trkpt lat="33.25391021400326" lon="9.236904325952239"><ele>104.5</ele><time>2026-03-30T09:33:38Z</time></trkpt><trkpt lat="33.25383446552728" lon="9.236792795869809"><ele>105.0</ele><time>2026-03-30T09:33:39Z</time></trkpt><trkpt lat="33.253756940844696" lon="9.236689303128564"><ele>105.5</ele><time>2026-03-30T09:33:40Z</time></trkpt><trkpt lat="33.25368415901413" lon="9.236587644321915"><ele>106.0</ele><time>2026-03-30T09:33:41Z</time></trkpt><trkpt lat="33.253618762639206" lon="9.23648556209803"><ele>105.6</ele><time>2026-03-30T09:33:42Z</time></trkpt><trkpt lat="33.253547219154896" lon="9.236382179719"><ele>105.19999999999999</ele><time>2026-03-30T09:33:43Z</time></trkpt><trkpt lat="33.25347768756408" lon="9.236284740245427"><ele>104.80000000000001</ele><time>2026-03-30T09:33:44Z</time></trkpt><trkpt lat="33.25340655804184" lon="9.23618551505485"><ele>104.4</ele><time>2026-03-30T09:33:45Z</time></trkpt><trkpt lat="33.253332824460664" lon="9.236087442215851"><ele>104.0</ele><time>2026-03-30T09:33:46Z</time></trkpt><trkpt lat="33.25325462905324" lon="9.235980612818373"><ele>104.0</ele><time>2026-03-30T09:33:47Z</time></trkpt><trkpt lat="33.25317718982523" lon="9.235880874691258"><ele>104.0</ele><time>2026-03-30T09:33:48Z</time></trkpt><trkpt lat="33.25310047834714" lon="9.235766500874213"><ele>104.0</ele><time>2026-03-30T09:33:49Z</time></trkpt><trkpt lat="33.25301892813842" lon="9.23563447669767"><ele>104.0</ele><time>2026-03-30T09:33:50Z</time></trkpt><trkpt lat="33.25292737932022" lon="9.235493778343914"><ele>104.0</ele><time>2026-03-30T09:33:51Z</time></trkpt><trkpt lat="33.25283593679188" lon="9.235368588886306"><ele>104.0</ele><time>2026-03-30T09:33:52Z</time></trkpt><trkpt lat="33.25275231061462" lon="9.235256134412406"><ele>104.0</ele><time>2026-03-30T09:33:53Z</time></trkpt><trkpt lat="33.252656746737685" lon="9.235138805798693"><ele>104.0</ele><time>2026-03-30T09:33:54Z</time></trkpt><trkpt lat="33.25255608015664" lon="9.235003551478444"><ele>104.0</ele><time>2026-03-30T09:33:55Z</time></trkpt><trkpt lat="33.25245692708627" lon="9.23487334013183"><ele>104.0</ele><time>2026-03-30T09:33:56Z</time></trkpt><trkpt lat="33.25236394275913" lon="9.23473107967794"><ele>104.0</ele><time>2026-03-30T09:33:57Z</time></trkpt><trkpt lat="33.25228326167701" lon="9.234604472751185"><ele>104.0</ele><time>2026-03-30T09:33:58Z</time></trkpt><trkpt lat="33.25220632978526" lon="9.23448089153205"><ele>104.25</ele><time>2026-03-30T09:33:59Z</time></trkpt><trkpt lat="33.252124165746785" lon="9.234350709225083"><ele>104.5</ele><time>2026-03-30T09:34:00Z</time></trkpt><trkpt lat="33.25204681626134" lon="9.234218549887041"><ele>104.75</ele><time>2026-03-30T09:34:01Z</time></trkpt><trkpt lat="33.25196759900634" lon="9.234088019909786"><ele>105.0</ele><time>2026-03-30T09:34:02Z</time></trkpt><trkpt lat="33.25188969944877" lon="9.233974443794748"><ele>104.75</ele><time>2026-03-30T09:34:03Z</time></trkpt><trkpt lat="33.25180075351957" lon="9.233862624582367"><ele>104.5</ele><time>2026-03-30T09:34:04Z</time></trkpt><trkpt lat="33.251701832960755" lon="9.233753596277666"><ele>104.25</ele><time>2026-03-30T09:34:05Z</time></trkpt><trkpt lat="33.25160131646277" lon="9.233616494098511"><ele>104.0</ele><time>2026-03-30T09:34:06Z</time></trkpt><trkpt lat="33.25151021165534" lon="9.233489515335899"><ele>104.5</ele><time>2026-03-30T09:34:07Z</time></trkpt><trkpt lat="33.251418155306276" lon="9.233351741185167"><ele>105.0</ele><time>2026-03-30T09:34:08Z</time></trkpt><trkpt lat="33.25134059244917" lon="9.233248549033659"><ele>105.5</ele><time>2026-03-30T09:34:09Z</time></trkpt><trkpt lat="33.25126574642766" lon="9.233148926994241"><ele>106.0</ele><time>2026-03-30T09:34:10Z</time></trkpt><trkpt lat="33.251187748001435" lon="9.23304405601225"><ele>106.0</ele><time>2026-03-30T09:34:11Z</time></trkpt><trkpt lat="33.25111328208598" lon="9.232936578605623"><ele>106.0</ele><time>2026-03-30T09:34:12Z</time></trkpt><trkpt lat="33.25103666515311" lon="9.232834313672642"><ele>106.0</ele><time>2026-03-30T09:34:13Z</time></trkpt><trkpt lat="33.2509567054315" lon="9.232731007609674"><ele>106.0</ele><time>2026-03-30T09:34:14Z</time></trkpt><trkpt lat="33.25087707861604" lon="9.23262373363632"><ele>106.0</ele><time>2026-03-30T09:34:15Z</time></trkpt><trkpt lat="33.250785682853646" lon="9.23248706928415"><ele>106.0</ele><time>2026-03-30T09:34:16Z</time></trkpt><trkpt lat="33.25070013129701" lon="9.23235935476188"><ele>106.0</ele><time>2026-03-30T09:34:16.999Z</time></trkpt><trkpt lat="33.25061750434013" lon="9.232246573875907"><ele>106.0</ele><time>2026-03-30T09:34:17.999Z</time></trkpt><trkpt lat="33.250533274859414" lon="9.232147262957811"><ele>105.75</ele><time>2026-03-30T09:34:18.999Z</time></trkpt><trkpt lat="33.25045698026915" lon="9.232048143537362"><ele>105.5</ele><time>2026-03-30T09:34:19.999Z</time></trkpt><trkpt lat="33.25038594093049" lon="9.231933412309143"><ele>105.25</ele><time>2026-03-30T09:34:20.999Z</time></trkpt><trkpt lat="33.25031361945975" lon="9.231829506387946"><ele>105.0</ele><time>2026-03-30T09:34:21.999Z</time></trkpt><trkpt lat="33.250231223947445" lon="9.231731664725308"><ele>105.0</ele><time>2026-03-30T09:34:22.999Z</time></trkpt><trkpt lat="33.2501478537678" lon="9.231639988467524"><ele>105.0</ele><time>2026-03-30T09:34:23.999Z</time></trkpt><trkpt lat="33.250066123583686" lon="9.231534207177228"><ele>105.0</ele><time>2026-03-30T09:34:24.999Z</time></trkpt><trkpt lat="33.24998594206779" lon="9.231428327510733"><ele>105.0</ele><time>2026-03-30T09:34:25.999Z</time></trkpt><trkpt lat="33.249909748261445" lon="9.2313158467212"><ele>104.8</ele><time>2026-03-30T09:34:26.999Z</time></trkpt><trkpt lat="33.24984546935653" lon="9.231203615029592"><ele>104.6</ele><time>2026-03-30T09:34:27.999Z</time></trkpt><trkpt lat="33.249779758780896" lon="9.231101251467008"><ele>104.4</ele><time>2026-03-30T09:34:28.999Z</time></trkpt><trkpt lat="33.24971696727338" lon="9.231006803246869"><ele>104.2</ele><time>2026-03-30T09:34:29.999Z</time></trkpt><trkpt lat="33.24965540819213" lon="9.230915594068195"><ele>104.0</ele><time>2026-03-30T09:34:30.999Z</time></trkpt><trkpt lat="33.249594975101864" lon="9.230824998210217"><ele>103.99999999999999</ele><time>2026-03-30T09:34:31.999Z</time></trkpt><trkpt lat="33.249535788794304" lon="9.230741438408787"><ele>104.0</ele><time>2026-03-30T09:34:32.999Z</time></trkpt><trkpt lat="33.24948415412901" lon="9.230674530108708"><ele>104.0</ele><time>2026-03-30T09:34:33.999Z</time></trkpt><trkpt lat="33.249425687745244" lon="9.23060365029984"><ele>104.0</ele><time>2026-03-30T09:34:34.999Z</time></trkpt><trkpt lat="33.24937661483947" lon="9.230530574967842"><ele>103.99999999999999</ele><time>2026-03-30T09:34:35.999Z</time></trkpt><trkpt lat="33.249319824289444" lon="9.23044998783504"><ele>104.0</ele><time>2026-03-30T09:34:36.999Z</time></trkpt><trkpt lat="33.24926212071388" lon="9.230368653907709"><ele>103.83333333333333</ele><time>2026-03-30T09:34:37.999Z</time></trkpt><trkpt lat="33.24920566173277" lon="9.230296000255848"><ele>103.66666666666666</ele><time>2026-03-30T09:34:38.999Z</time></trkpt><trkpt lat="33.2491502775164" lon="9.230232522965157"><ele>103.5</ele><time>2026-03-30T09:34:39.999Z</time></trkpt><trkpt lat="33.249104588467105" lon="9.230174696975675"><ele>103.33333333333334</ele><time>2026-03-30T09:34:40.999Z</time></trkpt><trkpt lat="33.24906434973763" lon="9.230114018352426"><ele>103.16666666666667</ele><time>2026-03-30T09:34:41.999Z</time></trkpt><trkpt lat="33.249013779189134" lon="9.230027665961375"><ele>103.0</ele><time>2026-03-30T09:34:43.999Z</time></trkpt><trkpt lat="33.2489513396718" lon="9.229975729728457"><ele>103.00000000000001</ele><time>2026-03-30T09:35:06.999Z</time></trkpt><trkpt lat="33.24890879817484" lon="9.229895542962003"><ele>103.0</ele><time>2026-03-30T09:35:07.999Z</time></trkpt><trkpt lat="33.24885545941106" lon="9.229833273410032"><ele>103.0</ele><time>2026-03-30T09:35:08.999Z</time></trkpt><trkpt lat="33.24880635185433" lon="9.229761940228006"><ele>103.0</ele><time>2026-03-30T09:35:09.999Z</time></trkpt><trkpt lat="33.24875996684386" lon="9.22966871456682"><ele>103.00000000000001</ele><time>2026-03-30T09:35:10.999Z</time></trkpt><trkpt lat="33.24872075890311" lon="9.229600597397846"><ele>103.0</ele><time>2026-03-30T09:35:11.999Z</time></trkpt><trkpt lat="33.24864777979972" lon="9.229493891552082"><ele>102.66666666666667</ele><time>2026-03-30T09:35:13.999Z</time></trkpt><trkpt lat="33.248598985617456" lon="9.229423792548552"><ele>102.33333333333334</ele><time>2026-03-30T09:35:15.999Z</time></trkpt><trkpt lat="33.248509169551916" lon="9.229321760289004"><ele>102.0</ele><time>2026-03-30T09:35:17.999Z</time></trkpt><trkpt lat="33.24845414768422" lon="9.22925316692414"><ele>101.66666666666666</ele><time>2026-03-30T09:35:18.999Z</time></trkpt><trkpt lat="33.24839466302689" lon="9.229180111835477"><ele>101.33333333333333</ele><time>2026-03-30T09:35:19.999Z</time></trkpt><trkpt lat="33.24834527184895" lon="9.229102762881498"><ele>101.0</ele><time>2026-03-30T09:35:20.999Z</time></trkpt><trkpt lat="33.24829484979619" lon="9.229016460170225"><ele>100.99999999999999</ele><time>2026-03-30T09:35:21.999Z</time></trkpt><trkpt lat="33.248235928540986" lon="9.228918941864714"><ele>101.0</ele><time>2026-03-30T09:35:22.999Z</time></trkpt><trkpt lat="33.248190400375144" lon="9.228861712359963"><ele>101.0</ele><time>2026-03-30T09:35:23.999Z</time></trkpt><trkpt lat="33.248132547506685" lon="9.228792894522257"><ele>101.0</ele><time>2026-03-30T09:35:24.999Z</time></trkpt><trkpt lat="33.24806965564593" lon="9.228710539666197"><ele>100.99999999999999</ele><time>2026-03-30T09:35:25.999Z</time></trkpt><trkpt lat="33.248001733804244" lon="9.2286114981875"><ele>101.0</ele><time>2026-03-30T09:35:26.999Z</time></trkpt><trkpt lat="33.24793129225607" lon="9.228506707269974"><ele>101.0</ele><time>2026-03-30T09:35:27.999Z</time></trkpt><trkpt lat="33.24785558137864" lon="9.228400575094554"><ele>101.0</ele><time>2026-03-30T09:35:28.999Z</time></trkpt><trkpt lat="33.247773154226586" lon="9.228289273080879"><ele>101.0</ele><time>2026-03-30T09:35:29.999Z</time></trkpt><trkpt lat="33.24769429855198" lon="9.228178628954117"><ele>101.0</ele><time>2026-03-30T09:35:30.999Z</time></trkpt><trkpt lat="33.24760856422445" lon="9.22805621894221"><ele>101.0</ele><time>2026-03-30T09:35:31.999Z</time></trkpt><trkpt lat="33.24752362141878" lon="9.227935354658202"><ele>101.0</ele><time>2026-03-30T09:35:33Z</time></trkpt><trkpt lat="33.24743326357281" lon="9.227807723630729"><ele>101.0</ele><time>2026-03-30T09:35:34Z</time></trkpt><trkpt lat="33.247336590534836" lon="9.22768085307489"><ele>101.0</ele><time>2026-03-30T09:35:35Z</time></trkpt><trkpt lat="33.247246384272955" lon="9.227552550404262"><ele>100.75</ele><time>2026-03-30T09:35:36Z</time></trkpt><trkpt lat="33.24716260668283" lon="9.227431441967784"><ele>100.5</ele><time>2026-03-30T09:35:37Z</time></trkpt><trkpt lat="33.247076678173116" lon="9.227318696915678"><ele>100.25</ele><time>2026-03-30T09:35:38Z</time></trkpt><trkpt lat="33.24698557469358" lon="9.22720568995248"><ele>100.0</ele><time>2026-03-30T09:35:39Z</time></trkpt><trkpt lat="33.24691084264652" lon="9.227098050562422"><ele>99.5</ele><time>2026-03-30T09:35:40Z</time></trkpt><trkpt lat="33.24683547038314" lon="9.22699172517356"><ele>99.0</ele><time>2026-03-30T09:35:41Z</time></trkpt><trkpt lat="33.246744530774" lon="9.226870844358928"><ele>98.5</ele><time>2026-03-30T09:35:42Z</time></trkpt><trkpt lat="33.24665870530775" lon="9.226754738075254"><ele>98.0</ele><time>2026-03-30T09:35:43Z</time></trkpt><trkpt lat="33.246572747675486" lon="9.22664468646156"><ele>98.0</ele><time>2026-03-30T09:35:44Z</time></trkpt><trkpt lat="33.2464854307181" lon="9.226536152476509"><ele>98.0</ele><time>2026-03-30T09:35:45Z</time></trkpt><trkpt lat="33.24640144406033" lon="9.226422536746174"><ele>98.0</ele><time>2026-03-30T09:35:46Z</time></trkpt><trkpt lat="33.24632152341324" lon="9.22630866284671"><ele>98.0</ele><time>2026-03-30T09:35:47Z</time></trkpt><trkpt lat="33.246235217479125" lon="9.22618904305564"><ele>98.25</ele><time>2026-03-30T09:35:48Z</time></trkpt><trkpt lat="33.24614080938686" lon="9.226060342343494"><ele>98.5</ele><time>2026-03-30T09:35:49Z</time></trkpt><trkpt lat="33.24603884056996" lon="9.225938651122604"><ele>98.75</ele><time>2026-03-30T09:35:50Z</time></trkpt><trkpt lat="33.245940737546476" lon="9.225819758221201"><ele>99.0</ele><time>2026-03-30T09:35:51Z</time></trkpt><trkpt lat="33.24584228032626" lon="9.22568723002152"><ele>99.33333333333334</ele><time>2026-03-30T09:35:52Z</time></trkpt><trkpt lat="33.24575313119237" lon="9.225557032672627"><ele>99.66666666666667</ele><time>2026-03-30T09:35:53Z</time></trkpt><trkpt lat="33.24564899771387" lon="9.225391558268877"><ele>100.0</ele><time>2026-03-30T09:35:54Z</time></trkpt><trkpt lat="33.24555780576878" lon="9.225245549728367"><ele>100.0</ele><time>2026-03-30T09:35:55Z</time></trkpt><trkpt lat="33.245467175192644" lon="9.225108882556315"><ele>100.0</ele><time>2026-03-30T09:35:56Z</time></trkpt><trkpt lat="33.24537834026824" lon="9.22498000270753"><ele>100.0</ele><time>2026-03-30T09:35:57Z</time></trkpt><trkpt lat="33.24528118302568" lon="9.224840513672877"><ele>100.0</ele><time>2026-03-30T09:35:58Z</time></trkpt><trkpt lat="33.245178930238254" lon="9.224701807544415"><ele>100.0</ele><time>2026-03-30T09:35:59Z</time></trkpt><trkpt lat="33.245077328229826" lon="9.224572755239002"><ele>100.0</ele><time>2026-03-30T09:36:00Z</time></trkpt><trkpt lat="33.24497183413797" lon="9.224431847336424"><ele>100.0</ele><time>2026-03-30T09:36:01Z</time></trkpt><trkpt lat="33.24487751719614" lon="9.224302952632165"><ele>100.0</ele><time>2026-03-30T09:36:02Z</time></trkpt><trkpt lat="33.24478401300786" lon="9.224177705789396"><ele>100.0</ele><time>2026-03-30T09:36:03Z</time></trkpt><trkpt lat="33.244693451040405" lon="9.224048924348457"><ele>100.0</ele><time>2026-03-30T09:36:04Z</time></trkpt><trkpt lat="33.244601935658146" lon="9.223915008477206"><ele>100.0</ele><time>2026-03-30T09:36:05Z</time></trkpt><trkpt lat="33.24451383846233" lon="9.223785661137988"><ele>100.0</ele><time>2026-03-30T09:36:06Z</time></trkpt><trkpt lat="33.24442590203558" lon="9.223668211943979"><ele>100.0</ele><time>2026-03-30T09:36:07Z</time></trkpt><trkpt lat="33.24434164430421" lon="9.223553281144293"><ele>100.0</ele><time>2026-03-30T09:36:08Z</time></trkpt><trkpt lat="33.244255450933345" lon="9.22342937848159"><ele>100.0</ele><time>2026-03-30T09:36:09Z</time></trkpt><trkpt lat="33.244165640294746" lon="9.223288182716688"><ele>100.0</ele><time>2026-03-30T09:36:10Z</time></trkpt><trkpt lat="33.24407373492295" lon="9.223176684345889"><ele>100.0</ele><time>2026-03-30T09:36:11Z</time></trkpt><trkpt lat="33.24398186919018" lon="9.223063301025071"><ele>100.0</ele><time>2026-03-30T09:36:12Z</time></trkpt><trkpt lat="33.24388432029431" lon="9.222925701493985"><ele>100.0</ele><time>2026-03-30T09:36:13Z</time></trkpt><trkpt lat="33.24378298932405" lon="9.222782257130001"><ele>100.75</ele><time>2026-03-30T09:36:14Z</time></trkpt><trkpt lat="33.24369302954941" lon="9.222649971416377"><ele>101.5</ele><time>2026-03-30T09:36:15Z</time></trkpt><trkpt lat="33.24361189836015" lon="9.222519495497265"><ele>102.25</ele><time>2026-03-30T09:36:16Z</time></trkpt><trkpt lat="33.243534153536714" lon="9.22240589565652"><ele>103.0</ele><time>2026-03-30T09:36:17Z</time></trkpt><trkpt lat="33.243455165158956" lon="9.22230075735272"><ele>103.0</ele><time>2026-03-30T09:36:17.999Z</time></trkpt><trkpt lat="33.24336753477039" lon="9.222199441101692"><ele>103.0</ele><time>2026-03-30T09:36:18.999Z</time></trkpt><trkpt lat="33.24327767942555" lon="9.222078089007054"><ele>103.0</ele><time>2026-03-30T09:36:19.999Z</time></trkpt><trkpt lat="33.24319159229268" lon="9.221953332056085"><ele>103.0</ele><time>2026-03-30T09:36:20.999Z</time></trkpt><trkpt lat="33.24311276121778" lon="9.221828229615218"><ele>103.0</ele><time>2026-03-30T09:36:21.999Z</time></trkpt><trkpt lat="33.24303472840505" lon="9.221704718654822"><ele>103.0</ele><time>2026-03-30T09:36:22.999Z</time></trkpt><trkpt lat="33.242955271815504" lon="9.221593722940948"><ele>103.0</ele><time>2026-03-30T09:36:23.999Z</time></trkpt><trkpt lat="33.242873093497444" lon="9.2214864399542"><ele>103.0</ele><time>2026-03-30T09:36:24.999Z</time></trkpt><trkpt lat="33.24278975639524" lon="9.22136977144388"><ele>103.0</ele><time>2026-03-30T09:36:25.999Z</time></trkpt><trkpt lat="33.242712276540786" lon="9.221253739167112"><ele>103.0</ele><time>2026-03-30T09:36:26.999Z</time></trkpt><trkpt lat="33.24264232211788" lon="9.221141163961972"><ele>103.0</ele><time>2026-03-30T09:36:27.999Z</time></trkpt><trkpt lat="33.242568793799286" lon="9.221038251873408"><ele>103.0</ele><time>2026-03-30T09:36:28.999Z</time></trkpt><trkpt lat="33.24249450148776" lon="9.220942259194773"><ele>103.0</ele><time>2026-03-30T09:36:29.999Z</time></trkpt><trkpt lat="33.242432022025845" lon="9.22085708933498"><ele>103.0</ele><time>2026-03-30T09:36:30.999Z</time></trkpt><trkpt lat="33.242377085986696" lon="9.22077055516264"><ele>103.0</ele><time>2026-03-30T09:36:31.999Z</time></trkpt><trkpt lat="33.24231417624195" lon="9.220682181799802"><ele>103.0</ele><time>2026-03-30T09:36:32.999Z</time></trkpt><trkpt lat="33.242249538415834" lon="9.220592352838826"><ele>103.0</ele><time>2026-03-30T09:36:33.999Z</time></trkpt><trkpt lat="33.24218236219062" lon="9.220503816349515"><ele>102.60000000000001</ele><time>2026-03-30T09:36:34.999Z</time></trkpt><trkpt lat="33.24211304244143" lon="9.220402724091997"><ele>102.2</ele><time>2026-03-30T09:36:35.999Z</time></trkpt><trkpt lat="33.24204369198459" lon="9.220302591300895"><ele>101.8</ele><time>2026-03-30T09:36:36.999Z</time></trkpt><trkpt lat="33.24196602013519" lon="9.220201505933868"><ele>101.4</ele><time>2026-03-30T09:36:37.999Z</time></trkpt><trkpt lat="33.24189013738591" lon="9.22009929775513"><ele>101.0</ele><time>2026-03-30T09:36:38.999Z</time></trkpt><trkpt lat="33.24179933351438" lon="9.219976219038621"><ele>101.0</ele><time>2026-03-30T09:36:39.999Z</time></trkpt><trkpt lat="33.241719504941166" lon="9.21985270079039"><ele>101.0</ele><time>2026-03-30T09:36:40.999Z</time></trkpt><trkpt lat="33.24163016219019" lon="9.219708629002977"><ele>101.0</ele><time>2026-03-30T09:36:41.999Z</time></trkpt><trkpt lat="33.24152292163008" lon="9.219554446497515"><ele>101.0</ele><time>2026-03-30T09:36:42.999Z</time></trkpt><trkpt lat="33.241418829406435" lon="9.219412391620457"><ele>101.66666666666666</ele><time>2026-03-30T09:36:43.999Z</time></trkpt><trkpt lat="33.24131766035452" lon="9.219273944586472"><ele>102.33333333333334</ele><time>2026-03-30T09:36:44.999Z</time></trkpt><trkpt lat="33.2412114607092" lon="9.219131031773317"><ele>103.0</ele><time>2026-03-30T09:36:45.999Z</time></trkpt><trkpt lat="33.24108318285307" lon="9.218961136102738"><ele>103.0</ele><time>2026-03-30T09:36:46.999Z</time></trkpt><trkpt lat="33.24096165399357" lon="9.218800942203606"><ele>103.0</ele><time>2026-03-30T09:36:47.999Z</time></trkpt><trkpt lat="33.24086421126937" lon="9.21866499251939"><ele>103.0</ele><time>2026-03-30T09:36:48.999Z</time></trkpt><trkpt lat="33.24077027556843" lon="9.218525852313299"><ele>103.0</ele><time>2026-03-30T09:36:49.999Z</time></trkpt><trkpt lat="33.24067403556145" lon="9.218377930570748"><ele>103.0</ele><time>2026-03-30T09:36:50.999Z</time></trkpt><trkpt lat="33.24059159801829" lon="9.218254916248192"><ele>103.0</ele><time>2026-03-30T09:36:51.999Z</time></trkpt><trkpt lat="33.24050269308104" lon="9.218145246166474"><ele>103.0</ele><time>2026-03-30T09:36:52.999Z</time></trkpt><trkpt lat="33.24042948593944" lon="9.218038744477152"><ele>103.0</ele><time>2026-03-30T09:36:53.999Z</time></trkpt><trkpt lat="33.24035768853143" lon="9.217933341493165"><ele>103.0</ele><time>2026-03-30T09:36:54.999Z</time></trkpt><trkpt lat="33.2402712442901" lon="9.217813685285135"><ele>103.0</ele><time>2026-03-30T09:36:55.999Z</time></trkpt><trkpt lat="33.24017549206935" lon="9.217691237803036"><ele>103.0</ele><time>2026-03-30T09:36:56.999Z</time></trkpt><trkpt lat="33.240083363728495" lon="9.217559491545673"><ele>103.0</ele><time>2026-03-30T09:36:57.999Z</time></trkpt><trkpt lat="33.240000560184484" lon="9.217429027554664"><ele>103.0</ele><time>2026-03-30T09:36:58.999Z</time></trkpt><trkpt lat="33.23991520073061" lon="9.21729514738745"><ele>103.0</ele><time>2026-03-30T09:36:59.999Z</time></trkpt><trkpt lat="33.239821604182794" lon="9.217172197720048"><ele>103.0</ele><time>2026-03-30T09:37:00.999Z</time></trkpt><trkpt lat="33.23972598985112" lon="9.217037398916005"><ele>103.0</ele><time>2026-03-30T09:37:01.999Z</time></trkpt><trkpt lat="33.23963473552508" lon="9.216913342575092"><ele>103.0</ele><time>2026-03-30T09:37:02.999Z</time></trkpt><trkpt lat="33.23953791210526" lon="9.216786037647244"><ele>103.0</ele><time>2026-03-30T09:37:03.999Z</time></trkpt><trkpt lat="33.23944297967019" lon="9.216660463443782"><ele>103.0</ele><time>2026-03-30T09:37:04.999Z</time></trkpt><trkpt lat="33.239354411254546" lon="9.216543396641192"><ele>103.5</ele><time>2026-03-30T09:37:05.999Z</time></trkpt><trkpt lat="33.239260272207396" lon="9.216415751467505"><ele>104.0</ele><time>2026-03-30T09:37:06.999Z</time></trkpt><trkpt lat="33.239174711014385" lon="9.216296708427286"><ele>104.5</ele><time>2026-03-30T09:37:07.999Z</time></trkpt><trkpt lat="33.2390894175956" lon="9.216170707595323"><ele>105.0</ele><time>2026-03-30T09:37:08.999Z</time></trkpt><trkpt lat="33.23900923057985" lon="9.216045955330406"><ele>104.5</ele><time>2026-03-30T09:37:09.999Z</time></trkpt><trkpt lat="33.23892935773263" lon="9.215922731673436"><ele>104.0</ele><time>2026-03-30T09:37:10.999Z</time></trkpt><trkpt lat="33.23884256688301" lon="9.215810443697636"><ele>103.5</ele><time>2026-03-30T09:37:11.999Z</time></trkpt><trkpt lat="33.23875082053002" lon="9.215689285646436"><ele>103.0</ele><time>2026-03-30T09:37:12.999Z</time></trkpt><trkpt lat="33.238657917825606" lon="9.215563199576046"><ele>103.0</ele><time>2026-03-30T09:37:13.999Z</time></trkpt><trkpt lat="33.238559720932834" lon="9.215435337588245"><ele>103.0</ele><time>2026-03-30T09:37:14.999Z</time></trkpt><trkpt lat="33.23846127652569" lon="9.21530991880609"><ele>103.0</ele><time>2026-03-30T09:37:15.999Z</time></trkpt><trkpt lat="33.23837241413522" lon="9.215183058034972"><ele>103.0</ele><time>2026-03-30T09:37:16.999Z</time></trkpt><trkpt lat="33.23828328153392" lon="9.215058971346556"><ele>103.0</ele><time>2026-03-30T09:37:17.999Z</time></trkpt><trkpt lat="33.23819265582286" lon="9.214929306643926"><ele>103.0</ele><time>2026-03-30T09:37:18.999Z</time></trkpt><trkpt lat="33.238103729766" lon="9.214805394447934"><ele>103.0</ele><time>2026-03-30T09:37:19.999Z</time></trkpt><trkpt lat="33.23802089457033" lon="9.214689936917614"><ele>103.0</ele><time>2026-03-30T09:37:20.999Z</time></trkpt><trkpt lat="33.23793932275663" lon="9.214574679885043"><ele>103.25</ele><time>2026-03-30T09:37:21.999Z</time></trkpt><trkpt lat="33.23786330007632" lon="9.214467617717638"><ele>103.5</ele><time>2026-03-30T09:37:22.999Z</time></trkpt><trkpt lat="33.23778738329044" lon="9.214361535088441"><ele>103.75</ele><time>2026-03-30T09:37:23.999Z</time></trkpt><trkpt lat="33.23771566992093" lon="9.214253806120855"><ele>104.0</ele><time>2026-03-30T09:37:24.999Z</time></trkpt><trkpt lat="33.23764331232629" lon="9.214140091515388"><ele>104.0</ele><time>2026-03-30T09:37:25.999Z</time></trkpt><trkpt lat="33.237566046606545" lon="9.214027671919725"><ele>104.0</ele><time>2026-03-30T09:37:26.999Z</time></trkpt><trkpt lat="33.237484120625446" lon="9.213917760925971"><ele>104.0</ele><time>2026-03-30T09:37:27.999Z</time></trkpt><trkpt lat="33.237399841995654" lon="9.213796159008977"><ele>104.0</ele><time>2026-03-30T09:37:28.999Z</time></trkpt><trkpt lat="33.237322119494195" lon="9.213677577149046"><ele>104.25</ele><time>2026-03-30T09:37:29.999Z</time></trkpt><trkpt lat="33.23723089372081" lon="9.213550304403267"><ele>104.5</ele><time>2026-03-30T09:37:30.999Z</time></trkpt><trkpt lat="33.237141197121986" lon="9.213424844187875"><ele>104.75</ele><time>2026-03-30T09:37:31.999Z</time></trkpt><trkpt lat="33.237058995109464" lon="9.21330801649247"><ele>105.0</ele><time>2026-03-30T09:37:32.999Z</time></trkpt><trkpt lat="33.236971290849056" lon="9.213179907782342"><ele>104.75</ele><time>2026-03-30T09:37:33.999Z</time></trkpt><trkpt lat="33.23689258466428" lon="9.213054367208478"><ele>104.5</ele><time>2026-03-30T09:37:34.999Z</time></trkpt><trkpt lat="33.23680690506974" lon="9.21293213971703"><ele>104.25</ele><time>2026-03-30T09:37:35.999Z</time></trkpt><trkpt lat="33.23671154133307" lon="9.212809104163071"><ele>104.0</ele><time>2026-03-30T09:37:36.999Z</time></trkpt><trkpt lat="33.23661106143754" lon="9.212681242460945"><ele>104.0</ele><time>2026-03-30T09:37:37.999Z</time></trkpt><trkpt lat="33.23651879060858" lon="9.212556862932178"><ele>104.0</ele><time>2026-03-30T09:37:38.999Z</time></trkpt><trkpt lat="33.23642925208604" lon="9.212431649229211"><ele>104.0</ele><time>2026-03-30T09:37:39.999Z</time></trkpt><trkpt lat="33.2363428821732" lon="9.212306853105723"><ele>104.0</ele><time>2026-03-30T09:37:40.999Z</time></trkpt><trkpt lat="33.236253349311745" lon="9.21217933514553"><ele>104.25</ele><time>2026-03-30T09:37:41.999Z</time></trkpt><trkpt lat="33.236158421625525" lon="9.21205571805816"><ele>104.5</ele><time>2026-03-30T09:37:42.999Z</time></trkpt><trkpt lat="33.23606168709833" lon="9.211932582265215"><ele>104.75</ele><time>2026-03-30T09:37:43.999Z</time></trkpt><trkpt lat="33.235965274452155" lon="9.21180716577719"><ele>105.0</ele><time>2026-03-30T09:37:44.999Z</time></trkpt><trkpt lat="33.23587762305638" lon="9.211673641198688"><ele>105.0</ele><time>2026-03-30T09:37:45.999Z</time></trkpt><trkpt lat="33.235785899579255" lon="9.211541518387294"><ele>105.0</ele><time>2026-03-30T09:37:46.999Z</time></trkpt><trkpt lat="33.23569350375213" lon="9.211413899402915"><ele>105.0</ele><time>2026-03-30T09:37:47.999Z</time></trkpt><trkpt lat="33.23559752928559" lon="9.211284964885564"><ele>105.0</ele><time>2026-03-30T09:37:48.999Z</time></trkpt><trkpt lat="33.2355054598488" lon="9.211156306587396"><ele>105.25</ele><time>2026-03-30T09:37:49.999Z</time></trkpt><trkpt lat="33.23541654330261" lon="9.211037832489268"><ele>105.5</ele><time>2026-03-30T09:37:50.999Z</time></trkpt><trkpt lat="33.235324156977185" lon="9.210920640000774"><ele>105.75</ele><time>2026-03-30T09:37:51.999Z</time></trkpt><trkpt lat="33.235234092098" lon="9.210786538436459"><ele>106.0</ele><time>2026-03-30T09:37:52.999Z</time></trkpt><trkpt lat="33.2351447024205" lon="9.21066496525322"><ele>105.75</ele><time>2026-03-30T09:37:53.999Z</time></trkpt><trkpt lat="33.23504800855447" lon="9.210555467689792"><ele>105.5</ele><time>2026-03-30T09:37:54.999Z</time></trkpt><trkpt lat="33.23495108754511" lon="9.210427217172414"><ele>105.25</ele><time>2026-03-30T09:37:55.999Z</time></trkpt><trkpt lat="33.23485478411469" lon="9.210294612946496"><ele>105.0</ele><time>2026-03-30T09:37:56.999Z</time></trkpt><trkpt lat="33.23475320880683" lon="9.21016142178478"><ele>105.0</ele><time>2026-03-30T09:37:57.999Z</time></trkpt><trkpt lat="33.23465191484037" lon="9.210025744093507"><ele>105.0</ele><time>2026-03-30T09:37:58.999Z</time></trkpt><trkpt lat="33.234558566188554" lon="9.209889329842731"><ele>105.0</ele><time>2026-03-30T09:37:59.999Z</time></trkpt><trkpt lat="33.23447411420877" lon="9.209765079910069"><ele>105.0</ele><time>2026-03-30T09:38:00.999Z</time></trkpt><trkpt lat="33.23437525587872" lon="9.209632158769065"><ele>105.0</ele><time>2026-03-30T09:38:01.999Z</time></trkpt><trkpt lat="33.234277947715725" lon="9.20950355926142"><ele>105.0</ele><time>2026-03-30T09:38:02.999Z</time></trkpt><trkpt lat="33.234168414178875" lon="9.209371227829257"><ele>105.0</ele><time>2026-03-30T09:38:03.999Z</time></trkpt><trkpt lat="33.2340804607765" lon="9.209255420453353"><ele>105.0</ele><time>2026-03-30T09:38:04.999Z</time></trkpt><trkpt lat="33.23399643302197" lon="9.209124637338778"><ele>105.25</ele><time>2026-03-30T09:38:05.999Z</time></trkpt><trkpt lat="33.23390919942046" lon="9.208999611267487"><ele>105.5</ele><time>2026-03-30T09:38:06.999Z</time></trkpt><trkpt lat="33.233816033316174" lon="9.208870322379546"><ele>105.75</ele><time>2026-03-30T09:38:07.999Z</time></trkpt><trkpt lat="33.233719770684566" lon="9.208742830921132"><ele>106.0</ele><time>2026-03-30T09:38:08.999Z</time></trkpt><trkpt lat="33.23362276524352" lon="9.208611246004525"><ele>106.0</ele><time>2026-03-30T09:38:09.999Z</time></trkpt><trkpt lat="33.23352996675487" lon="9.208478012246958"><ele>106.0</ele><time>2026-03-30T09:38:10.999Z</time></trkpt><trkpt lat="33.23343262240231" lon="9.208349805157"><ele>106.0</ele><time>2026-03-30T09:38:11.999Z</time></trkpt><trkpt lat="33.233339307882424" lon="9.20823005202399"><ele>106.0</ele><time>2026-03-30T09:38:12.999Z</time></trkpt><trkpt lat="33.23324337402994" lon="9.208095193636135"><ele>105.75</ele><time>2026-03-30T09:38:13.999Z</time></trkpt><trkpt lat="33.233156329144265" lon="9.207975498326705"><ele>105.5</ele><time>2026-03-30T09:38:14.999Z</time></trkpt><trkpt lat="33.233074663485056" lon="9.207856392743185"><ele>105.25</ele><time>2026-03-30T09:38:15.999Z</time></trkpt><trkpt lat="33.232997366252214" lon="9.20773902623185"><ele>105.0</ele><time>2026-03-30T09:38:16.999Z</time></trkpt><trkpt lat="33.23292509790035" lon="9.207626223343741"><ele>104.5</ele><time>2026-03-30T09:38:17.999Z</time></trkpt><trkpt lat="33.23285164751218" lon="9.207524452373884"><ele>104.0</ele><time>2026-03-30T09:38:18.999Z</time></trkpt><trkpt lat="33.232776405006106" lon="9.207421943375664"><ele>103.5</ele><time>2026-03-30T09:38:19.999Z</time></trkpt><trkpt lat="33.232696009449135" lon="9.207312794248237"><ele>103.0</ele><time>2026-03-30T09:38:20.999Z</time></trkpt><trkpt lat="33.23261274633394" lon="9.207197269115246"><ele>103.0</ele><time>2026-03-30T09:38:21.999Z</time></trkpt><trkpt lat="33.23253280343498" lon="9.207080181483676"><ele>103.0</ele><time>2026-03-30T09:38:22.999Z</time></trkpt><trkpt lat="33.232446793326076" lon="9.206956396676281"><ele>103.0</ele><time>2026-03-30T09:38:23.999Z</time></trkpt><trkpt lat="33.232352986972735" lon="9.206832424794348"><ele>103.0</ele><time>2026-03-30T09:38:24.999Z</time></trkpt><trkpt lat="33.232255383941805" lon="9.206702591487137"><ele>102.75</ele><time>2026-03-30T09:38:25.999Z</time></trkpt><trkpt lat="33.232166012255036" lon="9.20658267424568"><ele>102.5</ele><time>2026-03-30T09:38:26.999Z</time></trkpt><trkpt lat="33.23206622785414" lon="9.206449532398683"><ele>102.25</ele><time>2026-03-30T09:38:27.999Z</time></trkpt><trkpt lat="33.231960112327734" lon="9.206303807428801"><ele>102.0</ele><time>2026-03-30T09:38:28.999Z</time></trkpt><trkpt lat="33.23184628792067" lon="9.206161161557374"><ele>101.66666666666666</ele><time>2026-03-30T09:38:29.999Z</time></trkpt><trkpt lat="33.23173002531424" lon="9.206015727964724"><ele>101.33333333333333</ele><time>2026-03-30T09:38:30.999Z</time></trkpt><trkpt lat="33.23162836591566" lon="9.205880132226556"><ele>101.0</ele><time>2026-03-30T09:38:31.999Z</time></trkpt><trkpt lat="33.2315187107673" lon="9.205748820659318"><ele>101.5</ele><time>2026-03-30T09:38:32.999Z</time></trkpt><trkpt lat="33.23141576517623" lon="9.205626415417356"><ele>102.0</ele><time>2026-03-30T09:38:33.999Z</time></trkpt><trkpt lat="33.23131972010096" lon="9.20549649121051"><ele>102.5</ele><time>2026-03-30T09:38:34.999Z</time></trkpt><trkpt lat="33.2312255761806" lon="9.205356273245068"><ele>103.0</ele><time>2026-03-30T09:38:35.999Z</time></trkpt><trkpt lat="33.23112590579085" lon="9.205210604334281"><ele>103.0</ele><time>2026-03-30T09:38:36.999Z</time></trkpt><trkpt lat="33.2310242985384" lon="9.205063343119933"><ele>103.0</ele><time>2026-03-30T09:38:37.999Z</time></trkpt><trkpt lat="33.23092920846721" lon="9.204925074332259"><ele>103.0</ele><time>2026-03-30T09:38:38.999Z</time></trkpt><trkpt lat="33.23082005065074" lon="9.204779074853102"><ele>103.0</ele><time>2026-03-30T09:38:39.999Z</time></trkpt><trkpt lat="33.230731821735255" lon="9.204638369578587"><ele>103.0</ele><time>2026-03-30T09:38:40.999Z</time></trkpt><trkpt lat="33.230640796500715" lon="9.204511483375533"><ele>103.0</ele><time>2026-03-30T09:38:41.999Z</time></trkpt><trkpt lat="33.230553502628304" lon="9.204376569312737"><ele>103.0</ele><time>2026-03-30T09:38:42.999Z</time></trkpt><trkpt lat="33.23048025594475" lon="9.204249957157275"><ele>103.25</ele><time>2026-03-30T09:38:43.999Z</time></trkpt><trkpt lat="33.2304048143372" lon="9.204121159940449"><ele>103.5</ele><time>2026-03-30T09:38:44.999Z</time></trkpt><trkpt lat="33.23031364745673" lon="9.203988993060312"><ele>103.75</ele><time>2026-03-30T09:38:45.999Z</time></trkpt><trkpt lat="33.23023980613291" lon="9.20388965329658"><ele>104.0</ele><time>2026-03-30T09:38:46.999Z</time></trkpt><trkpt lat="33.230155782291895" lon="9.203797016097404"><ele>104.0</ele><time>2026-03-30T09:38:47.999Z</time></trkpt><trkpt lat="33.23007389215783" lon="9.203701439705883"><ele>104.0</ele><time>2026-03-30T09:38:48.999Z</time></trkpt><trkpt lat="33.22999602644271" lon="9.203593889297174"><ele>104.0</ele><time>2026-03-30T09:38:49.999Z</time></trkpt><trkpt lat="33.22991294740562" lon="9.203469253032884"><ele>104.0</ele><time>2026-03-30T09:38:50.999Z</time></trkpt><trkpt lat="33.22982864207406" lon="9.203331991970183"><ele>104.25</ele><time>2026-03-30T09:38:51.999Z</time></trkpt><trkpt lat="33.229740337155285" lon="9.203214503960595"><ele>104.5</ele><time>2026-03-30T09:38:52.999Z</time></trkpt><trkpt lat="33.22965804540583" lon="9.203104603208429"><ele>104.75</ele><time>2026-03-30T09:38:53.999Z</time></trkpt><trkpt lat="33.22958068760915" lon="9.203012468014121"><ele>105.0</ele><time>2026-03-30T09:38:54.999Z</time></trkpt><trkpt lat="33.22949616022067" lon="9.202902915843667"><ele>104.5</ele><time>2026-03-30T09:38:55.999Z</time></trkpt><trkpt lat="33.229409651688336" lon="9.202782973917424"><ele>104.0</ele><time>2026-03-30T09:38:56.999Z</time></trkpt><trkpt lat="33.2293205325438" lon="9.20265572474974"><ele>103.5</ele><time>2026-03-30T09:38:57.999Z</time></trkpt><trkpt lat="33.22922252801968" lon="9.20252372399932"><ele>103.0</ele><time>2026-03-30T09:38:58.999Z</time></trkpt><trkpt lat="33.229123601202346" lon="9.20239641619346"><ele>103.25</ele><time>2026-03-30T09:38:59.999Z</time></trkpt><trkpt lat="33.22902279889968" lon="9.20227300261752"><ele>103.5</ele><time>2026-03-30T09:39:00.999Z</time></trkpt><trkpt lat="33.22892190287093" lon="9.202148579433256"><ele>103.75</ele><time>2026-03-30T09:39:01.999Z</time></trkpt><trkpt lat="33.228817917212794" lon="9.202016637825661"><ele>104.0</ele><time>2026-03-30T09:39:02.999Z</time></trkpt><trkpt lat="33.22871857001558" lon="9.201893377576901"><ele>104.0</ele><time>2026-03-30T09:39:03.999Z</time></trkpt><trkpt lat="33.228622587886385" lon="9.201776613811512"><ele>104.0</ele><time>2026-03-30T09:39:04.999Z</time></trkpt><trkpt lat="33.22853266938205" lon="9.201649482634407"><ele>104.0</ele><time>2026-03-30T09:39:05.999Z</time></trkpt><trkpt lat="33.22844310039737" lon="9.201520771442327"><ele>104.0</ele><time>2026-03-30T09:39:06.999Z</time></trkpt><trkpt lat="33.22835152727925" lon="9.20139731153322"><ele>104.0</ele><time>2026-03-30T09:39:07.999Z</time></trkpt><trkpt lat="33.22826581472975" lon="9.201271787052065"><ele>104.0</ele><time>2026-03-30T09:39:08.999Z</time></trkpt><trkpt lat="33.2281780460218" lon="9.201158307107434"><ele>104.0</ele><time>2026-03-30T09:39:09.999Z</time></trkpt><trkpt lat="33.22808659729066" lon="9.201039714364928"><ele>104.0</ele><time>2026-03-30T09:39:10.999Z</time></trkpt><trkpt lat="33.228002975328884" lon="9.200923929738737"><ele>104.0</ele><time>2026-03-30T09:39:11.999Z</time></trkpt><trkpt lat="33.227921594675266" lon="9.200801740938788"><ele>104.0</ele><time>2026-03-30T09:39:12.999Z</time></trkpt><trkpt lat="33.227839030102714" lon="9.200689574328425"><ele>104.0</ele><time>2026-03-30T09:39:13.999Z</time></trkpt><trkpt lat="33.2277421605369" lon="9.200576463872936"><ele>104.0</ele><time>2026-03-30T09:39:14.999Z</time></trkpt><trkpt lat="33.227650693948945" lon="9.200459455653977"><ele>104.0</ele><time>2026-03-30T09:39:15.999Z</time></trkpt><trkpt lat="33.22757298231544" lon="9.200331622773401"><ele>104.0</ele><time>2026-03-30T09:39:16.999Z</time></trkpt><trkpt lat="33.227492727865304" lon="9.200204364165463"><ele>104.0</ele><time>2026-03-30T09:39:17.999Z</time></trkpt><trkpt lat="33.227403742440124" lon="9.200079499525339"><ele>104.0</ele><time>2026-03-30T09:39:18.999Z</time></trkpt><trkpt lat="33.22731658644182" lon="9.199968683783705"><ele>104.0</ele><time>2026-03-30T09:39:19.999Z</time></trkpt><trkpt lat="33.22723997777338" lon="9.199865844320286"><ele>104.0</ele><time>2026-03-30T09:39:20.999Z</time></trkpt><trkpt lat="33.22717195779779" lon="9.19977017361487"><ele>104.0</ele><time>2026-03-30T09:39:21.999Z</time></trkpt><trkpt lat="33.22710404746183" lon="9.19967231717902"><ele>104.0</ele><time>2026-03-30T09:39:22.999Z</time></trkpt><trkpt lat="33.22703281028062" lon="9.199558805532583"><ele>104.0</ele><time>2026-03-30T09:39:23.999Z</time></trkpt><trkpt lat="33.22696643536434" lon="9.199455655517419"><ele>104.0</ele><time>2026-03-30T09:39:24.999Z</time></trkpt><trkpt lat="33.2269020531393" lon="9.199365048261432"><ele>104.0</ele><time>2026-03-30T09:39:25.999Z</time></trkpt><trkpt lat="33.22683596091934" lon="9.19927280885869"><ele>104.0</ele><time>2026-03-30T09:39:26.999Z</time></trkpt><trkpt lat="33.22675955906534" lon="9.19917065652235"><ele>104.0</ele><time>2026-03-30T09:39:27.999Z</time></trkpt><trkpt lat="33.226690691671436" lon="9.199072179147137"><ele>104.0</ele><time>2026-03-30T09:39:28.999Z</time></trkpt><trkpt lat="33.226617659057375" lon="9.198961569976627"><ele>103.80000000000001</ele><time>2026-03-30T09:39:29.999Z</time></trkpt><trkpt lat="33.226541803898996" lon="9.19886203341759"><ele>103.60000000000001</ele><time>2026-03-30T09:39:30.999Z</time></trkpt><trkpt lat="33.22646274064771" lon="9.198752118366885"><ele>103.4</ele><time>2026-03-30T09:39:31.999Z</time></trkpt><trkpt lat="33.2263912455489" lon="9.198648923217334"><ele>103.2</ele><time>2026-03-30T09:39:32.999Z</time></trkpt><trkpt lat="33.226331574979326" lon="9.19854802934667"><ele>103.0</ele><time>2026-03-30T09:39:33.999Z</time></trkpt><trkpt lat="33.226271007782955" lon="9.198446401765358"><ele>103.0</ele><time>2026-03-30T09:39:34.999Z</time></trkpt><trkpt lat="33.226200181591985" lon="9.198342335647757"><ele>103.0</ele><time>2026-03-30T09:39:35.999Z</time></trkpt><trkpt lat="33.226123146454476" lon="9.198242292864055"><ele>103.0</ele><time>2026-03-30T09:39:36.999Z</time></trkpt><trkpt lat="33.226046098178095" lon="9.19814455862679"><ele>103.0</ele><time>2026-03-30T09:39:37.999Z</time></trkpt><trkpt lat="33.2259669230135" lon="9.198048216780442"><ele>103.25</ele><time>2026-03-30T09:39:38.999Z</time></trkpt><trkpt lat="33.225890516388866" lon="9.197954558607009"><ele>103.5</ele><time>2026-03-30T09:39:39.999Z</time></trkpt><trkpt lat="33.225806793170015" lon="9.197852256699564"><ele>103.75</ele><time>2026-03-30T09:39:40.999Z</time></trkpt><trkpt lat="33.22573569878194" lon="9.197745657009715"><ele>104.0</ele><time>2026-03-30T09:39:41.999Z</time></trkpt><trkpt lat="33.225673559967596" lon="9.197629437559359"><ele>104.0</ele><time>2026-03-30T09:39:42.999Z</time></trkpt><trkpt lat="33.22559547409585" lon="9.197512963995994"><ele>104.0</ele><time>2026-03-30T09:39:43.999Z</time></trkpt><trkpt lat="33.22552110333425" lon="9.197408428236496"><ele>104.0</ele><time>2026-03-30T09:39:44.999Z</time></trkpt><trkpt lat="33.22544253641068" lon="9.197301320921463"><ele>104.0</ele><time>2026-03-30T09:39:45.999Z</time></trkpt><trkpt lat="33.22535977543873" lon="9.197181652485046"><ele>104.0</ele><time>2026-03-30T09:39:46.999Z</time></trkpt><trkpt lat="33.22528538592071" lon="9.19706754041492"><ele>104.0</ele><time>2026-03-30T09:39:47.999Z</time></trkpt><trkpt lat="33.225222182064826" lon="9.196969556013201"><ele>104.0</ele><time>2026-03-30T09:39:48.999Z</time></trkpt><trkpt lat="33.22515644719747" lon="9.196875298678759"><ele>104.0</ele><time>2026-03-30T09:39:49.999Z</time></trkpt><trkpt lat="33.225084035075184" lon="9.19678963281176"><ele>104.0</ele><time>2026-03-30T09:39:50.999Z</time></trkpt><trkpt lat="33.22501127176063" lon="9.196692698576255"><ele>104.0</ele><time>2026-03-30T09:39:51.999Z</time></trkpt><trkpt lat="33.224943971797906" lon="9.196585682503718"><ele>104.0</ele><time>2026-03-30T09:39:52.999Z</time></trkpt><trkpt lat="33.22487500212962" lon="9.196478699597472"><ele>104.0</ele><time>2026-03-30T09:39:53.999Z</time></trkpt><trkpt lat="33.2248043630101" lon="9.196377916510624"><ele>104.0</ele><time>2026-03-30T09:39:54.999Z</time></trkpt><trkpt lat="33.22473277233439" lon="9.196277025130714"><ele>104.0</ele><time>2026-03-30T09:39:55.999Z</time></trkpt><trkpt lat="33.22466306757189" lon="9.196178873152514"><ele>104.2</ele><time>2026-03-30T09:39:56.999Z</time></trkpt><trkpt lat="33.22459291484911" lon="9.196077825735411"><ele>104.4</ele><time>2026-03-30T09:39:57.999Z</time></trkpt><trkpt lat="33.224528955518245" lon="9.195977276240779"><ele>104.6</ele><time>2026-03-30T09:39:58.999Z</time></trkpt><trkpt lat="33.224458574002114" lon="9.195872655162644"><ele>104.8</ele><time>2026-03-30T09:39:59.999Z</time></trkpt><trkpt lat="33.22439174403829" lon="9.195775926160493"><ele>105.0</ele><time>2026-03-30T09:40:00.999Z</time></trkpt><trkpt lat="33.22432674360901" lon="9.1956959425113"><ele>105.0</ele><time>2026-03-30T09:40:01.999Z</time></trkpt><trkpt lat="33.224263401496295" lon="9.19561604555747"><ele>105.0</ele><time>2026-03-30T09:40:02.999Z</time></trkpt><trkpt lat="33.22419226251938" lon="9.195504266457494"><ele>105.0</ele><time>2026-03-30T09:40:03.999Z</time></trkpt><trkpt lat="33.224127936220995" lon="9.195407562010603"><ele>105.0</ele><time>2026-03-30T09:40:04.999Z</time></trkpt><trkpt lat="33.2240606775754" lon="9.195319399555377"><ele>105.0</ele><time>2026-03-30T09:40:05.999Z</time></trkpt><trkpt lat="33.223975218630144" lon="9.195213439196738"><ele>105.25</ele><time>2026-03-30T09:40:06.999Z</time></trkpt><trkpt lat="33.22390335552521" lon="9.195117213349956"><ele>105.5</ele><time>2026-03-30T09:40:07.999Z</time></trkpt><trkpt lat="33.22383040504861" lon="9.195006593790128"><ele>105.75</ele><time>2026-03-30T09:40:08.999Z</time></trkpt><trkpt lat="33.22376308148522" lon="9.194891022356783"><ele>106.0</ele><time>2026-03-30T09:40:09.999Z</time></trkpt><trkpt lat="33.22369996376354" lon="9.19478778973799"><ele>106.25</ele><time>2026-03-30T09:40:10.999Z</time></trkpt><trkpt lat="33.223627923551405" lon="9.194677345906701"><ele>106.5</ele><time>2026-03-30T09:40:11.999Z</time></trkpt><trkpt lat="33.22355761494703" lon="9.194570625717475"><ele>106.75</ele><time>2026-03-30T09:40:12.999Z</time></trkpt><trkpt lat="33.22349574598405" lon="9.194468763759522"><ele>107.0</ele><time>2026-03-30T09:40:13.999Z</time></trkpt><trkpt lat="33.223419292852896" lon="9.194361191282077"><ele>107.0</ele><time>2026-03-30T09:40:14.999Z</time></trkpt><trkpt lat="33.22334673018768" lon="9.194256618614595"><ele>106.99999999999999</ele><time>2026-03-30T09:40:15.999Z</time></trkpt><trkpt lat="33.223276238873325" lon="9.194152747405742"><ele>106.99999999999999</ele><time>2026-03-30T09:40:16.999Z</time></trkpt><trkpt lat="33.22321355014319" lon="9.194065649808527"><ele>107.0</ele><time>2026-03-30T09:40:17.999Z</time></trkpt><trkpt lat="33.223152913725556" lon="9.193973749449489"><ele>107.0</ele><time>2026-03-30T09:40:18.999Z</time></trkpt><trkpt lat="33.22308661709292" lon="9.193874039277983"><ele>107.19999999999999</ele><time>2026-03-30T09:40:19.999Z</time></trkpt><trkpt lat="33.22301253269096" lon="9.19376453806764"><ele>107.39999999999999</ele><time>2026-03-30T09:40:20.999Z</time></trkpt><trkpt lat="33.22293824274308" lon="9.193663746637469"><ele>107.60000000000001</ele><time>2026-03-30T09:40:21.999Z</time></trkpt><trkpt lat="33.22286546198273" lon="9.193566870870779"><ele>107.80000000000001</ele><time>2026-03-30T09:40:22.999Z</time></trkpt><trkpt lat="33.222788488720035" lon="9.193478439771106"><ele>108.0</ele><time>2026-03-30T09:40:23.999Z</time></trkpt><trkpt lat="33.22270715729958" lon="9.193378300306302"><ele>108.0</ele><time>2026-03-30T09:40:24.999Z</time></trkpt><trkpt lat="33.2226322478585" lon="9.193270530413612"><ele>108.0</ele><time>2026-03-30T09:40:25.999Z</time></trkpt><trkpt lat="33.22256332746619" lon="9.193168510410018"><ele>108.0</ele><time>2026-03-30T09:40:26.999Z</time></trkpt><trkpt lat="33.22249221693939" lon="9.193058545504043"><ele>108.0</ele><time>2026-03-30T09:40:27.999Z</time></trkpt><trkpt lat="33.222417375634386" lon="9.192963415412752"><ele>107.75</ele><time>2026-03-30T09:40:28.999Z</time></trkpt><trkpt lat="33.2223464992299" lon="9.192866494935062"><ele>107.5</ele><time>2026-03-30T09:40:29.999Z</time></trkpt><trkpt lat="33.22226576340435" lon="9.192763228076657"><ele>107.25</ele><time>2026-03-30T09:40:30.999Z</time></trkpt><trkpt lat="33.22219299268003" lon="9.192657549985418"><ele>107.0</ele><time>2026-03-30T09:40:31.999Z</time></trkpt><trkpt lat="33.22211836963315" lon="9.192549358672617"><ele>107.0</ele><time>2026-03-30T09:40:32.999Z</time></trkpt><trkpt lat="33.22203721601467" lon="9.192442700528265"><ele>107.0</ele><time>2026-03-30T09:40:33.999Z</time></trkpt><trkpt lat="33.221961442580316" lon="9.192329200923892"><ele>107.0</ele><time>2026-03-30T09:40:34.999Z</time></trkpt><trkpt lat="33.22188319319327" lon="9.192210891110895"><ele>107.0</ele><time>2026-03-30T09:40:35.999Z</time></trkpt><trkpt lat="33.2218082528757" lon="9.192103403411977"><ele>107.0</ele><time>2026-03-30T09:40:36.999Z</time></trkpt><trkpt lat="33.22173182253922" lon="9.191995017302858"><ele>107.0</ele><time>2026-03-30T09:40:37.999Z</time></trkpt><trkpt lat="33.22165931589366" lon="9.191890133561191"><ele>107.0</ele><time>2026-03-30T09:40:38.999Z</time></trkpt><trkpt lat="33.22158824559194" lon="9.191794047663297"><ele>107.0</ele><time>2026-03-30T09:40:39.999Z</time></trkpt><trkpt lat="33.221512953784064" lon="9.19168415529677"><ele>107.25</ele><time>2026-03-30T09:40:40.999Z</time></trkpt><trkpt lat="33.22144245098573" lon="9.191575900429704"><ele>107.5</ele><time>2026-03-30T09:40:41.999Z</time></trkpt><trkpt lat="33.221373402301715" lon="9.191458267043782"><ele>107.75</ele><time>2026-03-30T09:40:42.999Z</time></trkpt><trkpt lat="33.22129982789298" lon="9.191346814079248"><ele>108.0</ele><time>2026-03-30T09:40:43.999Z</time></trkpt><trkpt lat="33.221221285643004" lon="9.191238061992212"><ele>108.0</ele><time>2026-03-30T09:40:44.999Z</time></trkpt><trkpt lat="33.22113831228061" lon="9.191124321154353"><ele>108.0</ele><time>2026-03-30T09:40:45.999Z</time></trkpt><trkpt lat="33.22106910723076" lon="9.191024116654328"><ele>108.0</ele><time>2026-03-30T09:40:46.999Z</time></trkpt><trkpt lat="33.22099589973495" lon="9.190917846512264"><ele>108.0</ele><time>2026-03-30T09:40:47.999Z</time></trkpt><trkpt lat="33.22092501744025" lon="9.190807332118096"><ele>108.0</ele><time>2026-03-30T09:40:48.999Z</time></trkpt><trkpt lat="33.22085630333311" lon="9.190712383787682"><ele>108.00000000000001</ele><time>2026-03-30T09:40:49.999Z</time></trkpt><trkpt lat="33.22079084852301" lon="9.190623668852808"><ele>108.00000000000001</ele><time>2026-03-30T09:40:50.999Z</time></trkpt><trkpt lat="33.220712428104136" lon="9.190524092925154"><ele>108.0</ele><time>2026-03-30T09:40:51.999Z</time></trkpt><trkpt lat="33.220631548406544" lon="9.19040876109417"><ele>108.0</ele><time>2026-03-30T09:40:52.999Z</time></trkpt><trkpt lat="33.22057087899142" lon="9.190302447930101"><ele>109.0</ele><time>2026-03-30T09:40:53.999Z</time></trkpt><trkpt lat="33.22047514933471" lon="9.19020795516806"><ele>110.0</ele><time>2026-03-30T09:40:54.999Z</time></trkpt><trkpt lat="33.22038646439738" lon="9.19010651160888"><ele>111.0</ele><time>2026-03-30T09:40:55.999Z</time></trkpt><trkpt lat="33.22030417358777" lon="9.18999850444879"><ele>112.0</ele><time>2026-03-30T09:40:56.999Z</time></trkpt><trkpt lat="33.22022695167335" lon="9.189888065684046"><ele>111.75</ele><time>2026-03-30T09:40:57.999Z</time></trkpt><trkpt lat="33.22014216646746" lon="9.189777673455689"><ele>111.5</ele><time>2026-03-30T09:40:58.999Z</time></trkpt><trkpt lat="33.22006583322627" lon="9.189663053280105"><ele>111.25</ele><time>2026-03-30T09:40:59.999Z</time></trkpt><trkpt lat="33.21998804291146" lon="9.189548544897233"><ele>111.0</ele><time>2026-03-30T09:41:00.999Z</time></trkpt><trkpt lat="33.21990502674374" lon="9.189436173226554"><ele>111.0</ele><time>2026-03-30T09:41:01.999Z</time></trkpt><trkpt lat="33.21982741031204" lon="9.189325969970831"><ele>111.0</ele><time>2026-03-30T09:41:02.999Z</time></trkpt><trkpt lat="33.219738597241715" lon="9.189212357068145"><ele>111.0</ele><time>2026-03-30T09:41:03.999Z</time></trkpt><trkpt lat="33.21967104987598" lon="9.189113867748505"><ele>111.0</ele><time>2026-03-30T09:41:04.999Z</time></trkpt><trkpt lat="33.21959385240496" lon="9.188998758916487"><ele>111.75</ele><time>2026-03-30T09:41:05.999Z</time></trkpt><trkpt lat="33.21952370712341" lon="9.188894891597325"><ele>112.5</ele><time>2026-03-30T09:41:06.999Z</time></trkpt><trkpt lat="33.219454230770154" lon="9.188764210733778"><ele>113.25</ele><time>2026-03-30T09:41:07.999Z</time></trkpt><trkpt lat="33.21939742127999" lon="9.188655171316086"><ele>114.0</ele><time>2026-03-30T09:41:08.999Z</time></trkpt><trkpt lat="33.21932253405562" lon="9.188550162917574"><ele>114.0</ele><time>2026-03-30T09:41:09.999Z</time></trkpt><trkpt lat="33.21923346624486" lon="9.188437873839817"><ele>114.0</ele><time>2026-03-30T09:41:10.999Z</time></trkpt><trkpt lat="33.21915008921103" lon="9.188331211169212"><ele>114.0</ele><time>2026-03-30T09:41:11.999Z</time></trkpt><trkpt lat="33.21906103060232" lon="9.188222173945976"><ele>114.0</ele><time>2026-03-30T09:41:12.999Z</time></trkpt><trkpt lat="33.21898897071421" lon="9.188116527847473"><ele>114.0</ele><time>2026-03-30T09:41:13.999Z</time></trkpt><trkpt lat="33.21890811371179" lon="9.187996436738194"><ele>114.0</ele><time>2026-03-30T09:41:14.999Z</time></trkpt><trkpt lat="33.218829349759545" lon="9.187868324278545"><ele>114.0</ele><time>2026-03-30T09:41:15.999Z</time></trkpt><trkpt lat="33.21874449966897" lon="9.187750166447826"><ele>114.0</ele><time>2026-03-30T09:41:16.999Z</time></trkpt><trkpt lat="33.21865620313054" lon="9.1876296870846"><ele>114.0</ele><time>2026-03-30T09:41:17.999Z</time></trkpt><trkpt lat="33.21857246443145" lon="9.187505556276118"><ele>114.0</ele><time>2026-03-30T09:41:18.999Z</time></trkpt><trkpt lat="33.21848262268011" lon="9.187383200975482"><ele>114.0</ele><time>2026-03-30T09:41:19.999Z</time></trkpt><trkpt lat="33.218395287877236" lon="9.18725950408"><ele>114.0</ele><time>2026-03-30T09:41:20.999Z</time></trkpt><trkpt lat="33.21830305577339" lon="9.18713715866384"><ele>114.0</ele><time>2026-03-30T09:41:21.999Z</time></trkpt><trkpt lat="33.218211900714465" lon="9.18702062981473"><ele>114.0</ele><time>2026-03-30T09:41:22.999Z</time></trkpt><trkpt lat="33.21812287933897" lon="9.18690431542123"><ele>114.0</ele><time>2026-03-30T09:41:23.999Z</time></trkpt><trkpt lat="33.21804118029026" lon="9.186782750910039"><ele>114.0</ele><time>2026-03-30T09:41:24.999Z</time></trkpt><trkpt lat="33.21796040481175" lon="9.186663680125315"><ele>114.0</ele><time>2026-03-30T09:41:25.999Z</time></trkpt><trkpt lat="33.217878580193464" lon="9.186546467827085"><ele>114.0</ele><time>2026-03-30T09:41:26.999Z</time></trkpt><trkpt lat="33.21778171540606" lon="9.186417330323385"><ele>114.0</ele><time>2026-03-30T09:41:27.999Z</time></trkpt><trkpt lat="33.21768105239391" lon="9.186281030946297"><ele>114.0</ele><time>2026-03-30T09:41:28.999Z</time></trkpt><trkpt lat="33.217580367868266" lon="9.186136675577648"><ele>114.0</ele><time>2026-03-30T09:41:29.999Z</time></trkpt><trkpt lat="33.21749296619319" lon="9.186010767603081"><ele>114.0</ele><time>2026-03-30T09:41:30.999Z</time></trkpt><trkpt lat="33.21740868204488" lon="9.185890405238453"><ele>114.0</ele><time>2026-03-30T09:41:31.999Z</time></trkpt><trkpt lat="33.217325606190784" lon="9.185774396519303"><ele>114.0</ele><time>2026-03-30T09:41:32.999Z</time></trkpt><trkpt lat="33.21722665856789" lon="9.185642332933556"><ele>113.5</ele><time>2026-03-30T09:41:33.999Z</time></trkpt><trkpt lat="33.21713225168" lon="9.1855185453163"><ele>113.0</ele><time>2026-03-30T09:41:34.999Z</time></trkpt><trkpt lat="33.21704352746941" lon="9.18539338902016"><ele>112.5</ele><time>2026-03-30T09:41:35.999Z</time></trkpt><trkpt lat="33.216947229533126" lon="9.185260796261458"><ele>112.0</ele><time>2026-03-30T09:41:36.999Z</time></trkpt><trkpt lat="33.216853736908156" lon="9.185131575185483"><ele>112.0</ele><time>2026-03-30T09:41:37.999Z</time></trkpt><trkpt lat="33.21676201980913" lon="9.185001047070529"><ele>112.0</ele><time>2026-03-30T09:41:38.999Z</time></trkpt><trkpt lat="33.21667896322396" lon="9.184872743488361"><ele>112.0</ele><time>2026-03-30T09:41:39.999Z</time></trkpt><trkpt lat="33.21658886555088" lon="9.184745303044497"><ele>112.0</ele><time>2026-03-30T09:41:40.999Z</time></trkpt><trkpt lat="33.216495912666566" lon="9.184607767461312"><ele>112.5</ele><time>2026-03-30T09:41:41.999Z</time></trkpt><trkpt lat="33.21641629668394" lon="9.184477442556487"><ele>113.0</ele><time>2026-03-30T09:41:42.999Z</time></trkpt><trkpt lat="33.21632268400712" lon="9.184339486957558"><ele>113.5</ele><time>2026-03-30T09:41:43.999Z</time></trkpt><trkpt lat="33.21622363553037" lon="9.18420725115553"><ele>114.0</ele><time>2026-03-30T09:41:44.999Z</time></trkpt><trkpt lat="33.21613223588511" lon="9.184082531316163"><ele>114.0</ele><time>2026-03-30T09:41:45.999Z</time></trkpt><trkpt lat="33.21603888756259" lon="9.183949221476263"><ele>114.0</ele><time>2026-03-30T09:41:46.999Z</time></trkpt><trkpt lat="33.21594842389889" lon="9.183826624995685"><ele>114.0</ele><time>2026-03-30T09:41:47.999Z</time></trkpt><trkpt lat="33.21584807681545" lon="9.183693687644869"><ele>114.0</ele><time>2026-03-30T09:41:48.999Z</time></trkpt><trkpt lat="33.21576479285218" lon="9.183573801309194"><ele>114.0</ele><time>2026-03-30T09:41:49.999Z</time></trkpt><trkpt lat="33.21566085394253" lon="9.183446035582747"><ele>114.0</ele><time>2026-03-30T09:41:50.999Z</time></trkpt><trkpt lat="33.21555482208655" lon="9.183310801874768"><ele>114.0</ele><time>2026-03-30T09:41:51.999Z</time></trkpt><trkpt lat="33.21545540033342" lon="9.1831706735678"><ele>114.25</ele><time>2026-03-30T09:41:52.999Z</time></trkpt><trkpt lat="33.21537028028692" lon="9.18303203258874"><ele>114.5</ele><time>2026-03-30T09:41:53.999Z</time></trkpt><trkpt lat="33.21528514026995" lon="9.182880437183512"><ele>114.75</ele><time>2026-03-30T09:41:54.999Z</time></trkpt><trkpt lat="33.215197145874335" lon="9.182745094255928"><ele>115.0</ele><time>2026-03-30T09:41:55.999Z</time></trkpt><trkpt lat="33.21509240187334" lon="9.182610141247926"><ele>115.0</ele><time>2026-03-30T09:41:56.999Z</time></trkpt><trkpt lat="33.21499002968366" lon="9.182473464935867"><ele>115.0</ele><time>2026-03-30T09:41:57.999Z</time></trkpt><trkpt lat="33.214885691887865" lon="9.182335190817188"><ele>115.0</ele><time>2026-03-30T09:41:58.999Z</time></trkpt><trkpt lat="33.214790880850636" lon="9.182192276749166"><ele>114.5</ele><time>2026-03-30T09:41:59.999Z</time></trkpt><trkpt lat="33.21469255924926" lon="9.182050266212899"><ele>114.0</ele><time>2026-03-30T09:42:00.999Z</time></trkpt><trkpt lat="33.21460311141276" lon="9.18191127830112"><ele>113.5</ele><time>2026-03-30T09:42:01.999Z</time></trkpt><trkpt lat="33.21451507916997" lon="9.18178649987655"><ele>113.0</ele><time>2026-03-30T09:42:02.999Z</time></trkpt><trkpt lat="33.21441713935117" lon="9.181641134881936"><ele>113.0</ele><time>2026-03-30T09:42:03.999Z</time></trkpt><trkpt lat="33.214318697641396" lon="9.181492150845727"><ele>113.0</ele><time>2026-03-30T09:42:04.999Z</time></trkpt><trkpt lat="33.21421566978876" lon="9.181350185860113"><ele>113.0</ele><time>2026-03-30T09:42:05.999Z</time></trkpt><trkpt lat="33.21410808135526" lon="9.181200061499311"><ele>113.0</ele><time>2026-03-30T09:42:06.999Z</time></trkpt><trkpt lat="33.213999306426416" lon="9.181041407869492"><ele>113.0</ele><time>2026-03-30T09:42:08Z</time></trkpt><trkpt lat="33.21390494830715" lon="9.180900157913685"><ele>113.0</ele><time>2026-03-30T09:42:09Z</time></trkpt><trkpt lat="33.2138069081859" lon="9.180757981310576"><ele>112.66666666666666</ele><time>2026-03-30T09:42:10Z</time></trkpt><trkpt lat="33.213703938634495" lon="9.180624495353571"><ele>112.33333333333334</ele><time>2026-03-30T09:42:11Z</time></trkpt><trkpt lat="33.21360078810294" lon="9.18046933697399"><ele>112.0</ele><time>2026-03-30T09:42:12Z</time></trkpt><trkpt lat="33.21348358477362" lon="9.18030695205208"><ele>112.0</ele><time>2026-03-30T09:42:13Z</time></trkpt><trkpt lat="33.213359304204296" lon="9.180147370391289"><ele>112.0</ele><time>2026-03-30T09:42:14Z</time></trkpt><trkpt lat="33.21324743585096" lon="9.179993969509207"><ele>112.0</ele><time>2026-03-30T09:42:15Z</time></trkpt><trkpt lat="33.21314574054596" lon="9.179838536129239"><ele>113.0</ele><time>2026-03-30T09:42:16Z</time></trkpt><trkpt lat="33.21303731369164" lon="9.179669380740327"><ele>114.0</ele><time>2026-03-30T09:42:17Z</time></trkpt><trkpt lat="33.21293200683956" lon="9.179520027230392"><ele>115.0</ele><time>2026-03-30T09:42:18Z</time></trkpt><trkpt lat="33.21281255533101" lon="9.179361437876222"><ele>115.0</ele><time>2026-03-30T09:42:19Z</time></trkpt><trkpt lat="33.212710113647766" lon="9.179219896623772"><ele>115.0</ele><time>2026-03-30T09:42:20Z</time></trkpt><trkpt lat="33.21260998974582" lon="9.17907650863366"><ele>115.0</ele><time>2026-03-30T09:42:21Z</time></trkpt><trkpt lat="33.21249612535399" lon="9.178919968745786"><ele>114.66666666666667</ele><time>2026-03-30T09:42:22Z</time></trkpt><trkpt lat="33.212373330593294" lon="9.17874223455608"><ele>114.33333333333334</ele><time>2026-03-30T09:42:23Z</time></trkpt><trkpt lat="33.212248678149734" lon="9.178571921463966"><ele>114.0</ele><time>2026-03-30T09:42:24Z</time></trkpt><trkpt lat="33.21214210828547" lon="9.178430122050996"><ele>114.0</ele><time>2026-03-30T09:42:25Z</time></trkpt><trkpt lat="33.21203675138316" lon="9.178274549063492"><ele>114.0</ele><time>2026-03-30T09:42:26Z</time></trkpt><trkpt lat="33.21193511409642" lon="9.178117973701609"><ele>114.0</ele><time>2026-03-30T09:42:27Z</time></trkpt><trkpt lat="33.21183062153017" lon="9.177958193216252"><ele>114.0</ele><time>2026-03-30T09:42:28Z</time></trkpt><trkpt lat="33.211728285947174" lon="9.177810445385912"><ele>114.0</ele><time>2026-03-30T09:42:29Z</time></trkpt><trkpt lat="33.21160992318859" lon="9.177665313552895"><ele>114.0</ele><time>2026-03-30T09:42:30Z</time></trkpt><trkpt lat="33.211514733565494" lon="9.177540701623542"><ele>114.33333333333334</ele><time>2026-03-30T09:42:31Z</time></trkpt><trkpt lat="33.21141432683201" lon="9.177415396693643"><ele>114.66666666666667</ele><time>2026-03-30T09:42:32Z</time></trkpt><trkpt lat="33.21131189517554" lon="9.177276850006905"><ele>115.0</ele><time>2026-03-30T09:42:33Z</time></trkpt><trkpt lat="33.2112129929586" lon="9.177127987522887"><ele>115.0</ele><time>2026-03-30T09:42:34Z</time></trkpt><trkpt lat="33.21111641804953" lon="9.17697959928411"><ele>115.0</ele><time>2026-03-30T09:42:35Z</time></trkpt><trkpt lat="33.21102228302064" lon="9.17683509361014"><ele>115.0</ele><time>2026-03-30T09:42:36Z</time></trkpt><trkpt lat="33.21092467667012" lon="9.17669458271556"><ele>115.0</ele><time>2026-03-30T09:42:37Z</time></trkpt><trkpt lat="33.21082268330971" lon="9.176550170497586"><ele>115.0</ele><time>2026-03-30T09:42:38Z</time></trkpt><trkpt lat="33.21071536083083" lon="9.176402281630013"><ele>115.0</ele><time>2026-03-30T09:42:39Z</time></trkpt><trkpt lat="33.21061203650912" lon="9.176263733191288"><ele>115.33333333333334</ele><time>2026-03-30T09:42:40Z</time></trkpt><trkpt lat="33.21051121163774" lon="9.176121280349232"><ele>115.66666666666666</ele><time>2026-03-30T09:42:41Z</time></trkpt><trkpt lat="33.21041081734244" lon="9.175979271065946"><ele>116.0</ele><time>2026-03-30T09:42:42Z</time></trkpt><trkpt lat="33.21031272065705" lon="9.17583902598707"><ele>116.0</ele><time>2026-03-30T09:42:43Z</time></trkpt><trkpt lat="33.21021543294475" lon="9.175701751569804"><ele>116.0</ele><time>2026-03-30T09:42:44Z</time></trkpt><trkpt lat="33.21011750255497" lon="9.175565015949953"><ele>116.0</ele><time>2026-03-30T09:42:45Z</time></trkpt><trkpt lat="33.21001894089199" lon="9.175421794073463"><ele>116.0</ele><time>2026-03-30T09:42:46Z</time></trkpt><trkpt lat="33.209919086177216" lon="9.175280591504515"><ele>116.0</ele><time>2026-03-30T09:42:47Z</time></trkpt><trkpt lat="33.209829799131406" lon="9.17514613577749"><ele>116.0</ele><time>2026-03-30T09:42:48Z</time></trkpt><trkpt lat="33.20974356651117" lon="9.175016101743399"><ele>116.0</ele><time>2026-03-30T09:42:49Z</time></trkpt><trkpt lat="33.20964939809196" lon="9.174889102477911"><ele>116.0</ele><time>2026-03-30T09:42:50Z</time></trkpt><trkpt lat="33.20954873529966" lon="9.174754420932583"><ele>116.0</ele><time>2026-03-30T09:42:51Z</time></trkpt><trkpt lat="33.209450611942785" lon="9.174615286059774"><ele>116.0</ele><time>2026-03-30T09:42:52Z</time></trkpt><trkpt lat="33.209356010910554" lon="9.174483170136778"><ele>116.0</ele><time>2026-03-30T09:42:53Z</time></trkpt><trkpt lat="33.209266010081734" lon="9.174340074246643"><ele>116.0</ele><time>2026-03-30T09:42:54Z</time></trkpt><trkpt lat="33.209179305993885" lon="9.174206899647153"><ele>116.0</ele><time>2026-03-30T09:42:55Z</time></trkpt><trkpt lat="33.20909536087859" lon="9.174074374206368"><ele>116.0</ele><time>2026-03-30T09:42:56Z</time></trkpt><trkpt lat="33.20900170871099" lon="9.173947692858063"><ele>116.0</ele><time>2026-03-30T09:42:57Z</time></trkpt><trkpt lat="33.20890901620577" lon="9.17382259499317"><ele>116.75</ele><time>2026-03-30T09:42:58Z</time></trkpt><trkpt lat="33.208816496554874" lon="9.173697664923115"><ele>117.5</ele><time>2026-03-30T09:42:59Z</time></trkpt><trkpt lat="33.20872817035832" lon="9.173567884078214"><ele>118.25</ele><time>2026-03-30T09:43:00Z</time></trkpt><trkpt lat="33.20865371089938" lon="9.173446985482718"><ele>119.0</ele><time>2026-03-30T09:43:01Z</time></trkpt><trkpt lat="33.20859444199878" lon="9.173340429447986"><ele>119.0</ele><time>2026-03-30T09:43:02Z</time></trkpt><trkpt lat="33.208520253839126" lon="9.17323133161432"><ele>119.0</ele><time>2026-03-30T09:43:03Z</time></trkpt><trkpt lat="33.20844486563434" lon="9.173119310329293"><ele>119.0</ele><time>2026-03-30T09:43:04Z</time></trkpt><trkpt lat="33.20837069783315" lon="9.173014259113991"><ele>119.0</ele><time>2026-03-30T09:43:05Z</time></trkpt><trkpt lat="33.208287297010784" lon="9.172896679566184"><ele>118.75</ele><time>2026-03-30T09:43:06Z</time></trkpt><trkpt lat="33.20819899567105" lon="9.172756226067865"><ele>118.5</ele><time>2026-03-30T09:43:07Z</time></trkpt><trkpt lat="33.20810074761575" lon="9.172627136359875"><ele>118.25</ele><time>2026-03-30T09:43:08Z</time></trkpt><trkpt lat="33.2080035109729" lon="9.172498852906406"><ele>118.0</ele><time>2026-03-30T09:43:09Z</time></trkpt><trkpt lat="33.20790867483673" lon="9.172370258909151"><ele>118.0</ele><time>2026-03-30T09:43:09.999Z</time></trkpt><trkpt lat="33.20781579444123" lon="9.172243231908965"><ele>118.0</ele><time>2026-03-30T09:43:10.999Z</time></trkpt><trkpt lat="33.2077333512892" lon="9.172112625505402"><ele>118.0</ele><time>2026-03-30T09:43:11.999Z</time></trkpt><trkpt lat="33.20764754867785" lon="9.171983568632863"><ele>118.0</ele><time>2026-03-30T09:43:12.999Z</time></trkpt><trkpt lat="33.20755425068001" lon="9.171852518231645"><ele>118.0</ele><time>2026-03-30T09:43:13.999Z</time></trkpt><trkpt lat="33.20745885094025" lon="9.171724388331471"><ele>118.0</ele><time>2026-03-30T09:43:14.999Z</time></trkpt><trkpt lat="33.2073722755661" lon="9.17160732308616"><ele>118.0</ele><time>2026-03-30T09:43:15.999Z</time></trkpt><trkpt lat="33.207280658575016" lon="9.171472594904525"><ele>118.0</ele><time>2026-03-30T09:43:16.999Z</time></trkpt><trkpt lat="33.207190914554836" lon="9.171349817479694"><ele>118.0</ele><time>2026-03-30T09:43:17.999Z</time></trkpt><trkpt lat="33.20709411272849" lon="9.171223921557687"><ele>118.0</ele><time>2026-03-30T09:43:18.999Z</time></trkpt><trkpt lat="33.20699505186383" lon="9.171101374652938"><ele>118.0</ele><time>2026-03-30T09:43:19.999Z</time></trkpt><trkpt lat="33.20690007333272" lon="9.170968894464943"><ele>118.0</ele><time>2026-03-30T09:43:20.999Z</time></trkpt><trkpt lat="33.20681415109753" lon="9.170834693686894"><ele>118.0</ele><time>2026-03-30T09:43:21.999Z</time></trkpt><trkpt lat="33.20672879701981" lon="9.170696309141876"><ele>118.0</ele><time>2026-03-30T09:43:22.999Z</time></trkpt><trkpt lat="33.206647716704005" lon="9.170577863802624"><ele>118.0</ele><time>2026-03-30T09:43:23.999Z</time></trkpt><trkpt lat="33.206570014960796" lon="9.17046058022856"><ele>118.0</ele><time>2026-03-30T09:43:24.999Z</time></trkpt><trkpt lat="33.20649071652932" lon="9.170356037390928"><ele>118.0</ele><time>2026-03-30T09:43:25.999Z</time></trkpt><trkpt lat="33.20641806899104" lon="9.170261282047248"><ele>118.0</ele><time>2026-03-30T09:43:26.999Z</time></trkpt><trkpt lat="33.20634411606529" lon="9.170171892022319"><ele>118.0</ele><time>2026-03-30T09:43:27.999Z</time></trkpt><trkpt lat="33.2062601513897" lon="9.170069099028971"><ele>118.0</ele><time>2026-03-30T09:43:28.999Z</time></trkpt><trkpt lat="33.20617441845938" lon="9.169961228374545"><ele>117.75</ele><time>2026-03-30T09:43:29.999Z</time></trkpt><trkpt lat="33.206094262284374" lon="9.169850754558725"><ele>117.5</ele><time>2026-03-30T09:43:30.999Z</time></trkpt><trkpt lat="33.206011664824004" lon="9.169732436478084"><ele>117.25</ele><time>2026-03-30T09:43:31.999Z</time></trkpt><trkpt lat="33.20593657682132" lon="9.169625364151425"><ele>117.0</ele><time>2026-03-30T09:43:32.999Z</time></trkpt><trkpt lat="33.20586210598226" lon="9.16950859461037"><ele>117.0</ele><time>2026-03-30T09:43:33.999Z</time></trkpt><trkpt lat="33.205784598614024" lon="9.169386659674421"><ele>117.0</ele><time>2026-03-30T09:43:34.999Z</time></trkpt><trkpt lat="33.20570642635912" lon="9.16927118246463"><ele>117.0</ele><time>2026-03-30T09:43:35.999Z</time></trkpt><trkpt lat="33.20562769118374" lon="9.169149473167632"><ele>117.0</ele><time>2026-03-30T09:43:36.999Z</time></trkpt><trkpt lat="33.205551424160184" lon="9.169028043228495"><ele>117.75</ele><time>2026-03-30T09:43:37.999Z</time></trkpt><trkpt lat="33.205470639435525" lon="9.16890892437469"><ele>118.5</ele><time>2026-03-30T09:43:38.999Z</time></trkpt><trkpt lat="33.2053908085612" lon="9.16880174390499"><ele>119.25</ele><time>2026-03-30T09:43:39.999Z</time></trkpt><trkpt lat="33.205306558413945" lon="9.168694590192272"><ele>120.0</ele><time>2026-03-30T09:43:40.999Z</time></trkpt><trkpt lat="33.20521890307387" lon="9.168575604659006"><ele>120.0</ele><time>2026-03-30T09:43:41.999Z</time></trkpt><trkpt lat="33.20513797497339" lon="9.168462355252688"><ele>120.0</ele><time>2026-03-30T09:43:42.999Z</time></trkpt><trkpt lat="33.205050225713265" lon="9.168343765741609"><ele>120.0</ele><time>2026-03-30T09:43:43.999Z</time></trkpt><trkpt lat="33.20498246356074" lon="9.168233075868992"><ele>120.0</ele><time>2026-03-30T09:43:44.999Z</time></trkpt><trkpt lat="33.204909243589185" lon="9.168124449077593"><ele>120.5</ele><time>2026-03-30T09:43:45.999Z</time></trkpt><trkpt lat="33.20482687469823" lon="9.168014558340616"><ele>121.0</ele><time>2026-03-30T09:43:46.999Z</time></trkpt><trkpt lat="33.20474833229542" lon="9.167910633744638"><ele>121.5</ele><time>2026-03-30T09:43:47.999Z</time></trkpt><trkpt lat="33.20466702577831" lon="9.167795421368252"><ele>122.0</ele><time>2026-03-30T09:43:48.999Z</time></trkpt><trkpt lat="33.20458890760725" lon="9.16768897309121"><ele>122.0</ele><time>2026-03-30T09:43:49.999Z</time></trkpt><trkpt lat="33.204503269188244" lon="9.16756943191275"><ele>122.0</ele><time>2026-03-30T09:43:50.999Z</time></trkpt><trkpt lat="33.20441885015449" lon="9.167451387796614"><ele>122.0</ele><time>2026-03-30T09:43:51.999Z</time></trkpt><trkpt lat="33.20433717179113" lon="9.167333199617183"><ele>122.0</ele><time>2026-03-30T09:43:52.999Z</time></trkpt><trkpt lat="33.20424897318864" lon="9.167203044113622"><ele>122.0</ele><time>2026-03-30T09:43:53.999Z</time></trkpt><trkpt lat="33.2041599963127" lon="9.167076076441429"><ele>122.0</ele><time>2026-03-30T09:43:54.999Z</time></trkpt><trkpt lat="33.20406438339699" lon="9.166948040655635"><ele>122.0</ele><time>2026-03-30T09:43:55.999Z</time></trkpt><trkpt lat="33.2039917983545" lon="9.166833338595243"><ele>122.0</ele><time>2026-03-30T09:43:56.999Z</time></trkpt><trkpt lat="33.203908783484685" lon="9.166707238060193"><ele>122.5</ele><time>2026-03-30T09:43:57.999Z</time></trkpt><trkpt lat="33.20381145384816" lon="9.166574699249901"><ele>123.0</ele><time>2026-03-30T09:43:58.999Z</time></trkpt><trkpt lat="33.20371913517917" lon="9.166457572637022"><ele>123.5</ele><time>2026-03-30T09:43:59.999Z</time></trkpt><trkpt lat="33.20362798209787" lon="9.16634134648389"><ele>124.0</ele><time>2026-03-30T09:44:00.999Z</time></trkpt><trkpt lat="33.20353931062782" lon="9.166218193701752"><ele>124.0</ele><time>2026-03-30T09:44:01.999Z</time></trkpt><trkpt lat="33.2034667799393" lon="9.166112984903142"><ele>124.0</ele><time>2026-03-30T09:44:02.999Z</time></trkpt><trkpt lat="33.20340471399848" lon="9.166015008914457"><ele>124.0</ele><time>2026-03-30T09:44:03.999Z</time></trkpt><trkpt lat="33.20335024284331" lon="9.165923499024759"><ele>124.0</ele><time>2026-03-30T09:44:04.999Z</time></trkpt><trkpt lat="33.20329372896519" lon="9.16584875912294"><ele>124.0</ele><time>2026-03-30T09:44:05.999Z</time></trkpt><trkpt lat="33.20324679732274" lon="9.165777573963583"><ele>124.0</ele><time>2026-03-30T09:44:06.999Z</time></trkpt><trkpt lat="33.20321231519797" lon="9.165708986814279"><ele>124.0</ele><time>2026-03-30T09:44:07.999Z</time></trkpt><trkpt lat="33.20314386649856" lon="9.165588454527871"><ele>124.0</ele><time>2026-03-30T09:44:09.999Z</time></trkpt><trkpt lat="33.20306272577426" lon="9.165481176971669"><ele>124.0</ele><time>2026-03-30T09:44:11.999Z</time></trkpt><trkpt lat="33.20301585540819" lon="9.165414138883579"><ele>124.0</ele><time>2026-03-30T09:44:12.999Z</time></trkpt><trkpt lat="33.202967214012574" lon="9.165328533028164"><ele>124.0</ele><time>2026-03-30T09:44:15Z</time></trkpt><trkpt lat="33.202910028675646" lon="9.165269853284943"><ele>124.0</ele><time>2026-03-30T09:44:59Z</time></trkpt><trkpt lat="33.202840048972256" lon="9.165160774975371"><ele>124.0</ele><time>2026-03-30T09:46:07Z</time></trkpt><trkpt lat="33.202762471782975" lon="9.165054108280787"><ele>124.0</ele><time>2026-03-30T09:46:09Z</time></trkpt><trkpt lat="33.202687448313284" lon="9.1649587466208"><ele>124.0</ele><time>2026-03-30T09:46:11Z</time></trkpt><trkpt lat="33.20258761086066" lon="9.164870466622029"><ele>124.2</ele><time>2026-03-30T09:46:13Z</time></trkpt><trkpt lat="33.20252218890492" lon="9.16478326689555"><ele>124.4</ele><time>2026-03-30T09:46:15Z</time></trkpt><trkpt lat="33.202465232984245" lon="9.164714846514922"><ele>124.6</ele><time>2026-03-30T09:46:17Z</time></trkpt><trkpt lat="33.20239333526992" lon="9.164611182493857"><ele>124.8</ele><time>2026-03-30T09:46:19Z</time></trkpt><trkpt lat="33.20230811340576" lon="9.164508314707053"><ele>125.0</ele><time>2026-03-30T09:46:21Z</time></trkpt><trkpt lat="33.20225406719062" lon="9.164438412790659"><ele>124.6</ele><time>2026-03-30T09:46:22Z</time></trkpt><trkpt lat="33.2021953329237" lon="9.164360453678217"><ele>124.2</ele><time>2026-03-30T09:46:23Z</time></trkpt><trkpt lat="33.202136690050324" lon="9.164285969343718"><ele>123.80000000000001</ele><time>2026-03-30T09:46:24Z</time></trkpt><trkpt lat="33.20207810871154" lon="9.164204122563286"><ele>123.4</ele><time>2026-03-30T09:46:25Z</time></trkpt><trkpt lat="33.20201649945103" lon="9.164123693424756"><ele>123.0</ele><time>2026-03-30T09:46:26Z</time></trkpt><trkpt lat="33.20194720450486" lon="9.164038832214613"><ele>123.4</ele><time>2026-03-30T09:46:27Z</time></trkpt><trkpt lat="33.20187580406785" lon="9.163957426308551"><ele>123.80000000000001</ele><time>2026-03-30T09:46:28Z</time></trkpt><trkpt lat="33.20180675223164" lon="9.163886669918625"><ele>124.2</ele><time>2026-03-30T09:46:29Z</time></trkpt><trkpt lat="33.201735785741455" lon="9.163816518983015"><ele>124.6</ele><time>2026-03-30T09:46:30Z</time></trkpt><trkpt lat="33.20166236127847" lon="9.1637351997462"><ele>125.0</ele><time>2026-03-30T09:46:31Z</time></trkpt><trkpt lat="33.2015974631751" lon="9.163644509265415"><ele>125.0</ele><time>2026-03-30T09:46:32Z</time></trkpt><trkpt lat="33.20153728909709" lon="9.163545325076397"><ele>125.0</ele><time>2026-03-30T09:46:33Z</time></trkpt><trkpt lat="33.20147418219364" lon="9.163430734104475"><ele>125.0</ele><time>2026-03-30T09:46:34Z</time></trkpt><trkpt lat="33.201403782513346" lon="9.163317339390543"><ele>125.0</ele><time>2026-03-30T09:46:35Z</time></trkpt><trkpt lat="33.201327699468195" lon="9.163204567128444"><ele>124.25</ele><time>2026-03-30T09:46:36Z</time></trkpt><trkpt lat="33.20124207099705" lon="9.163088235802043"><ele>123.5</ele><time>2026-03-30T09:46:37Z</time></trkpt><trkpt lat="33.20115536482005" lon="9.162975409084288"><ele>122.75</ele><time>2026-03-30T09:46:38Z</time></trkpt><trkpt lat="33.201071108879894" lon="9.162857962342631"><ele>122.0</ele><time>2026-03-30T09:46:39Z</time></trkpt><trkpt lat="33.20098925377386" lon="9.162740353758087"><ele>122.0</ele><time>2026-03-30T09:46:40Z</time></trkpt><trkpt lat="33.200905430335" lon="9.162626686298415"><ele>122.0</ele><time>2026-03-30T09:46:41Z</time></trkpt><trkpt lat="33.20082340783456" lon="9.162512786844992"><ele>122.0</ele><time>2026-03-30T09:46:42Z</time></trkpt><trkpt lat="33.200744861126694" lon="9.162398021425362"><ele>122.0</ele><time>2026-03-30T09:46:43Z</time></trkpt><trkpt lat="33.20066316144676" lon="9.162277332058657"><ele>121.75</ele><time>2026-03-30T09:46:44Z</time></trkpt><trkpt lat="33.200579071456225" lon="9.162159786069523"><ele>121.5</ele><time>2026-03-30T09:46:45Z</time></trkpt><trkpt lat="33.20049908054685" lon="9.162053079861302"><ele>121.25</ele><time>2026-03-30T09:46:46Z</time></trkpt><trkpt lat="33.200421531812715" lon="9.161949192568507"><ele>121.0</ele><time>2026-03-30T09:46:47Z</time></trkpt><trkpt lat="33.20034370817393" lon="9.161842105773573"><ele>121.0</ele><time>2026-03-30T09:46:48Z</time></trkpt><trkpt lat="33.20026736120218" lon="9.161737470551937"><ele>121.0</ele><time>2026-03-30T09:46:49Z</time></trkpt><trkpt lat="33.200198042702496" lon="9.16163732113619"><ele>121.0</ele><time>2026-03-30T09:46:50Z</time></trkpt><trkpt lat="33.20012178799762" lon="9.161527523066951"><ele>121.0</ele><time>2026-03-30T09:46:51Z</time></trkpt><trkpt lat="33.200055756601294" lon="9.161426610508967"><ele>120.8</ele><time>2026-03-30T09:46:52Z</time></trkpt><trkpt lat="33.19999123139175" lon="9.161327303225404"><ele>120.6</ele><time>2026-03-30T09:46:53Z</time></trkpt><trkpt lat="33.19992069834445" lon="9.161234796049095"><ele>120.4</ele><time>2026-03-30T09:46:54Z</time></trkpt><trkpt lat="33.199853886324796" lon="9.161145829772563"><ele>120.2</ele><time>2026-03-30T09:46:55Z</time></trkpt><trkpt lat="33.199775845464956" lon="9.161038128251638"><ele>120.0</ele><time>2026-03-30T09:46:56Z</time></trkpt><trkpt lat="33.199699110842126" lon="9.160925981120082"><ele>120.25</ele><time>2026-03-30T09:46:57Z</time></trkpt><trkpt lat="33.199627820752376" lon="9.160807166579934"><ele>120.5</ele><time>2026-03-30T09:46:58Z</time></trkpt><trkpt lat="33.199555278879295" lon="9.160682961636422"><ele>120.75</ele><time>2026-03-30T09:46:59Z</time></trkpt><trkpt lat="33.199481241538756" lon="9.16055380106128"><ele>121.0</ele><time>2026-03-30T09:47:00Z</time></trkpt><trkpt lat="33.19939941957319" lon="9.160425016648544"><ele>121.0</ele><time>2026-03-30T09:47:01Z</time></trkpt><trkpt lat="33.199311002669845" lon="9.160288363118081"><ele>121.0</ele><time>2026-03-30T09:47:02Z</time></trkpt><trkpt lat="33.19922111768423" lon="9.160152303334776"><ele>121.0</ele><time>2026-03-30T09:47:03Z</time></trkpt><trkpt lat="33.19912924518172" lon="9.160013769080853"><ele>121.0</ele><time>2026-03-30T09:47:04Z</time></trkpt><trkpt lat="33.199037026218654" lon="9.159870810177097"><ele>120.33333333333334</ele><time>2026-03-30T09:47:05Z</time></trkpt><trkpt lat="33.19894871836325" lon="9.159730027781269"><ele>119.66666666666666</ele><time>2026-03-30T09:47:06Z</time></trkpt><trkpt lat="33.198851000163835" lon="9.159579003545534"><ele>119.0</ele><time>2026-03-30T09:47:07Z</time></trkpt><trkpt lat="33.198759081971254" lon="9.159447105689319"><ele>119.0</ele><time>2026-03-30T09:47:08Z</time></trkpt><trkpt lat="33.1986554940547" lon="9.15930426255517"><ele>119.0</ele><time>2026-03-30T09:47:09Z</time></trkpt><trkpt lat="33.198569134293365" lon="9.159176874450111"><ele>119.0</ele><time>2026-03-30T09:47:10Z</time></trkpt><trkpt lat="33.19846465645119" lon="9.159032451078279"><ele>118.75</ele><time>2026-03-30T09:47:11Z</time></trkpt><trkpt lat="33.198369750239294" lon="9.158893946022786"><ele>118.5</ele><time>2026-03-30T09:47:12Z</time></trkpt><trkpt lat="33.1982797729343" lon="9.158774529828028"><ele>118.25</ele><time>2026-03-30T09:47:13Z</time></trkpt><trkpt lat="33.19819159179199" lon="9.158664818592538"><ele>118.0</ele><time>2026-03-30T09:47:14Z</time></trkpt><trkpt lat="33.198118504216964" lon="9.158571223546984"><ele>118.00000000000001</ele><time>2026-03-30T09:47:15Z</time></trkpt><trkpt lat="33.198056278690814" lon="9.158507827347098"><ele>118.0</ele><time>2026-03-30T09:47:16Z</time></trkpt><trkpt lat="33.19799070310372" lon="9.1584364328818"><ele>118.0</ele><time>2026-03-30T09:47:17Z</time></trkpt><trkpt lat="33.19794956351255" lon="9.158377716790259"><ele>118.0</ele><time>2026-03-30T09:47:18Z</time></trkpt><trkpt lat="33.19788511050903" lon="9.158283283813129"><ele>118.00000000000001</ele><time>2026-03-30T09:47:20Z</time></trkpt><trkpt lat="33.19783630656382" lon="9.15822060434208"><ele>118.0</ele><time>2026-03-30T09:47:21Z</time></trkpt><trkpt lat="33.19779020055595" lon="9.158145969962169"><ele>118.00000000000001</ele><time>2026-03-30T09:47:22Z</time></trkpt><trkpt lat="33.197746983148065" lon="9.158010216331043"><ele>118.0</ele><time>2026-03-30T09:47:24Z</time></trkpt><trkpt lat="33.19773312171919" lon="9.157935622894728"><ele>118.0</ele><time>2026-03-30T09:47:25Z</time></trkpt><trkpt lat="33.19772105582858" lon="9.157860530811428"><ele>118.0</ele><time>2026-03-30T09:47:26Z</time></trkpt><trkpt lat="33.197710546954" lon="9.157782431955647"><ele>118.00000000000001</ele><time>2026-03-30T09:47:27Z</time></trkpt><trkpt lat="33.19770240996137" lon="9.15770192545548"><ele>118.0</ele><time>2026-03-30T09:47:28Z</time></trkpt><trkpt lat="33.19769512436239" lon="9.157616631911209"><ele>118.0</ele><time>2026-03-30T09:47:29Z</time></trkpt><trkpt lat="33.19766868577209" lon="9.157533682219247"><ele>118.00000000000001</ele><time>2026-03-30T09:47:30Z</time></trkpt><trkpt lat="33.19762569815056" lon="9.157452050056795"><ele>118.00000000000001</ele><time>2026-03-30T09:47:31Z</time></trkpt><trkpt lat="33.197561592056985" lon="9.157386335018872"><ele>118.0</ele><time>2026-03-30T09:47:32Z</time></trkpt><trkpt lat="33.197468283793285" lon="9.157312003792951"><ele>118.0</ele><time>2026-03-30T09:47:33Z</time></trkpt><trkpt lat="33.19735721003278" lon="9.157194437366618"><ele>119.0</ele><time>2026-03-30T09:47:34Z</time></trkpt><trkpt lat="33.197247059391124" lon="9.15704288875279"><ele>120.0</ele><time>2026-03-30T09:47:35Z</time></trkpt><trkpt lat="33.197162150383754" lon="9.156882480615192"><ele>121.0</ele><time>2026-03-30T09:47:36Z</time></trkpt><trkpt lat="33.197081926659145" lon="9.156765819459512"><ele>121.0</ele><time>2026-03-30T09:47:37Z</time></trkpt><trkpt lat="33.19700988335168" lon="9.156663380043383"><ele>121.0</ele><time>2026-03-30T09:47:38Z</time></trkpt><trkpt lat="33.19692612290749" lon="9.156569089145332"><ele>121.0</ele><time>2026-03-30T09:47:39Z</time></trkpt><trkpt lat="33.19681989628465" lon="9.156463362152754"><ele>121.0</ele><time>2026-03-30T09:47:40Z</time></trkpt><trkpt lat="33.1967345424663" lon="9.156355863673578"><ele>120.75</ele><time>2026-03-30T09:47:41Z</time></trkpt><trkpt lat="33.19667666031732" lon="9.156236760990078"><ele>120.5</ele><time>2026-03-30T09:47:42Z</time></trkpt><trkpt lat="33.19662369224355" lon="9.156102365624994"><ele>120.25</ele><time>2026-03-30T09:47:43Z</time></trkpt><trkpt lat="33.19656360653006" lon="9.155971121138903"><ele>120.0</ele><time>2026-03-30T09:47:44Z</time></trkpt><trkpt lat="33.19649942294794" lon="9.155861914123973"><ele>120.0</ele><time>2026-03-30T09:47:45Z</time></trkpt><trkpt lat="33.196429349564895" lon="9.15576225718372"><ele>120.0</ele><time>2026-03-30T09:47:46Z</time></trkpt><trkpt lat="33.19634172973392" lon="9.15566850348105"><ele>120.0</ele><time>2026-03-30T09:47:47Z</time></trkpt><trkpt lat="33.196259024289915" lon="9.155583243296999"><ele>120.0</ele><time>2026-03-30T09:47:48Z</time></trkpt><trkpt lat="33.196170786168324" lon="9.155489868958034"><ele>120.0</ele><time>2026-03-30T09:47:49Z</time></trkpt><trkpt lat="33.196079869463965" lon="9.155386505728984"><ele>120.0</ele><time>2026-03-30T09:47:50Z</time></trkpt><trkpt lat="33.19600700906687" lon="9.155279751663823"><ele>120.0</ele><time>2026-03-30T09:47:51Z</time></trkpt><trkpt lat="33.195945498523365" lon="9.155180439798118"><ele>120.0</ele><time>2026-03-30T09:47:52Z</time></trkpt><trkpt lat="33.195871790077526" lon="9.155067616226766"><ele>120.0</ele><time>2026-03-30T09:47:53Z</time></trkpt><trkpt lat="33.195796447896086" lon="9.154955560654392"><ele>120.0</ele><time>2026-03-30T09:47:54Z</time></trkpt><trkpt lat="33.195711905999644" lon="9.154833772875305"><ele>120.0</ele><time>2026-03-30T09:47:55Z</time></trkpt><trkpt lat="33.19563568868265" lon="9.154720150755356"><ele>120.0</ele><time>2026-03-30T09:47:56Z</time></trkpt><trkpt lat="33.195566037491304" lon="9.154605424546792"><ele>119.5</ele><time>2026-03-30T09:47:57Z</time></trkpt><trkpt lat="33.19548949157693" lon="9.154481397863567"><ele>119.0</ele><time>2026-03-30T09:47:58Z</time></trkpt><trkpt lat="33.195419640918765" lon="9.154357602045488"><ele>118.5</ele><time>2026-03-30T09:47:59Z</time></trkpt><trkpt lat="33.19535065816355" lon="9.15423040021985"><ele>118.0</ele><time>2026-03-30T09:48:00Z</time></trkpt><trkpt lat="33.195285526838866" lon="9.154116765458518"><ele>118.0</ele><time>2026-03-30T09:48:01Z</time></trkpt><trkpt lat="33.19521644878807" lon="9.153992036056717"><ele>118.0</ele><time>2026-03-30T09:48:02Z</time></trkpt><trkpt lat="33.195143683947755" lon="9.153869303221713"><ele>118.0</ele><time>2026-03-30T09:48:03Z</time></trkpt><trkpt lat="33.19506908973681" lon="9.153750623023951"><ele>118.0</ele><time>2026-03-30T09:48:04Z</time></trkpt><trkpt lat="33.194989996003926" lon="9.153633899628213"><ele>118.0</ele><time>2026-03-30T09:48:05Z</time></trkpt><trkpt lat="33.194905536854634" lon="9.15352522826621"><ele>118.0</ele><time>2026-03-30T09:48:06Z</time></trkpt><trkpt lat="33.19481526061784" lon="9.153412690179643"><ele>118.0</ele><time>2026-03-30T09:48:07Z</time></trkpt><trkpt lat="33.194728269978555" lon="9.153308543455454"><ele>118.0</ele><time>2026-03-30T09:48:08Z</time></trkpt><trkpt lat="33.194640989046036" lon="9.153201642562472"><ele>118.0</ele><time>2026-03-30T09:48:09Z</time></trkpt><trkpt lat="33.19455392656588" lon="9.15308094890534"><ele>118.0</ele><time>2026-03-30T09:48:10Z</time></trkpt><trkpt lat="33.194483733803715" lon="9.152966522254488"><ele>118.0</ele><time>2026-03-30T09:48:11Z</time></trkpt><trkpt lat="33.19440883167701" lon="9.152847658481932"><ele>118.0</ele><time>2026-03-30T09:48:12Z</time></trkpt><trkpt lat="33.19434081817628" lon="9.152724652678424"><ele>118.0</ele><time>2026-03-30T09:48:13Z</time></trkpt><trkpt lat="33.194267847887225" lon="9.15259826539575"><ele>118.0</ele><time>2026-03-30T09:48:14Z</time></trkpt><trkpt lat="33.19419286750476" lon="9.152485149993712"><ele>118.0</ele><time>2026-03-30T09:48:15Z</time></trkpt><trkpt lat="33.194116909489175" lon="9.152391850294"><ele>118.0</ele><time>2026-03-30T09:48:16Z</time></trkpt><trkpt lat="33.19403782113307" lon="9.1522789253094"><ele>117.75</ele><time>2026-03-30T09:48:17Z</time></trkpt><trkpt lat="33.19396425390366" lon="9.15217173524347"><ele>117.5</ele><time>2026-03-30T09:48:18Z</time></trkpt><trkpt lat="33.193894214268134" lon="9.15205726817178"><ele>117.25</ele><time>2026-03-30T09:48:19Z</time></trkpt><trkpt lat="33.19381234938058" lon="9.151934736867982"><ele>117.0</ele><time>2026-03-30T09:48:20Z</time></trkpt><trkpt lat="33.19372591832523" lon="9.151820063768305"><ele>117.0</ele><time>2026-03-30T09:48:21Z</time></trkpt><trkpt lat="33.19364215444425" lon="9.15170558984588"><ele>117.0</ele><time>2026-03-30T09:48:22Z</time></trkpt><trkpt lat="33.193563761258254" lon="9.151602890989455"><ele>117.0</ele><time>2026-03-30T09:48:23Z</time></trkpt><trkpt lat="33.19348393328432" lon="9.151496418267872"><ele>117.0</ele><time>2026-03-30T09:48:24Z</time></trkpt><trkpt lat="33.19339996982943" lon="9.151387858681582"><ele>117.0</ele><time>2026-03-30T09:48:25Z</time></trkpt><trkpt lat="33.19331320327996" lon="9.151278112956089"><ele>117.0</ele><time>2026-03-30T09:48:26Z</time></trkpt><trkpt lat="33.19321977625278" lon="9.151161520283955"><ele>117.0</ele><time>2026-03-30T09:48:27Z</time></trkpt><trkpt lat="33.193119723604426" lon="9.151049898847925"><ele>117.0</ele><time>2026-03-30T09:48:28Z</time></trkpt><trkpt lat="33.193020491992286" lon="9.150950394406484"><ele>117.0</ele><time>2026-03-30T09:48:29Z</time></trkpt><trkpt lat="33.192936479102826" lon="9.150839470145355"><ele>117.0</ele><time>2026-03-30T09:48:30Z</time></trkpt><trkpt lat="33.19285224109188" lon="9.1507206380351"><ele>117.0</ele><time>2026-03-30T09:48:31Z</time></trkpt><trkpt lat="33.19277212915288" lon="9.15059975768305"><ele>117.0</ele><time>2026-03-30T09:48:32Z</time></trkpt><trkpt lat="33.19269412997704" lon="9.150461631596292"><ele>116.75</ele><time>2026-03-30T09:48:33Z</time></trkpt><trkpt lat="33.19261827136007" lon="9.15032352199131"><ele>116.5</ele><time>2026-03-30T09:48:34Z</time></trkpt><trkpt lat="33.1925494497557" lon="9.150184893685411"><ele>116.25</ele><time>2026-03-30T09:48:35Z</time></trkpt><trkpt lat="33.192483884716324" lon="9.150047156753622"><ele>116.0</ele><time>2026-03-30T09:48:36Z</time></trkpt><trkpt lat="33.192415540433444" lon="9.149902888044988"><ele>116.5</ele><time>2026-03-30T09:48:37Z</time></trkpt><trkpt lat="33.19233811875272" lon="9.149772331538237"><ele>117.0</ele><time>2026-03-30T09:48:38Z</time></trkpt><trkpt lat="33.192257671005414" lon="9.149650471621804"><ele>117.5</ele><time>2026-03-30T09:48:39Z</time></trkpt><trkpt lat="33.19216961938366" lon="9.149532122732174"><ele>118.0</ele><time>2026-03-30T09:48:40Z</time></trkpt><trkpt lat="33.19206406073306" lon="9.149420915565456"><ele>118.0</ele><time>2026-03-30T09:48:41Z</time></trkpt><trkpt lat="33.19195062794389" lon="9.149311791812591"><ele>118.0</ele><time>2026-03-30T09:48:42Z</time></trkpt><trkpt lat="33.19183956548298" lon="9.14921306518092"><ele>118.0</ele><time>2026-03-30T09:48:43Z</time></trkpt><trkpt lat="33.1917238457453" lon="9.14912338935644"><ele>118.0</ele><time>2026-03-30T09:48:44Z</time></trkpt><trkpt lat="33.19159587364534" lon="9.149026308731147"><ele>117.75</ele><time>2026-03-30T09:48:45Z</time></trkpt><trkpt lat="33.191471262341544" lon="9.148920814645436"><ele>117.5</ele><time>2026-03-30T09:48:46Z</time></trkpt><trkpt lat="33.191351432839916" lon="9.148815154702767"><ele>117.25</ele><time>2026-03-30T09:48:47Z</time></trkpt><trkpt lat="33.19125157669405" lon="9.148720286892718"><ele>117.0</ele><time>2026-03-30T09:48:48Z</time></trkpt><trkpt lat="33.19114094428238" lon="9.148628397268704"><ele>117.0</ele><time>2026-03-30T09:48:49Z</time></trkpt><trkpt lat="33.19102423620525" lon="9.148539663677521"><ele>117.0</ele><time>2026-03-30T09:48:50Z</time></trkpt><trkpt lat="33.1909213374647" lon="9.14846056716927"><ele>117.0</ele><time>2026-03-30T09:48:51Z</time></trkpt><trkpt lat="33.19083381996997" lon="9.148383827850383"><ele>117.0</ele><time>2026-03-30T09:48:52Z</time></trkpt><trkpt lat="33.19075127335277" lon="9.148287068517476"><ele>117.0</ele><time>2026-03-30T09:48:53Z</time></trkpt><trkpt lat="33.190685016779135" lon="9.148166694532556"><ele>116.99999999999999</ele><time>2026-03-30T09:48:54Z</time></trkpt><trkpt lat="33.19063593069224" lon="9.148054169294427"><ele>116.99999999999999</ele><time>2026-03-30T09:48:55Z</time></trkpt><trkpt lat="33.19059620831472" lon="9.147945059560886"><ele>117.0</ele><time>2026-03-30T09:48:56Z</time></trkpt><trkpt lat="33.19055654112858" lon="9.147819658763337"><ele>117.0</ele><time>2026-03-30T09:48:57Z</time></trkpt><trkpt lat="33.19051438771369" lon="9.147673697155886"><ele>117.0</ele><time>2026-03-30T09:48:58Z</time></trkpt><trkpt lat="33.19046577841718" lon="9.147504299140685"><ele>117.0</ele><time>2026-03-30T09:48:59Z</time></trkpt><trkpt lat="33.19041891936945" lon="9.147323532307842"><ele>117.0</ele><time>2026-03-30T09:49:00Z</time></trkpt><trkpt lat="33.190378018744774" lon="9.147142780507295"><ele>117.0</ele><time>2026-03-30T09:49:01Z</time></trkpt><trkpt lat="33.19033490852943" lon="9.14696436805148"><ele>117.0</ele><time>2026-03-30T09:49:02Z</time></trkpt><trkpt lat="33.19028048856261" lon="9.146766566605734"><ele>117.0</ele><time>2026-03-30T09:49:03Z</time></trkpt><trkpt lat="33.190228290533895" lon="9.146574247627242"><ele>116.66666666666666</ele><time>2026-03-30T09:49:04Z</time></trkpt><trkpt lat="33.190166014918226" lon="9.146397916708327"><ele>116.33333333333333</ele><time>2026-03-30T09:49:05Z</time></trkpt><trkpt lat="33.19009817103488" lon="9.146218248230173"><ele>116.0</ele><time>2026-03-30T09:49:06Z</time></trkpt><trkpt lat="33.1900147959991" lon="9.14603107503272"><ele>116.0</ele><time>2026-03-30T09:49:07Z</time></trkpt><trkpt lat="33.18991497685708" lon="9.14583142649792"><ele>116.0</ele><time>2026-03-30T09:49:08Z</time></trkpt><trkpt lat="33.189813682520665" lon="9.145642013160753"><ele>116.0</ele><time>2026-03-30T09:49:09Z</time></trkpt><trkpt lat="33.18972120240929" lon="9.145475078159222"><ele>116.19999999999999</ele><time>2026-03-30T09:49:10Z</time></trkpt><trkpt lat="33.18964061658737" lon="9.145350243922028"><ele>116.39999999999999</ele><time>2026-03-30T09:49:11Z</time></trkpt><trkpt lat="33.18956910438379" lon="9.145267891971473"><ele>116.6</ele><time>2026-03-30T09:49:12Z</time></trkpt><trkpt lat="33.18949377210909" lon="9.145201431061713"><ele>116.8</ele><time>2026-03-30T09:49:13Z</time></trkpt><trkpt lat="33.18940351346249" lon="9.14516605722992"><ele>117.0</ele><time>2026-03-30T09:49:14Z</time></trkpt><trkpt lat="33.18928762236903" lon="9.145157324952113"><ele>117.0</ele><time>2026-03-30T09:49:15Z</time></trkpt><trkpt lat="33.18915122201421" lon="9.145160843470569"><ele>117.0</ele><time>2026-03-30T09:49:16Z</time></trkpt><trkpt lat="33.188982945865725" lon="9.14518789523006"><ele>117.0</ele><time>2026-03-30T09:49:17Z</time></trkpt><trkpt lat="33.18879359649224" lon="9.145232798814055"><ele>116.33333333333334</ele><time>2026-03-30T09:49:18Z</time></trkpt><trkpt lat="33.18864867701013" lon="9.145294551785682"><ele>115.66666666666667</ele><time>2026-03-30T09:49:19Z</time></trkpt><trkpt lat="33.18850225123841" lon="9.145368508077281"><ele>115.0</ele><time>2026-03-30T09:49:20Z</time></trkpt><trkpt lat="33.18835860806403" lon="9.145434651911588"><ele>115.0</ele><time>2026-03-30T09:49:21Z</time></trkpt><trkpt lat="33.188209528708754" lon="9.145502032185252"><ele>115.0</ele><time>2026-03-30T09:49:22Z</time></trkpt><trkpt lat="33.18807116663136" lon="9.14557219640795"><ele>115.0</ele><time>2026-03-30T09:49:23Z</time></trkpt><trkpt lat="33.18792111056052" lon="9.145638754716341"><ele>114.75</ele><time>2026-03-30T09:49:24Z</time></trkpt><trkpt lat="33.18778394194024" lon="9.145705765916198"><ele>114.5</ele><time>2026-03-30T09:49:25Z</time></trkpt><trkpt lat="33.18765150625652" lon="9.145778109543716"><ele>114.25</ele><time>2026-03-30T09:49:26Z</time></trkpt><trkpt lat="33.18752134320944" lon="9.14585153475896"><ele>114.0</ele><time>2026-03-30T09:49:27Z</time></trkpt><trkpt lat="33.18739399159357" lon="9.145929981818002"><ele>114.75</ele><time>2026-03-30T09:49:28Z</time></trkpt><trkpt lat="33.18726997494921" lon="9.146008101054663"><ele>115.5</ele><time>2026-03-30T09:49:29Z</time></trkpt><trkpt lat="33.18713475688212" lon="9.14608676857018"><ele>116.25</ele><time>2026-03-30T09:49:30Z</time></trkpt><trkpt lat="33.1869924446614" lon="9.146167731757194"><ele>117.0</ele><time>2026-03-30T09:49:31Z</time></trkpt><trkpt lat="33.18685086021459" lon="9.146240350364064"><ele>117.0</ele><time>2026-03-30T09:49:32Z</time></trkpt><trkpt lat="33.186709295813536" lon="9.14630711238077"><ele>117.0</ele><time>2026-03-30T09:49:33Z</time></trkpt><trkpt lat="33.186561275723854" lon="9.146378756368579"><ele>117.0</ele><time>2026-03-30T09:49:34Z</time></trkpt><trkpt lat="33.1864142060846" lon="9.146448868825399"><ele>117.33333333333334</ele><time>2026-03-30T09:49:35Z</time></trkpt><trkpt lat="33.18627386006065" lon="9.146514075114617"><ele>117.66666666666667</ele><time>2026-03-30T09:49:36Z</time></trkpt><trkpt lat="33.18611870132914" lon="9.146577120282666"><ele>118.0</ele><time>2026-03-30T09:49:37Z</time></trkpt><trkpt lat="33.185972247278734" lon="9.146626648058982"><ele>118.0</ele><time>2026-03-30T09:49:38Z</time></trkpt><trkpt lat="33.18581826186011" lon="9.146666124032294"><ele>118.0</ele><time>2026-03-30T09:49:39Z</time></trkpt><trkpt lat="33.18566108016235" lon="9.146701847562763"><ele>118.0</ele><time>2026-03-30T09:49:40Z</time></trkpt><trkpt lat="33.185509765715956" lon="9.146728798838879"><ele>119.0</ele><time>2026-03-30T09:49:41Z</time></trkpt><trkpt lat="33.18535436371076" lon="9.146755415366137"><ele>120.0</ele><time>2026-03-30T09:49:42Z</time></trkpt><trkpt lat="33.18519153421382" lon="9.146788050651093"><ele>121.0</ele><time>2026-03-30T09:49:43Z</time></trkpt><trkpt lat="33.185035051877335" lon="9.146814811565429"><ele>121.0</ele><time>2026-03-30T09:49:44Z</time></trkpt><trkpt lat="33.184880789504184" lon="9.146837988571317"><ele>121.0</ele><time>2026-03-30T09:49:45Z</time></trkpt><trkpt lat="33.18472560632108" lon="9.146857963967381"><ele>121.0</ele><time>2026-03-30T09:49:46Z</time></trkpt><trkpt lat="33.18457940087777" lon="9.146873023498909"><ele>121.0</ele><time>2026-03-30T09:49:47Z</time></trkpt><trkpt lat="33.184444195621516" lon="9.146884407961306"><ele>121.0</ele><time>2026-03-30T09:49:48Z</time></trkpt><trkpt lat="33.184314027067686" lon="9.146879595494983"><ele>121.0</ele><time>2026-03-30T09:49:49Z</time></trkpt><trkpt lat="33.18419084320805" lon="9.146867771018432"><ele>121.0</ele><time>2026-03-30T09:49:50Z</time></trkpt><trkpt lat="33.18407573387723" lon="9.146852075088388"><ele>120.25</ele><time>2026-03-30T09:49:51Z</time></trkpt><trkpt lat="33.18396379731926" lon="9.146823295674494"><ele>119.5</ele><time>2026-03-30T09:49:52Z</time></trkpt><trkpt lat="33.18386645501825" lon="9.146768791723312"><ele>118.75</ele><time>2026-03-30T09:49:53Z</time></trkpt><trkpt lat="33.1837730336474" lon="9.146689322464242"><ele>118.0</ele><time>2026-03-30T09:49:54Z</time></trkpt><trkpt lat="33.183667891892526" lon="9.146602615078049"><ele>118.0</ele><time>2026-03-30T09:49:55Z</time></trkpt><trkpt lat="33.18355659311196" lon="9.146520096793589"><ele>118.0</ele><time>2026-03-30T09:49:56Z</time></trkpt><trkpt lat="33.183426205630475" lon="9.146425759652708"><ele>118.0</ele><time>2026-03-30T09:49:57Z</time></trkpt><trkpt lat="33.18329827076507" lon="9.146338368578828"><ele>118.0</ele><time>2026-03-30T09:49:58Z</time></trkpt><trkpt lat="33.1831826775358" lon="9.146253912019379"><ele>117.80000000000001</ele><time>2026-03-30T09:49:59Z</time></trkpt><trkpt lat="33.18308131176117" lon="9.146167936599099"><ele>117.60000000000001</ele><time>2026-03-30T09:50:00Z</time></trkpt><trkpt lat="33.182998732219446" lon="9.146083617168602"><ele>117.39999999999999</ele><time>2026-03-30T09:50:01Z</time></trkpt><trkpt lat="33.18293201144036" lon="9.145992604449017"><ele>117.19999999999999</ele><time>2026-03-30T09:50:02Z</time></trkpt><trkpt lat="33.182872986638024" lon="9.14590181247995"><ele>117.0</ele><time>2026-03-30T09:50:03Z</time></trkpt><trkpt lat="33.18281272850072" lon="9.145826820144705"><ele>117.0</ele><time>2026-03-30T09:50:04Z</time></trkpt><trkpt lat="33.18275113026355" lon="9.145779679264162"><ele>116.99999999999999</ele><time>2026-03-30T09:50:05Z</time></trkpt><trkpt lat="33.18267141243875" lon="9.145739492636292"><ele>116.99999999999999</ele><time>2026-03-30T09:50:06Z</time></trkpt><trkpt lat="33.182563075854425" lon="9.145696417666542"><ele>117.0</ele><time>2026-03-30T09:50:07Z</time></trkpt><trkpt lat="33.18243691623287" lon="9.145653361389726"><ele>117.0</ele><time>2026-03-30T09:50:08Z</time></trkpt><trkpt lat="33.18230078508933" lon="9.145623095652356"><ele>117.0</ele><time>2026-03-30T09:50:09Z</time></trkpt><trkpt lat="33.18216147947289" lon="9.145591856135297"><ele>117.0</ele><time>2026-03-30T09:50:10Z</time></trkpt><trkpt lat="33.18200931946292" lon="9.145580510863626"><ele>117.0</ele><time>2026-03-30T09:50:11Z</time></trkpt><trkpt lat="33.18185959488849" lon="9.145581073923275"><ele>117.0</ele><time>2026-03-30T09:50:12Z</time></trkpt><trkpt lat="33.18171404514765" lon="9.145593804892902"><ele>117.0</ele><time>2026-03-30T09:50:13Z</time></trkpt><trkpt lat="33.181564782407726" lon="9.145601591120613"><ele>117.0</ele><time>2026-03-30T09:50:14Z</time></trkpt><trkpt lat="33.18141854319128" lon="9.145606815768607"><ele>117.0</ele><time>2026-03-30T09:50:14.999Z</time></trkpt><trkpt lat="33.18126897158115" lon="9.145619101723545"><ele>117.0</ele><time>2026-03-30T09:50:15.999Z</time></trkpt><trkpt lat="33.1811226908078" lon="9.145630622164962"><ele>117.5</ele><time>2026-03-30T09:50:16.999Z</time></trkpt><trkpt lat="33.180978434266116" lon="9.145635206044705"><ele>118.0</ele><time>2026-03-30T09:50:17.999Z</time></trkpt><trkpt lat="33.180833906371056" lon="9.145637389860193"><ele>118.5</ele><time>2026-03-30T09:50:18.999Z</time></trkpt><trkpt lat="33.18068913426189" lon="9.145637042416169"><ele>119.0</ele><time>2026-03-30T09:50:19.999Z</time></trkpt><trkpt lat="33.18054678880747" lon="9.145643618322286"><ele>120.0</ele><time>2026-03-30T09:50:20.999Z</time></trkpt><trkpt lat="33.180408315424295" lon="9.145660701431462"><ele>121.0</ele><time>2026-03-30T09:50:21.999Z</time></trkpt><trkpt lat="33.18025011195921" lon="9.145698828002809"><ele>122.0</ele><time>2026-03-30T09:50:22.999Z</time></trkpt><trkpt lat="33.18010035315827" lon="9.14574911697671"><ele>122.0</ele><time>2026-03-30T09:50:23.999Z</time></trkpt><trkpt lat="33.17997779808929" lon="9.145794102778524"><ele>121.99999999999999</ele><time>2026-03-30T09:50:24.999Z</time></trkpt><trkpt lat="33.179867785616295" lon="9.145828851270048"><ele>121.99999999999999</ele><time>2026-03-30T09:50:25.999Z</time></trkpt><trkpt lat="33.17977266651496" lon="9.145853273059947"><ele>122.0</ele><time>2026-03-30T09:50:26.999Z</time></trkpt><trkpt lat="33.17968225775047" lon="9.145861364702908"><ele>122.0</ele><time>2026-03-30T09:50:27.999Z</time></trkpt><trkpt lat="33.17957953841123" lon="9.145841678384917"><ele>122.75</ele><time>2026-03-30T09:50:28.999Z</time></trkpt><trkpt lat="33.17944830787714" lon="9.145814351924471"><ele>123.5</ele><time>2026-03-30T09:50:29.999Z</time></trkpt><trkpt lat="33.179294393944154" lon="9.145784923508755"><ele>124.25</ele><time>2026-03-30T09:50:30.999Z</time></trkpt><trkpt lat="33.17914480380174" lon="9.145761170760926"><ele>125.0</ele><time>2026-03-30T09:50:31.999Z</time></trkpt><trkpt lat="33.17901947216841" lon="9.145754084278266"><ele>125.0</ele><time>2026-03-30T09:50:32.999Z</time></trkpt><trkpt lat="33.17888982352475" lon="9.145759790659163"><ele>125.0</ele><time>2026-03-30T09:50:33.999Z</time></trkpt><trkpt lat="33.178751062801574" lon="9.145780132925916"><ele>125.0</ele><time>2026-03-30T09:50:34.999Z</time></trkpt><trkpt lat="33.17860543174099" lon="9.14581968253261"><ele>125.0</ele><time>2026-03-30T09:50:35.999Z</time></trkpt><trkpt lat="33.178460672970814" lon="9.145863547886803"><ele>125.0</ele><time>2026-03-30T09:50:36.999Z</time></trkpt><trkpt lat="33.178312944441366" lon="9.145901511733602"><ele>125.0</ele><time>2026-03-30T09:50:37.999Z</time></trkpt><trkpt lat="33.17817670592427" lon="9.145943006806137"><ele>125.0</ele><time>2026-03-30T09:50:38.999Z</time></trkpt><trkpt lat="33.178066948433504" lon="9.145988775802124"><ele>125.0</ele><time>2026-03-30T09:50:39.999Z</time></trkpt><trkpt lat="33.17795810258349" lon="9.146025580037396"><ele>125.25</ele><time>2026-03-30T09:50:40.999Z</time></trkpt><trkpt lat="33.17784455237967" lon="9.1460651717707"><ele>125.5</ele><time>2026-03-30T09:50:41.999Z</time></trkpt><trkpt lat="33.17771696759902" lon="9.146102631072464"><ele>125.75</ele><time>2026-03-30T09:50:42.999Z</time></trkpt><trkpt lat="33.177579908659126" lon="9.146142269239986"><ele>126.0</ele><time>2026-03-30T09:50:43.999Z</time></trkpt><trkpt lat="33.177439999503136" lon="9.146181820934599"><ele>126.0</ele><time>2026-03-30T09:50:44.999Z</time></trkpt><trkpt lat="33.17731117085086" lon="9.14621806164643"><ele>126.0</ele><time>2026-03-30T09:50:45.999Z</time></trkpt><trkpt lat="33.177202289422155" lon="9.146239501592163"><ele>126.0</ele><time>2026-03-30T09:50:46.999Z</time></trkpt><trkpt lat="33.177098032445926" lon="9.146257086007475"><ele>126.0</ele><time>2026-03-30T09:50:47.999Z</time></trkpt><trkpt lat="33.177019165823054" lon="9.146265881220932"><ele>126.0</ele><time>2026-03-30T09:50:48.999Z</time></trkpt><trkpt lat="33.17694587083439" lon="9.146260784228083"><ele>126.0</ele><time>2026-03-30T09:50:49.999Z</time></trkpt><trkpt lat="33.176856047462316" lon="9.146238735789375"><ele>126.0</ele><time>2026-03-30T09:50:50.999Z</time></trkpt><trkpt lat="33.17678047054441" lon="9.146212478281141"><ele>126.0</ele><time>2026-03-30T09:50:52Z</time></trkpt><trkpt lat="33.1767146420273" lon="9.146171725902255"><ele>126.0</ele><time>2026-03-30T09:50:53Z</time></trkpt><trkpt lat="33.176617637854285" lon="9.146121150470906"><ele>126.0</ele><time>2026-03-30T09:50:54Z</time></trkpt><trkpt lat="33.17651457759996" lon="9.146086895695255"><ele>125.75</ele><time>2026-03-30T09:50:55Z</time></trkpt><trkpt lat="33.17640802453963" lon="9.146085246143247"><ele>125.5</ele><time>2026-03-30T09:50:56Z</time></trkpt><trkpt lat="33.176292559690516" lon="9.146104548434922"><ele>125.25</ele><time>2026-03-30T09:50:57Z</time></trkpt><trkpt lat="33.176179724008406" lon="9.14614172499724"><ele>125.0</ele><time>2026-03-30T09:50:58Z</time></trkpt><trkpt lat="33.17607489806041" lon="9.146188811138092"><ele>125.0</ele><time>2026-03-30T09:50:59Z</time></trkpt><trkpt lat="33.17596982498962" lon="9.14624065963215"><ele>125.0</ele><time>2026-03-30T09:51:00Z</time></trkpt><trkpt lat="33.17587776482116" lon="9.146289742754107"><ele>125.0</ele><time>2026-03-30T09:51:01Z</time></trkpt><trkpt lat="33.17577136206863" lon="9.1463399049031"><ele>125.0</ele><time>2026-03-30T09:51:02Z</time></trkpt><trkpt lat="33.175671460442544" lon="9.146380260724547"><ele>125.0</ele><time>2026-03-30T09:51:03Z</time></trkpt><trkpt lat="33.175564026602075" lon="9.146415570554678"><ele>124.75</ele><time>2026-03-30T09:51:04Z</time></trkpt><trkpt lat="33.175456498408316" lon="9.146445325562578"><ele>124.5</ele><time>2026-03-30T09:51:05Z</time></trkpt><trkpt lat="33.17534611337057" lon="9.146470147640946"><ele>124.25</ele><time>2026-03-30T09:51:06Z</time></trkpt><trkpt lat="33.175235085502884" lon="9.14649075197606"><ele>124.0</ele><time>2026-03-30T09:51:07Z</time></trkpt><trkpt lat="33.17511465556582" lon="9.146493326984087"><ele>124.0</ele><time>2026-03-30T09:51:08Z</time></trkpt><trkpt lat="33.174993889038554" lon="9.14650245655996"><ele>124.0</ele><time>2026-03-30T09:51:09Z</time></trkpt><trkpt lat="33.17487109946395" lon="9.146521409617325"><ele>124.0</ele><time>2026-03-30T09:51:10Z</time></trkpt><trkpt lat="33.17474501604812" lon="9.146543514046284"><ele>124.0</ele><time>2026-03-30T09:51:11Z</time></trkpt><trkpt lat="33.17461953897065" lon="9.146560000973151"><ele>123.25</ele><time>2026-03-30T09:51:12Z</time></trkpt><trkpt lat="33.174484310241034" lon="9.146577680425391"><ele>122.5</ele><time>2026-03-30T09:51:13Z</time></trkpt><trkpt lat="33.17435018101317" lon="9.14659404793166"><ele>121.75</ele><time>2026-03-30T09:51:14Z</time></trkpt><trkpt lat="33.17420240560491" lon="9.146625064457123"><ele>121.0</ele><time>2026-03-30T09:51:15Z</time></trkpt><trkpt lat="33.174062371279284" lon="9.146645156265114"><ele>121.5</ele><time>2026-03-30T09:51:16Z</time></trkpt><trkpt lat="33.17393104530349" lon="9.146653648018749"><ele>122.0</ele><time>2026-03-30T09:51:17Z</time></trkpt><trkpt lat="33.17380453747992" lon="9.146666990026873"><ele>122.5</ele><time>2026-03-30T09:51:18Z</time></trkpt><trkpt lat="33.17367824358502" lon="9.14669077125516"><ele>123.0</ele><time>2026-03-30T09:51:19Z</time></trkpt><trkpt lat="33.17356155651993" lon="9.14673671427791"><ele>123.0</ele><time>2026-03-30T09:51:20Z</time></trkpt><trkpt lat="33.17345972884872" lon="9.146798042499402"><ele>123.0</ele><time>2026-03-30T09:51:21Z</time></trkpt><trkpt lat="33.17337069723909" lon="9.146865212720838"><ele>123.0</ele><time>2026-03-30T09:51:22Z</time></trkpt><trkpt lat="33.17326941593568" lon="9.146926095054356"><ele>123.0</ele><time>2026-03-30T09:51:23Z</time></trkpt><trkpt lat="33.1731552506253" lon="9.146981623595673"><ele>122.66666666666666</ele><time>2026-03-30T09:51:24Z</time></trkpt><trkpt lat="33.17301293275695" lon="9.147031136911673"><ele>122.33333333333333</ele><time>2026-03-30T09:51:25Z</time></trkpt><trkpt lat="33.17284919369388" lon="9.147065994479668"><ele>122.0</ele><time>2026-03-30T09:51:26Z</time></trkpt><trkpt lat="33.172690865058804" lon="9.147076755201104"><ele>122.0</ele><time>2026-03-30T09:51:27Z</time></trkpt><trkpt lat="33.17254306102023" lon="9.14711757890325"><ele>122.0</ele><time>2026-03-30T09:51:28Z</time></trkpt><trkpt lat="33.172405690175616" lon="9.147173041884056"><ele>122.0</ele><time>2026-03-30T09:51:29Z</time></trkpt><trkpt lat="33.17224693595363" lon="9.147240538417721"><ele>122.25</ele><time>2026-03-30T09:51:30Z</time></trkpt><trkpt lat="33.17209939889955" lon="9.147280334123735"><ele>122.5</ele><time>2026-03-30T09:51:31Z</time></trkpt><trkpt lat="33.17198190809828" lon="9.147312383639349"><ele>122.75</ele><time>2026-03-30T09:51:32Z</time></trkpt><trkpt lat="33.17186773309901" lon="9.14731653775328"><ele>123.0</ele><time>2026-03-30T09:51:33Z</time></trkpt><trkpt lat="33.17175874291197" lon="9.14729433580587"><ele>123.0</ele><time>2026-03-30T09:51:34Z</time></trkpt><trkpt lat="33.17162736185927" lon="9.147246956856852"><ele>123.0</ele><time>2026-03-30T09:51:35Z</time></trkpt><trkpt lat="33.171487376233536" lon="9.14720090448153"><ele>123.0</ele><time>2026-03-30T09:51:36Z</time></trkpt><trkpt lat="33.17136636064544" lon="9.147175226279401"><ele>123.0</ele><time>2026-03-30T09:51:37Z</time></trkpt><trkpt lat="33.17125585597534" lon="9.147188373810604"><ele>122.75</ele><time>2026-03-30T09:51:38Z</time></trkpt><trkpt lat="33.17114444943429" lon="9.147237631288263"><ele>122.5</ele><time>2026-03-30T09:51:39Z</time></trkpt><trkpt lat="33.17104997775982" lon="9.147290169812678"><ele>122.25</ele><time>2026-03-30T09:51:40Z</time></trkpt><trkpt lat="33.1709604284263" lon="9.147359688517936"><ele>122.0</ele><time>2026-03-30T09:51:41Z</time></trkpt><trkpt lat="33.1708525459591" lon="9.147448780070434"><ele>122.33333333333333</ele><time>2026-03-30T09:51:42Z</time></trkpt><trkpt lat="33.170706959543566" lon="9.147540664269172"><ele>122.66666666666666</ele><time>2026-03-30T09:51:43Z</time></trkpt><trkpt lat="33.17054963460306" lon="9.147598648539907"><ele>123.0</ele><time>2026-03-30T09:51:44Z</time></trkpt><trkpt lat="33.170384735143486" lon="9.147652383388705"><ele>123.0</ele><time>2026-03-30T09:51:45Z</time></trkpt><trkpt lat="33.17025458415326" lon="9.147715838356568"><ele>123.0</ele><time>2026-03-30T09:51:46Z</time></trkpt><trkpt lat="33.170152246369426" lon="9.147807240363015"><ele>123.0</ele><time>2026-03-30T09:51:47Z</time></trkpt><trkpt lat="33.17003930529112" lon="9.147913279458463"><ele>123.0</ele><time>2026-03-30T09:51:48Z</time></trkpt><trkpt lat="33.16991252737482" lon="9.147990851417774"><ele>123.0</ele><time>2026-03-30T09:51:49Z</time></trkpt><trkpt lat="33.169762391434574" lon="9.148067356910264"><ele>123.0</ele><time>2026-03-30T09:51:50Z</time></trkpt><trkpt lat="33.16962706808402" lon="9.148123914834358"><ele>123.0</ele><time>2026-03-30T09:51:51Z</time></trkpt><trkpt lat="33.16951018102358" lon="9.148181286943725"><ele>123.0</ele><time>2026-03-30T09:51:52Z</time></trkpt><trkpt lat="33.16938664260313" lon="9.148234012363206"><ele>123.0</ele><time>2026-03-30T09:51:53Z</time></trkpt><trkpt lat="33.169257565430414" lon="9.148291554511534"><ele>123.0</ele><time>2026-03-30T09:51:54Z</time></trkpt><trkpt lat="33.169121607846854" lon="9.148348202107417"><ele>123.0</ele><time>2026-03-30T09:51:55Z</time></trkpt><trkpt lat="33.16897876560003" lon="9.148404592654709"><ele>123.0</ele><time>2026-03-30T09:51:56Z</time></trkpt><trkpt lat="33.16882662781008" lon="9.1484716839283"><ele>123.0</ele><time>2026-03-30T09:51:57Z</time></trkpt><trkpt lat="33.168686827164166" lon="9.148531929427884"><ele>123.0</ele><time>2026-03-30T09:51:58Z</time></trkpt><trkpt lat="33.168567188170506" lon="9.14859157377339"><ele>123.0</ele><time>2026-03-30T09:51:59Z</time></trkpt><trkpt lat="33.16845795137904" lon="9.148646325798238"><ele>123.0</ele><time>2026-03-30T09:52:00Z</time></trkpt><trkpt lat="33.16834396653682" lon="9.148720801586538"><ele>123.0</ele><time>2026-03-30T09:52:01Z</time></trkpt><trkpt lat="33.16822688440092" lon="9.148803788276378"><ele>123.0</ele><time>2026-03-30T09:52:02Z</time></trkpt><trkpt lat="33.16810112580657" lon="9.148878290094911"><ele>123.0</ele><time>2026-03-30T09:52:03Z</time></trkpt><trkpt lat="33.16797867920825" lon="9.14894635469458"><ele>123.0</ele><time>2026-03-30T09:52:04Z</time></trkpt><trkpt lat="33.16785490166486" lon="9.149011696800862"><ele>123.5</ele><time>2026-03-30T09:52:05Z</time></trkpt><trkpt lat="33.167734947339426" lon="9.149086796393414"><ele>124.0</ele><time>2026-03-30T09:52:06Z</time></trkpt><trkpt lat="33.16761761564197" lon="9.149160849321701"><ele>124.5</ele><time>2026-03-30T09:52:07Z</time></trkpt><trkpt lat="33.167498253611896" lon="9.149237986572295"><ele>125.0</ele><time>2026-03-30T09:52:08Z</time></trkpt><trkpt lat="33.16736883226275" lon="9.14931373051762"><ele>125.25</ele><time>2026-03-30T09:52:09Z</time></trkpt><trkpt lat="33.16723822828734" lon="9.149390522576791"><ele>125.5</ele><time>2026-03-30T09:52:10Z</time></trkpt><trkpt lat="33.167103635924406" lon="9.14947673785423"><ele>125.75</ele><time>2026-03-30T09:52:11Z</time></trkpt><trkpt lat="33.16697084716436" lon="9.149562526208578"><ele>126.0</ele><time>2026-03-30T09:52:12Z</time></trkpt><trkpt lat="33.166839403213636" lon="9.149645719294737"><ele>126.0</ele><time>2026-03-30T09:52:13Z</time></trkpt><trkpt lat="33.16671770917624" lon="9.149729443324464"><ele>126.0</ele><time>2026-03-30T09:52:14Z</time></trkpt><trkpt lat="33.16659801479924" lon="9.149823053318565"><ele>126.0</ele><time>2026-03-30T09:52:15Z</time></trkpt><trkpt lat="33.166472358535394" lon="9.149923681678697"><ele>126.0</ele><time>2026-03-30T09:52:16Z</time></trkpt><trkpt lat="33.16634248355691" lon="9.150023957508887"><ele>126.0</ele><time>2026-03-30T09:52:17Z</time></trkpt><trkpt lat="33.16622610396725" lon="9.150099835995077"><ele>126.0</ele><time>2026-03-30T09:52:18Z</time></trkpt><trkpt lat="33.16611191256576" lon="9.150189384764928"><ele>126.0</ele><time>2026-03-30T09:52:19Z</time></trkpt><trkpt lat="33.165990762670305" lon="9.150284797092421"><ele>126.0</ele><time>2026-03-30T09:52:20Z</time></trkpt><trkpt lat="33.16587194073814" lon="9.150370356945215"><ele>126.0</ele><time>2026-03-30T09:52:20.999Z</time></trkpt><trkpt lat="33.16575505333535" lon="9.150451117610416"><ele>126.0</ele><time>2026-03-30T09:52:21.999Z</time></trkpt><trkpt lat="33.165638101450426" lon="9.150541091555802"><ele>126.0</ele><time>2026-03-30T09:52:22.999Z</time></trkpt><trkpt lat="33.16553263337963" lon="9.150620433615458"><ele>126.0</ele><time>2026-03-30T09:52:23.999Z</time></trkpt><trkpt lat="33.165426658033944" lon="9.150701955177166"><ele>126.5</ele><time>2026-03-30T09:52:24.999Z</time></trkpt><trkpt lat="33.16532246738372" lon="9.150774909340806"><ele>127.0</ele><time>2026-03-30T09:52:25.999Z</time></trkpt><trkpt lat="33.16520878879547" lon="9.150842772496416"><ele>127.5</ele><time>2026-03-30T09:52:26.999Z</time></trkpt><trkpt lat="33.16509650647473" lon="9.150915947173063"><ele>128.0</ele><time>2026-03-30T09:52:27.999Z</time></trkpt><trkpt lat="33.16496652509689" lon="9.150984607981128"><ele>127.5</ele><time>2026-03-30T09:52:28.999Z</time></trkpt><trkpt lat="33.164842451302626" lon="9.15103893546081"><ele>127.0</ele><time>2026-03-30T09:52:29.999Z</time></trkpt><trkpt lat="33.164708314297435" lon="9.151097311533354"><ele>126.5</ele><time>2026-03-30T09:52:30.999Z</time></trkpt><trkpt lat="33.16454989007815" lon="9.151162543676678"><ele>126.0</ele><time>2026-03-30T09:52:31.999Z</time></trkpt><trkpt lat="33.164397905065265" lon="9.151222494929144"><ele>126.0</ele><time>2026-03-30T09:52:32.999Z</time></trkpt><trkpt lat="33.16424080384975" lon="9.15129575998535"><ele>126.0</ele><time>2026-03-30T09:52:33.999Z</time></trkpt><trkpt lat="33.164092064468484" lon="9.15135857648744"><ele>126.0</ele><time>2026-03-30T09:52:34.999Z</time></trkpt><trkpt lat="33.1639517438056" lon="9.151420031590613"><ele>126.0</ele><time>2026-03-30T09:52:35.999Z</time></trkpt><trkpt lat="33.163810093857286" lon="9.151482422896448"><ele>126.0</ele><time>2026-03-30T09:52:36.999Z</time></trkpt><trkpt lat="33.16366122653135" lon="9.151546641299955"><ele>126.0</ele><time>2026-03-30T09:52:37.999Z</time></trkpt><trkpt lat="33.16351451830894" lon="9.151609566364266"><ele>126.0</ele><time>2026-03-30T09:52:39Z</time></trkpt><trkpt lat="33.16336929481195" lon="9.151672690869704"><ele>126.0</ele><time>2026-03-30T09:52:40Z</time></trkpt><trkpt lat="33.163226778966006" lon="9.151730090445907"><ele>126.0</ele><time>2026-03-30T09:52:41Z</time></trkpt><trkpt lat="33.16308882086539" lon="9.151788088441414"><ele>126.0</ele><time>2026-03-30T09:52:42Z</time></trkpt><trkpt lat="33.16295460020162" lon="9.151842892401142"><ele>126.0</ele><time>2026-03-30T09:52:43Z</time></trkpt><trkpt lat="33.1628155236425" lon="9.15190800965831"><ele>126.0</ele><time>2026-03-30T09:52:44Z</time></trkpt><trkpt lat="33.162679985809326" lon="9.15196538873166"><ele>126.0</ele><time>2026-03-30T09:52:45Z</time></trkpt><trkpt lat="33.16254894757355" lon="9.152008448069095"><ele>126.0</ele><time>2026-03-30T09:52:46Z</time></trkpt><trkpt lat="33.162420380410055" lon="9.152041645757173"><ele>126.0</ele><time>2026-03-30T09:52:47Z</time></trkpt><trkpt lat="33.162289665773955" lon="9.152051310929089"><ele>126.0</ele><time>2026-03-30T09:52:48Z</time></trkpt><trkpt lat="33.16215359790357" lon="9.152046401672203"><ele>126.0</ele><time>2026-03-30T09:52:49Z</time></trkpt><trkpt lat="33.16203041839315" lon="9.152045161868717"><ele>126.0</ele><time>2026-03-30T09:52:50Z</time></trkpt><trkpt lat="33.161906787392894" lon="9.152052375213653"><ele>126.0</ele><time>2026-03-30T09:52:51Z</time></trkpt><trkpt lat="33.16178230393673" lon="9.152081580909387"><ele>126.0</ele><time>2026-03-30T09:52:52Z</time></trkpt><trkpt lat="33.16166269805672" lon="9.152108548764208"><ele>126.0</ele><time>2026-03-30T09:52:53Z</time></trkpt><trkpt lat="33.16153671539612" lon="9.15213698861254"><ele>126.0</ele><time>2026-03-30T09:52:54Z</time></trkpt><trkpt lat="33.161411836205744" lon="9.15218059181001"><ele>126.0</ele><time>2026-03-30T09:52:55Z</time></trkpt><trkpt lat="33.161284673432974" lon="9.152236201627995"><ele>126.0</ele><time>2026-03-30T09:52:56Z</time></trkpt><trkpt lat="33.161154969136994" lon="9.152298894063124"><ele>126.0</ele><time>2026-03-30T09:52:57Z</time></trkpt><trkpt lat="33.16102467741953" lon="9.152374434889396"><ele>126.0</ele><time>2026-03-30T09:52:58Z</time></trkpt><trkpt lat="33.16089012327634" lon="9.152443218436352"><ele>126.0</ele><time>2026-03-30T09:52:59Z</time></trkpt><trkpt lat="33.16076752777039" lon="9.152489900759358"><ele>126.0</ele><time>2026-03-30T09:53:00Z</time></trkpt><trkpt lat="33.16062962519835" lon="9.152534461815717"><ele>126.0</ele><time>2026-03-30T09:53:01Z</time></trkpt><trkpt lat="33.16048743226521" lon="9.152576494589272"><ele>126.25</ele><time>2026-03-30T09:53:02Z</time></trkpt><trkpt lat="33.1603548354908" lon="9.152613769454748"><ele>126.5</ele><time>2026-03-30T09:53:03Z</time></trkpt><trkpt lat="33.16022908397614" lon="9.152657092422713"><ele>126.75</ele><time>2026-03-30T09:53:04Z</time></trkpt><trkpt lat="33.16009744094289" lon="9.152701277098348"><ele>127.0</ele><time>2026-03-30T09:53:05Z</time></trkpt><trkpt lat="33.159970259078136" lon="9.152744524469448"><ele>127.25</ele><time>2026-03-30T09:53:06Z</time></trkpt><trkpt lat="33.15983201313581" lon="9.152784590889766"><ele>127.5</ele><time>2026-03-30T09:53:07Z</time></trkpt><trkpt lat="33.15969944239005" lon="9.152830176847212"><ele>127.75</ele><time>2026-03-30T09:53:08Z</time></trkpt><trkpt lat="33.15957045946111" lon="9.15288613107746"><ele>128.0</ele><time>2026-03-30T09:53:09Z</time></trkpt><trkpt lat="33.15944193128894" lon="9.152946606904345"><ele>128.0</ele><time>2026-03-30T09:53:10Z</time></trkpt><trkpt lat="33.159310282172534" lon="9.15300430178405"><ele>128.0</ele><time>2026-03-30T09:53:11Z</time></trkpt><trkpt lat="33.15917903402607" lon="9.153060134580205"><ele>128.0</ele><time>2026-03-30T09:53:12Z</time></trkpt><trkpt lat="33.15905475200295" lon="9.153109678832083"><ele>128.0</ele><time>2026-03-30T09:53:13Z</time></trkpt><trkpt lat="33.15891737405009" lon="9.153161190558626"><ele>128.0</ele><time>2026-03-30T09:53:14Z</time></trkpt><trkpt lat="33.15878754142402" lon="9.153216190077709"><ele>128.0</ele><time>2026-03-30T09:53:15Z</time></trkpt><trkpt lat="33.15865634256" lon="9.153275191343774"><ele>128.0</ele><time>2026-03-30T09:53:16Z</time></trkpt><trkpt lat="33.15852736429285" lon="9.153341215915335"><ele>128.0</ele><time>2026-03-30T09:53:17Z</time></trkpt><trkpt lat="33.15839645107822" lon="9.153394508250578"><ele>128.0</ele><time>2026-03-30T09:53:18Z</time></trkpt><trkpt lat="33.158256649255684" lon="9.15344062284149"><ele>128.0</ele><time>2026-03-30T09:53:19Z</time></trkpt><trkpt lat="33.158100992369484" lon="9.15348555892977"><ele>128.0</ele><time>2026-03-30T09:53:20Z</time></trkpt><trkpt lat="33.15794255997673" lon="9.153530061289644"><ele>128.66666666666666</ele><time>2026-03-30T09:53:21Z</time></trkpt><trkpt lat="33.15778751244433" lon="9.153581078214112"><ele>129.33333333333334</ele><time>2026-03-30T09:53:22Z</time></trkpt><trkpt lat="33.15763951209403" lon="9.15363886106914"><ele>130.0</ele><time>2026-03-30T09:53:23Z</time></trkpt><trkpt lat="33.1575013252171" lon="9.15370215203771"><ele>129.66666666666669</ele><time>2026-03-30T09:53:24Z</time></trkpt><trkpt lat="33.15736139061173" lon="9.153774688981363"><ele>129.33333333333334</ele><time>2026-03-30T09:53:25Z</time></trkpt><trkpt lat="33.157221104109496" lon="9.15385237557713"><ele>129.0</ele><time>2026-03-30T09:53:26Z</time></trkpt><trkpt lat="33.15707615489174" lon="9.153922731714413"><ele>129.0</ele><time>2026-03-30T09:53:27Z</time></trkpt><trkpt lat="33.15693261625792" lon="9.153986166619884"><ele>129.0</ele><time>2026-03-30T09:53:28Z</time></trkpt><trkpt lat="33.156791456801464" lon="9.154042793961183"><ele>129.0</ele><time>2026-03-30T09:53:29Z</time></trkpt><trkpt lat="33.156657778447595" lon="9.154102727454474"><ele>129.0</ele><time>2026-03-30T09:53:30Z</time></trkpt><trkpt lat="33.15652230004482" lon="9.154157210378365"><ele>129.75</ele><time>2026-03-30T09:53:31Z</time></trkpt><trkpt lat="33.15639375425222" lon="9.15421877303219"><ele>130.5</ele><time>2026-03-30T09:53:32Z</time></trkpt><trkpt lat="33.15626641503373" lon="9.154280631952417"><ele>131.25</ele><time>2026-03-30T09:53:33Z</time></trkpt><trkpt lat="33.15614681752044" lon="9.154348731252474"><ele>132.0</ele><time>2026-03-30T09:53:34Z</time></trkpt><trkpt lat="33.15603467853769" lon="9.154437336005856"><ele>132.0</ele><time>2026-03-30T09:53:35Z</time></trkpt><trkpt lat="33.155936196982786" lon="9.154539728747563"><ele>132.0</ele><time>2026-03-30T09:53:36Z</time></trkpt><trkpt lat="33.1558435685193" lon="9.154655936608542"><ele>132.0</ele><time>2026-03-30T09:53:37Z</time></trkpt><trkpt lat="33.15573803987647" lon="9.154772040605792"><ele>132.0</ele><time>2026-03-30T09:53:38Z</time></trkpt><trkpt lat="33.15561561522914" lon="9.154877761829809"><ele>132.0</ele><time>2026-03-30T09:53:39Z</time></trkpt><trkpt lat="33.15548989585958" lon="9.154961266685163"><ele>132.0</ele><time>2026-03-30T09:53:40Z</time></trkpt><trkpt lat="33.155368280687306" lon="9.155022888532656"><ele>132.0</ele><time>2026-03-30T09:53:41Z</time></trkpt><trkpt lat="33.15523325665491" lon="9.15507861115818"><ele>132.0</ele><time>2026-03-30T09:53:42Z</time></trkpt><trkpt lat="33.155102133413365" lon="9.155127125621153"><ele>132.0</ele><time>2026-03-30T09:53:43Z</time></trkpt><trkpt lat="33.154976328540876" lon="9.155194935666911"><ele>132.0</ele><time>2026-03-30T09:53:44Z</time></trkpt><trkpt lat="33.15485488485037" lon="9.155267290432151"><ele>132.0</ele><time>2026-03-30T09:53:45Z</time></trkpt><trkpt lat="33.15473266790207" lon="9.155344226380732"><ele>132.0</ele><time>2026-03-30T09:53:46Z</time></trkpt><trkpt lat="33.15462044336678" lon="9.155431119091466"><ele>132.25</ele><time>2026-03-30T09:53:47Z</time></trkpt><trkpt lat="33.15450228947523" lon="9.155522564080293"><ele>132.5</ele><time>2026-03-30T09:53:48Z</time></trkpt><trkpt lat="33.15438447530131" lon="9.155603096709514"><ele>132.75</ele><time>2026-03-30T09:53:49Z</time></trkpt><trkpt lat="33.154267014461986" lon="9.15568874287581"><ele>133.0</ele><time>2026-03-30T09:53:50Z</time></trkpt><trkpt lat="33.154141517216026" lon="9.155768245676692"><ele>133.0</ele><time>2026-03-30T09:53:51Z</time></trkpt><trkpt lat="33.154005882273246" lon="9.155853923900036"><ele>133.0</ele><time>2026-03-30T09:53:52Z</time></trkpt><trkpt lat="33.153877073669655" lon="9.155930894248074"><ele>133.0</ele><time>2026-03-30T09:53:53Z</time></trkpt><trkpt lat="33.15374535798139" lon="9.156021766976437"><ele>133.0</ele><time>2026-03-30T09:53:54Z</time></trkpt><trkpt lat="33.15360635816473" lon="9.15611083458746"><ele>133.0</ele><time>2026-03-30T09:53:55Z</time></trkpt><trkpt lat="33.153479373629466" lon="9.15619397229996"><ele>133.0</ele><time>2026-03-30T09:53:56Z</time></trkpt><trkpt lat="33.15335924149803" lon="9.156277063497008"><ele>133.0</ele><time>2026-03-30T09:53:57Z</time></trkpt><trkpt lat="33.15322888869932" lon="9.156359380510715"><ele>134.0</ele><time>2026-03-30T09:53:58Z</time></trkpt><trkpt lat="33.15310118432006" lon="9.15644169413401"><ele>135.0</ele><time>2026-03-30T09:53:59Z</time></trkpt><trkpt lat="33.152976102871904" lon="9.156523782682925"><ele>136.0</ele><time>2026-03-30T09:54:00Z</time></trkpt><trkpt lat="33.15284509319255" lon="9.15660139773389"><ele>137.0</ele><time>2026-03-30T09:54:01Z</time></trkpt><trkpt lat="33.15271756739763" lon="9.156682473493694"><ele>137.0</ele><time>2026-03-30T09:54:02Z</time></trkpt><trkpt lat="33.15258282554586" lon="9.15677109808929"><ele>137.0</ele><time>2026-03-30T09:54:03Z</time></trkpt><trkpt lat="33.15244833947333" lon="9.156861153587482"><ele>137.0</ele><time>2026-03-30T09:54:04Z</time></trkpt><trkpt lat="33.15231622101004" lon="9.156947498990563"><ele>137.33333333333331</ele><time>2026-03-30T09:54:05Z</time></trkpt><trkpt lat="33.1521748096749" lon="9.15704237188172"><ele>137.66666666666666</ele><time>2026-03-30T09:54:06Z</time></trkpt><trkpt lat="33.15203098878611" lon="9.157135529756282"><ele>138.0</ele><time>2026-03-30T09:54:07Z</time></trkpt><trkpt lat="33.1518809244134" lon="9.157230140332196"><ele>138.0</ele><time>2026-03-30T09:54:08Z</time></trkpt><trkpt lat="33.15172999492275" lon="9.157320289758381"><ele>138.0</ele><time>2026-03-30T09:54:09Z</time></trkpt><trkpt lat="33.15158202720308" lon="9.15740918389725"><ele>138.0</ele><time>2026-03-30T09:54:10Z</time></trkpt><trkpt lat="33.15144365334541" lon="9.15749960716822"><ele>138.0</ele><time>2026-03-30T09:54:11Z</time></trkpt><trkpt lat="33.151297208844205" lon="9.157592254091401"><ele>138.0</ele><time>2026-03-30T09:54:12Z</time></trkpt><trkpt lat="33.15116039915033" lon="9.157684088576305"><ele>138.0</ele><time>2026-03-30T09:54:13Z</time></trkpt><trkpt lat="33.15102351919124" lon="9.15776931533809"><ele>138.0</ele><time>2026-03-30T09:54:14Z</time></trkpt><trkpt lat="33.15087046934699" lon="9.157870791259061"><ele>138.0</ele><time>2026-03-30T09:54:15Z</time></trkpt><trkpt lat="33.15070511431754" lon="9.15797150199645"><ele>138.0</ele><time>2026-03-30T09:54:16Z</time></trkpt><trkpt lat="33.15053637690967" lon="9.158067754938218"><ele>138.0</ele><time>2026-03-30T09:54:17Z</time></trkpt><trkpt lat="33.150378933846966" lon="9.158158195748257"><ele>138.0</ele><time>2026-03-30T09:54:18Z</time></trkpt><trkpt lat="33.15023422473093" lon="9.15825010630826"><ele>138.0</ele><time>2026-03-30T09:54:19Z</time></trkpt><trkpt lat="33.15010760685217" lon="9.158335546564707"><ele>138.0</ele><time>2026-03-30T09:54:20Z</time></trkpt><trkpt lat="33.14998641044341" lon="9.158417942617715"><ele>138.0</ele><time>2026-03-30T09:54:21Z</time></trkpt><trkpt lat="33.149861364537195" lon="9.158498645974715"><ele>138.0</ele><time>2026-03-30T09:54:22Z</time></trkpt><trkpt lat="33.14974100081471" lon="9.158570188718361"><ele>138.0</ele><time>2026-03-30T09:54:23Z</time></trkpt><trkpt lat="33.1496149749196" lon="9.158631498358897"><ele>138.5</ele><time>2026-03-30T09:54:24Z</time></trkpt><trkpt lat="33.14946619557283" lon="9.158676893009934"><ele>139.0</ele><time>2026-03-30T09:54:25Z</time></trkpt><trkpt lat="33.149346549608374" lon="9.158689721313909"><ele>139.5</ele><time>2026-03-30T09:54:26Z</time></trkpt><trkpt lat="33.14924856030605" lon="9.15868161255236"><ele>140.0</ele><time>2026-03-30T09:54:27Z</time></trkpt><trkpt lat="33.149163887081315" lon="9.158669528849597"><ele>140.0</ele><time>2026-03-30T09:54:28Z</time></trkpt><trkpt lat="33.14909076100284" lon="9.15866207517014"><ele>140.0</ele><time>2026-03-30T09:54:29Z</time></trkpt><trkpt lat="33.14897791071672" lon="9.158714490617859"><ele>140.0</ele><time>2026-03-30T09:54:31Z</time></trkpt><trkpt lat="33.14891900038839" lon="9.158743616407097"><ele>140.0</ele><time>2026-03-30T09:54:32Z</time></trkpt><trkpt lat="33.14881493099822" lon="9.158791452592583"><ele>140.0</ele><time>2026-03-30T09:54:34Z</time></trkpt><trkpt lat="33.148722424178246" lon="9.158788984522934"><ele>140.42857142857142</ele><time>2026-03-30T09:54:36Z</time></trkpt><trkpt lat="33.148641212351095" lon="9.158781513880543"><ele>140.85714285714286</ele><time>2026-03-30T09:54:39Z</time></trkpt><trkpt lat="33.14858296529769" lon="9.158752840741416"><ele>141.28571428571428</ele><time>2026-03-30T09:54:42Z</time></trkpt><trkpt lat="33.1486251772116" lon="9.158831023759994"><ele>141.71428571428572</ele><time>2026-03-30T10:02:58.002Z</time></trkpt><trkpt lat="33.148570892190236" lon="9.15878602540869"><ele>142.14285714285714</ele><time>2026-03-30T10:03:16.001Z</time></trkpt><trkpt lat="33.148504313758785" lon="9.158804490301392"><ele>142.57142857142856</ele><time>2026-03-30T10:03:29Z</time></trkpt><trkpt lat="33.14858271205003" lon="9.158803097190118"><ele>143.0</ele><time>2026-03-30T10:31:03.999Z</time></trkpt><trkpt lat="33.148582329319275" lon="9.158716697188577"><ele>142.99999999999997</ele><time>2026-03-30T10:38:10.999Z</time></trkpt><trkpt lat="33.14861830950953" lon="9.158630248985736"><ele>143.0</ele><time>2026-03-30T10:38:12.999Z</time></trkpt><trkpt lat="33.14863487126222" lon="9.15854802884053"><ele>143.0</ele><time>2026-03-30T10:38:14.999Z</time></trkpt><trkpt lat="33.14868403956529" lon="9.15847041135312"><ele>143.0</ele><time>2026-03-30T10:38:18.999Z</time></trkpt><trkpt lat="33.148758103388964" lon="9.158477986748563"><ele>143.0</ele><time>2026-03-30T10:38:20.999Z</time></trkpt><trkpt lat="33.14881598448565" lon="9.158513012316593"><ele>142.99999999999997</ele><time>2026-03-30T10:38:22.999Z</time></trkpt><trkpt lat="33.14888041675318" lon="9.158557494004487"><ele>143.0</ele><time>2026-03-30T10:38:24.999Z</time></trkpt><trkpt lat="33.1489673724052" lon="9.158633275400707"><ele>143.0</ele><time>2026-03-30T10:38:26.999Z</time></trkpt><trkpt lat="33.1490179578706" lon="9.158687536927546"><ele>143.0</ele><time>2026-03-30T10:38:28.999Z</time></trkpt><trkpt lat="33.14902682225286" lon="9.158791881394615"><ele>143.0</ele><time>2026-03-30T10:38:31.999Z</time></trkpt><trkpt lat="33.148923416024516" lon="9.158843592320272"><ele>143.0</ele><time>2026-03-30T10:38:35.001Z</time></trkpt><trkpt lat="33.14887384227669" lon="9.158919724428507"><ele>143.0</ele><time>2026-03-30T10:38:37.001Z</time></trkpt><trkpt lat="33.14883088698449" lon="9.158994136144655"><ele>143.0</ele><time>2026-03-30T10:38:40.001Z</time></trkpt><trkpt lat="33.14876769744716" lon="9.159042441705388"><ele>143.0</ele><time>2026-03-30T10:38:43Z</time></trkpt><trkpt lat="33.14872131032226" lon="9.158984030235388"><ele>143.0</ele><time>2026-03-30T10:38:46Z</time></trkpt><trkpt lat="33.14875133102353" lon="9.158916040805611"><ele>143.0</ele><time>2026-03-30T10:38:49Z</time></trkpt><trkpt lat="33.148835389487" lon="9.158977218123365"><ele>143.0</ele><time>2026-03-30T10:38:52Z</time></trkpt><trkpt lat="33.148876690215495" lon="9.159034576933172"><ele>143.0</ele><time>2026-03-30T10:38:55Z</time></trkpt><trkpt lat="33.148966251385474" lon="9.158994042171306"><ele>143.0</ele><time>2026-03-30T10:43:56Z</time></trkpt><trkpt lat="33.14895300966485" lon="9.158879138324844"><ele>143.0</ele><time>2026-03-30T10:43:59Z</time></trkpt><trkpt lat="33.148875620070285" lon="9.158844607846074"><ele>143.0</ele><time>2026-03-30T10:44:02Z</time></trkpt><trkpt lat="33.14881123868116" lon="9.158933770142879"><ele>143.0</ele><time>2026-03-30T10:44:05Z</time></trkpt><trkpt lat="33.148765646451395" lon="9.158992669308427"><ele>143.0</ele><time>2026-03-30T10:44:13.999Z</time></trkpt><trkpt lat="33.148680567932615" lon="9.15908933374596"><ele>143.0</ele><time>2026-03-30T10:44:15.999Z</time></trkpt><trkpt lat="33.14861010233127" lon="9.159204808134902"><ele>142.83333333333331</ele><time>2026-03-30T10:44:17.999Z</time></trkpt><trkpt lat="33.1485653505296" lon="9.159266023215721"><ele>142.66666666666666</ele><time>2026-03-30T10:44:18.999Z</time></trkpt><trkpt lat="33.148516486597984" lon="9.159318954269498"><ele>142.5</ele><time>2026-03-30T10:44:19.999Z</time></trkpt><trkpt lat="33.148413916016686" lon="9.1594210741482"><ele>142.33333333333334</ele><time>2026-03-30T10:44:21.999Z</time></trkpt><trkpt lat="33.14835522425876" lon="9.159472853685678"><ele>142.16666666666669</ele><time>2026-03-30T10:44:22.999Z</time></trkpt><trkpt lat="33.148291747901574" lon="9.159522268592097"><ele>142.0</ele><time>2026-03-30T10:44:23.999Z</time></trkpt><trkpt lat="33.14822995732172" lon="9.159581824890038"><ele>141.79999999999998</ele><time>2026-03-30T10:44:24.999Z</time></trkpt><trkpt lat="33.14816392655818" lon="9.159647363015708"><ele>141.6</ele><time>2026-03-30T10:44:25.999Z</time></trkpt><trkpt lat="33.148085742189195" lon="9.159728963497344"><ele>141.39999999999998</ele><time>2026-03-30T10:44:26.999Z</time></trkpt><trkpt lat="33.148006771358205" lon="9.159811475033562"><ele>141.2</ele><time>2026-03-30T10:44:27.999Z</time></trkpt><trkpt lat="33.14792721380553" lon="9.159886230497975"><ele>141.0</ele><time>2026-03-30T10:44:28.999Z</time></trkpt><trkpt lat="33.14785426144679" lon="9.15996590237109"><ele>140.66666666666666</ele><time>2026-03-30T10:44:29.999Z</time></trkpt><trkpt lat="33.14778809781616" lon="9.160031663480163"><ele>140.33333333333334</ele><time>2026-03-30T10:44:30.999Z</time></trkpt><trkpt lat="33.14772224400998" lon="9.160107450104553"><ele>140.0</ele><time>2026-03-30T10:44:31.999Z</time></trkpt><trkpt lat="33.14765538930212" lon="9.160180353661223"><ele>139.66666666666669</ele><time>2026-03-30T10:44:32.999Z</time></trkpt><trkpt lat="33.147592905881396" lon="9.16024940344264"><ele>139.33333333333334</ele><time>2026-03-30T10:44:33.999Z</time></trkpt><trkpt lat="33.14752932013104" lon="9.160316979132036"><ele>139.0</ele><time>2026-03-30T10:44:34.999Z</time></trkpt><trkpt lat="33.14745805583709" lon="9.160374014730479"><ele>139.0</ele><time>2026-03-30T10:44:35.999Z</time></trkpt><trkpt lat="33.14738604932593" lon="9.160431476209373"><ele>139.0</ele><time>2026-03-30T10:44:36.999Z</time></trkpt><trkpt lat="33.14730723625172" lon="9.16050111215758"><ele>139.0</ele><time>2026-03-30T10:44:37.999Z</time></trkpt><trkpt lat="33.147227543736705" lon="9.160567490903615"><ele>139.0</ele><time>2026-03-30T10:44:38.999Z</time></trkpt><trkpt lat="33.147156848380185" lon="9.160627943063526"><ele>139.0</ele><time>2026-03-30T10:44:39.999Z</time></trkpt><trkpt lat="33.1470892366489" lon="9.160688978687439"><ele>138.83333333333334</ele><time>2026-03-30T10:44:40.999Z</time></trkpt><trkpt lat="33.14702918677788" lon="9.1607453620432"><ele>138.66666666666669</ele><time>2026-03-30T10:44:41.999Z</time></trkpt><trkpt lat="33.146964434854" lon="9.160806009990527"><ele>138.5</ele><time>2026-03-30T10:44:42.999Z</time></trkpt><trkpt lat="33.14691000299353" lon="9.16086677156939"><ele>138.33333333333334</ele><time>2026-03-30T10:44:43.999Z</time></trkpt><trkpt lat="33.14681926159647" lon="9.160977627892027"><ele>138.16666666666666</ele><time>2026-03-30T10:44:45.999Z</time></trkpt><trkpt lat="33.14676392154657" lon="9.161042509848052"><ele>138.0</ele><time>2026-03-30T10:44:46.999Z</time></trkpt><trkpt lat="33.146706375933256" lon="9.1611049532815"><ele>138.0</ele><time>2026-03-30T10:44:47.999Z</time></trkpt><trkpt lat="33.14665252729584" lon="9.161150774837761"><ele>138.0</ele><time>2026-03-30T10:44:48.999Z</time></trkpt><trkpt lat="33.146590355693306" lon="9.161214047516602"><ele>138.0</ele><time>2026-03-30T10:44:51Z</time></trkpt><trkpt lat="33.14649020027589" lon="9.16129563867733"><ele>138.0</ele><time>2026-03-30T10:44:53Z</time></trkpt><trkpt lat="33.14643505946081" lon="9.161340163136868"><ele>138.0</ele><time>2026-03-30T10:44:54Z</time></trkpt><trkpt lat="33.146340488259156" lon="9.16143962710096"><ele>138.20000000000002</ele><time>2026-03-30T10:44:56Z</time></trkpt><trkpt lat="33.14628044825961" lon="9.16147921041847"><ele>138.4</ele><time>2026-03-30T10:44:57Z</time></trkpt><trkpt lat="33.146193839569484" lon="9.161530795432673"><ele>138.60000000000002</ele><time>2026-03-30T10:44:59Z</time></trkpt><trkpt lat="33.14612649808927" lon="9.161576314362959"><ele>138.8</ele><time>2026-03-30T10:45:01Z</time></trkpt><trkpt lat="33.146076157657724" lon="9.1616703943927"><ele>139.0</ele><time>2026-03-30T10:45:03Z</time></trkpt><trkpt lat="33.146012971834374" lon="9.161803605945531"><ele>139.0</ele><time>2026-03-30T10:45:05Z</time></trkpt><trkpt lat="33.14595999178007" lon="9.161862237048185"><ele>139.0</ele><time>2026-03-30T10:45:06Z</time></trkpt><trkpt lat="33.145902689779554" lon="9.161904699313148"><ele>139.0</ele><time>2026-03-30T10:45:07Z</time></trkpt><trkpt lat="33.14582630014308" lon="9.161999565493101"><ele>139.0</ele><time>2026-03-30T10:45:09Z</time></trkpt><trkpt lat="33.14576578357413" lon="9.162101131932952"><ele>139.0</ele><time>2026-03-30T10:45:11Z</time></trkpt><trkpt lat="33.14568992231593" lon="9.162177168692288"><ele>138.83333333333334</ele><time>2026-03-30T10:45:13Z</time></trkpt><trkpt lat="33.14563571641837" lon="9.162223942624724"><ele>138.66666666666669</ele><time>2026-03-30T10:45:14Z</time></trkpt><trkpt lat="33.14554918442671" lon="9.162286996191407"><ele>138.5</ele><time>2026-03-30T10:45:16Z</time></trkpt><trkpt lat="33.14546820444811" lon="9.162403798475967"><ele>138.33333333333334</ele><time>2026-03-30T10:45:18Z</time></trkpt><trkpt lat="33.14540871460831" lon="9.162451628011324"><ele>138.16666666666666</ele><time>2026-03-30T10:45:19Z</time></trkpt><trkpt lat="33.145339721914475" lon="9.162501020650927"><ele>138.0</ele><time>2026-03-30T10:45:20Z</time></trkpt><trkpt lat="33.14526632236587" lon="9.162556871571917"><ele>138.0</ele><time>2026-03-30T10:45:21Z</time></trkpt><trkpt lat="33.14519286436529" lon="9.162625595119106"><ele>138.0</ele><time>2026-03-30T10:45:22Z</time></trkpt><trkpt lat="33.14512832506899" lon="9.162688734416937"><ele>138.0</ele><time>2026-03-30T10:45:23Z</time></trkpt><trkpt lat="33.145064168046396" lon="9.162761635541406"><ele>138.0</ele><time>2026-03-30T10:45:24Z</time></trkpt><trkpt lat="33.1450023834096" lon="9.162844602941446"><ele>138.0</ele><time>2026-03-30T10:45:25Z</time></trkpt><trkpt lat="33.14493396803837" lon="9.16292293872052"><ele>138.0</ele><time>2026-03-30T10:45:26Z</time></trkpt><trkpt lat="33.144858023371945" lon="9.162995497578251"><ele>138.0</ele><time>2026-03-30T10:45:27Z</time></trkpt><trkpt lat="33.14479127503985" lon="9.16305992192058"><ele>138.0</ele><time>2026-03-30T10:45:28Z</time></trkpt><trkpt lat="33.14472175314733" lon="9.163133399584343"><ele>138.0</ele><time>2026-03-30T10:45:29Z</time></trkpt><trkpt lat="33.14465251900977" lon="9.163207632016714"><ele>138.0</ele><time>2026-03-30T10:45:30Z</time></trkpt><trkpt lat="33.144585981135194" lon="9.1632775198717"><ele>138.0</ele><time>2026-03-30T10:45:31Z</time></trkpt><trkpt lat="33.14451742218385" lon="9.163350556852588"><ele>138.0</ele><time>2026-03-30T10:45:32Z</time></trkpt><trkpt lat="33.14445159659257" lon="9.163418547076498"><ele>138.0</ele><time>2026-03-30T10:45:33Z</time></trkpt><trkpt lat="33.14438958660725" lon="9.163491728487351"><ele>138.0</ele><time>2026-03-30T10:45:34Z</time></trkpt><trkpt lat="33.144321407725336" lon="9.16356288221581"><ele>138.0</ele><time>2026-03-30T10:45:35Z</time></trkpt><trkpt lat="33.144247913609576" lon="9.163631184456388"><ele>138.0</ele><time>2026-03-30T10:45:36Z</time></trkpt><trkpt lat="33.14417921020312" lon="9.163692688110677"><ele>138.0</ele><time>2026-03-30T10:45:37Z</time></trkpt><trkpt lat="33.144109608233634" lon="9.163763397855552"><ele>138.0</ele><time>2026-03-30T10:45:38Z</time></trkpt><trkpt lat="33.1440396795026" lon="9.16383858262466"><ele>138.0</ele><time>2026-03-30T10:45:39Z</time></trkpt><trkpt lat="33.1439688962083" lon="9.163918641821073"><ele>138.0</ele><time>2026-03-30T10:45:40Z</time></trkpt><trkpt lat="33.143886424520225" lon="9.16400130771624"><ele>137.66666666666666</ele><time>2026-03-30T10:45:41Z</time></trkpt><trkpt lat="33.14381352300234" lon="9.164066033231709"><ele>137.33333333333334</ele><time>2026-03-30T10:45:42Z</time></trkpt><trkpt lat="33.14374033162281" lon="9.164136780999598"><ele>137.0</ele><time>2026-03-30T10:45:43Z</time></trkpt><trkpt lat="33.143674878929836" lon="9.164203087812353"><ele>136.66666666666669</ele><time>2026-03-30T10:45:44Z</time></trkpt><trkpt lat="33.143613329724296" lon="9.164275289112425"><ele>136.33333333333334</ele><time>2026-03-30T10:45:45Z</time></trkpt><trkpt lat="33.14354827037232" lon="9.164346965148106"><ele>136.0</ele><time>2026-03-30T10:45:46Z</time></trkpt><trkpt lat="33.14346997584207" lon="9.164416317827225"><ele>136.0</ele><time>2026-03-30T10:45:47Z</time></trkpt><trkpt lat="33.14338243044568" lon="9.164483868982513"><ele>136.0</ele><time>2026-03-30T10:45:48Z</time></trkpt><trkpt lat="33.14329872466202" lon="9.164557326078947"><ele>136.0</ele><time>2026-03-30T10:45:49Z</time></trkpt><trkpt lat="33.14321907197855" lon="9.164639887597941"><ele>136.0</ele><time>2026-03-30T10:45:50Z</time></trkpt><trkpt lat="33.14313167392784" lon="9.16473050261936"><ele>136.0</ele><time>2026-03-30T10:45:51Z</time></trkpt><trkpt lat="33.143042955704765" lon="9.164816535720773"><ele>136.25</ele><time>2026-03-30T10:45:52Z</time></trkpt><trkpt lat="33.14295510114946" lon="9.164907290604495"><ele>136.5</ele><time>2026-03-30T10:45:53Z</time></trkpt><trkpt lat="33.142872646888854" lon="9.16499513793907"><ele>136.75</ele><time>2026-03-30T10:45:53.999Z</time></trkpt><trkpt lat="33.142789149708335" lon="9.165084468970052"><ele>137.0</ele><time>2026-03-30T10:45:54.999Z</time></trkpt><trkpt lat="33.14270533042298" lon="9.165171517497404"><ele>137.0</ele><time>2026-03-30T10:45:55.999Z</time></trkpt><trkpt lat="33.142624692634506" lon="9.16526302600648"><ele>137.0</ele><time>2026-03-30T10:45:56.999Z</time></trkpt><trkpt lat="33.142548144773286" lon="9.165346200255156"><ele>137.0</ele><time>2026-03-30T10:45:57.999Z</time></trkpt><trkpt lat="33.14247760757247" lon="9.165416332380284"><ele>137.0</ele><time>2026-03-30T10:45:58.999Z</time></trkpt><trkpt lat="33.14240071139378" lon="9.165493298618388"><ele>137.0</ele><time>2026-03-30T10:45:59.999Z</time></trkpt><trkpt lat="33.14231909668698" lon="9.165579822895655"><ele>137.0</ele><time>2026-03-30T10:46:00.999Z</time></trkpt><trkpt lat="33.14224621431674" lon="9.165663948587037"><ele>137.0</ele><time>2026-03-30T10:46:01.999Z</time></trkpt><trkpt lat="33.142171445859454" lon="9.165740126387394"><ele>137.0</ele><time>2026-03-30T10:46:02.999Z</time></trkpt><trkpt lat="33.14209209932998" lon="9.165813103236339"><ele>137.0</ele><time>2026-03-30T10:46:03.999Z</time></trkpt><trkpt lat="33.142014929835526" lon="9.165890648861843"><ele>137.0</ele><time>2026-03-30T10:46:04.999Z</time></trkpt><trkpt lat="33.14193353441944" lon="9.16597271769223"><ele>137.0</ele><time>2026-03-30T10:46:05.999Z</time></trkpt><trkpt lat="33.14185425825412" lon="9.166050433783095"><ele>137.0</ele><time>2026-03-30T10:46:06.999Z</time></trkpt><trkpt lat="33.141771145537426" lon="9.166123088454144"><ele>137.0</ele><time>2026-03-30T10:46:07.999Z</time></trkpt><trkpt lat="33.14169658989222" lon="9.166190957645926"><ele>137.0</ele><time>2026-03-30T10:46:08.999Z</time></trkpt><trkpt lat="33.14161996958609" lon="9.166268962270944"><ele>137.0</ele><time>2026-03-30T10:46:09.999Z</time></trkpt><trkpt lat="33.14154296319558" lon="9.166353145784742"><ele>137.2</ele><time>2026-03-30T10:46:10.999Z</time></trkpt><trkpt lat="33.141465395945026" lon="9.166429967078196"><ele>137.39999999999998</ele><time>2026-03-30T10:46:11.999Z</time></trkpt><trkpt lat="33.141384072818425" lon="9.16650369988332"><ele>137.60000000000002</ele><time>2026-03-30T10:46:12.999Z</time></trkpt><trkpt lat="33.141302991161936" lon="9.16657522288054"><ele>137.8</ele><time>2026-03-30T10:46:13.999Z</time></trkpt><trkpt lat="33.14121637515004" lon="9.166654788988332"><ele>138.0</ele><time>2026-03-30T10:46:14.999Z</time></trkpt><trkpt lat="33.14112963354689" lon="9.166739053752641"><ele>138.0</ele><time>2026-03-30T10:46:15.999Z</time></trkpt><trkpt lat="33.141049945723395" lon="9.166827986192256"><ele>138.0</ele><time>2026-03-30T10:46:16.999Z</time></trkpt><trkpt lat="33.140964940539774" lon="9.16690884218281"><ele>138.0</ele><time>2026-03-30T10:46:17.999Z</time></trkpt><trkpt lat="33.1408817355183" lon="9.166986546194273"><ele>138.0</ele><time>2026-03-30T10:46:18.999Z</time></trkpt><trkpt lat="33.14080449237553" lon="9.167068140713667"><ele>138.0</ele><time>2026-03-30T10:46:19.999Z</time></trkpt><trkpt lat="33.140719974694164" lon="9.16714952627539"><ele>138.4</ele><time>2026-03-30T10:46:20.999Z</time></trkpt><trkpt lat="33.14064226105735" lon="9.167227428008331"><ele>138.8</ele><time>2026-03-30T10:46:21.999Z</time></trkpt><trkpt lat="33.14056417948635" lon="9.167307248349562"><ele>139.2</ele><time>2026-03-30T10:46:22.999Z</time></trkpt><trkpt lat="33.140492351395395" lon="9.167387419702496"><ele>139.6</ele><time>2026-03-30T10:46:23.999Z</time></trkpt><trkpt lat="33.14042341881588" lon="9.16746156352915"><ele>140.0</ele><time>2026-03-30T10:46:24.999Z</time></trkpt><trkpt lat="33.1403524712207" lon="9.167532449559637"><ele>140.16666666666666</ele><time>2026-03-30T10:46:25.999Z</time></trkpt><trkpt lat="33.140289171028165" lon="9.167601668445679"><ele>140.33333333333331</ele><time>2026-03-30T10:46:26.999Z</time></trkpt><trkpt lat="33.140226803426316" lon="9.16767399352198"><ele>140.5</ele><time>2026-03-30T10:46:27.999Z</time></trkpt><trkpt lat="33.140169449258636" lon="9.167735364053623"><ele>140.66666666666666</ele><time>2026-03-30T10:46:28.999Z</time></trkpt><trkpt lat="33.14010293886958" lon="9.167795143384117"><ele>140.83333333333334</ele><time>2026-03-30T10:46:29.999Z</time></trkpt><trkpt lat="33.14002612173851" lon="9.167866940914744"><ele>141.0</ele><time>2026-03-30T10:46:30.999Z</time></trkpt><trkpt lat="33.13995587468931" lon="9.167949128735595"><ele>141.4</ele><time>2026-03-30T10:46:31.999Z</time></trkpt><trkpt lat="33.13987159196534" lon="9.168040454885436"><ele>141.8</ele><time>2026-03-30T10:46:32.999Z</time></trkpt><trkpt lat="33.139792880864256" lon="9.16812863211882"><ele>142.20000000000002</ele><time>2026-03-30T10:46:33.999Z</time></trkpt><trkpt lat="33.139704096746065" lon="9.168219398883075"><ele>142.6</ele><time>2026-03-30T10:46:34.999Z</time></trkpt><trkpt lat="33.13961784633546" lon="9.168302614539932"><ele>143.0</ele><time>2026-03-30T10:46:35.999Z</time></trkpt><trkpt lat="33.13953491276884" lon="9.16838039032963"><ele>143.20000000000002</ele><time>2026-03-30T10:46:36.999Z</time></trkpt><trkpt lat="33.139455374900386" lon="9.16845764980272"><ele>143.4</ele><time>2026-03-30T10:46:37.999Z</time></trkpt><trkpt lat="33.13938069597754" lon="9.168550214303822"><ele>143.60000000000002</ele><time>2026-03-30T10:46:38.999Z</time></trkpt><trkpt lat="33.13930317041318" lon="9.16863629649613"><ele>143.8</ele><time>2026-03-30T10:46:39.999Z</time></trkpt><trkpt lat="33.139229034608334" lon="9.168710979188203"><ele>144.0</ele><time>2026-03-30T10:46:40.999Z</time></trkpt><trkpt lat="33.139146716738885" lon="9.16879512737188"><ele>144.0</ele><time>2026-03-30T10:46:41.999Z</time></trkpt><trkpt lat="33.13906566072579" lon="9.168875013814674"><ele>144.0</ele><time>2026-03-30T10:46:42.999Z</time></trkpt><trkpt lat="33.138984763596135" lon="9.16895059754009"><ele>144.0</ele><time>2026-03-30T10:46:43.999Z</time></trkpt><trkpt lat="33.13890893886557" lon="9.169020257740586"><ele>144.0</ele><time>2026-03-30T10:46:44.999Z</time></trkpt><trkpt lat="33.138837861654174" lon="9.16909428304178"><ele>144.0</ele><time>2026-03-30T10:46:45.999Z</time></trkpt><trkpt lat="33.13878183147997" lon="9.169154831311939"><ele>144.0</ele><time>2026-03-30T10:46:46.999Z</time></trkpt><trkpt lat="33.13872869943718" lon="9.16920793167532"><ele>144.0</ele><time>2026-03-30T10:46:47.999Z</time></trkpt><trkpt lat="33.13861691461517" lon="9.169316877007294"><ele>144.0</ele><time>2026-03-30T10:46:49.999Z</time></trkpt><trkpt lat="33.13855640478396" lon="9.16937436540005"><ele>144.0</ele><time>2026-03-30T10:46:50.999Z</time></trkpt><trkpt lat="33.13849663763426" lon="9.169429594408395"><ele>144.0</ele><time>2026-03-30T10:46:51.999Z</time></trkpt><trkpt lat="33.13842055242918" lon="9.169492998734784"><ele>144.0</ele><time>2026-03-30T10:46:52.999Z</time></trkpt><trkpt lat="33.13835465977777" lon="9.16956166220289"><ele>144.0</ele><time>2026-03-30T10:46:53.999Z</time></trkpt><trkpt lat="33.138278950470486" lon="9.169635905773177"><ele>144.0</ele><time>2026-03-30T10:46:54.999Z</time></trkpt><trkpt lat="33.138205096048" lon="9.16971924136504"><ele>144.0</ele><time>2026-03-30T10:46:55.999Z</time></trkpt><trkpt lat="33.13812526866943" lon="9.169799433159868"><ele>144.0</ele><time>2026-03-30T10:46:56.999Z</time></trkpt><trkpt lat="33.1380476633687" lon="9.169885164849111"><ele>144.0</ele><time>2026-03-30T10:46:57.999Z</time></trkpt><trkpt lat="33.137967640587085" lon="9.169968534211781"><ele>144.0</ele><time>2026-03-30T10:46:58.999Z</time></trkpt><trkpt lat="33.13788602803557" lon="9.170046593051202"><ele>144.0</ele><time>2026-03-30T10:46:59.999Z</time></trkpt><trkpt lat="33.13780592583679" lon="9.170128243717695"><ele>144.0</ele><time>2026-03-30T10:47:00.999Z</time></trkpt><trkpt lat="33.1377289507508" lon="9.170218700943154"><ele>144.0</ele><time>2026-03-30T10:47:01.999Z</time></trkpt><trkpt lat="33.137655025098965" lon="9.170306303739583"><ele>144.0</ele><time>2026-03-30T10:47:02.999Z</time></trkpt><trkpt lat="33.13757725115789" lon="9.170391633327545"><ele>144.0</ele><time>2026-03-30T10:47:03.999Z</time></trkpt><trkpt lat="33.137494625378544" lon="9.170475334051417"><ele>144.0</ele><time>2026-03-30T10:47:04.999Z</time></trkpt><trkpt lat="33.13740193692164" lon="9.170572952415904"><ele>144.0</ele><time>2026-03-30T10:47:05.999Z</time></trkpt><trkpt lat="33.13730575806762" lon="9.17067208275627"><ele>144.0</ele><time>2026-03-30T10:47:06.999Z</time></trkpt><trkpt lat="33.13721815565766" lon="9.170765746029717"><ele>144.0</ele><time>2026-03-30T10:47:07.999Z</time></trkpt><trkpt lat="33.13714743468147" lon="9.170832800275562"><ele>144.0</ele><time>2026-03-30T10:47:08.999Z</time></trkpt><trkpt lat="33.13707857559872" lon="9.170892555486184"><ele>144.0</ele><time>2026-03-30T10:47:09.999Z</time></trkpt><trkpt lat="33.137011280862396" lon="9.170957065068759"><ele>144.0</ele><time>2026-03-30T10:47:10.999Z</time></trkpt><trkpt lat="33.13692433290913" lon="9.171044405187383"><ele>144.0</ele><time>2026-03-30T10:47:11.999Z</time></trkpt><trkpt lat="33.136840759722254" lon="9.171132615685135"><ele>144.0</ele><time>2026-03-30T10:47:12.999Z</time></trkpt><trkpt lat="33.136773640375274" lon="9.171195929564368"><ele>144.0</ele><time>2026-03-30T10:47:13.999Z</time></trkpt><trkpt lat="33.13670872504123" lon="9.17126322718876"><ele>144.0</ele><time>2026-03-30T10:47:14.999Z</time></trkpt><trkpt lat="33.136636783870756" lon="9.171333585363053"><ele>144.0</ele><time>2026-03-30T10:47:15.999Z</time></trkpt><trkpt lat="33.1365658236911" lon="9.171399466524278"><ele>143.8</ele><time>2026-03-30T10:47:16.999Z</time></trkpt><trkpt lat="33.136487122453765" lon="9.171474698377587"><ele>143.60000000000002</ele><time>2026-03-30T10:47:17.999Z</time></trkpt><trkpt lat="33.13640015432527" lon="9.171553081895366"><ele>143.4</ele><time>2026-03-30T10:47:18.999Z</time></trkpt><trkpt lat="33.1363184597425" lon="9.171634597537604"><ele>143.20000000000002</ele><time>2026-03-30T10:47:19.999Z</time></trkpt><trkpt lat="33.136234714971074" lon="9.171712730887478"><ele>143.0</ele><time>2026-03-30T10:47:20.999Z</time></trkpt><trkpt lat="33.13614168568213" lon="9.171800593031028"><ele>143.0</ele><time>2026-03-30T10:47:21.999Z</time></trkpt><trkpt lat="33.13605266650204" lon="9.171875626733119"><ele>143.0</ele><time>2026-03-30T10:47:22.999Z</time></trkpt><trkpt lat="33.135968071992245" lon="9.171964387950398"><ele>143.0</ele><time>2026-03-30T10:47:23.999Z</time></trkpt><trkpt lat="33.13587998243794" lon="9.172052411165101"><ele>143.0</ele><time>2026-03-30T10:47:24.999Z</time></trkpt><trkpt lat="33.13579021197173" lon="9.172145141193173"><ele>142.75</ele><time>2026-03-30T10:47:25.999Z</time></trkpt><trkpt lat="33.135700684850015" lon="9.172235416835582"><ele>142.5</ele><time>2026-03-30T10:47:26.999Z</time></trkpt><trkpt lat="33.13561357374133" lon="9.172331016544751"><ele>142.25</ele><time>2026-03-30T10:47:27.999Z</time></trkpt><trkpt lat="33.13552080527672" lon="9.17242091533834"><ele>142.0</ele><time>2026-03-30T10:47:28.999Z</time></trkpt><trkpt lat="33.13541573230831" lon="9.172515342031334"><ele>142.5</ele><time>2026-03-30T10:47:29.999Z</time></trkpt><trkpt lat="33.13531867961594" lon="9.172614910781064"><ele>143.0</ele><time>2026-03-30T10:47:30.999Z</time></trkpt><trkpt lat="33.135220968924784" lon="9.172710135698585"><ele>143.5</ele><time>2026-03-30T10:47:31.999Z</time></trkpt><trkpt lat="33.13512040433382" lon="9.17279146953355"><ele>144.0</ele><time>2026-03-30T10:47:32.999Z</time></trkpt><trkpt lat="33.135015146760885" lon="9.172863686119383"><ele>144.0</ele><time>2026-03-30T10:47:33.999Z</time></trkpt><trkpt lat="33.13491695331938" lon="9.172930577034832"><ele>144.0</ele><time>2026-03-30T10:47:34.999Z</time></trkpt><trkpt lat="33.13480880446642" lon="9.172997457351512"><ele>144.0</ele><time>2026-03-30T10:47:35.999Z</time></trkpt><trkpt lat="33.134710999614626" lon="9.173051562661636"><ele>144.0</ele><time>2026-03-30T10:47:36.999Z</time></trkpt><trkpt lat="33.134612708729115" lon="9.173107622178541"><ele>144.2</ele><time>2026-03-30T10:47:37.999Z</time></trkpt><trkpt lat="33.13451367464925" lon="9.173173376234997"><ele>144.4</ele><time>2026-03-30T10:47:38.999Z</time></trkpt><trkpt lat="33.13443091204173" lon="9.173251581212396"><ele>144.6</ele><time>2026-03-30T10:47:39.999Z</time></trkpt><trkpt lat="33.13435389023527" lon="9.173324282347547"><ele>144.8</ele><time>2026-03-30T10:47:40.999Z</time></trkpt><trkpt lat="33.13429779723509" lon="9.173392339065385"><ele>145.0</ele><time>2026-03-30T10:47:41.999Z</time></trkpt><trkpt lat="33.13421579136078" lon="9.173470449482137"><ele>145.0</ele><time>2026-03-30T10:47:42.999Z</time></trkpt><trkpt lat="33.13414527548772" lon="9.173546263281937"><ele>145.0</ele><time>2026-03-30T10:47:43.999Z</time></trkpt><trkpt lat="33.134072314232455" lon="9.173635085605605"><ele>145.0</ele><time>2026-03-30T10:47:44.999Z</time></trkpt><trkpt lat="33.13399678026786" lon="9.17372854688518"><ele>145.0</ele><time>2026-03-30T10:47:45.999Z</time></trkpt><trkpt lat="33.133928362599015" lon="9.17380355716748"><ele>145.0</ele><time>2026-03-30T10:47:46.999Z</time></trkpt><trkpt lat="33.13386285871779" lon="9.173871223596851"><ele>145.0</ele><time>2026-03-30T10:47:47.999Z</time></trkpt><trkpt lat="33.13381391763592" lon="9.173919934734458"><ele>145.0</ele><time>2026-03-30T10:47:48.999Z</time></trkpt><trkpt lat="33.133757868970136" lon="9.173963821773222"><ele>145.0</ele><time>2026-03-30T10:47:49.999Z</time></trkpt><trkpt lat="33.133668287912" lon="9.173994297096874"><ele>145.0</ele><time>2026-03-30T10:47:51.999Z</time></trkpt><trkpt lat="33.13355163721162" lon="9.174055352960849"><ele>145.0</ele><time>2026-03-30T10:47:53.999Z</time></trkpt><trkpt lat="33.133488241127985" lon="9.174103818762298"><ele>145.0</ele><time>2026-03-30T10:47:54.999Z</time></trkpt><trkpt lat="33.13343293433616" lon="9.174164619315713"><ele>145.0</ele><time>2026-03-30T10:47:55.999Z</time></trkpt><trkpt lat="33.13336873153782" lon="9.174246129698481"><ele>145.0</ele><time>2026-03-30T10:47:56.999Z</time></trkpt><trkpt lat="33.133312580434406" lon="9.174325106869839"><ele>145.0</ele><time>2026-03-30T10:47:57.999Z</time></trkpt><trkpt lat="33.133255979924336" lon="9.174382719810318"><ele>145.0</ele><time>2026-03-30T10:47:58.999Z</time></trkpt><trkpt lat="33.13318740065122" lon="9.174432905261126"><ele>145.0</ele><time>2026-03-30T10:47:59.999Z</time></trkpt><trkpt lat="33.13309953994906" lon="9.174500410786987"><ele>145.0</ele><time>2026-03-30T10:48:00.999Z</time></trkpt><trkpt lat="33.13302374165931" lon="9.174570787150138"><ele>144.83333333333334</ele><time>2026-03-30T10:48:01.999Z</time></trkpt><trkpt lat="33.13294807843189" lon="9.174646222127627"><ele>144.66666666666669</ele><time>2026-03-30T10:48:02.999Z</time></trkpt><trkpt lat="33.13287337123488" lon="9.174719142393867"><ele>144.5</ele><time>2026-03-30T10:48:03.999Z</time></trkpt><trkpt lat="33.13281413358885" lon="9.174768625027298"><ele>144.33333333333334</ele><time>2026-03-30T10:48:04.999Z</time></trkpt><trkpt lat="33.13275357273158" lon="9.174820611985245"><ele>144.16666666666666</ele><time>2026-03-30T10:48:05.999Z</time></trkpt><trkpt lat="33.13268694475793" lon="9.1748953968579"><ele>144.0</ele><time>2026-03-30T10:48:06.999Z</time></trkpt><trkpt lat="33.13262437435005" lon="9.174965890556575"><ele>144.0</ele><time>2026-03-30T10:48:07.999Z</time></trkpt><trkpt lat="33.132566472486786" lon="9.175030022162142"><ele>144.0</ele><time>2026-03-30T10:48:08.999Z</time></trkpt><trkpt lat="33.13251295369278" lon="9.175089419703234"><ele>144.0</ele><time>2026-03-30T10:48:09.999Z</time></trkpt><trkpt lat="33.132454802681025" lon="9.175163121889925"><ele>144.0</ele><time>2026-03-30T10:48:10.999Z</time></trkpt><trkpt lat="33.13239814847849" lon="9.175244408797228"><ele>144.0</ele><time>2026-03-30T10:48:11.999Z</time></trkpt><trkpt lat="33.132348449864125" lon="9.175323740669338"><ele>144.0</ele><time>2026-03-30T10:48:12.999Z</time></trkpt><trkpt lat="33.13229296843308" lon="9.175377729422227"><ele>144.0</ele><time>2026-03-30T10:48:13.999Z</time></trkpt><trkpt lat="33.132232794892495" lon="9.175417697761299"><ele>144.0</ele><time>2026-03-30T10:48:14.999Z</time></trkpt><trkpt lat="33.1321240184675" lon="9.17544048403972"><ele>144.0</ele><time>2026-03-30T10:48:16.999Z</time></trkpt><trkpt lat="33.132041939961" lon="9.17547278297479"><ele>144.0</ele><time>2026-03-30T10:48:18.999Z</time></trkpt><trkpt lat="33.1319712222069" lon="9.175602643188707"><ele>144.0</ele><time>2026-03-30T10:48:20.999Z</time></trkpt><trkpt lat="33.13193130351365" lon="9.175690000385694"><ele>144.66666666666666</ele><time>2026-03-30T10:48:21.999Z</time></trkpt><trkpt lat="33.13188915150214" lon="9.175751439392334"><ele>145.33333333333334</ele><time>2026-03-30T10:48:22.999Z</time></trkpt><trkpt lat="33.13180144808778" lon="9.175820738808685"><ele>146.0</ele><time>2026-03-30T10:48:24.999Z</time></trkpt><trkpt lat="33.1317407227789" lon="9.175849483129799"><ele>146.66666666666669</ele><time>2026-03-30T10:48:26.999Z</time></trkpt><trkpt lat="33.13164362091386" lon="9.17586857973958"><ele>147.33333333333334</ele><time>2026-03-30T10:48:30.999Z</time></trkpt><trkpt lat="33.13156000257426" lon="9.175893281391783"><ele>148.0</ele><time>2026-03-30T10:48:32.999Z</time></trkpt><trkpt lat="33.1315317585571" lon="9.176002969909256"><ele>148.0</ele><time>2026-03-30T10:50:15.999Z</time></trkpt><trkpt lat="33.13153426726208" lon="9.176135725665358"><ele>148.0</ele><time>2026-03-30T10:50:17.999Z</time></trkpt><trkpt lat="33.13149134711527" lon="9.176255596064065"><ele>148.0</ele><time>2026-03-30T10:50:19.999Z</time></trkpt><trkpt lat="33.13143049184197" lon="9.176290168261584"><ele>148.0</ele><time>2026-03-30T10:50:20.999Z</time></trkpt><trkpt lat="33.131332057076605" lon="9.176324979187557"><ele>148.0</ele><time>2026-03-30T10:50:21.999Z</time></trkpt><trkpt lat="33.13122772652658" lon="9.176341934318737"><ele>148.0</ele><time>2026-03-30T10:50:22.999Z</time></trkpt><trkpt lat="33.13111630173344" lon="9.176404261972175"><ele>148.0</ele><time>2026-03-30T10:50:23.999Z</time></trkpt><trkpt lat="33.13102314954503" lon="9.17649188200698"><ele>148.0</ele><time>2026-03-30T10:50:24.999Z</time></trkpt><trkpt lat="33.130933552039494" lon="9.176594512618676"><ele>148.0</ele><time>2026-03-30T10:50:25.999Z</time></trkpt><trkpt lat="33.13084351302136" lon="9.176710800352774"><ele>148.0</ele><time>2026-03-30T10:50:26.999Z</time></trkpt><trkpt lat="33.13074089294469" lon="9.176858623221163"><ele>148.0</ele><time>2026-03-30T10:50:27.999Z</time></trkpt><trkpt lat="33.13062802825326" lon="9.176988125218305"><ele>148.0</ele><time>2026-03-30T10:50:28.999Z</time></trkpt><trkpt lat="33.13050970700812" lon="9.177112721345617"><ele>148.25</ele><time>2026-03-30T10:50:29.999Z</time></trkpt><trkpt lat="33.13040302518352" lon="9.177233454455891"><ele>148.5</ele><time>2026-03-30T10:50:30.999Z</time></trkpt><trkpt lat="33.13028474752259" lon="9.1773368940349"><ele>148.75</ele><time>2026-03-30T10:50:31.999Z</time></trkpt><trkpt lat="33.13017442186703" lon="9.177430674995597"><ele>149.0</ele><time>2026-03-30T10:50:32.999Z</time></trkpt><trkpt lat="33.13006961465169" lon="9.177528783207574"><ele>149.33333333333331</ele><time>2026-03-30T10:50:33.999Z</time></trkpt><trkpt lat="33.129943886284735" lon="9.177638534742911"><ele>149.66666666666666</ele><time>2026-03-30T10:50:34.999Z</time></trkpt><trkpt lat="33.129826365185146" lon="9.177750892144664"><ele>150.0</ele><time>2026-03-30T10:50:35.999Z</time></trkpt><trkpt lat="33.12971840891281" lon="9.177864139930733"><ele>150.25</ele><time>2026-03-30T10:50:36.999Z</time></trkpt><trkpt lat="33.12962248792262" lon="9.177972329926318"><ele>150.5</ele><time>2026-03-30T10:50:37.999Z</time></trkpt><trkpt lat="33.12951437921685" lon="9.178101106009656"><ele>150.75</ele><time>2026-03-30T10:50:38.999Z</time></trkpt><trkpt lat="33.12940347526866" lon="9.178224649541917"><ele>151.0</ele><time>2026-03-30T10:50:39.999Z</time></trkpt><trkpt lat="33.12929132774512" lon="9.17834274422629"><ele>151.0</ele><time>2026-03-30T10:50:40.999Z</time></trkpt><trkpt lat="33.129173740596826" lon="9.178459381793743"><ele>151.0</ele><time>2026-03-30T10:50:41.999Z</time></trkpt><trkpt lat="33.12905478289016" lon="9.178577927153759"><ele>151.0</ele><time>2026-03-30T10:50:42.999Z</time></trkpt><trkpt lat="33.12893284519199" lon="9.178691209879107"><ele>151.0</ele><time>2026-03-30T10:50:43.999Z</time></trkpt><trkpt lat="33.12880890393663" lon="9.178807481683846"><ele>151.0</ele><time>2026-03-30T10:50:44.999Z</time></trkpt><trkpt lat="33.128705538364386" lon="9.178903456009113"><ele>151.0</ele><time>2026-03-30T10:50:45.999Z</time></trkpt><trkpt lat="33.12862224500268" lon="9.178993189455689"><ele>151.0</ele><time>2026-03-30T10:50:46.999Z</time></trkpt><trkpt lat="33.12854237093513" lon="9.179100403592326"><ele>150.8</ele><time>2026-03-30T10:50:47.999Z</time></trkpt><trkpt lat="33.128467605584525" lon="9.179224504583416"><ele>150.6</ele><time>2026-03-30T10:50:48.999Z</time></trkpt><trkpt lat="33.12839844645206" lon="9.17933177483995"><ele>150.4</ele><time>2026-03-30T10:50:49.999Z</time></trkpt><trkpt lat="33.1283304995496" lon="9.179420391933762"><ele>150.2</ele><time>2026-03-30T10:50:50.999Z</time></trkpt><trkpt lat="33.12825529104678" lon="9.179491565435946"><ele>150.0</ele><time>2026-03-30T10:50:51.999Z</time></trkpt><trkpt lat="33.1281739677213" lon="9.179535258515697"><ele>150.0</ele><time>2026-03-30T10:50:52.999Z</time></trkpt><trkpt lat="33.12808147304786" lon="9.179575436740821"><ele>150.0</ele><time>2026-03-30T10:50:53.999Z</time></trkpt><trkpt lat="33.128016219269796" lon="9.179604951468967"><ele>150.0</ele><time>2026-03-30T10:50:54.999Z</time></trkpt><trkpt lat="33.12790861834657" lon="9.179750039522135"><ele>150.0</ele><time>2026-03-30T10:50:56.999Z</time></trkpt><trkpt lat="33.12782462498545" lon="9.179869684293429"><ele>150.0</ele><time>2026-03-30T10:50:57.999Z</time></trkpt><trkpt lat="33.127726633181204" lon="9.179993089934722"><ele>150.0</ele><time>2026-03-30T10:50:58.999Z</time></trkpt><trkpt lat="33.12762732189389" lon="9.180120905051586"><ele>150.0</ele><time>2026-03-30T10:50:59.999Z</time></trkpt><trkpt lat="33.127539466941265" lon="9.180238977728576"><ele>150.0</ele><time>2026-03-30T10:51:00.999Z</time></trkpt><trkpt lat="33.12744481236217" lon="9.180321949274356"><ele>149.5</ele><time>2026-03-30T10:51:01.999Z</time></trkpt><trkpt lat="33.1273331336201" lon="9.180398050745302"><ele>149.0</ele><time>2026-03-30T10:51:02.999Z</time></trkpt><trkpt lat="33.127206426043514" lon="9.180467447884457"><ele>148.5</ele><time>2026-03-30T10:51:03.999Z</time></trkpt><trkpt lat="33.12705831016594" lon="9.180535911371882"><ele>148.0</ele><time>2026-03-30T10:51:04.999Z</time></trkpt><trkpt lat="33.126937885767575" lon="9.180603333178155"><ele>148.0</ele><time>2026-03-30T10:51:05.999Z</time></trkpt><trkpt lat="33.12683159689784" lon="9.180665335499661"><ele>148.0</ele><time>2026-03-30T10:51:06.999Z</time></trkpt><trkpt lat="33.12673355731458" lon="9.18073130542984"><ele>148.0</ele><time>2026-03-30T10:51:07.999Z</time></trkpt><trkpt lat="33.12661055687586" lon="9.18080332184421"><ele>148.0</ele><time>2026-03-30T10:51:09Z</time></trkpt><trkpt lat="33.12645775929721" lon="9.180890270356826"><ele>148.33333333333334</ele><time>2026-03-30T10:51:10Z</time></trkpt><trkpt lat="33.12630696594291" lon="9.180974187891868"><ele>148.66666666666666</ele><time>2026-03-30T10:51:11Z</time></trkpt><trkpt lat="33.12617552215679" lon="9.181074440133417"><ele>149.0</ele><time>2026-03-30T10:51:12Z</time></trkpt><trkpt lat="33.12604975773189" lon="9.181182002213259"><ele>149.0</ele><time>2026-03-30T10:51:13Z</time></trkpt><trkpt lat="33.12591816691203" lon="9.181288174234341"><ele>149.0</ele><time>2026-03-30T10:51:14Z</time></trkpt><trkpt lat="33.12580012919159" lon="9.181367037828853"><ele>149.0</ele><time>2026-03-30T10:51:15Z</time></trkpt><trkpt lat="33.12568774525016" lon="9.18142586511282"><ele>149.0</ele><time>2026-03-30T10:51:16Z</time></trkpt><trkpt lat="33.12556561263873" lon="9.181476331962061"><ele>148.33333333333331</ele><time>2026-03-30T10:51:17Z</time></trkpt><trkpt lat="33.12541896998222" lon="9.181535597618616"><ele>147.66666666666666</ele><time>2026-03-30T10:51:18Z</time></trkpt><trkpt lat="33.125278830574764" lon="9.181610129484634"><ele>147.0</ele><time>2026-03-30T10:51:19Z</time></trkpt><trkpt lat="33.125144490056435" lon="9.181702967765556"><ele>147.0</ele><time>2026-03-30T10:51:20Z</time></trkpt><trkpt lat="33.1250333641757" lon="9.181780211311072"><ele>147.0</ele><time>2026-03-30T10:51:21Z</time></trkpt><trkpt lat="33.124921269264775" lon="9.181869244722002"><ele>147.0</ele><time>2026-03-30T10:51:22Z</time></trkpt><trkpt lat="33.124797980492986" lon="9.181964200481293"><ele>147.0</ele><time>2026-03-30T10:51:23Z</time></trkpt><trkpt lat="33.124678324870395" lon="9.182059486017128"><ele>147.0</ele><time>2026-03-30T10:51:24Z</time></trkpt><trkpt lat="33.12455924588801" lon="9.182184624900787"><ele>147.0</ele><time>2026-03-30T10:51:25Z</time></trkpt><trkpt lat="33.12444412502696" lon="9.18231341738805"><ele>147.0</ele><time>2026-03-30T10:51:26Z</time></trkpt><trkpt lat="33.124331070257355" lon="9.18243884946705"><ele>146.5</ele><time>2026-03-30T10:51:27Z</time></trkpt><trkpt lat="33.12422534782738" lon="9.18253108940564"><ele>146.0</ele><time>2026-03-30T10:51:28Z</time></trkpt><trkpt lat="33.12411148530077" lon="9.182609483948589"><ele>145.5</ele><time>2026-03-30T10:51:29Z</time></trkpt><trkpt lat="33.12400167109244" lon="9.182687244434327"><ele>145.0</ele><time>2026-03-30T10:51:30Z</time></trkpt><trkpt lat="33.123908905951424" lon="9.182759151635448"><ele>145.0</ele><time>2026-03-30T10:51:31Z</time></trkpt><trkpt lat="33.12383656180532" lon="9.182831175076029"><ele>145.0</ele><time>2026-03-30T10:51:32Z</time></trkpt><trkpt lat="33.12375815222212" lon="9.182903390949885"><ele>145.0</ele><time>2026-03-30T10:51:33Z</time></trkpt><trkpt lat="33.12368964729406" lon="9.182985168976222"><ele>145.0</ele><time>2026-03-30T10:51:34Z</time></trkpt><trkpt lat="33.12363792370612" lon="9.183056461442293"><ele>145.0</ele><time>2026-03-30T10:51:35Z</time></trkpt><trkpt lat="33.12360008255374" lon="9.183118147790086"><ele>145.0</ele><time>2026-03-30T10:51:36Z</time></trkpt><trkpt lat="33.12353391688785" lon="9.18318654688391"><ele>144.83333333333334</ele><time>2026-03-30T10:51:38Z</time></trkpt><trkpt lat="33.12346167804372" lon="9.183222457832365"><ele>144.66666666666669</ele><time>2026-03-30T10:51:40Z</time></trkpt><trkpt lat="33.1234178593394" lon="9.183313706256858"><ele>144.5</ele><time>2026-03-30T10:54:00Z</time></trkpt><trkpt lat="33.123363476725906" lon="9.183391371317342"><ele>144.33333333333334</ele><time>2026-03-30T10:54:01Z</time></trkpt><trkpt lat="33.12330822031634" lon="9.183463514374894"><ele>144.16666666666666</ele><time>2026-03-30T10:54:02Z</time></trkpt><trkpt lat="33.12323589297389" lon="9.183541379613715"><ele>144.0</ele><time>2026-03-30T10:54:03Z</time></trkpt><trkpt lat="33.12315161445792" lon="9.183631478494155"><ele>144.5</ele><time>2026-03-30T10:54:04Z</time></trkpt><trkpt lat="33.123058103583475" lon="9.183724028951826"><ele>145.0</ele><time>2026-03-30T10:54:05Z</time></trkpt><trkpt lat="33.12294965056355" lon="9.183823249021529"><ele>145.5</ele><time>2026-03-30T10:54:06Z</time></trkpt><trkpt lat="33.12284348765375" lon="9.183918268359232"><ele>146.0</ele><time>2026-03-30T10:54:07Z</time></trkpt><trkpt lat="33.12273777188893" lon="9.184014770872611"><ele>146.0</ele><time>2026-03-30T10:54:08Z</time></trkpt><trkpt lat="33.122628220626204" lon="9.184112076668946"><ele>146.0</ele><time>2026-03-30T10:54:09Z</time></trkpt><trkpt lat="33.12252111772342" lon="9.184216205308278"><ele>146.0</ele><time>2026-03-30T10:54:10Z</time></trkpt><trkpt lat="33.12242276124438" lon="9.184329051641186"><ele>146.0</ele><time>2026-03-30T10:54:11Z</time></trkpt><trkpt lat="33.12233267427802" lon="9.184442838286794"><ele>145.75</ele><time>2026-03-30T10:54:12Z</time></trkpt><trkpt lat="33.12225090317228" lon="9.184565840730546"><ele>145.5</ele><time>2026-03-30T10:54:13Z</time></trkpt><trkpt lat="33.122166894933294" lon="9.184696616494977"><ele>145.25</ele><time>2026-03-30T10:54:14Z</time></trkpt><trkpt lat="33.122083822553805" lon="9.184818393602828"><ele>145.0</ele><time>2026-03-30T10:54:15Z</time></trkpt><trkpt lat="33.12200025815364" lon="9.184914890750786"><ele>145.4</ele><time>2026-03-30T10:54:16Z</time></trkpt><trkpt lat="33.12191111081721" lon="9.184995052897895"><ele>145.8</ele><time>2026-03-30T10:54:17Z</time></trkpt><trkpt lat="33.1218417500253" lon="9.18505238637606"><ele>146.2</ele><time>2026-03-30T10:54:18Z</time></trkpt><trkpt lat="33.1217761820567" lon="9.18509629086234"><ele>146.6</ele><time>2026-03-30T10:54:19Z</time></trkpt><trkpt lat="33.12170052740503" lon="9.185144090052045"><ele>147.0</ele><time>2026-03-30T10:54:20Z</time></trkpt><trkpt lat="33.12159743840255" lon="9.18518907248584"><ele>147.0</ele><time>2026-03-30T10:54:21Z</time></trkpt><trkpt lat="33.12149382172365" lon="9.185228687400064"><ele>147.0</ele><time>2026-03-30T10:54:22Z</time></trkpt><trkpt lat="33.12138262533717" lon="9.185265538065934"><ele>147.0</ele><time>2026-03-30T10:54:23Z</time></trkpt><trkpt lat="33.121269201185086" lon="9.185320206417492"><ele>147.0</ele><time>2026-03-30T10:54:24Z</time></trkpt><trkpt lat="33.12116658535653" lon="9.18537651017723"><ele>147.0</ele><time>2026-03-30T10:54:25Z</time></trkpt><trkpt lat="33.12107244795681" lon="9.185433320676486"><ele>147.0</ele><time>2026-03-30T10:54:26Z</time></trkpt><trkpt lat="33.12098139072425" lon="9.18550147931872"><ele>147.0</ele><time>2026-03-30T10:54:27Z</time></trkpt><trkpt lat="33.12090737623331" lon="9.185559133634191"><ele>147.0</ele><time>2026-03-30T10:54:28Z</time></trkpt><trkpt lat="33.120799273657724" lon="9.18564784854487"><ele>147.0</ele><time>2026-03-30T10:54:30Z</time></trkpt><trkpt lat="33.1207383414926" lon="9.185713636819893"><ele>147.2</ele><time>2026-03-30T10:54:31Z</time></trkpt><trkpt lat="33.12066646977219" lon="9.185787635644873"><ele>147.39999999999998</ele><time>2026-03-30T10:54:32Z</time></trkpt><trkpt lat="33.12057934104846" lon="9.1858534890379"><ele>147.60000000000002</ele><time>2026-03-30T10:54:33Z</time></trkpt><trkpt lat="33.12049021590322" lon="9.18592520418238"><ele>147.8</ele><time>2026-03-30T10:54:34Z</time></trkpt><trkpt lat="33.120397651136166" lon="9.185991052004194"><ele>148.0</ele><time>2026-03-30T10:54:35Z</time></trkpt><trkpt lat="33.12031369373279" lon="9.1860509509773"><ele>148.0</ele><time>2026-03-30T10:54:36Z</time></trkpt><trkpt lat="33.12023572736972" lon="9.186090291822817"><ele>148.0</ele><time>2026-03-30T10:54:37Z</time></trkpt><trkpt lat="33.12017016705189" lon="9.186116982353498"><ele>148.0</ele><time>2026-03-30T10:54:38Z</time></trkpt><trkpt lat="33.12009860785668" lon="9.186151943613519"><ele>148.0</ele><time>2026-03-30T10:54:39Z</time></trkpt><trkpt lat="33.12000342694934" lon="9.186195122255386"><ele>148.0</ele><time>2026-03-30T10:54:40Z</time></trkpt><trkpt lat="33.11990965390516" lon="9.186232686149898"><ele>148.0</ele><time>2026-03-30T10:54:41Z</time></trkpt><trkpt lat="33.11980788284597" lon="9.186266889005466"><ele>148.6</ele><time>2026-03-30T10:54:42Z</time></trkpt><trkpt lat="33.11970675203739" lon="9.186305588222995"><ele>149.20000000000002</ele><time>2026-03-30T10:54:43Z</time></trkpt><trkpt lat="33.119620887629225" lon="9.186345695073145"><ele>149.8</ele><time>2026-03-30T10:54:44Z</time></trkpt><trkpt lat="33.11956020248226" lon="9.186377577873241"><ele>150.4</ele><time>2026-03-30T10:54:45Z</time></trkpt><trkpt lat="33.119471461525556" lon="9.186423019542397"><ele>151.0</ele><time>2026-03-30T10:54:46Z</time></trkpt><trkpt lat="33.11936801363182" lon="9.186488304075601"><ele>150.75</ele><time>2026-03-30T10:54:47Z</time></trkpt><trkpt lat="33.11925185260547" lon="9.186558457502604"><ele>150.5</ele><time>2026-03-30T10:54:48Z</time></trkpt><trkpt lat="33.1191307288135" lon="9.186629926191818"><ele>150.25</ele><time>2026-03-30T10:54:49Z</time></trkpt><trkpt lat="33.11901789957381" lon="9.186704607137496"><ele>150.0</ele><time>2026-03-30T10:54:50Z</time></trkpt><trkpt lat="33.11888723007027" lon="9.18679368178239"><ele>150.0</ele><time>2026-03-30T10:54:51Z</time></trkpt><trkpt lat="33.11876138686285" lon="9.186872751825018"><ele>150.0</ele><time>2026-03-30T10:54:52Z</time></trkpt><trkpt lat="33.11865975661932" lon="9.186938013167149"><ele>150.0</ele><time>2026-03-30T10:54:53Z</time></trkpt><trkpt lat="33.11855936256938" lon="9.187024650388578"><ele>150.0</ele><time>2026-03-30T10:54:54Z</time></trkpt><trkpt lat="33.11845603319" lon="9.187115190192225"><ele>150.0</ele><time>2026-03-30T10:54:55Z</time></trkpt><trkpt lat="33.118358746847065" lon="9.187213444875718"><ele>150.0</ele><time>2026-03-30T10:54:56Z</time></trkpt><trkpt lat="33.11826542302372" lon="9.187314061505816"><ele>150.0</ele><time>2026-03-30T10:54:57Z</time></trkpt><trkpt lat="33.118180848938266" lon="9.187415443482163"><ele>150.0</ele><time>2026-03-30T10:54:58Z</time></trkpt><trkpt lat="33.11809407558441" lon="9.187523882187584"><ele>150.0</ele><time>2026-03-30T10:54:59Z</time></trkpt><trkpt lat="33.11800952275676" lon="9.187636971130614"><ele>150.0</ele><time>2026-03-30T10:55:00Z</time></trkpt><trkpt lat="33.11792762673674" lon="9.187760263049828"><ele>150.0</ele><time>2026-03-30T10:55:01Z</time></trkpt><trkpt lat="33.1178450283692" lon="9.187884427757245"><ele>150.0</ele><time>2026-03-30T10:55:02Z</time></trkpt><trkpt lat="33.11775591021825" lon="9.18800960263608"><ele>150.0</ele><time>2026-03-30T10:55:03Z</time></trkpt><trkpt lat="33.1176651812186" lon="9.188132246823551"><ele>150.0</ele><time>2026-03-30T10:55:04Z</time></trkpt><trkpt lat="33.11757893008691" lon="9.18825360584892"><ele>150.0</ele><time>2026-03-30T10:55:05Z</time></trkpt><trkpt lat="33.117497340599556" lon="9.188368632559305"><ele>150.0</ele><time>2026-03-30T10:55:06Z</time></trkpt><trkpt lat="33.11741268321798" lon="9.188486960652087"><ele>150.25</ele><time>2026-03-30T10:55:07Z</time></trkpt><trkpt lat="33.11733830884236" lon="9.188594928108074"><ele>150.5</ele><time>2026-03-30T10:55:08Z</time></trkpt><trkpt lat="33.11725740396734" lon="9.18871343848477"><ele>150.75</ele><time>2026-03-30T10:55:09Z</time></trkpt><trkpt lat="33.11718212437642" lon="9.18882599179825"><ele>151.0</ele><time>2026-03-30T10:55:10Z</time></trkpt><trkpt lat="33.11710140434296" lon="9.188935082540773"><ele>151.0</ele><time>2026-03-30T10:55:11Z</time></trkpt><trkpt lat="33.11702399463974" lon="9.189047582470971"><ele>151.0</ele><time>2026-03-30T10:55:12Z</time></trkpt><trkpt lat="33.11693755316314" lon="9.189154748976025"><ele>151.0</ele><time>2026-03-30T10:55:13Z</time></trkpt><trkpt lat="33.11684643829555" lon="9.189257683059365"><ele>151.0</ele><time>2026-03-30T10:55:14Z</time></trkpt><trkpt lat="33.11675126788581" lon="9.189362436497621"><ele>151.0</ele><time>2026-03-30T10:55:15Z</time></trkpt><trkpt lat="33.11665920764672" lon="9.189479491412854"><ele>151.0</ele><time>2026-03-30T10:55:16Z</time></trkpt><trkpt lat="33.116576359706976" lon="9.189590086601672"><ele>151.0</ele><time>2026-03-30T10:55:17Z</time></trkpt><trkpt lat="33.11649667785781" lon="9.18969531920427"><ele>151.0</ele><time>2026-03-30T10:55:18Z</time></trkpt><trkpt lat="33.1164114853239" lon="9.189799407920168"><ele>151.0</ele><time>2026-03-30T10:55:19Z</time></trkpt><trkpt lat="33.11633274548444" lon="9.189901641277036"><ele>151.0</ele><time>2026-03-30T10:55:20Z</time></trkpt><trkpt lat="33.11626091106266" lon="9.190000953873986"><ele>151.0</ele><time>2026-03-30T10:55:21Z</time></trkpt><trkpt lat="33.11618614205706" lon="9.190110624543406"><ele>151.0</ele><time>2026-03-30T10:55:22Z</time></trkpt><trkpt lat="33.116106625188884" lon="9.190215717621141"><ele>151.0</ele><time>2026-03-30T10:55:23Z</time></trkpt><trkpt lat="33.1160285814655" lon="9.190319192871435"><ele>151.0</ele><time>2026-03-30T10:55:24Z</time></trkpt><trkpt lat="33.11594443049026" lon="9.190437699969545"><ele>151.0</ele><time>2026-03-30T10:55:25Z</time></trkpt><trkpt lat="33.11586330696651" lon="9.190561951832589"><ele>151.0</ele><time>2026-03-30T10:55:26Z</time></trkpt><trkpt lat="33.11578250491725" lon="9.19067359585268"><ele>151.5</ele><time>2026-03-30T10:55:27Z</time></trkpt><trkpt lat="33.11569854715265" lon="9.19078015054265"><ele>152.0</ele><time>2026-03-30T10:55:28Z</time></trkpt><trkpt lat="33.11560709146303" lon="9.190891410620555"><ele>152.5</ele><time>2026-03-30T10:55:29Z</time></trkpt><trkpt lat="33.115506043997215" lon="9.19098903170006"><ele>153.0</ele><time>2026-03-30T10:55:30Z</time></trkpt><trkpt lat="33.11540957658591" lon="9.191084265222443"><ele>153.0</ele><time>2026-03-30T10:55:31Z</time></trkpt><trkpt lat="33.11530648197758" lon="9.191175858808723"><ele>153.0</ele><time>2026-03-30T10:55:32Z</time></trkpt><trkpt lat="33.11520502641851" lon="9.19126300302591"><ele>153.0</ele><time>2026-03-30T10:55:33Z</time></trkpt><trkpt lat="33.11509974169022" lon="9.191342565353276"><ele>153.0</ele><time>2026-03-30T10:55:34Z</time></trkpt><trkpt lat="33.11500104300681" lon="9.191407404922362"><ele>153.0</ele><time>2026-03-30T10:55:35Z</time></trkpt><trkpt lat="33.1149027396658" lon="9.191479875446221"><ele>153.0</ele><time>2026-03-30T10:55:36Z</time></trkpt><trkpt lat="33.11480867365964" lon="9.191562028478565"><ele>153.0</ele><time>2026-03-30T10:55:37Z</time></trkpt><trkpt lat="33.1147396036001" lon="9.19165241050713"><ele>153.0</ele><time>2026-03-30T10:55:38Z</time></trkpt><trkpt lat="33.11466977831115" lon="9.191747599473334"><ele>153.0</ele><time>2026-03-30T10:55:39Z</time></trkpt><trkpt lat="33.114610240600996" lon="9.191846370745495"><ele>152.8</ele><time>2026-03-30T10:55:40Z</time></trkpt><trkpt lat="33.114545428681716" lon="9.191953342496172"><ele>152.60000000000002</ele><time>2026-03-30T10:55:41Z</time></trkpt><trkpt lat="33.11448544379268" lon="9.192047338018616"><ele>152.39999999999998</ele><time>2026-03-30T10:55:42Z</time></trkpt><trkpt lat="33.11441013974356" lon="9.192129734479984"><ele>152.2</ele><time>2026-03-30T10:55:43Z</time></trkpt><trkpt lat="33.11432075055981" lon="9.192213620536819"><ele>152.0</ele><time>2026-03-30T10:55:44Z</time></trkpt><trkpt lat="33.11423314536993" lon="9.192299454934217"><ele>152.0</ele><time>2026-03-30T10:55:45Z</time></trkpt><trkpt lat="33.11414138311195" lon="9.19240372887609"><ele>152.0</ele><time>2026-03-30T10:55:46Z</time></trkpt><trkpt lat="33.114052847678245" lon="9.192509275315466"><ele>152.0</ele><time>2026-03-30T10:55:47Z</time></trkpt><trkpt lat="33.11396415028572" lon="9.192602599107634"><ele>152.0</ele><time>2026-03-30T10:55:48Z</time></trkpt><trkpt lat="33.11387537346093" lon="9.192687327136007"><ele>151.6</ele><time>2026-03-30T10:55:49Z</time></trkpt><trkpt lat="33.113789879997476" lon="9.192754832038247"><ele>151.2</ele><time>2026-03-30T10:55:50Z</time></trkpt><trkpt lat="33.11370257180038" lon="9.19281432401356"><ele>150.8</ele><time>2026-03-30T10:55:51Z</time></trkpt><trkpt lat="33.11361534815524" lon="9.192873994831443"><ele>150.4</ele><time>2026-03-30T10:55:52Z</time></trkpt><trkpt lat="33.1135304980273" lon="9.192939548438403"><ele>150.0</ele><time>2026-03-30T10:55:53Z</time></trkpt><trkpt lat="33.11343975394471" lon="9.1930082572422"><ele>150.0</ele><time>2026-03-30T10:55:54Z</time></trkpt><trkpt lat="33.1133575791485" lon="9.193080458458194"><ele>150.0</ele><time>2026-03-30T10:55:55Z</time></trkpt><trkpt lat="33.11327408616129" lon="9.193164299900081"><ele>150.0</ele><time>2026-03-30T10:55:56Z</time></trkpt><trkpt lat="33.11319864606125" lon="9.193269483990855"><ele>150.0</ele><time>2026-03-30T10:55:57Z</time></trkpt><trkpt lat="33.113133399412945" lon="9.19336753616915"><ele>150.0</ele><time>2026-03-30T10:55:58Z</time></trkpt><trkpt lat="33.11306659073772" lon="9.193465721645778"><ele>149.25</ele><time>2026-03-30T10:55:59Z</time></trkpt><trkpt lat="33.112986465595576" lon="9.193585320258487"><ele>148.5</ele><time>2026-03-30T10:56:00Z</time></trkpt><trkpt lat="33.11290390764781" lon="9.193711990313057"><ele>147.75</ele><time>2026-03-30T10:56:01Z</time></trkpt><trkpt lat="33.11282796295395" lon="9.193839550608109"><ele>147.0</ele><time>2026-03-30T10:56:02Z</time></trkpt><trkpt lat="33.11275802741133" lon="9.193968719428675"><ele>147.25</ele><time>2026-03-30T10:56:03Z</time></trkpt><trkpt lat="33.11268397104809" lon="9.194082442345456"><ele>147.5</ele><time>2026-03-30T10:56:04Z</time></trkpt><trkpt lat="33.11260963504899" lon="9.194190707260711"><ele>147.75</ele><time>2026-03-30T10:56:05Z</time></trkpt><trkpt lat="33.11254092115013" lon="9.194309437795289"><ele>148.0</ele><time>2026-03-30T10:56:06Z</time></trkpt><trkpt lat="33.112482077378395" lon="9.194433083865302"><ele>148.0</ele><time>2026-03-30T10:56:07Z</time></trkpt><trkpt lat="33.112421928749356" lon="9.1945566253893"><ele>148.0</ele><time>2026-03-30T10:56:08Z</time></trkpt><trkpt lat="33.1123584640304" lon="9.19466900907381"><ele>148.0</ele><time>2026-03-30T10:56:09Z</time></trkpt><trkpt lat="33.11229080029155" lon="9.194778717856058"><ele>148.0</ele><time>2026-03-30T10:56:10Z</time></trkpt><trkpt lat="33.11221603035828" lon="9.194885595333368"><ele>148.25</ele><time>2026-03-30T10:56:11Z</time></trkpt><trkpt lat="33.11213665352326" lon="9.194986482384929"><ele>148.5</ele><time>2026-03-30T10:56:12Z</time></trkpt><trkpt lat="33.11205054499088" lon="9.195086841831268"><ele>148.75</ele><time>2026-03-30T10:56:13Z</time></trkpt><trkpt lat="33.11196103484805" lon="9.195182401909225"><ele>149.0</ele><time>2026-03-30T10:56:14Z</time></trkpt><trkpt lat="33.1118881279287" lon="9.19527486362649"><ele>149.0</ele><time>2026-03-30T10:56:15Z</time></trkpt><trkpt lat="33.1118090740414" lon="9.195381446271156"><ele>149.0</ele><time>2026-03-30T10:56:16Z</time></trkpt><trkpt lat="33.11172862663996" lon="9.195483251254677"><ele>149.0</ele><time>2026-03-30T10:56:17Z</time></trkpt><trkpt lat="33.11165206177205" lon="9.195583286084503"><ele>149.0</ele><time>2026-03-30T10:56:18Z</time></trkpt><trkpt lat="33.111563057186544" lon="9.195682124033056"><ele>149.0</ele><time>2026-03-30T10:56:19Z</time></trkpt><trkpt lat="33.11148003417606" lon="9.195777502430792"><ele>149.0</ele><time>2026-03-30T10:56:20Z</time></trkpt><trkpt lat="33.111393129818815" lon="9.195880771432817"><ele>149.0</ele><time>2026-03-30T10:56:21Z</time></trkpt><trkpt lat="33.11131640777846" lon="9.195989172826877"><ele>149.0</ele><time>2026-03-30T10:56:22Z</time></trkpt><trkpt lat="33.11124678843086" lon="9.196106219191718"><ele>149.0</ele><time>2026-03-30T10:56:23Z</time></trkpt><trkpt lat="33.11117313653936" lon="9.196230672265234"><ele>149.0</ele><time>2026-03-30T10:56:24Z</time></trkpt><trkpt lat="33.11109953105302" lon="9.196355076873049"><ele>149.0</ele><time>2026-03-30T10:56:25Z</time></trkpt><trkpt lat="33.111020080971294" lon="9.196471326239877"><ele>149.0</ele><time>2026-03-30T10:56:26Z</time></trkpt><trkpt lat="33.11093748992653" lon="9.196576188033461"><ele>149.25</ele><time>2026-03-30T10:56:27Z</time></trkpt><trkpt lat="33.11085516296661" lon="9.196679122966504"><ele>149.5</ele><time>2026-03-30T10:56:28Z</time></trkpt><trkpt lat="33.11076481461356" lon="9.196779947024705"><ele>149.75</ele><time>2026-03-30T10:56:29Z</time></trkpt><trkpt lat="33.11067126141861" lon="9.196874369913507"><ele>150.0</ele><time>2026-03-30T10:56:30Z</time></trkpt><trkpt lat="33.110577384254924" lon="9.196973723776702"><ele>150.5</ele><time>2026-03-30T10:56:31Z</time></trkpt><trkpt lat="33.11048384227722" lon="9.197086452130812"><ele>151.0</ele><time>2026-03-30T10:56:32Z</time></trkpt><trkpt lat="33.110394025831276" lon="9.197192623668725"><ele>151.5</ele><time>2026-03-30T10:56:33Z</time></trkpt><trkpt lat="33.11030223411999" lon="9.197293037144615"><ele>152.0</ele><time>2026-03-30T10:56:34Z</time></trkpt><trkpt lat="33.110205315039394" lon="9.197387435237914"><ele>152.5</ele><time>2026-03-30T10:56:35Z</time></trkpt><trkpt lat="33.11010285246033" lon="9.197483886430174"><ele>153.0</ele><time>2026-03-30T10:56:36Z</time></trkpt><trkpt lat="33.11000507805421" lon="9.197587218713734"><ele>153.5</ele><time>2026-03-30T10:56:37Z</time></trkpt><trkpt lat="33.109917155017754" lon="9.197682010710087"><ele>154.0</ele><time>2026-03-30T10:56:38Z</time></trkpt><trkpt lat="33.10982655720355" lon="9.197773402818445"><ele>154.0</ele><time>2026-03-30T10:56:39Z</time></trkpt><trkpt lat="33.10973717517245" lon="9.197868091752339"><ele>154.0</ele><time>2026-03-30T10:56:40Z</time></trkpt><trkpt lat="33.109657771898405" lon="9.197962874131452"><ele>154.0</ele><time>2026-03-30T10:56:41Z</time></trkpt><trkpt lat="33.10957793334101" lon="9.19805705632048"><ele>154.0</ele><time>2026-03-30T10:56:42Z</time></trkpt><trkpt lat="33.109499111163" lon="9.19815147688274"><ele>154.2</ele><time>2026-03-30T10:56:43Z</time></trkpt><trkpt lat="33.109421475454525" lon="9.198237734431675"><ele>154.4</ele><time>2026-03-30T10:56:44Z</time></trkpt><trkpt lat="33.10933528277833" lon="9.198325183563524"><ele>154.6</ele><time>2026-03-30T10:56:45Z</time></trkpt><trkpt lat="33.10925426487752" lon="9.198394085915474"><ele>154.8</ele><time>2026-03-30T10:56:46Z</time></trkpt><trkpt lat="33.10916393984781" lon="9.198461049099683"><ele>155.0</ele><time>2026-03-30T10:56:47Z</time></trkpt><trkpt lat="33.10908482389077" lon="9.198516291674169"><ele>154.6</ele><time>2026-03-30T10:56:48Z</time></trkpt><trkpt lat="33.109010663368636" lon="9.198567864491741"><ele>154.2</ele><time>2026-03-30T10:56:49Z</time></trkpt><trkpt lat="33.108916822797084" lon="9.198609687936429"><ele>153.8</ele><time>2026-03-30T10:56:50Z</time></trkpt><trkpt lat="33.108800920141235" lon="9.198653602281896"><ele>153.4</ele><time>2026-03-30T10:56:51Z</time></trkpt><trkpt lat="33.10868088897033" lon="9.198699697556144"><ele>153.0</ele><time>2026-03-30T10:56:52Z</time></trkpt><trkpt lat="33.10855839778879" lon="9.198749159543542"><ele>153.0</ele><time>2026-03-30T10:56:53Z</time></trkpt><trkpt lat="33.10843947366134" lon="9.198797377669559"><ele>153.0</ele><time>2026-03-30T10:56:54Z</time></trkpt><trkpt lat="33.108320620252115" lon="9.198843387036785"><ele>153.0</ele><time>2026-03-30T10:56:55Z</time></trkpt><trkpt lat="33.108199110787254" lon="9.198897970406266"><ele>153.0</ele><time>2026-03-30T10:56:56Z</time></trkpt><trkpt lat="33.10808175879647" lon="9.198958809744687"><ele>151.66666666666666</ele><time>2026-03-30T10:56:57Z</time></trkpt><trkpt lat="33.10794954690987" lon="9.1990280666567"><ele>150.33333333333331</ele><time>2026-03-30T10:56:58Z</time></trkpt><trkpt lat="33.107807589941835" lon="9.199098033157634"><ele>149.0</ele><time>2026-03-30T10:56:59Z</time></trkpt><trkpt lat="33.107657919627606" lon="9.19918217637142"><ele>149.0</ele><time>2026-03-30T10:57:00Z</time></trkpt><trkpt lat="33.1075246687351" lon="9.199262866579446"><ele>149.0</ele><time>2026-03-30T10:57:01Z</time></trkpt><trkpt lat="33.10740814600626" lon="9.199345095883402"><ele>149.0</ele><time>2026-03-30T10:57:02Z</time></trkpt><trkpt lat="33.10730337539092" lon="9.199427870636407"><ele>149.0</ele><time>2026-03-30T10:57:03Z</time></trkpt><trkpt lat="33.10719068301583" lon="9.199510642438646"><ele>148.75</ele><time>2026-03-30T10:57:04Z</time></trkpt><trkpt lat="33.107077467983615" lon="9.199595484583213"><ele>148.5</ele><time>2026-03-30T10:57:05Z</time></trkpt><trkpt lat="33.10696719555405" lon="9.199677561644389"><ele>148.25</ele><time>2026-03-30T10:57:06Z</time></trkpt><trkpt lat="33.106860970804085" lon="9.199756999728338"><ele>148.0</ele><time>2026-03-30T10:57:07Z</time></trkpt><trkpt lat="33.106756790305006" lon="9.19983528023564"><ele>148.0</ele><time>2026-03-30T10:57:08Z</time></trkpt><trkpt lat="33.10665418291953" lon="9.199903528974149"><ele>148.0</ele><time>2026-03-30T10:57:09Z</time></trkpt><trkpt lat="33.10654645967928" lon="9.19996714852009"><ele>148.0</ele><time>2026-03-30T10:57:10Z</time></trkpt><trkpt lat="33.10643115118321" lon="9.20003736253816"><ele>148.0</ele><time>2026-03-30T10:57:11Z</time></trkpt><trkpt lat="33.106319696238344" lon="9.200112368012997"><ele>147.5</ele><time>2026-03-30T10:57:12Z</time></trkpt><trkpt lat="33.106223407049384" lon="9.200182732128795"><ele>147.0</ele><time>2026-03-30T10:57:13Z</time></trkpt><trkpt lat="33.106124769828945" lon="9.200250899874751"><ele>146.5</ele><time>2026-03-30T10:57:14Z</time></trkpt><trkpt lat="33.10601351225369" lon="9.20033397573307"><ele>146.0</ele><time>2026-03-30T10:57:15Z</time></trkpt><trkpt lat="33.105899151284575" lon="9.200412548705971"><ele>146.0</ele><time>2026-03-30T10:57:16Z</time></trkpt><trkpt lat="33.10578136217314" lon="9.200486512560548"><ele>146.0</ele><time>2026-03-30T10:57:17Z</time></trkpt><trkpt lat="33.10565481604407" lon="9.20056169442725"><ele>146.0</ele><time>2026-03-30T10:57:18Z</time></trkpt><trkpt lat="33.105527275098375" lon="9.200641914633923"><ele>146.0</ele><time>2026-03-30T10:57:19Z</time></trkpt><trkpt lat="33.10539709498237" lon="9.20072329053391"><ele>146.5</ele><time>2026-03-30T10:57:20Z</time></trkpt><trkpt lat="33.10528462404174" lon="9.200805720959742"><ele>147.0</ele><time>2026-03-30T10:57:21Z</time></trkpt><trkpt lat="33.10517873621016" lon="9.20088705826348"><ele>147.5</ele><time>2026-03-30T10:57:22Z</time></trkpt><trkpt lat="33.1050735753189" lon="9.200971144314561"><ele>148.0</ele><time>2026-03-30T10:57:23Z</time></trkpt><trkpt lat="33.10495488011778" lon="9.201070136777156"><ele>148.0</ele><time>2026-03-30T10:57:24Z</time></trkpt><trkpt lat="33.10483383102866" lon="9.201157226616596"><ele>148.0</ele><time>2026-03-30T10:57:25Z</time></trkpt><trkpt lat="33.10470853050896" lon="9.201242338963066"><ele>148.0</ele><time>2026-03-30T10:57:26Z</time></trkpt><trkpt lat="33.104576460840136" lon="9.201337204572965"><ele>148.0</ele><time>2026-03-30T10:57:26.999Z</time></trkpt><trkpt lat="33.10444859946903" lon="9.201440524974323"><ele>148.0</ele><time>2026-03-30T10:57:27.999Z</time></trkpt><trkpt lat="33.10433171063566" lon="9.201545469909105"><ele>148.0</ele><time>2026-03-30T10:57:28.999Z</time></trkpt><trkpt lat="33.10422124964344" lon="9.201645248436643"><ele>148.0</ele><time>2026-03-30T10:57:29.999Z</time></trkpt><trkpt lat="33.10411006235268" lon="9.201744042968963"><ele>148.0</ele><time>2026-03-30T10:57:30.999Z</time></trkpt><trkpt lat="33.10400461684043" lon="9.201842277841239"><ele>148.0</ele><time>2026-03-30T10:57:31.999Z</time></trkpt><trkpt lat="33.10389082525257" lon="9.201947085930605"><ele>148.0</ele><time>2026-03-30T10:57:32.999Z</time></trkpt><trkpt lat="33.103781414141196" lon="9.202056479792864"><ele>148.0</ele><time>2026-03-30T10:57:33.999Z</time></trkpt><trkpt lat="33.10367512535779" lon="9.202175884429112"><ele>148.0</ele><time>2026-03-30T10:57:34.999Z</time></trkpt><trkpt lat="33.10357058548252" lon="9.202305323982277"><ele>148.25</ele><time>2026-03-30T10:57:35.999Z</time></trkpt><trkpt lat="33.1034614031794" lon="9.2024405675009"><ele>148.5</ele><time>2026-03-30T10:57:36.999Z</time></trkpt><trkpt lat="33.10336270169757" lon="9.202569761554772"><ele>148.75</ele><time>2026-03-30T10:57:37.999Z</time></trkpt><trkpt lat="33.103261983097106" lon="9.20268964808103"><ele>149.0</ele><time>2026-03-30T10:57:38.999Z</time></trkpt><trkpt lat="33.10315611663779" lon="9.202814981488629"><ele>149.25</ele><time>2026-03-30T10:57:39.999Z</time></trkpt><trkpt lat="33.10306262196202" lon="9.202936097510088"><ele>149.5</ele><time>2026-03-30T10:57:40.999Z</time></trkpt><trkpt lat="33.10296126335732" lon="9.2030622070375"><ele>149.75</ele><time>2026-03-30T10:57:41.999Z</time></trkpt><trkpt lat="33.102852606456835" lon="9.203182817376604"><ele>150.0</ele><time>2026-03-30T10:57:42.999Z</time></trkpt><trkpt lat="33.10275572799156" lon="9.203297412216626"><ele>150.0</ele><time>2026-03-30T10:57:43.999Z</time></trkpt><trkpt lat="33.10265603015878" lon="9.203414318042142"><ele>150.0</ele><time>2026-03-30T10:57:44.999Z</time></trkpt><trkpt lat="33.10254480359488" lon="9.203547183229032"><ele>150.0</ele><time>2026-03-30T10:57:45.999Z</time></trkpt><trkpt lat="33.10244198777244" lon="9.203679200342306"><ele>150.0</ele><time>2026-03-30T10:57:46.999Z</time></trkpt><trkpt lat="33.10232403416998" lon="9.203797134755684"><ele>149.75</ele><time>2026-03-30T10:57:47.999Z</time></trkpt><trkpt lat="33.1022107435616" lon="9.203920050135434"><ele>149.5</ele><time>2026-03-30T10:57:48.999Z</time></trkpt><trkpt lat="33.10210462634694" lon="9.204037363435225"><ele>149.25</ele><time>2026-03-30T10:57:50Z</time></trkpt><trkpt lat="33.10199851275991" lon="9.204150291375207"><ele>149.0</ele><time>2026-03-30T10:57:51Z</time></trkpt><trkpt lat="33.101897216916086" lon="9.204262142050176"><ele>149.0</ele><time>2026-03-30T10:57:52Z</time></trkpt><trkpt lat="33.101794020932886" lon="9.20437411481276"><ele>149.0</ele><time>2026-03-30T10:57:53Z</time></trkpt><trkpt lat="33.10168933304087" lon="9.204491854311087"><ele>149.0</ele><time>2026-03-30T10:57:54Z</time></trkpt><trkpt lat="33.10158657186484" lon="9.204607425153952"><ele>149.0</ele><time>2026-03-30T10:57:55Z</time></trkpt><trkpt lat="33.101481287389404" lon="9.204721354798627"><ele>149.0</ele><time>2026-03-30T10:57:56Z</time></trkpt><trkpt lat="33.1013817283983" lon="9.20483362120288"><ele>149.0</ele><time>2026-03-30T10:57:57Z</time></trkpt><trkpt lat="33.10127984549349" lon="9.204946406564561"><ele>149.0</ele><time>2026-03-30T10:57:58Z</time></trkpt><trkpt lat="33.101173580256784" lon="9.205076530716209"><ele>149.0</ele><time>2026-03-30T10:57:59Z</time></trkpt><trkpt lat="33.10106961041933" lon="9.205201661098068"><ele>149.0</ele><time>2026-03-30T10:58:00Z</time></trkpt><trkpt lat="33.10097037127381" lon="9.205318574886771"><ele>149.0</ele><time>2026-03-30T10:58:01Z</time></trkpt><trkpt lat="33.10087661961649" lon="9.205442717822683"><ele>149.0</ele><time>2026-03-30T10:58:02Z</time></trkpt><trkpt lat="33.1007800309413" lon="9.205553005701345"><ele>149.0</ele><time>2026-03-30T10:58:03Z</time></trkpt><trkpt lat="33.1006815080804" lon="9.205684960876104"><ele>148.33333333333331</ele><time>2026-03-30T10:58:04Z</time></trkpt><trkpt lat="33.10058432413027" lon="9.205822983931577"><ele>147.66666666666666</ele><time>2026-03-30T10:58:05Z</time></trkpt><trkpt lat="33.10048444504257" lon="9.205973088238911"><ele>147.0</ele><time>2026-03-30T10:58:06Z</time></trkpt><trkpt lat="33.10037364475059" lon="9.206112026623867"><ele>147.0</ele><time>2026-03-30T10:58:07Z</time></trkpt><trkpt lat="33.10027178266409" lon="9.2062482862413"><ele>147.0</ele><time>2026-03-30T10:58:08Z</time></trkpt><trkpt lat="33.10016423302674" lon="9.206378242580133"><ele>147.0</ele><time>2026-03-30T10:58:09Z</time></trkpt><trkpt lat="33.1000585585233" lon="9.20650457990428"><ele>147.33333333333334</ele><time>2026-03-30T10:58:10Z</time></trkpt><trkpt lat="33.09995204779112" lon="9.206631369158469"><ele>147.66666666666669</ele><time>2026-03-30T10:58:11Z</time></trkpt><trkpt lat="33.09984813980602" lon="9.206755722075998"><ele>148.0</ele><time>2026-03-30T10:58:12Z</time></trkpt><trkpt lat="33.099738790162" lon="9.206887896962618"><ele>148.25</ele><time>2026-03-30T10:58:13Z</time></trkpt><trkpt lat="33.09963252737267" lon="9.207018238801401"><ele>148.5</ele><time>2026-03-30T10:58:14Z</time></trkpt><trkpt lat="33.09953563667075" lon="9.207141010542928"><ele>148.75</ele><time>2026-03-30T10:58:15Z</time></trkpt><trkpt lat="33.09943023288595" lon="9.207273392029364"><ele>149.0</ele><time>2026-03-30T10:58:16Z</time></trkpt><trkpt lat="33.099328577873415" lon="9.207392372610913"><ele>149.0</ele><time>2026-03-30T10:58:17Z</time></trkpt><trkpt lat="33.0992238607279" lon="9.207505978421338"><ele>149.0</ele><time>2026-03-30T10:58:18Z</time></trkpt><trkpt lat="33.09912458566232" lon="9.207617673865728"><ele>149.0</ele><time>2026-03-30T10:58:19Z</time></trkpt><trkpt lat="33.0990241123653" lon="9.207738940440061"><ele>149.0</ele><time>2026-03-30T10:58:20Z</time></trkpt><trkpt lat="33.09893436580368" lon="9.207859232237375"><ele>149.0</ele><time>2026-03-30T10:58:21Z</time></trkpt><trkpt lat="33.09884187946854" lon="9.207995980566327"><ele>149.0</ele><time>2026-03-30T10:58:22Z</time></trkpt><trkpt lat="33.09874328816625" lon="9.20812922346339"><ele>149.0</ele><time>2026-03-30T10:58:23Z</time></trkpt><trkpt lat="33.09864520406076" lon="9.208237243070736"><ele>149.0</ele><time>2026-03-30T10:58:24Z</time></trkpt><trkpt lat="33.09852162438079" lon="9.208354561885317"><ele>149.0</ele><time>2026-03-30T10:58:25Z</time></trkpt><trkpt lat="33.09839926900147" lon="9.20846994123328"><ele>149.0</ele><time>2026-03-30T10:58:26Z</time></trkpt><trkpt lat="33.09828478984838" lon="9.208587644810777"><ele>149.0</ele><time>2026-03-30T10:58:27Z</time></trkpt><trkpt lat="33.09818405260109" lon="9.208706482364649"><ele>149.0</ele><time>2026-03-30T10:58:28Z</time></trkpt><trkpt lat="33.098087587555696" lon="9.208829812137443"><ele>149.5</ele><time>2026-03-30T10:58:29Z</time></trkpt><trkpt lat="33.09798817917715" lon="9.208954341912785"><ele>150.0</ele><time>2026-03-30T10:58:30Z</time></trkpt><trkpt lat="33.09788715979667" lon="9.209072803961618"><ele>150.5</ele><time>2026-03-30T10:58:31Z</time></trkpt><trkpt lat="33.09778899748949" lon="9.209191721034863"><ele>151.0</ele><time>2026-03-30T10:58:32Z</time></trkpt><trkpt lat="33.0976907657409" lon="9.209325470439925"><ele>151.0</ele><time>2026-03-30T10:58:33Z</time></trkpt><trkpt lat="33.097585628135405" lon="9.209468727668273"><ele>151.0</ele><time>2026-03-30T10:58:34Z</time></trkpt><trkpt lat="33.0974776627983" lon="9.209614851722987"><ele>151.0</ele><time>2026-03-30T10:58:35Z</time></trkpt><trkpt lat="33.09737384124501" lon="9.20975781751323"><ele>151.0</ele><time>2026-03-30T10:58:36Z</time></trkpt><trkpt lat="33.09726457882748" lon="9.209905766439165"><ele>151.0</ele><time>2026-03-30T10:58:37Z</time></trkpt><trkpt lat="33.09716088278384" lon="9.210039469102439"><ele>151.0</ele><time>2026-03-30T10:58:38Z</time></trkpt><trkpt lat="33.09705784465292" lon="9.210175226792677"><ele>151.0</ele><time>2026-03-30T10:58:39Z</time></trkpt><trkpt lat="33.09695775110642" lon="9.210293770038124"><ele>151.0</ele><time>2026-03-30T10:58:40Z</time></trkpt><trkpt lat="33.096854039866486" lon="9.210411036275728"><ele>151.0</ele><time>2026-03-30T10:58:41Z</time></trkpt><trkpt lat="33.09675133091416" lon="9.210526885587129"><ele>151.0</ele><time>2026-03-30T10:58:42Z</time></trkpt><trkpt lat="33.0966529972805" lon="9.210641290330857"><ele>151.5</ele><time>2026-03-30T10:58:43Z</time></trkpt><trkpt lat="33.096563271703765" lon="9.210758623947294"><ele>152.0</ele><time>2026-03-30T10:58:44Z</time></trkpt><trkpt lat="33.09648051293589" lon="9.210878853569538"><ele>152.5</ele><time>2026-03-30T10:58:45Z</time></trkpt><trkpt lat="33.096408323350595" lon="9.211004355115186"><ele>153.0</ele><time>2026-03-30T10:58:46Z</time></trkpt><trkpt lat="33.09633492003841" lon="9.211138597499678"><ele>153.0</ele><time>2026-03-30T10:58:47Z</time></trkpt><trkpt lat="33.09626629154242" lon="9.21126334722474"><ele>153.0</ele><time>2026-03-30T10:58:48Z</time></trkpt><trkpt lat="33.096199867862794" lon="9.211397092919222"><ele>153.0</ele><time>2026-03-30T10:58:49Z</time></trkpt><trkpt lat="33.096127365776844" lon="9.211531178670967"><ele>153.0</ele><time>2026-03-30T10:58:49.999Z</time></trkpt><trkpt lat="33.09606980679571" lon="9.211663628184757"><ele>152.5</ele><time>2026-03-30T10:58:50.999Z</time></trkpt><trkpt lat="33.096012032041855" lon="9.21180710463861"><ele>152.0</ele><time>2026-03-30T10:58:51.999Z</time></trkpt><trkpt lat="33.09594828794877" lon="9.211938808213985"><ele>151.5</ele><time>2026-03-30T10:58:52.999Z</time></trkpt><trkpt lat="33.095863561955284" lon="9.21208120152455"><ele>151.0</ele><time>2026-03-30T10:58:53.999Z</time></trkpt><trkpt lat="33.095773237089" lon="9.212210112184238"><ele>151.5</ele><time>2026-03-30T10:58:54.999Z</time></trkpt><trkpt lat="33.095683294650904" lon="9.212336782083119"><ele>152.0</ele><time>2026-03-30T10:58:55.999Z</time></trkpt><trkpt lat="33.095596246131194" lon="9.212458968695005"><ele>152.5</ele><time>2026-03-30T10:58:56.999Z</time></trkpt><trkpt lat="33.09552143170609" lon="9.212574656516813"><ele>153.0</ele><time>2026-03-30T10:58:57.999Z</time></trkpt><trkpt lat="33.095430033274084" lon="9.212684532696814"><ele>153.0</ele><time>2026-03-30T10:58:58.999Z</time></trkpt><trkpt lat="33.095316167334886" lon="9.212780759706217"><ele>153.0</ele><time>2026-03-30T10:58:59.999Z</time></trkpt><trkpt lat="33.095195224619765" lon="9.21286673851642"><ele>153.0</ele><time>2026-03-30T10:59:00.999Z</time></trkpt><trkpt lat="33.095073151369306" lon="9.212961666578405"><ele>153.0</ele><time>2026-03-30T10:59:01.999Z</time></trkpt><trkpt lat="33.09496007992585" lon="9.213066351891994"><ele>153.0</ele><time>2026-03-30T10:59:02.999Z</time></trkpt><trkpt lat="33.09484356074759" lon="9.213172616391217"><ele>153.0</ele><time>2026-03-30T10:59:03.999Z</time></trkpt><trkpt lat="33.09472576036412" lon="9.213278387577974"><ele>153.0</ele><time>2026-03-30T10:59:04.999Z</time></trkpt><trkpt lat="33.09460913378742" lon="9.213387513907572"><ele>153.0</ele><time>2026-03-30T10:59:05.999Z</time></trkpt><trkpt lat="33.09451162959981" lon="9.213486636085456"><ele>153.0</ele><time>2026-03-30T10:59:06.999Z</time></trkpt><trkpt lat="33.09441376922015" lon="9.21360228521469"><ele>153.0</ele><time>2026-03-30T10:59:07.999Z</time></trkpt><trkpt lat="33.09430669602164" lon="9.213733933191596"><ele>153.0</ele><time>2026-03-30T10:59:08.999Z</time></trkpt><trkpt lat="33.09421027142288" lon="9.213852185918483"><ele>153.0</ele><time>2026-03-30T10:59:09.999Z</time></trkpt><trkpt lat="33.094114564538664" lon="9.213968990581062"><ele>153.0</ele><time>2026-03-30T10:59:10.999Z</time></trkpt><trkpt lat="33.0940092924171" lon="9.214072887299293"><ele>153.0</ele><time>2026-03-30T10:59:11.999Z</time></trkpt><trkpt lat="33.09390102922813" lon="9.214160557993358"><ele>153.0</ele><time>2026-03-30T10:59:12.999Z</time></trkpt><trkpt lat="33.09378754910168" lon="9.21424368535787"><ele>153.0</ele><time>2026-03-30T10:59:13.999Z</time></trkpt><trkpt lat="33.09367193094739" lon="9.214339872448418"><ele>153.0</ele><time>2026-03-30T10:59:14.999Z</time></trkpt><trkpt lat="33.093568354771904" lon="9.214424837995638"><ele>153.0</ele><time>2026-03-30T10:59:15.999Z</time></trkpt><trkpt lat="33.09347720021553" lon="9.214493702373861"><ele>153.0</ele><time>2026-03-30T10:59:16.999Z</time></trkpt><trkpt lat="33.09339210459622" lon="9.214553806020948"><ele>153.0</ele><time>2026-03-30T10:59:17.999Z</time></trkpt><trkpt lat="33.0933094318244" lon="9.214600932773887"><ele>153.0</ele><time>2026-03-30T10:59:18.999Z</time></trkpt><trkpt lat="33.09322325596013" lon="9.214652898637778"><ele>152.8</ele><time>2026-03-30T10:59:19.999Z</time></trkpt><trkpt lat="33.09314807761413" lon="9.214692089794953"><ele>152.60000000000002</ele><time>2026-03-30T10:59:20.999Z</time></trkpt><trkpt lat="33.09304685890301" lon="9.214748276692443"><ele>152.39999999999998</ele><time>2026-03-30T10:59:21.999Z</time></trkpt><trkpt lat="33.092928312411274" lon="9.21480144856236"><ele>152.2</ele><time>2026-03-30T10:59:22.999Z</time></trkpt><trkpt lat="33.09281711511259" lon="9.21483901357947"><ele>152.0</ele><time>2026-03-30T10:59:23.999Z</time></trkpt><trkpt lat="33.09270438737461" lon="9.214898334247223"><ele>152.0</ele><time>2026-03-30T10:59:24.999Z</time></trkpt><trkpt lat="33.092590205235595" lon="9.214992981424716"><ele>152.0</ele><time>2026-03-30T10:59:25.999Z</time></trkpt><trkpt lat="33.092467780382" lon="9.215109729336037"><ele>152.0</ele><time>2026-03-30T10:59:26.999Z</time></trkpt><trkpt lat="33.0923516622428" lon="9.215208367251327"><ele>152.0</ele><time>2026-03-30T10:59:27.999Z</time></trkpt><trkpt lat="33.09223568998125" lon="9.215292023811054"><ele>152.25</ele><time>2026-03-30T10:59:28.999Z</time></trkpt><trkpt lat="33.09211502882093" lon="9.215365592870038"><ele>152.5</ele><time>2026-03-30T10:59:29.999Z</time></trkpt><trkpt lat="33.092011729452764" lon="9.215427839449477"><ele>152.75</ele><time>2026-03-30T10:59:30.999Z</time></trkpt><trkpt lat="33.0919035913343" lon="9.215494995034685"><ele>153.0</ele><time>2026-03-30T10:59:31.999Z</time></trkpt><trkpt lat="33.091795077283116" lon="9.215571919231124"><ele>153.0</ele><time>2026-03-30T10:59:32.999Z</time></trkpt><trkpt lat="33.091702142056484" lon="9.215665709058435"><ele>153.0</ele><time>2026-03-30T10:59:33.999Z</time></trkpt><trkpt lat="33.0916151086835" lon="9.215761509294222"><ele>153.0</ele><time>2026-03-30T10:59:34.999Z</time></trkpt><trkpt lat="33.09153077221215" lon="9.215862767190261"><ele>153.0</ele><time>2026-03-30T10:59:35.999Z</time></trkpt><trkpt lat="33.09144955554986" lon="9.215963481701777"><ele>153.0</ele><time>2026-03-30T10:59:36.999Z</time></trkpt><trkpt lat="33.09135840303066" lon="9.216052247594623"><ele>153.0</ele><time>2026-03-30T10:59:37.999Z</time></trkpt><trkpt lat="33.09125371317518" lon="9.216132187283296"><ele>153.0</ele><time>2026-03-30T10:59:38.999Z</time></trkpt><trkpt lat="33.09115482008634" lon="9.216204634626832"><ele>153.0</ele><time>2026-03-30T10:59:39.999Z</time></trkpt><trkpt lat="33.091066863698686" lon="9.216272830213068"><ele>153.0</ele><time>2026-03-30T10:59:40.999Z</time></trkpt><trkpt lat="33.09099053384469" lon="9.21634552314555"><ele>153.0</ele><time>2026-03-30T10:59:41.999Z</time></trkpt><trkpt lat="33.090923448930084" lon="9.216413218527773"><ele>153.0</ele><time>2026-03-30T10:59:42.999Z</time></trkpt><trkpt lat="33.09085126640464" lon="9.216479098115174"><ele>153.0</ele><time>2026-03-30T10:59:43.999Z</time></trkpt><trkpt lat="33.09078101678564" lon="9.216541598721445"><ele>153.0</ele><time>2026-03-30T10:59:44.999Z</time></trkpt><trkpt lat="33.09070405666985" lon="9.216598210551894"><ele>153.0</ele><time>2026-03-30T10:59:45.999Z</time></trkpt><trkpt lat="33.090630587263014" lon="9.216652202514815"><ele>153.0</ele><time>2026-03-30T10:59:46.999Z</time></trkpt><trkpt lat="33.09057055287057" lon="9.216698848661169"><ele>153.0</ele><time>2026-03-30T10:59:47.999Z</time></trkpt><trkpt lat="33.09050912567083" lon="9.216761975613858"><ele>153.0</ele><time>2026-03-30T10:59:48.999Z</time></trkpt><trkpt lat="33.09044675027567" lon="9.21683229091941"><ele>153.0</ele><time>2026-03-30T10:59:49.999Z</time></trkpt><trkpt lat="33.090371845948425" lon="9.216878628035587"><ele>153.0</ele><time>2026-03-30T10:59:50.999Z</time></trkpt><trkpt lat="33.090282877076746" lon="9.216916610340789"><ele>153.0</ele><time>2026-03-30T10:59:51.999Z</time></trkpt><trkpt lat="33.09020268011829" lon="9.216966243432385"><ele>153.0</ele><time>2026-03-30T10:59:52.999Z</time></trkpt><trkpt lat="33.090130074094496" lon="9.217011370763686"><ele>153.0</ele><time>2026-03-30T10:59:53.999Z</time></trkpt><trkpt lat="33.09006769237928" lon="9.217052689156466"><ele>153.0</ele><time>2026-03-30T10:59:54.999Z</time></trkpt><trkpt lat="33.089986657423935" lon="9.217090191176007"><ele>153.0</ele><time>2026-03-30T10:59:55.999Z</time></trkpt><trkpt lat="33.08989764007989" lon="9.217136120359074"><ele>153.0</ele><time>2026-03-30T10:59:56.999Z</time></trkpt><trkpt lat="33.089816072290446" lon="9.217199227584192"><ele>152.8</ele><time>2026-03-30T10:59:57.999Z</time></trkpt><trkpt lat="33.08973566348029" lon="9.217290535870138"><ele>152.60000000000002</ele><time>2026-03-30T10:59:58.999Z</time></trkpt><trkpt lat="33.08966297275105" lon="9.217396829486825"><ele>152.39999999999998</ele><time>2026-03-30T10:59:59.999Z</time></trkpt><trkpt lat="33.08961092455873" lon="9.217489363792255"><ele>152.2</ele><time>2026-03-30T11:00:00.999Z</time></trkpt><trkpt lat="33.08957865788399" lon="9.21757736577321"><ele>152.0</ele><time>2026-03-30T11:00:01.999Z</time></trkpt><trkpt lat="33.089543771919395" lon="9.217683057742377"><ele>152.0</ele><time>2026-03-30T11:00:02.999Z</time></trkpt><trkpt lat="33.08947874350162" lon="9.217810807745272"><ele>152.0</ele><time>2026-03-30T11:00:03.999Z</time></trkpt><trkpt lat="33.089402860168015" lon="9.217927468076978"><ele>152.0</ele><time>2026-03-30T11:00:04.999Z</time></trkpt><trkpt lat="33.089319707804805" lon="9.218055737348111"><ele>152.0</ele><time>2026-03-30T11:00:05.999Z</time></trkpt><trkpt lat="33.08925852967992" lon="9.218147171304995"><ele>152.0</ele><time>2026-03-30T11:00:06.999Z</time></trkpt><trkpt lat="33.08919058949707" lon="9.21823616120757"><ele>152.0</ele><time>2026-03-30T11:00:07.999Z</time></trkpt><trkpt lat="33.08912827378544" lon="9.218302153591663"><ele>152.0</ele><time>2026-03-30T11:00:08.999Z</time></trkpt><trkpt lat="33.08907518387168" lon="9.218364454441115"><ele>152.0</ele><time>2026-03-30T11:00:09.999Z</time></trkpt><trkpt lat="33.089017976450776" lon="9.218497441821638"><ele>152.0</ele><time>2026-03-30T11:00:11.999Z</time></trkpt><trkpt lat="33.08896960332839" lon="9.21859678908856"><ele>152.25</ele><time>2026-03-30T11:00:12.999Z</time></trkpt><trkpt lat="33.088909383301804" lon="9.218698076950107"><ele>152.5</ele><time>2026-03-30T11:00:13.999Z</time></trkpt><trkpt lat="33.088837309021415" lon="9.218814948118721"><ele>152.75</ele><time>2026-03-30T11:00:14.999Z</time></trkpt><trkpt lat="33.08876326775731" lon="9.218924923275004"><ele>153.0</ele><time>2026-03-30T11:00:15.999Z</time></trkpt><trkpt lat="33.088693048353754" lon="9.219033113059975"><ele>153.0</ele><time>2026-03-30T11:00:16.999Z</time></trkpt><trkpt lat="33.08862973502007" lon="9.21912458921871"><ele>153.0</ele><time>2026-03-30T11:00:17.999Z</time></trkpt><trkpt lat="33.08859362448488" lon="9.219209071645043"><ele>153.0</ele><time>2026-03-30T11:00:18.999Z</time></trkpt><trkpt lat="33.0885803831519" lon="9.219290937518412"><ele>153.0</ele><time>2026-03-30T11:00:19.999Z</time></trkpt><trkpt lat="33.08857663491951" lon="9.219381967098183"><ele>153.0</ele><time>2026-03-30T11:00:20.999Z</time></trkpt><trkpt lat="33.08856261465163" lon="9.219467588769483"><ele>153.0</ele><time>2026-03-30T11:00:21.999Z</time></trkpt><trkpt lat="33.08851808076926" lon="9.219549092247382"><ele>153.0</ele><time>2026-03-30T11:00:22.999Z</time></trkpt><trkpt lat="33.08844506058487" lon="9.21961377634247"><ele>153.0</ele><time>2026-03-30T11:00:23.999Z</time></trkpt><trkpt lat="33.08836628233316" lon="9.219661888947645"><ele>153.0</ele><time>2026-03-30T11:00:24.999Z</time></trkpt><trkpt lat="33.08824059920614" lon="9.219738507800049"><ele>153.0</ele><time>2026-03-30T11:00:26.999Z</time></trkpt><trkpt lat="33.08813549233813" lon="9.219800525075689"><ele>153.0</ele><time>2026-03-30T11:00:27.999Z</time></trkpt><trkpt lat="33.08802519932805" lon="9.219854720516002"><ele>153.25</ele><time>2026-03-30T11:00:28.999Z</time></trkpt><trkpt lat="33.08791440589445" lon="9.21989880097797"><ele>153.5</ele><time>2026-03-30T11:00:29.999Z</time></trkpt><trkpt lat="33.087803387851906" lon="9.219952879694743"><ele>153.75</ele><time>2026-03-30T11:00:30.999Z</time></trkpt><trkpt lat="33.08770041556902" lon="9.220017223363492"><ele>154.0</ele><time>2026-03-30T11:00:31.999Z</time></trkpt><trkpt lat="33.08760438234698" lon="9.220091861289092"><ele>154.0</ele><time>2026-03-30T11:00:32.999Z</time></trkpt><trkpt lat="33.087504885185915" lon="9.220179855033788"><ele>154.0</ele><time>2026-03-30T11:00:33.999Z</time></trkpt><trkpt lat="33.08742378618549" lon="9.220284764132682"><ele>154.0</ele><time>2026-03-30T11:00:34.999Z</time></trkpt><trkpt lat="33.08734593794546" lon="9.220407367630118"><ele>154.0</ele><time>2026-03-30T11:00:35.999Z</time></trkpt><trkpt lat="33.0872552321166" lon="9.220534386175848"><ele>154.0</ele><time>2026-03-30T11:00:36.999Z</time></trkpt><trkpt lat="33.087158653353114" lon="9.220655541351974"><ele>154.0</ele><time>2026-03-30T11:00:37.999Z</time></trkpt><trkpt lat="33.08704775604965" lon="9.22077998804825"><ele>154.0</ele><time>2026-03-30T11:00:38.999Z</time></trkpt><trkpt lat="33.0869444091605" lon="9.22089926126922"><ele>154.0</ele><time>2026-03-30T11:00:39.999Z</time></trkpt><trkpt lat="33.08683288228822" lon="9.221029010500978"><ele>154.0</ele><time>2026-03-30T11:00:40.999Z</time></trkpt><trkpt lat="33.08673467262368" lon="9.221164248374986"><ele>154.0</ele><time>2026-03-30T11:00:41.999Z</time></trkpt><trkpt lat="33.08663842056772" lon="9.221303826055834"><ele>154.0</ele><time>2026-03-30T11:00:42.999Z</time></trkpt><trkpt lat="33.08653763654769" lon="9.22143487258732"><ele>154.0</ele><time>2026-03-30T11:00:43.999Z</time></trkpt><trkpt lat="33.086428178818764" lon="9.221540708888174"><ele>154.0</ele><time>2026-03-30T11:00:44.999Z</time></trkpt><trkpt lat="33.08630093895767" lon="9.221632348504988"><ele>154.0</ele><time>2026-03-30T11:00:45.999Z</time></trkpt><trkpt lat="33.08618264629591" lon="9.221716944712108"><ele>154.0</ele><time>2026-03-30T11:00:46.999Z</time></trkpt><trkpt lat="33.08607511182495" lon="9.221788343252353"><ele>154.0</ele><time>2026-03-30T11:00:47.999Z</time></trkpt><trkpt lat="33.08597150850846" lon="9.221865079618983"><ele>154.0</ele><time>2026-03-30T11:00:48.999Z</time></trkpt><trkpt lat="33.08585567006653" lon="9.221945601119382"><ele>154.0</ele><time>2026-03-30T11:00:49.999Z</time></trkpt><trkpt lat="33.0857421758503" lon="9.222010757102264"><ele>154.0</ele><time>2026-03-30T11:00:50.999Z</time></trkpt><trkpt lat="33.0856296583929" lon="9.222074423416705"><ele>154.0</ele><time>2026-03-30T11:00:51.999Z</time></trkpt><trkpt lat="33.08552919521373" lon="9.222156511569626"><ele>154.0</ele><time>2026-03-30T11:00:52.999Z</time></trkpt><trkpt lat="33.08544284115887" lon="9.22224967426686"><ele>154.0</ele><time>2026-03-30T11:00:53.999Z</time></trkpt><trkpt lat="33.08537219852475" lon="9.22232706443965"><ele>154.0</ele><time>2026-03-30T11:00:54.999Z</time></trkpt><trkpt lat="33.08528211049047" lon="9.222399775517124"><ele>154.0</ele><time>2026-03-30T11:00:55.999Z</time></trkpt><trkpt lat="33.08516941790194" lon="9.22248127906686"><ele>154.0</ele><time>2026-03-30T11:00:56.999Z</time></trkpt><trkpt lat="33.08505751003275" lon="9.222565542406969"><ele>154.0</ele><time>2026-03-30T11:00:57.999Z</time></trkpt><trkpt lat="33.08493942725272" lon="9.222672808360695"><ele>154.0</ele><time>2026-03-30T11:00:58.999Z</time></trkpt><trkpt lat="33.08481865637383" lon="9.222788314109582"><ele>154.0</ele><time>2026-03-30T11:00:59.999Z</time></trkpt><trkpt lat="33.08470732598569" lon="9.22290757538769"><ele>154.0</ele><time>2026-03-30T11:01:00.999Z</time></trkpt><trkpt lat="33.084599281495876" lon="9.223028020314358"><ele>154.0</ele><time>2026-03-30T11:01:01.999Z</time></trkpt><trkpt lat="33.08450062883379" lon="9.223162860900675"><ele>154.0</ele><time>2026-03-30T11:01:02.999Z</time></trkpt><trkpt lat="33.08440385189727" lon="9.223321990823974"><ele>154.33333333333334</ele><time>2026-03-30T11:01:03.999Z</time></trkpt><trkpt lat="33.08429702847959" lon="9.223497806045824"><ele>154.66666666666666</ele><time>2026-03-30T11:01:04.999Z</time></trkpt><trkpt lat="33.08420196904241" lon="9.223642453614717"><ele>155.0</ele><time>2026-03-30T11:01:05.999Z</time></trkpt><trkpt lat="33.08410529213904" lon="9.223760529348933"><ele>155.0</ele><time>2026-03-30T11:01:06.999Z</time></trkpt><trkpt lat="33.08399849491107" lon="9.22387059107425"><ele>155.0</ele><time>2026-03-30T11:01:08Z</time></trkpt><trkpt lat="33.08390088167967" lon="9.223971367048948"><ele>155.0</ele><time>2026-03-30T11:01:09Z</time></trkpt><trkpt lat="33.083792195044175" lon="9.224063586601636"><ele>155.0</ele><time>2026-03-30T11:01:10Z</time></trkpt><trkpt lat="33.083680022034514" lon="9.22415471483875"><ele>155.0</ele><time>2026-03-30T11:01:11Z</time></trkpt><trkpt lat="33.083572777743164" lon="9.224245051176165"><ele>155.0</ele><time>2026-03-30T11:01:12Z</time></trkpt><trkpt lat="33.083485517596806" lon="9.22435405718995"><ele>155.0</ele><time>2026-03-30T11:01:13Z</time></trkpt><trkpt lat="33.08340561348959" lon="9.224482738082845"><ele>155.0</ele><time>2026-03-30T11:01:14Z</time></trkpt><trkpt lat="33.08330462958528" lon="9.2246125382883"><ele>155.0</ele><time>2026-03-30T11:01:15Z</time></trkpt><trkpt lat="33.08317892185079" lon="9.224733823000202"><ele>155.0</ele><time>2026-03-30T11:01:16Z</time></trkpt><trkpt lat="33.083060237584554" lon="9.224855354639114"><ele>155.0</ele><time>2026-03-30T11:01:17Z</time></trkpt><trkpt lat="33.08294126764958" lon="9.22497685999847"><ele>155.33333333333331</ele><time>2026-03-30T11:01:18Z</time></trkpt><trkpt lat="33.08282157061341" lon="9.225106444832274"><ele>155.66666666666666</ele><time>2026-03-30T11:01:19Z</time></trkpt><trkpt lat="33.082707883082996" lon="9.225218346110157"><ele>156.0</ele><time>2026-03-30T11:01:20Z</time></trkpt><trkpt lat="33.08260477201372" lon="9.225334351968227"><ele>156.0</ele><time>2026-03-30T11:01:21Z</time></trkpt><trkpt lat="33.082504801319956" lon="9.225454655721848"><ele>156.0</ele><time>2026-03-30T11:01:22Z</time></trkpt><trkpt lat="33.08241737838559" lon="9.225576179253885"><ele>156.0</ele><time>2026-03-30T11:01:23Z</time></trkpt><trkpt lat="33.082329696728586" lon="9.225698050594904"><ele>156.0</ele><time>2026-03-30T11:01:24Z</time></trkpt><trkpt lat="33.08224900450426" lon="9.225820114763765"><ele>155.75</ele><time>2026-03-30T11:01:25Z</time></trkpt><trkpt lat="33.08217207460987" lon="9.225937263867552"><ele>155.5</ele><time>2026-03-30T11:01:26Z</time></trkpt><trkpt lat="33.08209894372172" lon="9.226057624029426"><ele>155.25</ele><time>2026-03-30T11:01:27Z</time></trkpt><trkpt lat="33.08201935650308" lon="9.226177096800454"><ele>155.0</ele><time>2026-03-30T11:01:28Z</time></trkpt><trkpt lat="33.08193628473751" lon="9.226293798912035"><ele>155.0</ele><time>2026-03-30T11:01:29Z</time></trkpt><trkpt lat="33.081854059141946" lon="9.226403679502301"><ele>155.0</ele><time>2026-03-30T11:01:30Z</time></trkpt><trkpt lat="33.08176271562762" lon="9.22651321317418"><ele>155.0</ele><time>2026-03-30T11:01:31Z</time></trkpt><trkpt lat="33.08166809443496" lon="9.22663180635854"><ele>155.0</ele><time>2026-03-30T11:01:32Z</time></trkpt><trkpt lat="33.08157877832843" lon="9.226744700576829"><ele>155.5</ele><time>2026-03-30T11:01:33Z</time></trkpt><trkpt lat="33.081492923492625" lon="9.226848738360301"><ele>156.0</ele><time>2026-03-30T11:01:34Z</time></trkpt><trkpt lat="33.081408704270245" lon="9.2269544565806"><ele>156.5</ele><time>2026-03-30T11:01:35Z</time></trkpt><trkpt lat="33.08132400696195" lon="9.227050560686594"><ele>157.0</ele><time>2026-03-30T11:01:36Z</time></trkpt><trkpt lat="33.08123657000549" lon="9.227155631984672"><ele>157.0</ele><time>2026-03-30T11:01:37Z</time></trkpt><trkpt lat="33.08115678185848" lon="9.227243254115784"><ele>157.0</ele><time>2026-03-30T11:01:38Z</time></trkpt><trkpt lat="33.08107377404596" lon="9.227331586786164"><ele>157.0</ele><time>2026-03-30T11:01:38.999Z</time></trkpt><trkpt lat="33.080992992025344" lon="9.227421352008122"><ele>157.0</ele><time>2026-03-30T11:01:39.999Z</time></trkpt><trkpt lat="33.08090842503758" lon="9.227502898303202"><ele>157.0</ele><time>2026-03-30T11:01:40.999Z</time></trkpt><trkpt lat="33.08083553531897" lon="9.227585647812958"><ele>157.0</ele><time>2026-03-30T11:01:41.999Z</time></trkpt><trkpt lat="33.08075773450681" lon="9.227660536400982"><ele>157.0</ele><time>2026-03-30T11:01:42.999Z</time></trkpt><trkpt lat="33.080680577490405" lon="9.227739439144266"><ele>157.0</ele><time>2026-03-30T11:01:43.999Z</time></trkpt><trkpt lat="33.080601901629414" lon="9.227815515442709"><ele>157.0</ele><time>2026-03-30T11:01:44.999Z</time></trkpt><trkpt lat="33.08053360916121" lon="9.227886853048219"><ele>157.0</ele><time>2026-03-30T11:01:45.999Z</time></trkpt><trkpt lat="33.08047835423135" lon="9.227945383964487"><ele>157.0</ele><time>2026-03-30T11:01:46.999Z</time></trkpt><trkpt lat="33.08040618804527" lon="9.228042186518794"><ele>157.0</ele><time>2026-03-30T11:01:48.999Z</time></trkpt><trkpt lat="33.08035785465643" lon="9.228094411683436"><ele>157.0</ele><time>2026-03-30T11:01:51.999Z</time></trkpt><trkpt lat="33.08028538892343" lon="9.22817406632368"><ele>157.0</ele><time>2026-03-30T11:02:45Z</time></trkpt><trkpt lat="33.080212604187366" lon="9.228275348854908"><ele>157.0</ele><time>2026-03-30T11:02:47Z</time></trkpt><trkpt lat="33.08008666735209" lon="9.228397686951501"><ele>156.79999999999998</ele><time>2026-03-30T11:02:48Z</time></trkpt><trkpt lat="33.080016506025125" lon="9.22847278082887"><ele>156.6</ele><time>2026-03-30T11:02:49Z</time></trkpt><trkpt lat="33.07994195296873" lon="9.228552265156244"><ele>156.39999999999998</ele><time>2026-03-30T11:02:50Z</time></trkpt><trkpt lat="33.079871000456585" lon="9.228632521066723"><ele>156.2</ele><time>2026-03-30T11:02:51Z</time></trkpt><trkpt lat="33.07980059551676" lon="9.228711630450723"><ele>156.0</ele><time>2026-03-30T11:02:52Z</time></trkpt><trkpt lat="33.0797308032964" lon="9.22879600811208"><ele>156.0</ele><time>2026-03-30T11:02:53Z</time></trkpt><trkpt lat="33.07965536741278" lon="9.228876980349547"><ele>156.0</ele><time>2026-03-30T11:02:54Z</time></trkpt><trkpt lat="33.07957492120489" lon="9.228957302585227"><ele>156.0</ele><time>2026-03-30T11:02:55Z</time></trkpt><trkpt lat="33.07949241056821" lon="9.229031705564703"><ele>156.0</ele><time>2026-03-30T11:02:56Z</time></trkpt><trkpt lat="33.07940799247602" lon="9.229109912514573"><ele>156.0</ele><time>2026-03-30T11:02:57Z</time></trkpt><trkpt lat="33.07934390001836" lon="9.229176223824414"><ele>156.2</ele><time>2026-03-30T11:02:58Z</time></trkpt><trkpt lat="33.079285717129366" lon="9.22924492314677"><ele>156.39999999999998</ele><time>2026-03-30T11:02:59Z</time></trkpt><trkpt lat="33.07921853134023" lon="9.229320381815796"><ele>156.6</ele><time>2026-03-30T11:03:00Z</time></trkpt><trkpt lat="33.07914860409356" lon="9.229385168753659"><ele>156.79999999999998</ele><time>2026-03-30T11:03:01Z</time></trkpt><trkpt lat="33.07907822529759" lon="9.22945316788003"><ele>157.0</ele><time>2026-03-30T11:03:02Z</time></trkpt><trkpt lat="33.07900140055163" lon="9.229527334722034"><ele>157.0</ele><time>2026-03-30T11:03:03Z</time></trkpt><trkpt lat="33.07892844865505" lon="9.229602827291883"><ele>157.0</ele><time>2026-03-30T11:03:04Z</time></trkpt><trkpt lat="33.07885465941074" lon="9.229678954809504"><ele>157.0</ele><time>2026-03-30T11:03:05Z</time></trkpt><trkpt lat="33.07877888361952" lon="9.229757123385395"><ele>157.0</ele><time>2026-03-30T11:03:06Z</time></trkpt><trkpt lat="33.07869984586399" lon="9.229834818137546"><ele>157.0</ele><time>2026-03-30T11:03:07Z</time></trkpt><trkpt lat="33.078616893756134" lon="9.229920369653962"><ele>157.0</ele><time>2026-03-30T11:03:08Z</time></trkpt><trkpt lat="33.078541044312516" lon="9.229995825696829"><ele>157.0</ele><time>2026-03-30T11:03:09Z</time></trkpt><trkpt lat="33.0784738069633" lon="9.230065973906404"><ele>157.0</ele><time>2026-03-30T11:03:10Z</time></trkpt><trkpt lat="33.07841073763121" lon="9.230134043987443"><ele>157.0</ele><time>2026-03-30T11:03:11Z</time></trkpt><trkpt lat="33.07835599013355" lon="9.230188933876615"><ele>157.0</ele><time>2026-03-30T11:03:12Z</time></trkpt><trkpt lat="33.07829974277054" lon="9.23024061489094"><ele>157.0</ele><time>2026-03-30T11:03:13Z</time></trkpt><trkpt lat="33.07823013124385" lon="9.230307174758872"><ele>157.0</ele><time>2026-03-30T11:03:15Z</time></trkpt><trkpt lat="33.07814026263034" lon="9.230367530358654"><ele>157.0</ele><time>2026-03-30T11:03:52Z</time></trkpt><trkpt lat="33.07808308815866" lon="9.230421294346064"><ele>157.0</ele><time>2026-03-30T11:03:53Z</time></trkpt><trkpt lat="33.07802216693303" lon="9.230488497699444"><ele>157.0</ele><time>2026-03-30T11:03:54Z</time></trkpt><trkpt lat="33.0779488978141" lon="9.230560116120479"><ele>157.0</ele><time>2026-03-30T11:03:55Z</time></trkpt><trkpt lat="33.07784671948336" lon="9.230683747950325"><ele>157.25</ele><time>2026-03-30T11:03:56Z</time></trkpt><trkpt lat="33.07775752899476" lon="9.230796701634613"><ele>157.5</ele><time>2026-03-30T11:03:57Z</time></trkpt><trkpt lat="33.07767533699533" lon="9.230890158485126"><ele>157.75</ele><time>2026-03-30T11:03:58Z</time></trkpt><trkpt lat="33.0775917239825" lon="9.230969745565128"><ele>158.0</ele><time>2026-03-30T11:03:59Z</time></trkpt><trkpt lat="33.0775077417333" lon="9.231052035369665"><ele>158.0</ele><time>2026-03-30T11:04:00Z</time></trkpt><trkpt lat="33.077441463089805" lon="9.231118364792858"><ele>158.0</ele><time>2026-03-30T11:04:01Z</time></trkpt><trkpt lat="33.077381567546986" lon="9.231180828921216"><ele>158.0</ele><time>2026-03-30T11:04:02Z</time></trkpt><trkpt lat="33.07731012156119" lon="9.231252154019534"><ele>158.0</ele><time>2026-03-30T11:04:04Z</time></trkpt><trkpt lat="33.077231547663764" lon="9.231326388489126"><ele>158.0</ele><time>2026-03-30T11:04:06Z</time></trkpt><trkpt lat="33.07717635165189" lon="9.231379115535354"><ele>158.0</ele><time>2026-03-30T11:04:07Z</time></trkpt><trkpt lat="33.07711660884387" lon="9.231439004993252"><ele>158.0</ele><time>2026-03-30T11:04:08Z</time></trkpt><trkpt lat="33.077032604117775" lon="9.231532699755437"><ele>158.0</ele><time>2026-03-30T11:04:09Z</time></trkpt><trkpt lat="33.07695003394362" lon="9.231636531105691"><ele>158.0</ele><time>2026-03-30T11:04:10Z</time></trkpt><trkpt lat="33.07684106580238" lon="9.231746536105183"><ele>158.0</ele><time>2026-03-30T11:04:11Z</time></trkpt><trkpt lat="33.07670574495422" lon="9.23186755236474"><ele>158.0</ele><time>2026-03-30T11:04:12Z</time></trkpt><trkpt lat="33.07655815089908" lon="9.232004409339797"><ele>158.0</ele><time>2026-03-30T11:04:13Z</time></trkpt><trkpt lat="33.076390716307245" lon="9.232182553460294"><ele>158.0</ele><time>2026-03-30T11:04:14Z</time></trkpt><trkpt lat="33.07622895170056" lon="9.232341843058927"><ele>158.0</ele><time>2026-03-30T11:04:15Z</time></trkpt><trkpt lat="33.076105898873855" lon="9.232473379053577"><ele>158.0</ele><time>2026-03-30T11:04:16Z</time></trkpt><trkpt lat="33.07600865081291" lon="9.232583391185614"><ele>158.0</ele><time>2026-03-30T11:04:17Z</time></trkpt><trkpt lat="33.0759137637682" lon="9.23268615866342"><ele>158.0</ele><time>2026-03-30T11:04:18Z</time></trkpt><trkpt lat="33.07581468966581" lon="9.232791555552478"><ele>158.0</ele><time>2026-03-30T11:04:19Z</time></trkpt><trkpt lat="33.07572868089315" lon="9.232885777870322"><ele>158.0</ele><time>2026-03-30T11:04:20Z</time></trkpt><trkpt lat="33.07564056495939" lon="9.232984880313484"><ele>158.0</ele><time>2026-03-30T11:04:21Z</time></trkpt><trkpt lat="33.07555137541705" lon="9.23308447447322"><ele>158.0</ele><time>2026-03-30T11:04:22Z</time></trkpt><trkpt lat="33.07546535746004" lon="9.233172017813793"><ele>158.4</ele><time>2026-03-30T11:04:23Z</time></trkpt><trkpt lat="33.07537876106831" lon="9.233261008047947"><ele>158.8</ele><time>2026-03-30T11:04:24Z</time></trkpt><trkpt lat="33.07529995957217" lon="9.233350098068456"><ele>159.2</ele><time>2026-03-30T11:04:25Z</time></trkpt><trkpt lat="33.075217699663376" lon="9.233444324680903"><ele>159.6</ele><time>2026-03-30T11:04:26Z</time></trkpt><trkpt lat="33.07514022079479" lon="9.233535116279574"><ele>160.0</ele><time>2026-03-30T11:04:27Z</time></trkpt><trkpt lat="33.07506077334277" lon="9.233634996765232"><ele>160.0</ele><time>2026-03-30T11:04:28Z</time></trkpt><trkpt lat="33.07499093418476" lon="9.23372387370305"><ele>160.0</ele><time>2026-03-30T11:04:29Z</time></trkpt><trkpt lat="33.07492590374067" lon="9.233805650518937"><ele>160.0</ele><time>2026-03-30T11:04:30Z</time></trkpt><trkpt lat="33.07486950679711" lon="9.233878142477517"><ele>160.0</ele><time>2026-03-30T11:04:31Z</time></trkpt><trkpt lat="33.07481436518709" lon="9.233965824754648"><ele>160.0</ele><time>2026-03-30T11:04:32Z</time></trkpt><trkpt lat="33.07477040394236" lon="9.234052806820456"><ele>160.28571428571428</ele><time>2026-03-30T11:04:33Z</time></trkpt><trkpt lat="33.074739576549426" lon="9.234132036328404"><ele>160.57142857142858</ele><time>2026-03-30T11:04:34Z</time></trkpt><trkpt lat="33.074705304624224" lon="9.23420073948875"><ele>160.85714285714286</ele><time>2026-03-30T11:04:35Z</time></trkpt><trkpt lat="33.0746479563848" lon="9.23427291346027"><ele>161.14285714285714</ele><time>2026-03-30T11:04:36Z</time></trkpt><trkpt lat="33.074591802598555" lon="9.234346258833002"><ele>161.42857142857142</ele><time>2026-03-30T11:04:37Z</time></trkpt><trkpt lat="33.074546112637506" lon="9.234414749414668"><ele>161.71428571428572</ele><time>2026-03-30T11:04:38Z</time></trkpt><trkpt lat="33.074500362326326" lon="9.234471412957255"><ele>162.0</ele><time>2026-03-30T11:04:39Z</time></trkpt><trkpt lat="33.07440977935086" lon="9.234534693399027"><ele>162.0</ele><time>2026-03-30T11:04:41Z</time></trkpt><trkpt lat="33.07434116316535" lon="9.234556072391966"><ele>162.0</ele><time>2026-03-30T11:04:42Z</time></trkpt><trkpt lat="33.074261786321834" lon="9.234578998942487"><ele>162.0</ele><time>2026-03-30T11:04:43Z</time></trkpt><trkpt lat="33.07417969541458" lon="9.234603162185389"><ele>162.0</ele><time>2026-03-30T11:04:44Z</time></trkpt><trkpt lat="33.07409592265274" lon="9.234628156854088"><ele>162.0</ele><time>2026-03-30T11:04:45Z</time></trkpt><trkpt lat="33.0740310301661" lon="9.234652880367864"><ele>162.0</ele><time>2026-03-30T11:04:46Z</time></trkpt><trkpt lat="33.07394564024502" lon="9.234687346970022"><ele>161.83333333333334</ele><time>2026-03-30T11:04:47Z</time></trkpt><trkpt lat="33.07385407239936" lon="9.234728540605007"><ele>161.66666666666666</ele><time>2026-03-30T11:04:48Z</time></trkpt><trkpt lat="33.073783201136685" lon="9.234778434882978"><ele>161.5</ele><time>2026-03-30T11:04:49Z</time></trkpt><trkpt lat="33.073730739819375" lon="9.234835536006392"><ele>161.33333333333331</ele><time>2026-03-30T11:04:50Z</time></trkpt><trkpt lat="33.073658089893314" lon="9.234895324636351"><ele>161.16666666666666</ele><time>2026-03-30T11:04:51Z</time></trkpt><trkpt lat="33.073596223261106" lon="9.234928868661594"><ele>161.0</ele><time>2026-03-30T11:04:52Z</time></trkpt><trkpt lat="33.07350786872484" lon="9.234982425917444"><ele>161.0</ele><time>2026-03-30T11:04:53Z</time></trkpt><trkpt lat="33.07343516580916" lon="9.235030659446014"><ele>161.0</ele><time>2026-03-30T11:04:54Z</time></trkpt><trkpt lat="33.07336869629634" lon="9.235079875507768"><ele>161.0</ele><time>2026-03-30T11:04:55Z</time></trkpt><trkpt lat="33.07329510826435" lon="9.235133258223978"><ele>161.0</ele><time>2026-03-30T11:04:56Z</time></trkpt><trkpt lat="33.07322283431288" lon="9.235186650034477"><ele>161.0</ele><time>2026-03-30T11:04:57Z</time></trkpt><trkpt lat="33.073143764257885" lon="9.235241761735622"><ele>161.0</ele><time>2026-03-30T11:04:58Z</time></trkpt><trkpt lat="33.07306723475187" lon="9.235284258310507"><ele>161.0</ele><time>2026-03-30T11:04:59Z</time></trkpt><trkpt lat="33.07299210904232" lon="9.235328708072629"><ele>161.0</ele><time>2026-03-30T11:05:00Z</time></trkpt><trkpt lat="33.07292602059427" lon="9.235392286105006"><ele>161.0</ele><time>2026-03-30T11:05:01Z</time></trkpt><trkpt lat="33.0728516743673" lon="9.235479428912148"><ele>161.0</ele><time>2026-03-30T11:05:02Z</time></trkpt><trkpt lat="33.072770412864514" lon="9.235570397772817"><ele>161.0</ele><time>2026-03-30T11:05:03Z</time></trkpt><trkpt lat="33.07269300685673" lon="9.235656703336495"><ele>161.20000000000002</ele><time>2026-03-30T11:05:04Z</time></trkpt><trkpt lat="33.07261732965562" lon="9.235718241483749"><ele>161.4</ele><time>2026-03-30T11:05:05Z</time></trkpt><trkpt lat="33.072543213767005" lon="9.235777060457586"><ele>161.6</ele><time>2026-03-30T11:05:06Z</time></trkpt><trkpt lat="33.07246558469675" lon="9.235837618820746"><ele>161.8</ele><time>2026-03-30T11:05:07Z</time></trkpt><trkpt lat="33.07238708901879" lon="9.235906699490691"><ele>162.0</ele><time>2026-03-30T11:05:08Z</time></trkpt><trkpt lat="33.07231337085031" lon="9.235981273839233"><ele>162.0</ele><time>2026-03-30T11:05:09Z</time></trkpt><trkpt lat="33.07225737496234" lon="9.236054995793403"><ele>162.0</ele><time>2026-03-30T11:05:10Z</time></trkpt><trkpt lat="33.072195448609946" lon="9.236155216545976"><ele>162.0</ele><time>2026-03-30T11:05:11Z</time></trkpt><trkpt lat="33.0721352984466" lon="9.236245440045275"><ele>162.0</ele><time>2026-03-30T11:05:12Z</time></trkpt><trkpt lat="33.07207433138812" lon="9.236325342063184"><ele>162.0</ele><time>2026-03-30T11:05:13Z</time></trkpt><trkpt lat="33.072014744803326" lon="9.236385076764714"><ele>162.0</ele><time>2026-03-30T11:05:14Z</time></trkpt><trkpt lat="33.07195458803861" lon="9.23642843689918"><ele>162.0</ele><time>2026-03-30T11:05:15Z</time></trkpt><trkpt lat="33.07188916737892" lon="9.236483547885644"><ele>162.0</ele><time>2026-03-30T11:05:16Z</time></trkpt><trkpt lat="33.071826176566944" lon="9.236550476970043"><ele>162.0</ele><time>2026-03-30T11:05:17Z</time></trkpt><trkpt lat="33.071752707863595" lon="9.236630031797228"><ele>162.0</ele><time>2026-03-30T11:05:18Z</time></trkpt><trkpt lat="33.07167703870964" lon="9.236698033137476"><ele>162.0</ele><time>2026-03-30T11:05:19Z</time></trkpt><trkpt lat="33.071600858328104" lon="9.236771261512168"><ele>162.16666666666666</ele><time>2026-03-30T11:05:20Z</time></trkpt><trkpt lat="33.071526835538585" lon="9.236837049379917"><ele>162.33333333333334</ele><time>2026-03-30T11:05:21Z</time></trkpt><trkpt lat="33.071450890790125" lon="9.236903140395722"><ele>162.5</ele><time>2026-03-30T11:05:22Z</time></trkpt><trkpt lat="33.071373244026525" lon="9.236956105446088"><ele>162.66666666666669</ele><time>2026-03-30T11:05:23Z</time></trkpt><trkpt lat="33.071301460173764" lon="9.23700605444958"><ele>162.83333333333334</ele><time>2026-03-30T11:05:24Z</time></trkpt><trkpt lat="33.07122826942829" lon="9.237059668799589"><ele>163.0</ele><time>2026-03-30T11:05:25Z</time></trkpt><trkpt lat="33.07114843699574" lon="9.237119869155606"><ele>163.0</ele><time>2026-03-30T11:05:26Z</time></trkpt><trkpt lat="33.07107704969474" lon="9.237184839017889"><ele>163.0</ele><time>2026-03-30T11:05:27Z</time></trkpt><trkpt lat="33.071024938990554" lon="9.237274167112941"><ele>163.0</ele><time>2026-03-30T11:05:28Z</time></trkpt><trkpt lat="33.070968511287404" lon="9.237398553171936"><ele>163.0</ele><time>2026-03-30T11:05:29Z</time></trkpt><trkpt lat="33.07090697228415" lon="9.237505589522618"><ele>163.0</ele><time>2026-03-30T11:05:30Z</time></trkpt><trkpt lat="33.07083035034394" lon="9.237584702639841"><ele>163.8</ele><time>2026-03-30T11:05:31Z</time></trkpt><trkpt lat="33.07075379805318" lon="9.23765476096282"><ele>164.60000000000002</ele><time>2026-03-30T11:05:32Z</time></trkpt><trkpt lat="33.07066992901025" lon="9.23773444066015"><ele>165.39999999999998</ele><time>2026-03-30T11:05:33Z</time></trkpt><trkpt lat="33.070589852169064" lon="9.237822504215131"><ele>166.2</ele><time>2026-03-30T11:05:34Z</time></trkpt><trkpt lat="33.07051844979641" lon="9.237901931229556"><ele>167.0</ele><time>2026-03-30T11:05:35Z</time></trkpt><trkpt lat="33.07043486389552" lon="9.237989103804146"><ele>167.0</ele><time>2026-03-30T11:05:36Z</time></trkpt><trkpt lat="33.07035407878222" lon="9.23807458270355"><ele>167.0</ele><time>2026-03-30T11:05:37Z</time></trkpt><trkpt lat="33.07027422033732" lon="9.238163362895744"><ele>167.0</ele><time>2026-03-30T11:05:38Z</time></trkpt><trkpt lat="33.07020163892483" lon="9.238239209611159"><ele>167.0</ele><time>2026-03-30T11:05:39Z</time></trkpt><trkpt lat="33.07012199652817" lon="9.238308405485917"><ele>167.0</ele><time>2026-03-30T11:05:40Z</time></trkpt><trkpt lat="33.07003904713882" lon="9.238383627173352"><ele>166.6</ele><time>2026-03-30T11:05:41Z</time></trkpt><trkpt lat="33.06995683206758" lon="9.238458214483751"><ele>166.2</ele><time>2026-03-30T11:05:42Z</time></trkpt><trkpt lat="33.069877794057064" lon="9.238527279200754"><ele>165.8</ele><time>2026-03-30T11:05:43Z</time></trkpt><trkpt lat="33.06980328936064" lon="9.238606443255753"><ele>165.4</ele><time>2026-03-30T11:05:44Z</time></trkpt><trkpt lat="33.069737362699485" lon="9.238694882861171"><ele>165.0</ele><time>2026-03-30T11:05:45Z</time></trkpt><trkpt lat="33.06966098408317" lon="9.23878115901725"><ele>165.0</ele><time>2026-03-30T11:05:46Z</time></trkpt><trkpt lat="33.0695706234918" lon="9.238862167898535"><ele>165.0</ele><time>2026-03-30T11:05:47Z</time></trkpt><trkpt lat="33.0694729631929" lon="9.238950272876494"><ele>165.0</ele><time>2026-03-30T11:05:48Z</time></trkpt><trkpt lat="33.06938242513788" lon="9.239043067854475"><ele>165.0</ele><time>2026-03-30T11:05:49Z</time></trkpt><trkpt lat="33.069313690830064" lon="9.23912943277373"><ele>165.0</ele><time>2026-03-30T11:05:50Z</time></trkpt><trkpt lat="33.069250532060806" lon="9.239216739474369"><ele>165.0</ele><time>2026-03-30T11:05:51Z</time></trkpt><trkpt lat="33.069189282002235" lon="9.239292193599399"><ele>165.0</ele><time>2026-03-30T11:05:52Z</time></trkpt><trkpt lat="33.06912417587363" lon="9.239355005253326"><ele>165.0</ele><time>2026-03-30T11:05:53Z</time></trkpt><trkpt lat="33.0690509088028" lon="9.239399222171032"><ele>165.0</ele><time>2026-03-30T11:05:54Z</time></trkpt><trkpt lat="33.068958942325395" lon="9.239456630652418"><ele>165.0</ele><time>2026-03-30T11:05:55Z</time></trkpt><trkpt lat="33.068888548662635" lon="9.23952672727174"><ele>165.0</ele><time>2026-03-30T11:05:56Z</time></trkpt><trkpt lat="33.06881806332249" lon="9.239611526445305"><ele>165.0</ele><time>2026-03-30T11:05:57Z</time></trkpt><trkpt lat="33.068763866542994" lon="9.23968756394725"><ele>165.0</ele><time>2026-03-30T11:05:58Z</time></trkpt><trkpt lat="33.0687278302968" lon="9.239751614855221"><ele>165.0</ele><time>2026-03-30T11:05:59Z</time></trkpt><trkpt lat="33.06865198010017" lon="9.239874860743782"><ele>165.0</ele><time>2026-03-30T11:06:01Z</time></trkpt><trkpt lat="33.06860109692327" lon="9.239930695788646"><ele>165.0</ele><time>2026-03-30T11:06:02Z</time></trkpt><trkpt lat="33.06854400049304" lon="9.23999057617961"><ele>165.0</ele><time>2026-03-30T11:06:03Z</time></trkpt><trkpt lat="33.06847396579737" lon="9.240055315470174"><ele>165.0</ele><time>2026-03-30T11:06:04Z</time></trkpt><trkpt lat="33.06839852463441" lon="9.240127965233189"><ele>165.0</ele><time>2026-03-30T11:06:05Z</time></trkpt><trkpt lat="33.06832317448057" lon="9.240212537112619"><ele>165.0</ele><time>2026-03-30T11:06:06Z</time></trkpt><trkpt lat="33.0682562721607" lon="9.24029376786285"><ele>165.2</ele><time>2026-03-30T11:06:07Z</time></trkpt><trkpt lat="33.06818848207697" lon="9.240376485328312"><ele>165.4</ele><time>2026-03-30T11:06:08Z</time></trkpt><trkpt lat="33.06812450030702" lon="9.24045752990808"><ele>165.60000000000002</ele><time>2026-03-30T11:06:09Z</time></trkpt><trkpt lat="33.0680512773211" lon="9.240532270214034"><ele>165.8</ele><time>2026-03-30T11:06:10Z</time></trkpt><trkpt lat="33.067974997945186" lon="9.240592308145747"><ele>166.0</ele><time>2026-03-30T11:06:11Z</time></trkpt><trkpt lat="33.06788815326273" lon="9.240648138102841"><ele>166.0</ele><time>2026-03-30T11:06:12Z</time></trkpt><trkpt lat="33.06779171883505" lon="9.240698589602092"><ele>166.0</ele><time>2026-03-30T11:06:13Z</time></trkpt><trkpt lat="33.06770441394943" lon="9.24074730837281"><ele>166.0</ele><time>2026-03-30T11:06:14Z</time></trkpt><trkpt lat="33.067621762730326" lon="9.240796983602744"><ele>166.0</ele><time>2026-03-30T11:06:15Z</time></trkpt><trkpt lat="33.06753459957679" lon="9.240860577885826"><ele>166.0</ele><time>2026-03-30T11:06:16Z</time></trkpt><trkpt lat="33.067456551125744" lon="9.24093583043876"><ele>166.20000000000002</ele><time>2026-03-30T11:06:17Z</time></trkpt><trkpt lat="33.067397256229306" lon="9.241007783907575"><ele>166.4</ele><time>2026-03-30T11:06:18Z</time></trkpt><trkpt lat="33.06732967086258" lon="9.241071282592946"><ele>166.6</ele><time>2026-03-30T11:06:19Z</time></trkpt><trkpt lat="33.0672500412836" lon="9.241114494551846"><ele>166.8</ele><time>2026-03-30T11:06:20Z</time></trkpt><trkpt lat="33.06715579969128" lon="9.241159033992806"><ele>167.0</ele><time>2026-03-30T11:06:21Z</time></trkpt><trkpt lat="33.06706089135819" lon="9.241205059646157"><ele>167.0</ele><time>2026-03-30T11:06:22Z</time></trkpt><trkpt lat="33.0669634146402" lon="9.241257234491243"><ele>167.0</ele><time>2026-03-30T11:06:23Z</time></trkpt><trkpt lat="33.06686228271249" lon="9.241302141156087"><ele>167.0</ele><time>2026-03-30T11:06:24Z</time></trkpt><trkpt lat="33.06675052546275" lon="9.241341955195118"><ele>167.0</ele><time>2026-03-30T11:06:25Z</time></trkpt><trkpt lat="33.06664479185265" lon="9.2413870084"><ele>167.0</ele><time>2026-03-30T11:06:26Z</time></trkpt><trkpt lat="33.066546210888355" lon="9.241435843203197"><ele>167.2</ele><time>2026-03-30T11:06:27Z</time></trkpt><trkpt lat="33.06645289697763" lon="9.241490597062509"><ele>167.39999999999998</ele><time>2026-03-30T11:06:28Z</time></trkpt><trkpt lat="33.06636074498497" lon="9.241540186364762"><ele>167.60000000000002</ele><time>2026-03-30T11:06:29Z</time></trkpt><trkpt lat="33.0662641071593" lon="9.241580897963914"><ele>167.8</ele><time>2026-03-30T11:06:30Z</time></trkpt><trkpt lat="33.0661673641147" lon="9.2416216917555"><ele>168.0</ele><time>2026-03-30T11:06:31Z</time></trkpt><trkpt lat="33.0660844519302" lon="9.241669935302811"><ele>168.0</ele><time>2026-03-30T11:06:32Z</time></trkpt><trkpt lat="33.0659833378787" lon="9.241704936522188"><ele>168.0</ele><time>2026-03-30T11:06:33Z</time></trkpt><trkpt lat="33.06588633508449" lon="9.241745574378053"><ele>168.0</ele><time>2026-03-30T11:06:34Z</time></trkpt><trkpt lat="33.06578966643635" lon="9.241787664923994"><ele>168.0</ele><time>2026-03-30T11:06:35Z</time></trkpt><trkpt lat="33.06569580518392" lon="9.241825503950421"><ele>168.0</ele><time>2026-03-30T11:06:36Z</time></trkpt><trkpt lat="33.065603843044556" lon="9.241864294902443"><ele>168.0</ele><time>2026-03-30T11:06:37Z</time></trkpt><trkpt lat="33.065510464265" lon="9.24190235174908"><ele>168.0</ele><time>2026-03-30T11:06:38Z</time></trkpt><trkpt lat="33.065424826543484" lon="9.241944645337178"><ele>168.0</ele><time>2026-03-30T11:06:39Z</time></trkpt><trkpt lat="33.06532631860481" lon="9.24199187550141"><ele>168.0</ele><time>2026-03-30T11:06:40Z</time></trkpt><trkpt lat="33.06524148950038" lon="9.242050139231274"><ele>168.0</ele><time>2026-03-30T11:06:41Z</time></trkpt><trkpt lat="33.06516465268883" lon="9.242123649845382"><ele>168.0</ele><time>2026-03-30T11:06:42Z</time></trkpt><trkpt lat="33.06509612433932" lon="9.242202826472122"><ele>168.0</ele><time>2026-03-30T11:06:43Z</time></trkpt><trkpt lat="33.065025317890424" lon="9.242290147869934"><ele>168.0</ele><time>2026-03-30T11:06:44Z</time></trkpt><trkpt lat="33.064960146560644" lon="9.242384704529751"><ele>168.0</ele><time>2026-03-30T11:06:45Z</time></trkpt><trkpt lat="33.064890609552116" lon="9.242479748994567"><ele>168.0</ele><time>2026-03-30T11:06:46Z</time></trkpt><trkpt lat="33.06483027068513" lon="9.24257258699334"><ele>167.60000000000002</ele><time>2026-03-30T11:06:47Z</time></trkpt><trkpt lat="33.06476580959542" lon="9.242677349965552"><ele>167.20000000000002</ele><time>2026-03-30T11:06:48Z</time></trkpt><trkpt lat="33.064706457993395" lon="9.242783863271445"><ele>166.8</ele><time>2026-03-30T11:06:49Z</time></trkpt><trkpt lat="33.06465184398172" lon="9.242898541041667"><ele>166.4</ele><time>2026-03-30T11:06:50Z</time></trkpt><trkpt lat="33.06459713262336" lon="9.243021723589406"><ele>166.0</ele><time>2026-03-30T11:06:51Z</time></trkpt><trkpt lat="33.06454241417665" lon="9.243143159087534"><ele>166.0</ele><time>2026-03-30T11:06:52Z</time></trkpt><trkpt lat="33.06449106910216" lon="9.243260399858228"><ele>166.0</ele><time>2026-03-30T11:06:53Z</time></trkpt><trkpt lat="33.0644333775614" lon="9.243380372786469"><ele>166.0</ele><time>2026-03-30T11:06:54Z</time></trkpt><trkpt lat="33.0643782436524" lon="9.243493474654192"><ele>166.0</ele><time>2026-03-30T11:06:55Z</time></trkpt><trkpt lat="33.06431658411588" lon="9.243596590527046"><ele>166.0</ele><time>2026-03-30T11:06:56Z</time></trkpt><trkpt lat="33.06423934760644" lon="9.243685876497294"><ele>166.0</ele><time>2026-03-30T11:06:57Z</time></trkpt><trkpt lat="33.064169974368" lon="9.243761398967536"><ele>166.0</ele><time>2026-03-30T11:06:58Z</time></trkpt><trkpt lat="33.064104366669966" lon="9.243846776066585"><ele>166.0</ele><time>2026-03-30T11:06:59Z</time></trkpt><trkpt lat="33.064053252196494" lon="9.243946005168798"><ele>166.0</ele><time>2026-03-30T11:07:00Z</time></trkpt><trkpt lat="33.064014945628585" lon="9.244054919781897"><ele>166.0</ele><time>2026-03-30T11:07:01Z</time></trkpt><trkpt lat="33.06398008719056" lon="9.2441922908728"><ele>165.8</ele><time>2026-03-30T11:07:02Z</time></trkpt><trkpt lat="33.06396504500331" lon="9.24432774946484"><ele>165.60000000000002</ele><time>2026-03-30T11:07:03Z</time></trkpt><trkpt lat="33.06394827648782" lon="9.244458211896978"><ele>165.4</ele><time>2026-03-30T11:07:04Z</time></trkpt><trkpt lat="33.06392613323658" lon="9.244588816606683"><ele>165.2</ele><time>2026-03-30T11:07:05Z</time></trkpt><trkpt lat="33.06390275660854" lon="9.244718721417518"><ele>165.0</ele><time>2026-03-30T11:07:06Z</time></trkpt><trkpt lat="33.06387855228081" lon="9.244840625985814"><ele>165.0</ele><time>2026-03-30T11:07:07Z</time></trkpt><trkpt lat="33.06386192004181" lon="9.244951086716862"><ele>165.0</ele><time>2026-03-30T11:07:08Z</time></trkpt><trkpt lat="33.063841124300865" lon="9.24505208083821"><ele>165.0</ele><time>2026-03-30T11:07:09Z</time></trkpt><trkpt lat="33.06381584553098" lon="9.24515282461553"><ele>165.0</ele><time>2026-03-30T11:07:10Z</time></trkpt><trkpt lat="33.06378799473156" lon="9.245260038258417"><ele>165.0</ele><time>2026-03-30T11:07:11Z</time></trkpt><trkpt lat="33.0637564195493" lon="9.24536843664531"><ele>165.0</ele><time>2026-03-30T11:07:12Z</time></trkpt><trkpt lat="33.063734223868025" lon="9.245473225186773"><ele>165.0</ele><time>2026-03-30T11:07:13Z</time></trkpt><trkpt lat="33.06371074125597" lon="9.245597274831225"><ele>165.0</ele><time>2026-03-30T11:07:14Z</time></trkpt><trkpt lat="33.06369328916784" lon="9.245713392029566"><ele>165.0</ele><time>2026-03-30T11:07:15Z</time></trkpt><trkpt lat="33.0636762734478" lon="9.245834825483465"><ele>165.0</ele><time>2026-03-30T11:07:16Z</time></trkpt><trkpt lat="33.06366708550209" lon="9.245972071971831"><ele>165.0</ele><time>2026-03-30T11:07:17Z</time></trkpt><trkpt lat="33.06367072661816" lon="9.246108679215501"><ele>165.0</ele><time>2026-03-30T11:07:18Z</time></trkpt><trkpt lat="33.063675971662" lon="9.246232490413938"><ele>165.0</ele><time>2026-03-30T11:07:19Z</time></trkpt><trkpt lat="33.06368729428291" lon="9.246360472339159"><ele>165.0</ele><time>2026-03-30T11:07:20Z</time></trkpt><trkpt lat="33.063707193770284" lon="9.246499696824866"><ele>165.0</ele><time>2026-03-30T11:07:21Z</time></trkpt><trkpt lat="33.063717791030484" lon="9.246632526429556"><ele>165.0</ele><time>2026-03-30T11:07:22Z</time></trkpt><trkpt lat="33.063711414183395" lon="9.246773350467258"><ele>165.0</ele><time>2026-03-30T11:07:23Z</time></trkpt><trkpt lat="33.06369745820539" lon="9.246926124678598"><ele>165.0</ele><time>2026-03-30T11:07:24Z</time></trkpt><trkpt lat="33.06368471830897" lon="9.247072236255736"><ele>165.0</ele><time>2026-03-30T11:07:25Z</time></trkpt><trkpt lat="33.063670458322385" lon="9.24721640655912"><ele>165.0</ele><time>2026-03-30T11:07:26Z</time></trkpt><trkpt lat="33.063656543146166" lon="9.247359305925055"><ele>165.0</ele><time>2026-03-30T11:07:27Z</time></trkpt><trkpt lat="33.063640526983676" lon="9.247509846592667"><ele>165.0</ele><time>2026-03-30T11:07:28Z</time></trkpt><trkpt lat="33.06362569543652" lon="9.247651813835246"><ele>165.0</ele><time>2026-03-30T11:07:29Z</time></trkpt><trkpt lat="33.06360503082402" lon="9.247798099387515"><ele>165.0</ele><time>2026-03-30T11:07:30Z</time></trkpt><trkpt lat="33.06359210808052" lon="9.247937951746165"><ele>165.0</ele><time>2026-03-30T11:07:31Z</time></trkpt><trkpt lat="33.06357995377914" lon="9.248074864001117"><ele>165.0</ele><time>2026-03-30T11:07:32Z</time></trkpt><trkpt lat="33.06356833728504" lon="9.248208916849238"><ele>165.0</ele><time>2026-03-30T11:07:33Z</time></trkpt><trkpt lat="33.0635558369205" lon="9.248339160835524"><ele>165.4</ele><time>2026-03-30T11:07:34Z</time></trkpt><trkpt lat="33.06354589296979" lon="9.248477111366796"><ele>165.8</ele><time>2026-03-30T11:07:35Z</time></trkpt><trkpt lat="33.06353882003743" lon="9.248610449888151"><ele>166.2</ele><time>2026-03-30T11:07:36Z</time></trkpt><trkpt lat="33.063534319520855" lon="9.248744043998506"><ele>166.6</ele><time>2026-03-30T11:07:37Z</time></trkpt><trkpt lat="33.06352894289066" lon="9.24886906280131"><ele>167.0</ele><time>2026-03-30T11:07:38Z</time></trkpt><trkpt lat="33.06352251271543" lon="9.249003914260065"><ele>167.0</ele><time>2026-03-30T11:07:39Z</time></trkpt><trkpt lat="33.06352764961204" lon="9.249132288054836"><ele>167.0</ele><time>2026-03-30T11:07:40Z</time></trkpt><trkpt lat="33.06352768157098" lon="9.249257260141821"><ele>167.0</ele><time>2026-03-30T11:07:41Z</time></trkpt><trkpt lat="33.06352191082809" lon="9.249383194275088"><ele>167.0</ele><time>2026-03-30T11:07:42Z</time></trkpt><trkpt lat="33.06351859101331" lon="9.249510967437821"><ele>167.0</ele><time>2026-03-30T11:07:43Z</time></trkpt><trkpt lat="33.063511837522796" lon="9.249635634344676"><ele>167.0</ele><time>2026-03-30T11:07:44Z</time></trkpt><trkpt lat="33.06350818880539" lon="9.249763462660994"><ele>167.0</ele><time>2026-03-30T11:07:45Z</time></trkpt><trkpt lat="33.06350725651244" lon="9.24988660774183"><ele>167.0</ele><time>2026-03-30T11:07:46Z</time></trkpt><trkpt lat="33.063497406549466" lon="9.250012354007515"><ele>167.0</ele><time>2026-03-30T11:07:47Z</time></trkpt><trkpt lat="33.06350285316811" lon="9.250129223369965"><ele>167.0</ele><time>2026-03-30T11:07:48Z</time></trkpt><trkpt lat="33.06350751605468" lon="9.250254234088606"><ele>167.0</ele><time>2026-03-30T11:07:49Z</time></trkpt><trkpt lat="33.06350639715907" lon="9.250379503917138"><ele>167.0</ele><time>2026-03-30T11:07:50Z</time></trkpt><trkpt lat="33.06350165247774" lon="9.250510545986648"><ele>167.0</ele><time>2026-03-30T11:07:51Z</time></trkpt><trkpt lat="33.0634968288998" lon="9.250646014298788"><ele>167.0</ele><time>2026-03-30T11:07:52Z</time></trkpt><trkpt lat="33.06349028093912" lon="9.250776119615098"><ele>167.0</ele><time>2026-03-30T11:07:53Z</time></trkpt><trkpt lat="33.06348590886054" lon="9.250901048925533"><ele>166.8</ele><time>2026-03-30T11:07:54Z</time></trkpt><trkpt lat="33.063481630576504" lon="9.251031460278277"><ele>166.6</ele><time>2026-03-30T11:07:55Z</time></trkpt><trkpt lat="33.06347818203296" lon="9.251155917928568"><ele>166.4</ele><time>2026-03-30T11:07:56Z</time></trkpt><trkpt lat="33.06347849051888" lon="9.251277285319782"><ele>166.20000000000002</ele><time>2026-03-30T11:07:57Z</time></trkpt><trkpt lat="33.06347086736356" lon="9.251389601337667"><ele>166.0</ele><time>2026-03-30T11:07:58Z</time></trkpt><trkpt lat="33.06346897689129" lon="9.251498457452259"><ele>165.60000000000002</ele><time>2026-03-30T11:07:59Z</time></trkpt><trkpt lat="33.06346827084025" lon="9.251609914055825"><ele>165.2</ele><time>2026-03-30T11:08:00Z</time></trkpt><trkpt lat="33.06347425048177" lon="9.251730337036147"><ele>164.8</ele><time>2026-03-30T11:08:01Z</time></trkpt><trkpt lat="33.063470724725484" lon="9.251865432242603"><ele>164.39999999999998</ele><time>2026-03-30T11:08:02Z</time></trkpt><trkpt lat="33.0634646309316" lon="9.251988379381674"><ele>164.0</ele><time>2026-03-30T11:08:03Z</time></trkpt><trkpt lat="33.0634593675708" lon="9.252106978640859"><ele>164.0</ele><time>2026-03-30T11:08:04Z</time></trkpt><trkpt lat="33.06345616876432" lon="9.252232493671277"><ele>164.0</ele><time>2026-03-30T11:08:05Z</time></trkpt><trkpt lat="33.063452827761985" lon="9.25236237038186"><ele>164.0</ele><time>2026-03-30T11:08:06Z</time></trkpt><trkpt lat="33.063448532235746" lon="9.252497708860085"><ele>164.0</ele><time>2026-03-30T11:08:07Z</time></trkpt><trkpt lat="33.06344651067109" lon="9.252630706513601"><ele>164.0</ele><time>2026-03-30T11:08:08Z</time></trkpt><trkpt lat="33.06344565140526" lon="9.25274728464315"><ele>164.2</ele><time>2026-03-30T11:08:09Z</time></trkpt><trkpt lat="33.063444720698236" lon="9.252859222985528"><ele>164.39999999999998</ele><time>2026-03-30T11:08:10Z</time></trkpt><trkpt lat="33.063446658475456" lon="9.252976151643171"><ele>164.6</ele><time>2026-03-30T11:08:11Z</time></trkpt><trkpt lat="33.06343962879587" lon="9.253102554317552"><ele>164.8</ele><time>2026-03-30T11:08:12Z</time></trkpt><trkpt lat="33.06343127995601" lon="9.253219623919696"><ele>165.0</ele><time>2026-03-30T11:08:13Z</time></trkpt><trkpt lat="33.063427957402" lon="9.253345916783179"><ele>165.0</ele><time>2026-03-30T11:08:14Z</time></trkpt><trkpt lat="33.06342645429572" lon="9.25349815901502"><ele>165.0</ele><time>2026-03-30T11:08:15Z</time></trkpt><trkpt lat="33.063417828380636" lon="9.25364477775287"><ele>165.0</ele><time>2026-03-30T11:08:16Z</time></trkpt><trkpt lat="33.063411479749895" lon="9.253786240727479"><ele>165.0</ele><time>2026-03-30T11:08:17Z</time></trkpt><trkpt lat="33.063402693245216" lon="9.25391971022298"><ele>165.0</ele><time>2026-03-30T11:08:18Z</time></trkpt><trkpt lat="33.06339485795215" lon="9.254038588193087"><ele>165.0</ele><time>2026-03-30T11:08:19Z</time></trkpt><trkpt lat="33.063386065423174" lon="9.254160839586778"><ele>165.0</ele><time>2026-03-30T11:08:20Z</time></trkpt><trkpt lat="33.06337857743935" lon="9.254276352883563"><ele>165.0</ele><time>2026-03-30T11:08:21Z</time></trkpt><trkpt lat="33.06337370747632" lon="9.254396077814919"><ele>165.0</ele><time>2026-03-30T11:08:22Z</time></trkpt><trkpt lat="33.06336597212707" lon="9.254517324666432"><ele>165.0</ele><time>2026-03-30T11:08:23Z</time></trkpt><trkpt lat="33.063360697527074" lon="9.254638858283162"><ele>165.0</ele><time>2026-03-30T11:08:24Z</time></trkpt><trkpt lat="33.06335610862365" lon="9.254760035437284"><ele>165.0</ele><time>2026-03-30T11:08:25Z</time></trkpt><trkpt lat="33.06334941097319" lon="9.254896392951316"><ele>165.0</ele><time>2026-03-30T11:08:26Z</time></trkpt><trkpt lat="33.06334218424942" lon="9.25501294473037"><ele>165.0</ele><time>2026-03-30T11:08:27Z</time></trkpt><trkpt lat="33.063329934765335" lon="9.255153720685254"><ele>164.8</ele><time>2026-03-30T11:08:28Z</time></trkpt><trkpt lat="33.063316870116594" lon="9.255301227193632"><ele>164.6</ele><time>2026-03-30T11:08:29Z</time></trkpt><trkpt lat="33.06330673499241" lon="9.255430765494456"><ele>164.39999999999998</ele><time>2026-03-30T11:08:30Z</time></trkpt><trkpt lat="33.063302483673475" lon="9.255564063908235"><ele>164.2</ele><time>2026-03-30T11:08:31Z</time></trkpt><trkpt lat="33.06329602659657" lon="9.255687661802297"><ele>164.0</ele><time>2026-03-30T11:08:32Z</time></trkpt><trkpt lat="33.06328255912571" lon="9.255813256966396"><ele>164.2</ele><time>2026-03-30T11:08:33Z</time></trkpt><trkpt lat="33.063270942559996" lon="9.255934944381877"><ele>164.39999999999998</ele><time>2026-03-30T11:08:34Z</time></trkpt><trkpt lat="33.063261659345464" lon="9.256052698208812"><ele>164.6</ele><time>2026-03-30T11:08:35Z</time></trkpt><trkpt lat="33.06325247707828" lon="9.256165665930874"><ele>164.8</ele><time>2026-03-30T11:08:36Z</time></trkpt><trkpt lat="33.06323826878936" lon="9.256286555878553"><ele>165.0</ele><time>2026-03-30T11:08:37Z</time></trkpt><trkpt lat="33.06322747056948" lon="9.25641050339725"><ele>165.4</ele><time>2026-03-30T11:08:38Z</time></trkpt><trkpt lat="33.063227814557806" lon="9.256528811142907"><ele>165.8</ele><time>2026-03-30T11:08:39Z</time></trkpt><trkpt lat="33.06322750030823" lon="9.25664341970511"><ele>166.2</ele><time>2026-03-30T11:08:40Z</time></trkpt><trkpt lat="33.06323028901027" lon="9.256765909796545"><ele>166.6</ele><time>2026-03-30T11:08:41Z</time></trkpt><trkpt lat="33.06322780726185" lon="9.256887607725824"><ele>167.0</ele><time>2026-03-30T11:08:42Z</time></trkpt><trkpt lat="33.06322383685328" lon="9.256998867222448"><ele>167.0</ele><time>2026-03-30T11:08:43Z</time></trkpt><trkpt lat="33.06322211871981" lon="9.257111079753418"><ele>167.0</ele><time>2026-03-30T11:08:44Z</time></trkpt><trkpt lat="33.06322635433427" lon="9.25723141250952"><ele>167.0</ele><time>2026-03-30T11:08:45Z</time></trkpt><trkpt lat="33.063236600792465" lon="9.257337971605534"><ele>167.0</ele><time>2026-03-30T11:08:46Z</time></trkpt><trkpt lat="33.063254240089286" lon="9.257456219926791"><ele>167.0</ele><time>2026-03-30T11:08:47Z</time></trkpt><trkpt lat="33.06326880910353" lon="9.257552728407509"><ele>167.2</ele><time>2026-03-30T11:08:48Z</time></trkpt><trkpt lat="33.063281913905975" lon="9.257660975805237"><ele>167.39999999999998</ele><time>2026-03-30T11:08:49Z</time></trkpt><trkpt lat="33.06328874757258" lon="9.257763901598437"><ele>167.60000000000002</ele><time>2026-03-30T11:08:50Z</time></trkpt><trkpt lat="33.06329111854832" lon="9.2578706118199"><ele>167.8</ele><time>2026-03-30T11:08:51Z</time></trkpt><trkpt lat="33.063299160692374" lon="9.257974583186634"><ele>168.0</ele><time>2026-03-30T11:08:52Z</time></trkpt><trkpt lat="33.06330580341614" lon="9.258097089269208"><ele>168.16666666666666</ele><time>2026-03-30T11:08:53Z</time></trkpt><trkpt lat="33.06330969472179" lon="9.258205478578054"><ele>168.33333333333334</ele><time>2026-03-30T11:08:54Z</time></trkpt><trkpt lat="33.06331962225424" lon="9.258308118435817"><ele>168.5</ele><time>2026-03-30T11:08:55Z</time></trkpt><trkpt lat="33.06332697099952" lon="9.258408996072749"><ele>168.66666666666669</ele><time>2026-03-30T11:08:56Z</time></trkpt><trkpt lat="33.063337783333694" lon="9.258505095600057"><ele>168.83333333333334</ele><time>2026-03-30T11:08:57Z</time></trkpt><trkpt lat="33.063338881103896" lon="9.258629763846942"><ele>169.0</ele><time>2026-03-30T11:08:58Z</time></trkpt><trkpt lat="33.06333671414411" lon="9.258732531140652"><ele>169.0</ele><time>2026-03-30T11:08:59Z</time></trkpt><trkpt lat="33.063347504913025" lon="9.258947688848846"><ele>169.0</ele><time>2026-03-30T11:09:01Z</time></trkpt><trkpt lat="33.063351495917956" lon="9.259051332565315"><ele>169.0</ele><time>2026-03-30T11:09:02Z</time></trkpt><trkpt lat="33.063359247369505" lon="9.259160760558872"><ele>169.0</ele><time>2026-03-30T11:09:03Z</time></trkpt><trkpt lat="33.06337017910144" lon="9.25926462690728"><ele>169.0</ele><time>2026-03-30T11:09:04Z</time></trkpt><trkpt lat="33.06338073606163" lon="9.25938450683898"><ele>169.16666666666669</ele><time>2026-03-30T11:09:05Z</time></trkpt><trkpt lat="33.063390314169986" lon="9.259497266337346"><ele>169.33333333333334</ele><time>2026-03-30T11:09:06Z</time></trkpt><trkpt lat="33.063395305635716" lon="9.25961748127052"><ele>169.5</ele><time>2026-03-30T11:09:07Z</time></trkpt><trkpt lat="33.06339978881718" lon="9.25971611519051"><ele>169.66666666666666</ele><time>2026-03-30T11:09:08Z</time></trkpt><trkpt lat="33.06340568116916" lon="9.259808138049543"><ele>169.83333333333331</ele><time>2026-03-30T11:09:09Z</time></trkpt><trkpt lat="33.06341273206158" lon="9.259906281888473"><ele>170.0</ele><time>2026-03-30T11:09:10Z</time></trkpt><trkpt lat="33.06340829643155" lon="9.260003091569688"><ele>170.0</ele><time>2026-03-30T11:09:11Z</time></trkpt><trkpt lat="33.06340537550261" lon="9.260094957303604"><ele>170.0</ele><time>2026-03-30T11:09:12Z</time></trkpt><trkpt lat="33.0633927709838" lon="9.260188215545304"><ele>170.0</ele><time>2026-03-30T11:09:13Z</time></trkpt><trkpt lat="33.06337831533417" lon="9.260290017232442"><ele>170.0</ele><time>2026-03-30T11:09:14Z</time></trkpt><trkpt lat="33.06337581001582" lon="9.260386318370115"><ele>170.0</ele><time>2026-03-30T11:09:15Z</time></trkpt><trkpt lat="33.06337523998625" lon="9.260486627177077"><ele>170.0</ele><time>2026-03-30T11:09:16Z</time></trkpt><trkpt lat="33.06337917278129" lon="9.260601917690161"><ele>170.4</ele><time>2026-03-30T11:09:17Z</time></trkpt><trkpt lat="33.0633831958739" lon="9.260730910320836"><ele>170.8</ele><time>2026-03-30T11:09:18Z</time></trkpt><trkpt lat="33.06338094072254" lon="9.260862467413743"><ele>171.2</ele><time>2026-03-30T11:09:19Z</time></trkpt><trkpt lat="33.06337886379055" lon="9.260984185615733"><ele>171.6</ele><time>2026-03-30T11:09:20Z</time></trkpt><trkpt lat="33.063373036469066" lon="9.261112736953683"><ele>172.0</ele><time>2026-03-30T11:09:21Z</time></trkpt><trkpt lat="33.06337483161773" lon="9.261250224077445"><ele>172.0</ele><time>2026-03-30T11:09:22Z</time></trkpt><trkpt lat="33.06336246301203" lon="9.26139611249896"><ele>172.0</ele><time>2026-03-30T11:09:23Z</time></trkpt><trkpt lat="33.06334510240221" lon="9.261540778653098"><ele>172.0</ele><time>2026-03-30T11:09:24Z</time></trkpt><trkpt lat="33.06333402964076" lon="9.261682174078008"><ele>172.0</ele><time>2026-03-30T11:09:25Z</time></trkpt><trkpt lat="33.06331392679366" lon="9.261827943776286"><ele>172.0</ele><time>2026-03-30T11:09:26Z</time></trkpt><trkpt lat="33.063297153517574" lon="9.261979593440554"><ele>172.0</ele><time>2026-03-30T11:09:27Z</time></trkpt><trkpt lat="33.06328012041482" lon="9.262131407586592"><ele>172.0</ele><time>2026-03-30T11:09:28Z</time></trkpt><trkpt lat="33.06325930381055" lon="9.262267966284544"><ele>172.0</ele><time>2026-03-30T11:09:29Z</time></trkpt><trkpt lat="33.063247004056244" lon="9.262390812113091"><ele>172.0</ele><time>2026-03-30T11:09:30Z</time></trkpt><trkpt lat="33.063234862458145" lon="9.262502676140144"><ele>172.0</ele><time>2026-03-30T11:09:31Z</time></trkpt><trkpt lat="33.06321773457944" lon="9.262609492834468"><ele>172.0</ele><time>2026-03-30T11:09:32Z</time></trkpt><trkpt lat="33.06319872259119" lon="9.262727601673395"><ele>172.0</ele><time>2026-03-30T11:09:33Z</time></trkpt><trkpt lat="33.063184075252806" lon="9.262838673240502"><ele>172.0</ele><time>2026-03-30T11:09:34Z</time></trkpt><trkpt lat="33.06317132286505" lon="9.26295530306971"><ele>172.0</ele><time>2026-03-30T11:09:35Z</time></trkpt><trkpt lat="33.06315224430324" lon="9.26305729655123"><ele>172.0</ele><time>2026-03-30T11:09:36Z</time></trkpt><trkpt lat="33.06313437433665" lon="9.26315824444644"><ele>172.0</ele><time>2026-03-30T11:09:37Z</time></trkpt><trkpt lat="33.06312194177003" lon="9.263248141391589"><ele>172.0</ele><time>2026-03-30T11:09:38Z</time></trkpt><trkpt lat="33.06310487755053" lon="9.263332613972626"><ele>172.0</ele><time>2026-03-30T11:09:39Z</time></trkpt><trkpt lat="33.06308073088588" lon="9.263416658744173"><ele>172.0</ele><time>2026-03-30T11:09:40Z</time></trkpt><trkpt lat="33.063071622766486" lon="9.26349912033393"><ele>172.0</ele><time>2026-03-30T11:09:41Z</time></trkpt><trkpt lat="33.06306055491372" lon="9.263579361796031"><ele>172.0</ele><time>2026-03-30T11:09:42Z</time></trkpt><trkpt lat="33.063041281410406" lon="9.263721289507428"><ele>172.0</ele><time>2026-03-30T11:09:44Z</time></trkpt><trkpt lat="33.06302835995175" lon="9.263813435680285"><ele>172.0</ele><time>2026-03-30T11:09:45Z</time></trkpt><trkpt lat="33.06301130782494" lon="9.263934127633988"><ele>172.0</ele><time>2026-03-30T11:09:46Z</time></trkpt><trkpt lat="33.06299543239817" lon="9.264039864004797"><ele>172.2</ele><time>2026-03-30T11:09:47Z</time></trkpt><trkpt lat="33.06297976637151" lon="9.264164445641752"><ele>172.39999999999998</ele><time>2026-03-30T11:09:48Z</time></trkpt><trkpt lat="33.062960037176644" lon="9.264298236591777"><ele>172.60000000000002</ele><time>2026-03-30T11:09:49Z</time></trkpt><trkpt lat="33.06293850499118" lon="9.264426362323626"><ele>172.8</ele><time>2026-03-30T11:09:50Z</time></trkpt><trkpt lat="33.062914196552285" lon="9.264559996216288"><ele>173.0</ele><time>2026-03-30T11:09:51Z</time></trkpt><trkpt lat="33.06288617674268" lon="9.264700373253284"><ele>173.0</ele><time>2026-03-30T11:09:52Z</time></trkpt><trkpt lat="33.06285929162597" lon="9.264845004574408"><ele>173.0</ele><time>2026-03-30T11:09:53Z</time></trkpt><trkpt lat="33.06282577613207" lon="9.26499439287099"><ele>173.0</ele><time>2026-03-30T11:09:54Z</time></trkpt><trkpt lat="33.062794141309745" lon="9.265144074091337"><ele>173.0</ele><time>2026-03-30T11:09:55Z</time></trkpt><trkpt lat="33.06276519222214" lon="9.265299057840519"><ele>173.0</ele><time>2026-03-30T11:09:56Z</time></trkpt><trkpt lat="33.06273683335789" lon="9.265454316984938"><ele>173.0</ele><time>2026-03-30T11:09:57Z</time></trkpt><trkpt lat="33.0627076782615" lon="9.265601467529212"><ele>173.0</ele><time>2026-03-30T11:09:58Z</time></trkpt><trkpt lat="33.062677902197095" lon="9.26575560874687"><ele>173.0</ele><time>2026-03-30T11:09:59Z</time></trkpt><trkpt lat="33.062647373540955" lon="9.265911023419221"><ele>172.75</ele><time>2026-03-30T11:10:00Z</time></trkpt><trkpt lat="33.062615323805254" lon="9.266077160081794"><ele>172.5</ele><time>2026-03-30T11:10:01Z</time></trkpt><trkpt lat="33.062587200418754" lon="9.266247991527138"><ele>172.25</ele><time>2026-03-30T11:10:02Z</time></trkpt><trkpt lat="33.06255679773626" lon="9.266412590071166"><ele>172.0</ele><time>2026-03-30T11:10:02.999Z</time></trkpt><trkpt lat="33.06253182738751" lon="9.266578867391491"><ele>171.75</ele><time>2026-03-30T11:10:03.999Z</time></trkpt><trkpt lat="33.06250800676175" lon="9.266738558361993"><ele>171.5</ele><time>2026-03-30T11:10:04.999Z</time></trkpt><trkpt lat="33.06248014198497" lon="9.26690556270723"><ele>171.25</ele><time>2026-03-30T11:10:05.999Z</time></trkpt><trkpt lat="33.0624556297912" lon="9.267095749440324"><ele>171.0</ele><time>2026-03-30T11:10:06.999Z</time></trkpt><trkpt lat="33.06242727187282" lon="9.267291896305222"><ele>171.0</ele><time>2026-03-30T11:10:07.999Z</time></trkpt><trkpt lat="33.06240341694558" lon="9.267514075687199"><ele>171.0</ele><time>2026-03-30T11:10:08.999Z</time></trkpt><trkpt lat="33.06236833291618" lon="9.267746314175897"><ele>171.0</ele><time>2026-03-30T11:10:09.999Z</time></trkpt><trkpt lat="33.06233485820152" lon="9.267996385894874"><ele>171.0</ele><time>2026-03-30T11:10:10.999Z</time></trkpt><trkpt lat="33.06230178341349" lon="9.26823765362524"><ele>171.0</ele><time>2026-03-30T11:10:11.999Z</time></trkpt><trkpt lat="33.06226804557905" lon="9.268513493098324"><ele>171.0</ele><time>2026-03-30T11:10:12.999Z</time></trkpt><trkpt lat="33.062236985595945" lon="9.26879667005926"><ele>171.66666666666666</ele><time>2026-03-30T11:10:13.999Z</time></trkpt><trkpt lat="33.06220734498986" lon="9.26904019345722"><ele>172.33333333333331</ele><time>2026-03-30T11:10:14.999Z</time></trkpt><trkpt lat="33.06217490238772" lon="9.269274159187917"><ele>173.0</ele><time>2026-03-30T11:10:15.999Z</time></trkpt><trkpt lat="33.06215002151148" lon="9.269496605719839"><ele>173.0</ele><time>2026-03-30T11:10:16.999Z</time></trkpt><trkpt lat="33.062132327187356" lon="9.269710700853466"><ele>173.0</ele><time>2026-03-30T11:10:17.999Z</time></trkpt><trkpt lat="33.06211897252193" lon="9.269898501236502"><ele>173.0</ele><time>2026-03-30T11:10:19Z</time></trkpt><trkpt lat="33.06209665324116" lon="9.270108740296607"><ele>173.33333333333331</ele><time>2026-03-30T11:10:20Z</time></trkpt><trkpt lat="33.06207354868942" lon="9.270309194543552"><ele>173.66666666666666</ele><time>2026-03-30T11:10:21Z</time></trkpt><trkpt lat="33.062047205157334" lon="9.270503220117854"><ele>174.0</ele><time>2026-03-30T11:10:22Z</time></trkpt><trkpt lat="33.06202995346953" lon="9.270685253788958"><ele>174.33333333333334</ele><time>2026-03-30T11:10:23Z</time></trkpt><trkpt lat="33.06201326806306" lon="9.270865987901024"><ele>174.66666666666669</ele><time>2026-03-30T11:10:24Z</time></trkpt><trkpt lat="33.06199238394791" lon="9.271044882844462"><ele>175.0</ele><time>2026-03-30T11:10:25Z</time></trkpt><trkpt lat="33.06197080796163" lon="9.271233186030257"><ele>175.0</ele><time>2026-03-30T11:10:26Z</time></trkpt><trkpt lat="33.061943652822286" lon="9.271411666599517"><ele>175.0</ele><time>2026-03-30T11:10:27Z</time></trkpt><trkpt lat="33.06192658852211" lon="9.271588414612836"><ele>175.0</ele><time>2026-03-30T11:10:28Z</time></trkpt><trkpt lat="33.06191044202687" lon="9.271780756065334"><ele>175.0</ele><time>2026-03-30T11:10:29Z</time></trkpt><trkpt lat="33.06189184891629" lon="9.271981472569962"><ele>175.0</ele><time>2026-03-30T11:10:30Z</time></trkpt><trkpt lat="33.061871167628425" lon="9.272196769913394"><ele>175.0</ele><time>2026-03-30T11:10:31Z</time></trkpt><trkpt lat="33.06185387527662" lon="9.272389286137278"><ele>174.33333333333334</ele><time>2026-03-30T11:10:32Z</time></trkpt><trkpt lat="33.06184012337707" lon="9.272580743812275"><ele>173.66666666666666</ele><time>2026-03-30T11:10:33Z</time></trkpt><trkpt lat="33.06182207844242" lon="9.272770099167229"><ele>173.0</ele><time>2026-03-30T11:10:34Z</time></trkpt><trkpt lat="33.06180074021255" lon="9.272945557204961"><ele>173.33333333333331</ele><time>2026-03-30T11:10:35Z</time></trkpt><trkpt lat="33.06178610266936" lon="9.273152054296599"><ele>173.66666666666666</ele><time>2026-03-30T11:10:36Z</time></trkpt><trkpt lat="33.061764752295886" lon="9.273371582519587"><ele>174.0</ele><time>2026-03-30T11:10:37Z</time></trkpt><trkpt lat="33.06175090954135" lon="9.27360643149207"><ele>174.0</ele><time>2026-03-30T11:10:38Z</time></trkpt><trkpt lat="33.061732441949225" lon="9.273804888686438"><ele>174.0</ele><time>2026-03-30T11:10:39Z</time></trkpt><trkpt lat="33.061713421493714" lon="9.274021673516124"><ele>174.0</ele><time>2026-03-30T11:10:40Z</time></trkpt><trkpt lat="33.06168662993002" lon="9.274210791543455"><ele>174.0</ele><time>2026-03-30T11:10:41Z</time></trkpt><trkpt lat="33.061655129147375" lon="9.274412835852782"><ele>174.0</ele><time>2026-03-30T11:10:42Z</time></trkpt><trkpt lat="33.061623817666096" lon="9.274609756765765"><ele>174.0</ele><time>2026-03-30T11:10:43Z</time></trkpt><trkpt lat="33.06159339388656" lon="9.274823452091523"><ele>174.0</ele><time>2026-03-30T11:10:44Z</time></trkpt><trkpt lat="33.06157264305577" lon="9.275021086343278"><ele>174.0</ele><time>2026-03-30T11:10:45Z</time></trkpt><trkpt lat="33.0615605026903" lon="9.275210324182204"><ele>174.0</ele><time>2026-03-30T11:10:46Z</time></trkpt><trkpt lat="33.06154891316981" lon="9.27542310336191"><ele>173.66666666666666</ele><time>2026-03-30T11:10:47Z</time></trkpt><trkpt lat="33.06153894678401" lon="9.275652911257984"><ele>173.33333333333331</ele><time>2026-03-30T11:10:48Z</time></trkpt><trkpt lat="33.06153119284978" lon="9.27585805928347"><ele>173.0</ele><time>2026-03-30T11:10:49Z</time></trkpt><trkpt lat="33.06152269623873" lon="9.276045633303069"><ele>173.0</ele><time>2026-03-30T11:10:50Z</time></trkpt><trkpt lat="33.061516234636954" lon="9.276234061868816"><ele>173.0</ele><time>2026-03-30T11:10:51Z</time></trkpt><trkpt lat="33.06151157272151" lon="9.276408313603667"><ele>173.0</ele><time>2026-03-30T11:10:52Z</time></trkpt><trkpt lat="33.06150623805278" lon="9.27658919590239"><ele>173.0</ele><time>2026-03-30T11:10:53Z</time></trkpt><trkpt lat="33.06150151440927" lon="9.276769143787348"><ele>173.0</ele><time>2026-03-30T11:10:54Z</time></trkpt><trkpt lat="33.06150072779351" lon="9.276946576795432"><ele>173.0</ele><time>2026-03-30T11:10:55Z</time></trkpt><trkpt lat="33.06149605751348" lon="9.277124815162304"><ele>173.0</ele><time>2026-03-30T11:10:56Z</time></trkpt><trkpt lat="33.06149195653836" lon="9.277317166928244"><ele>173.0</ele><time>2026-03-30T11:10:57Z</time></trkpt><trkpt lat="33.06148666302798" lon="9.277487993579996"><ele>173.0</ele><time>2026-03-30T11:10:58Z</time></trkpt><trkpt lat="33.061484349131355" lon="9.27763119272759"><ele>173.0</ele><time>2026-03-30T11:10:59Z</time></trkpt><trkpt lat="33.06148368160668" lon="9.277770904714863"><ele>173.0</ele><time>2026-03-30T11:11:00Z</time></trkpt><trkpt lat="33.061482229941106" lon="9.277908616595916"><ele>173.0</ele><time>2026-03-30T11:11:01Z</time></trkpt><trkpt lat="33.06147892967358" lon="9.278052983258378"><ele>173.0</ele><time>2026-03-30T11:11:02Z</time></trkpt><trkpt lat="33.061470122126046" lon="9.278189608790136"><ele>173.0</ele><time>2026-03-30T11:11:03Z</time></trkpt><trkpt lat="33.06145510149026" lon="9.278337869862735"><ele>173.0</ele><time>2026-03-30T11:11:04Z</time></trkpt><trkpt lat="33.06144012466013" lon="9.278472446947395"><ele>173.0</ele><time>2026-03-30T11:11:05Z</time></trkpt><trkpt lat="33.061426317770774" lon="9.278594066916968"><ele>173.0</ele><time>2026-03-30T11:11:06Z</time></trkpt><trkpt lat="33.06141755417366" lon="9.278714640466495"><ele>173.0</ele><time>2026-03-30T11:11:07Z</time></trkpt><trkpt lat="33.06142173086296" lon="9.278829231356541"><ele>173.0</ele><time>2026-03-30T11:11:08Z</time></trkpt><trkpt lat="33.06142899776017" lon="9.278932057333925"><ele>173.0</ele><time>2026-03-30T11:11:09Z</time></trkpt><trkpt lat="33.061441396807574" lon="9.27902868262341"><ele>173.0</ele><time>2026-03-30T11:11:10Z</time></trkpt><trkpt lat="33.06145372211335" lon="9.279146965141416"><ele>173.0</ele><time>2026-03-30T11:11:11Z</time></trkpt><trkpt lat="33.061462944517835" lon="9.279287071222758"><ele>173.0</ele><time>2026-03-30T11:11:12Z</time></trkpt><trkpt lat="33.061463663664476" lon="9.279453654217596"><ele>173.0</ele><time>2026-03-30T11:11:13Z</time></trkpt><trkpt lat="33.06145909215681" lon="9.279638375240056"><ele>172.66666666666666</ele><time>2026-03-30T11:11:14Z</time></trkpt><trkpt lat="33.06144818057873" lon="9.279831113011012"><ele>172.33333333333334</ele><time>2026-03-30T11:11:15Z</time></trkpt><trkpt lat="33.06143152313691" lon="9.280048208850303"><ele>172.0</ele><time>2026-03-30T11:11:16Z</time></trkpt><trkpt lat="33.06141533942299" lon="9.280266855965486"><ele>172.0</ele><time>2026-03-30T11:11:17Z</time></trkpt><trkpt lat="33.06139842973766" lon="9.280481911723568"><ele>172.0</ele><time>2026-03-30T11:11:18Z</time></trkpt><trkpt lat="33.0613847513837" lon="9.280667553152117"><ele>172.0</ele><time>2026-03-30T11:11:19Z</time></trkpt><trkpt lat="33.06137468230068" lon="9.280840994404556"><ele>172.25</ele><time>2026-03-30T11:11:20Z</time></trkpt><trkpt lat="33.06136367758933" lon="9.28102145084616"><ele>172.5</ele><time>2026-03-30T11:11:21Z</time></trkpt><trkpt lat="33.06135719743574" lon="9.281204369522863"><ele>172.75</ele><time>2026-03-30T11:11:22Z</time></trkpt><trkpt lat="33.061354674482864" lon="9.281367058768833"><ele>173.0</ele><time>2026-03-30T11:11:23Z</time></trkpt><trkpt lat="33.061355351485275" lon="9.281521879065917"><ele>173.0</ele><time>2026-03-30T11:11:24Z</time></trkpt><trkpt lat="33.061347429016394" lon="9.281675061125929"><ele>173.0</ele><time>2026-03-30T11:11:25Z</time></trkpt><trkpt lat="33.061330321054534" lon="9.281836385001037"><ele>173.0</ele><time>2026-03-30T11:11:26Z</time></trkpt><trkpt lat="33.061311108164624" lon="9.282010595973068"><ele>173.0</ele><time>2026-03-30T11:11:27Z</time></trkpt><trkpt lat="33.06128870219147" lon="9.282180561016176"><ele>173.0</ele><time>2026-03-30T11:11:28Z</time></trkpt><trkpt lat="33.061278737300384" lon="9.282364683378546"><ele>173.0</ele><time>2026-03-30T11:11:29Z</time></trkpt><trkpt lat="33.06127692388053" lon="9.282548585472647"><ele>173.0</ele><time>2026-03-30T11:11:30Z</time></trkpt><trkpt lat="33.061279585832224" lon="9.282707966150122"><ele>173.0</ele><time>2026-03-30T11:11:31Z</time></trkpt><trkpt lat="33.061262016269524" lon="9.282876143109153"><ele>173.0</ele><time>2026-03-30T11:11:32Z</time></trkpt><trkpt lat="33.061234477672414" lon="9.283043092976804"><ele>173.0</ele><time>2026-03-30T11:11:33Z</time></trkpt><trkpt lat="33.06119975105424" lon="9.283224503977742"><ele>173.0</ele><time>2026-03-30T11:11:34Z</time></trkpt><trkpt lat="33.06116405454141" lon="9.28340433762979"><ele>173.0</ele><time>2026-03-30T11:11:35Z</time></trkpt><trkpt lat="33.06113035957842" lon="9.283578074435075"><ele>173.0</ele><time>2026-03-30T11:11:36Z</time></trkpt><trkpt lat="33.06109561719015" lon="9.28375915941461"><ele>173.0</ele><time>2026-03-30T11:11:37Z</time></trkpt><trkpt lat="33.06106402649203" lon="9.283924359929767"><ele>173.0</ele><time>2026-03-30T11:11:38Z</time></trkpt><trkpt lat="33.06104014867513" lon="9.284090154725595"><ele>173.25</ele><time>2026-03-30T11:11:39Z</time></trkpt><trkpt lat="33.06102466646199" lon="9.284249488408403"><ele>173.5</ele><time>2026-03-30T11:11:40Z</time></trkpt><trkpt lat="33.06100751928258" lon="9.284412229024525"><ele>173.75</ele><time>2026-03-30T11:11:41Z</time></trkpt><trkpt lat="33.06099766618476" lon="9.284573515636602"><ele>174.0</ele><time>2026-03-30T11:11:42Z</time></trkpt><trkpt lat="33.06099020020857" lon="9.284751438641374"><ele>174.66666666666666</ele><time>2026-03-30T11:11:43Z</time></trkpt><trkpt lat="33.06098247865887" lon="9.284934803856201"><ele>175.33333333333331</ele><time>2026-03-30T11:11:44Z</time></trkpt><trkpt lat="33.06097465017903" lon="9.28512490260709"><ele>176.0</ele><time>2026-03-30T11:11:45Z</time></trkpt><trkpt lat="33.0609628721283" lon="9.285331016921162"><ele>176.0</ele><time>2026-03-30T11:11:46Z</time></trkpt><trkpt lat="33.06095529308465" lon="9.285524142978636"><ele>176.0</ele><time>2026-03-30T11:11:47Z</time></trkpt><trkpt lat="33.06094509233575" lon="9.2857236267048"><ele>176.0</ele><time>2026-03-30T11:11:48Z</time></trkpt><trkpt lat="33.06094317704599" lon="9.285906314372577"><ele>176.0</ele><time>2026-03-30T11:11:49Z</time></trkpt><trkpt lat="33.060931973472286" lon="9.28608257646577"><ele>176.0</ele><time>2026-03-30T11:11:50Z</time></trkpt><trkpt lat="33.06092251830538" lon="9.286250126447715"><ele>176.0</ele><time>2026-03-30T11:11:51Z</time></trkpt><trkpt lat="33.06090883423418" lon="9.286438437123584"><ele>176.0</ele><time>2026-03-30T11:11:52Z</time></trkpt><trkpt lat="33.06090179712896" lon="9.286616778479283"><ele>176.0</ele><time>2026-03-30T11:11:53Z</time></trkpt><trkpt lat="33.06089666084434" lon="9.286797153322262"><ele>176.0</ele><time>2026-03-30T11:11:54Z</time></trkpt><trkpt lat="33.06089234222478" lon="9.286988572665871"><ele>176.0</ele><time>2026-03-30T11:11:55Z</time></trkpt><trkpt lat="33.06089635086587" lon="9.287163008477702"><ele>176.25</ele><time>2026-03-30T11:11:56Z</time></trkpt><trkpt lat="33.06090586872091" lon="9.287332715823723"><ele>176.5</ele><time>2026-03-30T11:11:57Z</time></trkpt><trkpt lat="33.06091766360504" lon="9.287499934796628"><ele>176.75</ele><time>2026-03-30T11:11:58Z</time></trkpt><trkpt lat="33.06093875696253" lon="9.287669286594015"><ele>177.0</ele><time>2026-03-30T11:11:59Z</time></trkpt><trkpt lat="33.060956770841415" lon="9.287827625656828"><ele>177.0</ele><time>2026-03-30T11:12:00Z</time></trkpt><trkpt lat="33.060969280078126" lon="9.287991407350981"><ele>177.0</ele><time>2026-03-30T11:12:01Z</time></trkpt><trkpt lat="33.06097551394545" lon="9.288159047665259"><ele>177.0</ele><time>2026-03-30T11:12:02Z</time></trkpt><trkpt lat="33.060974799793" lon="9.288344399233125"><ele>177.0</ele><time>2026-03-30T11:12:03Z</time></trkpt><trkpt lat="33.060972963769714" lon="9.288542633015679"><ele>177.33333333333334</ele><time>2026-03-30T11:12:04Z</time></trkpt><trkpt lat="33.06097050584537" lon="9.288729648264805"><ele>177.66666666666669</ele><time>2026-03-30T11:12:05Z</time></trkpt><trkpt lat="33.06097323600315" lon="9.288913673985878"><ele>178.0</ele><time>2026-03-30T11:12:06Z</time></trkpt><trkpt lat="33.060974397027415" lon="9.289091784803245"><ele>178.0</ele><time>2026-03-30T11:12:07Z</time></trkpt><trkpt lat="33.06097386316306" lon="9.28928325194045"><ele>178.0</ele><time>2026-03-30T11:12:08Z</time></trkpt><trkpt lat="33.06098014965343" lon="9.289469828776145"><ele>178.0</ele><time>2026-03-30T11:12:09Z</time></trkpt><trkpt lat="33.06098696311569" lon="9.28965130432235"><ele>178.25</ele><time>2026-03-30T11:12:10Z</time></trkpt><trkpt lat="33.06099339319627" lon="9.289841291362642"><ele>178.5</ele><time>2026-03-30T11:12:11Z</time></trkpt><trkpt lat="33.061004795946886" lon="9.290019440410134"><ele>178.75</ele><time>2026-03-30T11:12:12Z</time></trkpt><trkpt lat="33.061016105428145" lon="9.290180281770184"><ele>179.0</ele><time>2026-03-30T11:12:13Z</time></trkpt><trkpt lat="33.06103324950927" lon="9.290320966481305"><ele>179.0</ele><time>2026-03-30T11:12:14Z</time></trkpt><trkpt lat="33.06104311592429" lon="9.290442196983646"><ele>179.0</ele><time>2026-03-30T11:12:15Z</time></trkpt><trkpt lat="33.061045364570916" lon="9.290577995066556"><ele>179.0</ele><time>2026-03-30T11:12:16Z</time></trkpt><trkpt lat="33.06104493786823" lon="9.29072639780665"><ele>179.0</ele><time>2026-03-30T11:12:17Z</time></trkpt><trkpt lat="33.06105210626874" lon="9.290870834232484"><ele>179.0</ele><time>2026-03-30T11:12:18Z</time></trkpt><trkpt lat="33.06106898968745" lon="9.291013480285578"><ele>179.0</ele><time>2026-03-30T11:12:19Z</time></trkpt><trkpt lat="33.06109530571446" lon="9.291159196890288"><ele>179.0</ele><time>2026-03-30T11:12:20Z</time></trkpt><trkpt lat="33.06111127996968" lon="9.29129450995382"><ele>179.0</ele><time>2026-03-30T11:12:21Z</time></trkpt><trkpt lat="33.06111329832324" lon="9.291430336363417"><ele>178.5</ele><time>2026-03-30T11:12:22Z</time></trkpt><trkpt lat="33.061110606577856" lon="9.291574589083051"><ele>178.0</ele><time>2026-03-30T11:12:23Z</time></trkpt><trkpt lat="33.06111444041131" lon="9.291719682119009"><ele>177.5</ele><time>2026-03-30T11:12:24Z</time></trkpt><trkpt lat="33.061126504293696" lon="9.291851632283944"><ele>177.0</ele><time>2026-03-30T11:12:25Z</time></trkpt><trkpt lat="33.061151153828746" lon="9.291973705673842"><ele>177.0</ele><time>2026-03-30T11:12:26Z</time></trkpt><trkpt lat="33.06118721907575" lon="9.292095536161616"><ele>177.0</ele><time>2026-03-30T11:12:27Z</time></trkpt><trkpt lat="33.061210569850445" lon="9.292223535298223"><ele>177.0</ele><time>2026-03-30T11:12:28Z</time></trkpt><trkpt lat="33.061202830522" lon="9.29236321014494"><ele>177.0</ele><time>2026-03-30T11:12:29Z</time></trkpt><trkpt lat="33.06118692967954" lon="9.292505444743806"><ele>177.0</ele><time>2026-03-30T11:12:30Z</time></trkpt><trkpt lat="33.061167166840505" lon="9.292631901368667"><ele>177.0</ele><time>2026-03-30T11:12:31Z</time></trkpt><trkpt lat="33.06116505301958" lon="9.292761368251252"><ele>177.0</ele><time>2026-03-30T11:12:32Z</time></trkpt><trkpt lat="33.06118102436693" lon="9.29288917938056"><ele>177.0</ele><time>2026-03-30T11:12:33Z</time></trkpt><trkpt lat="33.06119965926551" lon="9.293029868205506"><ele>177.0</ele><time>2026-03-30T11:12:34Z</time></trkpt><trkpt lat="33.06120214759166" lon="9.293168432751028"><ele>177.0</ele><time>2026-03-30T11:12:35Z</time></trkpt><trkpt lat="33.06121642819611" lon="9.293301008991683"><ele>177.0</ele><time>2026-03-30T11:12:36Z</time></trkpt><trkpt lat="33.061246658686976" lon="9.293453447176402"><ele>177.0</ele><time>2026-03-30T11:12:37Z</time></trkpt><trkpt lat="33.06126009471587" lon="9.293617360967101"><ele>177.0</ele><time>2026-03-30T11:12:38Z</time></trkpt><trkpt lat="33.06124122333289" lon="9.293803415069538"><ele>176.66666666666666</ele><time>2026-03-30T11:12:39Z</time></trkpt><trkpt lat="33.06120826556642" lon="9.29399645436389"><ele>176.33333333333331</ele><time>2026-03-30T11:12:40Z</time></trkpt><trkpt lat="33.06118324830749" lon="9.294181049243518"><ele>176.0</ele><time>2026-03-30T11:12:41Z</time></trkpt><trkpt lat="33.06116997890633" lon="9.29434570418277"><ele>176.0</ele><time>2026-03-30T11:12:42Z</time></trkpt><trkpt lat="33.06115718975173" lon="9.2945082653025"><ele>176.0</ele><time>2026-03-30T11:12:43Z</time></trkpt><trkpt lat="33.06113038259707" lon="9.294669488710236"><ele>176.0</ele><time>2026-03-30T11:12:44Z</time></trkpt><trkpt lat="33.061092217654654" lon="9.294833643347564"><ele>176.0</ele><time>2026-03-30T11:12:45Z</time></trkpt><trkpt lat="33.061049100356485" lon="9.294980263134569"><ele>176.0</ele><time>2026-03-30T11:12:46Z</time></trkpt><trkpt lat="33.06100996774255" lon="9.295108483240453"><ele>176.0</ele><time>2026-03-30T11:12:47Z</time></trkpt><trkpt lat="33.06097450346777" lon="9.295244369598956"><ele>176.0</ele><time>2026-03-30T11:12:48Z</time></trkpt><trkpt lat="33.060932733041454" lon="9.295381268376184"><ele>176.0</ele><time>2026-03-30T11:12:49Z</time></trkpt><trkpt lat="33.060899623744554" lon="9.295528174959317"><ele>175.4</ele><time>2026-03-30T11:12:50Z</time></trkpt><trkpt lat="33.06088303781823" lon="9.295673235847756"><ele>174.8</ele><time>2026-03-30T11:12:51Z</time></trkpt><trkpt lat="33.060876659848525" lon="9.295806669822015"><ele>174.20000000000002</ele><time>2026-03-30T11:12:52Z</time></trkpt><trkpt lat="33.060865693193804" lon="9.295923994591877"><ele>173.60000000000002</ele><time>2026-03-30T11:12:53Z</time></trkpt><trkpt lat="33.060851056838224" lon="9.296028353673762"><ele>173.0</ele><time>2026-03-30T11:12:54Z</time></trkpt><trkpt lat="33.06084823853235" lon="9.29614820724143"><ele>173.0</ele><time>2026-03-30T11:12:55Z</time></trkpt><trkpt lat="33.06085557643994" lon="9.296269887581783"><ele>173.0</ele><time>2026-03-30T11:12:56Z</time></trkpt><trkpt lat="33.060864634523924" lon="9.296400766021117"><ele>173.0</ele><time>2026-03-30T11:12:57Z</time></trkpt><trkpt lat="33.06087077834022" lon="9.296526211704814"><ele>173.0</ele><time>2026-03-30T11:12:58Z</time></trkpt><trkpt lat="33.0608748386232" lon="9.296631159618057"><ele>173.0</ele><time>2026-03-30T11:12:59Z</time></trkpt><trkpt lat="33.06085079584949" lon="9.296743943705712"><ele>172.75</ele><time>2026-03-30T11:13:00Z</time></trkpt><trkpt lat="33.060829587536865" lon="9.296872841328867"><ele>172.5</ele><time>2026-03-30T11:13:01Z</time></trkpt><trkpt lat="33.06081621775332" lon="9.297003113237748"><ele>172.25</ele><time>2026-03-30T11:13:02Z</time></trkpt><trkpt lat="33.06081284855765" lon="9.297146888503933"><ele>172.0</ele><time>2026-03-30T11:13:03Z</time></trkpt><trkpt lat="33.06081177655105" lon="9.297296067166258"><ele>172.0</ele><time>2026-03-30T11:13:04Z</time></trkpt><trkpt lat="33.060807936901746" lon="9.297470112999877"><ele>172.0</ele><time>2026-03-30T11:13:05Z</time></trkpt><trkpt lat="33.060809955267835" lon="9.2976458894763"><ele>172.0</ele><time>2026-03-30T11:13:06Z</time></trkpt><trkpt lat="33.060823179972395" lon="9.297808004920984"><ele>172.0</ele><time>2026-03-30T11:13:07Z</time></trkpt><trkpt lat="33.06084087939632" lon="9.297982884550144"><ele>171.75</ele><time>2026-03-30T11:13:08Z</time></trkpt><trkpt lat="33.06086112568574" lon="9.298141990408228"><ele>171.5</ele><time>2026-03-30T11:13:09Z</time></trkpt><trkpt lat="33.06087588481673" lon="9.298314382471805"><ele>171.25</ele><time>2026-03-30T11:13:10Z</time></trkpt><trkpt lat="33.06088971888024" lon="9.298484532224249"><ele>171.0</ele><time>2026-03-30T11:13:11Z</time></trkpt><trkpt lat="33.06090398043551" lon="9.298648132005559"><ele>171.0</ele><time>2026-03-30T11:13:12Z</time></trkpt><trkpt lat="33.060914200601545" lon="9.29881356091711"><ele>171.0</ele><time>2026-03-30T11:13:13Z</time></trkpt><trkpt lat="33.06093381498722" lon="9.298964733126917"><ele>171.0</ele><time>2026-03-30T11:13:14Z</time></trkpt><trkpt lat="33.060969733873854" lon="9.299134189061215"><ele>171.0</ele><time>2026-03-30T11:13:15Z</time></trkpt><trkpt lat="33.06102677391056" lon="9.29931709604469"><ele>171.25</ele><time>2026-03-30T11:13:16Z</time></trkpt><trkpt lat="33.06107987400376" lon="9.299468341351655"><ele>171.5</ele><time>2026-03-30T11:13:17Z</time></trkpt><trkpt lat="33.06112689323007" lon="9.299618670725566"><ele>171.75</ele><time>2026-03-30T11:13:18Z</time></trkpt><trkpt lat="33.06115904525046" lon="9.299777416404867"><ele>172.0</ele><time>2026-03-30T11:13:19Z</time></trkpt><trkpt lat="33.06119717814343" lon="9.29993435255311"><ele>172.25</ele><time>2026-03-30T11:13:20Z</time></trkpt><trkpt lat="33.06122749226932" lon="9.300079801671012"><ele>172.5</ele><time>2026-03-30T11:13:21Z</time></trkpt><trkpt lat="33.06126154587556" lon="9.300227850361493"><ele>172.75</ele><time>2026-03-30T11:13:22Z</time></trkpt><trkpt lat="33.06129631411587" lon="9.30037819841699"><ele>173.0</ele><time>2026-03-30T11:13:23Z</time></trkpt><trkpt lat="33.061332713016654" lon="9.300538477721522"><ele>173.0</ele><time>2026-03-30T11:13:24Z</time></trkpt><trkpt lat="33.06136125466983" lon="9.300682278473518"><ele>173.0</ele><time>2026-03-30T11:13:25Z</time></trkpt><trkpt lat="33.061381794788076" lon="9.300827073864768"><ele>173.0</ele><time>2026-03-30T11:13:26Z</time></trkpt><trkpt lat="33.061398829136905" lon="9.300983889261223"><ele>173.0</ele><time>2026-03-30T11:13:27Z</time></trkpt><trkpt lat="33.06141096048077" lon="9.301159703205022"><ele>173.0</ele><time>2026-03-30T11:13:28Z</time></trkpt><trkpt lat="33.06141649629299" lon="9.301328044713713"><ele>173.0</ele><time>2026-03-30T11:13:29Z</time></trkpt><trkpt lat="33.06141425719816" lon="9.301488329266304"><ele>173.0</ele><time>2026-03-30T11:13:30Z</time></trkpt><trkpt lat="33.06141411572267" lon="9.30165960609733"><ele>173.0</ele><time>2026-03-30T11:13:31Z</time></trkpt><trkpt lat="33.06141897932082" lon="9.30183751730354"><ele>173.33333333333331</ele><time>2026-03-30T11:13:32Z</time></trkpt><trkpt lat="33.06142332377826" lon="9.302020996359083"><ele>173.66666666666666</ele><time>2026-03-30T11:13:33Z</time></trkpt><trkpt lat="33.06143022560334" lon="9.302205887993924"><ele>174.0</ele><time>2026-03-30T11:13:34Z</time></trkpt><trkpt lat="33.061434765852624" lon="9.302396313706753"><ele>174.0</ele><time>2026-03-30T11:13:35Z</time></trkpt><trkpt lat="33.061437176847654" lon="9.302573259584415"><ele>174.0</ele><time>2026-03-30T11:13:36Z</time></trkpt><trkpt lat="33.06143939525978" lon="9.302749155876883"><ele>174.0</ele><time>2026-03-30T11:13:37Z</time></trkpt><trkpt lat="33.061451859522215" lon="9.302930150382767"><ele>174.0</ele><time>2026-03-30T11:13:38Z</time></trkpt><trkpt lat="33.06145735663886" lon="9.303143552056147"><ele>174.0</ele><time>2026-03-30T11:13:39Z</time></trkpt><trkpt lat="33.06145605826329" lon="9.30334792281724"><ele>174.0</ele><time>2026-03-30T11:13:40Z</time></trkpt><trkpt lat="33.06145340298925" lon="9.303536203606823"><ele>174.0</ele><time>2026-03-30T11:13:41Z</time></trkpt><trkpt lat="33.06144994530883" lon="9.303718703040783"><ele>174.0</ele><time>2026-03-30T11:13:42Z</time></trkpt><trkpt lat="33.061449421382456" lon="9.303916841630128"><ele>174.0</ele><time>2026-03-30T11:13:43Z</time></trkpt><trkpt lat="33.061450122980325" lon="9.304101740522837"><ele>174.0</ele><time>2026-03-30T11:13:44Z</time></trkpt><trkpt lat="33.06145071254336" lon="9.304298705469842"><ele>174.0</ele><time>2026-03-30T11:13:45Z</time></trkpt><trkpt lat="33.061452618043" lon="9.304485530646392"><ele>174.0</ele><time>2026-03-30T11:13:46Z</time></trkpt><trkpt lat="33.06145796772174" lon="9.304650398532962"><ele>174.0</ele><time>2026-03-30T11:13:47Z</time></trkpt><trkpt lat="33.06146525657746" lon="9.304803777490958"><ele>174.0</ele><time>2026-03-30T11:13:48Z</time></trkpt><trkpt lat="33.06147167030303" lon="9.304940799160276"><ele>173.75</ele><time>2026-03-30T11:13:49Z</time></trkpt><trkpt lat="33.06147653618582" lon="9.305085810223146"><ele>173.5</ele><time>2026-03-30T11:13:50Z</time></trkpt><trkpt lat="33.061471310919345" lon="9.305228648937668"><ele>173.25</ele><time>2026-03-30T11:13:51Z</time></trkpt><trkpt lat="33.061451418949865" lon="9.305374873651363"><ele>173.0</ele><time>2026-03-30T11:13:52Z</time></trkpt><trkpt lat="33.06141397778107" lon="9.30553043455489"><ele>173.25</ele><time>2026-03-30T11:13:53Z</time></trkpt><trkpt lat="33.0613692435093" lon="9.305669626933623"><ele>173.5</ele><time>2026-03-30T11:13:54Z</time></trkpt><trkpt lat="33.061348308310095" lon="9.305808156413512"><ele>173.75</ele><time>2026-03-30T11:13:55.001Z</time></trkpt><trkpt lat="33.06133739984145" lon="9.305937764757278"><ele>174.0</ele><time>2026-03-30T11:13:56.001Z</time></trkpt><trkpt lat="33.06133745940204" lon="9.306054557048808"><ele>174.0</ele><time>2026-03-30T11:13:57.001Z</time></trkpt><trkpt lat="33.0613553341027" lon="9.306187680503436"><ele>174.0</ele><time>2026-03-30T11:13:58.001Z</time></trkpt><trkpt lat="33.0613820320951" lon="9.306321327630775"><ele>174.0</ele><time>2026-03-30T11:13:59.001Z</time></trkpt><trkpt lat="33.06141426148488" lon="9.306428450157865"><ele>174.0</ele><time>2026-03-30T11:14:00.001Z</time></trkpt><trkpt lat="33.061450224664306" lon="9.306546538065861"><ele>174.0</ele><time>2026-03-30T11:14:01.001Z</time></trkpt><trkpt lat="33.061483834041745" lon="9.306672982692668"><ele>174.0</ele><time>2026-03-30T11:14:02.001Z</time></trkpt><trkpt lat="33.06152277788269" lon="9.30681221480592"><ele>174.0</ele><time>2026-03-30T11:14:03.001Z</time></trkpt><trkpt lat="33.061562595222696" lon="9.30695218620157"><ele>174.0</ele><time>2026-03-30T11:14:04.001Z</time></trkpt><trkpt lat="33.06159316174678" lon="9.307080141842443"><ele>174.0</ele><time>2026-03-30T11:14:05.001Z</time></trkpt><trkpt lat="33.061619778195016" lon="9.3072199479271"><ele>174.0</ele><time>2026-03-30T11:14:06.001Z</time></trkpt><trkpt lat="33.06163460770574" lon="9.307355767356269"><ele>174.0</ele><time>2026-03-30T11:14:07.001Z</time></trkpt><trkpt lat="33.06163537477781" lon="9.307511063331697"><ele>174.0</ele><time>2026-03-30T11:14:08.001Z</time></trkpt><trkpt lat="33.061628030875355" lon="9.307657839776962"><ele>174.0</ele><time>2026-03-30T11:14:09.001Z</time></trkpt><trkpt lat="33.0616229518335" lon="9.307819387913726"><ele>174.25</ele><time>2026-03-30T11:14:10.001Z</time></trkpt><trkpt lat="33.06161106803443" lon="9.307978689412806"><ele>174.5</ele><time>2026-03-30T11:14:11.001Z</time></trkpt><trkpt lat="33.061587079641555" lon="9.308157372999224"><ele>174.75</ele><time>2026-03-30T11:14:12.001Z</time></trkpt><trkpt lat="33.06157335314944" lon="9.30832487105707"><ele>175.0</ele><time>2026-03-30T11:14:13.001Z</time></trkpt><trkpt lat="33.06155806142678" lon="9.308499594044884"><ele>175.0</ele><time>2026-03-30T11:14:14.001Z</time></trkpt><trkpt lat="33.061531173636936" lon="9.308678086192694"><ele>175.0</ele><time>2026-03-30T11:14:15Z</time></trkpt><trkpt lat="33.061489128166386" lon="9.30886157566552"><ele>175.0</ele><time>2026-03-30T11:14:16Z</time></trkpt><trkpt lat="33.061450516887895" lon="9.309043850292122"><ele>174.66666666666669</ele><time>2026-03-30T11:14:17Z</time></trkpt><trkpt lat="33.06141763929451" lon="9.309227508392246"><ele>174.33333333333334</ele><time>2026-03-30T11:14:18Z</time></trkpt><trkpt lat="33.061380384784265" lon="9.309442959635174"><ele>174.0</ele><time>2026-03-30T11:14:19Z</time></trkpt><trkpt lat="33.06134076731626" lon="9.309695628000593"><ele>174.5</ele><time>2026-03-30T11:14:20Z</time></trkpt><trkpt lat="33.06130029736498" lon="9.309977616770416"><ele>175.0</ele><time>2026-03-30T11:14:21Z</time></trkpt><trkpt lat="33.06126075960446" lon="9.310273700429226"><ele>175.0</ele><time>2026-03-30T11:14:22Z</time></trkpt><trkpt lat="33.061229679923166" lon="9.310569942444776"><ele>175.0</ele><time>2026-03-30T11:14:23Z</time></trkpt><trkpt lat="33.06119991530926" lon="9.310843412981088"><ele>175.33333333333334</ele><time>2026-03-30T11:14:24Z</time></trkpt><trkpt lat="33.06117962203534" lon="9.311092892053205"><ele>175.66666666666666</ele><time>2026-03-30T11:14:25Z</time></trkpt><trkpt lat="33.06116914926491" lon="9.311327750511376"><ele>176.0</ele><time>2026-03-30T11:14:26Z</time></trkpt><trkpt lat="33.061168891272544" lon="9.311561407652576"><ele>176.33333333333331</ele><time>2026-03-30T11:14:27Z</time></trkpt><trkpt lat="33.06116342448499" lon="9.31180240350125"><ele>176.66666666666666</ele><time>2026-03-30T11:14:28Z</time></trkpt><trkpt lat="33.06116328681822" lon="9.312065896370479"><ele>177.0</ele><time>2026-03-30T11:14:29Z</time></trkpt><trkpt lat="33.06115774211251" lon="9.312311644833704"><ele>177.0</ele><time>2026-03-30T11:14:30Z</time></trkpt><trkpt lat="33.06115150505801" lon="9.312546326559383"><ele>177.0</ele><time>2026-03-30T11:14:31Z</time></trkpt><trkpt lat="33.06113767908373" lon="9.312767468656727"><ele>177.0</ele><time>2026-03-30T11:14:32Z</time></trkpt><trkpt lat="33.06113212139242" lon="9.31297498681892"><ele>176.66666666666666</ele><time>2026-03-30T11:14:33Z</time></trkpt><trkpt lat="33.06113024069058" lon="9.313188712673176"><ele>176.33333333333331</ele><time>2026-03-30T11:14:34Z</time></trkpt><trkpt lat="33.06113326998308" lon="9.313398391040169"><ele>176.0</ele><time>2026-03-30T11:14:35Z</time></trkpt><trkpt lat="33.06112977740878" lon="9.31362090797645"><ele>176.0</ele><time>2026-03-30T11:14:36Z</time></trkpt><trkpt lat="33.06112141725216" lon="9.313836350061766"><ele>176.0</ele><time>2026-03-30T11:14:37Z</time></trkpt><trkpt lat="33.06111367606295" lon="9.314047591522012"><ele>176.0</ele><time>2026-03-30T11:14:38Z</time></trkpt><trkpt lat="33.061099490236316" lon="9.314252798648887"><ele>176.0</ele><time>2026-03-30T11:14:39Z</time></trkpt><trkpt lat="33.061082276995265" lon="9.314472942186335"><ele>176.0</ele><time>2026-03-30T11:14:40Z</time></trkpt><trkpt lat="33.061059591272446" lon="9.31467943641694"><ele>176.0</ele><time>2026-03-30T11:14:41Z</time></trkpt><trkpt lat="33.06103861730492" lon="9.314896630370816"><ele>177.0</ele><time>2026-03-30T11:14:42Z</time></trkpt><trkpt lat="33.06101736524575" lon="9.315092856496207"><ele>178.0</ele><time>2026-03-30T11:14:43Z</time></trkpt><trkpt lat="33.06099863901924" lon="9.315283281067327"><ele>179.0</ele><time>2026-03-30T11:14:44Z</time></trkpt><trkpt lat="33.06098082923846" lon="9.31547520832083"><ele>178.66666666666666</ele><time>2026-03-30T11:14:45Z</time></trkpt><trkpt lat="33.06096887000568" lon="9.315673926769664"><ele>178.33333333333334</ele><time>2026-03-30T11:14:46Z</time></trkpt><trkpt lat="33.0609663919717" lon="9.315876108650844"><ele>178.0</ele><time>2026-03-30T11:14:47Z</time></trkpt><trkpt lat="33.06095886399939" lon="9.316093641309962"><ele>178.0</ele><time>2026-03-30T11:14:48Z</time></trkpt><trkpt lat="33.06095748595137" lon="9.316297115975983"><ele>178.0</ele><time>2026-03-30T11:14:49Z</time></trkpt><trkpt lat="33.06095774410893" lon="9.316504840240116"><ele>178.0</ele><time>2026-03-30T11:14:50Z</time></trkpt><trkpt lat="33.060958293983276" lon="9.31670030815216"><ele>177.66666666666669</ele><time>2026-03-30T11:14:51Z</time></trkpt><trkpt lat="33.06096064220369" lon="9.316893440122476"><ele>177.33333333333334</ele><time>2026-03-30T11:14:52Z</time></trkpt><trkpt lat="33.06096028605101" lon="9.31709575746883"><ele>177.0</ele><time>2026-03-30T11:14:53Z</time></trkpt><trkpt lat="33.06097345649194" lon="9.317299889394775"><ele>177.0</ele><time>2026-03-30T11:14:54Z</time></trkpt><trkpt lat="33.0609906165038" lon="9.317504507488556"><ele>177.0</ele><time>2026-03-30T11:14:55Z</time></trkpt><trkpt lat="33.061011578436876" lon="9.317697061193222"><ele>177.0</ele><time>2026-03-30T11:14:56Z</time></trkpt><trkpt lat="33.06103432674263" lon="9.317881053211885"><ele>177.0</ele><time>2026-03-30T11:14:57Z</time></trkpt><trkpt lat="33.06106261133907" lon="9.31805709937786"><ele>177.0</ele><time>2026-03-30T11:14:58Z</time></trkpt><trkpt lat="33.06108795288725" lon="9.318238885055798"><ele>177.0</ele><time>2026-03-30T11:14:59Z</time></trkpt><trkpt lat="33.06109935649642" lon="9.318413944088078"><ele>177.0</ele><time>2026-03-30T11:15:00Z</time></trkpt><trkpt lat="33.06111045986062" lon="9.318586563481883"><ele>177.0</ele><time>2026-03-30T11:15:01Z</time></trkpt><trkpt lat="33.06111726943042" lon="9.318760050979318"><ele>177.0</ele><time>2026-03-30T11:15:02Z</time></trkpt><trkpt lat="33.0611229310993" lon="9.318949590539384"><ele>176.66666666666666</ele><time>2026-03-30T11:15:03Z</time></trkpt><trkpt lat="33.06112297747344" lon="9.319140034721284"><ele>176.33333333333331</ele><time>2026-03-30T11:15:04Z</time></trkpt><trkpt lat="33.061126847150206" lon="9.319309837664857"><ele>176.0</ele><time>2026-03-30T11:15:05Z</time></trkpt><trkpt lat="33.061129622527744" lon="9.319499737355592"><ele>176.0</ele><time>2026-03-30T11:15:06Z</time></trkpt><trkpt lat="33.06113590299401" lon="9.319668113065433"><ele>176.0</ele><time>2026-03-30T11:15:07Z</time></trkpt><trkpt lat="33.06114234658889" lon="9.319853373205541"><ele>176.0</ele><time>2026-03-30T11:15:08Z</time></trkpt><trkpt lat="33.06114680554544" lon="9.320026046467985"><ele>176.0</ele><time>2026-03-30T11:15:09Z</time></trkpt><trkpt lat="33.06115192129" lon="9.320198950673658"><ele>176.5</ele><time>2026-03-30T11:15:10Z</time></trkpt><trkpt lat="33.06115936722792" lon="9.320366109907111"><ele>177.0</ele><time>2026-03-30T11:15:11Z</time></trkpt><trkpt lat="33.06116259807533" lon="9.320535901111828"><ele>177.5</ele><time>2026-03-30T11:15:12Z</time></trkpt><trkpt lat="33.061167216876626" lon="9.320705447209399"><ele>178.0</ele><time>2026-03-30T11:15:13Z</time></trkpt><trkpt lat="33.06116815668953" lon="9.320864709866727"><ele>178.0</ele><time>2026-03-30T11:15:14Z</time></trkpt><trkpt lat="33.061156433102425" lon="9.321026557891342"><ele>178.0</ele><time>2026-03-30T11:15:15Z</time></trkpt><trkpt lat="33.06113590285812" lon="9.321203107388346"><ele>178.0</ele><time>2026-03-30T11:15:16Z</time></trkpt><trkpt lat="33.06110757012329" lon="9.32138117062431"><ele>178.0</ele><time>2026-03-30T11:15:17Z</time></trkpt><trkpt lat="33.06107389478836" lon="9.321523632087303"><ele>178.5</ele><time>2026-03-30T11:15:18Z</time></trkpt><trkpt lat="33.06104603821174" lon="9.321626859480842"><ele>179.0</ele><time>2026-03-30T11:15:19Z</time></trkpt><trkpt lat="33.06103269752926" lon="9.321717852513155"><ele>179.5</ele><time>2026-03-30T11:15:20Z</time></trkpt><trkpt lat="33.06102648291107" lon="9.32179775558802"><ele>180.0</ele><time>2026-03-30T11:15:21Z</time></trkpt><trkpt lat="33.06100382813685" lon="9.321896479037127"><ele>180.5</ele><time>2026-03-30T11:15:23Z</time></trkpt><trkpt lat="33.06101287849943" lon="9.321976236186641"><ele>181.0</ele><time>2026-03-30T11:26:34.002Z</time></trkpt><trkpt lat="33.060971825505206" lon="9.322075852432834"><ele>181.0</ele><time>2026-03-30T11:26:36.002Z</time></trkpt><trkpt lat="33.06095908069899" lon="9.322176082966013"><ele>181.0</ele><time>2026-03-30T11:26:38.002Z</time></trkpt><trkpt lat="33.060954958133244" lon="9.322271299467515"><ele>181.0</ele><time>2026-03-30T11:26:40.002Z</time></trkpt><trkpt lat="33.06092760309247" lon="9.322386633352954"><ele>181.0</ele><time>2026-03-30T11:26:42.002Z</time></trkpt><trkpt lat="33.06089175862793" lon="9.3225002773244"><ele>181.0</ele><time>2026-03-30T11:26:44.002Z</time></trkpt><trkpt lat="33.06085737869968" lon="9.32263066853342"><ele>180.83333333333334</ele><time>2026-03-30T11:26:46.002Z</time></trkpt><trkpt lat="33.06083087988268" lon="9.322784823703355"><ele>180.66666666666669</ele><time>2026-03-30T11:26:48.002Z</time></trkpt><trkpt lat="33.06080404523071" lon="9.322877133625303"><ele>180.5</ele><time>2026-03-30T11:26:49.002Z</time></trkpt><trkpt lat="33.060775352637066" lon="9.322954430827657"><ele>180.33333333333334</ele><time>2026-03-30T11:26:50.002Z</time></trkpt><trkpt lat="33.06074142330141" lon="9.323033749974588"><ele>180.16666666666666</ele><time>2026-03-30T11:26:51.003Z</time></trkpt><trkpt lat="33.06070570836793" lon="9.323120359640516"><ele>180.0</ele><time>2026-03-30T11:26:52.003Z</time></trkpt><trkpt lat="33.06067050873401" lon="9.323206100857378"><ele>180.0</ele><time>2026-03-30T11:26:53.003Z</time></trkpt><trkpt lat="33.060636877499135" lon="9.3232943753565"><ele>180.0</ele><time>2026-03-30T11:26:54.003Z</time></trkpt><trkpt lat="33.06060203231847" lon="9.323374140082729"><ele>180.0</ele><time>2026-03-30T11:26:55.003Z</time></trkpt><trkpt lat="33.06055527508356" lon="9.323462079812021"><ele>180.0</ele><time>2026-03-30T11:26:56.003Z</time></trkpt><trkpt lat="33.06050283265864" lon="9.323566716269065"><ele>180.0</ele><time>2026-03-30T11:26:57.003Z</time></trkpt><trkpt lat="33.06045248858546" lon="9.32367875530469"><ele>180.0</ele><time>2026-03-30T11:26:58.003Z</time></trkpt><trkpt lat="33.06041117954381" lon="9.323789985991517"><ele>180.0</ele><time>2026-03-30T11:26:59.003Z</time></trkpt><trkpt lat="33.060382360424214" lon="9.323905164228936"><ele>180.0</ele><time>2026-03-30T11:27:00.003Z</time></trkpt><trkpt lat="33.06036317851977" lon="9.324028210241156"><ele>180.0</ele><time>2026-03-30T11:27:01.003Z</time></trkpt><trkpt lat="33.0603489797116" lon="9.324146108955823"><ele>180.0</ele><time>2026-03-30T11:27:02.003Z</time></trkpt><trkpt lat="33.06032601091563" lon="9.324252656510163"><ele>180.0</ele><time>2026-03-30T11:27:03.002Z</time></trkpt><trkpt lat="33.06029800017232" lon="9.324365880767196"><ele>180.0</ele><time>2026-03-30T11:27:04.002Z</time></trkpt><trkpt lat="33.06027009960725" lon="9.324481806714168"><ele>180.0</ele><time>2026-03-30T11:27:05.002Z</time></trkpt><trkpt lat="33.06024762813285" lon="9.324600470091415"><ele>180.0</ele><time>2026-03-30T11:27:06.002Z</time></trkpt><trkpt lat="33.06022662698473" lon="9.324701589605896"><ele>180.0</ele><time>2026-03-30T11:27:07.002Z</time></trkpt><trkpt lat="33.06019696667655" lon="9.324818360735984"><ele>180.2</ele><time>2026-03-30T11:27:08.002Z</time></trkpt><trkpt lat="33.060164761035" lon="9.324935484081859"><ele>180.4</ele><time>2026-03-30T11:27:09.002Z</time></trkpt><trkpt lat="33.06013604565085" lon="9.325069551952993"><ele>180.60000000000002</ele><time>2026-03-30T11:27:10.002Z</time></trkpt><trkpt lat="33.06010308258432" lon="9.325203076366561"><ele>180.8</ele><time>2026-03-30T11:27:11.002Z</time></trkpt><trkpt lat="33.06007244923162" lon="9.325328673096564"><ele>181.0</ele><time>2026-03-30T11:27:12.002Z</time></trkpt><trkpt lat="33.0600538001747" lon="9.325452008484012"><ele>181.0</ele><time>2026-03-30T11:27:13.002Z</time></trkpt><trkpt lat="33.0600421966616" lon="9.32557584022607"><ele>181.0</ele><time>2026-03-30T11:27:14.002Z</time></trkpt><trkpt lat="33.060038203081135" lon="9.325713675384192"><ele>181.0</ele><time>2026-03-30T11:27:15.002Z</time></trkpt><trkpt lat="33.060022338184915" lon="9.325882428070917"><ele>181.0</ele><time>2026-03-30T11:27:16.002Z</time></trkpt><trkpt lat="33.060025881436594" lon="9.326031262573766"><ele>181.0</ele><time>2026-03-30T11:27:17.002Z</time></trkpt><trkpt lat="33.0600425513228" lon="9.326164063225587"><ele>181.0</ele><time>2026-03-30T11:27:18.002Z</time></trkpt><trkpt lat="33.060043367266324" lon="9.326307761964111"><ele>181.0</ele><time>2026-03-30T11:27:19.002Z</time></trkpt><trkpt lat="33.06005002056766" lon="9.326448480260767"><ele>181.0</ele><time>2026-03-30T11:27:20.002Z</time></trkpt><trkpt lat="33.060058780465525" lon="9.32659633087399"><ele>180.75</ele><time>2026-03-30T11:27:21.002Z</time></trkpt><trkpt lat="33.06007535176821" lon="9.326745286698346"><ele>180.5</ele><time>2026-03-30T11:27:22.002Z</time></trkpt><trkpt lat="33.06010138402765" lon="9.326881879213161"><ele>180.25</ele><time>2026-03-30T11:27:23.002Z</time></trkpt><trkpt lat="33.06012879376383" lon="9.327020654089035"><ele>180.0</ele><time>2026-03-30T11:27:24.002Z</time></trkpt><trkpt lat="33.06015342672417" lon="9.327162746648026"><ele>180.0</ele><time>2026-03-30T11:27:25.002Z</time></trkpt><trkpt lat="33.06016740984619" lon="9.327303051255337"><ele>180.0</ele><time>2026-03-30T11:27:26.002Z</time></trkpt><trkpt lat="33.060182574020075" lon="9.327451761830256"><ele>180.0</ele><time>2026-03-30T11:27:27.002Z</time></trkpt><trkpt lat="33.06020047735116" lon="9.327608100745946"><ele>180.0</ele><time>2026-03-30T11:27:28.002Z</time></trkpt><trkpt lat="33.06021800607039" lon="9.32776540847811"><ele>180.0</ele><time>2026-03-30T11:27:29.002Z</time></trkpt><trkpt lat="33.060235002041956" lon="9.327933403197507"><ele>180.0</ele><time>2026-03-30T11:27:30.002Z</time></trkpt><trkpt lat="33.06024785294365" lon="9.328098899069548"><ele>180.0</ele><time>2026-03-30T11:27:31.002Z</time></trkpt><trkpt lat="33.06026217878539" lon="9.328262109014473"><ele>180.0</ele><time>2026-03-30T11:27:32.002Z</time></trkpt><trkpt lat="33.06028080817844" lon="9.328424698523504"><ele>180.0</ele><time>2026-03-30T11:27:33.002Z</time></trkpt><trkpt lat="33.060297576217465" lon="9.328579726555619"><ele>180.0</ele><time>2026-03-30T11:27:34.002Z</time></trkpt><trkpt lat="33.060315474422204" lon="9.328736135536186"><ele>180.0</ele><time>2026-03-30T11:27:35.002Z</time></trkpt><trkpt lat="33.06033872411932" lon="9.328886857502832"><ele>180.0</ele><time>2026-03-30T11:27:36.002Z</time></trkpt><trkpt lat="33.0603647340837" lon="9.329039818998119"><ele>180.25</ele><time>2026-03-30T11:27:37.002Z</time></trkpt><trkpt lat="33.06038855947028" lon="9.32918766127061"><ele>180.5</ele><time>2026-03-30T11:27:38.002Z</time></trkpt><trkpt lat="33.060409250344826" lon="9.329338443654246"><ele>180.75</ele><time>2026-03-30T11:27:39.002Z</time></trkpt><trkpt lat="33.06043434117415" lon="9.329495923177909"><ele>181.0</ele><time>2026-03-30T11:27:40.002Z</time></trkpt><trkpt lat="33.060460476642824" lon="9.329655802778689"><ele>181.0</ele><time>2026-03-30T11:27:41.002Z</time></trkpt><trkpt lat="33.06048812103321" lon="9.329816930265437"><ele>181.0</ele><time>2026-03-30T11:27:42.002Z</time></trkpt><trkpt lat="33.06052081736704" lon="9.329981294567212"><ele>181.0</ele><time>2026-03-30T11:27:43.002Z</time></trkpt><trkpt lat="33.06055894198942" lon="9.330131230802566"><ele>181.0</ele><time>2026-03-30T11:27:44.002Z</time></trkpt><trkpt lat="33.060593630634905" lon="9.330284484722922"><ele>181.0</ele><time>2026-03-30T11:27:45.002Z</time></trkpt><trkpt lat="33.06063719656275" lon="9.330430942843998"><ele>181.0</ele><time>2026-03-30T11:27:46.002Z</time></trkpt><trkpt lat="33.06068839533599" lon="9.330563741951135"><ele>181.0</ele><time>2026-03-30T11:27:47.002Z</time></trkpt><trkpt lat="33.060749240918085" lon="9.33069280012383"><ele>181.0</ele><time>2026-03-30T11:27:48.002Z</time></trkpt><trkpt lat="33.06081090565684" lon="9.330828971709135"><ele>180.25</ele><time>2026-03-30T11:27:49.002Z</time></trkpt><trkpt lat="33.06087167418829" lon="9.330966987185146"><ele>179.5</ele><time>2026-03-30T11:27:50.002Z</time></trkpt><trkpt lat="33.06092401715736" lon="9.33110020042842"><ele>178.75</ele><time>2026-03-30T11:27:51.002Z</time></trkpt><trkpt lat="33.06097516483998" lon="9.331226725221528"><ele>178.0</ele><time>2026-03-30T11:27:52.002Z</time></trkpt><trkpt lat="33.06102484823818" lon="9.331338824713496"><ele>178.4</ele><time>2026-03-30T11:27:53.002Z</time></trkpt><trkpt lat="33.06107317685605" lon="9.33144031878365"><ele>178.8</ele><time>2026-03-30T11:27:54.002Z</time></trkpt><trkpt lat="33.06111764938422" lon="9.331517110376033"><ele>179.2</ele><time>2026-03-30T11:27:55.002Z</time></trkpt><trkpt lat="33.06115558865296" lon="9.331606343183129"><ele>179.6</ele><time>2026-03-30T11:27:56.002Z</time></trkpt><trkpt lat="33.06119892992628" lon="9.331704819517078"><ele>180.0</ele><time>2026-03-30T11:27:57.002Z</time></trkpt><trkpt lat="33.061241931430565" lon="9.331815475064799"><ele>180.0</ele><time>2026-03-30T11:27:58.002Z</time></trkpt><trkpt lat="33.06128508059314" lon="9.331927197091119"><ele>180.0</ele><time>2026-03-30T11:27:59.002Z</time></trkpt><trkpt lat="33.061338018229335" lon="9.332033788512442"><ele>180.0</ele><time>2026-03-30T11:28:00.002Z</time></trkpt><trkpt lat="33.06139691559815" lon="9.332130629961874"><ele>180.0</ele><time>2026-03-30T11:28:01.002Z</time></trkpt><trkpt lat="33.06146352692375" lon="9.332230456317157"><ele>180.0</ele><time>2026-03-30T11:28:02.002Z</time></trkpt><trkpt lat="33.0615368409521" lon="9.332337117608335"><ele>180.0</ele><time>2026-03-30T11:28:03.002Z</time></trkpt><trkpt lat="33.06161539357582" lon="9.332446489057045"><ele>180.0</ele><time>2026-03-30T11:28:04.002Z</time></trkpt><trkpt lat="33.061683731218054" lon="9.332550329669184"><ele>180.0</ele><time>2026-03-30T11:28:05.002Z</time></trkpt><trkpt lat="33.0617401594145" lon="9.3326566329805"><ele>180.0</ele><time>2026-03-30T11:28:06.002Z</time></trkpt><trkpt lat="33.06178915167854" lon="9.332771354200752"><ele>180.0</ele><time>2026-03-30T11:28:07.002Z</time></trkpt><trkpt lat="33.06183832460396" lon="9.332891780987977"><ele>180.4</ele><time>2026-03-30T11:28:08.002Z</time></trkpt><trkpt lat="33.061889493040894" lon="9.333005685435591"><ele>180.8</ele><time>2026-03-30T11:28:09.002Z</time></trkpt><trkpt lat="33.06193835694265" lon="9.33311938197876"><ele>181.2</ele><time>2026-03-30T11:28:10.002Z</time></trkpt><trkpt lat="33.06199255851098" lon="9.333234012801928"><ele>181.6</ele><time>2026-03-30T11:28:11.002Z</time></trkpt><trkpt lat="33.062031721015295" lon="9.333353942233849"><ele>182.0</ele><time>2026-03-30T11:28:12.002Z</time></trkpt><trkpt lat="33.06206028897028" lon="9.33346633267675"><ele>182.2</ele><time>2026-03-30T11:28:13.002Z</time></trkpt><trkpt lat="33.06207194115156" lon="9.333580648484292"><ele>182.39999999999998</ele><time>2026-03-30T11:28:14.002Z</time></trkpt><trkpt lat="33.062076857097544" lon="9.333698341542455"><ele>182.60000000000002</ele><time>2026-03-30T11:28:15.002Z</time></trkpt><trkpt lat="33.062073668384166" lon="9.33382475292403"><ele>182.8</ele><time>2026-03-30T11:28:16.002Z</time></trkpt><trkpt lat="33.062067405139054" lon="9.333950668904782"><ele>183.0</ele><time>2026-03-30T11:28:17.002Z</time></trkpt><trkpt lat="33.062058034509676" lon="9.334076365468482"><ele>183.0</ele><time>2026-03-30T11:28:18.002Z</time></trkpt><trkpt lat="33.062049291215104" lon="9.334200152783051"><ele>183.0</ele><time>2026-03-30T11:28:19.002Z</time></trkpt><trkpt lat="33.062036867881" lon="9.334319100119789"><ele>183.0</ele><time>2026-03-30T11:28:20.002Z</time></trkpt><trkpt lat="33.06201904950848" lon="9.334430603826037"><ele>183.0</ele><time>2026-03-30T11:28:21.002Z</time></trkpt><trkpt lat="33.061997049733606" lon="9.334536663408473"><ele>183.0</ele><time>2026-03-30T11:28:22.002Z</time></trkpt><trkpt lat="33.061978180479564" lon="9.334637463732614"><ele>183.2</ele><time>2026-03-30T11:28:23.002Z</time></trkpt><trkpt lat="33.061962339825506" lon="9.334733003516018"><ele>183.4</ele><time>2026-03-30T11:28:24.002Z</time></trkpt><trkpt lat="33.0619487201988" lon="9.334853157230969"><ele>183.6</ele><time>2026-03-30T11:28:25.002Z</time></trkpt><trkpt lat="33.06193238396081" lon="9.334964827829317"><ele>183.79999999999998</ele><time>2026-03-30T11:28:26.002Z</time></trkpt><trkpt lat="33.06191031194345" lon="9.335076682893197"><ele>184.0</ele><time>2026-03-30T11:28:27.002Z</time></trkpt><trkpt lat="33.06189620608109" lon="9.33518747730038"><ele>184.0</ele><time>2026-03-30T11:28:28.002Z</time></trkpt><trkpt lat="33.06188587584305" lon="9.335296565493922"><ele>184.0</ele><time>2026-03-30T11:28:29.002Z</time></trkpt><trkpt lat="33.06187299133496" lon="9.335408107464868"><ele>184.0</ele><time>2026-03-30T11:28:30.002Z</time></trkpt><trkpt lat="33.06186156872556" lon="9.33552198495213"><ele>184.0</ele><time>2026-03-30T11:28:31.002Z</time></trkpt><trkpt lat="33.06185323469594" lon="9.335639752615212"><ele>184.0</ele><time>2026-03-30T11:28:32.002Z</time></trkpt><trkpt lat="33.06184658305955" lon="9.335761827194045"><ele>183.79999999999998</ele><time>2026-03-30T11:28:33.002Z</time></trkpt><trkpt lat="33.06184026327754" lon="9.33588693073935"><ele>183.6</ele><time>2026-03-30T11:28:34.002Z</time></trkpt><trkpt lat="33.061830040429506" lon="9.3360148490625"><ele>183.4</ele><time>2026-03-30T11:28:35.002Z</time></trkpt><trkpt lat="33.061813508252385" lon="9.336139855151428"><ele>183.2</ele><time>2026-03-30T11:28:36.002Z</time></trkpt><trkpt lat="33.061796859174365" lon="9.336266900784366"><ele>183.0</ele><time>2026-03-30T11:28:37.002Z</time></trkpt><trkpt lat="33.06177785432013" lon="9.336402116611431"><ele>183.0</ele><time>2026-03-30T11:28:38.002Z</time></trkpt><trkpt lat="33.061753676439174" lon="9.336539525449883"><ele>183.0</ele><time>2026-03-30T11:28:39.002Z</time></trkpt><trkpt lat="33.06173981956467" lon="9.336672671661102"><ele>183.0</ele><time>2026-03-30T11:28:40.002Z</time></trkpt><trkpt lat="33.061727161515236" lon="9.336806327546336"><ele>183.0</ele><time>2026-03-30T11:28:41.002Z</time></trkpt><trkpt lat="33.06171199525162" lon="9.33693931310436"><ele>183.0</ele><time>2026-03-30T11:28:42.002Z</time></trkpt><trkpt lat="33.06169840478641" lon="9.337065786220489"><ele>183.0</ele><time>2026-03-30T11:28:43.002Z</time></trkpt><trkpt lat="33.06167956592592" lon="9.33720422121077"><ele>183.0</ele><time>2026-03-30T11:28:44.002Z</time></trkpt><trkpt lat="33.06166173656147" lon="9.337353857449202"><ele>183.0</ele><time>2026-03-30T11:28:45.002Z</time></trkpt><trkpt lat="33.061650214908084" lon="9.337492470726623"><ele>182.75</ele><time>2026-03-30T11:28:46.002Z</time></trkpt><trkpt lat="33.06164022806958" lon="9.337636952149955"><ele>182.5</ele><time>2026-03-30T11:28:47.002Z</time></trkpt><trkpt lat="33.06163370210508" lon="9.337781789051279"><ele>182.25</ele><time>2026-03-30T11:28:48.002Z</time></trkpt><trkpt lat="33.0616212835873" lon="9.337936260862033"><ele>182.0</ele><time>2026-03-30T11:28:49.002Z</time></trkpt><trkpt lat="33.06160777779655" lon="9.338082956992206"><ele>182.5</ele><time>2026-03-30T11:28:50.002Z</time></trkpt><trkpt lat="33.061596642349535" lon="9.338224289000632"><ele>183.0</ele><time>2026-03-30T11:28:51.002Z</time></trkpt><trkpt lat="33.061579036623954" lon="9.338371681068914"><ele>183.5</ele><time>2026-03-30T11:28:52.002Z</time></trkpt><trkpt lat="33.061565544988184" lon="9.338517432862783"><ele>184.0</ele><time>2026-03-30T11:28:53.002Z</time></trkpt><trkpt lat="33.06154558629216" lon="9.338663432838013"><ele>184.0</ele><time>2026-03-30T11:28:54.002Z</time></trkpt><trkpt lat="33.0615340230566" lon="9.338800788694233"><ele>184.0</ele><time>2026-03-30T11:28:55.002Z</time></trkpt><trkpt lat="33.0615239681388" lon="9.33893887754187"><ele>184.0</ele><time>2026-03-30T11:28:56.002Z</time></trkpt><trkpt lat="33.061522754909205" lon="9.339076104657073"><ele>184.0</ele><time>2026-03-30T11:28:57.002Z</time></trkpt><trkpt lat="33.061510043231635" lon="9.339215248799446"><ele>184.25</ele><time>2026-03-30T11:28:58.002Z</time></trkpt><trkpt lat="33.06148793214322" lon="9.339349547208624"><ele>184.5</ele><time>2026-03-30T11:28:59.002Z</time></trkpt><trkpt lat="33.06146841376209" lon="9.339484310451507"><ele>184.75</ele><time>2026-03-30T11:29:00.002Z</time></trkpt><trkpt lat="33.061457177473144" lon="9.339629451499688"><ele>185.0</ele><time>2026-03-30T11:29:01.002Z</time></trkpt><trkpt lat="33.06144515227391" lon="9.339777087551251"><ele>185.0</ele><time>2026-03-30T11:29:02.002Z</time></trkpt><trkpt lat="33.061435891260274" lon="9.339928018413522"><ele>185.0</ele><time>2026-03-30T11:29:03.002Z</time></trkpt><trkpt lat="33.06143233449712" lon="9.340074860538413"><ele>185.0</ele><time>2026-03-30T11:29:04.002Z</time></trkpt><trkpt lat="33.06143039653408" lon="9.34022122721642"><ele>185.0</ele><time>2026-03-30T11:29:05.002Z</time></trkpt><trkpt lat="33.061431470433476" lon="9.340370799942601"><ele>185.0</ele><time>2026-03-30T11:29:06.002Z</time></trkpt><trkpt lat="33.06143482154778" lon="9.340519816232444"><ele>185.0</ele><time>2026-03-30T11:29:07.002Z</time></trkpt><trkpt lat="33.06143451846874" lon="9.34067152151266"><ele>185.0</ele><time>2026-03-30T11:29:08.002Z</time></trkpt><trkpt lat="33.06143513749112" lon="9.34082312440023"><ele>185.0</ele><time>2026-03-30T11:29:09.002Z</time></trkpt><trkpt lat="33.06143684840027" lon="9.340976697435124"><ele>184.75</ele><time>2026-03-30T11:29:10.002Z</time></trkpt><trkpt lat="33.06144034940215" lon="9.341129503520545"><ele>184.5</ele><time>2026-03-30T11:29:11.002Z</time></trkpt><trkpt lat="33.06144909357875" lon="9.341281241305936"><ele>184.25</ele><time>2026-03-30T11:29:12.001Z</time></trkpt><trkpt lat="33.06146399081165" lon="9.341446358868092"><ele>184.0</ele><time>2026-03-30T11:29:13.001Z</time></trkpt><trkpt lat="33.06147601191613" lon="9.341616780018803"><ele>183.75</ele><time>2026-03-30T11:29:14.001Z</time></trkpt><trkpt lat="33.06149475921078" lon="9.341793957763137"><ele>183.5</ele><time>2026-03-30T11:29:15.001Z</time></trkpt><trkpt lat="33.061509726378404" lon="9.341966663500688"><ele>183.25</ele><time>2026-03-30T11:29:16.001Z</time></trkpt><trkpt lat="33.06152742431726" lon="9.342132727907446"><ele>183.0</ele><time>2026-03-30T11:29:17.001Z</time></trkpt><trkpt lat="33.061537770932695" lon="9.342305424704348"><ele>183.75</ele><time>2026-03-30T11:29:18.001Z</time></trkpt><trkpt lat="33.061545653915" lon="9.34247159254639"><ele>184.5</ele><time>2026-03-30T11:29:19.001Z</time></trkpt><trkpt lat="33.061548629362036" lon="9.342631283739625"><ele>185.25</ele><time>2026-03-30T11:29:20.001Z</time></trkpt><trkpt lat="33.06155025559059" lon="9.342785255168241"><ele>186.0</ele><time>2026-03-30T11:29:21.001Z</time></trkpt><trkpt lat="33.061553773734396" lon="9.342935138959696"><ele>185.75</ele><time>2026-03-30T11:29:22.001Z</time></trkpt><trkpt lat="33.0615672427865" lon="9.343083267907287"><ele>185.5</ele><time>2026-03-30T11:29:23.001Z</time></trkpt><trkpt lat="33.06158814321649" lon="9.343243640110467"><ele>185.25</ele><time>2026-03-30T11:29:24.001Z</time></trkpt><trkpt lat="33.061607762061456" lon="9.343398491313314"><ele>185.0</ele><time>2026-03-30T11:29:25.001Z</time></trkpt><trkpt lat="33.061630316910666" lon="9.3435444696817"><ele>185.0</ele><time>2026-03-30T11:29:26.001Z</time></trkpt><trkpt lat="33.06165939253475" lon="9.34369704552033"><ele>185.0</ele><time>2026-03-30T11:29:27.001Z</time></trkpt><trkpt lat="33.06169893599366" lon="9.343847417401085"><ele>185.0</ele><time>2026-03-30T11:29:28.001Z</time></trkpt><trkpt lat="33.061732140715854" lon="9.343995798447706"><ele>185.0</ele><time>2026-03-30T11:29:29.001Z</time></trkpt><trkpt lat="33.06176215387608" lon="9.344141744450708"><ele>185.0</ele><time>2026-03-30T11:29:30.001Z</time></trkpt><trkpt lat="33.06179156396795" lon="9.344290399687333"><ele>185.0</ele><time>2026-03-30T11:29:31.001Z</time></trkpt><trkpt lat="33.06181310735845" lon="9.344438961330821"><ele>185.0</ele><time>2026-03-30T11:29:32.001Z</time></trkpt><trkpt lat="33.06183787817611" lon="9.344577043046653"><ele>185.0</ele><time>2026-03-30T11:29:33.001Z</time></trkpt><trkpt lat="33.06186752707999" lon="9.34471796331316"><ele>185.75</ele><time>2026-03-30T11:29:34.001Z</time></trkpt><trkpt lat="33.061907175911195" lon="9.344863113362901"><ele>186.5</ele><time>2026-03-30T11:29:35.001Z</time></trkpt><trkpt lat="33.06195207192029" lon="9.345003686600581"><ele>187.25</ele><time>2026-03-30T11:29:36.001Z</time></trkpt><trkpt lat="33.062000604504476" lon="9.345139777181348"><ele>188.0</ele><time>2026-03-30T11:29:37.001Z</time></trkpt><trkpt lat="33.06205495242847" lon="9.345263765252229"><ele>188.0</ele><time>2026-03-30T11:29:38.001Z</time></trkpt><trkpt lat="33.06210575465887" lon="9.345376346389221"><ele>188.0</ele><time>2026-03-30T11:29:39.001Z</time></trkpt><trkpt lat="33.06215332528839" lon="9.345478281326953"><ele>188.0</ele><time>2026-03-30T11:29:40.001Z</time></trkpt><trkpt lat="33.06219086755788" lon="9.345570641417652"><ele>188.0</ele><time>2026-03-30T11:29:41.001Z</time></trkpt><trkpt lat="33.062224333245766" lon="9.345673077998685"><ele>188.0</ele><time>2026-03-30T11:29:42.001Z</time></trkpt><trkpt lat="33.06225801619164" lon="9.345781023759615"><ele>187.66666666666666</ele><time>2026-03-30T11:29:43.001Z</time></trkpt><trkpt lat="33.062294827200716" lon="9.345901984191787"><ele>187.33333333333331</ele><time>2026-03-30T11:29:44.001Z</time></trkpt><trkpt lat="33.062321324518756" lon="9.34601115590456"><ele>187.0</ele><time>2026-03-30T11:29:45.001Z</time></trkpt><trkpt lat="33.062341933088184" lon="9.3460993358213"><ele>186.66666666666666</ele><time>2026-03-30T11:29:46.001Z</time></trkpt><trkpt lat="33.062356996818544" lon="9.34617477924586"><ele>186.33333333333334</ele><time>2026-03-30T11:29:47.001Z</time></trkpt><trkpt lat="33.06238194383538" lon="9.346263728751207"><ele>186.0</ele><time>2026-03-30T11:29:51.001Z</time></trkpt><trkpt lat="33.06239953637424" lon="9.346339880711938"><ele>186.16666666666666</ele><time>2026-03-30T11:29:52.001Z</time></trkpt><trkpt lat="33.06240504751818" lon="9.34643067025164"><ele>186.33333333333334</ele><time>2026-03-30T11:29:53.001Z</time></trkpt><trkpt lat="33.06240074914461" lon="9.346533111850299"><ele>186.5</ele><time>2026-03-30T11:29:54.001Z</time></trkpt><trkpt lat="33.062410411129875" lon="9.34662875718631"><ele>186.66666666666669</ele><time>2026-03-30T11:29:55.001Z</time></trkpt><trkpt lat="33.062429060850945" lon="9.346749421304626"><ele>186.83333333333334</ele><time>2026-03-30T11:29:56.001Z</time></trkpt><trkpt lat="33.0624607489346" lon="9.34685421582336"><ele>187.0</ele><time>2026-03-30T11:29:57.001Z</time></trkpt><trkpt lat="33.062499011480284" lon="9.34697103125621"><ele>187.2</ele><time>2026-03-30T11:29:58.001Z</time></trkpt><trkpt lat="33.0625516978465" lon="9.347082986248978"><ele>187.39999999999998</ele><time>2026-03-30T11:29:59.001Z</time></trkpt><trkpt lat="33.06260360655606" lon="9.347209749709874"><ele>187.60000000000002</ele><time>2026-03-30T11:30:00.001Z</time></trkpt><trkpt lat="33.062648780561965" lon="9.347325636700948"><ele>187.8</ele><time>2026-03-30T11:30:01.001Z</time></trkpt><trkpt lat="33.062694104894234" lon="9.34744448744572"><ele>188.0</ele><time>2026-03-30T11:30:02.001Z</time></trkpt><trkpt lat="33.06273561283259" lon="9.347571707055275"><ele>188.25</ele><time>2026-03-30T11:30:03.001Z</time></trkpt><trkpt lat="33.06277445268756" lon="9.347704311811878"><ele>188.5</ele><time>2026-03-30T11:30:04.001Z</time></trkpt><trkpt lat="33.06281969983567" lon="9.34784454546513"><ele>188.75</ele><time>2026-03-30T11:30:05.001Z</time></trkpt><trkpt lat="33.0628598138183" lon="9.347981623215999"><ele>189.0</ele><time>2026-03-30T11:30:06.001Z</time></trkpt><trkpt lat="33.062907443123756" lon="9.348113067761801"><ele>189.0</ele><time>2026-03-30T11:30:07.001Z</time></trkpt><trkpt lat="33.06296556435308" lon="9.348234595279914"><ele>189.0</ele><time>2026-03-30T11:30:08.001Z</time></trkpt><trkpt lat="33.063032787253135" lon="9.348356495827446"><ele>189.0</ele><time>2026-03-30T11:30:09.001Z</time></trkpt><trkpt lat="33.06310204143932" lon="9.348476204468861"><ele>189.0</ele><time>2026-03-30T11:30:10.001Z</time></trkpt><trkpt lat="33.06317629536967" lon="9.34859503265104"><ele>189.0</ele><time>2026-03-30T11:30:11.001Z</time></trkpt><trkpt lat="33.06324797484953" lon="9.34871559309568"><ele>189.0</ele><time>2026-03-30T11:30:12.001Z</time></trkpt><trkpt lat="33.06332184542262" lon="9.348828765088133"><ele>189.0</ele><time>2026-03-30T11:30:13.001Z</time></trkpt><trkpt lat="33.06339161496986" lon="9.34892769545949"><ele>189.0</ele><time>2026-03-30T11:30:14.001Z</time></trkpt><trkpt lat="33.06345333678881" lon="9.349007949518889"><ele>189.0</ele><time>2026-03-30T11:30:15.001Z</time></trkpt><trkpt lat="33.06351050951499" lon="9.349079804251206"><ele>189.2</ele><time>2026-03-30T11:30:16.001Z</time></trkpt><trkpt lat="33.0635649406141" lon="9.349158783185961"><ele>189.39999999999998</ele><time>2026-03-30T11:30:17.001Z</time></trkpt><trkpt lat="33.063611004015385" lon="9.349216299011221"><ele>189.6</ele><time>2026-03-30T11:30:18.001Z</time></trkpt><trkpt lat="33.06370029619009" lon="9.349280820985316"><ele>189.8</ele><time>2026-03-30T11:30:20.001Z</time></trkpt><trkpt lat="33.06381545447425" lon="9.349305813860255"><ele>190.0</ele><time>2026-03-30T11:30:22.001Z</time></trkpt><trkpt lat="33.063900112805804" lon="9.349317862802023"><ele>190.0</ele><time>2026-03-30T11:30:23.001Z</time></trkpt><trkpt lat="33.06398771536731" lon="9.349341986262486"><ele>190.0</ele><time>2026-03-30T11:30:24.001Z</time></trkpt><trkpt lat="33.064083508946474" lon="9.349392335387304"><ele>190.0</ele><time>2026-03-30T11:30:25.001Z</time></trkpt><trkpt lat="33.06417611288396" lon="9.349457203124016"><ele>190.0</ele><time>2026-03-30T11:30:26.001Z</time></trkpt><trkpt lat="33.064270746807686" lon="9.349542383808613"><ele>190.0</ele><time>2026-03-30T11:30:27.001Z</time></trkpt><trkpt lat="33.0643711798836" lon="9.349648712376991"><ele>189.0</ele><time>2026-03-30T11:30:28.001Z</time></trkpt><trkpt lat="33.064464761157524" lon="9.34976426352777"><ele>188.0</ele><time>2026-03-30T11:30:29.001Z</time></trkpt><trkpt lat="33.064549723697425" lon="9.349895589393029"><ele>187.0</ele><time>2026-03-30T11:30:30.001Z</time></trkpt><trkpt lat="33.06461477377968" lon="9.350030901038004"><ele>186.0</ele><time>2026-03-30T11:30:31.001Z</time></trkpt><trkpt lat="33.06467109640218" lon="9.350161697957976"><ele>186.0</ele><time>2026-03-30T11:30:32.001Z</time></trkpt><trkpt lat="33.064731841887344" lon="9.35029381867287"><ele>186.0</ele><time>2026-03-30T11:30:33.001Z</time></trkpt><trkpt lat="33.064803060261994" lon="9.35042376398865"><ele>186.0</ele><time>2026-03-30T11:30:34.001Z</time></trkpt><trkpt lat="33.064868979184624" lon="9.350554510306868"><ele>186.0</ele><time>2026-03-30T11:30:35.001Z</time></trkpt><trkpt lat="33.0649272261364" lon="9.350674819779368"><ele>185.5</ele><time>2026-03-30T11:30:36.001Z</time></trkpt><trkpt lat="33.06500800438939" lon="9.350787772265981"><ele>185.0</ele><time>2026-03-30T11:30:37.001Z</time></trkpt><trkpt lat="33.06511292777841" lon="9.35089420676505"><ele>184.5</ele><time>2026-03-30T11:30:38.001Z</time></trkpt><trkpt lat="33.065229811924965" lon="9.351013085202293"><ele>184.0</ele><time>2026-03-30T11:30:39.001Z</time></trkpt><trkpt lat="33.0653141878328" lon="9.35112582428244"><ele>184.0</ele><time>2026-03-30T11:30:40.001Z</time></trkpt><trkpt lat="33.06537100589286" lon="9.35124243820117"><ele>184.0</ele><time>2026-03-30T11:30:41.001Z</time></trkpt><trkpt lat="33.065428731499246" lon="9.351357123097404"><ele>184.0</ele><time>2026-03-30T11:30:42.001Z</time></trkpt><trkpt lat="33.06548779501002" lon="9.351446844756994"><ele>184.0</ele><time>2026-03-30T11:30:43.001Z</time></trkpt><trkpt lat="33.06554352803269" lon="9.351527141604489"><ele>184.0</ele><time>2026-03-30T11:30:44.001Z</time></trkpt><trkpt lat="33.06557219151584" lon="9.351594447506127"><ele>183.6</ele><time>2026-03-30T11:30:45.001Z</time></trkpt><trkpt lat="33.0656100334224" lon="9.351691459362055"><ele>183.2</ele><time>2026-03-30T11:30:46.001Z</time></trkpt><trkpt lat="33.065658714762904" lon="9.351801774123194"><ele>182.79999999999998</ele><time>2026-03-30T11:30:47.001Z</time></trkpt><trkpt lat="33.06571103557635" lon="9.35188029149067"><ele>182.39999999999998</ele><time>2026-03-30T11:30:48.001Z</time></trkpt><trkpt lat="33.06578410797855" lon="9.351949644202474"><ele>182.0</ele><time>2026-03-30T11:30:49.001Z</time></trkpt><trkpt lat="33.065868116289394" lon="9.352046721976329"><ele>182.0</ele><time>2026-03-30T11:30:50.001Z</time></trkpt><trkpt lat="33.0659320135424" lon="9.352166626554824"><ele>182.0</ele><time>2026-03-30T11:30:51.001Z</time></trkpt><trkpt lat="33.06598756396184" lon="9.352315188881883"><ele>182.0</ele><time>2026-03-30T11:30:52.001Z</time></trkpt><trkpt lat="33.06604604293916" lon="9.352490390477977"><ele>182.0</ele><time>2026-03-30T11:30:53.001Z</time></trkpt><trkpt lat="33.06609292527297" lon="9.35266521847015"><ele>182.0</ele><time>2026-03-30T11:30:54.001Z</time></trkpt><trkpt lat="33.06613093233204" lon="9.352840923116402"><ele>182.0</ele><time>2026-03-30T11:30:55.001Z</time></trkpt><trkpt lat="33.066175216594985" lon="9.353017030638465"><ele>182.0</ele><time>2026-03-30T11:30:56.001Z</time></trkpt><trkpt lat="33.06622571769908" lon="9.353187206093873"><ele>181.75</ele><time>2026-03-30T11:30:57.001Z</time></trkpt><trkpt lat="33.066283962149825" lon="9.353355103878611"><ele>181.5</ele><time>2026-03-30T11:30:58.001Z</time></trkpt><trkpt lat="33.066339841966794" lon="9.353509785449965"><ele>181.25</ele><time>2026-03-30T11:30:59.001Z</time></trkpt><trkpt lat="33.06640243553171" lon="9.353661318601537"><ele>181.0</ele><time>2026-03-30T11:31:00.001Z</time></trkpt><trkpt lat="33.06647521183595" lon="9.35380659014596"><ele>180.75</ele><time>2026-03-30T11:31:01.001Z</time></trkpt><trkpt lat="33.066551665587056" lon="9.353955310505063"><ele>180.5</ele><time>2026-03-30T11:31:02.001Z</time></trkpt><trkpt lat="33.0666356390581" lon="9.35409823057853"><ele>180.25</ele><time>2026-03-30T11:31:03.001Z</time></trkpt><trkpt lat="33.06673345575526" lon="9.354238572964043"><ele>180.0</ele><time>2026-03-30T11:31:04.001Z</time></trkpt><trkpt lat="33.06684103641694" lon="9.35436833131466"><ele>179.0</ele><time>2026-03-30T11:31:05.001Z</time></trkpt><trkpt lat="33.06696495701869" lon="9.35450175281496"><ele>178.0</ele><time>2026-03-30T11:31:06.001Z</time></trkpt><trkpt lat="33.067075860498164" lon="9.354615696725652"><ele>177.0</ele><time>2026-03-30T11:31:07.001Z</time></trkpt><trkpt lat="33.06718796915662" lon="9.35473081882674"><ele>176.66666666666666</ele><time>2026-03-30T11:31:08.001Z</time></trkpt><trkpt lat="33.06729977432565" lon="9.354851516736854"><ele>176.33333333333331</ele><time>2026-03-30T11:31:09.001Z</time></trkpt><trkpt lat="33.067414102394835" lon="9.35498641062637"><ele>176.0</ele><time>2026-03-30T11:31:10.001Z</time></trkpt><trkpt lat="33.06752391496237" lon="9.355118618144807"><ele>176.0</ele><time>2026-03-30T11:31:11.001Z</time></trkpt><trkpt lat="33.067625828245006" lon="9.355235531532234"><ele>176.0</ele><time>2026-03-30T11:31:12.001Z</time></trkpt><trkpt lat="33.06771396790693" lon="9.355336886220766"><ele>176.0</ele><time>2026-03-30T11:31:13.001Z</time></trkpt><trkpt lat="33.06779438536532" lon="9.355419063516974"><ele>176.0</ele><time>2026-03-30T11:31:14.001Z</time></trkpt><trkpt lat="33.067894628522986" lon="9.355485823984827"><ele>176.0</ele><time>2026-03-30T11:31:15.001Z</time></trkpt><trkpt lat="33.06801069402815" lon="9.355571884400627"><ele>176.0</ele><time>2026-03-30T11:31:16.001Z</time></trkpt><trkpt lat="33.06811632439779" lon="9.355684835969342"><ele>176.0</ele><time>2026-03-30T11:31:17.001Z</time></trkpt><trkpt lat="33.06821696775144" lon="9.355819156093515"><ele>176.0</ele><time>2026-03-30T11:31:18.001Z</time></trkpt><trkpt lat="33.068317301299366" lon="9.355948513901176"><ele>175.75</ele><time>2026-03-30T11:31:19.001Z</time></trkpt><trkpt lat="33.06841792250876" lon="9.356088523308983"><ele>175.5</ele><time>2026-03-30T11:31:20.001Z</time></trkpt><trkpt lat="33.06850808168152" lon="9.35622383240824"><ele>175.25</ele><time>2026-03-30T11:31:21.001Z</time></trkpt><trkpt lat="33.068592669123326" lon="9.356371706182035"><ele>175.0</ele><time>2026-03-30T11:31:22.001Z</time></trkpt><trkpt lat="33.06868171565949" lon="9.356511310600487"><ele>175.0</ele><time>2026-03-30T11:31:23.001Z</time></trkpt><trkpt lat="33.06877513273995" lon="9.356667461583001"><ele>175.0</ele><time>2026-03-30T11:31:24.001Z</time></trkpt><trkpt lat="33.068861415909126" lon="9.356812389685945"><ele>175.0</ele><time>2026-03-30T11:31:25Z</time></trkpt><trkpt lat="33.06895457429837" lon="9.35696076349591"><ele>175.0</ele><time>2026-03-30T11:31:26Z</time></trkpt><trkpt lat="33.0690443002405" lon="9.357098985629197"><ele>175.0</ele><time>2026-03-30T11:31:27Z</time></trkpt><trkpt lat="33.06912725967197" lon="9.357226791422663"><ele>175.0</ele><time>2026-03-30T11:31:28Z</time></trkpt><trkpt lat="33.06921034404462" lon="9.357364195833815"><ele>175.0</ele><time>2026-03-30T11:31:29Z</time></trkpt><trkpt lat="33.06929136397006" lon="9.357492957903307"><ele>174.75</ele><time>2026-03-30T11:31:30Z</time></trkpt><trkpt lat="33.06937081350038" lon="9.35763866059744"><ele>174.5</ele><time>2026-03-30T11:31:31Z</time></trkpt><trkpt lat="33.0694431419963" lon="9.357783158652428"><ele>174.25</ele><time>2026-03-30T11:31:32Z</time></trkpt><trkpt lat="33.069508315894296" lon="9.357933086135606"><ele>174.0</ele><time>2026-03-30T11:31:33Z</time></trkpt><trkpt lat="33.06956548221461" lon="9.358077561580442"><ele>173.6</ele><time>2026-03-30T11:31:34Z</time></trkpt><trkpt lat="33.06961867182011" lon="9.358212421404112"><ele>173.2</ele><time>2026-03-30T11:31:35Z</time></trkpt><trkpt lat="33.06966863004094" lon="9.358328508488936"><ele>172.79999999999998</ele><time>2026-03-30T11:31:36Z</time></trkpt><trkpt lat="33.069716071765775" lon="9.358433509441618"><ele>172.39999999999998</ele><time>2026-03-30T11:31:37Z</time></trkpt><trkpt lat="33.06977776847316" lon="9.358509515488237"><ele>172.0</ele><time>2026-03-30T11:31:38Z</time></trkpt><trkpt lat="33.06985214177776" lon="9.358567100749108"><ele>172.0</ele><time>2026-03-30T11:31:39Z</time></trkpt><trkpt lat="33.069935501499074" lon="9.358649888451039"><ele>172.0</ele><time>2026-03-30T11:31:40Z</time></trkpt><trkpt lat="33.07000143379581" lon="9.358753123436191"><ele>172.0</ele><time>2026-03-30T11:31:41Z</time></trkpt><trkpt lat="33.07004386178951" lon="9.35887400961585"><ele>172.0</ele><time>2026-03-30T11:31:42Z</time></trkpt><trkpt lat="33.07007015625435" lon="9.35899570143508"><ele>172.0</ele><time>2026-03-30T11:31:43Z</time></trkpt><trkpt lat="33.0701042273258" lon="9.35911734182904"><ele>171.83333333333334</ele><time>2026-03-30T11:31:44Z</time></trkpt><trkpt lat="33.07016153372783" lon="9.359225823741944"><ele>171.66666666666669</ele><time>2026-03-30T11:31:45Z</time></trkpt><trkpt lat="33.070227965720484" lon="9.35932047392759"><ele>171.5</ele><time>2026-03-30T11:31:46Z</time></trkpt><trkpt lat="33.07028725520814" lon="9.359379103744143"><ele>171.33333333333334</ele><time>2026-03-30T11:31:47Z</time></trkpt><trkpt lat="33.07035037290835" lon="9.359410103539698"><ele>171.16666666666666</ele><time>2026-03-30T11:31:48Z</time></trkpt><trkpt lat="33.07043226681816" lon="9.359442037827247"><ele>171.0</ele><time>2026-03-30T11:31:49Z</time></trkpt><trkpt lat="33.07053237351215" lon="9.359483044529242"><ele>171.0</ele><time>2026-03-30T11:31:50Z</time></trkpt><trkpt lat="33.07062444616402" lon="9.359547109349553"><ele>171.0</ele><time>2026-03-30T11:31:51Z</time></trkpt><trkpt lat="33.07071030642796" lon="9.359606220740925"><ele>171.0</ele><time>2026-03-30T11:31:52Z</time></trkpt><trkpt lat="33.07078139143183" lon="9.359656538787561"><ele>171.0</ele><time>2026-03-30T11:31:53Z</time></trkpt><trkpt lat="33.07085086502671" lon="9.35972092227508"><ele>171.0</ele><time>2026-03-30T11:31:54Z</time></trkpt><trkpt lat="33.07090430729276" lon="9.359801977562165"><ele>171.0</ele><time>2026-03-30T11:31:55Z</time></trkpt><trkpt lat="33.07095552426598" lon="9.359902016485197"><ele>171.0</ele><time>2026-03-30T11:31:56Z</time></trkpt><trkpt lat="33.0709844740249" lon="9.359992226597"><ele>171.0</ele><time>2026-03-30T11:31:57Z</time></trkpt><trkpt lat="33.07100171520592" lon="9.36010475376451"><ele>171.0</ele><time>2026-03-30T11:31:59Z</time></trkpt><trkpt lat="33.07108280316106" lon="9.360241354444021"><ele>171.0</ele><time>2026-03-30T11:32:01Z</time></trkpt><trkpt lat="33.071152669606256" lon="9.360335634401846"><ele>171.0</ele><time>2026-03-30T11:32:02Z</time></trkpt><trkpt lat="33.071233959481724" lon="9.360418763052909"><ele>171.0</ele><time>2026-03-30T11:32:03Z</time></trkpt><trkpt lat="33.071311259143144" lon="9.360511127692817"><ele>171.0</ele><time>2026-03-30T11:32:04Z</time></trkpt><trkpt lat="33.0713969236289" lon="9.360632205250502"><ele>171.0</ele><time>2026-03-30T11:32:05Z</time></trkpt><trkpt lat="33.071473873212106" lon="9.360757536076942"><ele>171.0</ele><time>2026-03-30T11:32:06Z</time></trkpt><trkpt lat="33.07154954757222" lon="9.360888007337179"><ele>171.0</ele><time>2026-03-30T11:32:07Z</time></trkpt><trkpt lat="33.071624322870896" lon="9.361017768376051"><ele>171.0</ele><time>2026-03-30T11:32:08Z</time></trkpt><trkpt lat="33.07169592646281" lon="9.361126913457475"><ele>171.0</ele><time>2026-03-30T11:32:09Z</time></trkpt><trkpt lat="33.07176874492816" lon="9.361240953312178"><ele>171.0</ele><time>2026-03-30T11:32:10Z</time></trkpt><trkpt lat="33.07183530854081" lon="9.361364845025545"><ele>171.0</ele><time>2026-03-30T11:32:11Z</time></trkpt><trkpt lat="33.07190778553746" lon="9.361488153368025"><ele>171.0</ele><time>2026-03-30T11:32:12Z</time></trkpt><trkpt lat="33.07198323898796" lon="9.361604910044683"><ele>171.0</ele><time>2026-03-30T11:32:13Z</time></trkpt><trkpt lat="33.07205609066566" lon="9.361725598801238"><ele>170.75</ele><time>2026-03-30T11:32:14Z</time></trkpt><trkpt lat="33.072137498307384" lon="9.361838283094972"><ele>170.5</ele><time>2026-03-30T11:32:15Z</time></trkpt><trkpt lat="33.07222109066647" lon="9.361947208548093"><ele>170.25</ele><time>2026-03-30T11:32:16Z</time></trkpt><trkpt lat="33.07231394176357" lon="9.362064375864882"><ele>170.0</ele><time>2026-03-30T11:32:17Z</time></trkpt><trkpt lat="33.07240069556443" lon="9.362171532775157"><ele>170.2</ele><time>2026-03-30T11:32:18Z</time></trkpt><trkpt lat="33.07249375592773" lon="9.362277697222845"><ele>170.4</ele><time>2026-03-30T11:32:19Z</time></trkpt><trkpt lat="33.07256708801847" lon="9.362373871452865"><ele>170.60000000000002</ele><time>2026-03-30T11:32:20Z</time></trkpt><trkpt lat="33.07262657971563" lon="9.362465946475185"><ele>170.8</ele><time>2026-03-30T11:32:21Z</time></trkpt><trkpt lat="33.07267731186388" lon="9.36254811543846"><ele>171.0</ele><time>2026-03-30T11:32:22Z</time></trkpt><trkpt lat="33.07271814363603" lon="9.362637866239986"><ele>171.0</ele><time>2026-03-30T11:32:23Z</time></trkpt><trkpt lat="33.07275741736539" lon="9.362731672544454"><ele>171.0</ele><time>2026-03-30T11:32:24Z</time></trkpt><trkpt lat="33.0728029853053" lon="9.362801562722884"><ele>171.0</ele><time>2026-03-30T11:32:25Z</time></trkpt><trkpt lat="33.072863455108546" lon="9.362876631457924"><ele>171.0</ele><time>2026-03-30T11:32:26Z</time></trkpt><trkpt lat="33.07292470448792" lon="9.362938360304826"><ele>171.0</ele><time>2026-03-30T11:32:27Z</time></trkpt><trkpt lat="33.0729832372458" lon="9.363018534293516"><ele>171.0</ele><time>2026-03-30T11:32:29Z</time></trkpt><trkpt lat="33.07307092391551" lon="9.363104525845067"><ele>170.8</ele><time>2026-03-30T11:32:31Z</time></trkpt><trkpt lat="33.073163675977995" lon="9.363151915237548"><ele>170.60000000000002</ele><time>2026-03-30T11:32:32Z</time></trkpt><trkpt lat="33.07324929652767" lon="9.363230762431908"><ele>170.4</ele><time>2026-03-30T11:32:33Z</time></trkpt><trkpt lat="33.073326926792085" lon="9.363321342168465"><ele>170.2</ele><time>2026-03-30T11:32:34Z</time></trkpt><trkpt lat="33.07340966628389" lon="9.36342327910148"><ele>170.0</ele><time>2026-03-30T11:32:35Z</time></trkpt><trkpt lat="33.07348158056619" lon="9.36354988113663"><ele>170.25</ele><time>2026-03-30T11:32:36Z</time></trkpt><trkpt lat="33.07352841748543" lon="9.363692680454985"><ele>170.5</ele><time>2026-03-30T11:32:37Z</time></trkpt><trkpt lat="33.073568689099886" lon="9.363823076640168"><ele>170.75</ele><time>2026-03-30T11:32:38Z</time></trkpt><trkpt lat="33.073615921113934" lon="9.363937085788974"><ele>171.0</ele><time>2026-03-30T11:32:39Z</time></trkpt><trkpt lat="33.07367828411028" lon="9.36405103437332"><ele>171.0</ele><time>2026-03-30T11:32:40Z</time></trkpt><trkpt lat="33.07375681858541" lon="9.364149928901124"><ele>171.0</ele><time>2026-03-30T11:32:41Z</time></trkpt><trkpt lat="33.07383907115817" lon="9.36425364402544"><ele>171.0</ele><time>2026-03-30T11:32:42Z</time></trkpt><trkpt lat="33.07390492012724" lon="9.364358155951896"><ele>171.0</ele><time>2026-03-30T11:32:43Z</time></trkpt><trkpt lat="33.07396602675968" lon="9.364466593195896"><ele>171.0</ele><time>2026-03-30T11:32:44Z</time></trkpt><trkpt lat="33.074015746930066" lon="9.364575340534493"><ele>171.0</ele><time>2026-03-30T11:32:45Z</time></trkpt><trkpt lat="33.07408177669099" lon="9.364670297983222"><ele>171.0</ele><time>2026-03-30T11:32:46Z</time></trkpt><trkpt lat="33.0741597428861" lon="9.364760402957478"><ele>171.0</ele><time>2026-03-30T11:32:47Z</time></trkpt><trkpt lat="33.07425073930496" lon="9.364846253651486"><ele>171.0</ele><time>2026-03-30T11:32:48Z</time></trkpt><trkpt lat="33.07434177652883" lon="9.364922129818845"><ele>170.60000000000002</ele><time>2026-03-30T11:32:49Z</time></trkpt><trkpt lat="33.074425546314295" lon="9.364976507729612"><ele>170.2</ele><time>2026-03-30T11:32:50Z</time></trkpt><trkpt lat="33.07452557046706" lon="9.365005364563565"><ele>169.8</ele><time>2026-03-30T11:32:51Z</time></trkpt><trkpt lat="33.074631197075185" lon="9.365022606808475"><ele>169.39999999999998</ele><time>2026-03-30T11:32:52Z</time></trkpt><trkpt lat="33.074715613982335" lon="9.365042985420196"><ele>169.0</ele><time>2026-03-30T11:32:53Z</time></trkpt><trkpt lat="33.07478483050111" lon="9.365062997902493"><ele>169.0</ele><time>2026-03-30T11:32:54Z</time></trkpt><trkpt lat="33.07485758147715" lon="9.365074505742166"><ele>169.0</ele><time>2026-03-30T11:32:55Z</time></trkpt><trkpt lat="33.07493165242424" lon="9.365089093124721"><ele>169.0</ele><time>2026-03-30T11:32:56Z</time></trkpt><trkpt lat="33.07499519527031" lon="9.365095963076385"><ele>169.0</ele><time>2026-03-30T11:32:57Z</time></trkpt><trkpt lat="33.07509945693624" lon="9.365093056055827"><ele>169.0</ele><time>2026-03-30T11:32:59Z</time></trkpt><trkpt lat="33.07520766840029" lon="9.365098196288784"><ele>169.0</ele><time>2026-03-30T11:33:01Z</time></trkpt><trkpt lat="33.07529786406184" lon="9.36510046714358"><ele>169.16666666666669</ele><time>2026-03-30T11:33:02Z</time></trkpt><trkpt lat="33.07536081249935" lon="9.365112243752893"><ele>169.33333333333334</ele><time>2026-03-30T11:33:03Z</time></trkpt><trkpt lat="33.07542274593225" lon="9.365152422397378"><ele>169.5</ele><time>2026-03-30T11:33:04Z</time></trkpt><trkpt lat="33.07546523711554" lon="9.365212454958009"><ele>169.66666666666666</ele><time>2026-03-30T11:33:05Z</time></trkpt><trkpt lat="33.07551282898227" lon="9.365283988994138"><ele>169.83333333333331</ele><time>2026-03-30T11:33:06Z</time></trkpt><trkpt lat="33.075569561676325" lon="9.365335239224477"><ele>170.0</ele><time>2026-03-30T11:33:07Z</time></trkpt><trkpt lat="33.07568775587439" lon="9.365311159839179"><ele>170.0</ele><time>2026-03-30T11:33:09Z</time></trkpt><trkpt lat="33.07576663303735" lon="9.365295209421546"><ele>170.0</ele><time>2026-03-30T11:33:10Z</time></trkpt><trkpt lat="33.07583145532803" lon="9.36530276704299"><ele>170.0</ele><time>2026-03-30T11:33:11Z</time></trkpt><trkpt lat="33.07594987698398" lon="9.36534911791107"><ele>170.0</ele><time>2026-03-30T11:33:13Z</time></trkpt><trkpt lat="33.07604635561612" lon="9.36540788605598"><ele>170.0</ele><time>2026-03-30T11:33:14Z</time></trkpt><trkpt lat="33.076144003144016" lon="9.365456440042076"><ele>169.4</ele><time>2026-03-30T11:33:15Z</time></trkpt><trkpt lat="33.07622736698411" lon="9.36549718974772"><ele>168.8</ele><time>2026-03-30T11:33:16Z</time></trkpt><trkpt lat="33.07631009293718" lon="9.365540019859944"><ele>168.2</ele><time>2026-03-30T11:33:17Z</time></trkpt><trkpt lat="33.0763945141365" lon="9.365588067672265"><ele>167.6</ele><time>2026-03-30T11:33:18Z</time></trkpt><trkpt lat="33.07647275860049" lon="9.365634685955362"><ele>167.0</ele><time>2026-03-30T11:33:19Z</time></trkpt><trkpt lat="33.07656050483251" lon="9.365689542848077"><ele>166.83333333333331</ele><time>2026-03-30T11:33:20Z</time></trkpt><trkpt lat="33.07664519107229" lon="9.365737062973825"><ele>166.66666666666666</ele><time>2026-03-30T11:33:21Z</time></trkpt><trkpt lat="33.07673591315912" lon="9.365789893579477"><ele>166.5</ele><time>2026-03-30T11:33:22Z</time></trkpt><trkpt lat="33.076799112258115" lon="9.365845832743494"><ele>166.33333333333334</ele><time>2026-03-30T11:33:23Z</time></trkpt><trkpt lat="33.07686140334514" lon="9.365914972582976"><ele>166.16666666666669</ele><time>2026-03-30T11:33:24Z</time></trkpt><trkpt lat="33.07690616296606" lon="9.365973940749482"><ele>166.0</ele><time>2026-03-30T11:33:25Z</time></trkpt><trkpt lat="33.07700653336619" lon="9.366067500231857"><ele>166.0</ele><time>2026-03-30T11:33:28Z</time></trkpt><trkpt lat="33.07707713480432" lon="9.366121284655089"><ele>166.0</ele><time>2026-03-30T11:33:29Z</time></trkpt><trkpt lat="33.077145601997465" lon="9.366179132488444"><ele>166.0</ele><time>2026-03-30T11:33:30Z</time></trkpt><trkpt lat="33.07723269843045" lon="9.366235877348657"><ele>166.0</ele><time>2026-03-30T11:33:31Z</time></trkpt><trkpt lat="33.0773138415347" lon="9.36626968248492"><ele>166.0</ele><time>2026-03-30T11:33:32Z</time></trkpt><trkpt lat="33.07739062402035" lon="9.366319018404583"><ele>166.0</ele><time>2026-03-30T11:33:33Z</time></trkpt><trkpt lat="33.07746159762898" lon="9.366372926828033"><ele>166.0</ele><time>2026-03-30T11:33:34Z</time></trkpt><trkpt lat="33.07753327693884" lon="9.366443582962813"><ele>166.0</ele><time>2026-03-30T11:33:35Z</time></trkpt><trkpt lat="33.07759937032481" lon="9.366506728859418"><ele>166.0</ele><time>2026-03-30T11:33:36Z</time></trkpt><trkpt lat="33.07765458439477" lon="9.366573425055659"><ele>166.0</ele><time>2026-03-30T11:33:37Z</time></trkpt><trkpt lat="33.077704602047234" lon="9.366647819156524"><ele>166.0</ele><time>2026-03-30T11:33:38Z</time></trkpt><trkpt lat="33.077756103134035" lon="9.36673250906855"><ele>166.0</ele><time>2026-03-30T11:33:39Z</time></trkpt><trkpt lat="33.077814114740605" lon="9.366802554867588"><ele>166.0</ele><time>2026-03-30T11:33:40Z</time></trkpt><trkpt lat="33.077881978775814" lon="9.36684342432263"><ele>166.0</ele><time>2026-03-30T11:33:41Z</time></trkpt><trkpt lat="33.077957468667215" lon="9.366852870360109"><ele>166.0</ele><time>2026-03-30T11:33:42Z</time></trkpt><trkpt lat="33.07804421240466" lon="9.366830262287209"><ele>166.0</ele><time>2026-03-30T11:33:43Z</time></trkpt><trkpt lat="33.07813626480589" lon="9.366798805598986"><ele>166.0</ele><time>2026-03-30T11:33:44Z</time></trkpt><trkpt lat="33.07823486876179" lon="9.366786145830066"><ele>166.0</ele><time>2026-03-30T11:33:45Z</time></trkpt><trkpt lat="33.07832518234281" lon="9.366797121868073"><ele>166.0</ele><time>2026-03-30T11:33:46Z</time></trkpt><trkpt lat="33.078419708881654" lon="9.366839806480101"><ele>166.0</ele><time>2026-03-30T11:33:47Z</time></trkpt><trkpt lat="33.07851329191737" lon="9.366904422988554"><ele>166.0</ele><time>2026-03-30T11:33:48Z</time></trkpt><trkpt lat="33.078597656386094" lon="9.366978224820627"><ele>166.0</ele><time>2026-03-30T11:33:49Z</time></trkpt><trkpt lat="33.078687146847386" lon="9.367063160127998"><ele>166.0</ele><time>2026-03-30T11:33:50Z</time></trkpt><trkpt lat="33.07878561014532" lon="9.367142472790372"><ele>165.8</ele><time>2026-03-30T11:33:51Z</time></trkpt><trkpt lat="33.078888419147894" lon="9.36720071526529"><ele>165.60000000000002</ele><time>2026-03-30T11:33:52Z</time></trkpt><trkpt lat="33.07898201267977" lon="9.367247959687733"><ele>165.4</ele><time>2026-03-30T11:33:53Z</time></trkpt><trkpt lat="33.07907050819911" lon="9.36729141338697"><ele>165.2</ele><time>2026-03-30T11:33:54Z</time></trkpt><trkpt lat="33.07916292389584" lon="9.367348987027663"><ele>165.0</ele><time>2026-03-30T11:33:55Z</time></trkpt><trkpt lat="33.07923123890958" lon="9.367415303313622"><ele>165.0</ele><time>2026-03-30T11:33:56Z</time></trkpt><trkpt lat="33.07927757172191" lon="9.367502598117163"><ele>165.0</ele><time>2026-03-30T11:33:57Z</time></trkpt><trkpt lat="33.079313165599146" lon="9.367600388536685"><ele>165.0</ele><time>2026-03-30T11:33:58Z</time></trkpt><trkpt lat="33.079352293075296" lon="9.367707240711525"><ele>165.0</ele><time>2026-03-30T11:33:59Z</time></trkpt><trkpt lat="33.07939515241578" lon="9.367808174348964"><ele>165.0</ele><time>2026-03-30T11:34:00Z</time></trkpt><trkpt lat="33.0794451344105" lon="9.367908641845013"><ele>165.0</ele><time>2026-03-30T11:34:01Z</time></trkpt><trkpt lat="33.07949209424679" lon="9.368024387260128"><ele>165.0</ele><time>2026-03-30T11:34:02Z</time></trkpt><trkpt lat="33.07953797023521" lon="9.368133434409469"><ele>165.0</ele><time>2026-03-30T11:34:03Z</time></trkpt><trkpt lat="33.07957288271316" lon="9.368247930437015"><ele>165.0</ele><time>2026-03-30T11:34:04Z</time></trkpt><trkpt lat="33.0795956997266" lon="9.368362923426368"><ele>165.0</ele><time>2026-03-30T11:34:05Z</time></trkpt><trkpt lat="33.07961893431781" lon="9.368489146397135"><ele>165.0</ele><time>2026-03-30T11:34:06Z</time></trkpt><trkpt lat="33.07963515896516" lon="9.368621480366167"><ele>165.0</ele><time>2026-03-30T11:34:07Z</time></trkpt><trkpt lat="33.07964938036317" lon="9.368759018125818"><ele>165.0</ele><time>2026-03-30T11:34:08Z</time></trkpt><trkpt lat="33.0796517717624" lon="9.36888950567162"><ele>165.0</ele><time>2026-03-30T11:34:09Z</time></trkpt><trkpt lat="33.079651271961374" lon="9.369016780802172"><ele>165.0</ele><time>2026-03-30T11:34:10Z</time></trkpt><trkpt lat="33.079657076231484" lon="9.369141704175892"><ele>164.5</ele><time>2026-03-30T11:34:11Z</time></trkpt><trkpt lat="33.07965809932343" lon="9.369274878259745"><ele>164.0</ele><time>2026-03-30T11:34:12Z</time></trkpt><trkpt lat="33.07965816982517" lon="9.369410293142957"><ele>163.5</ele><time>2026-03-30T11:34:13Z</time></trkpt><trkpt lat="33.07965909817295" lon="9.369549035154119"><ele>163.0</ele><time>2026-03-30T11:34:14Z</time></trkpt><trkpt lat="33.07965472839533" lon="9.369703038976102"><ele>163.0</ele><time>2026-03-30T11:34:15Z</time></trkpt><trkpt lat="33.07967811324488" lon="9.369839419822341"><ele>163.0</ele><time>2026-03-30T11:34:16Z</time></trkpt><trkpt lat="33.079700936080314" lon="9.36997908518297"><ele>163.0</ele><time>2026-03-30T11:34:17Z</time></trkpt><trkpt lat="33.079720551134045" lon="9.370119961608573"><ele>163.0</ele><time>2026-03-30T11:34:18Z</time></trkpt><trkpt lat="33.079733565162535" lon="9.370256937082662"><ele>163.0</ele><time>2026-03-30T11:34:19Z</time></trkpt><trkpt lat="33.07973728426813" lon="9.37039221912818"><ele>163.0</ele><time>2026-03-30T11:34:20Z</time></trkpt><trkpt lat="33.07974378240133" lon="9.37052818889586"><ele>163.0</ele><time>2026-03-30T11:34:21Z</time></trkpt><trkpt lat="33.07974925667279" lon="9.370668600460741"><ele>163.0</ele><time>2026-03-30T11:34:22Z</time></trkpt><trkpt lat="33.079760496358375" lon="9.370804653581674"><ele>163.2</ele><time>2026-03-30T11:34:23Z</time></trkpt><trkpt lat="33.079781312866" lon="9.3709386427738"><ele>163.4</ele><time>2026-03-30T11:34:24Z</time></trkpt><trkpt lat="33.07979844191548" lon="9.371067503107023"><ele>163.6</ele><time>2026-03-30T11:34:25Z</time></trkpt><trkpt lat="33.0798216137329" lon="9.371186639005632"><ele>163.79999999999998</ele><time>2026-03-30T11:34:26Z</time></trkpt><trkpt lat="33.07985478372148" lon="9.371309035974134"><ele>164.0</ele><time>2026-03-30T11:34:27Z</time></trkpt><trkpt lat="33.07989064965134" lon="9.371420262029774"><ele>164.6</ele><time>2026-03-30T11:34:28Z</time></trkpt><trkpt lat="33.079927870509565" lon="9.371521683766874"><ele>165.2</ele><time>2026-03-30T11:34:29Z</time></trkpt><trkpt lat="33.07996161170819" lon="9.371624313694648"><ele>165.79999999999998</ele><time>2026-03-30T11:34:30Z</time></trkpt><trkpt lat="33.07999838142647" lon="9.37171326184246"><ele>166.39999999999998</ele><time>2026-03-30T11:34:31Z</time></trkpt><trkpt lat="33.08006014290867" lon="9.371800441251521"><ele>167.0</ele><time>2026-03-30T11:34:32Z</time></trkpt><trkpt lat="33.080141363129876" lon="9.371901573413151"><ele>167.2</ele><time>2026-03-30T11:34:33Z</time></trkpt><trkpt lat="33.08021556181447" lon="9.372008926255948"><ele>167.39999999999998</ele><time>2026-03-30T11:34:34Z</time></trkpt><trkpt lat="33.0802825053265" lon="9.372124120608214"><ele>167.60000000000002</ele><time>2026-03-30T11:34:35Z</time></trkpt><trkpt lat="33.080339076938806" lon="9.372228165282765"><ele>167.8</ele><time>2026-03-30T11:34:36Z</time></trkpt><trkpt lat="33.08039501828848" lon="9.372317274374808"><ele>168.0</ele><time>2026-03-30T11:34:37Z</time></trkpt><trkpt lat="33.08047510954939" lon="9.37241101961389"><ele>168.0</ele><time>2026-03-30T11:34:38Z</time></trkpt><trkpt lat="33.08055042608485" lon="9.372491951896912"><ele>168.0</ele><time>2026-03-30T11:34:39Z</time></trkpt><trkpt lat="33.080620835027396" lon="9.372567759078091"><ele>168.0</ele><time>2026-03-30T11:34:40Z</time></trkpt><trkpt lat="33.0806858520342" lon="9.372659019811826"><ele>168.0</ele><time>2026-03-30T11:34:41Z</time></trkpt><trkpt lat="33.08074457813676" lon="9.372759238238055"><ele>168.0</ele><time>2026-03-30T11:34:42Z</time></trkpt><trkpt lat="33.080792577247344" lon="9.372880739817122"><ele>168.0</ele><time>2026-03-30T11:34:43Z</time></trkpt><trkpt lat="33.080829738611705" lon="9.373017588744807"><ele>168.0</ele><time>2026-03-30T11:34:44Z</time></trkpt><trkpt lat="33.08087275408787" lon="9.373152731401447"><ele>168.0</ele><time>2026-03-30T11:34:45Z</time></trkpt><trkpt lat="33.08092515182342" lon="9.37328192255359"><ele>168.0</ele><time>2026-03-30T11:34:46Z</time></trkpt><trkpt lat="33.080980927733044" lon="9.373402996751537"><ele>168.0</ele><time>2026-03-30T11:34:47Z</time></trkpt><trkpt lat="33.08103138280773" lon="9.373528114217844"><ele>168.0</ele><time>2026-03-30T11:34:48Z</time></trkpt><trkpt lat="33.08107196251269" lon="9.373659607603349"><ele>168.0</ele><time>2026-03-30T11:34:49Z</time></trkpt><trkpt lat="33.081121964059605" lon="9.373802995258735"><ele>168.0</ele><time>2026-03-30T11:34:50Z</time></trkpt><trkpt lat="33.081192259529104" lon="9.373952226298961"><ele>168.25</ele><time>2026-03-30T11:34:51Z</time></trkpt><trkpt lat="33.08126235385014" lon="9.374101546053012"><ele>168.5</ele><time>2026-03-30T11:34:52Z</time></trkpt><trkpt lat="33.0813392467895" lon="9.374258457379169"><ele>168.75</ele><time>2026-03-30T11:34:53Z</time></trkpt><trkpt lat="33.08142119736669" lon="9.374411369901203"><ele>169.0</ele><time>2026-03-30T11:34:54Z</time></trkpt><trkpt lat="33.08150124828378" lon="9.374559446950434"><ele>169.0</ele><time>2026-03-30T11:34:55Z</time></trkpt><trkpt lat="33.081575067799676" lon="9.374693763588953"><ele>169.0</ele><time>2026-03-30T11:34:56Z</time></trkpt><trkpt lat="33.08164805874959" lon="9.374828283522007"><ele>169.0</ele><time>2026-03-30T11:34:57Z</time></trkpt><trkpt lat="33.081721739527644" lon="9.374962572213994"><ele>169.0</ele><time>2026-03-30T11:34:58Z</time></trkpt><trkpt lat="33.08179320519844" lon="9.37509888936608"><ele>169.0</ele><time>2026-03-30T11:34:59Z</time></trkpt><trkpt lat="33.08186239275107" lon="9.375238807626124"><ele>169.0</ele><time>2026-03-30T11:35:00Z</time></trkpt><trkpt lat="33.081928241564384" lon="9.375370808860287"><ele>169.0</ele><time>2026-03-30T11:35:01Z</time></trkpt><trkpt lat="33.08199243840018" lon="9.375504288264848"><ele>169.0</ele><time>2026-03-30T11:35:02Z</time></trkpt><trkpt lat="33.082055614216465" lon="9.375643562582413"><ele>169.5</ele><time>2026-03-30T11:35:03Z</time></trkpt><trkpt lat="33.08212206775185" lon="9.375791511373661"><ele>170.0</ele><time>2026-03-30T11:35:04Z</time></trkpt><trkpt lat="33.08218957489774" lon="9.375936830174368"><ele>170.5</ele><time>2026-03-30T11:35:05Z</time></trkpt><trkpt lat="33.08225984158578" lon="9.376086136832216"><ele>171.0</ele><time>2026-03-30T11:35:06Z</time></trkpt><trkpt lat="33.08232616618968" lon="9.376225514764192"><ele>171.0</ele><time>2026-03-30T11:35:07Z</time></trkpt><trkpt lat="33.08239695963534" lon="9.376372673003932"><ele>171.0</ele><time>2026-03-30T11:35:08Z</time></trkpt><trkpt lat="33.08247080893277" lon="9.376509803778967"><ele>171.0</ele><time>2026-03-30T11:35:09Z</time></trkpt><trkpt lat="33.08253854526961" lon="9.376640288734812"><ele>171.0</ele><time>2026-03-30T11:35:10Z</time></trkpt><trkpt lat="33.08261054240499" lon="9.376779855712641"><ele>170.75</ele><time>2026-03-30T11:35:11Z</time></trkpt><trkpt lat="33.08268749819853" lon="9.37691836958753"><ele>170.5</ele><time>2026-03-30T11:35:12Z</time></trkpt><trkpt lat="33.082759855741166" lon="9.377050562702411"><ele>170.25</ele><time>2026-03-30T11:35:13Z</time></trkpt><trkpt lat="33.08282941833361" lon="9.377183641637231"><ele>170.0</ele><time>2026-03-30T11:35:14Z</time></trkpt><trkpt lat="33.08289642289155" lon="9.377311303811354"><ele>170.0</ele><time>2026-03-30T11:35:15Z</time></trkpt><trkpt lat="33.08297211540371" lon="9.37744216627819"><ele>170.0</ele><time>2026-03-30T11:35:16Z</time></trkpt><trkpt lat="33.0830514472011" lon="9.377586249816163"><ele>170.0</ele><time>2026-03-30T11:35:17Z</time></trkpt><trkpt lat="33.08312369942015" lon="9.377723784957357"><ele>170.0</ele><time>2026-03-30T11:35:18Z</time></trkpt><trkpt lat="33.083191156534575" lon="9.377848869900385"><ele>170.0</ele><time>2026-03-30T11:35:19Z</time></trkpt><trkpt lat="33.0832571917697" lon="9.37797808325342"><ele>170.0</ele><time>2026-03-30T11:35:20Z</time></trkpt><trkpt lat="33.083314884130786" lon="9.378099309594226"><ele>170.0</ele><time>2026-03-30T11:35:21Z</time></trkpt><trkpt lat="33.083370330674015" lon="9.378210903571567"><ele>170.0</ele><time>2026-03-30T11:35:22Z</time></trkpt><trkpt lat="33.083427941948095" lon="9.378325592260918"><ele>170.4</ele><time>2026-03-30T11:35:23Z</time></trkpt><trkpt lat="33.083491449245756" lon="9.378440470591134"><ele>170.8</ele><time>2026-03-30T11:35:24Z</time></trkpt><trkpt lat="33.083554262281574" lon="9.378538593552502"><ele>171.2</ele><time>2026-03-30T11:35:25Z</time></trkpt><trkpt lat="33.083637399813334" lon="9.37861485268424"><ele>171.6</ele><time>2026-03-30T11:35:26Z</time></trkpt><trkpt lat="33.08372811227448" lon="9.378671493017439"><ele>172.0</ele><time>2026-03-30T11:35:27Z</time></trkpt><trkpt lat="33.083814345429744" lon="9.378706033056183"><ele>172.0</ele><time>2026-03-30T11:35:28Z</time></trkpt><trkpt lat="33.08389469416999" lon="9.37874783641156"><ele>172.0</ele><time>2026-03-30T11:35:29Z</time></trkpt><trkpt lat="33.08398074459135" lon="9.378802149748307"><ele>172.0</ele><time>2026-03-30T11:35:30Z</time></trkpt><trkpt lat="33.084055468804955" lon="9.378836734537087"><ele>172.0</ele><time>2026-03-30T11:35:31Z</time></trkpt><trkpt lat="33.08411634194953" lon="9.37886791080274"><ele>172.0</ele><time>2026-03-30T11:35:32Z</time></trkpt><trkpt lat="33.08422575340182" lon="9.378906316322967"><ele>172.0</ele><time>2026-03-30T11:35:34Z</time></trkpt><trkpt lat="33.084327683138305" lon="9.378943145066541"><ele>172.5</ele><time>2026-03-30T11:35:36Z</time></trkpt><trkpt lat="33.08441804486078" lon="9.379025020480997"><ele>173.0</ele><time>2026-03-30T11:35:38Z</time></trkpt><trkpt lat="33.08452406307404" lon="9.3790829390028"><ele>173.5</ele><time>2026-03-30T11:35:40Z</time></trkpt><trkpt lat="33.08459881168997" lon="9.379112095885738"><ele>174.0</ele><time>2026-03-30T11:35:41Z</time></trkpt><trkpt lat="33.08466055736408" lon="9.379140158700926"><ele>174.5</ele><time>2026-03-30T11:35:42Z</time></trkpt><trkpt lat="33.084720831205196" lon="9.37916419567991"><ele>175.0</ele><time>2026-03-30T11:35:43Z</time></trkpt><trkpt lat="33.084796492301436" lon="9.379190854540337"><ele>175.0</ele><time>2026-03-30T11:35:44Z</time></trkpt><trkpt lat="33.084867371618884" lon="9.379209165297876"><ele>175.0</ele><time>2026-03-30T11:35:45Z</time></trkpt><trkpt lat="33.08493230881685" lon="9.37923665550075"><ele>175.0</ele><time>2026-03-30T11:35:46Z</time></trkpt><trkpt lat="33.084976746331236" lon="9.379290374744292"><ele>175.0</ele><time>2026-03-30T11:35:47Z</time></trkpt><trkpt lat="33.084998360713" lon="9.379381195131307"><ele>175.0</ele><time>2026-03-30T11:35:48Z</time></trkpt><trkpt lat="33.08500839426737" lon="9.379471769689824"><ele>175.0</ele><time>2026-03-30T11:35:49Z</time></trkpt><trkpt lat="33.08502826187875" lon="9.379554186932372"><ele>175.0</ele><time>2026-03-30T11:35:50Z</time></trkpt><trkpt lat="33.085074831773035" lon="9.379609895767707"><ele>175.0</ele><time>2026-03-30T11:35:51Z</time></trkpt><trkpt lat="33.085157966608875" lon="9.379657840892342"><ele>175.0</ele><time>2026-03-30T11:35:52Z</time></trkpt><trkpt lat="33.08524206342535" lon="9.379709126780817"><ele>175.0</ele><time>2026-03-30T11:35:53Z</time></trkpt><trkpt lat="33.08529878991054" lon="9.379779523879753"><ele>175.0</ele><time>2026-03-30T11:35:54Z</time></trkpt><trkpt lat="33.08533899714376" lon="9.379871809606083"><ele>175.0</ele><time>2026-03-30T11:35:55Z</time></trkpt><trkpt lat="33.08538326488087" lon="9.379965020582032"><ele>175.0</ele><time>2026-03-30T11:35:56Z</time></trkpt><trkpt lat="33.08542269852327" lon="9.380028828339936"><ele>175.0</ele><time>2026-03-30T11:35:57Z</time></trkpt><trkpt lat="33.08545306100699" lon="9.380107068782984"><ele>175.0</ele><time>2026-03-30T11:35:58Z</time></trkpt><trkpt lat="33.08546250062303" lon="9.380194702564404"><ele>175.0</ele><time>2026-03-30T11:35:59Z</time></trkpt><trkpt lat="33.085475667328346" lon="9.380307406048637"><ele>175.0</ele><time>2026-03-30T11:36:00Z</time></trkpt><trkpt lat="33.08549836648747" lon="9.380423873829338"><ele>175.0</ele><time>2026-03-30T11:36:01Z</time></trkpt><trkpt lat="33.08552785980397" lon="9.380541875507136"><ele>175.0</ele><time>2026-03-30T11:36:02Z</time></trkpt><trkpt lat="33.0855608281141" lon="9.380658098378841"><ele>174.75</ele><time>2026-03-30T11:36:03Z</time></trkpt><trkpt lat="33.08559707257056" lon="9.38078491938804"><ele>174.5</ele><time>2026-03-30T11:36:04Z</time></trkpt><trkpt lat="33.085625512169784" lon="9.380909508039839"><ele>174.25</ele><time>2026-03-30T11:36:05Z</time></trkpt><trkpt lat="33.08566391197985" lon="9.381040727082473"><ele>174.0</ele><time>2026-03-30T11:36:06Z</time></trkpt><trkpt lat="33.08570376076808" lon="9.381172056469591"><ele>174.0</ele><time>2026-03-30T11:36:07Z</time></trkpt><trkpt lat="33.08573741488887" lon="9.381286789157434"><ele>174.0</ele><time>2026-03-30T11:36:08Z</time></trkpt><trkpt lat="33.085770561413256" lon="9.381381276636425"><ele>174.0</ele><time>2026-03-30T11:36:09Z</time></trkpt><trkpt lat="33.085800926750075" lon="9.381468297077147"><ele>174.0</ele><time>2026-03-30T11:36:10Z</time></trkpt><trkpt lat="33.085841998115406" lon="9.381551328523933"><ele>174.0</ele><time>2026-03-30T11:36:11Z</time></trkpt><trkpt lat="33.085896575267306" lon="9.381641827454288"><ele>174.0</ele><time>2026-03-30T11:36:12Z</time></trkpt><trkpt lat="33.085941319041765" lon="9.381734468408371"><ele>173.0</ele><time>2026-03-30T11:36:13Z</time></trkpt><trkpt lat="33.08596343057236" lon="9.381839525674453"><ele>172.0</ele><time>2026-03-30T11:36:14Z</time></trkpt><trkpt lat="33.085986174087964" lon="9.381954392099647"><ele>171.0</ele><time>2026-03-30T11:36:15Z</time></trkpt><trkpt lat="33.08601370118062" lon="9.382069975030653"><ele>170.0</ele><time>2026-03-30T11:36:16Z</time></trkpt><trkpt lat="33.08604552309382" lon="9.382181966541507"><ele>169.0</ele><time>2026-03-30T11:36:17Z</time></trkpt><trkpt lat="33.08608562007267" lon="9.382297559165952"><ele>169.0</ele><time>2026-03-30T11:36:18Z</time></trkpt><trkpt lat="33.08612854694835" lon="9.382415531963765"><ele>169.0</ele><time>2026-03-30T11:36:19Z</time></trkpt><trkpt lat="33.08617265839451" lon="9.382536317599943"><ele>169.0</ele><time>2026-03-30T11:36:20Z</time></trkpt><trkpt lat="33.08621401018894" lon="9.382632561685586"><ele>169.0</ele><time>2026-03-30T11:36:21Z</time></trkpt><trkpt lat="33.08626672720834" lon="9.382713691015978"><ele>169.0</ele><time>2026-03-30T11:36:22Z</time></trkpt><trkpt lat="33.086311517737585" lon="9.38279191385735"><ele>169.0</ele><time>2026-03-30T11:36:23Z</time></trkpt><trkpt lat="33.0863332374044" lon="9.382864795123968"><ele>169.0</ele><time>2026-03-30T11:36:24Z</time></trkpt><trkpt lat="33.08632137354281" lon="9.382977767245874"><ele>169.0</ele><time>2026-03-30T11:36:26Z</time></trkpt><trkpt lat="33.086345830006785" lon="9.383070200460141"><ele>169.0</ele><time>2026-03-30T11:36:28Z</time></trkpt><trkpt lat="33.086411060102485" lon="9.383102874566058"><ele>169.0</ele><time>2026-03-30T11:36:30Z</time></trkpt><trkpt lat="33.08647139243218" lon="9.383161884061668"><ele>169.0</ele><time>2026-03-30T11:36:32Z</time></trkpt><trkpt lat="33.08643546090476" lon="9.38326521179371"><ele>169.0</ele><time>2026-03-30T11:36:34Z</time></trkpt><trkpt lat="33.08646964881455" lon="9.383362288094588"><ele>169.0</ele><time>2026-03-30T11:36:36Z</time></trkpt><trkpt lat="33.08658899172309" lon="9.383404957901101"><ele>169.0</ele><time>2026-03-30T11:36:38Z</time></trkpt><trkpt lat="33.086662801304755" lon="9.383426166608546"><ele>169.0</ele><time>2026-03-30T11:36:39Z</time></trkpt><trkpt lat="33.08677024787734" lon="9.383428126791697"><ele>169.0</ele><time>2026-03-30T11:36:41Z</time></trkpt><trkpt lat="33.08688160698646" lon="9.383393610349584"><ele>169.33333333333334</ele><time>2026-03-30T11:36:43Z</time></trkpt><trkpt lat="33.08694572692005" lon="9.383389290460922"><ele>169.66666666666669</ele><time>2026-03-30T11:36:44Z</time></trkpt><trkpt lat="33.087014584949316" lon="9.383392026867812"><ele>170.0</ele><time>2026-03-30T11:36:45Z</time></trkpt><trkpt lat="33.08707536851337" lon="9.38341294649491"><ele>170.33333333333334</ele><time>2026-03-30T11:36:46Z</time></trkpt><trkpt lat="33.08719467369784" lon="9.38347753216302"><ele>170.66666666666666</ele><time>2026-03-30T11:36:48Z</time></trkpt><trkpt lat="33.08724791945752" lon="9.38351987806005"><ele>171.0</ele><time>2026-03-30T11:36:49Z</time></trkpt><trkpt lat="33.087305554545466" lon="9.38355752124013"><ele>171.0</ele><time>2026-03-30T11:36:50Z</time></trkpt><trkpt lat="33.087398746310015" lon="9.383626512259509"><ele>171.0</ele><time>2026-03-30T11:36:52Z</time></trkpt><trkpt lat="33.08749151872507" lon="9.383603388868982"><ele>171.0</ele><time>2026-03-30T11:36:58Z</time></trkpt><trkpt lat="33.08757391361023" lon="9.383660739168745"><ele>171.0</ele><time>2026-03-30T11:37:00Z</time></trkpt><trkpt lat="33.08765801182678" lon="9.383767974363858"><ele>171.0</ele><time>2026-03-30T11:37:02Z</time></trkpt><trkpt lat="33.087764081866894" lon="9.383854779765576"><ele>170.60000000000002</ele><time>2026-03-30T11:37:04Z</time></trkpt><trkpt lat="33.08784538242501" lon="9.383943782643142"><ele>170.2</ele><time>2026-03-30T11:37:06Z</time></trkpt><trkpt lat="33.08792390960878" lon="9.383965698677358"><ele>169.8</ele><time>2026-03-30T11:37:08Z</time></trkpt><trkpt lat="33.08805509883799" lon="9.383933359241071"><ele>169.39999999999998</ele><time>2026-03-30T11:37:10Z</time></trkpt><trkpt lat="33.08813687110346" lon="9.383921998263672"><ele>169.0</ele><time>2026-03-30T11:37:11Z</time></trkpt><trkpt lat="33.088224913089235" lon="9.383922598285888"><ele>169.0</ele><time>2026-03-30T11:37:12Z</time></trkpt><trkpt lat="33.088309522251336" lon="9.383938568955301"><ele>169.0</ele><time>2026-03-30T11:37:13Z</time></trkpt><trkpt lat="33.088399462917685" lon="9.383965420707751"><ele>169.0</ele><time>2026-03-30T11:37:14Z</time></trkpt><trkpt lat="33.08846841893374" lon="9.38400103952411"><ele>169.0</ele><time>2026-03-30T11:37:15Z</time></trkpt><trkpt lat="33.08855808107488" lon="9.384097744945352"><ele>169.0</ele><time>2026-03-30T11:37:17Z</time></trkpt><trkpt lat="33.08861988086692" lon="9.3841363941944"><ele>169.0</ele><time>2026-03-30T11:37:18Z</time></trkpt><trkpt lat="33.088669081445644" lon="9.384190414549433"><ele>169.0</ele><time>2026-03-30T11:37:19Z</time></trkpt><trkpt lat="33.08871300619442" lon="9.384326789712588"><ele>169.0</ele><time>2026-03-30T11:37:20.999Z</time></trkpt><trkpt lat="33.08872246772596" lon="9.384409636004628"><ele>169.0</ele><time>2026-03-30T11:37:21.999Z</time></trkpt><trkpt lat="33.08868287489122" lon="9.384559081892489"><ele>169.0</ele><time>2026-03-30T11:37:23.999Z</time></trkpt><trkpt lat="33.08864120335743" lon="9.384647905117562"><ele>169.0</ele><time>2026-03-30T11:37:24.999Z</time></trkpt><trkpt lat="33.088594505764455" lon="9.384735331067786"><ele>169.16666666666669</ele><time>2026-03-30T11:37:25.999Z</time></trkpt><trkpt lat="33.08856065592545" lon="9.384821876820833"><ele>169.33333333333334</ele><time>2026-03-30T11:37:26.999Z</time></trkpt><trkpt lat="33.08853924854112" lon="9.384908736505716"><ele>169.5</ele><time>2026-03-30T11:37:27.999Z</time></trkpt><trkpt lat="33.08855590320366" lon="9.385054477074373"><ele>169.66666666666666</ele><time>2026-03-30T11:37:29.999Z</time></trkpt><trkpt lat="33.08858530214651" lon="9.385128464692793"><ele>169.83333333333331</ele><time>2026-03-30T11:37:30.999Z</time></trkpt><trkpt lat="33.08856797295978" lon="9.385216953072527"><ele>170.0</ele><time>2026-03-30T11:37:32.999Z</time></trkpt><trkpt lat="33.08853582803531" lon="9.385310012606945"><ele>170.0</ele><time>2026-03-30T11:37:34.999Z</time></trkpt><trkpt lat="33.08855175724928" lon="9.38538860080578"><ele>170.0</ele><time>2026-03-30T11:37:36.999Z</time></trkpt><trkpt lat="33.08852343765731" lon="9.385496148480026"><ele>170.0</ele><time>2026-03-30T11:37:38.999Z</time></trkpt><trkpt lat="33.0884866070816" lon="9.385561759321318"><ele>170.0</ele><time>2026-03-30T11:37:39.999Z</time></trkpt><trkpt lat="33.08845379819093" lon="9.38563167948652"><ele>170.0</ele><time>2026-03-30T11:37:40.999Z</time></trkpt><trkpt lat="33.08842388365407" lon="9.385725977620778"><ele>170.0</ele><time>2026-03-30T11:37:42.999Z</time></trkpt><trkpt lat="33.08837971987007" lon="9.385842907211405"><ele>170.0</ele><time>2026-03-30T11:37:44.999Z</time></trkpt><trkpt lat="33.08834561884841" lon="9.385913376467755"><ele>170.0</ele><time>2026-03-30T11:37:46.999Z</time></trkpt><trkpt lat="33.088266080412204" lon="9.385964479554229"><ele>170.0</ele><time>2026-03-30T11:37:48.999Z</time></trkpt><trkpt lat="33.088154484008136" lon="9.385978470453486"><ele>170.0</ele><time>2026-03-30T11:37:50.999Z</time></trkpt><trkpt lat="33.088066357187536" lon="9.385983670202162"><ele>170.0</ele><time>2026-03-30T11:37:52.999Z</time></trkpt><trkpt lat="33.08796618732788" lon="9.386038571238707"><ele>170.0</ele><time>2026-03-30T11:37:54.999Z</time></trkpt><trkpt lat="33.08790937070006" lon="9.386076734388633"><ele>170.0</ele><time>2026-03-30T11:37:55.999Z</time></trkpt><trkpt lat="33.08785212651924" lon="9.386118631326168"><ele>170.0</ele><time>2026-03-30T11:37:56.999Z</time></trkpt><trkpt lat="33.087798614563155" lon="9.386159521978549"><ele>170.0</ele><time>2026-03-30T11:37:57.999Z</time></trkpt><trkpt lat="33.08769307428708" lon="9.386206517761421"><ele>170.0</ele><time>2026-03-30T11:37:59.999Z</time></trkpt><trkpt lat="33.087593160073716" lon="9.386252623780718"><ele>170.0</ele><time>2026-03-30T11:38:01.999Z</time></trkpt><trkpt lat="33.08754195576572" lon="9.386349474253667"><ele>170.2</ele><time>2026-03-30T11:38:03.999Z</time></trkpt><trkpt lat="33.08752583749018" lon="9.386465627656966"><ele>170.4</ele><time>2026-03-30T11:38:05.999Z</time></trkpt><trkpt lat="33.08744325150559" lon="9.386552500872721"><ele>170.60000000000002</ele><time>2026-03-30T11:38:07.999Z</time></trkpt><trkpt lat="33.08738967731437" lon="9.386608880397123"><ele>170.8</ele><time>2026-03-30T11:38:08.999Z</time></trkpt><trkpt lat="33.08731537228543" lon="9.38668991450787"><ele>171.0</ele><time>2026-03-30T11:38:10.999Z</time></trkpt><trkpt lat="33.08726504792479" lon="9.386794790265599"><ele>171.4</ele><time>2026-03-30T11:38:13Z</time></trkpt><trkpt lat="33.08718922396621" lon="9.386899930667866"><ele>171.8</ele><time>2026-03-30T11:38:15Z</time></trkpt><trkpt lat="33.087136094544505" lon="9.386946810599747"><ele>172.20000000000002</ele><time>2026-03-30T11:38:16Z</time></trkpt><trkpt lat="33.08706913458256" lon="9.387043986668306"><ele>172.60000000000002</ele><time>2026-03-30T11:38:18Z</time></trkpt><trkpt lat="33.08704533975597" lon="9.387115011099432"><ele>173.0</ele><time>2026-03-30T11:44:53.001Z</time></trkpt><trkpt lat="33.08694741743665" lon="9.387165013457208"><ele>173.2</ele><time>2026-03-30T11:44:55.001Z</time></trkpt><trkpt lat="33.0868846834604" lon="9.3872139798625"><ele>173.4</ele><time>2026-03-30T11:44:56.001Z</time></trkpt><trkpt lat="33.086767954670925" lon="9.387277590229136"><ele>173.6</ele><time>2026-03-30T11:44:58.001Z</time></trkpt><trkpt lat="33.08667870352277" lon="9.387304601282978"><ele>173.79999999999998</ele><time>2026-03-30T11:45:00.001Z</time></trkpt><trkpt lat="33.08671042046401" lon="9.387379367089567"><ele>174.0</ele><time>2026-03-30T11:45:05.001Z</time></trkpt><trkpt lat="33.086763969937515" lon="9.387300745301168"><ele>174.0</ele><time>2026-03-30T11:45:07.001Z</time></trkpt><trkpt lat="33.086840378911106" lon="9.387213213969153"><ele>174.0</ele><time>2026-03-30T11:45:09.001Z</time></trkpt><trkpt lat="33.08690314913494" lon="9.38718498419842"><ele>174.0</ele><time>2026-03-30T11:45:10.001Z</time></trkpt><trkpt lat="33.08701188823036" lon="9.387127174777408"><ele>174.0</ele><time>2026-03-30T11:45:12.001Z</time></trkpt><trkpt lat="33.08707441359602" lon="9.387095991966499"><ele>174.0</ele><time>2026-03-30T11:45:14.001Z</time></trkpt><trkpt lat="33.08716585939868" lon="9.387111659331712"><ele>173.79999999999998</ele><time>2026-03-30T11:45:24.001Z</time></trkpt><trkpt lat="33.08728698338023" lon="9.387131401862646"><ele>173.6</ele><time>2026-03-30T11:45:26.001Z</time></trkpt><trkpt lat="33.08735009490728" lon="9.387128225016708"><ele>173.4</ele><time>2026-03-30T11:45:27.001Z</time></trkpt><trkpt lat="33.08746074058645" lon="9.387154905421696"><ele>173.2</ele><time>2026-03-30T11:45:29.001Z</time></trkpt><trkpt lat="33.08750999736039" lon="9.38724273654435"><ele>173.0</ele><time>2026-03-30T11:45:31.001Z</time></trkpt><trkpt lat="33.0875583832733" lon="9.387357669618732"><ele>173.0</ele><time>2026-03-30T11:45:33.001Z</time></trkpt><trkpt lat="33.087590690499816" lon="9.387429432880426"><ele>173.0</ele><time>2026-03-30T11:45:36.001Z</time></trkpt><trkpt lat="33.08765053777663" lon="9.387509560163219"><ele>173.0</ele><time>2026-03-30T11:45:42.001Z</time></trkpt><trkpt lat="33.08768648932247" lon="9.38762535679774"><ele>173.0</ele><time>2026-03-30T11:45:44.001Z</time></trkpt><trkpt lat="33.087669498296925" lon="9.387764498653127"><ele>173.0</ele><time>2026-03-30T11:45:46.001Z</time></trkpt><trkpt lat="33.08771472788051" lon="9.387893788126686"><ele>173.0</ele><time>2026-03-30T11:45:48.001Z</time></trkpt><trkpt lat="33.08775895238371" lon="9.387953646078278"><ele>173.0</ele><time>2026-03-30T11:45:49.001Z</time></trkpt><trkpt lat="33.08782194343643" lon="9.388011402904267"><ele>173.0</ele><time>2026-03-30T11:45:51.001Z</time></trkpt><trkpt lat="33.08782396299549" lon="9.388095138356597"><ele>173.0</ele><time>2026-03-30T11:46:01Z</time></trkpt><trkpt lat="33.08774813498658" lon="9.388214415946917"><ele>173.0</ele><time>2026-03-30T11:46:04Z</time></trkpt><trkpt lat="33.08767931770649" lon="9.388356331857189"><ele>173.16666666666666</ele><time>2026-03-30T11:46:06Z</time></trkpt><trkpt lat="33.08765243145028" lon="9.388436180705375"><ele>173.33333333333331</ele><time>2026-03-30T11:46:07Z</time></trkpt><trkpt lat="33.08762112150711" lon="9.388516948532892"><ele>173.5</ele><time>2026-03-30T11:46:08Z</time></trkpt><trkpt lat="33.087589546297984" lon="9.388604328722618"><ele>173.66666666666666</ele><time>2026-03-30T11:46:09Z</time></trkpt><trkpt lat="33.08755983127075" lon="9.38869567447745"><ele>173.83333333333334</ele><time>2026-03-30T11:46:10Z</time></trkpt><trkpt lat="33.087524480985316" lon="9.388797914432761"><ele>174.0</ele><time>2026-03-30T11:46:11Z</time></trkpt><trkpt lat="33.087497717933786" lon="9.388882449002763"><ele>174.39999999999998</ele><time>2026-03-30T11:46:12Z</time></trkpt><trkpt lat="33.08746681458281" lon="9.388977898520297"><ele>174.8</ele><time>2026-03-30T11:46:13Z</time></trkpt><trkpt lat="33.08741026325652" lon="9.389178445988616"><ele>175.2</ele><time>2026-03-30T11:46:15Z</time></trkpt><trkpt lat="33.087395389050066" lon="9.389282256372223"><ele>175.60000000000002</ele><time>2026-03-30T11:46:16Z</time></trkpt><trkpt lat="33.08739302998414" lon="9.38938174283924"><ele>176.0</ele><time>2026-03-30T11:46:17Z</time></trkpt><trkpt lat="33.08739533382673" lon="9.3894849103152"><ele>177.0</ele><time>2026-03-30T11:46:18Z</time></trkpt><trkpt lat="33.08740639278084" lon="9.389602486513912"><ele>178.0</ele><time>2026-03-30T11:46:19Z</time></trkpt><trkpt lat="33.087409418335156" lon="9.389723924554122"><ele>179.0</ele><time>2026-03-30T11:46:20Z</time></trkpt><trkpt lat="33.087391632191114" lon="9.389845025599204"><ele>180.0</ele><time>2026-03-30T11:46:21Z</time></trkpt><trkpt lat="33.08736348833532" lon="9.389975265731758"><ele>181.0</ele><time>2026-03-30T11:46:22Z</time></trkpt><trkpt lat="33.087335863535" lon="9.390108349034335"><ele>181.25</ele><time>2026-03-30T11:46:23Z</time></trkpt><trkpt lat="33.087307176222744" lon="9.390248762773126"><ele>181.5</ele><time>2026-03-30T11:46:24Z</time></trkpt><trkpt lat="33.08727436121976" lon="9.390392847388169"><ele>181.75</ele><time>2026-03-30T11:46:25.001Z</time></trkpt><trkpt lat="33.08723618672035" lon="9.390526459688047"><ele>182.0</ele><time>2026-03-30T11:46:26.001Z</time></trkpt><trkpt lat="33.08719997828978" lon="9.390651683906675"><ele>181.39999999999998</ele><time>2026-03-30T11:46:27.001Z</time></trkpt><trkpt lat="33.08715729358722" lon="9.390763351640464"><ele>180.79999999999998</ele><time>2026-03-30T11:46:28.001Z</time></trkpt><trkpt lat="33.08711502772302" lon="9.390872173550916"><ele>180.2</ele><time>2026-03-30T11:46:29.001Z</time></trkpt><trkpt lat="33.08706436536807" lon="9.390981371824964"><ele>179.6</ele><time>2026-03-30T11:46:30.001Z</time></trkpt><trkpt lat="33.08702330609761" lon="9.391085928869474"><ele>179.0</ele><time>2026-03-30T11:46:31.001Z</time></trkpt><trkpt lat="33.0869817094379" lon="9.391203691031762"><ele>179.0</ele><time>2026-03-30T11:46:32.001Z</time></trkpt><trkpt lat="33.086939726497114" lon="9.391320563112844"><ele>179.0</ele><time>2026-03-30T11:46:33.001Z</time></trkpt><trkpt lat="33.086890386556746" lon="9.391437078927376"><ele>179.0</ele><time>2026-03-30T11:46:34.001Z</time></trkpt><trkpt lat="33.086840800322115" lon="9.391549354515439"><ele>179.0</ele><time>2026-03-30T11:46:35.001Z</time></trkpt><trkpt lat="33.08678596474232" lon="9.391659501580534"><ele>179.0</ele><time>2026-03-30T11:46:36.001Z</time></trkpt><trkpt lat="33.08672881385095" lon="9.391771687278005"><ele>178.6</ele><time>2026-03-30T11:46:37.001Z</time></trkpt><trkpt lat="33.08668027870406" lon="9.391884431684987"><ele>178.2</ele><time>2026-03-30T11:46:38.001Z</time></trkpt><trkpt lat="33.086635352463894" lon="9.392007007584146"><ele>177.79999999999998</ele><time>2026-03-30T11:46:39.001Z</time></trkpt><trkpt lat="33.08658765210008" lon="9.39212834452228"><ele>177.39999999999998</ele><time>2026-03-30T11:46:40.001Z</time></trkpt><trkpt lat="33.08654134067708" lon="9.392251471898877"><ele>177.0</ele><time>2026-03-30T11:46:41.001Z</time></trkpt><trkpt lat="33.08649429796074" lon="9.39237253554817"><ele>177.0</ele><time>2026-03-30T11:46:42.001Z</time></trkpt><trkpt lat="33.086449758615" lon="9.39249803734628"><ele>177.0</ele><time>2026-03-30T11:46:43.001Z</time></trkpt><trkpt lat="33.08640507099344" lon="9.392615534529774"><ele>177.0</ele><time>2026-03-30T11:46:44.001Z</time></trkpt><trkpt lat="33.08635464587124" lon="9.392735833961721"><ele>177.0</ele><time>2026-03-30T11:46:45.001Z</time></trkpt><trkpt lat="33.086306225984224" lon="9.392860827654125"><ele>177.0</ele><time>2026-03-30T11:46:46.001Z</time></trkpt><trkpt lat="33.08625849304076" lon="9.392971730988643"><ele>177.0</ele><time>2026-03-30T11:46:47.001Z</time></trkpt><trkpt lat="33.08621887275993" lon="9.393089319642884"><ele>177.0</ele><time>2026-03-30T11:46:48.001Z</time></trkpt><trkpt lat="33.086182663971165" lon="9.393198024488788"><ele>177.0</ele><time>2026-03-30T11:46:49.001Z</time></trkpt><trkpt lat="33.086138839439464" lon="9.39331012383919"><ele>177.0</ele><time>2026-03-30T11:46:50.001Z</time></trkpt><trkpt lat="33.086095783800694" lon="9.393420751861562"><ele>176.6</ele><time>2026-03-30T11:46:51.001Z</time></trkpt><trkpt lat="33.08605109134999" lon="9.3935316260012"><ele>176.2</ele><time>2026-03-30T11:46:52.001Z</time></trkpt><trkpt lat="33.08600216537452" lon="9.393634123890806"><ele>175.8</ele><time>2026-03-30T11:46:53.001Z</time></trkpt><trkpt lat="33.085946827192934" lon="9.393737158138798"><ele>175.4</ele><time>2026-03-30T11:46:54.001Z</time></trkpt><trkpt lat="33.08589130691378" lon="9.393848164777832"><ele>175.0</ele><time>2026-03-30T11:46:55.001Z</time></trkpt><trkpt lat="33.08581996937583" lon="9.39394981835649"><ele>175.25</ele><time>2026-03-30T11:46:56.001Z</time></trkpt><trkpt lat="33.085758579172605" lon="9.39406086099445"><ele>175.5</ele><time>2026-03-30T11:46:57.001Z</time></trkpt><trkpt lat="33.08569954683028" lon="9.39417476651828"><ele>175.75</ele><time>2026-03-30T11:46:58.001Z</time></trkpt><trkpt lat="33.08563361722455" lon="9.394298568623652"><ele>176.0</ele><time>2026-03-30T11:46:59.001Z</time></trkpt><trkpt lat="33.08556445076122" lon="9.394426581619333"><ele>176.0</ele><time>2026-03-30T11:47:00.001Z</time></trkpt><trkpt lat="33.085495349802436" lon="9.394548637436573"><ele>176.0</ele><time>2026-03-30T11:47:01.001Z</time></trkpt><trkpt lat="33.0854185570933" lon="9.394672793746349"><ele>176.0</ele><time>2026-03-30T11:47:02.001Z</time></trkpt><trkpt lat="33.085350433447026" lon="9.39479561363661"><ele>176.0</ele><time>2026-03-30T11:47:03.001Z</time></trkpt><trkpt lat="33.08528247544239" lon="9.394927306957731"><ele>176.0</ele><time>2026-03-30T11:47:04.001Z</time></trkpt><trkpt lat="33.085220516703664" lon="9.395052608970914"><ele>176.0</ele><time>2026-03-30T11:47:05.001Z</time></trkpt><trkpt lat="33.0851616641151" lon="9.395181897383445"><ele>176.0</ele><time>2026-03-30T11:47:06.001Z</time></trkpt><trkpt lat="33.08511579453929" lon="9.395307479863261"><ele>176.0</ele><time>2026-03-30T11:47:07.001Z</time></trkpt><trkpt lat="33.085078782285535" lon="9.395434077750997"><ele>175.60000000000002</ele><time>2026-03-30T11:47:08.001Z</time></trkpt><trkpt lat="33.085044818372516" lon="9.395557524612489"><ele>175.2</ele><time>2026-03-30T11:47:09.001Z</time></trkpt><trkpt lat="33.085011814854276" lon="9.395668002235016"><ele>174.8</ele><time>2026-03-30T11:47:10.001Z</time></trkpt><trkpt lat="33.084969813817594" lon="9.395764903209892"><ele>174.39999999999998</ele><time>2026-03-30T11:47:11.001Z</time></trkpt><trkpt lat="33.084911528101316" lon="9.395864834146074"><ele>174.0</ele><time>2026-03-30T11:47:12.001Z</time></trkpt><trkpt lat="33.08483539911708" lon="9.395995714760883"><ele>174.5</ele><time>2026-03-30T11:47:13.001Z</time></trkpt><trkpt lat="33.08476861460968" lon="9.396134170711253"><ele>175.0</ele><time>2026-03-30T11:47:14.001Z</time></trkpt><trkpt lat="33.08470490386405" lon="9.396264211776922"><ele>175.5</ele><time>2026-03-30T11:47:15.001Z</time></trkpt><trkpt lat="33.08464320529791" lon="9.396396204108363"><ele>176.0</ele><time>2026-03-30T11:47:16.001Z</time></trkpt><trkpt lat="33.08458846649978" lon="9.396526682113016"><ele>176.0</ele><time>2026-03-30T11:47:17.001Z</time></trkpt><trkpt lat="33.084537854378155" lon="9.396668169660455"><ele>176.0</ele><time>2026-03-30T11:47:18.001Z</time></trkpt><trkpt lat="33.08448975235032" lon="9.396818112582642"><ele>176.0</ele><time>2026-03-30T11:47:19.001Z</time></trkpt><trkpt lat="33.08444487375673" lon="9.396955907888195"><ele>176.0</ele><time>2026-03-30T11:47:20.001Z</time></trkpt><trkpt lat="33.08438887558244" lon="9.397072441212112"><ele>176.0</ele><time>2026-03-30T11:47:21.001Z</time></trkpt><trkpt lat="33.084330268539226" lon="9.397191018944536"><ele>176.0</ele><time>2026-03-30T11:47:22.001Z</time></trkpt><trkpt lat="33.084284876568944" lon="9.397303287619206"><ele>176.0</ele><time>2026-03-30T11:47:23.001Z</time></trkpt><trkpt lat="33.08425043244146" lon="9.397429135664916"><ele>176.0</ele><time>2026-03-30T11:47:24.001Z</time></trkpt><trkpt lat="33.08420936684547" lon="9.397560823585819"><ele>176.0</ele><time>2026-03-30T11:47:25.001Z</time></trkpt><trkpt lat="33.08415907430153" lon="9.397691535101814"><ele>175.75</ele><time>2026-03-30T11:47:26.001Z</time></trkpt><trkpt lat="33.084088558253754" lon="9.397818028677165"><ele>175.5</ele><time>2026-03-30T11:47:27.001Z</time></trkpt><trkpt lat="33.08401182774671" lon="9.39795336013792"><ele>175.25</ele><time>2026-03-30T11:47:28.001Z</time></trkpt><trkpt lat="33.08394202564972" lon="9.398082638042856"><ele>175.0</ele><time>2026-03-30T11:47:29.001Z</time></trkpt><trkpt lat="33.083883214249774" lon="9.39821463232431"><ele>175.5</ele><time>2026-03-30T11:47:30.001Z</time></trkpt><trkpt lat="33.08383176490278" lon="9.398344418379194"><ele>176.0</ele><time>2026-03-30T11:47:31.001Z</time></trkpt><trkpt lat="33.08378304646735" lon="9.398475566689589"><ele>176.5</ele><time>2026-03-30T11:47:32.001Z</time></trkpt><trkpt lat="33.08373217024348" lon="9.398602372146286"><ele>177.0</ele><time>2026-03-30T11:47:33.001Z</time></trkpt><trkpt lat="33.08366746218352" lon="9.398714419964536"><ele>177.0</ele><time>2026-03-30T11:47:34.001Z</time></trkpt><trkpt lat="33.083594366509196" lon="9.398816423969091"><ele>177.0</ele><time>2026-03-30T11:47:35.001Z</time></trkpt><trkpt lat="33.083517030380285" lon="9.398930492048915"><ele>177.0</ele><time>2026-03-30T11:47:36.001Z</time></trkpt><trkpt lat="33.083449362606785" lon="9.399062927539301"><ele>177.0</ele><time>2026-03-30T11:47:37.001Z</time></trkpt><trkpt lat="33.0833793368685" lon="9.399188361172463"><ele>177.5</ele><time>2026-03-30T11:47:38.001Z</time></trkpt><trkpt lat="33.083306841980956" lon="9.399307311181362"><ele>178.0</ele><time>2026-03-30T11:47:39.001Z</time></trkpt><trkpt lat="33.08323394603426" lon="9.399441040847838"><ele>178.5</ele><time>2026-03-30T11:47:40.001Z</time></trkpt><trkpt lat="33.08316456905634" lon="9.39957309206305"><ele>179.0</ele><time>2026-03-30T11:47:41.001Z</time></trkpt><trkpt lat="33.083077180769614" lon="9.399695051258464"><ele>179.5</ele><time>2026-03-30T11:47:42.001Z</time></trkpt><trkpt lat="33.08298506599741" lon="9.399804813802005"><ele>180.0</ele><time>2026-03-30T11:47:43.001Z</time></trkpt><trkpt lat="33.08288969765331" lon="9.399906074466777"><ele>180.5</ele><time>2026-03-30T11:47:44.001Z</time></trkpt><trkpt lat="33.08279199394954" lon="9.399999789426273"><ele>181.0</ele><time>2026-03-30T11:47:45.001Z</time></trkpt><trkpt lat="33.08270601609112" lon="9.400087807946303"><ele>181.0</ele><time>2026-03-30T11:47:46.001Z</time></trkpt><trkpt lat="33.082634399743284" lon="9.400177923707716"><ele>181.0</ele><time>2026-03-30T11:47:47.001Z</time></trkpt><trkpt lat="33.082583107493406" lon="9.40025677497725"><ele>181.0</ele><time>2026-03-30T11:47:48.001Z</time></trkpt><trkpt lat="33.082507235971455" lon="9.400343196226565"><ele>181.0</ele><time>2026-03-30T11:47:49.001Z</time></trkpt><trkpt lat="33.08243703207531" lon="9.40042197771653"><ele>181.0</ele><time>2026-03-30T11:47:50.001Z</time></trkpt><trkpt lat="33.08234909209017" lon="9.40052892013841"><ele>180.5</ele><time>2026-03-30T11:47:51Z</time></trkpt><trkpt lat="33.082258725890284" lon="9.400633545575378"><ele>180.0</ele><time>2026-03-30T11:47:52Z</time></trkpt><trkpt lat="33.08216136872914" lon="9.400728607542552"><ele>179.5</ele><time>2026-03-30T11:47:53Z</time></trkpt><trkpt lat="33.08206095098529" lon="9.400827711704348"><ele>179.0</ele><time>2026-03-30T11:47:54Z</time></trkpt><trkpt lat="33.081962475779065" lon="9.400919439550586"><ele>179.0</ele><time>2026-03-30T11:47:55Z</time></trkpt><trkpt lat="33.08185479453619" lon="9.40101057859623"><ele>179.0</ele><time>2026-03-30T11:47:56Z</time></trkpt><trkpt lat="33.08175432503472" lon="9.401105631305587"><ele>179.0</ele><time>2026-03-30T11:47:57Z</time></trkpt><trkpt lat="33.08165797357184" lon="9.401220625580438"><ele>179.0</ele><time>2026-03-30T11:47:58Z</time></trkpt><trkpt lat="33.08156818874743" lon="9.40133226867835"><ele>178.75</ele><time>2026-03-30T11:47:59Z</time></trkpt><trkpt lat="33.08147989487883" lon="9.401448866359962"><ele>178.5</ele><time>2026-03-30T11:48:00Z</time></trkpt><trkpt lat="33.08140016011353" lon="9.401566812239611"><ele>178.25</ele><time>2026-03-30T11:48:01Z</time></trkpt><trkpt lat="33.0813275001718" lon="9.401667490841698"><ele>178.0</ele><time>2026-03-30T11:48:02Z</time></trkpt><trkpt lat="33.08124222634913" lon="9.401765760131633"><ele>178.0</ele><time>2026-03-30T11:48:03Z</time></trkpt><trkpt lat="33.081159910225324" lon="9.401861938433122"><ele>178.0</ele><time>2026-03-30T11:48:04Z</time></trkpt><trkpt lat="33.081075609495876" lon="9.40195316163484"><ele>178.0</ele><time>2026-03-30T11:48:05Z</time></trkpt><trkpt lat="33.08098328814824" lon="9.402046264715816"><ele>178.0</ele><time>2026-03-30T11:48:06Z</time></trkpt><trkpt lat="33.08089537621952" lon="9.402146489537316"><ele>178.25</ele><time>2026-03-30T11:48:07Z</time></trkpt><trkpt lat="33.080807928250195" lon="9.40225296985195"><ele>178.5</ele><time>2026-03-30T11:48:08Z</time></trkpt><trkpt lat="33.08072666126273" lon="9.402361717113592"><ele>178.75</ele><time>2026-03-30T11:48:09Z</time></trkpt><trkpt lat="33.08065080781368" lon="9.402468849034594"><ele>179.0</ele><time>2026-03-30T11:48:10Z</time></trkpt><trkpt lat="33.08057006731559" lon="9.40258018519846"><ele>179.25</ele><time>2026-03-30T11:48:11Z</time></trkpt><trkpt lat="33.08049794581096" lon="9.402687930774604"><ele>179.5</ele><time>2026-03-30T11:48:12Z</time></trkpt><trkpt lat="33.08043726713073" lon="9.402817993737406"><ele>179.75</ele><time>2026-03-30T11:48:13Z</time></trkpt><trkpt lat="33.080382129372296" lon="9.402951306327658"><ele>180.0</ele><time>2026-03-30T11:48:14Z</time></trkpt><trkpt lat="33.08031395338146" lon="9.403077512224392"><ele>180.0</ele><time>2026-03-30T11:48:15Z</time></trkpt><trkpt lat="33.0802337064702" lon="9.403191940116649"><ele>180.0</ele><time>2026-03-30T11:48:16Z</time></trkpt><trkpt lat="33.08014825732098" lon="9.403295100217008"><ele>180.0</ele><time>2026-03-30T11:48:17Z</time></trkpt><trkpt lat="33.08005536891381" lon="9.403397414930984"><ele>180.0</ele><time>2026-03-30T11:48:18Z</time></trkpt><trkpt lat="33.07996651605874" lon="9.403505139167923"><ele>179.75</ele><time>2026-03-30T11:48:19Z</time></trkpt><trkpt lat="33.07988740937578" lon="9.403609264183663"><ele>179.5</ele><time>2026-03-30T11:48:20Z</time></trkpt><trkpt lat="33.07980739259862" lon="9.403715962923865"><ele>179.25</ele><time>2026-03-30T11:48:21Z</time></trkpt><trkpt lat="33.079722037567784" lon="9.403822132526496"><ele>179.0</ele><time>2026-03-30T11:48:22Z</time></trkpt><trkpt lat="33.07964027090098" lon="9.40392670327846"><ele>179.75</ele><time>2026-03-30T11:48:23Z</time></trkpt><trkpt lat="33.07955581763831" lon="9.404040463210697"><ele>180.5</ele><time>2026-03-30T11:48:24Z</time></trkpt><trkpt lat="33.07947008249368" lon="9.404155857991372"><ele>181.25</ele><time>2026-03-30T11:48:25Z</time></trkpt><trkpt lat="33.079382352074305" lon="9.404265499711443"><ele>182.0</ele><time>2026-03-30T11:48:26Z</time></trkpt><trkpt lat="33.07928858953375" lon="9.404360886188039"><ele>182.0</ele><time>2026-03-30T11:48:27Z</time></trkpt><trkpt lat="33.079191125835266" lon="9.404455994902822"><ele>182.0</ele><time>2026-03-30T11:48:28Z</time></trkpt><trkpt lat="33.07909596346827" lon="9.404541381366368"><ele>182.0</ele><time>2026-03-30T11:48:29Z</time></trkpt><trkpt lat="33.078988256199736" lon="9.404612440109586"><ele>182.0</ele><time>2026-03-30T11:48:30Z</time></trkpt><trkpt lat="33.078875025867006" lon="9.404686025015884"><ele>182.5</ele><time>2026-03-30T11:48:31Z</time></trkpt><trkpt lat="33.078766686464185" lon="9.404761842736145"><ele>183.0</ele><time>2026-03-30T11:48:32Z</time></trkpt><trkpt lat="33.07866402357047" lon="9.40484473429255"><ele>183.5</ele><time>2026-03-30T11:48:33Z</time></trkpt><trkpt lat="33.07856949484859" lon="9.404943788971439"><ele>184.0</ele><time>2026-03-30T11:48:34Z</time></trkpt><trkpt lat="33.07847351624871" lon="9.405061111204633"><ele>184.0</ele><time>2026-03-30T11:48:35Z</time></trkpt><trkpt lat="33.078378214511396" lon="9.405192371449756"><ele>184.0</ele><time>2026-03-30T11:48:36Z</time></trkpt><trkpt lat="33.078288393593795" lon="9.40532333881061"><ele>184.0</ele><time>2026-03-30T11:48:37Z</time></trkpt><trkpt lat="33.078189292149005" lon="9.405444169627126"><ele>184.0</ele><time>2026-03-30T11:48:38Z</time></trkpt><trkpt lat="33.07808955171919" lon="9.405551992552033"><ele>184.5</ele><time>2026-03-30T11:48:39Z</time></trkpt><trkpt lat="33.07799599866764" lon="9.405660939726781"><ele>185.0</ele><time>2026-03-30T11:48:40Z</time></trkpt><trkpt lat="33.07791236575313" lon="9.405768980627109"><ele>185.5</ele><time>2026-03-30T11:48:41Z</time></trkpt><trkpt lat="33.077817666696035" lon="9.405881287269844"><ele>186.0</ele><time>2026-03-30T11:48:42Z</time></trkpt><trkpt lat="33.07772627576228" lon="9.405982985276712"><ele>186.0</ele><time>2026-03-30T11:48:43Z</time></trkpt><trkpt lat="33.077640527931976" lon="9.406081971716453"><ele>186.0</ele><time>2026-03-30T11:48:44Z</time></trkpt><trkpt lat="33.077550207750164" lon="9.40617757520309"><ele>186.0</ele><time>2026-03-30T11:48:45Z</time></trkpt><trkpt lat="33.07745862197589" lon="9.406268289436252"><ele>186.0</ele><time>2026-03-30T11:48:46Z</time></trkpt><trkpt lat="33.0773627727881" lon="9.406361825551409"><ele>186.75</ele><time>2026-03-30T11:48:47Z</time></trkpt><trkpt lat="33.077263560675156" lon="9.406450318870032"><ele>187.5</ele><time>2026-03-30T11:48:48Z</time></trkpt><trkpt lat="33.07716474779289" lon="9.406522468354847"><ele>188.25</ele><time>2026-03-30T11:48:49Z</time></trkpt><trkpt lat="33.07706338014601" lon="9.406585806585909"><ele>189.0</ele><time>2026-03-30T11:48:50Z</time></trkpt><trkpt lat="33.07696001201654" lon="9.40663546819604"><ele>189.0</ele><time>2026-03-30T11:48:51Z</time></trkpt><trkpt lat="33.07686174693765" lon="9.406686543636402"><ele>189.0</ele><time>2026-03-30T11:48:52Z</time></trkpt><trkpt lat="33.07678503756597" lon="9.406741660960394"><ele>189.0</ele><time>2026-03-30T11:48:53Z</time></trkpt><trkpt lat="33.07670886229141" lon="9.40680961591415"><ele>189.0</ele><time>2026-03-30T11:48:54Z</time></trkpt><trkpt lat="33.07663110151042" lon="9.406891787356175"><ele>189.0</ele><time>2026-03-30T11:48:55Z</time></trkpt><trkpt lat="33.076546699332454" lon="9.406995904464118"><ele>189.5</ele><time>2026-03-30T11:48:56Z</time></trkpt><trkpt lat="33.076474779458785" lon="9.407105383015866"><ele>190.0</ele><time>2026-03-30T11:48:57Z</time></trkpt><trkpt lat="33.07639675225635" lon="9.407220543650084"><ele>190.5</ele><time>2026-03-30T11:48:58.001Z</time></trkpt><trkpt lat="33.07631917791109" lon="9.407331728378962"><ele>191.0</ele><time>2026-03-30T11:48:59.001Z</time></trkpt><trkpt lat="33.076242663201405" lon="9.40744219360169"><ele>191.0</ele><time>2026-03-30T11:49:00.001Z</time></trkpt><trkpt lat="33.076160967115534" lon="9.407554513538704"><ele>191.0</ele><time>2026-03-30T11:49:01.001Z</time></trkpt><trkpt lat="33.076075179798565" lon="9.407659429741523"><ele>191.0</ele><time>2026-03-30T11:49:02.001Z</time></trkpt><trkpt lat="33.07598978569903" lon="9.40776161528343"><ele>191.0</ele><time>2026-03-30T11:49:03.001Z</time></trkpt><trkpt lat="33.07589807177816" lon="9.407840625398514"><ele>191.0</ele><time>2026-03-30T11:49:04.001Z</time></trkpt><trkpt lat="33.07580316117837" lon="9.407922262385243"><ele>191.0</ele><time>2026-03-30T11:49:05.001Z</time></trkpt><trkpt lat="33.07572098015053" lon="9.408017403994087"><ele>191.0</ele><time>2026-03-30T11:49:06.001Z</time></trkpt><trkpt lat="33.07563943097501" lon="9.40815092740564"><ele>191.0</ele><time>2026-03-30T11:49:07.001Z</time></trkpt><trkpt lat="33.07554673473921" lon="9.408299460974034"><ele>190.5</ele><time>2026-03-30T11:49:08.001Z</time></trkpt><trkpt lat="33.075470085704836" lon="9.40842956950093"><ele>190.0</ele><time>2026-03-30T11:49:09.001Z</time></trkpt><trkpt lat="33.07540143728456" lon="9.408542246582238"><ele>189.5</ele><time>2026-03-30T11:49:10.001Z</time></trkpt><trkpt lat="33.07533153434345" lon="9.408653148966847"><ele>189.0</ele><time>2026-03-30T11:49:11.001Z</time></trkpt><trkpt lat="33.07525711936206" lon="9.408768203887735"><ele>189.0</ele><time>2026-03-30T11:49:12.001Z</time></trkpt><trkpt lat="33.07516637851682" lon="9.408866941737733"><ele>189.0</ele><time>2026-03-30T11:49:13.001Z</time></trkpt><trkpt lat="33.07506919060949" lon="9.408958779896876"><ele>189.0</ele><time>2026-03-30T11:49:14.001Z</time></trkpt><trkpt lat="33.07496898867535" lon="9.409049132368521"><ele>189.0</ele><time>2026-03-30T11:49:15.001Z</time></trkpt><trkpt lat="33.07487493351035" lon="9.409147227340577"><ele>189.0</ele><time>2026-03-30T11:49:16.001Z</time></trkpt><trkpt lat="33.07477787186915" lon="9.409252636793745"><ele>189.0</ele><time>2026-03-30T11:49:17.001Z</time></trkpt><trkpt lat="33.07468643529505" lon="9.409354100092301"><ele>189.0</ele><time>2026-03-30T11:49:18.001Z</time></trkpt><trkpt lat="33.07460708164707" lon="9.409452724415699"><ele>189.0</ele><time>2026-03-30T11:49:19.001Z</time></trkpt><trkpt lat="33.074527525929284" lon="9.409545950925745"><ele>189.0</ele><time>2026-03-30T11:49:20.001Z</time></trkpt><trkpt lat="33.074439836751424" lon="9.40964367676146"><ele>189.0</ele><time>2026-03-30T11:49:21.001Z</time></trkpt><trkpt lat="33.07436338111061" lon="9.409742833945419"><ele>189.0</ele><time>2026-03-30T11:49:22.001Z</time></trkpt><trkpt lat="33.07429249566685" lon="9.409846282355003"><ele>189.0</ele><time>2026-03-30T11:49:23.001Z</time></trkpt><trkpt lat="33.07423263326194" lon="9.409975761846898"><ele>188.5</ele><time>2026-03-30T11:49:24.001Z</time></trkpt><trkpt lat="33.074176066720355" lon="9.410109208749102"><ele>188.0</ele><time>2026-03-30T11:49:25.001Z</time></trkpt><trkpt lat="33.074106574788324" lon="9.410230794260286"><ele>187.5</ele><time>2026-03-30T11:49:26.001Z</time></trkpt><trkpt lat="33.074026278961156" lon="9.410339172964397"><ele>187.0</ele><time>2026-03-30T11:49:27.001Z</time></trkpt><trkpt lat="33.07394568300184" lon="9.410441485718632"><ele>186.25</ele><time>2026-03-30T11:49:28.001Z</time></trkpt><trkpt lat="33.073867887110715" lon="9.410543963126274"><ele>185.5</ele><time>2026-03-30T11:49:29.001Z</time></trkpt><trkpt lat="33.073795344029435" lon="9.410641293393882"><ele>184.75</ele><time>2026-03-30T11:49:30.001Z</time></trkpt><trkpt lat="33.073722651043624" lon="9.41074452080148"><ele>184.0</ele><time>2026-03-30T11:49:31.001Z</time></trkpt><trkpt lat="33.073656273875045" lon="9.410863331867056"><ele>184.0</ele><time>2026-03-30T11:49:32.001Z</time></trkpt><trkpt lat="33.073589861643796" lon="9.410990028563399"><ele>184.0</ele><time>2026-03-30T11:49:33.001Z</time></trkpt><trkpt lat="33.07352420772036" lon="9.411105794096345"><ele>184.0</ele><time>2026-03-30T11:49:34.001Z</time></trkpt><trkpt lat="33.07345623650311" lon="9.411205580179324"><ele>184.0</ele><time>2026-03-30T11:49:35.001Z</time></trkpt><trkpt lat="33.073379074193035" lon="9.411309310884741"><ele>183.79999999999998</ele><time>2026-03-30T11:49:36.001Z</time></trkpt><trkpt lat="33.07330287417389" lon="9.411407521848945"><ele>183.6</ele><time>2026-03-30T11:49:37.001Z</time></trkpt><trkpt lat="33.07323856125355" lon="9.411495628120242"><ele>183.4</ele><time>2026-03-30T11:49:38.001Z</time></trkpt><trkpt lat="33.07318373765822" lon="9.411566705462677"><ele>183.2</ele><time>2026-03-30T11:49:39.001Z</time></trkpt><trkpt lat="33.0731160252515" lon="9.411656544454031"><ele>183.0</ele><time>2026-03-30T11:49:41.001Z</time></trkpt><trkpt lat="33.0730276272107" lon="9.41175801322923"><ele>183.33333333333334</ele><time>2026-03-30T11:49:43.001Z</time></trkpt><trkpt lat="33.072969361829315" lon="9.411813923444349"><ele>183.66666666666666</ele><time>2026-03-30T11:49:44.001Z</time></trkpt><trkpt lat="33.07291083072803" lon="9.411870455673068"><ele>184.0</ele><time>2026-03-30T11:49:45.001Z</time></trkpt><trkpt lat="33.07285180997233" lon="9.411922154660221"><ele>184.33333333333331</ele><time>2026-03-30T11:49:46.001Z</time></trkpt><trkpt lat="33.07278118032155" lon="9.411989028338139"><ele>184.66666666666666</ele><time>2026-03-30T11:49:47.001Z</time></trkpt><trkpt lat="33.07270590491137" lon="9.412068512150384"><ele>185.0</ele><time>2026-03-30T11:49:48.001Z</time></trkpt><trkpt lat="33.07262880562049" lon="9.412158311295538"><ele>185.0</ele><time>2026-03-30T11:49:49.001Z</time></trkpt><trkpt lat="33.072551089027414" lon="9.412248994163134"><ele>185.0</ele><time>2026-03-30T11:49:50.001Z</time></trkpt><trkpt lat="33.072479353957355" lon="9.41233643148452"><ele>185.0</ele><time>2026-03-30T11:49:51.001Z</time></trkpt><trkpt lat="33.072410172693324" lon="9.412425449020995"><ele>185.0</ele><time>2026-03-30T11:49:52.001Z</time></trkpt><trkpt lat="33.072342508331154" lon="9.412509717165056"><ele>185.0</ele><time>2026-03-30T11:49:53.001Z</time></trkpt><trkpt lat="33.072270151622604" lon="9.41257862907607"><ele>185.2</ele><time>2026-03-30T11:49:54.001Z</time></trkpt><trkpt lat="33.07219622573863" lon="9.412633220477659"><ele>185.4</ele><time>2026-03-30T11:49:55.001Z</time></trkpt><trkpt lat="33.07210883227684" lon="9.412678899098891"><ele>185.60000000000002</ele><time>2026-03-30T11:49:56.001Z</time></trkpt><trkpt lat="33.07201304987853" lon="9.412712557566334"><ele>185.8</ele><time>2026-03-30T11:49:57Z</time></trkpt><trkpt lat="33.0719270374365" lon="9.412737137841814"><ele>186.0</ele><time>2026-03-30T11:49:58Z</time></trkpt><trkpt lat="33.071832895977764" lon="9.412768694179668"><ele>186.0</ele><time>2026-03-30T11:49:59Z</time></trkpt><trkpt lat="33.071734659789044" lon="9.412802888267203"><ele>186.0</ele><time>2026-03-30T11:50:00Z</time></trkpt><trkpt lat="33.07161322099466" lon="9.412851734586354"><ele>186.0</ele><time>2026-03-30T11:50:01Z</time></trkpt><trkpt lat="33.07151978735981" lon="9.412894108611166"><ele>186.0</ele><time>2026-03-30T11:50:02Z</time></trkpt><trkpt lat="33.071448443787396" lon="9.412952031632912"><ele>186.0</ele><time>2026-03-30T11:50:03Z</time></trkpt><trkpt lat="33.071398928509986" lon="9.41303339039203"><ele>186.20000000000002</ele><time>2026-03-30T11:50:04Z</time></trkpt><trkpt lat="33.071336916911235" lon="9.413130745829967"><ele>186.4</ele><time>2026-03-30T11:50:05Z</time></trkpt><trkpt lat="33.07126654487495" lon="9.413221617847016"><ele>186.6</ele><time>2026-03-30T11:50:06Z</time></trkpt><trkpt lat="33.07118826811433" lon="9.413311425858417"><ele>186.8</ele><time>2026-03-30T11:50:07Z</time></trkpt><trkpt lat="33.0711200085784" lon="9.413402692636032"><ele>187.0</ele><time>2026-03-30T11:50:08Z</time></trkpt><trkpt lat="33.07104760962288" lon="9.413494428305606"><ele>187.0</ele><time>2026-03-30T11:50:09Z</time></trkpt><trkpt lat="33.07099127639986" lon="9.413597219303746"><ele>187.0</ele><time>2026-03-30T11:50:10Z</time></trkpt><trkpt lat="33.07092914359294" lon="9.413709006115981"><ele>187.0</ele><time>2026-03-30T11:50:11Z</time></trkpt><trkpt lat="33.07086234905888" lon="9.413813501476934"><ele>187.0</ele><time>2026-03-30T11:50:12Z</time></trkpt><trkpt lat="33.07080417042267" lon="9.413893883071806"><ele>187.0</ele><time>2026-03-30T11:50:13Z</time></trkpt><trkpt lat="33.070747660167854" lon="9.413959600890099"><ele>186.83333333333334</ele><time>2026-03-30T11:50:14Z</time></trkpt><trkpt lat="33.07068870399386" lon="9.414033580318327"><ele>186.66666666666669</ele><time>2026-03-30T11:50:15Z</time></trkpt><trkpt lat="33.070646025728735" lon="9.41409264952168"><ele>186.5</ele><time>2026-03-30T11:50:16Z</time></trkpt><trkpt lat="33.070588075532626" lon="9.414193061137484"><ele>186.33333333333334</ele><time>2026-03-30T11:50:18Z</time></trkpt><trkpt lat="33.070553822766094" lon="9.41426048541626"><ele>186.16666666666666</ele><time>2026-03-30T11:50:20Z</time></trkpt><trkpt lat="33.07052568734861" lon="9.414376424484017"><ele>186.0</ele><time>2026-03-30T11:50:23Z</time></trkpt><trkpt lat="33.07047443537043" lon="9.414424546699598"><ele>186.00000000000003</ele><time>2026-03-30T11:50:25Z</time></trkpt><trkpt lat="33.07040482356133" lon="9.414380055665378"><ele>186.0</ele><time>2026-03-30T11:50:28Z</time></trkpt><trkpt lat="33.07045054850254" lon="9.414317980879796"><ele>186.0</ele><time>2026-03-30T11:50:34Z</time></trkpt><trkpt lat="33.07050812816934" lon="9.414286241396134"><ele>186.0</ele><time>2026-03-30T11:50:36Z</time></trkpt><trkpt lat="33.0705733262555" lon="9.414328785463402"><ele>186.0</ele><time>2026-03-30T11:52:19.001Z</time></trkpt><trkpt lat="33.07052816293459" lon="9.414411692735056"><ele>186.00000000000003</ele><time>2026-03-30T11:52:22.001Z</time></trkpt><trkpt lat="33.07046290677112" lon="9.414375732934998"><ele>186.0</ele><time>2026-03-30T11:52:24.001Z</time></trkpt><trkpt lat="33.07042973555183" lon="9.414298131459487"><ele>186.0</ele><time>2026-03-30T11:53:15.001Z</time></trkpt><trkpt lat="33.070352585387276" lon="9.414307124516181"><ele>186.0</ele><time>2026-03-30T11:53:55.001Z</time></trkpt><trkpt lat="33.0705733262555" lon="9.414328785463402"><ele>186.0</ele><time>2026-03-30T11:52:19.001Z</time></trkpt><trkpt lat="33.07052816293459" lon="9.414411692735056"><ele>186.0</ele><time>2026-03-30T11:52:22.001Z</time></trkpt><trkpt lat="33.07046290677112" lon="9.414375732934998"><ele>186.0</ele><time>2026-03-30T11:52:24.001Z</time></trkpt><trkpt lat="33.07042973555183" lon="9.414298131459487"><ele>186.0</ele><time>2026-03-30T11:53:15.001Z</time></trkpt><trkpt lat="33.070352585387276" lon="9.414307124516181"><ele>186.0</ele><time>2026-03-30T11:53:55.001Z</time></trkpt><trkpt lat="33.07041516501026" lon="9.41432582408123"><ele>186.0</ele><time>2026-03-30T12:19:56Z</time></trkpt><trkpt lat="33.07033046210057" lon="9.41440650677419"><ele>186.0</ele><time>2026-03-30T12:24:06.999Z</time></trkpt><trkpt lat="33.07028049817651" lon="9.414507295361226"><ele>186.0</ele><time>2026-03-30T12:24:08.999Z</time></trkpt><trkpt lat="33.07025937824386" lon="9.414635569952972"><ele>185.8</ele><time>2026-03-30T12:24:10.999Z</time></trkpt><trkpt lat="33.070260779922044" lon="9.414742862577242"><ele>185.60000000000002</ele><time>2026-03-30T12:24:12.999Z</time></trkpt><trkpt lat="33.07023858604263" lon="9.414818492122025"><ele>185.4</ele><time>2026-03-30T12:24:14.999Z</time></trkpt><trkpt lat="33.070192660772086" lon="9.414903052258246"><ele>185.2</ele><time>2026-03-30T12:24:16.999Z</time></trkpt><trkpt lat="33.07015237812308" lon="9.415022554943112"><ele>185.0</ele><time>2026-03-30T12:24:18.999Z</time></trkpt><trkpt lat="33.07013979557949" lon="9.41514397658106"><ele>185.0</ele><time>2026-03-30T12:24:20.999Z</time></trkpt><trkpt lat="33.070103695245315" lon="9.415276971691927"><ele>185.0</ele><time>2026-03-30T12:24:22.999Z</time></trkpt><trkpt lat="33.07007235088529" lon="9.415344256908527"><ele>185.0</ele><time>2026-03-30T12:24:23.999Z</time></trkpt><trkpt lat="33.07002622840013" lon="9.415478546890228"><ele>185.0</ele><time>2026-03-30T12:24:25.999Z</time></trkpt><trkpt lat="33.07000677378965" lon="9.415554718119441"><ele>185.0</ele><time>2026-03-30T12:24:26.999Z</time></trkpt><trkpt lat="33.0699934948764" lon="9.41563184319482"><ele>185.0</ele><time>2026-03-30T12:24:27.999Z</time></trkpt><trkpt lat="33.06997445097702" lon="9.415771850456906"><ele>184.99999999999997</ele><time>2026-03-30T12:24:29.999Z</time></trkpt><trkpt lat="33.06995979211188" lon="9.415852785336268"><ele>185.0</ele><time>2026-03-30T12:24:30.999Z</time></trkpt><trkpt lat="33.06994235976527" lon="9.415929921048185"><ele>185.0</ele><time>2026-03-30T12:24:31.999Z</time></trkpt><trkpt lat="33.06993542083537" lon="9.416011830116448"><ele>185.0</ele><time>2026-03-30T12:24:32.999Z</time></trkpt><trkpt lat="33.06992791173591" lon="9.416097064077585"><ele>185.0</ele><time>2026-03-30T12:24:33.999Z</time></trkpt><trkpt lat="33.069938279094174" lon="9.416179586733557"><ele>184.99999999999997</ele><time>2026-03-30T12:24:34.999Z</time></trkpt><trkpt lat="33.06993247588271" lon="9.416256316406766"><ele>185.0</ele><time>2026-03-30T12:24:35.999Z</time></trkpt><trkpt lat="33.069877730172" lon="9.416384289827706"><ele>185.0</ele><time>2026-03-30T12:24:37.999Z</time></trkpt><trkpt lat="33.06984562797057" lon="9.416515971838779"><ele>185.0</ele><time>2026-03-30T12:24:39.999Z</time></trkpt><trkpt lat="33.06986172345589" lon="9.416640109310881"><ele>185.0</ele><time>2026-03-30T12:24:41.999Z</time></trkpt><trkpt lat="33.06989588793096" lon="9.416756390153182"><ele>185.0</ele><time>2026-03-30T12:24:43.999Z</time></trkpt><trkpt lat="33.0698457781297" lon="9.416881215673893"><ele>185.0</ele><time>2026-03-30T12:24:45.999Z</time></trkpt><trkpt lat="33.069775134241524" lon="9.41700638895668"><ele>184.8</ele><time>2026-03-30T12:24:47.999Z</time></trkpt><trkpt lat="33.06976643585425" lon="9.417154458307035"><ele>184.6</ele><time>2026-03-30T12:24:49.999Z</time></trkpt><trkpt lat="33.06972316947446" lon="9.417276478338772"><ele>184.39999999999998</ele><time>2026-03-30T12:24:51.999Z</time></trkpt><trkpt lat="33.06967831110955" lon="9.417411169876031"><ele>184.2</ele><time>2026-03-30T12:24:53.999Z</time></trkpt><trkpt lat="33.06966834281231" lon="9.417486598579833"><ele>184.0</ele><time>2026-03-30T12:24:54.999Z</time></trkpt><trkpt lat="33.06966092381897" lon="9.417621659742426"><ele>184.0</ele><time>2026-03-30T12:24:56.999Z</time></trkpt><trkpt lat="33.06969119397236" lon="9.417761670290352"><ele>184.0</ele><time>2026-03-30T12:24:58.999Z</time></trkpt><trkpt lat="33.06969789799219" lon="9.417899056609754"><ele>184.0</ele><time>2026-03-30T12:25:00.999Z</time></trkpt><trkpt lat="33.069711944388814" lon="9.41804048914199"><ele>184.0</ele><time>2026-03-30T12:25:02.999Z</time></trkpt><trkpt lat="33.06973360903534" lon="9.418179675667938"><ele>183.6</ele><time>2026-03-30T12:25:04.999Z</time></trkpt><trkpt lat="33.069755635700346" lon="9.418324827769046"><ele>183.2</ele><time>2026-03-30T12:25:06.999Z</time></trkpt><trkpt lat="33.06980364015525" lon="9.41845636537075"><ele>182.79999999999998</ele><time>2026-03-30T12:25:08.999Z</time></trkpt><trkpt lat="33.06981635841789" lon="9.418532599175117"><ele>182.39999999999998</ele><time>2026-03-30T12:25:09.999Z</time></trkpt><trkpt lat="33.06984373185607" lon="9.418674671400057"><ele>182.0</ele><time>2026-03-30T12:25:11.999Z</time></trkpt><trkpt lat="33.069882974612504" lon="9.418815364807836"><ele>182.2</ele><time>2026-03-30T12:25:13.999Z</time></trkpt><trkpt lat="33.069906418472264" lon="9.418954916194854"><ele>182.39999999999998</ele><time>2026-03-30T12:25:15.999Z</time></trkpt><trkpt lat="33.06987772323473" lon="9.41909562829306"><ele>182.60000000000002</ele><time>2026-03-30T12:25:17.999Z</time></trkpt><trkpt lat="33.06987055437448" lon="9.419252463882012"><ele>182.8</ele><time>2026-03-30T12:25:19.999Z</time></trkpt><trkpt lat="33.069863535359744" lon="9.419328184532798"><ele>183.0</ele><time>2026-03-30T12:25:20.999Z</time></trkpt><trkpt lat="33.06987214203954" lon="9.419464440894478"><ele>183.0</ele><time>2026-03-30T12:25:22.999Z</time></trkpt><trkpt lat="33.06988253492498" lon="9.419540801903741"><ele>183.0</ele><time>2026-03-30T12:25:23.999Z</time></trkpt><trkpt lat="33.06989231196997" lon="9.419618819062954"><ele>183.0</ele><time>2026-03-30T12:25:24.999Z</time></trkpt><trkpt lat="33.06988665759087" lon="9.419696470665626"><ele>183.0</ele><time>2026-03-30T12:25:25.999Z</time></trkpt><trkpt lat="33.06987156486184" lon="9.41977387605735"><ele>183.0</ele><time>2026-03-30T12:25:26.999Z</time></trkpt><trkpt lat="33.0698608992171" lon="9.419858469590356"><ele>183.0</ele><time>2026-03-30T12:25:27.999Z</time></trkpt><trkpt lat="33.06985044707518" lon="9.419954870564835"><ele>183.0</ele><time>2026-03-30T12:25:28.999Z</time></trkpt><trkpt lat="33.06983857823661" lon="9.420035759386083"><ele>183.14285714285714</ele><time>2026-03-30T12:25:29.999Z</time></trkpt><trkpt lat="33.06982639582787" lon="9.420111824972848"><ele>183.28571428571428</ele><time>2026-03-30T12:25:30.999Z</time></trkpt><trkpt lat="33.06981495636354" lon="9.42018747596044"><ele>183.42857142857144</ele><time>2026-03-30T12:25:31.999Z</time></trkpt><trkpt lat="33.069800643064795" lon="9.420266716572543"><ele>183.57142857142856</ele><time>2026-03-30T12:25:32.999Z</time></trkpt><trkpt lat="33.06978562286282" lon="9.420347460299796"><ele>183.7142857142857</ele><time>2026-03-30T12:25:33.999Z</time></trkpt><trkpt lat="33.069760407044846" lon="9.420425946265263"><ele>183.85714285714286</ele><time>2026-03-30T12:25:34.999Z</time></trkpt><trkpt lat="33.06972679407217" lon="9.420499432247503"><ele>184.0</ele><time>2026-03-30T12:25:35.999Z</time></trkpt><trkpt lat="33.06970514319062" lon="9.420578538075949"><ele>183.57142857142858</ele><time>2026-03-30T12:25:36.999Z</time></trkpt><trkpt lat="33.06968845207967" lon="9.42066818539021"><ele>183.14285714285714</ele><time>2026-03-30T12:25:37.999Z</time></trkpt><trkpt lat="33.06968544665929" lon="9.42075585258042"><ele>182.71428571428572</ele><time>2026-03-30T12:25:38.999Z</time></trkpt><trkpt lat="33.06968803345735" lon="9.420858026938468"><ele>182.28571428571428</ele><time>2026-03-30T12:25:39.999Z</time></trkpt><trkpt lat="33.0696990372629" lon="9.420935304358808"><ele>181.85714285714283</ele><time>2026-03-30T12:25:40.999Z</time></trkpt><trkpt lat="33.069693729642175" lon="9.421017839409583"><ele>181.42857142857142</ele><time>2026-03-30T12:25:41.999Z</time></trkpt><trkpt lat="33.06967799566899" lon="9.421099884848191"><ele>181.0</ele><time>2026-03-30T12:25:42.999Z</time></trkpt><trkpt lat="33.069656339727494" lon="9.42117836074841"><ele>181.0</ele><time>2026-03-30T12:25:43.999Z</time></trkpt><trkpt lat="33.0696363531893" lon="9.421265244580253"><ele>181.0</ele><time>2026-03-30T12:25:44.999Z</time></trkpt><trkpt lat="33.06962635968022" lon="9.421360948335474"><ele>181.0</ele><time>2026-03-30T12:25:45.999Z</time></trkpt><trkpt lat="33.069615890023485" lon="9.42145930972557"><ele>181.0</ele><time>2026-03-30T12:25:46.999Z</time></trkpt><trkpt lat="33.06960894077188" lon="9.421567225556089"><ele>181.0</ele><time>2026-03-30T12:25:47.999Z</time></trkpt><trkpt lat="33.069602705613356" lon="9.421685622592907"><ele>181.0</ele><time>2026-03-30T12:25:48.999Z</time></trkpt><trkpt lat="33.06960501904562" lon="9.42179848114579"><ele>180.8</ele><time>2026-03-30T12:25:49.999Z</time></trkpt><trkpt lat="33.06960496696221" lon="9.42191115668886"><ele>180.60000000000002</ele><time>2026-03-30T12:25:50.999Z</time></trkpt><trkpt lat="33.06958851167815" lon="9.42201455781457"><ele>180.4</ele><time>2026-03-30T12:25:51.999Z</time></trkpt><trkpt lat="33.06954744832367" lon="9.422119442795742"><ele>180.2</ele><time>2026-03-30T12:25:52.999Z</time></trkpt><trkpt lat="33.06949111546022" lon="9.422201012446596"><ele>180.0</ele><time>2026-03-30T12:25:53.999Z</time></trkpt><trkpt lat="33.06942286092534" lon="9.422298981408614"><ele>180.0</ele><time>2026-03-30T12:25:54.999Z</time></trkpt><trkpt lat="33.069375858596466" lon="9.422398842283174"><ele>180.0</ele><time>2026-03-30T12:25:55.999Z</time></trkpt><trkpt lat="33.06933926290124" lon="9.422509931077608"><ele>180.0</ele><time>2026-03-30T12:25:56.999Z</time></trkpt><trkpt lat="33.06931105161089" lon="9.422623750887727"><ele>180.0</ele><time>2026-03-30T12:25:57.999Z</time></trkpt><trkpt lat="33.069288370194634" lon="9.422752276983916"><ele>180.0</ele><time>2026-03-30T12:25:58.999Z</time></trkpt><trkpt lat="33.06927390130701" lon="9.422882243570998"><ele>180.5</ele><time>2026-03-30T12:25:59.999Z</time></trkpt><trkpt lat="33.06925636606027" lon="9.42301689820828"><ele>181.0</ele><time>2026-03-30T12:26:00.999Z</time></trkpt><trkpt lat="33.06923139576662" lon="9.423145730776731"><ele>181.5</ele><time>2026-03-30T12:26:01.999Z</time></trkpt><trkpt lat="33.06919835951987" lon="9.423286148120576"><ele>182.0</ele><time>2026-03-30T12:26:02.999Z</time></trkpt><trkpt lat="33.069169445148596" lon="9.423422397820431"><ele>182.0</ele><time>2026-03-30T12:26:03.999Z</time></trkpt><trkpt lat="33.069141101419504" lon="9.423565609615249"><ele>182.0</ele><time>2026-03-30T12:26:04.999Z</time></trkpt><trkpt lat="33.06911545787087" lon="9.423700329688229"><ele>182.0</ele><time>2026-03-30T12:26:05.999Z</time></trkpt><trkpt lat="33.0690788517525" lon="9.423833680998815"><ele>182.0</ele><time>2026-03-30T12:26:06.999Z</time></trkpt><trkpt lat="33.06904236539155" lon="9.42394914618967"><ele>181.8</ele><time>2026-03-30T12:26:07.999Z</time></trkpt><trkpt lat="33.06899126948662" lon="9.424062923863108"><ele>181.6</ele><time>2026-03-30T12:26:08.999Z</time></trkpt><trkpt lat="33.068934030342206" lon="9.424167974856744"><ele>181.4</ele><time>2026-03-30T12:26:09.999Z</time></trkpt><trkpt lat="33.06888448546409" lon="9.424272105271466"><ele>181.20000000000002</ele><time>2026-03-30T12:26:10.999Z</time></trkpt><trkpt lat="33.06883554260543" lon="9.42438787292095"><ele>181.0</ele><time>2026-03-30T12:26:11.998Z</time></trkpt><trkpt lat="33.06879542936926" lon="9.424496345125245"><ele>181.0</ele><time>2026-03-30T12:26:12.998Z</time></trkpt><trkpt lat="33.06876685798033" lon="9.424622400346806"><ele>181.0</ele><time>2026-03-30T12:26:13.998Z</time></trkpt><trkpt lat="33.06873418674317" lon="9.424746197072949"><ele>181.0</ele><time>2026-03-30T12:26:14.998Z</time></trkpt><trkpt lat="33.068701000735814" lon="9.424874655655657"><ele>181.0</ele><time>2026-03-30T12:26:15.998Z</time></trkpt><trkpt lat="33.06866508570552" lon="9.424995425963157"><ele>181.0</ele><time>2026-03-30T12:26:16.998Z</time></trkpt><trkpt lat="33.06863815960689" lon="9.425111488592707"><ele>181.20000000000002</ele><time>2026-03-30T12:26:17.998Z</time></trkpt><trkpt lat="33.06861330609497" lon="9.425225925284538"><ele>181.4</ele><time>2026-03-30T12:26:18.998Z</time></trkpt><trkpt lat="33.068597603420166" lon="9.425338054456141"><ele>181.6</ele><time>2026-03-30T12:26:19.999Z</time></trkpt><trkpt lat="33.06859557416248" lon="9.42545493485726"><ele>181.8</ele><time>2026-03-30T12:26:20.999Z</time></trkpt><trkpt lat="33.0685953935272" lon="9.425573361499701"><ele>182.0</ele><time>2026-03-30T12:26:21.999Z</time></trkpt><trkpt lat="33.068579068258735" lon="9.425681721896082"><ele>182.39999999999998</ele><time>2026-03-30T12:26:22.999Z</time></trkpt><trkpt lat="33.06854554758179" lon="9.425791416748872"><ele>182.79999999999998</ele><time>2026-03-30T12:26:23.999Z</time></trkpt><trkpt lat="33.06849299240374" lon="9.425883676901483"><ele>183.2</ele><time>2026-03-30T12:26:24.999Z</time></trkpt><trkpt lat="33.068444206171066" lon="9.425974639300943"><ele>183.6</ele><time>2026-03-30T12:26:25.999Z</time></trkpt><trkpt lat="33.06838020320922" lon="9.426064241870309"><ele>184.0</ele><time>2026-03-30T12:26:26.999Z</time></trkpt><trkpt lat="33.068328210852115" lon="9.42616762920677"><ele>184.0</ele><time>2026-03-30T12:26:27.999Z</time></trkpt><trkpt lat="33.06828582735826" lon="9.42627658218908"><ele>184.0</ele><time>2026-03-30T12:26:28.999Z</time></trkpt><trkpt lat="33.06826600262867" lon="9.426376807373837"><ele>184.0</ele><time>2026-03-30T12:26:29.999Z</time></trkpt><trkpt lat="33.06825708687691" lon="9.426454286392504"><ele>184.0</ele><time>2026-03-30T12:26:30.999Z</time></trkpt><trkpt lat="33.068260557552136" lon="9.426535917431798"><ele>184.0</ele><time>2026-03-30T12:26:31.999Z</time></trkpt><trkpt lat="33.06828994910622" lon="9.42662248438983"><ele>184.0</ele><time>2026-03-30T12:26:32.999Z</time></trkpt><trkpt lat="33.06831029275405" lon="9.426700530000062"><ele>183.79999999999998</ele><time>2026-03-30T12:26:33.999Z</time></trkpt><trkpt lat="33.06828002578476" lon="9.42685368920397"><ele>183.6</ele><time>2026-03-30T12:26:35.999Z</time></trkpt><trkpt lat="33.068207714863796" lon="9.426962070169377"><ele>183.4</ele><time>2026-03-30T12:26:37.999Z</time></trkpt><trkpt lat="33.06811946788215" lon="9.427007256425314"><ele>183.2</ele><time>2026-03-30T12:26:39.999Z</time></trkpt><trkpt lat="33.06804050495282" lon="9.427080490558787"><ele>183.0</ele><time>2026-03-30T12:26:41.999Z</time></trkpt><trkpt lat="33.067953187380645" lon="9.427166833856"><ele>182.8</ele><time>2026-03-30T12:26:43.999Z</time></trkpt><trkpt lat="33.06787343198782" lon="9.427215835666978"><ele>182.60000000000002</ele><time>2026-03-30T12:26:46.999Z</time></trkpt><trkpt lat="33.06780687271324" lon="9.427345906105504"><ele>182.39999999999998</ele><time>2026-03-30T12:26:48.999Z</time></trkpt><trkpt lat="33.067825008869576" lon="9.42744842335761"><ele>182.2</ele><time>2026-03-30T12:26:50.999Z</time></trkpt><trkpt lat="33.06788764536355" lon="9.427546652270502"><ele>182.0</ele><time>2026-03-30T12:26:52.999Z</time></trkpt><trkpt lat="33.06788669174441" lon="9.427642286542358"><ele>182.0</ele><time>2026-03-30T12:26:54.999Z</time></trkpt><trkpt lat="33.06787802032382" lon="9.42773861299707"><ele>182.0</ele><time>2026-03-30T12:26:56.999Z</time></trkpt><trkpt lat="33.067854310745155" lon="9.427834454122513"><ele>182.0</ele><time>2026-03-30T12:26:58.999Z</time></trkpt><trkpt lat="33.06779424186248" lon="9.427913672132236"><ele>182.0</ele><time>2026-03-30T12:27:00.999Z</time></trkpt><trkpt lat="33.06770888528087" lon="9.427944064138828"><ele>182.0</ele><time>2026-03-30T12:27:02.999Z</time></trkpt><trkpt lat="33.067658037511116" lon="9.428061868186502"><ele>182.0</ele><time>2026-03-30T12:27:05.999Z</time></trkpt><trkpt lat="33.06761707778042" lon="9.428193270620245"><ele>182.0</ele><time>2026-03-30T12:27:07.999Z</time></trkpt><trkpt lat="33.067566273529955" lon="9.428281505778353"><ele>182.0</ele><time>2026-03-30T12:27:09.999Z</time></trkpt><trkpt lat="33.06749409797109" lon="9.428350724122744"><ele>182.0</ele><time>2026-03-30T12:27:11.999Z</time></trkpt><trkpt lat="33.067446470099405" lon="9.428412449696365"><ele>182.0</ele><time>2026-03-30T12:27:13.999Z</time></trkpt><trkpt lat="33.067373249652995" lon="9.428445655034428"><ele>182.0</ele><time>2026-03-30T12:27:15.999Z</time></trkpt><trkpt lat="33.06729355866281" lon="9.428456455441864"><ele>181.8</ele><time>2026-03-30T12:27:17.999Z</time></trkpt><trkpt lat="33.06723891173697" lon="9.42850562934743"><ele>181.6</ele><time>2026-03-30T12:27:19.999Z</time></trkpt><trkpt lat="33.06722309625608" lon="9.428619766580685"><ele>181.4</ele><time>2026-03-30T12:27:22.999Z</time></trkpt><trkpt lat="33.06728380369908" lon="9.4287595493666"><ele>181.20000000000002</ele><time>2026-03-30T12:28:31.999Z</time></trkpt><trkpt lat="33.067325610746025" lon="9.428834479329065"><ele>181.0</ele><time>2026-03-30T12:28:33.999Z</time></trkpt><trkpt lat="33.067475778241885" lon="9.428842896175937"><ele>181.20000000000002</ele><time>2026-03-30T12:29:55.999Z</time></trkpt><trkpt lat="33.06759821709831" lon="9.428785031994819"><ele>181.4</ele><time>2026-03-30T12:29:57.999Z</time></trkpt><trkpt lat="33.067713694914765" lon="9.428775833553914"><ele>181.6</ele><time>2026-03-30T12:29:59.999Z</time></trkpt><trkpt lat="33.06779931742842" lon="9.428821204107258"><ele>181.8</ele><time>2026-03-30T12:30:01.999Z</time></trkpt><trkpt lat="33.06785722447773" lon="9.428872616467343"><ele>182.0</ele><time>2026-03-30T12:30:03.999Z</time></trkpt><trkpt lat="33.067929117759654" lon="9.42886751008662"><ele>182.0</ele><time>2026-03-30T12:30:08.999Z</time></trkpt><trkpt lat="33.06798900932723" lon="9.42881166780799"><ele>182.0</ele><time>2026-03-30T12:30:10.999Z</time></trkpt><trkpt lat="33.06807154451827" lon="9.428792908986523"><ele>182.0</ele><time>2026-03-30T12:30:12.999Z</time></trkpt><trkpt lat="33.068159258230864" lon="9.428843101107828"><ele>182.0</ele><time>2026-03-30T12:30:14.999Z</time></trkpt><trkpt lat="33.06819584192257" lon="9.428918386503266"><ele>182.0</ele><time>2026-03-30T12:30:44Z</time></trkpt><trkpt lat="33.06816080892515" lon="9.428989843295877"><ele>182.0</ele><time>2026-03-30T12:31:01Z</time></trkpt><trkpt lat="33.068097698580324" lon="9.42911026154783"><ele>182.33333333333331</ele><time>2026-03-30T12:31:03Z</time></trkpt><trkpt lat="33.068063286984895" lon="9.42922297125164"><ele>182.66666666666666</ele><time>2026-03-30T12:31:05Z</time></trkpt><trkpt lat="33.06804751117259" lon="9.429350259965918"><ele>183.0</ele><time>2026-03-30T12:31:07Z</time></trkpt><trkpt lat="33.06804080102991" lon="9.429431076949859"><ele>183.33333333333334</ele><time>2026-03-30T12:31:08Z</time></trkpt><trkpt lat="33.068028067327745" lon="9.429543701583642"><ele>183.66666666666669</ele><time>2026-03-30T12:31:10Z</time></trkpt><trkpt lat="33.068066828975525" lon="9.429606223801313"><ele>184.0</ele><time>2026-03-30T12:32:36Z</time></trkpt><trkpt lat="33.06823281995538" lon="9.429643625492954"><ele>183.6</ele><time>2026-03-30T12:37:41Z</time></trkpt><trkpt lat="33.068361930475184" lon="9.429623963395997"><ele>183.2</ele><time>2026-03-30T12:37:43Z</time></trkpt><trkpt lat="33.068427142367" lon="9.429615621141462"><ele>182.79999999999998</ele><time>2026-03-30T12:37:44Z</time></trkpt><trkpt lat="33.06852804461784" lon="9.429664409052318"><ele>182.39999999999998</ele><time>2026-03-30T12:37:46Z</time></trkpt><trkpt lat="33.06857209432982" lon="9.429743147347974"><ele>182.0</ele><time>2026-03-30T12:37:48Z</time></trkpt><trkpt lat="33.06859201853548" lon="9.429832226310575"><ele>182.0</ele><time>2026-03-30T12:37:50Z</time></trkpt><trkpt lat="33.068588855212" lon="9.429965328345597"><ele>182.0</ele><time>2026-03-30T12:37:52Z</time></trkpt><trkpt lat="33.06855877770918" lon="9.430035069551097"><ele>182.0</ele><time>2026-03-30T12:39:19.999Z</time></trkpt><trkpt lat="33.068576480540415" lon="9.430123073669312"><ele>182.0</ele><time>2026-03-30T12:39:21.999Z</time></trkpt><trkpt lat="33.06865039138406" lon="9.430165687790888"><ele>182.0</ele><time>2026-03-30T12:39:25.999Z</time></trkpt><trkpt lat="33.06870526027262" lon="9.430245649935554"><ele>182.0</ele><time>2026-03-30T12:39:27.999Z</time></trkpt><trkpt lat="33.06872705256481" lon="9.430371357793886"><ele>181.8</ele><time>2026-03-30T12:39:29.999Z</time></trkpt><trkpt lat="33.06871511483403" lon="9.430487673211898"><ele>181.6</ele><time>2026-03-30T12:39:31.999Z</time></trkpt><trkpt lat="33.06875703560715" lon="9.430571598036437"><ele>181.4</ele><time>2026-03-30T12:39:33.999Z</time></trkpt><trkpt lat="33.06885514658095" lon="9.430609870699142"><ele>181.20000000000002</ele><time>2026-03-30T12:39:35.999Z</time></trkpt><trkpt lat="33.06897041773679" lon="9.430684298306169"><ele>181.0</ele><time>2026-03-30T12:39:37.999Z</time></trkpt><trkpt lat="33.06902200922458" lon="9.430742957540607"><ele>181.0</ele><time>2026-03-30T12:39:38.999Z</time></trkpt><trkpt lat="33.06910353029147" lon="9.430825673633073"><ele>181.0</ele><time>2026-03-30T12:39:40.999Z</time></trkpt><trkpt lat="33.069184833927245" lon="9.430902864268933"><ele>181.0</ele><time>2026-03-30T12:39:42.999Z</time></trkpt><trkpt lat="33.069163273457306" lon="9.43102833265115"><ele>181.0</ele><time>2026-03-30T12:39:45.999Z</time></trkpt><trkpt lat="33.06911955626504" lon="9.431098304005397"><ele>181.0</ele><time>2026-03-30T12:39:46.999Z</time></trkpt><trkpt lat="33.069094679351615" lon="9.431210274694571"><ele>180.66666666666669</ele><time>2026-03-30T12:39:48.999Z</time></trkpt><trkpt lat="33.0691345147663" lon="9.431306230997597"><ele>180.33333333333334</ele><time>2026-03-30T12:39:50.999Z</time></trkpt><trkpt lat="33.069188660856376" lon="9.431355074987474"><ele>180.0</ele><time>2026-03-30T12:39:52.999Z</time></trkpt><trkpt lat="33.069185911409825" lon="9.431454269604851"><ele>179.66666666666666</ele><time>2026-03-30T12:39:57.999Z</time></trkpt><trkpt lat="33.06922454201656" lon="9.431590957370897"><ele>179.33333333333331</ele><time>2026-03-30T12:39:59.999Z</time></trkpt><trkpt lat="33.069240796654135" lon="9.431669562739762"><ele>179.0</ele><time>2026-03-30T12:40:00.999Z</time></trkpt><trkpt lat="33.069296776414056" lon="9.431771268297574"><ele>178.66666666666666</ele><time>2026-03-30T12:40:02.999Z</time></trkpt><trkpt lat="33.06935082102418" lon="9.431830992409397"><ele>178.33333333333331</ele><time>2026-03-30T12:40:03.999Z</time></trkpt><trkpt lat="33.06939982401072" lon="9.431887569342408"><ele>178.0</ele><time>2026-03-30T12:40:04.999Z</time></trkpt><trkpt lat="33.06944535329099" lon="9.431994552297535"><ele>177.66666666666666</ele><time>2026-03-30T12:40:06.999Z</time></trkpt><trkpt lat="33.06951149926062" lon="9.431925456137085"><ele>177.33333333333334</ele><time>2026-03-30T12:40:34.999Z</time></trkpt><trkpt lat="33.06945259260064" lon="9.431977761347827"><ele>177.0</ele><time>2026-03-30T12:40:50.999Z</time></trkpt><trkpt lat="33.06948917493572" lon="9.432086700271167"><ele>176.85714285714286</ele><time>2026-03-30T12:40:52.999Z</time></trkpt><trkpt lat="33.0695619319606" lon="9.432183394660415"><ele>176.7142857142857</ele><time>2026-03-30T12:40:54.997Z</time></trkpt><trkpt lat="33.06960507163422" lon="9.432241723243552"><ele>176.57142857142856</ele><time>2026-03-30T12:40:55.997Z</time></trkpt><trkpt lat="33.06964125144601" lon="9.432312095501581"><ele>176.42857142857144</ele><time>2026-03-30T12:40:56.997Z</time></trkpt><trkpt lat="33.06967521678185" lon="9.432385483342818"><ele>176.28571428571428</ele><time>2026-03-30T12:40:57.997Z</time></trkpt><trkpt lat="33.06970839131158" lon="9.432450239251681"><ele>176.14285714285714</ele><time>2026-03-30T12:40:58.997Z</time></trkpt><trkpt lat="33.0697413556719" lon="9.432524604621548"><ele>176.0</ele><time>2026-03-30T12:40:59.997Z</time></trkpt><trkpt lat="33.06977434682321" lon="9.432629642464105"><ele>176.0</ele><time>2026-03-30T12:41:01.997Z</time></trkpt><trkpt lat="33.06975839254116" lon="9.432712651501351"><ele>176.0</ele><time>2026-03-30T12:41:03.998Z</time></trkpt><trkpt lat="33.06971024291247" lon="9.43276685978033"><ele>176.0</ele><time>2026-03-30T12:41:05.998Z</time></trkpt><trkpt lat="33.06963399698622" lon="9.432790715215305"><ele>176.0</ele><time>2026-03-30T12:41:08.998Z</time></trkpt><trkpt lat="33.069528071946124" lon="9.43294270596314"><ele>176.0</ele><time>2026-03-30T12:41:40.999Z</time></trkpt><trkpt lat="33.06947306992492" lon="9.433020147908682"><ele>175.8</ele><time>2026-03-30T12:41:42.999Z</time></trkpt><trkpt lat="33.06942914491119" lon="9.433100653099208"><ele>175.60000000000002</ele><time>2026-03-30T12:41:44.999Z</time></trkpt><trkpt lat="33.06933322821655" lon="9.433170182868967"><ele>175.4</ele><time>2026-03-30T12:41:46.999Z</time></trkpt><trkpt lat="33.06922111935231" lon="9.433187778859798"><ele>175.2</ele><time>2026-03-30T12:41:48.999Z</time></trkpt><trkpt lat="33.0691576591964" lon="9.433205721669594"><ele>175.0</ele><time>2026-03-30T12:41:49.999Z</time></trkpt><trkpt lat="33.06907404155158" lon="9.433302065046439"><ele>175.0</ele><time>2026-03-30T12:41:51.999Z</time></trkpt><trkpt lat="33.0690221497845" lon="9.433437717433382"><ele>175.0</ele><time>2026-03-30T12:41:53.999Z</time></trkpt><trkpt lat="33.068968488206714" lon="9.43356268647167"><ele>175.0</ele><time>2026-03-30T12:41:55.999Z</time></trkpt><trkpt lat="33.06893997601829" lon="9.433637015475957"><ele>175.0</ele><time>2026-03-30T12:41:56.999Z</time></trkpt><trkpt lat="33.06892356760296" lon="9.43376404161114"><ele>175.0</ele><time>2026-03-30T12:41:58.999Z</time></trkpt><trkpt lat="33.06892671718638" lon="9.433846647185854"><ele>174.6</ele><time>2026-03-30T12:41:59.999Z</time></trkpt><trkpt lat="33.068905700013836" lon="9.433952203501072"><ele>174.2</ele><time>2026-03-30T12:42:01.999Z</time></trkpt><trkpt lat="33.06891109333328" lon="9.43407654614686"><ele>173.8</ele><time>2026-03-30T12:42:03.999Z</time></trkpt><trkpt lat="33.06888681968672" lon="9.434207071038218"><ele>173.4</ele><time>2026-03-30T12:42:05.999Z</time></trkpt><trkpt lat="33.06884964903158" lon="9.434279724704796"><ele>173.0</ele><time>2026-03-30T12:42:06.999Z</time></trkpt><trkpt lat="33.06880636836566" lon="9.434355091602239"><ele>173.0</ele><time>2026-03-30T12:42:07.999Z</time></trkpt><trkpt lat="33.068759168536396" lon="9.434430312283641"><ele>173.0</ele><time>2026-03-30T12:42:08.999Z</time></trkpt><trkpt lat="33.06871520117862" lon="9.434499806162362"><ele>173.0</ele><time>2026-03-30T12:42:09.999Z</time></trkpt><trkpt lat="33.06866082014186" lon="9.434573287236095"><ele>173.0</ele><time>2026-03-30T12:42:10.999Z</time></trkpt><trkpt lat="33.068601013981876" lon="9.434637052321849"><ele>173.0</ele><time>2026-03-30T12:42:11.999Z</time></trkpt><trkpt lat="33.06853374261162" lon="9.434707110194957"><ele>173.0</ele><time>2026-03-30T12:42:12.999Z</time></trkpt><trkpt lat="33.06846587230119" lon="9.434784401140725"><ele>173.0</ele><time>2026-03-30T12:42:13.999Z</time></trkpt><trkpt lat="33.06840038910225" lon="9.434872828780373"><ele>173.0</ele><time>2026-03-30T12:42:14.999Z</time></trkpt><trkpt lat="33.06833967352639" lon="9.434965768263364"><ele>173.0</ele><time>2026-03-30T12:42:15.999Z</time></trkpt><trkpt lat="33.06828068399756" lon="9.435061823023368"><ele>173.0</ele><time>2026-03-30T12:42:16.999Z</time></trkpt><trkpt lat="33.06822700003096" lon="9.435161688135766"><ele>173.0</ele><time>2026-03-30T12:42:17.999Z</time></trkpt><trkpt lat="33.06817407467557" lon="9.435264735519802"><ele>173.2</ele><time>2026-03-30T12:42:18.999Z</time></trkpt><trkpt lat="33.06812002469477" lon="9.435371504565936"><ele>173.4</ele><time>2026-03-30T12:42:19.999Z</time></trkpt><trkpt lat="33.0680725588121" lon="9.435462700108367"><ele>173.6</ele><time>2026-03-30T12:42:20.999Z</time></trkpt><trkpt lat="33.06801511991812" lon="9.435568861645116"><ele>173.79999999999998</ele><time>2026-03-30T12:42:21.999Z</time></trkpt><trkpt lat="33.06796088429149" lon="9.435666362897216"><ele>174.0</ele><time>2026-03-30T12:42:22.999Z</time></trkpt><trkpt lat="33.067908486660826" lon="9.435761249698164"><ele>173.5</ele><time>2026-03-30T12:42:23.999Z</time></trkpt><trkpt lat="33.06782834504136" lon="9.435855163272265"><ele>173.0</ele><time>2026-03-30T12:42:24.999Z</time></trkpt><trkpt lat="33.06772046384811" lon="9.436015282477122"><ele>172.5</ele><time>2026-03-30T12:42:26.999Z</time></trkpt><trkpt lat="33.067681135820706" lon="9.436129658103814"><ele>172.0</ele><time>2026-03-30T12:42:27.999Z</time></trkpt><trkpt lat="33.06764452605621" lon="9.4362342632427"><ele>172.39999999999998</ele><time>2026-03-30T12:42:28.999Z</time></trkpt><trkpt lat="33.06760162410581" lon="9.436336026742476"><ele>172.79999999999998</ele><time>2026-03-30T12:42:29.999Z</time></trkpt><trkpt lat="33.06756979088406" lon="9.436426004593622"><ele>173.2</ele><time>2026-03-30T12:42:30.999Z</time></trkpt><trkpt lat="33.067568312705134" lon="9.436521886364366"><ele>173.6</ele><time>2026-03-30T12:42:31.999Z</time></trkpt><trkpt lat="33.0675738701851" lon="9.436610599899556"><ele>174.0</ele><time>2026-03-30T12:42:32.999Z</time></trkpt><trkpt lat="33.067481942467914" lon="9.436728625461717"><ele>174.0</ele><time>2026-03-30T12:42:33.999Z</time></trkpt><trkpt lat="33.06744854598961" lon="9.436820499163767"><ele>174.0</ele><time>2026-03-30T12:42:34.999Z</time></trkpt><trkpt lat="33.06742546721288" lon="9.43692645401375"><ele>174.0</ele><time>2026-03-30T12:42:35.999Z</time></trkpt><trkpt lat="33.06743043619751" lon="9.437045559775614"><ele>174.0</ele><time>2026-03-30T12:42:36.999Z</time></trkpt><trkpt lat="33.06739639029948" lon="9.437151758872199"><ele>174.0</ele><time>2026-03-30T12:42:37.999Z</time></trkpt><trkpt lat="33.06736204520883" lon="9.437260906131582"><ele>174.2</ele><time>2026-03-30T12:42:38.999Z</time></trkpt><trkpt lat="33.06732524412075" lon="9.437380495131318"><ele>174.39999999999998</ele><time>2026-03-30T12:42:39.999Z</time></trkpt><trkpt lat="33.06728618079029" lon="9.437501227172381"><ele>174.6</ele><time>2026-03-30T12:42:40.999Z</time></trkpt><trkpt lat="33.06724199590485" lon="9.437600300756229"><ele>174.8</ele><time>2026-03-30T12:42:41.999Z</time></trkpt><trkpt lat="33.067194787547855" lon="9.437707676974494"><ele>175.0</ele><time>2026-03-30T12:42:43Z</time></trkpt><trkpt lat="33.06714902861546" lon="9.437813685638064"><ele>175.0</ele><time>2026-03-30T12:42:44Z</time></trkpt><trkpt lat="33.06710433191699" lon="9.43791516005301"><ele>175.0</ele><time>2026-03-30T12:42:45Z</time></trkpt><trkpt lat="33.06706561693657" lon="9.43803163016441"><ele>175.0</ele><time>2026-03-30T12:42:46Z</time></trkpt><trkpt lat="33.067028059381215" lon="9.43815072554132"><ele>175.0</ele><time>2026-03-30T12:42:47Z</time></trkpt><trkpt lat="33.06699094741188" lon="9.438283868822651"><ele>175.0</ele><time>2026-03-30T12:42:48Z</time></trkpt><trkpt lat="33.06695057630417" lon="9.43841809989083"><ele>175.0</ele><time>2026-03-30T12:42:49Z</time></trkpt><trkpt lat="33.06690990431065" lon="9.438550000376456"><ele>175.0</ele><time>2026-03-30T12:42:50Z</time></trkpt><trkpt lat="33.06687394317483" lon="9.438677632685085"><ele>175.0</ele><time>2026-03-30T12:42:51Z</time></trkpt><trkpt lat="33.066839162229186" lon="9.438806470125316"><ele>175.0</ele><time>2026-03-30T12:42:52Z</time></trkpt><trkpt lat="33.06680704479829" lon="9.438945706971971"><ele>175.0</ele><time>2026-03-30T12:42:53Z</time></trkpt><trkpt lat="33.06677248411276" lon="9.43908018366135"><ele>175.0</ele><time>2026-03-30T12:42:54Z</time></trkpt><trkpt lat="33.06673129029621" lon="9.439223154975634"><ele>175.0</ele><time>2026-03-30T12:42:55Z</time></trkpt><trkpt lat="33.06668647020145" lon="9.43935554995298"><ele>175.0</ele><time>2026-03-30T12:42:56Z</time></trkpt><trkpt lat="33.06664813465166" lon="9.439496466463332"><ele>175.0</ele><time>2026-03-30T12:42:57Z</time></trkpt><trkpt lat="33.06661638395286" lon="9.439628129136347"><ele>175.0</ele><time>2026-03-30T12:42:58Z</time></trkpt><trkpt lat="33.06658024381639" lon="9.439757493522611"><ele>175.0</ele><time>2026-03-30T12:42:59Z</time></trkpt><trkpt lat="33.066551419321804" lon="9.439885269575596"><ele>175.0</ele><time>2026-03-30T12:42:59.998Z</time></trkpt><trkpt lat="33.066509558018865" lon="9.440015793483328"><ele>175.5</ele><time>2026-03-30T12:43:00.998Z</time></trkpt><trkpt lat="33.066479081456514" lon="9.440151118925806"><ele>176.0</ele><time>2026-03-30T12:43:01.998Z</time></trkpt><trkpt lat="33.06644376295893" lon="9.44029059588778"><ele>176.5</ele><time>2026-03-30T12:43:02.998Z</time></trkpt><trkpt lat="33.06640540675683" lon="9.440425235760378"><ele>177.0</ele><time>2026-03-30T12:43:03.998Z</time></trkpt><trkpt lat="33.06637197440591" lon="9.440565110913674"><ele>177.5</ele><time>2026-03-30T12:43:04.998Z</time></trkpt><trkpt lat="33.06634740021374" lon="9.440701294828502"><ele>178.0</ele><time>2026-03-30T12:43:05.998Z</time></trkpt><trkpt lat="33.06629732880024" lon="9.440842393666756"><ele>178.5</ele><time>2026-03-30T12:43:06.998Z</time></trkpt><trkpt lat="33.06625792091321" lon="9.440983899575102"><ele>179.0</ele><time>2026-03-30T12:43:07.999Z</time></trkpt><trkpt lat="33.06622878761819" lon="9.441124420518983"><ele>179.0</ele><time>2026-03-30T12:43:08.999Z</time></trkpt><trkpt lat="33.06620312874752" lon="9.44127078781057"><ele>179.0</ele><time>2026-03-30T12:43:09.999Z</time></trkpt><trkpt lat="33.0661744732006" lon="9.44141723448679"><ele>179.0</ele><time>2026-03-30T12:43:10.999Z</time></trkpt><trkpt lat="33.06614804151217" lon="9.441559775104425"><ele>179.0</ele><time>2026-03-30T12:43:11.999Z</time></trkpt><trkpt lat="33.066107894955955" lon="9.441712231832987"><ele>179.0</ele><time>2026-03-30T12:43:12.999Z</time></trkpt><trkpt lat="33.06607179532072" lon="9.441866716538266"><ele>179.0</ele><time>2026-03-30T12:43:13.999Z</time></trkpt><trkpt lat="33.06603699659744" lon="9.442018951092962"><ele>179.0</ele><time>2026-03-30T12:43:14.999Z</time></trkpt><trkpt lat="33.06599125458904" lon="9.442177831913131"><ele>179.0</ele><time>2026-03-30T12:43:15.999Z</time></trkpt><trkpt lat="33.06594923570556" lon="9.442325000076416"><ele>179.0</ele><time>2026-03-30T12:43:16.999Z</time></trkpt><trkpt lat="33.06589931515994" lon="9.442486277593122"><ele>179.0</ele><time>2026-03-30T12:43:17.999Z</time></trkpt><trkpt lat="33.06585266331867" lon="9.442639310807552"><ele>179.0</ele><time>2026-03-30T12:43:18.999Z</time></trkpt><trkpt lat="33.06580335848812" lon="9.442787592548955"><ele>179.0</ele><time>2026-03-30T12:43:19.999Z</time></trkpt><trkpt lat="33.06576242234513" lon="9.442941740867136"><ele>178.75</ele><time>2026-03-30T12:43:20.999Z</time></trkpt><trkpt lat="33.06572774374167" lon="9.443091637688891"><ele>178.5</ele><time>2026-03-30T12:43:21.999Z</time></trkpt><trkpt lat="33.06569322285083" lon="9.443238300022522"><ele>178.25</ele><time>2026-03-30T12:43:22.999Z</time></trkpt><trkpt lat="33.065655597933464" lon="9.443385725688719"><ele>178.0</ele><time>2026-03-30T12:43:23.999Z</time></trkpt><trkpt lat="33.065622644553045" lon="9.443515922649024"><ele>178.0</ele><time>2026-03-30T12:43:24.999Z</time></trkpt><trkpt lat="33.06558759068289" lon="9.443656783893323"><ele>178.0</ele><time>2026-03-30T12:43:25.999Z</time></trkpt><trkpt lat="33.065550692150296" lon="9.443792193646852"><ele>178.0</ele><time>2026-03-30T12:43:26.999Z</time></trkpt><trkpt lat="33.065505143754876" lon="9.443927309733798"><ele>178.0</ele><time>2026-03-30T12:43:27.999Z</time></trkpt><trkpt lat="33.065451026162705" lon="9.44405068002284"><ele>178.75</ele><time>2026-03-30T12:43:28.999Z</time></trkpt><trkpt lat="33.065384748550024" lon="9.444180809857878"><ele>179.5</ele><time>2026-03-30T12:43:29.999Z</time></trkpt><trkpt lat="33.06533627537266" lon="9.44430683952404"><ele>180.25</ele><time>2026-03-30T12:43:30.999Z</time></trkpt><trkpt lat="33.06528186854859" lon="9.444424494758795"><ele>181.0</ele><time>2026-03-30T12:43:31.999Z</time></trkpt><trkpt lat="33.06522675248598" lon="9.444558961502755"><ele>181.0</ele><time>2026-03-30T12:43:32.999Z</time></trkpt><trkpt lat="33.06517521756034" lon="9.44468909782546"><ele>181.0</ele><time>2026-03-30T12:43:33.999Z</time></trkpt><trkpt lat="33.065120171486576" lon="9.444825607946699"><ele>181.0</ele><time>2026-03-30T12:43:34.999Z</time></trkpt><trkpt lat="33.065059104835164" lon="9.444961605810064"><ele>181.0</ele><time>2026-03-30T12:43:36Z</time></trkpt><trkpt lat="33.06499415704548" lon="9.445093926299943"><ele>181.0</ele><time>2026-03-30T12:43:37Z</time></trkpt><trkpt lat="33.06492680458125" lon="9.445224875297791"><ele>181.0</ele><time>2026-03-30T12:43:38Z</time></trkpt><trkpt lat="33.06486312672423" lon="9.445363205531539"><ele>181.0</ele><time>2026-03-30T12:43:39Z</time></trkpt><trkpt lat="33.06480446006803" lon="9.445493422277833"><ele>181.0</ele><time>2026-03-30T12:43:40Z</time></trkpt><trkpt lat="33.06474810971106" lon="9.445621046476903"><ele>180.75</ele><time>2026-03-30T12:43:41Z</time></trkpt><trkpt lat="33.064694009600956" lon="9.44575283655711"><ele>180.5</ele><time>2026-03-30T12:43:42Z</time></trkpt><trkpt lat="33.06465372406556" lon="9.445881978499141"><ele>180.25</ele><time>2026-03-30T12:43:43Z</time></trkpt><trkpt lat="33.064617691877885" lon="9.446019113122784"><ele>180.0</ele><time>2026-03-30T12:43:44Z</time></trkpt><trkpt lat="33.06458237543057" lon="9.446162240673027"><ele>179.75</ele><time>2026-03-30T12:43:45Z</time></trkpt><trkpt lat="33.06455142302844" lon="9.44630572085777"><ele>179.5</ele><time>2026-03-30T12:43:46Z</time></trkpt><trkpt lat="33.064517225966235" lon="9.446462342726715"><ele>179.25</ele><time>2026-03-30T12:43:47Z</time></trkpt><trkpt lat="33.064485285835985" lon="9.44661622967397"><ele>179.0</ele><time>2026-03-30T12:43:48Z</time></trkpt><trkpt lat="33.064453226982" lon="9.446765510938878"><ele>179.0</ele><time>2026-03-30T12:43:49Z</time></trkpt><trkpt lat="33.06441517427704" lon="9.4469156305709"><ele>179.0</ele><time>2026-03-30T12:43:50Z</time></trkpt><trkpt lat="33.06436320887821" lon="9.447051399272825"><ele>179.0</ele><time>2026-03-30T12:43:51Z</time></trkpt><trkpt lat="33.06430700708295" lon="9.447197361684765"><ele>179.0</ele><time>2026-03-30T12:43:52Z</time></trkpt><trkpt lat="33.06425738728411" lon="9.447345268582234"><ele>179.0</ele><time>2026-03-30T12:43:53Z</time></trkpt><trkpt lat="33.064206973915944" lon="9.447488687701757"><ele>179.0</ele><time>2026-03-30T12:43:54Z</time></trkpt><trkpt lat="33.06415199805729" lon="9.447631240238021"><ele>179.0</ele><time>2026-03-30T12:43:55Z</time></trkpt><trkpt lat="33.064103473277086" lon="9.447774419710319"><ele>179.0</ele><time>2026-03-30T12:43:56Z</time></trkpt><trkpt lat="33.06405452619441" lon="9.447913485265031"><ele>179.0</ele><time>2026-03-30T12:43:57Z</time></trkpt><trkpt lat="33.064002076963725" lon="9.448054322143923"><ele>179.0</ele><time>2026-03-30T12:43:58Z</time></trkpt><trkpt lat="33.0639485529801" lon="9.448190621273648"><ele>179.0</ele><time>2026-03-30T12:43:59Z</time></trkpt><trkpt lat="33.06389284955204" lon="9.448322715716461"><ele>179.0</ele><time>2026-03-30T12:44:00Z</time></trkpt><trkpt lat="33.06383198839537" lon="9.448446531992735"><ele>179.0</ele><time>2026-03-30T12:44:01Z</time></trkpt><trkpt lat="33.06377107365648" lon="9.448575956661985"><ele>179.0</ele><time>2026-03-30T12:44:02Z</time></trkpt><trkpt lat="33.06370987520286" lon="9.448707553110056"><ele>179.0</ele><time>2026-03-30T12:44:03Z</time></trkpt><trkpt lat="33.06365402510832" lon="9.448839832446403"><ele>179.0</ele><time>2026-03-30T12:44:04Z</time></trkpt><trkpt lat="33.06360186386081" lon="9.4489888058221"><ele>179.0</ele><time>2026-03-30T12:44:05Z</time></trkpt><trkpt lat="33.06354647021272" lon="9.449134199257273"><ele>179.0</ele><time>2026-03-30T12:44:06Z</time></trkpt><trkpt lat="33.063490666358334" lon="9.449278605696843"><ele>179.0</ele><time>2026-03-30T12:44:07Z</time></trkpt><trkpt lat="33.063431925332" lon="9.449423270770623"><ele>179.0</ele><time>2026-03-30T12:44:08Z</time></trkpt><trkpt lat="33.063375800833434" lon="9.449566995845078"><ele>179.25</ele><time>2026-03-30T12:44:09Z</time></trkpt><trkpt lat="33.063317595859" lon="9.449710953343986"><ele>179.5</ele><time>2026-03-30T12:44:10Z</time></trkpt><trkpt lat="33.06325953162107" lon="9.449861020511062"><ele>179.75</ele><time>2026-03-30T12:44:11Z</time></trkpt><trkpt lat="33.0632015252668" lon="9.450006239764743"><ele>180.0</ele><time>2026-03-30T12:44:12Z</time></trkpt><trkpt lat="33.063144605590644" lon="9.450146374956386"><ele>180.25</ele><time>2026-03-30T12:44:13Z</time></trkpt><trkpt lat="33.06307633292243" lon="9.450280100315291"><ele>180.5</ele><time>2026-03-30T12:44:14Z</time></trkpt><trkpt lat="33.063008289648515" lon="9.450420200061316"><ele>180.75</ele><time>2026-03-30T12:44:15Z</time></trkpt><trkpt lat="33.06293614320936" lon="9.450574982885204"><ele>181.0</ele><time>2026-03-30T12:44:16Z</time></trkpt><trkpt lat="33.06286386081408" lon="9.450729275873925"><ele>181.66666666666669</ele><time>2026-03-30T12:44:17Z</time></trkpt><trkpt lat="33.062787005311286" lon="9.450878945913693"><ele>182.33333333333334</ele><time>2026-03-30T12:44:18Z</time></trkpt><trkpt lat="33.06271018717647" lon="9.45104378626686"><ele>183.0</ele><time>2026-03-30T12:44:19Z</time></trkpt><trkpt lat="33.06263495588599" lon="9.451208520134983"><ele>183.0</ele><time>2026-03-30T12:44:20Z</time></trkpt><trkpt lat="33.062557221850696" lon="9.45136798641711"><ele>183.0</ele><time>2026-03-30T12:44:21Z</time></trkpt><trkpt lat="33.06247731260426" lon="9.451525774058597"><ele>183.0</ele><time>2026-03-30T12:44:22Z</time></trkpt><trkpt lat="33.06239678800742" lon="9.451684352675477"><ele>183.0</ele><time>2026-03-30T12:44:23Z</time></trkpt><trkpt lat="33.06232289407679" lon="9.451834732626027"><ele>183.0</ele><time>2026-03-30T12:44:24Z</time></trkpt><trkpt lat="33.06225080723057" lon="9.451990310928585"><ele>183.0</ele><time>2026-03-30T12:44:25Z</time></trkpt><trkpt lat="33.06218581584735" lon="9.45214154768552"><ele>183.0</ele><time>2026-03-30T12:44:26Z</time></trkpt><trkpt lat="33.062115313554585" lon="9.452313357325783"><ele>183.33333333333334</ele><time>2026-03-30T12:44:27Z</time></trkpt><trkpt lat="33.06204106176146" lon="9.452486656969857"><ele>183.66666666666669</ele><time>2026-03-30T12:44:28Z</time></trkpt><trkpt lat="33.06196918859242" lon="9.452653875508616"><ele>184.0</ele><time>2026-03-30T12:44:29Z</time></trkpt><trkpt lat="33.061898265286516" lon="9.452827911189521"><ele>184.33333333333334</ele><time>2026-03-30T12:44:30Z</time></trkpt><trkpt lat="33.06183209381374" lon="9.453000504578005"><ele>184.66666666666666</ele><time>2026-03-30T12:44:31Z</time></trkpt><trkpt lat="33.06177048073433" lon="9.45317107843473"><ele>185.0</ele><time>2026-03-30T12:44:32Z</time></trkpt><trkpt lat="33.06170841934628" lon="9.453349229422907"><ele>185.0</ele><time>2026-03-30T12:44:33Z</time></trkpt><trkpt lat="33.06165138688525" lon="9.453513467179139"><ele>185.0</ele><time>2026-03-30T12:44:34Z</time></trkpt><trkpt lat="33.061586761179214" lon="9.4536799004755"><ele>185.0</ele><time>2026-03-30T12:44:35Z</time></trkpt><trkpt lat="33.061506547670085" lon="9.453860542416923"><ele>185.33333333333331</ele><time>2026-03-30T12:44:36Z</time></trkpt><trkpt lat="33.0614273936866" lon="9.454032541857721"><ele>185.66666666666666</ele><time>2026-03-30T12:44:37Z</time></trkpt><trkpt lat="33.06135036002865" lon="9.454205856123524"><ele>186.0</ele><time>2026-03-30T12:44:38Z</time></trkpt><trkpt lat="33.06127386664812" lon="9.454373339522759"><ele>186.0</ele><time>2026-03-30T12:44:39Z</time></trkpt><trkpt lat="33.061196972755994" lon="9.454544730372005"><ele>186.0</ele><time>2026-03-30T12:44:40Z</time></trkpt><trkpt lat="33.06112935519822" lon="9.454706393413263"><ele>186.0</ele><time>2026-03-30T12:44:41Z</time></trkpt><trkpt lat="33.06106151975801" lon="9.454864116714107"><ele>185.66666666666666</ele><time>2026-03-30T12:44:42Z</time></trkpt><trkpt lat="33.06098761569736" lon="9.455031408571719"><ele>185.33333333333331</ele><time>2026-03-30T12:44:43Z</time></trkpt><trkpt lat="33.06091032719529" lon="9.455196830195653"><ele>185.0</ele><time>2026-03-30T12:44:44Z</time></trkpt><trkpt lat="33.060824701989524" lon="9.455353946329783"><ele>185.5</ele><time>2026-03-30T12:44:45Z</time></trkpt><trkpt lat="33.06074507179719" lon="9.45550622044905"><ele>186.0</ele><time>2026-03-30T12:44:46Z</time></trkpt><trkpt lat="33.06066418631489" lon="9.45565141831046"><ele>186.5</ele><time>2026-03-30T12:44:47Z</time></trkpt><trkpt lat="33.06058332010558" lon="9.455803361103994"><ele>187.0</ele><time>2026-03-30T12:44:48Z</time></trkpt><trkpt lat="33.06050942313296" lon="9.455942657758174"><ele>187.0</ele><time>2026-03-30T12:44:49Z</time></trkpt><trkpt lat="33.06043399979766" lon="9.456089293668503"><ele>187.0</ele><time>2026-03-30T12:44:50Z</time></trkpt><trkpt lat="33.06035487127449" lon="9.45624046245246"><ele>187.0</ele><time>2026-03-30T12:44:51Z</time></trkpt><trkpt lat="33.06027845060923" lon="9.456391146009901"><ele>187.0</ele><time>2026-03-30T12:44:52Z</time></trkpt><trkpt lat="33.06020583920554" lon="9.456549242111459"><ele>186.75</ele><time>2026-03-30T12:44:53Z</time></trkpt><trkpt lat="33.06013391393975" lon="9.456703118496977"><ele>186.5</ele><time>2026-03-30T12:44:54Z</time></trkpt><trkpt lat="33.060060479197084" lon="9.456853932241325"><ele>186.25</ele><time>2026-03-30T12:44:55Z</time></trkpt><trkpt lat="33.05998422846737" lon="9.45701337213196"><ele>186.0</ele><time>2026-03-30T12:44:56.001Z</time></trkpt><trkpt lat="33.05991113328637" lon="9.457168400177887"><ele>186.66666666666666</ele><time>2026-03-30T12:44:57.001Z</time></trkpt><trkpt lat="33.05984209458819" lon="9.457324051202429"><ele>187.33333333333331</ele><time>2026-03-30T12:44:58.001Z</time></trkpt><trkpt lat="33.05976934126138" lon="9.457491240613217"><ele>188.0</ele><time>2026-03-30T12:44:59.001Z</time></trkpt><trkpt lat="33.05969336792844" lon="9.457644976203035"><ele>188.0</ele><time>2026-03-30T12:45:00.001Z</time></trkpt><trkpt lat="33.05962729216968" lon="9.457800796883992"><ele>188.0</ele><time>2026-03-30T12:45:01.001Z</time></trkpt><trkpt lat="33.05956208181051" lon="9.457974202812402"><ele>188.0</ele><time>2026-03-30T12:45:02.001Z</time></trkpt><trkpt lat="33.05950707824592" lon="9.458130468065818"><ele>188.0</ele><time>2026-03-30T12:45:03.001Z</time></trkpt><trkpt lat="33.05945826415481" lon="9.458297985812743"><ele>188.0</ele><time>2026-03-30T12:45:04.001Z</time></trkpt><trkpt lat="33.0594185501577" lon="9.45846299948233"><ele>188.0</ele><time>2026-03-30T12:45:05.001Z</time></trkpt><trkpt lat="33.059379377535016" lon="9.458619135758477"><ele>188.0</ele><time>2026-03-30T12:45:05.999Z</time></trkpt><trkpt lat="33.05932967580167" lon="9.45877394344949"><ele>188.0</ele><time>2026-03-30T12:45:06.999Z</time></trkpt><trkpt lat="33.05926941932012" lon="9.458928624921043"><ele>188.0</ele><time>2026-03-30T12:45:07.999Z</time></trkpt><trkpt lat="33.05920672042238" lon="9.45907381681126"><ele>188.0</ele><time>2026-03-30T12:45:08.999Z</time></trkpt><trkpt lat="33.05913869039708" lon="9.45921949920598"><ele>188.0</ele><time>2026-03-30T12:45:09.999Z</time></trkpt><trkpt lat="33.059077997137024" lon="9.459361638185408"><ele>188.0</ele><time>2026-03-30T12:45:10.999Z</time></trkpt><trkpt lat="33.059025667743356" lon="9.459510978775775"><ele>188.0</ele><time>2026-03-30T12:45:11.999Z</time></trkpt><trkpt lat="33.05898301143829" lon="9.459681698735649"><ele>188.0</ele><time>2026-03-30T12:45:12.999Z</time></trkpt><trkpt lat="33.05894352856057" lon="9.459853925165145"><ele>188.0</ele><time>2026-03-30T12:45:14Z</time></trkpt><trkpt lat="33.05890069123489" lon="9.460024033357676"><ele>188.0</ele><time>2026-03-30T12:45:15Z</time></trkpt><trkpt lat="33.058856963268475" lon="9.460199817010396"><ele>188.0</ele><time>2026-03-30T12:45:16Z</time></trkpt><trkpt lat="33.05881150889634" lon="9.460368984474595"><ele>188.0</ele><time>2026-03-30T12:45:17Z</time></trkpt><trkpt lat="33.05876343839485" lon="9.460550278866696"><ele>188.0</ele><time>2026-03-30T12:45:18Z</time></trkpt><trkpt lat="33.058718231816954" lon="9.460721955305099"><ele>188.5</ele><time>2026-03-30T12:45:19Z</time></trkpt><trkpt lat="33.058672203163994" lon="9.46088943228049"><ele>189.0</ele><time>2026-03-30T12:45:20Z</time></trkpt><trkpt lat="33.05863519113877" lon="9.461053991312399"><ele>189.5</ele><time>2026-03-30T12:45:21Z</time></trkpt><trkpt lat="33.058602849656516" lon="9.461216065028719"><ele>190.0</ele><time>2026-03-30T12:45:22Z</time></trkpt><trkpt lat="33.05856292555597" lon="9.46137964970273"><ele>190.2</ele><time>2026-03-30T12:45:23Z</time></trkpt><trkpt lat="33.05854652513276" lon="9.461524950335782"><ele>190.4</ele><time>2026-03-30T12:45:24Z</time></trkpt><trkpt lat="33.058526559307154" lon="9.461658245940438"><ele>190.60000000000002</ele><time>2026-03-30T12:45:25Z</time></trkpt><trkpt lat="33.058511215878156" lon="9.461782135848557"><ele>190.8</ele><time>2026-03-30T12:45:26Z</time></trkpt><trkpt lat="33.0584911127659" lon="9.461891608031287"><ele>191.0</ele><time>2026-03-30T12:45:27Z</time></trkpt><trkpt lat="33.058469558546356" lon="9.461988436815492"><ele>191.0</ele><time>2026-03-30T12:45:28Z</time></trkpt><trkpt lat="33.05844934784763" lon="9.462087822285628"><ele>191.0</ele><time>2026-03-30T12:45:29Z</time></trkpt><trkpt lat="33.05842389103577" lon="9.4621932664239"><ele>191.0</ele><time>2026-03-30T12:45:30Z</time></trkpt><trkpt lat="33.0583994663992" lon="9.462294928686418"><ele>191.0</ele><time>2026-03-30T12:45:31Z</time></trkpt><trkpt lat="33.05837408612807" lon="9.46239872090885"><ele>191.0</ele><time>2026-03-30T12:45:32Z</time></trkpt><trkpt lat="33.058354402567936" lon="9.46250214851029"><ele>191.0</ele><time>2026-03-30T12:45:33Z</time></trkpt><trkpt lat="33.058357497116425" lon="9.462599809705816"><ele>190.66666666666666</ele><time>2026-03-30T12:45:34Z</time></trkpt><trkpt lat="33.058359335474" lon="9.46270672907157"><ele>190.33333333333331</ele><time>2026-03-30T12:45:35Z</time></trkpt><trkpt lat="33.05837112274288" lon="9.462793322838253"><ele>190.0</ele><time>2026-03-30T12:45:36Z</time></trkpt><trkpt lat="33.05841790647778" lon="9.462883744681479"><ele>189.66666666666666</ele><time>2026-03-30T12:45:38Z</time></trkpt><trkpt lat="33.05841591824935" lon="9.462989025289968"><ele>189.33333333333334</ele><time>2026-03-30T12:45:40Z</time></trkpt><trkpt lat="33.058387054385086" lon="9.463070887510483"><ele>189.0</ele><time>2026-03-30T12:45:41Z</time></trkpt><trkpt lat="33.05835014388449" lon="9.463166795534764"><ele>189.0</ele><time>2026-03-30T12:45:42Z</time></trkpt><trkpt lat="33.05830835336913" lon="9.46326642542447"><ele>189.0</ele><time>2026-03-30T12:45:43Z</time></trkpt><trkpt lat="33.058264998261215" lon="9.463385512469703"><ele>189.0</ele><time>2026-03-30T12:45:44Z</time></trkpt><trkpt lat="33.058219153031466" lon="9.463509809260355"><ele>189.0</ele><time>2026-03-30T12:45:45Z</time></trkpt><trkpt lat="33.0581797982884" lon="9.463632008767942"><ele>189.0</ele><time>2026-03-30T12:45:46Z</time></trkpt><trkpt lat="33.058139771248875" lon="9.463764425139193"><ele>189.75</ele><time>2026-03-30T12:45:47Z</time></trkpt><trkpt lat="33.058099765958985" lon="9.463909072226196"><ele>190.5</ele><time>2026-03-30T12:45:48Z</time></trkpt><trkpt lat="33.058058584077635" lon="9.464049581462673"><ele>191.25</ele><time>2026-03-30T12:45:49Z</time></trkpt><trkpt lat="33.058006773908616" lon="9.464188633065717"><ele>192.0</ele><time>2026-03-30T12:45:50Z</time></trkpt><trkpt lat="33.057956351592246" lon="9.464323566515239"><ele>192.0</ele><time>2026-03-30T12:45:51Z</time></trkpt><trkpt lat="33.057903746211615" lon="9.464459393686079"><ele>192.0</ele><time>2026-03-30T12:45:52Z</time></trkpt><trkpt lat="33.05784948538854" lon="9.464591097573003"><ele>192.0</ele><time>2026-03-30T12:45:53Z</time></trkpt><trkpt lat="33.05779577874345" lon="9.46471888735307"><ele>192.0</ele><time>2026-03-30T12:45:54Z</time></trkpt><trkpt lat="33.05773865439313" lon="9.464859758964106"><ele>192.25</ele><time>2026-03-30T12:45:55Z</time></trkpt><trkpt lat="33.05768064398147" lon="9.465009513730559"><ele>192.5</ele><time>2026-03-30T12:45:56Z</time></trkpt><trkpt lat="33.0576173089081" lon="9.465158324662236"><ele>192.75</ele><time>2026-03-30T12:45:57Z</time></trkpt><trkpt lat="33.057552686519166" lon="9.465315181691865"><ele>193.0</ele><time>2026-03-30T12:45:58Z</time></trkpt><trkpt lat="33.05748542676399" lon="9.465473883278095"><ele>194.0</ele><time>2026-03-30T12:45:59Z</time></trkpt><trkpt lat="33.057420112774935" lon="9.465637315119826"><ele>195.0</ele><time>2026-03-30T12:46:00Z</time></trkpt><trkpt lat="33.057360966088275" lon="9.465787358737868"><ele>196.0</ele><time>2026-03-30T12:46:01Z</time></trkpt><trkpt lat="33.05729922677142" lon="9.465944222989238"><ele>197.0</ele><time>2026-03-30T12:46:02Z</time></trkpt><trkpt lat="33.05723067875717" lon="9.46611809835002"><ele>197.0</ele><time>2026-03-30T12:46:03Z</time></trkpt><trkpt lat="33.0571623302708" lon="9.46628880679498"><ele>197.0</ele><time>2026-03-30T12:46:04Z</time></trkpt><trkpt lat="33.05709332095964" lon="9.466475759978538"><ele>197.0</ele><time>2026-03-30T12:46:05Z</time></trkpt><trkpt lat="33.057026388153695" lon="9.466647463744792"><ele>197.0</ele><time>2026-03-30T12:46:06Z</time></trkpt><trkpt lat="33.05696151303851" lon="9.466812833843607"><ele>197.0</ele><time>2026-03-30T12:46:07Z</time></trkpt><trkpt lat="33.056898619129306" lon="9.466971084852936"><ele>197.0</ele><time>2026-03-30T12:46:08Z</time></trkpt><trkpt lat="33.05683602463498" lon="9.467125025043455"><ele>197.0</ele><time>2026-03-30T12:46:09Z</time></trkpt><trkpt lat="33.05677518241368" lon="9.467288249488757"><ele>197.0</ele><time>2026-03-30T12:46:10Z</time></trkpt><trkpt lat="33.056711138879905" lon="9.467454421169867"><ele>197.0</ele><time>2026-03-30T12:46:11Z</time></trkpt><trkpt lat="33.056647800111705" lon="9.467621761094705"><ele>197.0</ele><time>2026-03-30T12:46:12Z</time></trkpt><trkpt lat="33.05657933845845" lon="9.467789228285081"><ele>198.0</ele><time>2026-03-30T12:46:13Z</time></trkpt><trkpt lat="33.05650716277195" lon="9.467958800825645"><ele>199.0</ele><time>2026-03-30T12:46:14Z</time></trkpt><trkpt lat="33.05643752405792" lon="9.468129951147883"><ele>200.0</ele><time>2026-03-30T12:46:15Z</time></trkpt><trkpt lat="33.05637381600286" lon="9.468300048701478"><ele>200.0</ele><time>2026-03-30T12:46:16Z</time></trkpt><trkpt lat="33.056316979817815" lon="9.46846215858174"><ele>200.0</ele><time>2026-03-30T12:46:17Z</time></trkpt><trkpt lat="33.056257791197616" lon="9.468608570762278"><ele>200.0</ele><time>2026-03-30T12:46:18Z</time></trkpt><trkpt lat="33.05619457124067" lon="9.46876241897031"><ele>200.0</ele><time>2026-03-30T12:46:19Z</time></trkpt><trkpt lat="33.05612956180988" lon="9.468898400077721"><ele>199.75</ele><time>2026-03-30T12:46:20Z</time></trkpt><trkpt lat="33.05606533828504" lon="9.469052741351893"><ele>199.5</ele><time>2026-03-30T12:46:21Z</time></trkpt><trkpt lat="33.05601216079294" lon="9.469189371639914"><ele>199.25</ele><time>2026-03-30T12:46:22Z</time></trkpt><trkpt lat="33.05595332730369" lon="9.469332443596082"><ele>199.0</ele><time>2026-03-30T12:46:23Z</time></trkpt><trkpt lat="33.05589594291345" lon="9.46946699685881"><ele>198.75</ele><time>2026-03-30T12:46:24Z</time></trkpt><trkpt lat="33.05583250167088" lon="9.469612110617234"><ele>198.5</ele><time>2026-03-30T12:46:25Z</time></trkpt><trkpt lat="33.055770482286604" lon="9.469760916482315"><ele>198.25</ele><time>2026-03-30T12:46:26.001Z</time></trkpt><trkpt lat="33.05570840246079" lon="9.469925542259526"><ele>198.0</ele><time>2026-03-30T12:46:27.001Z</time></trkpt><trkpt lat="33.05564779392058" lon="9.470093665521533"><ele>198.0</ele><time>2026-03-30T12:46:28.001Z</time></trkpt><trkpt lat="33.0555843702041" lon="9.470255837469505"><ele>198.0</ele><time>2026-03-30T12:46:29.001Z</time></trkpt><trkpt lat="33.055515993059565" lon="9.470412583126711"><ele>198.0</ele><time>2026-03-30T12:46:30.001Z</time></trkpt><trkpt lat="33.055447476738344" lon="9.470570879154245"><ele>198.0</ele><time>2026-03-30T12:46:31.001Z</time></trkpt><trkpt lat="33.055372728906526" lon="9.470739644636016"><ele>198.0</ele><time>2026-03-30T12:46:32.001Z</time></trkpt><trkpt lat="33.05529858416026" lon="9.470900542543017"><ele>198.0</ele><time>2026-03-30T12:46:33.001Z</time></trkpt><trkpt lat="33.05521965124126" lon="9.471072317566053"><ele>198.0</ele><time>2026-03-30T12:46:34.001Z</time></trkpt><trkpt lat="33.05514439677586" lon="9.471235855644938"><ele>197.33333333333331</ele><time>2026-03-30T12:46:35.001Z</time></trkpt><trkpt lat="33.05507279429062" lon="9.471406579035392"><ele>196.66666666666666</ele><time>2026-03-30T12:46:36.001Z</time></trkpt><trkpt lat="33.055006764428214" lon="9.47155849064669"><ele>196.0</ele><time>2026-03-30T12:46:37.001Z</time></trkpt><trkpt lat="33.05493702830449" lon="9.471714480305293"><ele>196.5</ele><time>2026-03-30T12:46:38.001Z</time></trkpt><trkpt lat="33.0548717283324" lon="9.471862941459952"><ele>197.0</ele><time>2026-03-30T12:46:39.001Z</time></trkpt><trkpt lat="33.05481671912542" lon="9.472017510520164"><ele>197.5</ele><time>2026-03-30T12:46:40.001Z</time></trkpt><trkpt lat="33.054767512683895" lon="9.472170046291843"><ele>198.0</ele><time>2026-03-30T12:46:41.001Z</time></trkpt><trkpt lat="33.054723780609066" lon="9.472321151579663"><ele>198.0</ele><time>2026-03-30T12:46:42.001Z</time></trkpt><trkpt lat="33.054684280090555" lon="9.47246723638413"><ele>198.0</ele><time>2026-03-30T12:46:43.001Z</time></trkpt><trkpt lat="33.054645408258395" lon="9.472613029991138"><ele>198.0</ele><time>2026-03-30T12:46:44.001Z</time></trkpt><trkpt lat="33.05460819748083" lon="9.472761258960107"><ele>198.0</ele><time>2026-03-30T12:46:45.001Z</time></trkpt><trkpt lat="33.054569039161315" lon="9.472914889533804"><ele>198.25</ele><time>2026-03-30T12:46:46.001Z</time></trkpt><trkpt lat="33.05453579979875" lon="9.47307135560473"><ele>198.5</ele><time>2026-03-30T12:46:47.001Z</time></trkpt><trkpt lat="33.0545076706321" lon="9.473223329395822"><ele>198.75</ele><time>2026-03-30T12:46:48.001Z</time></trkpt><trkpt lat="33.054480777704306" lon="9.473379783961292"><ele>199.0</ele><time>2026-03-30T12:46:49.001Z</time></trkpt><trkpt lat="33.05445850831291" lon="9.473525602482185"><ele>199.0</ele><time>2026-03-30T12:46:50.001Z</time></trkpt><trkpt lat="33.05444193975432" lon="9.473671870985562"><ele>199.0</ele><time>2026-03-30T12:46:51.001Z</time></trkpt><trkpt lat="33.054427379949566" lon="9.473805488063178"><ele>199.0</ele><time>2026-03-30T12:46:52.001Z</time></trkpt><trkpt lat="33.05442717069222" lon="9.473938400113433"><ele>199.0</ele><time>2026-03-30T12:46:53.001Z</time></trkpt><trkpt lat="33.05443708167538" lon="9.474085993197539"><ele>198.75</ele><time>2026-03-30T12:46:54.001Z</time></trkpt><trkpt lat="33.05444520247237" lon="9.474230014444847"><ele>198.5</ele><time>2026-03-30T12:46:55.001Z</time></trkpt><trkpt lat="33.05446417289651" lon="9.474387817563358"><ele>198.25</ele><time>2026-03-30T12:46:56.001Z</time></trkpt><trkpt lat="33.05447157550214" lon="9.47453866405825"><ele>198.0</ele><time>2026-03-30T12:46:57.001Z</time></trkpt><trkpt lat="33.05448237988099" lon="9.474696247713503"><ele>197.5</ele><time>2026-03-30T12:46:58.001Z</time></trkpt><trkpt lat="33.05448576710226" lon="9.47484993275222"><ele>197.0</ele><time>2026-03-30T12:46:59.001Z</time></trkpt><trkpt lat="33.05447790065563" lon="9.475001737443849"><ele>196.5</ele><time>2026-03-30T12:47:00.001Z</time></trkpt><trkpt lat="33.054450983801615" lon="9.475143940319624"><ele>196.0</ele><time>2026-03-30T12:47:01.001Z</time></trkpt><trkpt lat="33.05441359818012" lon="9.475281546179211"><ele>196.0</ele><time>2026-03-30T12:47:02.001Z</time></trkpt><trkpt lat="33.054367852745486" lon="9.47541812852446"><ele>196.0</ele><time>2026-03-30T12:47:03.001Z</time></trkpt><trkpt lat="33.054322931127075" lon="9.475546407457003"><ele>196.0</ele><time>2026-03-30T12:47:04.001Z</time></trkpt><trkpt lat="33.0542814770635" lon="9.475682154176809"><ele>196.0</ele><time>2026-03-30T12:47:05.001Z</time></trkpt><trkpt lat="33.05424820519685" lon="9.475814457177636"><ele>196.25</ele><time>2026-03-30T12:47:06.001Z</time></trkpt><trkpt lat="33.054210732467425" lon="9.475950368907334"><ele>196.5</ele><time>2026-03-30T12:47:07.001Z</time></trkpt><trkpt lat="33.05417459541546" lon="9.476091097482787"><ele>196.75</ele><time>2026-03-30T12:47:08.001Z</time></trkpt><trkpt lat="33.0541399527841" lon="9.476231434395531"><ele>197.0</ele><time>2026-03-30T12:47:09.001Z</time></trkpt><trkpt lat="33.054109642293305" lon="9.476368184856705"><ele>196.5</ele><time>2026-03-30T12:47:10.001Z</time></trkpt><trkpt lat="33.054078219073475" lon="9.476520395298094"><ele>196.0</ele><time>2026-03-30T12:47:11.001Z</time></trkpt><trkpt lat="33.05404239775038" lon="9.476662205355327"><ele>195.5</ele><time>2026-03-30T12:47:12Z</time></trkpt><trkpt lat="33.05400059331452" lon="9.476801548983751"><ele>195.0</ele><time>2026-03-30T12:47:13Z</time></trkpt><trkpt lat="33.05397615796905" lon="9.476948179231618"><ele>195.0</ele><time>2026-03-30T12:47:14Z</time></trkpt><trkpt lat="33.05394166628072" lon="9.477084314491396"><ele>195.0</ele><time>2026-03-30T12:47:15Z</time></trkpt><trkpt lat="33.05391322230749" lon="9.477214060416644"><ele>195.0</ele><time>2026-03-30T12:47:16Z</time></trkpt><trkpt lat="33.05387658591814" lon="9.477348111080024"><ele>195.0</ele><time>2026-03-30T12:47:17Z</time></trkpt><trkpt lat="33.053840655487086" lon="9.477489497580246"><ele>195.75</ele><time>2026-03-30T12:47:18Z</time></trkpt><trkpt lat="33.05380608668176" lon="9.477639046985873"><ele>196.5</ele><time>2026-03-30T12:47:19Z</time></trkpt><trkpt lat="33.05378771218024" lon="9.477792887778225"><ele>197.25</ele><time>2026-03-30T12:47:20Z</time></trkpt><trkpt lat="33.05374876742026" lon="9.477951298516706"><ele>198.0</ele><time>2026-03-30T12:47:21Z</time></trkpt><trkpt lat="33.053722187700316" lon="9.478099899850852"><ele>198.75</ele><time>2026-03-30T12:47:22Z</time></trkpt><trkpt lat="33.053681260280214" lon="9.478239013046759"><ele>199.5</ele><time>2026-03-30T12:47:23Z</time></trkpt><trkpt lat="33.053646831928994" lon="9.478366337891488"><ele>200.25</ele><time>2026-03-30T12:47:24Z</time></trkpt><trkpt lat="33.05361250078358" lon="9.478504653307088"><ele>201.0</ele><time>2026-03-30T12:47:25Z</time></trkpt><trkpt lat="33.05357833521357" lon="9.478643963337424"><ele>201.25</ele><time>2026-03-30T12:47:26Z</time></trkpt><trkpt lat="33.05353360446995" lon="9.478784474683028"><ele>201.5</ele><time>2026-03-30T12:47:27Z</time></trkpt><trkpt lat="33.05349745197024" lon="9.47890771437999"><ele>201.75</ele><time>2026-03-30T12:47:28Z</time></trkpt><trkpt lat="33.05345423703919" lon="9.479039530216776"><ele>202.0</ele><time>2026-03-30T12:47:29Z</time></trkpt><trkpt lat="33.05340615197207" lon="9.479175186891446"><ele>202.0</ele><time>2026-03-30T12:47:30Z</time></trkpt><trkpt lat="33.05334832729878" lon="9.47929160950071"><ele>202.0</ele><time>2026-03-30T12:47:31Z</time></trkpt><trkpt lat="33.05328569614697" lon="9.479409300527648"><ele>202.0</ele><time>2026-03-30T12:47:32Z</time></trkpt><trkpt lat="33.05321778939718" lon="9.47953400999089"><ele>202.0</ele><time>2026-03-30T12:47:33Z</time></trkpt><trkpt lat="33.053144770749505" lon="9.479638034872762"><ele>202.5</ele><time>2026-03-30T12:47:34Z</time></trkpt><trkpt lat="33.053069443034644" lon="9.479753278893625"><ele>203.0</ele><time>2026-03-30T12:47:35Z</time></trkpt><trkpt lat="33.052985060115624" lon="9.479880726259054"><ele>203.5</ele><time>2026-03-30T12:47:36Z</time></trkpt><trkpt lat="33.05289852158785" lon="9.480009799479577"><ele>204.0</ele><time>2026-03-30T12:47:37Z</time></trkpt><trkpt lat="33.05281279103127" lon="9.480152501348185"><ele>204.0</ele><time>2026-03-30T12:47:38Z</time></trkpt><trkpt lat="33.05273471246112" lon="9.480294510244006"><ele>204.0</ele><time>2026-03-30T12:47:39Z</time></trkpt><trkpt lat="33.05265515303279" lon="9.480434121813694"><ele>204.0</ele><time>2026-03-30T12:47:40Z</time></trkpt><trkpt lat="33.05257580276361" lon="9.480569127440845"><ele>204.0</ele><time>2026-03-30T12:47:41Z</time></trkpt><trkpt lat="33.05249437265946" lon="9.480698092280578"><ele>204.0</ele><time>2026-03-30T12:47:42Z</time></trkpt><trkpt lat="33.05241478140906" lon="9.480826662567672"><ele>204.0</ele><time>2026-03-30T12:47:43Z</time></trkpt><trkpt lat="33.05234080129577" lon="9.480958020302326"><ele>204.0</ele><time>2026-03-30T12:47:44Z</time></trkpt><trkpt lat="33.05227122867708" lon="9.481096754768478"><ele>204.0</ele><time>2026-03-30T12:47:45Z</time></trkpt><trkpt lat="33.052195871018924" lon="9.481233991397222"><ele>204.0</ele><time>2026-03-30T12:47:46Z</time></trkpt><trkpt lat="33.052126907245" lon="9.481369283620635"><ele>204.0</ele><time>2026-03-30T12:47:47Z</time></trkpt><trkpt lat="33.05205043678805" lon="9.481505088952332"><ele>204.0</ele><time>2026-03-30T12:47:48Z</time></trkpt><trkpt lat="33.05198463019236" lon="9.481641711750134"><ele>204.0</ele><time>2026-03-30T12:47:49Z</time></trkpt><trkpt lat="33.051909647792925" lon="9.481774806967453"><ele>204.0</ele><time>2026-03-30T12:47:50Z</time></trkpt><trkpt lat="33.051842059378274" lon="9.4819098835217"><ele>204.0</ele><time>2026-03-30T12:47:51Z</time></trkpt><trkpt lat="33.05176444752335" lon="9.482051565968533"><ele>204.0</ele><time>2026-03-30T12:47:52Z</time></trkpt><trkpt lat="33.051688902522805" lon="9.482168939799559"><ele>204.0</ele><time>2026-03-30T12:47:53Z</time></trkpt><trkpt lat="33.051620873575" lon="9.482267153766715"><ele>204.39999999999998</ele><time>2026-03-30T12:47:54Z</time></trkpt><trkpt lat="33.05156355208987" lon="9.482357313497653"><ele>204.8</ele><time>2026-03-30T12:47:55Z</time></trkpt><trkpt lat="33.0515067712904" lon="9.482448383566215"><ele>205.2</ele><time>2026-03-30T12:47:56Z</time></trkpt><trkpt lat="33.05144711830829" lon="9.482560202744377"><ele>205.60000000000002</ele><time>2026-03-30T12:47:57Z</time></trkpt><trkpt lat="33.05139328927574" lon="9.482670370089528"><ele>206.0</ele><time>2026-03-30T12:47:58.001Z</time></trkpt><trkpt lat="33.0513343238241" lon="9.482775746153749"><ele>206.0</ele><time>2026-03-30T12:47:59.001Z</time></trkpt><trkpt lat="33.05125620653805" lon="9.482885579678138"><ele>206.0</ele><time>2026-03-30T12:48:00.001Z</time></trkpt><trkpt lat="33.051169352434556" lon="9.482991182649092"><ele>206.0</ele><time>2026-03-30T12:48:01.001Z</time></trkpt><trkpt lat="33.0510885895359" lon="9.483094702205758"><ele>206.0</ele><time>2026-03-30T12:48:02.001Z</time></trkpt><trkpt lat="33.05101092341775" lon="9.483205941822542"><ele>206.25</ele><time>2026-03-30T12:48:03.001Z</time></trkpt><trkpt lat="33.050924240380844" lon="9.483309796039165"><ele>206.5</ele><time>2026-03-30T12:48:04.001Z</time></trkpt><trkpt lat="33.050831484982574" lon="9.483421729879753"><ele>206.75</ele><time>2026-03-30T12:48:05.001Z</time></trkpt><trkpt lat="33.05074853452101" lon="9.483531759635031"><ele>207.0</ele><time>2026-03-30T12:48:06.001Z</time></trkpt><trkpt lat="33.05066375655089" lon="9.483645356533419"><ele>207.25</ele><time>2026-03-30T12:48:07.001Z</time></trkpt><trkpt lat="33.05058210169587" lon="9.483759198130203"><ele>207.5</ele><time>2026-03-30T12:48:08.001Z</time></trkpt><trkpt lat="33.050506658790546" lon="9.483871139404975"><ele>207.75</ele><time>2026-03-30T12:48:09.001Z</time></trkpt><trkpt lat="33.05042820236168" lon="9.483987187722951"><ele>208.0</ele><time>2026-03-30T12:48:10.001Z</time></trkpt><trkpt lat="33.050346169453455" lon="9.484098644032917"><ele>208.0</ele><time>2026-03-30T12:48:11.001Z</time></trkpt><trkpt lat="33.05026996788359" lon="9.48421847285033"><ele>208.0</ele><time>2026-03-30T12:48:12.001Z</time></trkpt><trkpt lat="33.05020215786649" lon="9.48434057300909"><ele>208.0</ele><time>2026-03-30T12:48:13.001Z</time></trkpt><trkpt lat="33.050139046149866" lon="9.484466229447182"><ele>208.0</ele><time>2026-03-30T12:48:14.001Z</time></trkpt><trkpt lat="33.050075760388964" lon="9.484588832793039"><ele>208.0</ele><time>2026-03-30T12:48:15.001Z</time></trkpt><trkpt lat="33.05001378420914" lon="9.484700598738055"><ele>208.0</ele><time>2026-03-30T12:48:16.001Z</time></trkpt><trkpt lat="33.049963241217306" lon="9.484835963815838"><ele>208.0</ele><time>2026-03-30T12:48:17.001Z</time></trkpt><trkpt lat="33.049907399400745" lon="9.484971814654534"><ele>208.0</ele><time>2026-03-30T12:48:18.001Z</time></trkpt><trkpt lat="33.04986586246873" lon="9.485091443714385"><ele>208.0</ele><time>2026-03-30T12:48:19.001Z</time></trkpt><trkpt lat="33.04981626246865" lon="9.48523045366208"><ele>208.0</ele><time>2026-03-30T12:48:20.001Z</time></trkpt><trkpt lat="33.049777072454496" lon="9.485364701506349"><ele>208.0</ele><time>2026-03-30T12:48:21.001Z</time></trkpt><trkpt lat="33.049722470288856" lon="9.485495573988326"><ele>208.0</ele><time>2026-03-30T12:48:22.001Z</time></trkpt><trkpt lat="33.04968302031235" lon="9.485632036635968"><ele>208.25</ele><time>2026-03-30T12:48:23.001Z</time></trkpt><trkpt lat="33.04964740388308" lon="9.48576308003452"><ele>208.5</ele><time>2026-03-30T12:48:24.001Z</time></trkpt><trkpt lat="33.04958345088154" lon="9.485884834329108"><ele>208.75</ele><time>2026-03-30T12:48:25.001Z</time></trkpt><trkpt lat="33.049524826694956" lon="9.486017115156809"><ele>209.0</ele><time>2026-03-30T12:48:26.001Z</time></trkpt><trkpt lat="33.04946855757824" lon="9.486137571672392"><ele>210.0</ele><time>2026-03-30T12:48:27.001Z</time></trkpt><trkpt lat="33.04941009663781" lon="9.486266293555982"><ele>211.0</ele><time>2026-03-30T12:48:28.001Z</time></trkpt><trkpt lat="33.04935512819869" lon="9.486402996137395"><ele>212.0</ele><time>2026-03-30T12:48:29.001Z</time></trkpt><trkpt lat="33.04929678355808" lon="9.48654099594722"><ele>213.0</ele><time>2026-03-30T12:48:30.001Z</time></trkpt><trkpt lat="33.04923586007886" lon="9.486685911155043"><ele>213.0</ele><time>2026-03-30T12:48:31.001Z</time></trkpt><trkpt lat="33.04916739549206" lon="9.486821578005895"><ele>213.0</ele><time>2026-03-30T12:48:32.001Z</time></trkpt><trkpt lat="33.04911088742197" lon="9.48696542181311"><ele>213.0</ele><time>2026-03-30T12:48:33.001Z</time></trkpt><trkpt lat="33.04905576260142" lon="9.48710106192246"><ele>213.0</ele><time>2026-03-30T12:48:34.001Z</time></trkpt><trkpt lat="33.048994629736086" lon="9.487234051387762"><ele>213.5</ele><time>2026-03-30T12:48:35.001Z</time></trkpt><trkpt lat="33.04892870636656" lon="9.48735339333168"><ele>214.0</ele><time>2026-03-30T12:48:36.001Z</time></trkpt><trkpt lat="33.04886566931401" lon="9.487494743612283"><ele>214.5</ele><time>2026-03-30T12:48:37.001Z</time></trkpt><trkpt lat="33.04880348236763" lon="9.487625578321168"><ele>215.0</ele><time>2026-03-30T12:48:38.001Z</time></trkpt><trkpt lat="33.04874354153124" lon="9.487763746526943"><ele>215.0</ele><time>2026-03-30T12:48:39.001Z</time></trkpt><trkpt lat="33.048676264335995" lon="9.487901767538817"><ele>215.0</ele><time>2026-03-30T12:48:40.001Z</time></trkpt><trkpt lat="33.04859998317663" lon="9.488035045291085"><ele>215.0</ele><time>2026-03-30T12:48:41.001Z</time></trkpt><trkpt lat="33.04852119350793" lon="9.488165102573777"><ele>215.0</ele><time>2026-03-30T12:48:42.001Z</time></trkpt><trkpt lat="33.04843528147197" lon="9.488296270996411"><ele>214.75</ele><time>2026-03-30T12:48:43.001Z</time></trkpt><trkpt lat="33.04834495649819" lon="9.488431777807163"><ele>214.5</ele><time>2026-03-30T12:48:44.001Z</time></trkpt><trkpt lat="33.04826044226722" lon="9.488571894845727"><ele>214.25</ele><time>2026-03-30T12:48:45.001Z</time></trkpt><trkpt lat="33.04817678289954" lon="9.488714019814092"><ele>214.0</ele><time>2026-03-30T12:48:46.001Z</time></trkpt><trkpt lat="33.04809558549508" lon="9.488854130164222"><ele>215.0</ele><time>2026-03-30T12:48:47.001Z</time></trkpt><trkpt lat="33.04801654705892" lon="9.488994447732924"><ele>216.0</ele><time>2026-03-30T12:48:48.001Z</time></trkpt><trkpt lat="33.04794332456825" lon="9.489133418511749"><ele>217.0</ele><time>2026-03-30T12:48:49.001Z</time></trkpt><trkpt lat="33.04787325590418" lon="9.489269694196663"><ele>218.0</ele><time>2026-03-30T12:48:50.001Z</time></trkpt><trkpt lat="33.047804601562824" lon="9.489398309150554"><ele>218.0</ele><time>2026-03-30T12:48:51.001Z</time></trkpt><trkpt lat="33.04773704424155" lon="9.489529220467853"><ele>218.0</ele><time>2026-03-30T12:48:52.001Z</time></trkpt><trkpt lat="33.04766948718775" lon="9.489657465365768"><ele>218.0</ele><time>2026-03-30T12:48:53.001Z</time></trkpt><trkpt lat="33.0475990071029" lon="9.489785670036062"><ele>218.0</ele><time>2026-03-30T12:48:54.001Z</time></trkpt><trkpt lat="33.047528571942074" lon="9.489916944182696"><ele>218.0</ele><time>2026-03-30T12:48:55.001Z</time></trkpt><trkpt lat="33.04745987195552" lon="9.490039030586553"><ele>218.0</ele><time>2026-03-30T12:48:56.001Z</time></trkpt><trkpt lat="33.04739250813797" lon="9.490164966166091"><ele>218.0</ele><time>2026-03-30T12:48:57.001Z</time></trkpt><trkpt lat="33.04733108419392" lon="9.490292150500736"><ele>218.0</ele><time>2026-03-30T12:48:58.001Z</time></trkpt><trkpt lat="33.04727419231277" lon="9.490427898247702"><ele>218.0</ele><time>2026-03-30T12:48:59.001Z</time></trkpt><trkpt lat="33.04722125253132" lon="9.490563174084985"><ele>218.0</ele><time>2026-03-30T12:49:00.001Z</time></trkpt><trkpt lat="33.04716441875128" lon="9.49068645518232"><ele>218.0</ele><time>2026-03-30T12:49:01.001Z</time></trkpt><trkpt lat="33.04710227518485" lon="9.490797938387876"><ele>218.0</ele><time>2026-03-30T12:49:02.001Z</time></trkpt><trkpt lat="33.04703257966664" lon="9.490908226603905"><ele>218.0</ele><time>2026-03-30T12:49:03.001Z</time></trkpt><trkpt lat="33.04696053357191" lon="9.491016033757077"><ele>218.0</ele><time>2026-03-30T12:49:04.001Z</time></trkpt><trkpt lat="33.04688670499685" lon="9.491121703284291"><ele>218.0</ele><time>2026-03-30T12:49:05.001Z</time></trkpt><trkpt lat="33.046810202047936" lon="9.491242014186586"><ele>218.0</ele><time>2026-03-30T12:49:06.001Z</time></trkpt><trkpt lat="33.046737152814075" lon="9.491359298321521"><ele>218.0</ele><time>2026-03-30T12:49:07.001Z</time></trkpt><trkpt lat="33.04666013894115" lon="9.491478815249268"><ele>218.0</ele><time>2026-03-30T12:49:08.001Z</time></trkpt><trkpt lat="33.046582933031395" lon="9.491600109061633"><ele>218.0</ele><time>2026-03-30T12:49:09.001Z</time></trkpt><trkpt lat="33.04649841112617" lon="9.491726341423583"><ele>218.0</ele><time>2026-03-30T12:49:10.001Z</time></trkpt><trkpt lat="33.04642078894545" lon="9.491851006179141"><ele>218.0</ele><time>2026-03-30T12:49:11.001Z</time></trkpt><trkpt lat="33.04634313436385" lon="9.491973316062285"><ele>218.0</ele><time>2026-03-30T12:49:12.001Z</time></trkpt><trkpt lat="33.04626395527798" lon="9.492083011894398"><ele>218.0</ele><time>2026-03-30T12:49:13.001Z</time></trkpt><trkpt lat="33.046186480676525" lon="9.49218992722944"><ele>218.0</ele><time>2026-03-30T12:49:14.001Z</time></trkpt><trkpt lat="33.04611148349355" lon="9.492300755463813"><ele>217.0</ele><time>2026-03-30T12:49:15.001Z</time></trkpt><trkpt lat="33.046038855861845" lon="9.492422258722486"><ele>216.0</ele><time>2026-03-30T12:49:16.001Z</time></trkpt><trkpt lat="33.04596985146118" lon="9.492552577826897"><ele>215.0</ele><time>2026-03-30T12:49:17.001Z</time></trkpt><trkpt lat="33.04591364989832" lon="9.492670908617571"><ele>214.0</ele><time>2026-03-30T12:49:18.001Z</time></trkpt><trkpt lat="33.04585857791147" lon="9.492784730504404"><ele>214.0</ele><time>2026-03-30T12:49:19.001Z</time></trkpt><trkpt lat="33.04580131170868" lon="9.492900244711244"><ele>214.0</ele><time>2026-03-30T12:49:20.001Z</time></trkpt><trkpt lat="33.04574436608617" lon="9.493025111292384"><ele>214.0</ele><time>2026-03-30T12:49:21.001Z</time></trkpt><trkpt lat="33.045691299476374" lon="9.493150387391776"><ele>214.0</ele><time>2026-03-30T12:49:22.001Z</time></trkpt><trkpt lat="33.04563917937535" lon="9.493279777941481"><ele>213.75</ele><time>2026-03-30T12:49:23.001Z</time></trkpt><trkpt lat="33.045584194835776" lon="9.493400883888798"><ele>213.5</ele><time>2026-03-30T12:49:24.001Z</time></trkpt><trkpt lat="33.04552749056774" lon="9.49352566372501"><ele>213.25</ele><time>2026-03-30T12:49:25.001Z</time></trkpt><trkpt lat="33.04548174619934" lon="9.49364842627927"><ele>213.0</ele><time>2026-03-30T12:49:26.001Z</time></trkpt><trkpt lat="33.04543150590531" lon="9.493762831754514"><ele>212.8</ele><time>2026-03-30T12:49:27.001Z</time></trkpt><trkpt lat="33.045377277720185" lon="9.493876571130436"><ele>212.60000000000002</ele><time>2026-03-30T12:49:28.001Z</time></trkpt><trkpt lat="33.04531968843951" lon="9.494002936814429"><ele>212.39999999999998</ele><time>2026-03-30T12:49:29.001Z</time></trkpt><trkpt lat="33.04526885435941" lon="9.494124562240927"><ele>212.2</ele><time>2026-03-30T12:49:30.001Z</time></trkpt><trkpt lat="33.04521986386337" lon="9.494228122242124"><ele>212.0</ele><time>2026-03-30T12:49:31.001Z</time></trkpt><trkpt lat="33.045176467632885" lon="9.494306194433957"><ele>212.0</ele><time>2026-03-30T12:49:32.001Z</time></trkpt><trkpt lat="33.045128664944954" lon="9.494376175525234"><ele>212.0</ele><time>2026-03-30T12:49:33.001Z</time></trkpt><trkpt lat="33.04502631010005" lon="9.49450738908423"><ele>212.0</ele><time>2026-03-30T12:49:35.001Z</time></trkpt><trkpt lat="33.04496662300255" lon="9.494579277025043"><ele>212.0</ele><time>2026-03-30T12:49:36.001Z</time></trkpt><trkpt lat="33.044898135994636" lon="9.494646039812578"><ele>212.0</ele><time>2026-03-30T12:49:37.001Z</time></trkpt><trkpt lat="33.04481322639584" lon="9.494710202025725"><ele>212.0</ele><time>2026-03-30T12:49:38.001Z</time></trkpt><trkpt lat="33.04472910310566" lon="9.494778846121248"><ele>212.0</ele><time>2026-03-30T12:49:39.001Z</time></trkpt><trkpt lat="33.04463437734206" lon="9.494848223298717"><ele>212.0</ele><time>2026-03-30T12:49:40.001Z</time></trkpt><trkpt lat="33.04453553735585" lon="9.494927376710324"><ele>212.0</ele><time>2026-03-30T12:49:41.001Z</time></trkpt><trkpt lat="33.044436697708015" lon="9.495001031975299"><ele>212.0</ele><time>2026-03-30T12:49:42.001Z</time></trkpt><trkpt lat="33.04433529013473" lon="9.495079340999432"><ele>212.0</ele><time>2026-03-30T12:49:43.001Z</time></trkpt><trkpt lat="33.044231485015544" lon="9.495158855123885"><ele>212.0</ele><time>2026-03-30T12:49:44.001Z</time></trkpt><trkpt lat="33.044132952298774" lon="9.495238088522115"><ele>212.0</ele><time>2026-03-30T12:49:45.001Z</time></trkpt><trkpt lat="33.04403171784137" lon="9.495318036174641"><ele>212.0</ele><time>2026-03-30T12:49:46.001Z</time></trkpt><trkpt lat="33.04392764711916" lon="9.495400567036576"><ele>211.75</ele><time>2026-03-30T12:49:47.001Z</time></trkpt><trkpt lat="33.04383218639147" lon="9.495481686471276"><ele>211.5</ele><time>2026-03-30T12:49:48.001Z</time></trkpt><trkpt lat="33.04374490638328" lon="9.495568736213434"><ele>211.25</ele><time>2026-03-30T12:49:49.001Z</time></trkpt><trkpt lat="33.04365795463028" lon="9.49566089383538"><ele>211.0</ele><time>2026-03-30T12:49:50.001Z</time></trkpt><trkpt lat="33.04357008266623" lon="9.495750386167193"><ele>211.0</ele><time>2026-03-30T12:49:51.001Z</time></trkpt><trkpt lat="33.043487168827895" lon="9.49583633253636"><ele>211.0</ele><time>2026-03-30T12:49:52.001Z</time></trkpt><trkpt lat="33.04340799452889" lon="9.49591314936134"><ele>211.0</ele><time>2026-03-30T12:49:53.001Z</time></trkpt><trkpt lat="33.04332790209962" lon="9.495995522548965"><ele>211.0</ele><time>2026-03-30T12:49:54.001Z</time></trkpt><trkpt lat="33.04324681607389" lon="9.496070323198834"><ele>211.0</ele><time>2026-03-30T12:49:55.001Z</time></trkpt><trkpt lat="33.04316618494088" lon="9.496148252225298"><ele>211.0</ele><time>2026-03-30T12:49:56.001Z</time></trkpt><trkpt lat="33.04308307801764" lon="9.496226910985099"><ele>211.0</ele><time>2026-03-30T12:49:57.001Z</time></trkpt><trkpt lat="33.043012630003304" lon="9.496296925473292"><ele>211.0</ele><time>2026-03-30T12:49:58.001Z</time></trkpt><trkpt lat="33.04293623088486" lon="9.496373793515039"><ele>211.0</ele><time>2026-03-30T12:49:59.001Z</time></trkpt><trkpt lat="33.04287067536505" lon="9.49645094294017"><ele>211.0</ele><time>2026-03-30T12:50:00.001Z</time></trkpt><trkpt lat="33.04282182732579" lon="9.496531525436254"><ele>210.99999999999997</ele><time>2026-03-30T12:50:01.001Z</time></trkpt><trkpt lat="33.04277004421154" lon="9.496617342862105"><ele>211.0</ele><time>2026-03-30T12:50:02.001Z</time></trkpt><trkpt lat="33.04272454482981" lon="9.496693877607255"><ele>211.0</ele><time>2026-03-30T12:50:03.001Z</time></trkpt><trkpt lat="33.042659490798336" lon="9.496766623370274"><ele>211.0</ele><time>2026-03-30T12:50:04.001Z</time></trkpt><trkpt lat="33.04260259659536" lon="9.496835419447848"><ele>210.99999999999997</ele><time>2026-03-30T12:50:05.001Z</time></trkpt><trkpt lat="33.04256249101666" lon="9.496902866165689"><ele>211.0</ele><time>2026-03-30T12:50:06.001Z</time></trkpt><trkpt lat="33.04252499983074" lon="9.496973389655087"><ele>211.0</ele><time>2026-03-30T12:50:07.001Z</time></trkpt><trkpt lat="33.042459316818174" lon="9.49708548004015"><ele>211.0</ele><time>2026-03-30T12:50:09.001Z</time></trkpt><trkpt lat="33.04237693290989" lon="9.497138292375734"><ele>211.0</ele><time>2026-03-30T12:50:48.001Z</time></trkpt><trkpt lat="33.04228573890164" lon="9.497218405001986"><ele>211.0</ele><time>2026-03-30T12:50:50.001Z</time></trkpt><trkpt lat="33.04221091159563" lon="9.49729548282775"><ele>211.0</ele><time>2026-03-30T12:50:52.001Z</time></trkpt><trkpt lat="33.042126371601796" lon="9.497361415578508"><ele>210.99999999999997</ele><time>2026-03-30T12:50:54.001Z</time></trkpt><trkpt lat="33.04203306266347" lon="9.49743695541095"><ele>211.0</ele><time>2026-03-30T12:50:56.001Z</time></trkpt><trkpt lat="33.04198298092299" lon="9.497488794503413"><ele>211.0</ele><time>2026-03-30T12:50:57.001Z</time></trkpt><trkpt lat="33.041934027015934" lon="9.497545609437983"><ele>211.0</ele><time>2026-03-30T12:50:58.001Z</time></trkpt><trkpt lat="33.041878511446015" lon="9.497606243530022"><ele>210.99999999999997</ele><time>2026-03-30T12:50:59.001Z</time></trkpt><trkpt lat="33.04180562252878" lon="9.497681764514613"><ele>211.0</ele><time>2026-03-30T12:51:00.001Z</time></trkpt><trkpt lat="33.04173511504295" lon="9.497765831562205"><ele>211.0</ele><time>2026-03-30T12:51:01.001Z</time></trkpt><trkpt lat="33.04166475662205" lon="9.497849338519927"><ele>211.0</ele><time>2026-03-30T12:51:02.001Z</time></trkpt><trkpt lat="33.04160017701722" lon="9.497942737152348"><ele>211.0</ele><time>2026-03-30T12:51:03.001Z</time></trkpt><trkpt lat="33.04153626206414" lon="9.498043609023581"><ele>211.0</ele><time>2026-03-30T12:51:04.001Z</time></trkpt><trkpt lat="33.04147757220794" lon="9.498129621760082"><ele>211.0</ele><time>2026-03-30T12:51:05.001Z</time></trkpt><trkpt lat="33.04142069309758" lon="9.498232199938963"><ele>211.4</ele><time>2026-03-30T12:51:06.001Z</time></trkpt><trkpt lat="33.0413723701536" lon="9.498317089067063"><ele>211.8</ele><time>2026-03-30T12:51:07.001Z</time></trkpt><trkpt lat="33.041309627511055" lon="9.498406600855235"><ele>212.20000000000002</ele><time>2026-03-30T12:51:08.001Z</time></trkpt><trkpt lat="33.041254005606355" lon="9.498493177790678"><ele>212.60000000000002</ele><time>2026-03-30T12:51:09.001Z</time></trkpt><trkpt lat="33.041193008341715" lon="9.498589155346147"><ele>213.0</ele><time>2026-03-30T12:51:10.001Z</time></trkpt><trkpt lat="33.041138366111184" lon="9.498681619942282"><ele>213.60000000000002</ele><time>2026-03-30T12:51:11.001Z</time></trkpt><trkpt lat="33.04107113600871" lon="9.498768600559101"><ele>214.20000000000002</ele><time>2026-03-30T12:51:12.001Z</time></trkpt><trkpt lat="33.04099866548316" lon="9.498856388450232"><ele>214.8</ele><time>2026-03-30T12:51:13.001Z</time></trkpt><trkpt lat="33.04092294891689" lon="9.498948988299622"><ele>215.4</ele><time>2026-03-30T12:51:14.001Z</time></trkpt><trkpt lat="33.04084415900399" lon="9.499041442997322"><ele>216.0</ele><time>2026-03-30T12:51:15.001Z</time></trkpt><trkpt lat="33.040763264569996" lon="9.499132483929406"><ele>216.0</ele><time>2026-03-30T12:51:16.001Z</time></trkpt><trkpt lat="33.04068333263578" lon="9.499228700288157"><ele>216.0</ele><time>2026-03-30T12:51:17.001Z</time></trkpt><trkpt lat="33.040602921062984" lon="9.499332414504972"><ele>216.0</ele><time>2026-03-30T12:51:18.001Z</time></trkpt><trkpt lat="33.04052405621756" lon="9.499439536329145"><ele>216.0</ele><time>2026-03-30T12:51:19.001Z</time></trkpt><trkpt lat="33.0404414484583" lon="9.499539480815058"><ele>215.75</ele><time>2026-03-30T12:51:20.001Z</time></trkpt><trkpt lat="33.04035311858218" lon="9.499641952450503"><ele>215.5</ele><time>2026-03-30T12:51:21.001Z</time></trkpt><trkpt lat="33.04027098905889" lon="9.499737998221727"><ele>215.25</ele><time>2026-03-30T12:51:22.001Z</time></trkpt><trkpt lat="33.0401837913513" lon="9.499841865888865"><ele>215.0</ele><time>2026-03-30T12:51:23.001Z</time></trkpt><trkpt lat="33.04010022788529" lon="9.499957647269971"><ele>215.0</ele><time>2026-03-30T12:51:24.001Z</time></trkpt><trkpt lat="33.04001975798374" lon="9.500072839652997"><ele>215.0</ele><time>2026-03-30T12:51:25.001Z</time></trkpt><trkpt lat="33.03993781626355" lon="9.500180420374468"><ele>215.0</ele><time>2026-03-30T12:51:26.001Z</time></trkpt><trkpt lat="33.039859595256935" lon="9.500313251360975"><ele>215.0</ele><time>2026-03-30T12:51:27.001Z</time></trkpt><trkpt lat="33.0397805158325" lon="9.500439650020484"><ele>214.75</ele><time>2026-03-30T12:51:28.001Z</time></trkpt><trkpt lat="33.039705573884405" lon="9.500559984962914"><ele>214.5</ele><time>2026-03-30T12:51:29.001Z</time></trkpt><trkpt lat="33.03963088158506" lon="9.50067788061867"><ele>214.25</ele><time>2026-03-30T12:51:30.001Z</time></trkpt><trkpt lat="33.039553732416806" lon="9.500796194096985"><ele>214.0</ele><time>2026-03-30T12:51:31.001Z</time></trkpt><trkpt lat="33.03947866826" lon="9.500908907892864"><ele>214.0</ele><time>2026-03-30T12:51:32.001Z</time></trkpt><trkpt lat="33.039398019789054" lon="9.501022270144714"><ele>214.0</ele><time>2026-03-30T12:51:33.001Z</time></trkpt><trkpt lat="33.0393145304792" lon="9.501128216154063"><ele>214.0</ele><time>2026-03-30T12:51:34.001Z</time></trkpt><trkpt lat="33.03922768555254" lon="9.501231154236883"><ele>214.0</ele><time>2026-03-30T12:51:35.001Z</time></trkpt><trkpt lat="33.03913958083805" lon="9.50134427471551"><ele>213.25</ele><time>2026-03-30T12:51:36.001Z</time></trkpt><trkpt lat="33.03904822801505" lon="9.501463251596023"><ele>212.5</ele><time>2026-03-30T12:51:37.001Z</time></trkpt><trkpt lat="33.03895553373993" lon="9.501592020290717"><ele>211.75</ele><time>2026-03-30T12:51:38.001Z</time></trkpt><trkpt lat="33.03886057399839" lon="9.50171556426529"><ele>211.0</ele><time>2026-03-30T12:51:39.001Z</time></trkpt><trkpt lat="33.03876349603896" lon="9.501835416098146"><ele>211.0</ele><time>2026-03-30T12:51:40.001Z</time></trkpt><trkpt lat="33.03867617051221" lon="9.501954999347776"><ele>211.0</ele><time>2026-03-30T12:51:41.001Z</time></trkpt><trkpt lat="33.03858760713388" lon="9.502063943472796"><ele>211.0</ele><time>2026-03-30T12:51:42.001Z</time></trkpt><trkpt lat="33.03849877439028" lon="9.502177046964427"><ele>211.0</ele><time>2026-03-30T12:51:43.001Z</time></trkpt><trkpt lat="33.038407827925326" lon="9.502285077926173"><ele>210.5</ele><time>2026-03-30T12:51:44.001Z</time></trkpt><trkpt lat="33.038330909224655" lon="9.502381572524776"><ele>210.0</ele><time>2026-03-30T12:51:45.001Z</time></trkpt><trkpt lat="33.03824519117005" lon="9.502487524575978"><ele>209.5</ele><time>2026-03-30T12:51:46.001Z</time></trkpt><trkpt lat="33.03815441079391" lon="9.50259810433093"><ele>209.0</ele><time>2026-03-30T12:51:47.001Z</time></trkpt><trkpt lat="33.03807025146071" lon="9.502709752849759"><ele>208.75</ele><time>2026-03-30T12:51:48.001Z</time></trkpt><trkpt lat="33.03797820185338" lon="9.50282474850735"><ele>208.5</ele><time>2026-03-30T12:51:49.001Z</time></trkpt><trkpt lat="33.0378827393218" lon="9.50295279370657"><ele>208.25</ele><time>2026-03-30T12:51:50.001Z</time></trkpt><trkpt lat="33.03778412116259" lon="9.503084900512832"><ele>208.0</ele><time>2026-03-30T12:51:51.001Z</time></trkpt><trkpt lat="33.03768156360928" lon="9.503215795021662"><ele>208.0</ele><time>2026-03-30T12:51:52.001Z</time></trkpt><trkpt lat="33.037579004818824" lon="9.503358730536487"><ele>208.0</ele><time>2026-03-30T12:51:53.001Z</time></trkpt><trkpt lat="33.03748944722859" lon="9.50350503328356"><ele>208.0</ele><time>2026-03-30T12:51:54.001Z</time></trkpt><trkpt lat="33.037402363601714" lon="9.503651893902195"><ele>208.66666666666666</ele><time>2026-03-30T12:51:55.001Z</time></trkpt><trkpt lat="33.03731961721341" lon="9.503803442029387"><ele>209.33333333333331</ele><time>2026-03-30T12:51:56.001Z</time></trkpt><trkpt lat="33.03723544925446" lon="9.503972119561878"><ele>210.0</ele><time>2026-03-30T12:51:57.001Z</time></trkpt><trkpt lat="33.03715333809666" lon="9.504142786237967"><ele>210.0</ele><time>2026-03-30T12:51:58.001Z</time></trkpt><trkpt lat="33.037081177254336" lon="9.504308626331664"><ele>210.0</ele><time>2026-03-30T12:51:59.001Z</time></trkpt><trkpt lat="33.03700201203218" lon="9.504515170531034"><ele>210.0</ele><time>2026-03-30T12:52:00.001Z</time></trkpt><trkpt lat="33.03692507076596" lon="9.504706838172913"><ele>210.0</ele><time>2026-03-30T12:52:01.001Z</time></trkpt><trkpt lat="33.03684767989264" lon="9.504899306976412"><ele>210.0</ele><time>2026-03-30T12:52:02.001Z</time></trkpt><trkpt lat="33.036783309703445" lon="9.505063113247294"><ele>210.0</ele><time>2026-03-30T12:52:03.001Z</time></trkpt><trkpt lat="33.03671424318704" lon="9.505232627914674"><ele>210.0</ele><time>2026-03-30T12:52:04.001Z</time></trkpt><trkpt lat="33.03665324428841" lon="9.505388631491435"><ele>210.0</ele><time>2026-03-30T12:52:05.001Z</time></trkpt><trkpt lat="33.036585702682004" lon="9.505554956014853"><ele>210.0</ele><time>2026-03-30T12:52:06.001Z</time></trkpt><trkpt lat="33.03652564434715" lon="9.505714691848588"><ele>210.0</ele><time>2026-03-30T12:52:07.001Z</time></trkpt><trkpt lat="33.03646671393477" lon="9.505871594424718"><ele>210.75</ele><time>2026-03-30T12:52:08.001Z</time></trkpt><trkpt lat="33.03641078319561" lon="9.506029001880018"><ele>211.5</ele><time>2026-03-30T12:52:09.001Z</time></trkpt><trkpt lat="33.03636362173863" lon="9.50619185261737"><ele>212.25</ele><time>2026-03-30T12:52:10.001Z</time></trkpt><trkpt lat="33.03631644017198" lon="9.506353322248684"><ele>213.0</ele><time>2026-03-30T12:52:11.001Z</time></trkpt><trkpt lat="33.03626631451179" lon="9.50650441131013"><ele>213.5</ele><time>2026-03-30T12:52:12.001Z</time></trkpt><trkpt lat="33.036215120120794" lon="9.50664749153278"><ele>214.0</ele><time>2026-03-30T12:52:13.001Z</time></trkpt><trkpt lat="33.036163247674885" lon="9.506800626589884"><ele>214.5</ele><time>2026-03-30T12:52:14.001Z</time></trkpt><trkpt lat="33.03610994412326" lon="9.506941572701882"><ele>215.0</ele><time>2026-03-30T12:52:15.001Z</time></trkpt><trkpt lat="33.03604945698481" lon="9.507097205282614"><ele>215.0</ele><time>2026-03-30T12:52:16.001Z</time></trkpt><trkpt lat="33.03598962801231" lon="9.507257494328641"><ele>215.0</ele><time>2026-03-30T12:52:17.001Z</time></trkpt><trkpt lat="33.03592813805026" lon="9.507412971817155"><ele>215.0</ele><time>2026-03-30T12:52:18.001Z</time></trkpt><trkpt lat="33.03586716415537" lon="9.507562276155229"><ele>215.0</ele><time>2026-03-30T12:52:19.001Z</time></trkpt><trkpt lat="33.03580041041928" lon="9.507715149567415"><ele>215.0</ele><time>2026-03-30T12:52:20.001Z</time></trkpt><trkpt lat="33.035722753875625" lon="9.507877929757939"><ele>215.0</ele><time>2026-03-30T12:52:21.001Z</time></trkpt><trkpt lat="33.03563921015449" lon="9.508056414181947"><ele>215.0</ele><time>2026-03-30T12:52:22.001Z</time></trkpt><trkpt lat="33.03556566484049" lon="9.508228754297564"><ele>215.0</ele><time>2026-03-30T12:52:23.001Z</time></trkpt><trkpt lat="33.03550092241704" lon="9.508402315867798"><ele>215.0</ele><time>2026-03-30T12:52:24.001Z</time></trkpt><trkpt lat="33.035430109838096" lon="9.508584877197253"><ele>215.0</ele><time>2026-03-30T12:52:25.001Z</time></trkpt><trkpt lat="33.03536151830723" lon="9.508756544532545"><ele>215.0</ele><time>2026-03-30T12:52:26.001Z</time></trkpt><trkpt lat="33.03529472668268" lon="9.50893170615782"><ele>215.0</ele><time>2026-03-30T12:52:27.001Z</time></trkpt><trkpt lat="33.035236013861486" lon="9.509101063831517"><ele>215.0</ele><time>2026-03-30T12:52:28.001Z</time></trkpt><trkpt lat="33.035179383097784" lon="9.509251238220335"><ele>215.0</ele><time>2026-03-30T12:52:29.001Z</time></trkpt><trkpt lat="33.03512823050375" lon="9.509391470621946"><ele>215.0</ele><time>2026-03-30T12:52:30.001Z</time></trkpt><trkpt lat="33.03508214681185" lon="9.509544481353597"><ele>215.0</ele><time>2026-03-30T12:52:31.001Z</time></trkpt><trkpt lat="33.03504548864829" lon="9.50969527368583"><ele>215.0</ele><time>2026-03-30T12:52:32.001Z</time></trkpt><trkpt lat="33.035011898020464" lon="9.509854477392736"><ele>215.0</ele><time>2026-03-30T12:52:33.001Z</time></trkpt><trkpt lat="33.03498058818295" lon="9.510015393019959"><ele>215.0</ele><time>2026-03-30T12:52:34.001Z</time></trkpt><trkpt lat="33.034950535461505" lon="9.510177628608016"><ele>215.0</ele><time>2026-03-30T12:52:35.001Z</time></trkpt><trkpt lat="33.03492896155012" lon="9.510343641916082"><ele>215.0</ele><time>2026-03-30T12:52:36.001Z</time></trkpt><trkpt lat="33.03492393567759" lon="9.510519457875022"><ele>215.5</ele><time>2026-03-30T12:52:37.001Z</time></trkpt><trkpt lat="33.034923221254886" lon="9.51068561446731"><ele>216.0</ele><time>2026-03-30T12:52:38.001Z</time></trkpt><trkpt lat="33.03492021377346" lon="9.510868114198775"><ele>216.5</ele><time>2026-03-30T12:52:39.001Z</time></trkpt><trkpt lat="33.03490789576797" lon="9.51104289386184"><ele>217.0</ele><time>2026-03-30T12:52:40.001Z</time></trkpt><trkpt lat="33.03489434644337" lon="9.511211353993883"><ele>217.25</ele><time>2026-03-30T12:52:41.001Z</time></trkpt><trkpt lat="33.03488721075229" lon="9.511374500133561"><ele>217.5</ele><time>2026-03-30T12:52:42.001Z</time></trkpt><trkpt lat="33.034885037193185" lon="9.511538555087885"><ele>217.75</ele><time>2026-03-30T12:52:43.001Z</time></trkpt><trkpt lat="33.0348788990047" lon="9.511709995460464"><ele>218.0</ele><time>2026-03-30T12:52:44.001Z</time></trkpt><trkpt lat="33.03487512557554" lon="9.511875163633063"><ele>218.0</ele><time>2026-03-30T12:52:45.001Z</time></trkpt><trkpt lat="33.03486118358131" lon="9.51204541431271"><ele>218.0</ele><time>2026-03-30T12:52:46.001Z</time></trkpt><trkpt lat="33.03484604185927" lon="9.512215045796935"><ele>218.0</ele><time>2026-03-30T12:52:47.001Z</time></trkpt><trkpt lat="33.03482864562396" lon="9.512389371536328"><ele>218.0</ele><time>2026-03-30T12:52:48.001Z</time></trkpt><trkpt lat="33.03481183974068" lon="9.512560914708105"><ele>218.0</ele><time>2026-03-30T12:52:49.001Z</time></trkpt><trkpt lat="33.03480140987243" lon="9.512728102225068"><ele>218.0</ele><time>2026-03-30T12:52:50.001Z</time></trkpt><trkpt lat="33.03478218732278" lon="9.512894579316034"><ele>218.0</ele><time>2026-03-30T12:52:51.001Z</time></trkpt><trkpt lat="33.03475386165003" lon="9.513058715447922"><ele>218.0</ele><time>2026-03-30T12:52:52.001Z</time></trkpt><trkpt lat="33.03472525838231" lon="9.513222792543754"><ele>218.0</ele><time>2026-03-30T12:52:53.001Z</time></trkpt><trkpt lat="33.03470758008734" lon="9.513380690246604"><ele>218.0</ele><time>2026-03-30T12:52:54.001Z</time></trkpt><trkpt lat="33.03469196805085" lon="9.513539479655146"><ele>218.0</ele><time>2026-03-30T12:52:55.001Z</time></trkpt><trkpt lat="33.03467332881837" lon="9.5136954242085"><ele>218.0</ele><time>2026-03-30T12:52:56.001Z</time></trkpt><trkpt lat="33.03465373942909" lon="9.513857000211722"><ele>218.0</ele><time>2026-03-30T12:52:57.001Z</time></trkpt><trkpt lat="33.03462632159973" lon="9.514011158954553"><ele>218.0</ele><time>2026-03-30T12:52:58.001Z</time></trkpt><trkpt lat="33.03459182452102" lon="9.514158805536882"><ele>218.0</ele><time>2026-03-30T12:52:59.001Z</time></trkpt><trkpt lat="33.034552369507836" lon="9.514316366638779"><ele>218.0</ele><time>2026-03-30T12:53:00.001Z</time></trkpt><trkpt lat="33.03451770703658" lon="9.514475188584894"><ele>218.75</ele><time>2026-03-30T12:53:01.001Z</time></trkpt><trkpt lat="33.034483379194185" lon="9.514628123954866"><ele>219.5</ele><time>2026-03-30T12:53:02.001Z</time></trkpt><trkpt lat="33.03445133166552" lon="9.514792495639234"><ele>220.25</ele><time>2026-03-30T12:53:03.001Z</time></trkpt><trkpt lat="33.03442313676789" lon="9.514961451276026"><ele>221.0</ele><time>2026-03-30T12:53:04.001Z</time></trkpt><trkpt lat="33.03440041543447" lon="9.515116252676492"><ele>221.0</ele><time>2026-03-30T12:53:05.001Z</time></trkpt><trkpt lat="33.03438387238086" lon="9.515255821878466"><ele>221.0</ele><time>2026-03-30T12:53:06.001Z</time></trkpt><trkpt lat="33.034386383620955" lon="9.515384224652424"><ele>221.0</ele><time>2026-03-30T12:53:07.001Z</time></trkpt><trkpt lat="33.034399717042426" lon="9.515535924344908"><ele>221.0</ele><time>2026-03-30T12:53:08.001Z</time></trkpt><trkpt lat="33.03440842608578" lon="9.515688163174525"><ele>221.0</ele><time>2026-03-30T12:53:09.001Z</time></trkpt><trkpt lat="33.03441601431427" lon="9.515842572951883"><ele>221.0</ele><time>2026-03-30T12:53:10.001Z</time></trkpt><trkpt lat="33.03442097040544" lon="9.515995287392819"><ele>221.0</ele><time>2026-03-30T12:53:11.001Z</time></trkpt><trkpt lat="33.034429055913186" lon="9.516150493319753"><ele>221.0</ele><time>2026-03-30T12:53:12.001Z</time></trkpt><trkpt lat="33.03443913927723" lon="9.516313311511288"><ele>221.25</ele><time>2026-03-30T12:53:13.001Z</time></trkpt><trkpt lat="33.034433860686086" lon="9.516470785994423"><ele>221.5</ele><time>2026-03-30T12:53:14.001Z</time></trkpt><trkpt lat="33.034423743841266" lon="9.516622928518776"><ele>221.75</ele><time>2026-03-30T12:53:15.001Z</time></trkpt><trkpt lat="33.034420002031815" lon="9.516753061687247"><ele>222.0</ele><time>2026-03-30T12:53:16.001Z</time></trkpt><trkpt lat="33.034426279501325" lon="9.516894176421511"><ele>222.0</ele><time>2026-03-30T12:53:17.001Z</time></trkpt><trkpt lat="33.03443502890223" lon="9.517035166223181"><ele>222.0</ele><time>2026-03-30T12:53:18.001Z</time></trkpt><trkpt lat="33.03444746240799" lon="9.517176928105997"><ele>222.0</ele><time>2026-03-30T12:53:19.001Z</time></trkpt><trkpt lat="33.034455725552895" lon="9.517323717635984"><ele>222.0</ele><time>2026-03-30T12:53:20.001Z</time></trkpt><trkpt lat="33.03446681432734" lon="9.517471510842164"><ele>222.0</ele><time>2026-03-30T12:53:21.001Z</time></trkpt><trkpt lat="33.03448050752739" lon="9.517621830144533"><ele>222.0</ele><time>2026-03-30T12:53:22.001Z</time></trkpt><trkpt lat="33.03447482788892" lon="9.517771719889474"><ele>222.0</ele><time>2026-03-30T12:53:23.001Z</time></trkpt><trkpt lat="33.034465760773465" lon="9.517920769922572"><ele>222.0</ele><time>2026-03-30T12:53:24.001Z</time></trkpt><trkpt lat="33.03446219012593" lon="9.518075818504226"><ele>222.0</ele><time>2026-03-30T12:53:25.001Z</time></trkpt><trkpt lat="33.034464169680355" lon="9.518221870216934"><ele>222.0</ele><time>2026-03-30T12:53:26.001Z</time></trkpt><trkpt lat="33.03446543656088" lon="9.518365854731053"><ele>222.0</ele><time>2026-03-30T12:53:27.001Z</time></trkpt><trkpt lat="33.03447179481405" lon="9.51850911263408"><ele>222.0</ele><time>2026-03-30T12:53:28.001Z</time></trkpt><trkpt lat="33.034475709079786" lon="9.518655787269267"><ele>222.75</ele><time>2026-03-30T12:53:29.001Z</time></trkpt><trkpt lat="33.03448245515268" lon="9.518816265977202"><ele>223.5</ele><time>2026-03-30T12:53:30Z</time></trkpt><trkpt lat="33.03448618253717" lon="9.518970471195027"><ele>224.25</ele><time>2026-03-30T12:53:31Z</time></trkpt><trkpt lat="33.034483775768614" lon="9.519137390944476"><ele>225.0</ele><time>2026-03-30T12:53:32Z</time></trkpt><trkpt lat="33.03448087604495" lon="9.519309128163698"><ele>225.0</ele><time>2026-03-30T12:53:33Z</time></trkpt><trkpt lat="33.034486457666006" lon="9.519500206161899"><ele>225.0</ele><time>2026-03-30T12:53:34Z</time></trkpt><trkpt lat="33.0344966055967" lon="9.51969041126044"><ele>225.0</ele><time>2026-03-30T12:53:35Z</time></trkpt><trkpt lat="33.03450755058809" lon="9.51988079074484"><ele>225.0</ele><time>2026-03-30T12:53:36Z</time></trkpt><trkpt lat="33.034508273187875" lon="9.52007440810143"><ele>225.0</ele><time>2026-03-30T12:53:37Z</time></trkpt><trkpt lat="33.03451020131021" lon="9.520256942628254"><ele>225.0</ele><time>2026-03-30T12:53:38Z</time></trkpt><trkpt lat="33.03451924901645" lon="9.520456780607857"><ele>224.66666666666669</ele><time>2026-03-30T12:53:39Z</time></trkpt><trkpt lat="33.0345247936021" lon="9.520640419629538"><ele>224.33333333333334</ele><time>2026-03-30T12:53:40Z</time></trkpt><trkpt lat="33.03453102632192" lon="9.520829525507423"><ele>224.0</ele><time>2026-03-30T12:53:41Z</time></trkpt><trkpt lat="33.03453997206201" lon="9.52101601904688"><ele>224.0</ele><time>2026-03-30T12:53:42Z</time></trkpt><trkpt lat="33.03455179924897" lon="9.521199510801232"><ele>224.0</ele><time>2026-03-30T12:53:43Z</time></trkpt><trkpt lat="33.03455517743002" lon="9.521373849163576"><ele>224.0</ele><time>2026-03-30T12:53:44Z</time></trkpt><trkpt lat="33.03456216160017" lon="9.521555890810447"><ele>224.25</ele><time>2026-03-30T12:53:45Z</time></trkpt><trkpt lat="33.03457293681534" lon="9.521727234051736"><ele>224.5</ele><time>2026-03-30T12:53:46Z</time></trkpt><trkpt lat="33.03457362932556" lon="9.521896501988257"><ele>224.75</ele><time>2026-03-30T12:53:47Z</time></trkpt><trkpt lat="33.03457740014874" lon="9.522068200506077"><ele>225.0</ele><time>2026-03-30T12:53:48Z</time></trkpt><trkpt lat="33.0345820833991" lon="9.522237949403854"><ele>225.25</ele><time>2026-03-30T12:53:49Z</time></trkpt><trkpt lat="33.034584824845666" lon="9.522402421042393"><ele>225.5</ele><time>2026-03-30T12:53:50Z</time></trkpt><trkpt lat="33.0345879414606" lon="9.522560948089842"><ele>225.75</ele><time>2026-03-30T12:53:51Z</time></trkpt><trkpt lat="33.034594479151224" lon="9.5226896374077"><ele>226.0</ele><time>2026-03-30T12:53:52Z</time></trkpt><trkpt lat="33.03459226531999" lon="9.522813032770616"><ele>225.4</ele><time>2026-03-30T12:53:53Z</time></trkpt><trkpt lat="33.03459479526715" lon="9.522922897208895"><ele>224.8</ele><time>2026-03-30T12:53:54Z</time></trkpt><trkpt lat="33.03459318992363" lon="9.523028425896014"><ele>224.20000000000002</ele><time>2026-03-30T12:53:55Z</time></trkpt><trkpt lat="33.03459334331108" lon="9.523145786084186"><ele>223.60000000000002</ele><time>2026-03-30T12:53:56Z</time></trkpt><trkpt lat="33.03459323460942" lon="9.523268492077655"><ele>223.0</ele><time>2026-03-30T12:53:57Z</time></trkpt><trkpt lat="33.03459619907516" lon="9.523391420742687"><ele>223.0</ele><time>2026-03-30T12:53:58Z</time></trkpt><trkpt lat="33.03460149563538" lon="9.523502157394523"><ele>223.0</ele><time>2026-03-30T12:53:59Z</time></trkpt><trkpt lat="33.03460240749339" lon="9.523604458889283"><ele>223.0</ele><time>2026-03-30T12:54:00Z</time></trkpt><trkpt lat="33.034596209666105" lon="9.523708273394393"><ele>223.0</ele><time>2026-03-30T12:54:01Z</time></trkpt><trkpt lat="33.03460117458987" lon="9.523799133016503"><ele>223.0</ele><time>2026-03-30T12:54:02Z</time></trkpt><trkpt lat="33.034609741668575" lon="9.523947146425163"><ele>222.16666666666666</ele><time>2026-03-30T12:54:04Z</time></trkpt><trkpt lat="33.034616522801024" lon="9.524074727949555"><ele>221.33333333333331</ele><time>2026-03-30T12:54:06Z</time></trkpt><trkpt lat="33.03461559650029" lon="9.524159438564908"><ele>220.5</ele><time>2026-03-30T12:54:07Z</time></trkpt><trkpt lat="33.034604504614954" lon="9.52423692970039"><ele>219.66666666666669</ele><time>2026-03-30T12:54:08Z</time></trkpt><trkpt lat="33.0345856882876" lon="9.52430908700693"><ele>218.83333333333334</ele><time>2026-03-30T12:54:09Z</time></trkpt><trkpt lat="33.03456788977602" lon="9.524449021511419"><ele>218.0</ele><time>2026-03-30T12:54:11Z</time></trkpt><trkpt lat="33.03460828841787" lon="9.524594451241033"><ele>217.16666666666669</ele><time>2026-03-30T12:54:13Z</time></trkpt><trkpt lat="33.03463756494937" lon="9.524690295916317"><ele>216.33333333333334</ele><time>2026-03-30T12:54:14Z</time></trkpt><trkpt lat="33.03465286972036" lon="9.524792652695503"><ele>215.5</ele><time>2026-03-30T12:54:15Z</time></trkpt><trkpt lat="33.03466455197147" lon="9.524891475071904"><ele>214.66666666666669</ele><time>2026-03-30T12:54:16Z</time></trkpt><trkpt lat="33.03466721791091" lon="9.524993383131582"><ele>213.83333333333334</ele><time>2026-03-30T12:54:17Z</time></trkpt><trkpt lat="33.034668178552344" lon="9.525096354392415"><ele>213.0</ele><time>2026-03-30T12:54:18Z</time></trkpt><trkpt lat="33.03466825284524" lon="9.525192658328603"><ele>213.0</ele><time>2026-03-30T12:54:19Z</time></trkpt><trkpt lat="33.03466603038483" lon="9.525301764516094"><ele>213.0</ele><time>2026-03-30T12:54:20Z</time></trkpt><trkpt lat="33.03466746196227" lon="9.525417070353274"><ele>213.0</ele><time>2026-03-30T12:54:21Z</time></trkpt><trkpt lat="33.03467933411893" lon="9.525528236718305"><ele>213.0</ele><time>2026-03-30T12:54:22Z</time></trkpt><trkpt lat="33.03468296953203" lon="9.525641106695385"><ele>213.0</ele><time>2026-03-30T12:54:23Z</time></trkpt><trkpt lat="33.034686142227656" lon="9.52577772906866"><ele>212.0</ele><time>2026-03-30T12:54:24Z</time></trkpt><trkpt lat="33.03468848332397" lon="9.525907495554234"><ele>212.0</ele><time>2026-03-30T12:54:25Z</time></trkpt><trkpt lat="33.03469199990726" lon="9.526027636377458"><ele>212.0</ele><time>2026-03-30T12:54:26Z</time></trkpt><trkpt lat="33.034690426332936" lon="9.526145569701391"><ele>212.0</ele><time>2026-03-30T12:54:27Z</time></trkpt></trkseg><trkseg><trkpt lat="33.03462917660514" lon="9.527021127605048"><ele>208.39999999999998</ele><time>2026-03-30T13:05:04.999Z</time></trkpt><trkpt lat="33.03459566942941" lon="9.527099589544969"><ele>207.8</ele><time>2026-03-30T13:05:06.999Z</time></trkpt><trkpt lat="33.03454203609101" lon="9.527209573933286"><ele>207.2</ele><time>2026-03-30T13:05:08.999Z</time></trkpt><trkpt lat="33.03448398936803" lon="9.527344226794131"><ele>206.60000000000002</ele><time>2026-03-30T13:05:10.999Z</time></trkpt><trkpt lat="33.03445750007954" lon="9.52742099511696"><ele>206.0</ele><time>2026-03-30T13:05:11.999Z</time></trkpt><trkpt lat="33.0344230554369" lon="9.52750108493564"><ele>206.0</ele><time>2026-03-30T13:05:12.999Z</time></trkpt><trkpt lat="33.034389323743234" lon="9.527578940228974"><ele>206.0</ele><time>2026-03-30T13:05:13.999Z</time></trkpt><trkpt lat="33.03434616154109" lon="9.52767161426444"><ele>206.0</ele><time>2026-03-30T13:05:14.999Z</time></trkpt><trkpt lat="33.03429842969068" lon="9.527764461194428"><ele>206.0</ele><time>2026-03-30T13:05:15.999Z</time></trkpt><trkpt lat="33.034247333673086" lon="9.527870761233341"><ele>206.0</ele><time>2026-03-30T13:05:16.999Z</time></trkpt><trkpt lat="33.03418742241433" lon="9.52798637799812"><ele>206.0</ele><time>2026-03-30T13:05:17.999Z</time></trkpt><trkpt lat="33.03411572100608" lon="9.52808090412072"><ele>206.0</ele><time>2026-03-30T13:05:18.999Z</time></trkpt><trkpt lat="33.034035827279375" lon="9.528175705364541"><ele>206.0</ele><time>2026-03-30T13:05:19.999Z</time></trkpt><trkpt lat="33.03395605515754" lon="9.528246111575603"><ele>206.0</ele><time>2026-03-30T13:05:20.999Z</time></trkpt><trkpt lat="33.03386994378483" lon="9.528295850904538"><ele>206.0</ele><time>2026-03-30T13:05:21.999Z</time></trkpt><trkpt lat="33.033773976854654" lon="9.528331932046273"><ele>206.0</ele><time>2026-03-30T13:05:22.999Z</time></trkpt><trkpt lat="33.03366361353868" lon="9.528388513271073"><ele>206.0</ele><time>2026-03-30T13:05:23.999Z</time></trkpt><trkpt lat="33.03358347276732" lon="9.528453572673678"><ele>206.0</ele><time>2026-03-30T13:05:24.999Z</time></trkpt><trkpt lat="33.03350866136244" lon="9.528543873747532"><ele>206.0</ele><time>2026-03-30T13:05:25.999Z</time></trkpt><trkpt lat="33.033443605202656" lon="9.528652240335804"><ele>206.0</ele><time>2026-03-30T13:05:26.999Z</time></trkpt><trkpt lat="33.03338158256254" lon="9.528782499413737"><ele>206.25</ele><time>2026-03-30T13:05:27.999Z</time></trkpt><trkpt lat="33.033325509054876" lon="9.528923794875626"><ele>206.5</ele><time>2026-03-30T13:05:28.999Z</time></trkpt><trkpt lat="33.033279798794176" lon="9.52906073501985"><ele>206.75</ele><time>2026-03-30T13:05:29.999Z</time></trkpt><trkpt lat="33.033241467126444" lon="9.52919259191447"><ele>207.0</ele><time>2026-03-30T13:05:30.999Z</time></trkpt><trkpt lat="33.03321294148665" lon="9.529326034788626"><ele>207.0</ele><time>2026-03-30T13:05:31.999Z</time></trkpt><trkpt lat="33.03318816892333" lon="9.529465283477657"><ele>207.0</ele><time>2026-03-30T13:05:32.999Z</time></trkpt><trkpt lat="33.033167399934285" lon="9.52961429718913"><ele>207.0</ele><time>2026-03-30T13:05:33.999Z</time></trkpt><trkpt lat="33.03314663218926" lon="9.52976575383035"><ele>207.0</ele><time>2026-03-30T13:05:34.999Z</time></trkpt><trkpt lat="33.03313314060179" lon="9.529916810945922"><ele>206.5</ele><time>2026-03-30T13:05:35.999Z</time></trkpt><trkpt lat="33.03310643905372" lon="9.530076157328951"><ele>206.0</ele><time>2026-03-30T13:05:36.999Z</time></trkpt><trkpt lat="33.03306953143761" lon="9.530240024477974"><ele>205.5</ele><time>2026-03-30T13:05:37.999Z</time></trkpt><trkpt lat="33.033028194994124" lon="9.530396579106034"><ele>205.0</ele><time>2026-03-30T13:05:38.999Z</time></trkpt><trkpt lat="33.03297476254876" lon="9.530546665911706"><ele>204.25</ele><time>2026-03-30T13:05:39.999Z</time></trkpt><trkpt lat="33.032909787826306" lon="9.530692328064749"><ele>203.5</ele><time>2026-03-30T13:05:40.999Z</time></trkpt><trkpt lat="33.03286202090931" lon="9.530817644059338"><ele>202.75</ele><time>2026-03-30T13:05:41.999Z</time></trkpt><trkpt lat="33.032823699882684" lon="9.530943340563933"><ele>202.0</ele><time>2026-03-30T13:05:42.999Z</time></trkpt><trkpt lat="33.032786642039525" lon="9.531082771429533"><ele>202.0</ele><time>2026-03-30T13:05:43.999Z</time></trkpt><trkpt lat="33.032746674744466" lon="9.531219179856214"><ele>202.0</ele><time>2026-03-30T13:05:44.999Z</time></trkpt><trkpt lat="33.03270242926106" lon="9.531339505106006"><ele>202.0</ele><time>2026-03-30T13:05:45.999Z</time></trkpt><trkpt lat="33.03265960988247" lon="9.531449544545081"><ele>202.0</ele><time>2026-03-30T13:05:46.999Z</time></trkpt><trkpt lat="33.032608108724354" lon="9.531565082805926"><ele>202.0</ele><time>2026-03-30T13:05:47.999Z</time></trkpt><trkpt lat="33.03255503018494" lon="9.5316836224261"><ele>202.0</ele><time>2026-03-30T13:05:48.999Z</time></trkpt><trkpt lat="33.03250126098789" lon="9.531792392124602"><ele>202.0</ele><time>2026-03-30T13:05:49.999Z</time></trkpt><trkpt lat="33.032446920954285" lon="9.531910155671644"><ele>202.0</ele><time>2026-03-30T13:05:50.999Z</time></trkpt><trkpt lat="33.03239383391165" lon="9.532024316814796"><ele>202.0</ele><time>2026-03-30T13:05:51.999Z</time></trkpt><trkpt lat="33.032332394479894" lon="9.532136094614668"><ele>202.0</ele><time>2026-03-30T13:05:52.999Z</time></trkpt><trkpt lat="33.03226055452996" lon="9.53222827968102"><ele>202.8</ele><time>2026-03-30T13:05:53.999Z</time></trkpt><trkpt lat="33.032195976357016" lon="9.532319135654497"><ele>203.6</ele><time>2026-03-30T13:05:54.999Z</time></trkpt><trkpt lat="33.03212995739293" lon="9.532418342720774"><ele>204.4</ele><time>2026-03-30T13:05:55.999Z</time></trkpt><trkpt lat="33.03205472851386" lon="9.53253413720777"><ele>205.20000000000002</ele><time>2026-03-30T13:05:56.999Z</time></trkpt><trkpt lat="33.03198494597071" lon="9.532647269446539"><ele>206.0</ele><time>2026-03-30T13:05:57.999Z</time></trkpt><trkpt lat="33.03193073704156" lon="9.532756010364528"><ele>206.0</ele><time>2026-03-30T13:05:58.999Z</time></trkpt><trkpt lat="33.03188105924286" lon="9.532872288391356"><ele>206.0</ele><time>2026-03-30T13:05:59.999Z</time></trkpt><trkpt lat="33.03183016929003" lon="9.533006694559617"><ele>206.0</ele><time>2026-03-30T13:06:00.999Z</time></trkpt><trkpt lat="33.03177459034735" lon="9.533144598189198"><ele>206.0</ele><time>2026-03-30T13:06:01.999Z</time></trkpt><trkpt lat="33.031724122850186" lon="9.533269440001863"><ele>205.66666666666669</ele><time>2026-03-30T13:06:02.999Z</time></trkpt><trkpt lat="33.03168164134625" lon="9.533377819595588"><ele>205.33333333333334</ele><time>2026-03-30T13:06:03.999Z</time></trkpt><trkpt lat="33.031640663937" lon="9.533450052548188"><ele>205.0</ele><time>2026-03-30T13:06:04.999Z</time></trkpt><trkpt lat="33.031596609323934" lon="9.533524386865064"><ele>204.66666666666669</ele><time>2026-03-30T13:06:05.999Z</time></trkpt><trkpt lat="33.03156148716919" lon="9.533587358115264"><ele>204.33333333333334</ele><time>2026-03-30T13:06:06.999Z</time></trkpt><trkpt lat="33.031513484778486" lon="9.533661778444827"><ele>204.0</ele><time>2026-03-30T13:06:07.999Z</time></trkpt><trkpt lat="33.03146471952163" lon="9.533747147801348"><ele>204.0</ele><time>2026-03-30T13:06:08.999Z</time></trkpt><trkpt lat="33.03140391584614" lon="9.533843335084732"><ele>204.0</ele><time>2026-03-30T13:06:09.999Z</time></trkpt><trkpt lat="33.031338175850685" lon="9.533945756747165"><ele>204.0</ele><time>2026-03-30T13:06:10.999Z</time></trkpt><trkpt lat="33.03128327358795" lon="9.534053827485943"><ele>204.0</ele><time>2026-03-30T13:06:11.999Z</time></trkpt><trkpt lat="33.03122565576758" lon="9.534160471211019"><ele>204.0</ele><time>2026-03-30T13:06:12.999Z</time></trkpt><trkpt lat="33.03117861724823" lon="9.534274682838374"><ele>204.0</ele><time>2026-03-30T13:06:13.999Z</time></trkpt><trkpt lat="33.031135192240434" lon="9.534402530657914"><ele>204.0</ele><time>2026-03-30T13:06:14.999Z</time></trkpt><trkpt lat="33.031098377100776" lon="9.534534046547623"><ele>204.0</ele><time>2026-03-30T13:06:15.999Z</time></trkpt><trkpt lat="33.031064370001275" lon="9.534670704806302"><ele>204.0</ele><time>2026-03-30T13:06:16.999Z</time></trkpt><trkpt lat="33.03102898014949" lon="9.534806103649698"><ele>204.25</ele><time>2026-03-30T13:06:17.999Z</time></trkpt><trkpt lat="33.030990647737106" lon="9.534956241827508"><ele>204.5</ele><time>2026-03-30T13:06:18.999Z</time></trkpt><trkpt lat="33.030947356372" lon="9.53510094872219"><ele>204.75</ele><time>2026-03-30T13:06:19.999Z</time></trkpt><trkpt lat="33.03090320846784" lon="9.53524380604536"><ele>205.0</ele><time>2026-03-30T13:06:20.999Z</time></trkpt><trkpt lat="33.03086282562762" lon="9.53539076935537"><ele>205.25</ele><time>2026-03-30T13:06:21.999Z</time></trkpt><trkpt lat="33.030821498585006" lon="9.53553637240575"><ele>205.5</ele><time>2026-03-30T13:06:22.999Z</time></trkpt><trkpt lat="33.03078088974443" lon="9.535678323401847"><ele>205.75</ele><time>2026-03-30T13:06:23.999Z</time></trkpt><trkpt lat="33.0307416800149" lon="9.535818339497917"><ele>206.0</ele><time>2026-03-30T13:06:24.999Z</time></trkpt><trkpt lat="33.030710378717416" lon="9.535955473567288"><ele>206.25</ele><time>2026-03-30T13:06:25.999Z</time></trkpt><trkpt lat="33.03068007123247" lon="9.536105684537743"><ele>206.5</ele><time>2026-03-30T13:06:26.999Z</time></trkpt><trkpt lat="33.030649780793915" lon="9.536252553191042"><ele>206.75</ele><time>2026-03-30T13:06:27.999Z</time></trkpt><trkpt lat="33.030615552971994" lon="9.536397182619973"><ele>207.0</ele><time>2026-03-30T13:06:28.999Z</time></trkpt><trkpt lat="33.03057637121995" lon="9.536532526108907"><ele>207.0</ele><time>2026-03-30T13:06:29.999Z</time></trkpt><trkpt lat="33.030523815630154" lon="9.536675394137081"><ele>207.0</ele><time>2026-03-30T13:06:30.999Z</time></trkpt><trkpt lat="33.03046388338077" lon="9.536813200383842"><ele>207.0</ele><time>2026-03-30T13:06:31.999Z</time></trkpt><trkpt lat="33.03041345725001" lon="9.536959625232464"><ele>207.0</ele><time>2026-03-30T13:06:32.999Z</time></trkpt><trkpt lat="33.030384364022055" lon="9.53710748573362"><ele>207.0</ele><time>2026-03-30T13:06:33.999Z</time></trkpt><trkpt lat="33.030366264500806" lon="9.537270349280577"><ele>207.0</ele><time>2026-03-30T13:06:34.999Z</time></trkpt><trkpt lat="33.03035168730971" lon="9.537434513227977"><ele>207.0</ele><time>2026-03-30T13:06:35.999Z</time></trkpt><trkpt lat="33.03033465584558" lon="9.537592899629177"><ele>207.0</ele><time>2026-03-30T13:06:36.999Z</time></trkpt><trkpt lat="33.03031497781962" lon="9.537755792457745"><ele>207.0</ele><time>2026-03-30T13:06:37.999Z</time></trkpt><trkpt lat="33.03028513707053" lon="9.537927156392708"><ele>207.0</ele><time>2026-03-30T13:06:38.999Z</time></trkpt><trkpt lat="33.03025547550894" lon="9.538085924638583"><ele>207.0</ele><time>2026-03-30T13:06:39.999Z</time></trkpt><trkpt lat="33.03022272816538" lon="9.538244622704292"><ele>207.0</ele><time>2026-03-30T13:06:40.999Z</time></trkpt><trkpt lat="33.03019179192232" lon="9.538406856319853"><ele>207.0</ele><time>2026-03-30T13:06:41.999Z</time></trkpt><trkpt lat="33.030162789611325" lon="9.538559115567947"><ele>207.0</ele><time>2026-03-30T13:06:42.999Z</time></trkpt><trkpt lat="33.030131205744816" lon="9.53870440563745"><ele>207.0</ele><time>2026-03-30T13:06:43.999Z</time></trkpt><trkpt lat="33.030097383450126" lon="9.538843870876919"><ele>207.0</ele><time>2026-03-30T13:06:44.999Z</time></trkpt><trkpt lat="33.030074266153235" lon="9.538958232873043"><ele>206.83333333333334</ele><time>2026-03-30T13:06:45.999Z</time></trkpt><trkpt lat="33.030052966284416" lon="9.53906680526761"><ele>206.66666666666669</ele><time>2026-03-30T13:06:46.999Z</time></trkpt><trkpt lat="33.03003287920182" lon="9.53914472690276"><ele>206.5</ele><time>2026-03-30T13:06:47.999Z</time></trkpt><trkpt lat="33.03001102118646" lon="9.539239177878414"><ele>206.33333333333334</ele><time>2026-03-30T13:06:48.999Z</time></trkpt><trkpt lat="33.02998488458687" lon="9.539333273083319"><ele>206.16666666666669</ele><time>2026-03-30T13:06:49.999Z</time></trkpt><trkpt lat="33.02995906050362" lon="9.539426793698981"><ele>206.0</ele><time>2026-03-30T13:06:50.999Z</time></trkpt><trkpt lat="33.02994950564016" lon="9.539515094482033"><ele>206.00000000000003</ele><time>2026-03-30T13:06:51.999Z</time></trkpt><trkpt lat="33.02993967395971" lon="9.539594948832747"><ele>206.0</ele><time>2026-03-30T13:06:52.999Z</time></trkpt><trkpt lat="33.02991912645004" lon="9.5396982576745"><ele>206.0</ele><time>2026-03-30T13:06:53.999Z</time></trkpt><trkpt lat="33.02989603693596" lon="9.539809333182816"><ele>206.0</ele><time>2026-03-30T13:06:54.999Z</time></trkpt><trkpt lat="33.02987773528635" lon="9.539911352709305"><ele>206.00000000000003</ele><time>2026-03-30T13:06:55.999Z</time></trkpt><trkpt lat="33.02984747545433" lon="9.540003788868422"><ele>206.0</ele><time>2026-03-30T13:06:56.999Z</time></trkpt><trkpt lat="33.02980348596058" lon="9.540117499663141"><ele>206.0</ele><time>2026-03-30T13:06:57.999Z</time></trkpt><trkpt lat="33.029755068114795" lon="9.54023302552495"><ele>206.0</ele><time>2026-03-30T13:06:58.999Z</time></trkpt><trkpt lat="33.029708689846444" lon="9.54035285131057"><ele>206.0</ele><time>2026-03-30T13:06:59.999Z</time></trkpt><trkpt lat="33.029661198873235" lon="9.540478268831269"><ele>206.0</ele><time>2026-03-30T13:07:00.999Z</time></trkpt><trkpt lat="33.0296183247888" lon="9.540597393196636"><ele>206.0</ele><time>2026-03-30T13:07:01.999Z</time></trkpt><trkpt lat="33.029582220710836" lon="9.540720598921208"><ele>206.20000000000002</ele><time>2026-03-30T13:07:02.999Z</time></trkpt><trkpt lat="33.02955285255338" lon="9.540850089937676"><ele>206.4</ele><time>2026-03-30T13:07:03.999Z</time></trkpt><trkpt lat="33.029524554951784" lon="9.54097760440124"><ele>206.6</ele><time>2026-03-30T13:07:04.999Z</time></trkpt><trkpt lat="33.02950166367851" lon="9.541104385774325"><ele>206.8</ele><time>2026-03-30T13:07:05.999Z</time></trkpt><trkpt lat="33.029478165126434" lon="9.541240207726876"><ele>207.0</ele><time>2026-03-30T13:07:06.999Z</time></trkpt><trkpt lat="33.029453611309776" lon="9.541378248930824"><ele>207.0</ele><time>2026-03-30T13:07:07.999Z</time></trkpt><trkpt lat="33.029427248766595" lon="9.541512356140473"><ele>207.0</ele><time>2026-03-30T13:07:08.999Z</time></trkpt><trkpt lat="33.02940625943178" lon="9.541639700418187"><ele>207.0</ele><time>2026-03-30T13:07:09.999Z</time></trkpt><trkpt lat="33.029399441836475" lon="9.541762090786444"><ele>207.0</ele><time>2026-03-30T13:07:10.999Z</time></trkpt><trkpt lat="33.02939232768263" lon="9.541892297847077"><ele>207.0</ele><time>2026-03-30T13:07:11.999Z</time></trkpt><trkpt lat="33.02938133782459" lon="9.542020826196712"><ele>206.8</ele><time>2026-03-30T13:07:12.999Z</time></trkpt><trkpt lat="33.029367916121146" lon="9.542152102756177"><ele>206.6</ele><time>2026-03-30T13:07:13.999Z</time></trkpt><trkpt lat="33.02935313999924" lon="9.542288830499595"><ele>206.4</ele><time>2026-03-30T13:07:14.999Z</time></trkpt><trkpt lat="33.0293377201386" lon="9.542413711289035"><ele>206.20000000000002</ele><time>2026-03-30T13:07:15.999Z</time></trkpt><trkpt lat="33.02931941208559" lon="9.542538649656517"><ele>206.0</ele><time>2026-03-30T13:07:16.999Z</time></trkpt><trkpt lat="33.02929838049205" lon="9.542651308825215"><ele>206.00000000000003</ele><time>2026-03-30T13:07:17.999Z</time></trkpt><trkpt lat="33.02927590055308" lon="9.542759583602027"><ele>206.0</ele><time>2026-03-30T13:07:19Z</time></trkpt><trkpt lat="33.02924580419074" lon="9.542846840186392"><ele>206.0</ele><time>2026-03-30T13:07:20Z</time></trkpt><trkpt lat="33.029197903618815" lon="9.542935906722295"><ele>206.0</ele><time>2026-03-30T13:07:21Z</time></trkpt><trkpt lat="33.02914494658897" lon="9.543029317459274"><ele>206.00000000000003</ele><time>2026-03-30T13:07:22Z</time></trkpt><trkpt lat="33.02909460229624" lon="9.54312130380175"><ele>206.0</ele><time>2026-03-30T13:07:23Z</time></trkpt><trkpt lat="33.02905681720133" lon="9.543213058270663"><ele>206.20000000000002</ele><time>2026-03-30T13:07:24Z</time></trkpt><trkpt lat="33.02901764395155" lon="9.543313390467333"><ele>206.4</ele><time>2026-03-30T13:07:25Z</time></trkpt><trkpt lat="33.02897776813212" lon="9.543422546291888"><ele>206.6</ele><time>2026-03-30T13:07:26Z</time></trkpt><trkpt lat="33.02893932975746" lon="9.543530391395857"><ele>206.8</ele><time>2026-03-30T13:07:27Z</time></trkpt><trkpt lat="33.028891606929015" lon="9.543642195837252"><ele>207.0</ele><time>2026-03-30T13:07:28Z</time></trkpt><trkpt lat="33.02885563267839" lon="9.543737915086618"><ele>207.39999999999998</ele><time>2026-03-30T13:07:29Z</time></trkpt><trkpt lat="33.028814668703625" lon="9.54383623402242"><ele>207.79999999999998</ele><time>2026-03-30T13:07:30Z</time></trkpt><trkpt lat="33.02877559900263" lon="9.543940609382881"><ele>208.2</ele><time>2026-03-30T13:07:31Z</time></trkpt><trkpt lat="33.02873061465702" lon="9.544052778903424"><ele>208.6</ele><time>2026-03-30T13:07:32Z</time></trkpt><trkpt lat="33.02869086147669" lon="9.54414959864956"><ele>209.0</ele><time>2026-03-30T13:07:33Z</time></trkpt><trkpt lat="33.02864296008999" lon="9.544257217166411"><ele>209.00000000000003</ele><time>2026-03-30T13:07:34Z</time></trkpt><trkpt lat="33.028602011070994" lon="9.544346048977179"><ele>209.0</ele><time>2026-03-30T13:07:35Z</time></trkpt><trkpt lat="33.028559605286596" lon="9.544438160325543"><ele>209.0</ele><time>2026-03-30T13:07:36Z</time></trkpt><trkpt lat="33.02852117725124" lon="9.544524481420833"><ele>209.0</ele><time>2026-03-30T13:07:37Z</time></trkpt><trkpt lat="33.02847760180159" lon="9.544608889729293"><ele>209.00000000000003</ele><time>2026-03-30T13:07:38Z</time></trkpt><trkpt lat="33.0284312537475" lon="9.544669532662866"><ele>209.0</ele><time>2026-03-30T13:07:39Z</time></trkpt><trkpt lat="33.02836751449262" lon="9.544738957037564"><ele>209.2</ele><time>2026-03-30T13:07:40Z</time></trkpt><trkpt lat="33.02830801585056" lon="9.54480835406613"><ele>209.39999999999998</ele><time>2026-03-30T13:07:41Z</time></trkpt><trkpt lat="33.028255501689245" lon="9.544875270651511"><ele>209.6</ele><time>2026-03-30T13:07:42Z</time></trkpt><trkpt lat="33.02815723187149" lon="9.545007571773489"><ele>209.8</ele><time>2026-03-30T13:07:44Z</time></trkpt><trkpt lat="33.02809962704488" lon="9.545081834686897"><ele>210.0</ele><time>2026-03-30T13:07:45Z</time></trkpt><trkpt lat="33.02804778493069" lon="9.5451484676328"><ele>210.0</ele><time>2026-03-30T13:07:46Z</time></trkpt><trkpt lat="33.02799785404294" lon="9.545218511639591"><ele>210.0</ele><time>2026-03-30T13:07:47Z</time></trkpt><trkpt lat="33.02795956393054" lon="9.545291229668118"><ele>210.0</ele><time>2026-03-30T13:07:48Z</time></trkpt><trkpt lat="33.02792663027728" lon="9.54536940274036"><ele>210.0</ele><time>2026-03-30T13:07:49Z</time></trkpt><trkpt lat="33.02789411676475" lon="9.545450196282054"><ele>210.0</ele><time>2026-03-30T13:07:50Z</time></trkpt><trkpt lat="33.02785648833204" lon="9.54552855538266"><ele>210.0</ele><time>2026-03-30T13:07:51Z</time></trkpt><trkpt lat="33.027769738558554" lon="9.545643761682905"><ele>209.85714285714286</ele><time>2026-03-30T13:07:53Z</time></trkpt><trkpt lat="33.02771301810966" lon="9.545702717635306"><ele>209.71428571428572</ele><time>2026-03-30T13:07:54Z</time></trkpt><trkpt lat="33.0276566450684" lon="9.545736234322451"><ele>209.57142857142856</ele><time>2026-03-30T13:07:55Z</time></trkpt><trkpt lat="33.027587072211915" lon="9.545766579063372"><ele>209.42857142857144</ele><time>2026-03-30T13:07:56Z</time></trkpt><trkpt lat="33.02752211516968" lon="9.54578507685718"><ele>209.28571428571428</ele><time>2026-03-30T13:07:57Z</time></trkpt><trkpt lat="33.02745221942564" lon="9.545810985256635"><ele>209.14285714285714</ele><time>2026-03-30T13:07:58Z</time></trkpt><trkpt lat="33.027390750284816" lon="9.545841146771757"><ele>209.0</ele><time>2026-03-30T13:07:59Z</time></trkpt><trkpt lat="33.02732593780404" lon="9.545869779042366"><ele>209.00000000000003</ele><time>2026-03-30T13:08:00Z</time></trkpt><trkpt lat="33.027262346533846" lon="9.545905213107762"><ele>209.0</ele><time>2026-03-30T13:08:01Z</time></trkpt><trkpt lat="33.02720066496187" lon="9.545945186130858"><ele>209.0</ele><time>2026-03-30T13:08:02Z</time></trkpt><trkpt lat="33.027107325116006" lon="9.54604241478931"><ele>209.0</ele><time>2026-03-30T13:08:04Z</time></trkpt><trkpt lat="33.027073946754484" lon="9.546111976554252"><ele>209.00000000000003</ele><time>2026-03-30T13:08:05Z</time></trkpt><trkpt lat="33.02704601015711" lon="9.546189910378533"><ele>209.0</ele><time>2026-03-30T13:08:06Z</time></trkpt><trkpt lat="33.02702230098224" lon="9.546273209212314"><ele>209.2</ele><time>2026-03-30T13:08:07Z</time></trkpt><trkpt lat="33.02698655265265" lon="9.546372886671671"><ele>209.39999999999998</ele><time>2026-03-30T13:08:08Z</time></trkpt><trkpt lat="33.02695205488218" lon="9.546475446787271"><ele>209.6</ele><time>2026-03-30T13:08:09Z</time></trkpt><trkpt lat="33.0269207730521" lon="9.54657498178848"><ele>209.8</ele><time>2026-03-30T13:08:10Z</time></trkpt><trkpt lat="33.02689085244055" lon="9.546671724239202"><ele>210.0</ele><time>2026-03-30T13:08:11Z</time></trkpt><trkpt lat="33.02684852873994" lon="9.546786949017642"><ele>210.0</ele><time>2026-03-30T13:08:12Z</time></trkpt><trkpt lat="33.02680042300668" lon="9.546900049525055"><ele>210.0</ele><time>2026-03-30T13:08:13Z</time></trkpt><trkpt lat="33.02675078666503" lon="9.54701026224501"><ele>210.0</ele><time>2026-03-30T13:08:14Z</time></trkpt><trkpt lat="33.02669824137207" lon="9.547126436274546"><ele>210.0</ele><time>2026-03-30T13:08:15Z</time></trkpt><trkpt lat="33.026638637930105" lon="9.547251174176747"><ele>210.0</ele><time>2026-03-30T13:08:16Z</time></trkpt><trkpt lat="33.02658083794603" lon="9.54738931797356"><ele>209.5</ele><time>2026-03-30T13:08:17Z</time></trkpt><trkpt lat="33.026529221754885" lon="9.547539213906806"><ele>209.0</ele><time>2026-03-30T13:08:18Z</time></trkpt><trkpt lat="33.02648195628166" lon="9.547698845439584"><ele>208.5</ele><time>2026-03-30T13:08:19Z</time></trkpt><trkpt lat="33.026429607748675" lon="9.547873646587226"><ele>208.0</ele><time>2026-03-30T13:08:20Z</time></trkpt><trkpt lat="33.026374577952666" lon="9.548085122926777"><ele>208.0</ele><time>2026-03-30T13:08:21Z</time></trkpt><trkpt lat="33.026312180163046" lon="9.548304711864368"><ele>208.0</ele><time>2026-03-30T13:08:22Z</time></trkpt><trkpt lat="33.026252631305816" lon="9.54850925802175"><ele>208.0</ele><time>2026-03-30T13:08:23Z</time></trkpt><trkpt lat="33.026196422126134" lon="9.548699019182143"><ele>207.66666666666666</ele><time>2026-03-30T13:08:24Z</time></trkpt><trkpt lat="33.026127769425976" lon="9.54888058870246"><ele>207.33333333333331</ele><time>2026-03-30T13:08:25Z</time></trkpt><trkpt lat="33.026062171561485" lon="9.549052879964181"><ele>207.0</ele><time>2026-03-30T13:08:26Z</time></trkpt><trkpt lat="33.02599584359837" lon="9.54922621187795"><ele>207.0</ele><time>2026-03-30T13:08:27Z</time></trkpt><trkpt lat="33.025936371802466" lon="9.54939908966444"><ele>207.0</ele><time>2026-03-30T13:08:28Z</time></trkpt><trkpt lat="33.025881834403464" lon="9.549565279333923"><ele>207.0</ele><time>2026-03-30T13:08:28.999Z</time></trkpt><trkpt lat="33.0258300192252" lon="9.549732024454833"><ele>207.25</ele><time>2026-03-30T13:08:29.999Z</time></trkpt><trkpt lat="33.025769151961185" lon="9.549898099323885"><ele>207.5</ele><time>2026-03-30T13:08:30.999Z</time></trkpt><trkpt lat="33.02571301943428" lon="9.550050681122471"><ele>207.75</ele><time>2026-03-30T13:08:31.999Z</time></trkpt><trkpt lat="33.02566270272354" lon="9.55019865603996"><ele>208.0</ele><time>2026-03-30T13:08:32.999Z</time></trkpt><trkpt lat="33.02562179476205" lon="9.550337112002"><ele>207.75</ele><time>2026-03-30T13:08:33.999Z</time></trkpt><trkpt lat="33.025577271273015" lon="9.550487875082858"><ele>207.5</ele><time>2026-03-30T13:08:34.999Z</time></trkpt><trkpt lat="33.02552958113086" lon="9.55064792280404"><ele>207.25</ele><time>2026-03-30T13:08:35.999Z</time></trkpt><trkpt lat="33.02549078671585" lon="9.550815233508583"><ele>207.0</ele><time>2026-03-30T13:08:36.999Z</time></trkpt><trkpt lat="33.025450605760454" lon="9.550980320268941"><ele>207.0</ele><time>2026-03-30T13:08:37.999Z</time></trkpt><trkpt lat="33.025407879613915" lon="9.551148732804387"><ele>207.0</ele><time>2026-03-30T13:08:38.999Z</time></trkpt><trkpt lat="33.02536177369225" lon="9.55130904520831"><ele>207.0</ele><time>2026-03-30T13:08:39.999Z</time></trkpt><trkpt lat="33.02531363371633" lon="9.551469612175357"><ele>207.0</ele><time>2026-03-30T13:08:40.999Z</time></trkpt><trkpt lat="33.02525589388432" lon="9.551622112837306"><ele>206.33333333333331</ele><time>2026-03-30T13:08:41.999Z</time></trkpt><trkpt lat="33.02518729836209" lon="9.551783660885974"><ele>205.66666666666666</ele><time>2026-03-30T13:08:42.999Z</time></trkpt><trkpt lat="33.025117924170274" lon="9.55194447555494"><ele>205.0</ele><time>2026-03-30T13:08:43.999Z</time></trkpt><trkpt lat="33.02504341403835" lon="9.55211568652044"><ele>204.66666666666666</ele><time>2026-03-30T13:08:44.999Z</time></trkpt><trkpt lat="33.02497133090454" lon="9.552282134574229"><ele>204.33333333333331</ele><time>2026-03-30T13:08:45.999Z</time></trkpt><trkpt lat="33.024902527981496" lon="9.552444195413626"><ele>204.0</ele><time>2026-03-30T13:08:46.999Z</time></trkpt><trkpt lat="33.02483856076766" lon="9.552603251425577"><ele>204.0</ele><time>2026-03-30T13:08:47.999Z</time></trkpt><trkpt lat="33.024784736513745" lon="9.552746747603157"><ele>204.0</ele><time>2026-03-30T13:08:48.999Z</time></trkpt><trkpt lat="33.02471958750406" lon="9.552896511761812"><ele>204.0</ele><time>2026-03-30T13:08:49.999Z</time></trkpt><trkpt lat="33.024653261552" lon="9.553055366431396"><ele>204.0</ele><time>2026-03-30T13:08:50.999Z</time></trkpt><trkpt lat="33.0245994694863" lon="9.55320133630848"><ele>205.0</ele><time>2026-03-30T13:08:51.999Z</time></trkpt><trkpt lat="33.024548532043696" lon="9.553353162732787"><ele>206.0</ele><time>2026-03-30T13:08:52.999Z</time></trkpt><trkpt lat="33.02451959993846" lon="9.553515097098778"><ele>207.0</ele><time>2026-03-30T13:08:53.999Z</time></trkpt><trkpt lat="33.02448713881394" lon="9.553675108340586"><ele>208.0</ele><time>2026-03-30T13:08:54.999Z</time></trkpt><trkpt lat="33.02446215673338" lon="9.553827655050313"><ele>208.0</ele><time>2026-03-30T13:08:55.999Z</time></trkpt><trkpt lat="33.0244401906729" lon="9.554000303509344"><ele>208.0</ele><time>2026-03-30T13:08:56.999Z</time></trkpt><trkpt lat="33.02442101568869" lon="9.554163066044289"><ele>208.0</ele><time>2026-03-30T13:08:57.999Z</time></trkpt><trkpt lat="33.024400787478534" lon="9.554330106102512"><ele>208.0</ele><time>2026-03-30T13:08:58.999Z</time></trkpt><trkpt lat="33.024378101919794" lon="9.554498390410387"><ele>208.25</ele><time>2026-03-30T13:08:59.999Z</time></trkpt><trkpt lat="33.02434654362339" lon="9.554658853574725"><ele>208.5</ele><time>2026-03-30T13:09:00.999Z</time></trkpt><trkpt lat="33.02430885221354" lon="9.554810008215746"><ele>208.75</ele><time>2026-03-30T13:09:01.999Z</time></trkpt><trkpt lat="33.02425882077747" lon="9.554970138307633"><ele>209.0</ele><time>2026-03-30T13:09:02.999Z</time></trkpt><trkpt lat="33.024209862280586" lon="9.555112661031789"><ele>209.0</ele><time>2026-03-30T13:09:03.999Z</time></trkpt><trkpt lat="33.02416005776394" lon="9.555269286668267"><ele>209.0</ele><time>2026-03-30T13:09:04.999Z</time></trkpt><trkpt lat="33.02411903475491" lon="9.555418855193434"><ele>209.0</ele><time>2026-03-30T13:09:05.999Z</time></trkpt><trkpt lat="33.024077716296915" lon="9.555561696985325"><ele>209.0</ele><time>2026-03-30T13:09:06.999Z</time></trkpt><trkpt lat="33.02405153649002" lon="9.555693325782443"><ele>209.25</ele><time>2026-03-30T13:09:07.999Z</time></trkpt><trkpt lat="33.02403816699648" lon="9.555845464599296"><ele>209.5</ele><time>2026-03-30T13:09:08.999Z</time></trkpt><trkpt lat="33.02402447806536" lon="9.555997361537765"><ele>209.75</ele><time>2026-03-30T13:09:10Z</time></trkpt><trkpt lat="33.02401222099422" lon="9.556147435715168"><ele>210.0</ele><time>2026-03-30T13:09:11Z</time></trkpt><trkpt lat="33.02400071673626" lon="9.556305778691733"><ele>210.25</ele><time>2026-03-30T13:09:12Z</time></trkpt><trkpt lat="33.02399011370674" lon="9.556464343891953"><ele>210.5</ele><time>2026-03-30T13:09:13Z</time></trkpt><trkpt lat="33.02397582726248" lon="9.556626771235424"><ele>210.75</ele><time>2026-03-30T13:09:14Z</time></trkpt><trkpt lat="33.02395989512837" lon="9.556780505119463"><ele>211.0</ele><time>2026-03-30T13:09:15Z</time></trkpt><trkpt lat="33.023940588821056" lon="9.556933370203355"><ele>211.0</ele><time>2026-03-30T13:09:16Z</time></trkpt><trkpt lat="33.023921428269674" lon="9.557081196511275"><ele>211.0</ele><time>2026-03-30T13:09:17Z</time></trkpt><trkpt lat="33.02389423790748" lon="9.557239639419226"><ele>211.0</ele><time>2026-03-30T13:09:18Z</time></trkpt><trkpt lat="33.02387135472016" lon="9.557386069239685"><ele>211.0</ele><time>2026-03-30T13:09:19Z</time></trkpt><trkpt lat="33.02385702757389" lon="9.557535277226304"><ele>211.0</ele><time>2026-03-30T13:09:20Z</time></trkpt><trkpt lat="33.02383209814456" lon="9.557689454390385"><ele>211.0</ele><time>2026-03-30T13:09:21Z</time></trkpt><trkpt lat="33.023808567411685" lon="9.55783360769573"><ele>211.0</ele><time>2026-03-30T13:09:22Z</time></trkpt><trkpt lat="33.02377940392079" lon="9.557978532607661"><ele>211.0</ele><time>2026-03-30T13:09:23Z</time></trkpt><trkpt lat="33.02374945798042" lon="9.558123988663002"><ele>211.25</ele><time>2026-03-30T13:09:24Z</time></trkpt><trkpt lat="33.02372734646802" lon="9.558268600929932"><ele>211.5</ele><time>2026-03-30T13:09:25Z</time></trkpt><trkpt lat="33.02370959208124" lon="9.55843409099566"><ele>211.75</ele><time>2026-03-30T13:09:26Z</time></trkpt><trkpt lat="33.02369100151622" lon="9.558584572050435"><ele>212.0</ele><time>2026-03-30T13:09:27Z</time></trkpt><trkpt lat="33.023670954034685" lon="9.558737678778314"><ele>212.25</ele><time>2026-03-30T13:09:28Z</time></trkpt><trkpt lat="33.023648335200086" lon="9.558894331616088"><ele>212.5</ele><time>2026-03-30T13:09:29Z</time></trkpt><trkpt lat="33.02363753211529" lon="9.559053549400412"><ele>212.75</ele><time>2026-03-30T13:09:30Z</time></trkpt><trkpt lat="33.0236250153789" lon="9.559223218592985"><ele>213.0</ele><time>2026-03-30T13:09:31Z</time></trkpt><trkpt lat="33.02360207704495" lon="9.559394005974392"><ele>213.25</ele><time>2026-03-30T13:09:32Z</time></trkpt><trkpt lat="33.02357474116016" lon="9.559567322112258"><ele>213.5</ele><time>2026-03-30T13:09:33Z</time></trkpt><trkpt lat="33.023545925506255" lon="9.559742367991813"><ele>213.75</ele><time>2026-03-30T13:09:34Z</time></trkpt><trkpt lat="33.023510721007085" lon="9.559900713813317"><ele>214.0</ele><time>2026-03-30T13:09:35Z</time></trkpt><trkpt lat="33.02346760103307" lon="9.560065081984696"><ele>214.0</ele><time>2026-03-30T13:09:36Z</time></trkpt><trkpt lat="33.023421653211734" lon="9.560226043910891"><ele>214.0</ele><time>2026-03-30T13:09:37Z</time></trkpt><trkpt lat="33.02336852425755" lon="9.560394617119055"><ele>214.0</ele><time>2026-03-30T13:09:38Z</time></trkpt><trkpt lat="33.02331767706554" lon="9.56055975956817"><ele>214.0</ele><time>2026-03-30T13:09:39Z</time></trkpt><trkpt lat="33.02327410696289" lon="9.560730939012789"><ele>214.0</ele><time>2026-03-30T13:09:40Z</time></trkpt><trkpt lat="33.02322772510284" lon="9.560913246066942"><ele>214.0</ele><time>2026-03-30T13:09:41Z</time></trkpt><trkpt lat="33.02318814858781" lon="9.561094399485475"><ele>214.0</ele><time>2026-03-30T13:09:42Z</time></trkpt><trkpt lat="33.023165260153675" lon="9.561276278459149"><ele>214.0</ele><time>2026-03-30T13:09:43Z</time></trkpt><trkpt lat="33.02315201818637" lon="9.56145372683282"><ele>214.0</ele><time>2026-03-30T13:09:44Z</time></trkpt><trkpt lat="33.02313827486634" lon="9.561631361313099"><ele>214.0</ele><time>2026-03-30T13:09:45Z</time></trkpt><trkpt lat="33.02312241857879" lon="9.5618025967414"><ele>214.0</ele><time>2026-03-30T13:09:46Z</time></trkpt><trkpt lat="33.023093460992904" lon="9.561973537117115"><ele>213.75</ele><time>2026-03-30T13:09:47Z</time></trkpt><trkpt lat="33.02306272719474" lon="9.562137378074219"><ele>213.5</ele><time>2026-03-30T13:09:48Z</time></trkpt><trkpt lat="33.02302605867473" lon="9.56231270679488"><ele>213.25</ele><time>2026-03-30T13:09:49Z</time></trkpt><trkpt lat="33.022992140536935" lon="9.562484180563123"><ele>213.0</ele><time>2026-03-30T13:09:50Z</time></trkpt><trkpt lat="33.02294938071964" lon="9.562663249905004"><ele>213.0</ele><time>2026-03-30T13:09:51Z</time></trkpt><trkpt lat="33.022911786780156" lon="9.56284570928297"><ele>213.0</ele><time>2026-03-30T13:09:52Z</time></trkpt><trkpt lat="33.0228729654291" lon="9.563024747458874"><ele>213.0</ele><time>2026-03-30T13:09:53Z</time></trkpt><trkpt lat="33.02284804927689" lon="9.56320381228256"><ele>213.0</ele><time>2026-03-30T13:09:54Z</time></trkpt><trkpt lat="33.02282110068323" lon="9.56338558369122"><ele>213.0</ele><time>2026-03-30T13:09:55Z</time></trkpt><trkpt lat="33.022788866549696" lon="9.563581027430564"><ele>213.0</ele><time>2026-03-30T13:09:56Z</time></trkpt><trkpt lat="33.02276423642424" lon="9.56375513031897"><ele>213.66666666666669</ele><time>2026-03-30T13:09:57Z</time></trkpt><trkpt lat="33.022754052854644" lon="9.563939530767549"><ele>214.33333333333334</ele><time>2026-03-30T13:09:58Z</time></trkpt><trkpt lat="33.022758027787354" lon="9.564110013904727"><ele>215.0</ele><time>2026-03-30T13:09:59Z</time></trkpt><trkpt lat="33.02277781165869" lon="9.564293332342542"><ele>215.0</ele><time>2026-03-30T13:10:00Z</time></trkpt><trkpt lat="33.02281507674519" lon="9.564477804304614"><ele>215.0</ele><time>2026-03-30T13:10:01Z</time></trkpt><trkpt lat="33.02285018222853" lon="9.564650220743058"><ele>215.0</ele><time>2026-03-30T13:10:02Z</time></trkpt><trkpt lat="33.022891431238484" lon="9.564823569867189"><ele>215.0</ele><time>2026-03-30T13:10:03Z</time></trkpt><trkpt lat="33.022937432234436" lon="9.564990840639064"><ele>215.0</ele><time>2026-03-30T13:10:04Z</time></trkpt><trkpt lat="33.02298448223501" lon="9.565147527662676"><ele>215.0</ele><time>2026-03-30T13:10:05Z</time></trkpt><trkpt lat="33.02303045127159" lon="9.565295755420987"><ele>215.0</ele><time>2026-03-30T13:10:06Z</time></trkpt><trkpt lat="33.02305449689718" lon="9.565442479492214"><ele>215.0</ele><time>2026-03-30T13:10:07Z</time></trkpt><trkpt lat="33.023067228544015" lon="9.565596174923813"><ele>215.0</ele><time>2026-03-30T13:10:08Z</time></trkpt><trkpt lat="33.023074903961295" lon="9.565764252310059"><ele>215.0</ele><time>2026-03-30T13:10:09Z</time></trkpt><trkpt lat="33.023085722694894" lon="9.565928021715319"><ele>215.0</ele><time>2026-03-30T13:10:10Z</time></trkpt><trkpt lat="33.023096829448164" lon="9.566090833584523"><ele>215.25</ele><time>2026-03-30T13:10:11Z</time></trkpt><trkpt lat="33.0230996977552" lon="9.566241839277852"><ele>215.5</ele><time>2026-03-30T13:10:12Z</time></trkpt><trkpt lat="33.023090523910305" lon="9.566375725778732"><ele>215.75</ele><time>2026-03-30T13:10:13Z</time></trkpt><trkpt lat="33.02306436082229" lon="9.56652176958002"><ele>216.0</ele><time>2026-03-30T13:10:14Z</time></trkpt><trkpt lat="33.023033509020365" lon="9.56667204017102"><ele>216.0</ele><time>2026-03-30T13:10:15Z</time></trkpt><trkpt lat="33.02300247758062" lon="9.566830216576736"><ele>216.0</ele><time>2026-03-30T13:10:16Z</time></trkpt><trkpt lat="33.022972055059725" lon="9.56699812774694"><ele>216.0</ele><time>2026-03-30T13:10:17Z</time></trkpt><trkpt lat="33.02294489598507" lon="9.56715747413653"><ele>216.0</ele><time>2026-03-30T13:10:18Z</time></trkpt><trkpt lat="33.022917434009095" lon="9.567320137399337"><ele>215.66666666666669</ele><time>2026-03-30T13:10:19Z</time></trkpt><trkpt lat="33.02289312454127" lon="9.567492514120964"><ele>215.33333333333334</ele><time>2026-03-30T13:10:20Z</time></trkpt><trkpt lat="33.022864491362725" lon="9.567685452926753"><ele>215.0</ele><time>2026-03-30T13:10:21Z</time></trkpt><trkpt lat="33.022837453021964" lon="9.567874459650882"><ele>215.0</ele><time>2026-03-30T13:10:22Z</time></trkpt><trkpt lat="33.022814031798134" lon="9.568027336936161"><ele>215.0</ele><time>2026-03-30T13:10:23Z</time></trkpt><trkpt lat="33.02280123800106" lon="9.568168730985448"><ele>215.0</ele><time>2026-03-30T13:10:24Z</time></trkpt><trkpt lat="33.02278774494232" lon="9.568311835487455"><ele>215.0</ele><time>2026-03-30T13:10:25Z</time></trkpt><trkpt lat="33.022767871934285" lon="9.568463135118863"><ele>215.0</ele><time>2026-03-30T13:10:26Z</time></trkpt><trkpt lat="33.022756774418845" lon="9.568632022336768"><ele>215.0</ele><time>2026-03-30T13:10:27Z</time></trkpt><trkpt lat="33.022752764441684" lon="9.568790618907283"><ele>215.0</ele><time>2026-03-30T13:10:28Z</time></trkpt><trkpt lat="33.02274634950169" lon="9.568953722973145"><ele>215.0</ele><time>2026-03-30T13:10:29Z</time></trkpt><trkpt lat="33.022738772337945" lon="9.569103926369657"><ele>215.25</ele><time>2026-03-30T13:10:30Z</time></trkpt><trkpt lat="33.02272980111619" lon="9.569263038988742"><ele>215.5</ele><time>2026-03-30T13:10:31Z</time></trkpt><trkpt lat="33.02271354736013" lon="9.569424093383818"><ele>215.75</ele><time>2026-03-30T13:10:32Z</time></trkpt><trkpt lat="33.02269032260761" lon="9.56958904794687"><ele>216.0</ele><time>2026-03-30T13:10:33Z</time></trkpt><trkpt lat="33.02266771286274" lon="9.569748530311852"><ele>216.0</ele><time>2026-03-30T13:10:34Z</time></trkpt><trkpt lat="33.02263915236758" lon="9.569905608659871"><ele>216.0</ele><time>2026-03-30T13:10:34.998Z</time></trkpt><trkpt lat="33.02261396433439" lon="9.57005644500317"><ele>216.0</ele><time>2026-03-30T13:10:35.998Z</time></trkpt><trkpt lat="33.0225931503376" lon="9.57020326141082"><ele>216.0</ele><time>2026-03-30T13:10:36.998Z</time></trkpt><trkpt lat="33.02257618285547" lon="9.570352800465113"><ele>216.25</ele><time>2026-03-30T13:10:37.998Z</time></trkpt><trkpt lat="33.02255997484081" lon="9.570499702020063"><ele>216.5</ele><time>2026-03-30T13:10:38.998Z</time></trkpt><trkpt lat="33.02254352747071" lon="9.570649661746383"><ele>216.75</ele><time>2026-03-30T13:10:39.998Z</time></trkpt><trkpt lat="33.022518955412714" lon="9.570799731451189"><ele>217.0</ele><time>2026-03-30T13:10:40.998Z</time></trkpt><trkpt lat="33.02248740971384" lon="9.570939829669841"><ele>217.25</ele><time>2026-03-30T13:10:41.998Z</time></trkpt><trkpt lat="33.022454570868874" lon="9.57108165081885"><ele>217.5</ele><time>2026-03-30T13:10:42.998Z</time></trkpt><trkpt lat="33.022422792206264" lon="9.571227302669445"><ele>217.75</ele><time>2026-03-30T13:10:43.998Z</time></trkpt><trkpt lat="33.02240559232373" lon="9.571372364513124"><ele>218.0</ele><time>2026-03-30T13:10:44.998Z</time></trkpt><trkpt lat="33.022388443309524" lon="9.571516229154033"><ele>218.0</ele><time>2026-03-30T13:10:45.998Z</time></trkpt><trkpt lat="33.02236888121652" lon="9.571662861280974"><ele>218.0</ele><time>2026-03-30T13:10:46.998Z</time></trkpt><trkpt lat="33.02234804380006" lon="9.571807854408231"><ele>218.0</ele><time>2026-03-30T13:10:47.998Z</time></trkpt><trkpt lat="33.022317829169886" lon="9.571962943690105"><ele>218.0</ele><time>2026-03-30T13:10:48.998Z</time></trkpt><trkpt lat="33.02229579657555" lon="9.572103568509368"><ele>217.75</ele><time>2026-03-30T13:10:49.998Z</time></trkpt><trkpt lat="33.022282283489254" lon="9.572245748440906"><ele>217.5</ele><time>2026-03-30T13:10:50.998Z</time></trkpt><trkpt lat="33.02226528704042" lon="9.572376825517857"><ele>217.25</ele><time>2026-03-30T13:10:51.998Z</time></trkpt><trkpt lat="33.0222617154076" lon="9.572517104236262"><ele>217.0</ele><time>2026-03-30T13:10:52.998Z</time></trkpt><trkpt lat="33.02226194155526" lon="9.572672140607088"><ele>217.0</ele><time>2026-03-30T13:10:53.999Z</time></trkpt><trkpt lat="33.022272791000226" lon="9.572825500535934"><ele>217.0</ele><time>2026-03-30T13:10:54.999Z</time></trkpt><trkpt lat="33.022283363003154" lon="9.572987678609937"><ele>217.0</ele><time>2026-03-30T13:10:55.999Z</time></trkpt><trkpt lat="33.02228510360996" lon="9.573140758805502"><ele>217.0</ele><time>2026-03-30T13:10:56.999Z</time></trkpt><trkpt lat="33.022272449334594" lon="9.573292649491853"><ele>217.0</ele><time>2026-03-30T13:10:57.999Z</time></trkpt><trkpt lat="33.022264766986765" lon="9.57344340622989"><ele>217.0</ele><time>2026-03-30T13:10:58.999Z</time></trkpt><trkpt lat="33.02226364822536" lon="9.573592520267548"><ele>217.0</ele><time>2026-03-30T13:10:59.999Z</time></trkpt><trkpt lat="33.02225290564378" lon="9.573730425789215"><ele>217.0</ele><time>2026-03-30T13:11:00.999Z</time></trkpt><trkpt lat="33.02222939363287" lon="9.573871119441762"><ele>217.0</ele><time>2026-03-30T13:11:01.999Z</time></trkpt><trkpt lat="33.022195846363765" lon="9.574019199085937"><ele>217.0</ele><time>2026-03-30T13:11:02.999Z</time></trkpt><trkpt lat="33.02217355568596" lon="9.57417584302998"><ele>217.0</ele><time>2026-03-30T13:11:03.999Z</time></trkpt><trkpt lat="33.02214751728271" lon="9.574327150823589"><ele>217.0</ele><time>2026-03-30T13:11:04.999Z</time></trkpt><trkpt lat="33.022123348879845" lon="9.574469676048045"><ele>217.5</ele><time>2026-03-30T13:11:05.999Z</time></trkpt><trkpt lat="33.02209687530792" lon="9.574612742275363"><ele>218.0</ele><time>2026-03-30T13:11:06.999Z</time></trkpt><trkpt lat="33.022072186293066" lon="9.574760871452185"><ele>218.5</ele><time>2026-03-30T13:11:07.999Z</time></trkpt><trkpt lat="33.0220504431637" lon="9.574920491409157"><ele>219.0</ele><time>2026-03-30T13:11:08.999Z</time></trkpt><trkpt lat="33.02203263820809" lon="9.575065352301083"><ele>219.0</ele><time>2026-03-30T13:11:09.999Z</time></trkpt><trkpt lat="33.02201181580046" lon="9.575208395873018"><ele>219.0</ele><time>2026-03-30T13:11:10.999Z</time></trkpt><trkpt lat="33.02198669407783" lon="9.575349121828623"><ele>219.0</ele><time>2026-03-30T13:11:11.999Z</time></trkpt><trkpt lat="33.02195416311661" lon="9.575484421424937"><ele>219.0</ele><time>2026-03-30T13:11:12.999Z</time></trkpt><trkpt lat="33.02191790171324" lon="9.57561228519095"><ele>218.0</ele><time>2026-03-30T13:11:13.999Z</time></trkpt><trkpt lat="33.02186679907854" lon="9.575740624010859"><ele>217.0</ele><time>2026-03-30T13:11:14.999Z</time></trkpt><trkpt lat="33.0218067620809" lon="9.575862517064667"><ele>216.0</ele><time>2026-03-30T13:11:15.999Z</time></trkpt><trkpt lat="33.021755291097236" lon="9.575973815254663"><ele>215.0</ele><time>2026-03-30T13:11:16.999Z</time></trkpt><trkpt lat="33.021694657276875" lon="9.576094319011544"><ele>215.5</ele><time>2026-03-30T13:11:17.999Z</time></trkpt><trkpt lat="33.021634060157986" lon="9.57620323897425"><ele>216.0</ele><time>2026-03-30T13:11:18.999Z</time></trkpt><trkpt lat="33.021567896524026" lon="9.57631339155713"><ele>216.5</ele><time>2026-03-30T13:11:19.999Z</time></trkpt><trkpt lat="33.021482604860694" lon="9.576436565494793"><ele>217.0</ele><time>2026-03-30T13:11:20.999Z</time></trkpt><trkpt lat="33.021401042879795" lon="9.5765576100457"><ele>217.0</ele><time>2026-03-30T13:11:21.999Z</time></trkpt><trkpt lat="33.02132491996728" lon="9.576687825259814"><ele>217.0</ele><time>2026-03-30T13:11:22.999Z</time></trkpt><trkpt lat="33.02125169794569" lon="9.57682447134823"><ele>217.0</ele><time>2026-03-30T13:11:23.999Z</time></trkpt><trkpt lat="33.02118132982692" lon="9.57695080275119"><ele>217.0</ele><time>2026-03-30T13:11:24.999Z</time></trkpt><trkpt lat="33.02110816639264" lon="9.577085956691027"><ele>216.75</ele><time>2026-03-30T13:11:25.999Z</time></trkpt><trkpt lat="33.02103386879527" lon="9.577222063488577"><ele>216.5</ele><time>2026-03-30T13:11:27Z</time></trkpt><trkpt lat="33.02096138584744" lon="9.577353320058462"><ele>216.25</ele><time>2026-03-30T13:11:28Z</time></trkpt><trkpt lat="33.02089027421187" lon="9.577486904370817"><ele>216.0</ele><time>2026-03-30T13:11:29Z</time></trkpt><trkpt lat="33.020812630882524" lon="9.57762062379441"><ele>216.0</ele><time>2026-03-30T13:11:30Z</time></trkpt><trkpt lat="33.020729918409415" lon="9.577750730165409"><ele>216.0</ele><time>2026-03-30T13:11:31Z</time></trkpt><trkpt lat="33.02064897790787" lon="9.577873585456825"><ele>216.0</ele><time>2026-03-30T13:11:32Z</time></trkpt><trkpt lat="33.02056556539713" lon="9.577988643946524"><ele>216.0</ele><time>2026-03-30T13:11:33Z</time></trkpt><trkpt lat="33.02047428912792" lon="9.57810238102756"><ele>216.0</ele><time>2026-03-30T13:11:34Z</time></trkpt><trkpt lat="33.02037959793314" lon="9.578209427321775"><ele>216.0</ele><time>2026-03-30T13:11:35Z</time></trkpt><trkpt lat="33.02028891789766" lon="9.578310561726248"><ele>216.0</ele><time>2026-03-30T13:11:36Z</time></trkpt><trkpt lat="33.020202506217814" lon="9.578422172679591"><ele>216.0</ele><time>2026-03-30T13:11:37Z</time></trkpt><trkpt lat="33.02013540297203" lon="9.578535198561758"><ele>216.0</ele><time>2026-03-30T13:11:38Z</time></trkpt><trkpt lat="33.020058358183235" lon="9.578652773916728"><ele>216.0</ele><time>2026-03-30T13:11:39Z</time></trkpt><trkpt lat="33.01997731546346" lon="9.578762697572351"><ele>216.0</ele><time>2026-03-30T13:11:40Z</time></trkpt><trkpt lat="33.01988801229935" lon="9.578876970298962"><ele>216.0</ele><time>2026-03-30T13:11:41Z</time></trkpt><trkpt lat="33.01979944416607" lon="9.57899532742374"><ele>216.0</ele><time>2026-03-30T13:11:42Z</time></trkpt><trkpt lat="33.01971278663838" lon="9.579117866950543"><ele>216.0</ele><time>2026-03-30T13:11:43Z</time></trkpt><trkpt lat="33.019631176372314" lon="9.579241677991632"><ele>216.0</ele><time>2026-03-30T13:11:44Z</time></trkpt><trkpt lat="33.01955264798304" lon="9.579371059393928"><ele>216.0</ele><time>2026-03-30T13:11:45Z</time></trkpt><trkpt lat="33.0194758099861" lon="9.579502105326831"><ele>215.5</ele><time>2026-03-30T13:11:46Z</time></trkpt><trkpt lat="33.019401884857814" lon="9.579628171782042"><ele>215.0</ele><time>2026-03-30T13:11:47Z</time></trkpt><trkpt lat="33.01932768450687" lon="9.57974967505509"><ele>214.5</ele><time>2026-03-30T13:11:48Z</time></trkpt><trkpt lat="33.01925443977742" lon="9.579871416093944"><ele>214.0</ele><time>2026-03-30T13:11:49Z</time></trkpt><trkpt lat="33.01918309506752" lon="9.579995984598535"><ele>214.0</ele><time>2026-03-30T13:11:50Z</time></trkpt><trkpt lat="33.01912246690448" lon="9.580128112605845"><ele>214.0</ele><time>2026-03-30T13:11:51Z</time></trkpt><trkpt lat="33.0190717234636" lon="9.580262566354765"><ele>214.0</ele><time>2026-03-30T13:11:52Z</time></trkpt><trkpt lat="33.01902181204284" lon="9.580396465059726"><ele>214.0</ele><time>2026-03-30T13:11:53Z</time></trkpt><trkpt lat="33.01895688002844" lon="9.580525503219286"><ele>214.5</ele><time>2026-03-30T13:11:54Z</time></trkpt><trkpt lat="33.01888311387537" lon="9.580646352180521"><ele>215.0</ele><time>2026-03-30T13:11:55Z</time></trkpt><trkpt lat="33.01880678661641" lon="9.580766451823658"><ele>215.5</ele><time>2026-03-30T13:11:56Z</time></trkpt><trkpt lat="33.018725538382306" lon="9.580891776848771"><ele>216.0</ele><time>2026-03-30T13:11:57Z</time></trkpt><trkpt lat="33.0186477386436" lon="9.581019689530763"><ele>216.0</ele><time>2026-03-30T13:11:58Z</time></trkpt><trkpt lat="33.01857012784683" lon="9.581155015123233"><ele>216.0</ele><time>2026-03-30T13:11:59Z</time></trkpt><trkpt lat="33.018494587436415" lon="9.581279777304097"><ele>216.0</ele><time>2026-03-30T13:12:00Z</time></trkpt><trkpt lat="33.01842468347329" lon="9.581420732582702"><ele>216.0</ele><time>2026-03-30T13:12:01Z</time></trkpt><trkpt lat="33.01835782419744" lon="9.581554230568077"><ele>215.75</ele><time>2026-03-30T13:12:02Z</time></trkpt><trkpt lat="33.01828868672334" lon="9.581689345588599"><ele>215.5</ele><time>2026-03-30T13:12:03Z</time></trkpt><trkpt lat="33.018222472026046" lon="9.581820551630646"><ele>215.25</ele><time>2026-03-30T13:12:04Z</time></trkpt><trkpt lat="33.01816445917428" lon="9.5819531681615"><ele>215.0</ele><time>2026-03-30T13:12:05Z</time></trkpt><trkpt lat="33.018108139037984" lon="9.58209237658422"><ele>215.0</ele><time>2026-03-30T13:12:06Z</time></trkpt><trkpt lat="33.01804370039601" lon="9.582228991081335"><ele>215.0</ele><time>2026-03-30T13:12:07Z</time></trkpt><trkpt lat="33.0179750859672" lon="9.582362988146164"><ele>215.0</ele><time>2026-03-30T13:12:08Z</time></trkpt><trkpt lat="33.01790246924061" lon="9.582500815958664"><ele>215.0</ele><time>2026-03-30T13:12:09Z</time></trkpt><trkpt lat="33.01783594497172" lon="9.58263104044893"><ele>215.0</ele><time>2026-03-30T13:12:10Z</time></trkpt><trkpt lat="33.017762886281524" lon="9.582769860851226"><ele>215.0</ele><time>2026-03-30T13:12:11Z</time></trkpt><trkpt lat="33.01770076986355" lon="9.58291185975659"><ele>215.0</ele><time>2026-03-30T13:12:12Z</time></trkpt><trkpt lat="33.017638454549456" lon="9.583057324708676"><ele>215.0</ele><time>2026-03-30T13:12:13Z</time></trkpt><trkpt lat="33.017571908495654" lon="9.583207117360782"><ele>215.25</ele><time>2026-03-30T13:12:14Z</time></trkpt><trkpt lat="33.017509390840864" lon="9.583349151062585"><ele>215.5</ele><time>2026-03-30T13:12:15Z</time></trkpt><trkpt lat="33.01744269831153" lon="9.58348416272014"><ele>215.75</ele><time>2026-03-30T13:12:16Z</time></trkpt><trkpt lat="33.017370575223424" lon="9.583626393693402"><ele>216.0</ele><time>2026-03-30T13:12:17Z</time></trkpt><trkpt lat="33.01729914545216" lon="9.583756619940232"><ele>216.5</ele><time>2026-03-30T13:12:18Z</time></trkpt><trkpt lat="33.01722394338008" lon="9.583883177692938"><ele>217.0</ele><time>2026-03-30T13:12:19Z</time></trkpt><trkpt lat="33.01715293299452" lon="9.584007327535653"><ele>217.5</ele><time>2026-03-30T13:12:20Z</time></trkpt><trkpt lat="33.017088677042636" lon="9.584135878267475"><ele>218.0</ele><time>2026-03-30T13:12:21Z</time></trkpt><trkpt lat="33.01702798811764" lon="9.584273319364204"><ele>218.0</ele><time>2026-03-30T13:12:22Z</time></trkpt><trkpt lat="33.0169619915313" lon="9.584423101083198"><ele>218.0</ele><time>2026-03-30T13:12:23Z</time></trkpt><trkpt lat="33.01689692507636" lon="9.58457119058648"><ele>218.0</ele><time>2026-03-30T13:12:24Z</time></trkpt><trkpt lat="33.01683475323746" lon="9.584712968380433"><ele>218.0</ele><time>2026-03-30T13:12:25Z</time></trkpt><trkpt lat="33.01676918215695" lon="9.58486406792827"><ele>218.25</ele><time>2026-03-30T13:12:26Z</time></trkpt><trkpt lat="33.016704137882286" lon="9.584999429392152"><ele>218.5</ele><time>2026-03-30T13:12:27Z</time></trkpt><trkpt lat="33.01664603214744" lon="9.585140783097613"><ele>218.75</ele><time>2026-03-30T13:12:28Z</time></trkpt><trkpt lat="33.016578727995515" lon="9.585275975063883"><ele>219.0</ele><time>2026-03-30T13:12:29Z</time></trkpt><trkpt lat="33.01650275968174" lon="9.585413978164208"><ele>219.0</ele><time>2026-03-30T13:12:30Z</time></trkpt><trkpt lat="33.016426386051165" lon="9.58556032204493"><ele>219.0</ele><time>2026-03-30T13:12:31Z</time></trkpt><trkpt lat="33.016351944040224" lon="9.585710026494509"><ele>219.0</ele><time>2026-03-30T13:12:32Z</time></trkpt><trkpt lat="33.01628719445538" lon="9.585861625747183"><ele>219.0</ele><time>2026-03-30T13:12:33Z</time></trkpt><trkpt lat="33.016230941021306" lon="9.58601493720215"><ele>219.75</ele><time>2026-03-30T13:12:34Z</time></trkpt><trkpt lat="33.016177046283744" lon="9.586179743218109"><ele>220.5</ele><time>2026-03-30T13:12:35Z</time></trkpt><trkpt lat="33.01612876998982" lon="9.586342628510275"><ele>221.25</ele><time>2026-03-30T13:12:36Z</time></trkpt><trkpt lat="33.01608402983527" lon="9.586507060018432"><ele>222.0</ele><time>2026-03-30T13:12:37Z</time></trkpt><trkpt lat="33.01603210667593" lon="9.58666465897781"><ele>222.0</ele><time>2026-03-30T13:12:38Z</time></trkpt><trkpt lat="33.015976526188815" lon="9.58682679802041"><ele>222.0</ele><time>2026-03-30T13:12:39Z</time></trkpt><trkpt lat="33.01591834947628" lon="9.586982604073153"><ele>222.0</ele><time>2026-03-30T13:12:40Z</time></trkpt><trkpt lat="33.015859708663186" lon="9.587158922790277"><ele>222.0</ele><time>2026-03-30T13:12:41Z</time></trkpt><trkpt lat="33.015794157543475" lon="9.587345927583513"><ele>222.66666666666669</ele><time>2026-03-30T13:12:42Z</time></trkpt><trkpt lat="33.01574148829167" lon="9.587529253788245"><ele>223.33333333333334</ele><time>2026-03-30T13:12:43Z</time></trkpt><trkpt lat="33.015693720052454" lon="9.587703700478809"><ele>224.0</ele><time>2026-03-30T13:12:44Z</time></trkpt><trkpt lat="33.01564280585827" lon="9.587884249515747"><ele>224.0</ele><time>2026-03-30T13:12:45Z</time></trkpt><trkpt lat="33.01558905461004" lon="9.588043045185652"><ele>224.0</ele><time>2026-03-30T13:12:46Z</time></trkpt><trkpt lat="33.01553663768595" lon="9.58817297370943"><ele>224.0</ele><time>2026-03-30T13:12:47Z</time></trkpt><trkpt lat="33.01548370568631" lon="9.588284474920966"><ele>224.0</ele><time>2026-03-30T13:12:48Z</time></trkpt><trkpt lat="33.015420291911454" lon="9.58838549391211"><ele>224.0</ele><time>2026-03-30T13:12:49Z</time></trkpt><trkpt lat="33.01536354692096" lon="9.588474638434885"><ele>223.99999999999997</ele><time>2026-03-30T13:12:50Z</time></trkpt><trkpt lat="33.01529407478579" lon="9.58856120514626"><ele>223.99999999999997</ele><time>2026-03-30T13:12:51Z</time></trkpt><trkpt lat="33.015217995091426" lon="9.588636179698282"><ele>224.0</ele><time>2026-03-30T13:12:52Z</time></trkpt><trkpt lat="33.0151310168783" lon="9.58871511098508"><ele>224.0</ele><time>2026-03-30T13:12:53Z</time></trkpt><trkpt lat="33.01504102409912" lon="9.588792221041372"><ele>224.0</ele><time>2026-03-30T13:12:54Z</time></trkpt><trkpt lat="33.014961792439856" lon="9.58886609838555"><ele>223.99999999999997</ele><time>2026-03-30T13:12:55Z</time></trkpt><trkpt lat="33.014902090265956" lon="9.588929820042232"><ele>223.99999999999997</ele><time>2026-03-30T13:12:56Z</time></trkpt><trkpt lat="33.01480428522213" lon="9.589036888956214"><ele>224.0</ele><time>2026-03-30T13:12:58Z</time></trkpt><trkpt lat="33.014718613439534" lon="9.589116512357984"><ele>224.0</ele><time>2026-03-30T13:13:00Z</time></trkpt><trkpt lat="33.01465842012347" lon="9.589166094018042"><ele>224.00000000000003</ele><time>2026-03-30T13:13:01Z</time></trkpt><trkpt lat="33.0146010397274" lon="9.58922713470909"><ele>224.0</ele><time>2026-03-30T13:13:02Z</time></trkpt><trkpt lat="33.01453966809972" lon="9.58929715272034"><ele>224.0</ele><time>2026-03-30T13:13:04Z</time></trkpt><trkpt lat="33.0144892933156" lon="9.589354881805047"><ele>224.0</ele><time>2026-03-30T13:13:34Z</time></trkpt><trkpt lat="33.01441384909154" lon="9.589434117238481"><ele>224.00000000000003</ele><time>2026-03-30T13:13:36Z</time></trkpt><trkpt lat="33.0143279432373" lon="9.58952256824807"><ele>224.0</ele><time>2026-03-30T13:13:38Z</time></trkpt><trkpt lat="33.01422992792079" lon="9.589626445282978"><ele>224.2</ele><time>2026-03-30T13:13:40Z</time></trkpt><trkpt lat="33.01416202503945" lon="9.589698236656618"><ele>224.39999999999998</ele><time>2026-03-30T13:13:41Z</time></trkpt><trkpt lat="33.014090345652384" lon="9.589769228025641"><ele>224.6</ele><time>2026-03-30T13:13:42Z</time></trkpt><trkpt lat="33.014004210957296" lon="9.589852653308906"><ele>224.8</ele><time>2026-03-30T13:13:43Z</time></trkpt><trkpt lat="33.01392499413076" lon="9.589926808298339"><ele>225.0</ele><time>2026-03-30T13:13:44Z</time></trkpt><trkpt lat="33.01385997618319" lon="9.589977519963162"><ele>225.5</ele><time>2026-03-30T13:13:45.001Z</time></trkpt><trkpt lat="33.013784170634004" lon="9.590038512674212"><ele>226.0</ele><time>2026-03-30T13:13:46.001Z</time></trkpt><trkpt lat="33.013709909473775" lon="9.590109844801225"><ele>226.5</ele><time>2026-03-30T13:13:47.001Z</time></trkpt><trkpt lat="33.01364091122948" lon="9.590172597410291"><ele>227.0</ele><time>2026-03-30T13:13:48.001Z</time></trkpt><trkpt lat="33.01357580744745" lon="9.590234050747972"><ele>227.5</ele><time>2026-03-30T13:13:49.001Z</time></trkpt><trkpt lat="33.013509366727895" lon="9.590300496519232"><ele>228.0</ele><time>2026-03-30T13:13:50.001Z</time></trkpt><trkpt lat="33.013440296122674" lon="9.590360609646675"><ele>228.2</ele><time>2026-03-30T13:13:51.001Z</time></trkpt><trkpt lat="33.01336160389945" lon="9.590427962517284"><ele>228.4</ele><time>2026-03-30T13:13:52.001Z</time></trkpt><trkpt lat="33.01329520830542" lon="9.590497195743723"><ele>228.59999999999997</ele><time>2026-03-30T13:13:53.001Z</time></trkpt><trkpt lat="33.013216992896794" lon="9.590569311472061"><ele>228.79999999999998</ele><time>2026-03-30T13:13:54.001Z</time></trkpt><trkpt lat="33.01313069328778" lon="9.59063827414635"><ele>229.0</ele><time>2026-03-30T13:13:55.001Z</time></trkpt><trkpt lat="33.013048936184106" lon="9.590711039888523"><ele>229.39999999999998</ele><time>2026-03-30T13:13:56.001Z</time></trkpt><trkpt lat="33.01297008521718" lon="9.590798986896457"><ele>229.79999999999998</ele><time>2026-03-30T13:13:57.001Z</time></trkpt><trkpt lat="33.01288938433743" lon="9.590898834671044"><ele>230.20000000000002</ele><time>2026-03-30T13:13:58.001Z</time></trkpt><trkpt lat="33.012821562915995" lon="9.590989276004308"><ele>230.60000000000002</ele><time>2026-03-30T13:13:59.001Z</time></trkpt><trkpt lat="33.0127567330592" lon="9.59108591575531"><ele>231.0</ele><time>2026-03-30T13:14:00.001Z</time></trkpt><trkpt lat="33.01268436233198" lon="9.591170728747997"><ele>231.20000000000002</ele><time>2026-03-30T13:14:01.001Z</time></trkpt><trkpt lat="33.01260445572548" lon="9.591248104435575"><ele>231.40000000000003</ele><time>2026-03-30T13:14:02.001Z</time></trkpt><trkpt lat="33.012523431796005" lon="9.591322723877726"><ele>231.6</ele><time>2026-03-30T13:14:03.001Z</time></trkpt><trkpt lat="33.0124365833516" lon="9.59140347583826"><ele>231.8</ele><time>2026-03-30T13:14:04.001Z</time></trkpt><trkpt lat="33.012344441313935" lon="9.591498179983708"><ele>232.0</ele><time>2026-03-30T13:14:05.001Z</time></trkpt><trkpt lat="33.01225936702148" lon="9.591589710248119"><ele>232.0</ele><time>2026-03-30T13:14:06.001Z</time></trkpt><trkpt lat="33.0121734119764" lon="9.591683760713911"><ele>232.0</ele><time>2026-03-30T13:14:07.001Z</time></trkpt><trkpt lat="33.012091020260684" lon="9.591777994807876"><ele>232.0</ele><time>2026-03-30T13:14:08.001Z</time></trkpt><trkpt lat="33.012018549127504" lon="9.59186571202569"><ele>232.0</ele><time>2026-03-30T13:14:09.001Z</time></trkpt><trkpt lat="33.011936314920725" lon="9.591958591109632"><ele>232.0</ele><time>2026-03-30T13:14:10.001Z</time></trkpt><trkpt lat="33.01184559608601" lon="9.592039333641782"><ele>232.25</ele><time>2026-03-30T13:14:11.001Z</time></trkpt><trkpt lat="33.01175316562737" lon="9.592121159817056"><ele>232.5</ele><time>2026-03-30T13:14:12.001Z</time></trkpt><trkpt lat="33.01165993508195" lon="9.592194386225657"><ele>232.75</ele><time>2026-03-30T13:14:13.001Z</time></trkpt><trkpt lat="33.011563051337895" lon="9.592275528748996"><ele>233.0</ele><time>2026-03-30T13:14:14.001Z</time></trkpt><trkpt lat="33.01145502074561" lon="9.592374651736442"><ele>233.5</ele><time>2026-03-30T13:14:15.001Z</time></trkpt><trkpt lat="33.011349681065" lon="9.592479576644006"><ele>234.0</ele><time>2026-03-30T13:14:16.001Z</time></trkpt><trkpt lat="33.01124234937523" lon="9.592590375647305"><ele>234.5</ele><time>2026-03-30T13:14:17.001Z</time></trkpt><trkpt lat="33.01113892926766" lon="9.592699002186368"><ele>235.0</ele><time>2026-03-30T13:14:18.001Z</time></trkpt><trkpt lat="33.011032688877435" lon="9.592812069505323"><ele>235.25</ele><time>2026-03-30T13:14:19.001Z</time></trkpt><trkpt lat="33.01093399235252" lon="9.592913787926248"><ele>235.5</ele><time>2026-03-30T13:14:20.001Z</time></trkpt><trkpt lat="33.01082275089839" lon="9.593019703388947"><ele>235.75</ele><time>2026-03-30T13:14:21.001Z</time></trkpt><trkpt lat="33.01071829495166" lon="9.593126966308878"><ele>236.0</ele><time>2026-03-30T13:14:22.001Z</time></trkpt><trkpt lat="33.01062377752481" lon="9.593231474121682"><ele>236.75</ele><time>2026-03-30T13:14:23.001Z</time></trkpt><trkpt lat="33.0105186730872" lon="9.593344847996068"><ele>237.5</ele><time>2026-03-30T13:14:24.001Z</time></trkpt><trkpt lat="33.010405782394486" lon="9.59345216564063"><ele>238.25</ele><time>2026-03-30T13:14:25.001Z</time></trkpt><trkpt lat="33.01029575287651" lon="9.593565166139319"><ele>239.0</ele><time>2026-03-30T13:14:26.001Z</time></trkpt><trkpt lat="33.01018691384332" lon="9.59368396648336"><ele>239.0</ele><time>2026-03-30T13:14:27.001Z</time></trkpt><trkpt lat="33.01007364925726" lon="9.593796381517969"><ele>239.0</ele><time>2026-03-30T13:14:28.001Z</time></trkpt><trkpt lat="33.00996577581676" lon="9.593891184371424"><ele>239.0</ele><time>2026-03-30T13:14:29.001Z</time></trkpt><trkpt lat="33.00988073096939" lon="9.593969929655184"><ele>239.0</ele><time>2026-03-30T13:14:30.001Z</time></trkpt><trkpt lat="33.009807498854265" lon="9.594044672724252"><ele>239.79999999999998</ele><time>2026-03-30T13:14:31.001Z</time></trkpt><trkpt lat="33.009730028185395" lon="9.594115360386139"><ele>240.59999999999997</ele><time>2026-03-30T13:14:32.001Z</time></trkpt><trkpt lat="33.00965001271771" lon="9.594182897824794"><ele>241.4</ele><time>2026-03-30T13:14:33.001Z</time></trkpt><trkpt lat="33.00957643678652" lon="9.594251405320236"><ele>242.2</ele><time>2026-03-30T13:14:34.001Z</time></trkpt><trkpt lat="33.00950846982261" lon="9.594312078214296"><ele>243.0</ele><time>2026-03-30T13:14:35.001Z</time></trkpt><trkpt lat="33.009440524653776" lon="9.594374681046743"><ele>243.0</ele><time>2026-03-30T13:14:36.001Z</time></trkpt><trkpt lat="33.00937085877156" lon="9.594437535558036"><ele>243.0</ele><time>2026-03-30T13:14:37.001Z</time></trkpt><trkpt lat="33.009311163432386" lon="9.594500457923141"><ele>243.0</ele><time>2026-03-30T13:14:38.001Z</time></trkpt><trkpt lat="33.00925254323451" lon="9.594578113521074"><ele>243.0</ele><time>2026-03-30T13:14:39.001Z</time></trkpt><trkpt lat="33.009186737807674" lon="9.5946574877019"><ele>243.0</ele><time>2026-03-30T13:14:40.001Z</time></trkpt><trkpt lat="33.00911118672293" lon="9.594742090385813"><ele>243.33333333333331</ele><time>2026-03-30T13:14:41.001Z</time></trkpt><trkpt lat="33.00900635747705" lon="9.594854314995565"><ele>243.66666666666666</ele><time>2026-03-30T13:14:42.001Z</time></trkpt><trkpt lat="33.00889705290955" lon="9.594968176359421"><ele>244.0</ele><time>2026-03-30T13:14:43.001Z</time></trkpt><trkpt lat="33.00877021020899" lon="9.59509437177554"><ele>244.0</ele><time>2026-03-30T13:14:44.001Z</time></trkpt><trkpt lat="33.00862965507417" lon="9.595228847514493"><ele>244.0</ele><time>2026-03-30T13:14:45.001Z</time></trkpt><trkpt lat="33.00850878194838" lon="9.595362707930223"><ele>244.0</ele><time>2026-03-30T13:14:46.001Z</time></trkpt><trkpt lat="33.008394411426984" lon="9.595473792368121"><ele>243.83333333333331</ele><time>2026-03-30T13:14:47.001Z</time></trkpt><trkpt lat="33.00830117873743" lon="9.595570676386545"><ele>243.66666666666666</ele><time>2026-03-30T13:14:48.001Z</time></trkpt><trkpt lat="33.00822673662359" lon="9.59565118488047"><ele>243.5</ele><time>2026-03-30T13:14:49.001Z</time></trkpt><trkpt lat="33.00816936044062" lon="9.595699846838226"><ele>243.33333333333331</ele><time>2026-03-30T13:14:50.001Z</time></trkpt><trkpt lat="33.00811399937777" lon="9.595743263885009"><ele>243.16666666666666</ele><time>2026-03-30T13:14:51.001Z</time></trkpt><trkpt lat="33.008051265332426" lon="9.595790339196546"><ele>243.0</ele><time>2026-03-30T13:14:52.001Z</time></trkpt><trkpt lat="33.007982164292635" lon="9.595836654629087"><ele>243.0</ele><time>2026-03-30T13:14:53.001Z</time></trkpt><trkpt lat="33.00791420904096" lon="9.595908335579395"><ele>243.0</ele><time>2026-03-30T13:14:54.001Z</time></trkpt><trkpt lat="33.00783493815904" lon="9.59600016381885"><ele>243.0</ele><time>2026-03-30T13:14:55.001Z</time></trkpt><trkpt lat="33.0077491153902" lon="9.596098391592111"><ele>243.0</ele><time>2026-03-30T13:14:56.001Z</time></trkpt><trkpt lat="33.007678018444764" lon="9.596173641618208"><ele>243.0</ele><time>2026-03-30T13:14:57.001Z</time></trkpt><trkpt lat="33.00760121511492" lon="9.596241143686948"><ele>242.5</ele><time>2026-03-30T13:14:58.001Z</time></trkpt><trkpt lat="33.00749898699422" lon="9.596334964926042"><ele>242.0</ele><time>2026-03-30T13:14:59.001Z</time></trkpt><trkpt lat="33.0073782804466" lon="9.59645878588984"><ele>241.5</ele><time>2026-03-30T13:15:00.001Z</time></trkpt><trkpt lat="33.00726460177505" lon="9.59656837164425"><ele>241.0</ele><time>2026-03-30T13:15:01.001Z</time></trkpt><trkpt lat="33.00713547195131" lon="9.59669224396128"><ele>241.0</ele><time>2026-03-30T13:15:02.001Z</time></trkpt><trkpt lat="33.00699960985243" lon="9.596802203174915"><ele>241.0</ele><time>2026-03-30T13:15:03.001Z</time></trkpt><trkpt lat="33.006866733060654" lon="9.596935046933051"><ele>241.0</ele><time>2026-03-30T13:15:04.001Z</time></trkpt><trkpt lat="33.006785593241545" lon="9.597054265361225"><ele>240.75</ele><time>2026-03-30T13:15:05.001Z</time></trkpt><trkpt lat="33.006685585771365" lon="9.597197968946904"><ele>240.5</ele><time>2026-03-30T13:15:06.001Z</time></trkpt><trkpt lat="33.00659539624776" lon="9.597338589892416"><ele>240.25</ele><time>2026-03-30T13:15:07.001Z</time></trkpt><trkpt lat="33.006514694393275" lon="9.597469234652548"><ele>240.0</ele><time>2026-03-30T13:15:08.001Z</time></trkpt><trkpt lat="33.00645503541933" lon="9.597588394429943"><ele>240.25</ele><time>2026-03-30T13:15:09.001Z</time></trkpt><trkpt lat="33.00638311429073" lon="9.59772483794619"><ele>240.5</ele><time>2026-03-30T13:15:10.001Z</time></trkpt><trkpt lat="33.00631568563237" lon="9.597872583110806"><ele>240.75</ele><time>2026-03-30T13:15:11.001Z</time></trkpt><trkpt lat="33.00624235536755" lon="9.598042883016083"><ele>241.0</ele><time>2026-03-30T13:15:12.001Z</time></trkpt><trkpt lat="33.00618771759917" lon="9.598204632802796"><ele>241.0</ele><time>2026-03-30T13:15:13.001Z</time></trkpt><trkpt lat="33.00613886851033" lon="9.59837710847356"><ele>241.0</ele><time>2026-03-30T13:15:14.001Z</time></trkpt><trkpt lat="33.00610447887282" lon="9.598537487192196"><ele>241.0</ele><time>2026-03-30T13:15:15.001Z</time></trkpt><trkpt lat="33.00607289048876" lon="9.59868208900805"><ele>241.0</ele><time>2026-03-30T13:15:16.001Z</time></trkpt><trkpt lat="33.0060345067137" lon="9.598828014884191"><ele>241.0</ele><time>2026-03-30T13:15:17.001Z</time></trkpt><trkpt lat="33.00598895156183" lon="9.598969446514829"><ele>241.0</ele><time>2026-03-30T13:15:18.001Z</time></trkpt><trkpt lat="33.00594173072626" lon="9.5991156115066"><ele>241.0</ele><time>2026-03-30T13:15:19.001Z</time></trkpt><trkpt lat="33.00590115104043" lon="9.599250556231535"><ele>241.0</ele><time>2026-03-30T13:15:20.001Z</time></trkpt><trkpt lat="33.00587792226836" lon="9.599383381692167"><ele>241.4</ele><time>2026-03-30T13:15:21.001Z</time></trkpt><trkpt lat="33.00587441662467" lon="9.599508058507547"><ele>241.8</ele><time>2026-03-30T13:15:22.001Z</time></trkpt><trkpt lat="33.00589012427412" lon="9.59962949945797"><ele>242.20000000000002</ele><time>2026-03-30T13:15:23.001Z</time></trkpt><trkpt lat="33.005914666940704" lon="9.59976270904551"><ele>242.60000000000002</ele><time>2026-03-30T13:15:24.001Z</time></trkpt><trkpt lat="33.005957888104334" lon="9.599874378174716"><ele>243.0</ele><time>2026-03-30T13:15:25.001Z</time></trkpt><trkpt lat="33.00602003402215" lon="9.599966258720002"><ele>243.0</ele><time>2026-03-30T13:15:26.001Z</time></trkpt><trkpt lat="33.00607277571122" lon="9.600042012488608"><ele>243.0</ele><time>2026-03-30T13:15:27.001Z</time></trkpt><trkpt lat="33.00612820567368" lon="9.60010253022639"><ele>243.0</ele><time>2026-03-30T13:15:28.001Z</time></trkpt><trkpt lat="33.00620205012028" lon="9.600145578860687"><ele>243.0</ele><time>2026-03-30T13:15:30.001Z</time></trkpt><trkpt lat="33.006279714636406" lon="9.600192840439078"><ele>243.0</ele><time>2026-03-30T13:15:38.001Z</time></trkpt><trkpt lat="33.006339277464896" lon="9.600230979399827"><ele>243.0</ele><time>2026-03-30T13:15:39.001Z</time></trkpt><trkpt lat="33.00639540315868" lon="9.600268918410777"><ele>243.0</ele><time>2026-03-30T13:15:40.001Z</time></trkpt><trkpt lat="33.00650177214169" lon="9.600325241682858"><ele>243.0</ele><time>2026-03-30T13:15:42.001Z</time></trkpt><trkpt lat="33.00660074826597" lon="9.600379116314135"><ele>243.0</ele><time>2026-03-30T13:15:44.001Z</time></trkpt><trkpt lat="33.006677750039565" lon="9.600435207908033"><ele>243.0</ele><time>2026-03-30T13:15:46.001Z</time></trkpt><trkpt lat="33.00673301259864" lon="9.600477722834837"><ele>243.0</ele><time>2026-03-30T13:15:48.001Z</time></trkpt><trkpt lat="33.00678410781627" lon="9.600547948425303"><ele>243.0</ele><time>2026-03-30T13:15:49.001Z</time></trkpt><trkpt lat="33.00683239843778" lon="9.60062360993895"><ele>243.0</ele><time>2026-03-30T13:15:50.001Z</time></trkpt><trkpt lat="33.00691788676314" lon="9.600734015109591"><ele>243.0</ele><time>2026-03-30T13:15:52.001Z</time></trkpt><trkpt lat="33.006975419086814" lon="9.600800893114622"><ele>243.0</ele><time>2026-03-30T13:15:53.001Z</time></trkpt><trkpt lat="33.00706313720153" lon="9.600886951108425"><ele>243.0</ele><time>2026-03-30T13:15:55.001Z</time></trkpt><trkpt lat="33.007128637138834" lon="9.600965940442894"><ele>243.0</ele><time>2026-03-30T13:15:56.001Z</time></trkpt><trkpt lat="33.007205525568246" lon="9.601058507228014"><ele>243.0</ele><time>2026-03-30T13:15:57.001Z</time></trkpt><trkpt lat="33.00728012465286" lon="9.60113571587452"><ele>243.0</ele><time>2026-03-30T13:15:58.001Z</time></trkpt><trkpt lat="33.00735963327094" lon="9.60122065077782"><ele>243.0</ele><time>2026-03-30T13:15:59.001Z</time></trkpt><trkpt lat="33.00743966993889" lon="9.601315093265038"><ele>243.0</ele><time>2026-03-30T13:16:00.001Z</time></trkpt><trkpt lat="33.00751427136692" lon="9.601412514643888"><ele>242.0</ele><time>2026-03-30T13:16:01.001Z</time></trkpt><trkpt lat="33.00759875886478" lon="9.601522807157332"><ele>241.0</ele><time>2026-03-30T13:16:02.001Z</time></trkpt><trkpt lat="33.00768310913782" lon="9.601619892811236"><ele>240.0</ele><time>2026-03-30T13:16:03.001Z</time></trkpt><trkpt lat="33.007772498626125" lon="9.601716011943697"><ele>239.0</ele><time>2026-03-30T13:16:04.001Z</time></trkpt><trkpt lat="33.00786749776045" lon="9.601806360237509"><ele>239.0</ele><time>2026-03-30T13:16:05.001Z</time></trkpt><trkpt lat="33.0079582904448" lon="9.60188233025786"><ele>238.99999999999997</ele><time>2026-03-30T13:16:06.001Z</time></trkpt><trkpt lat="33.00803424247388" lon="9.601949911690614"><ele>238.99999999999997</ele><time>2026-03-30T13:16:07.001Z</time></trkpt><trkpt lat="33.008105989762115" lon="9.602012900642482"><ele>239.0</ele><time>2026-03-30T13:16:08.001Z</time></trkpt><trkpt lat="33.00817523096131" lon="9.602081884880475"><ele>239.0</ele><time>2026-03-30T13:16:09.001Z</time></trkpt><trkpt lat="33.008221091831324" lon="9.60215428743555"><ele>238.79999999999998</ele><time>2026-03-30T13:16:10.001Z</time></trkpt><trkpt lat="33.00826169241524" lon="9.602251829162702"><ele>238.59999999999997</ele><time>2026-03-30T13:16:11.001Z</time></trkpt><trkpt lat="33.00828667691761" lon="9.602361782190311"><ele>238.4</ele><time>2026-03-30T13:16:12.001Z</time></trkpt><trkpt lat="33.00830422759049" lon="9.602493355402693"><ele>238.2</ele><time>2026-03-30T13:16:13.001Z</time></trkpt><trkpt lat="33.00831411301804" lon="9.602632262518632"><ele>238.0</ele><time>2026-03-30T13:16:14.001Z</time></trkpt><trkpt lat="33.0083202453154" lon="9.602762442654813"><ele>237.25</ele><time>2026-03-30T13:16:15.001Z</time></trkpt><trkpt lat="33.00831439870195" lon="9.602888548906586"><ele>236.5</ele><time>2026-03-30T13:16:16.001Z</time></trkpt><trkpt lat="33.00830357387338" lon="9.603028504927913"><ele>235.75</ele><time>2026-03-30T13:16:17.001Z</time></trkpt><trkpt lat="33.008290059988404" lon="9.603173708238613"><ele>235.0</ele><time>2026-03-30T13:16:18.001Z</time></trkpt><trkpt lat="33.00826936226579" lon="9.603315981709695"><ele>235.0</ele><time>2026-03-30T13:16:19.001Z</time></trkpt><trkpt lat="33.00824564763676" lon="9.603443554987743"><ele>235.0</ele><time>2026-03-30T13:16:20.001Z</time></trkpt><trkpt lat="33.008209964374174" lon="9.603574633187899"><ele>235.0</ele><time>2026-03-30T13:16:21.001Z</time></trkpt><trkpt lat="33.00817550838096" lon="9.60372339037483"><ele>235.0</ele><time>2026-03-30T13:16:22.001Z</time></trkpt><trkpt lat="33.00813435058353" lon="9.603857772109178"><ele>234.25</ele><time>2026-03-30T13:16:23.001Z</time></trkpt><trkpt lat="33.0080834566963" lon="9.604001782900676"><ele>233.5</ele><time>2026-03-30T13:16:24.001Z</time></trkpt><trkpt lat="33.008036710313206" lon="9.60414648030391"><ele>232.75</ele><time>2026-03-30T13:16:25.001Z</time></trkpt><trkpt lat="33.00798930431896" lon="9.60429541724789"><ele>232.0</ele><time>2026-03-30T13:16:26.001Z</time></trkpt><trkpt lat="33.00794136770492" lon="9.6044615547112"><ele>231.25</ele><time>2026-03-30T13:16:27.001Z</time></trkpt><trkpt lat="33.007914291962116" lon="9.604603658989442"><ele>230.5</ele><time>2026-03-30T13:16:28.001Z</time></trkpt><trkpt lat="33.00788940783652" lon="9.604779054575651"><ele>229.75</ele><time>2026-03-30T13:16:29.001Z</time></trkpt><trkpt lat="33.007870149097144" lon="9.60496251822074"><ele>229.0</ele><time>2026-03-30T13:16:30.001Z</time></trkpt><trkpt lat="33.007843170855466" lon="9.605142473560038"><ele>229.0</ele><time>2026-03-30T13:16:31.001Z</time></trkpt><trkpt lat="33.00782773387278" lon="9.605302022312253"><ele>229.0</ele><time>2026-03-30T13:16:32.001Z</time></trkpt><trkpt lat="33.00780861624436" lon="9.605455220418046"><ele>229.0</ele><time>2026-03-30T13:16:33.001Z</time></trkpt><trkpt lat="33.0077867944768" lon="9.605610725406319"><ele>229.0</ele><time>2026-03-30T13:16:34.001Z</time></trkpt><trkpt lat="33.00776360551047" lon="9.605760478106308"><ele>227.75</ele><time>2026-03-30T13:16:35.001Z</time></trkpt><trkpt lat="33.00775235265789" lon="9.605914268461294"><ele>226.5</ele><time>2026-03-30T13:16:36.001Z</time></trkpt><trkpt lat="33.007730463314374" lon="9.606062575143625"><ele>225.25</ele><time>2026-03-30T13:16:37.002Z</time></trkpt><trkpt lat="33.00770818456861" lon="9.606204674763255"><ele>224.0</ele><time>2026-03-30T13:16:38.002Z</time></trkpt><trkpt lat="33.007681515927324" lon="9.606352592793629"><ele>224.0</ele><time>2026-03-30T13:16:39.002Z</time></trkpt><trkpt lat="33.00765661090649" lon="9.606501784386875"><ele>224.0</ele><time>2026-03-30T13:16:40.002Z</time></trkpt><trkpt lat="33.00763239581279" lon="9.606654573255216"><ele>224.0</ele><time>2026-03-30T13:16:41.002Z</time></trkpt><trkpt lat="33.00760522225704" lon="9.60679927885188"><ele>224.0</ele><time>2026-03-30T13:16:42.002Z</time></trkpt><trkpt lat="33.007572689802295" lon="9.606940630972677"><ele>223.25</ele><time>2026-03-30T13:16:43.002Z</time></trkpt><trkpt lat="33.0075466177569" lon="9.607082498083411"><ele>222.5</ele><time>2026-03-30T13:16:44.002Z</time></trkpt><trkpt lat="33.00751934956315" lon="9.607226072463755"><ele>221.75</ele><time>2026-03-30T13:16:45.002Z</time></trkpt><trkpt lat="33.007491149986436" lon="9.607357614136227"><ele>221.0</ele><time>2026-03-30T13:16:46.002Z</time></trkpt><trkpt lat="33.00746370956879" lon="9.607466547553528"><ele>221.4</ele><time>2026-03-30T13:16:47.002Z</time></trkpt><trkpt lat="33.00744168527043" lon="9.60757502938179"><ele>221.8</ele><time>2026-03-30T13:16:48.002Z</time></trkpt><trkpt lat="33.00742946931502" lon="9.607697417155661"><ele>222.20000000000002</ele><time>2026-03-30T13:16:49.002Z</time></trkpt><trkpt lat="33.00741478223856" lon="9.60778912847553"><ele>222.60000000000002</ele><time>2026-03-30T13:16:50.002Z</time></trkpt><trkpt lat="33.007392339608074" lon="9.607902737546912"><ele>223.0</ele><time>2026-03-30T13:16:51.002Z</time></trkpt><trkpt lat="33.007358289360006" lon="9.608010437844413"><ele>223.0</ele><time>2026-03-30T13:16:52.002Z</time></trkpt><trkpt lat="33.00730428434148" lon="9.608101018161827"><ele>223.0</ele><time>2026-03-30T13:16:53.002Z</time></trkpt><trkpt lat="33.00723131378809" lon="9.608199693841756"><ele>223.0</ele><time>2026-03-30T13:16:54.002Z</time></trkpt><trkpt lat="33.00715655191728" lon="9.60830154537204"><ele>223.0</ele><time>2026-03-30T13:16:55.002Z</time></trkpt><trkpt lat="33.00708287271424" lon="9.608394986212174"><ele>223.0</ele><time>2026-03-30T13:16:56.002Z</time></trkpt><trkpt lat="33.0070093063776" lon="9.608486530894963"><ele>223.0</ele><time>2026-03-30T13:16:57.002Z</time></trkpt><trkpt lat="33.00693416643837" lon="9.608563744310091"><ele>223.0</ele><time>2026-03-30T13:16:58.002Z</time></trkpt><trkpt lat="33.006850431547825" lon="9.6086320416645"><ele>223.0</ele><time>2026-03-30T13:16:59.002Z</time></trkpt><trkpt lat="33.00675591372667" lon="9.608686684232856"><ele>223.0</ele><time>2026-03-30T13:17:00.002Z</time></trkpt><trkpt lat="33.006666547384086" lon="9.608722010764403"><ele>223.0</ele><time>2026-03-30T13:17:01.002Z</time></trkpt><trkpt lat="33.00656798981169" lon="9.608760886127302"><ele>222.8</ele><time>2026-03-30T13:17:02.002Z</time></trkpt><trkpt lat="33.00649075357289" lon="9.608811571389515"><ele>222.60000000000002</ele><time>2026-03-30T13:17:03.002Z</time></trkpt><trkpt lat="33.006403740744" lon="9.608873617195364"><ele>222.39999999999998</ele><time>2026-03-30T13:17:04.002Z</time></trkpt><trkpt lat="33.00631676117518" lon="9.608937967466163"><ele>222.2</ele><time>2026-03-30T13:17:05.001Z</time></trkpt><trkpt lat="33.006230521354404" lon="9.609005810482456"><ele>222.0</ele><time>2026-03-30T13:17:06.001Z</time></trkpt><trkpt lat="33.00613746741454" lon="9.60906743390724"><ele>222.0</ele><time>2026-03-30T13:17:07.001Z</time></trkpt><trkpt lat="33.006045557916515" lon="9.609121874227885"><ele>222.0</ele><time>2026-03-30T13:17:08.001Z</time></trkpt><trkpt lat="33.005950299122595" lon="9.609183090900475"><ele>222.0</ele><time>2026-03-30T13:17:09.001Z</time></trkpt><trkpt lat="33.0058742591007" lon="9.609253746115233"><ele>222.0</ele><time>2026-03-30T13:17:10.001Z</time></trkpt><trkpt lat="33.00579981565303" lon="9.609327121040774"><ele>222.0</ele><time>2026-03-30T13:17:11.001Z</time></trkpt><trkpt lat="33.00574549235782" lon="9.609405496558692"><ele>221.6</ele><time>2026-03-30T13:17:12.001Z</time></trkpt><trkpt lat="33.00571130467478" lon="9.609484652737704"><ele>221.2</ele><time>2026-03-30T13:17:13.001Z</time></trkpt><trkpt lat="33.005685310363745" lon="9.609582958345191"><ele>220.8</ele><time>2026-03-30T13:17:14.001Z</time></trkpt><trkpt lat="33.005676599702234" lon="9.609680481475875"><ele>220.4</ele><time>2026-03-30T13:17:15.001Z</time></trkpt><trkpt lat="33.00568000222216" lon="9.609797637473484"><ele>220.0</ele><time>2026-03-30T13:17:16.001Z</time></trkpt><trkpt lat="33.00569902642461" lon="9.609926707526617"><ele>220.0</ele><time>2026-03-30T13:17:17.001Z</time></trkpt><trkpt lat="33.00572766088645" lon="9.610058843158269"><ele>220.0</ele><time>2026-03-30T13:17:18.001Z</time></trkpt><trkpt lat="33.00575048476601" lon="9.610185570299482"><ele>220.0</ele><time>2026-03-30T13:17:19.001Z</time></trkpt><trkpt lat="33.00576835658658" lon="9.610299492242332"><ele>220.0</ele><time>2026-03-30T13:17:20.001Z</time></trkpt><trkpt lat="33.005782263287536" lon="9.610410939233748"><ele>220.0</ele><time>2026-03-30T13:17:21.001Z</time></trkpt><trkpt lat="33.00579817706949" lon="9.610509172802132"><ele>220.16666666666666</ele><time>2026-03-30T13:17:22.001Z</time></trkpt><trkpt lat="33.005808312136615" lon="9.610595441251135"><ele>220.33333333333331</ele><time>2026-03-30T13:17:23.001Z</time></trkpt><trkpt lat="33.005820206480735" lon="9.610678355819275"><ele>220.5</ele><time>2026-03-30T13:17:24.001Z</time></trkpt><trkpt lat="33.005838432325774" lon="9.610756617635362"><ele>220.66666666666669</ele><time>2026-03-30T13:17:25.001Z</time></trkpt><trkpt lat="33.0058575827825" lon="9.61085337122526"><ele>220.83333333333334</ele><time>2026-03-30T13:17:26.001Z</time></trkpt><trkpt lat="33.00587262019465" lon="9.610943720063428"><ele>221.0</ele><time>2026-03-30T13:17:27.001Z</time></trkpt><trkpt lat="33.00587839452393" lon="9.611077945577575"><ele>221.16666666666669</ele><time>2026-03-30T13:17:29.001Z</time></trkpt><trkpt lat="33.005886981827146" lon="9.611157172218569"><ele>221.33333333333334</ele><time>2026-03-30T13:17:30.001Z</time></trkpt><trkpt lat="33.00587161541502" lon="9.611304037854453"><ele>221.5</ele><time>2026-03-30T13:17:32.001Z</time></trkpt><trkpt lat="33.005857312153644" lon="9.611395393217226"><ele>221.66666666666669</ele><time>2026-03-30T13:17:33.001Z</time></trkpt><trkpt lat="33.005845725348244" lon="9.611488482569502"><ele>221.83333333333334</ele><time>2026-03-30T13:17:34.001Z</time></trkpt><trkpt lat="33.005828801355996" lon="9.611584644587678"><ele>222.0</ele><time>2026-03-30T13:17:35.001Z</time></trkpt><trkpt lat="33.00581132225562" lon="9.611668163193505"><ele>221.33333333333334</ele><time>2026-03-30T13:17:36.001Z</time></trkpt><trkpt lat="33.00579796295524" lon="9.611747813529625"><ele>220.66666666666669</ele><time>2026-03-30T13:17:37.001Z</time></trkpt><trkpt lat="33.00578533885557" lon="9.61189179035974"><ele>220.0</ele><time>2026-03-30T13:17:39.001Z</time></trkpt><trkpt lat="33.00577843469204" lon="9.611981533735754"><ele>219.33333333333334</ele><time>2026-03-30T13:17:40.001Z</time></trkpt><trkpt lat="33.005767125339105" lon="9.61207918678445"><ele>218.66666666666669</ele><time>2026-03-30T13:17:41.001Z</time></trkpt><trkpt lat="33.005753914709764" lon="9.61217531342481"><ele>218.0</ele><time>2026-03-30T13:17:42.001Z</time></trkpt><trkpt lat="33.00573909307877" lon="9.612271360129608"><ele>217.8</ele><time>2026-03-30T13:17:43.001Z</time></trkpt><trkpt lat="33.00572189828133" lon="9.612374565513756"><ele>217.60000000000002</ele><time>2026-03-30T13:17:44.001Z</time></trkpt><trkpt lat="33.005703367959384" lon="9.6124756417409"><ele>217.39999999999998</ele><time>2026-03-30T13:17:45.001Z</time></trkpt><trkpt lat="33.005665710433576" lon="9.612587726231627"><ele>217.2</ele><time>2026-03-30T13:17:46.001Z</time></trkpt><trkpt lat="33.00562733300403" lon="9.61268849943124"><ele>217.0</ele><time>2026-03-30T13:17:47.001Z</time></trkpt><trkpt lat="33.00558878469477" lon="9.612785128337478"><ele>216.6</ele><time>2026-03-30T13:17:48.001Z</time></trkpt><trkpt lat="33.005554796022395" lon="9.612889115145018"><ele>216.2</ele><time>2026-03-30T13:17:49.001Z</time></trkpt><trkpt lat="33.00551716706105" lon="9.613001803029354"><ele>215.8</ele><time>2026-03-30T13:17:50.001Z</time></trkpt><trkpt lat="33.00548000804257" lon="9.613105880495846"><ele>215.4</ele><time>2026-03-30T13:17:51.001Z</time></trkpt><trkpt lat="33.00544693562313" lon="9.613196818667173"><ele>215.0</ele><time>2026-03-30T13:17:52.001Z</time></trkpt><trkpt lat="33.00540923180334" lon="9.613298528036916"><ele>215.0</ele><time>2026-03-30T13:17:53.001Z</time></trkpt><trkpt lat="33.00535807437609" lon="9.613396439514945"><ele>215.0</ele><time>2026-03-30T13:17:54.001Z</time></trkpt><trkpt lat="33.00530076052852" lon="9.613488756966776"><ele>215.0</ele><time>2026-03-30T13:17:55.001Z</time></trkpt><trkpt lat="33.00523501995268" lon="9.613586263214266"><ele>215.0</ele><time>2026-03-30T13:17:56.001Z</time></trkpt><trkpt lat="33.00517334577038" lon="9.613668560711877"><ele>215.0</ele><time>2026-03-30T13:17:57.001Z</time></trkpt><trkpt lat="33.005108927868726" lon="9.613740176018688"><ele>215.00000000000003</ele><time>2026-03-30T13:17:58.001Z</time></trkpt><trkpt lat="33.005036866591475" lon="9.61381228071328"><ele>215.0</ele><time>2026-03-30T13:17:59.001Z</time></trkpt><trkpt lat="33.00496371259357" lon="9.613867528077865"><ele>215.0</ele><time>2026-03-30T13:18:00.001Z</time></trkpt><trkpt lat="33.004887633151675" lon="9.61391345643031"><ele>215.0</ele><time>2026-03-30T13:18:01.001Z</time></trkpt><trkpt lat="33.00481106759199" lon="9.613947536477554"><ele>215.00000000000003</ele><time>2026-03-30T13:18:02.001Z</time></trkpt><trkpt lat="33.00473578829918" lon="9.61397505090522"><ele>215.0</ele><time>2026-03-30T13:18:03.001Z</time></trkpt><trkpt lat="33.004660094917384" lon="9.613994352774732"><ele>215.00000000000003</ele><time>2026-03-30T13:18:04.001Z</time></trkpt><trkpt lat="33.00458315505602" lon="9.614021027705398"><ele>215.0</ele><time>2026-03-30T13:18:05.001Z</time></trkpt><trkpt lat="33.00450446894114" lon="9.61405166764397"><ele>215.0</ele><time>2026-03-30T13:18:06.001Z</time></trkpt><trkpt lat="33.00442251099213" lon="9.614079086134586"><ele>215.0</ele><time>2026-03-30T13:18:07.001Z</time></trkpt><trkpt lat="33.00434423048177" lon="9.614098947446639"><ele>215.00000000000003</ele><time>2026-03-30T13:18:08.001Z</time></trkpt><trkpt lat="33.00427141501741" lon="9.61412188727022"><ele>215.0</ele><time>2026-03-30T13:18:09.001Z</time></trkpt><trkpt lat="33.00420265032342" lon="9.614142649727281"><ele>215.33333333333334</ele><time>2026-03-30T13:18:10.001Z</time></trkpt><trkpt lat="33.004118890388256" lon="9.614161029796632"><ele>215.66666666666669</ele><time>2026-03-30T13:18:12.001Z</time></trkpt><trkpt lat="33.00403311384977" lon="9.614152417967427"><ele>216.0</ele><time>2026-03-30T13:19:05.002Z</time></trkpt><trkpt lat="33.00392008082315" lon="9.614176449972547"><ele>216.33333333333331</ele><time>2026-03-30T13:19:07.002Z</time></trkpt><trkpt lat="33.003856143035875" lon="9.6141851419802"><ele>216.66666666666666</ele><time>2026-03-30T13:19:08.002Z</time></trkpt><trkpt lat="33.00379035756074" lon="9.614201722577041"><ele>217.0</ele><time>2026-03-30T13:19:09.002Z</time></trkpt><trkpt lat="33.00371824982402" lon="9.614227266612962"><ele>216.99999999999997</ele><time>2026-03-30T13:19:10.002Z</time></trkpt><trkpt lat="33.00364408707398" lon="9.61426846353001"><ele>217.0</ele><time>2026-03-30T13:19:11.002Z</time></trkpt><trkpt lat="33.003577899706364" lon="9.614326002128223"><ele>217.0</ele><time>2026-03-30T13:19:12.002Z</time></trkpt><trkpt lat="33.003511055705765" lon="9.614389639387293"><ele>217.0</ele><time>2026-03-30T13:19:13.002Z</time></trkpt><trkpt lat="33.00344746361909" lon="9.614437825395031"><ele>216.99999999999997</ele><time>2026-03-30T13:19:14.001Z</time></trkpt><trkpt lat="33.00338660507436" lon="9.614479513506845"><ele>217.0</ele><time>2026-03-30T13:19:15.001Z</time></trkpt><trkpt lat="33.00332418299078" lon="9.614531808787769"><ele>216.99999999999997</ele><time>2026-03-30T13:19:16.001Z</time></trkpt><trkpt lat="33.00327198846931" lon="9.614588028897883"><ele>217.0</ele><time>2026-03-30T13:19:17.001Z</time></trkpt><trkpt lat="33.00321965953369" lon="9.614655838942076"><ele>217.0</ele><time>2026-03-30T13:19:18.001Z</time></trkpt><trkpt lat="33.00316927769774" lon="9.61473168413255"><ele>217.0</ele><time>2026-03-30T13:19:19.001Z</time></trkpt><trkpt lat="33.003115190823046" lon="9.614797158958899"><ele>216.99999999999997</ele><time>2026-03-30T13:19:20.001Z</time></trkpt><trkpt lat="33.00305810965348" lon="9.614841097890837"><ele>217.0</ele><time>2026-03-30T13:19:21.001Z</time></trkpt><trkpt lat="33.00298594786789" lon="9.61488649749024"><ele>216.99999999999997</ele><time>2026-03-30T13:19:22.001Z</time></trkpt><trkpt lat="33.00290934489825" lon="9.614925641216333"><ele>217.0</ele><time>2026-03-30T13:19:23.001Z</time></trkpt><trkpt lat="33.002841448425876" lon="9.614946956820763"><ele>217.0</ele><time>2026-03-30T13:19:24.001Z</time></trkpt><trkpt lat="33.00276734538346" lon="9.614956057730335"><ele>217.0</ele><time>2026-03-30T13:19:25.001Z</time></trkpt><trkpt lat="33.00268894612975" lon="9.614978609525064"><ele>216.99999999999997</ele><time>2026-03-30T13:19:26.001Z</time></trkpt><trkpt lat="33.002618775748665" lon="9.615024254536143"><ele>217.0</ele><time>2026-03-30T13:19:27.001Z</time></trkpt><trkpt lat="33.0025570793079" lon="9.615086933637095"><ele>216.99999999999997</ele><time>2026-03-30T13:19:28.001Z</time></trkpt><trkpt lat="33.00250189622569" lon="9.615159929463791"><ele>217.0</ele><time>2026-03-30T13:19:29.001Z</time></trkpt><trkpt lat="33.002444364762276" lon="9.61524648417188"><ele>217.0</ele><time>2026-03-30T13:19:30.001Z</time></trkpt><trkpt lat="33.00238726900102" lon="9.61532254574342"><ele>217.0</ele><time>2026-03-30T13:19:31.001Z</time></trkpt><trkpt lat="33.00231806351259" lon="9.6153706903662"><ele>216.99999999999997</ele><time>2026-03-30T13:19:32.001Z</time></trkpt><trkpt lat="33.002245004289826" lon="9.615383877968773"><ele>217.0</ele><time>2026-03-30T13:19:33.001Z</time></trkpt><trkpt lat="33.002170060732695" lon="9.615378454546077"><ele>217.6</ele><time>2026-03-30T13:19:34.001Z</time></trkpt><trkpt lat="33.00205759144594" lon="9.615375998619122"><ele>218.2</ele><time>2026-03-30T13:19:36.001Z</time></trkpt><trkpt lat="33.00194585337465" lon="9.615452065379475"><ele>218.8</ele><time>2026-03-30T13:19:38.001Z</time></trkpt><trkpt lat="33.00189162220774" lon="9.615521121353924"><ele>219.4</ele><time>2026-03-30T13:19:39.001Z</time></trkpt><trkpt lat="33.00183216834925" lon="9.615575971265777"><ele>220.0</ele><time>2026-03-30T13:19:40.001Z</time></trkpt><trkpt lat="33.00176452438824" lon="9.615623170736722"><ele>219.99999999999997</ele><time>2026-03-30T13:19:41.001Z</time></trkpt><trkpt lat="33.001693888705276" lon="9.615670890217656"><ele>220.0</ele><time>2026-03-30T13:19:42.001Z</time></trkpt><trkpt lat="33.00162809673042" lon="9.615729374669856"><ele>220.0</ele><time>2026-03-30T13:19:43.001Z</time></trkpt><trkpt lat="33.001566355285256" lon="9.615784270442362"><ele>220.0</ele><time>2026-03-30T13:19:44.001Z</time></trkpt><trkpt lat="33.001510175515506" lon="9.615830386924998"><ele>220.0</ele><time>2026-03-30T13:19:45.001Z</time></trkpt><trkpt lat="33.00145863564334" lon="9.61587592295919"><ele>219.99999999999997</ele><time>2026-03-30T13:19:46.001Z</time></trkpt><trkpt lat="33.00140164857884" lon="9.615908701057734"><ele>220.0</ele><time>2026-03-30T13:19:47.001Z</time></trkpt><trkpt lat="33.00134213036477" lon="9.615935434282784"><ele>220.0</ele><time>2026-03-30T13:19:48.001Z</time></trkpt><trkpt lat="33.00128229633493" lon="9.615971240811398"><ele>220.0</ele><time>2026-03-30T13:19:49.001Z</time></trkpt><trkpt lat="33.0011661460138" lon="9.6160732363781"><ele>220.0</ele><time>2026-03-30T13:19:51.001Z</time></trkpt><trkpt lat="33.001100786513156" lon="9.616131138522354"><ele>220.0</ele><time>2026-03-30T13:19:52.001Z</time></trkpt><trkpt lat="33.00102825906692" lon="9.616171684443321"><ele>220.0</ele><time>2026-03-30T13:19:53.001Z</time></trkpt><trkpt lat="33.00095217621341" lon="9.616211472296422"><ele>219.99999999999997</ele><time>2026-03-30T13:19:54.001Z</time></trkpt><trkpt lat="33.000868672444916" lon="9.61625706457272"><ele>220.0</ele><time>2026-03-30T13:19:55.001Z</time></trkpt><trkpt lat="33.000775267064995" lon="9.616310965010967"><ele>220.0</ele><time>2026-03-30T13:19:56.001Z</time></trkpt><trkpt lat="33.00069898608296" lon="9.6163674356633"><ele>220.0</ele><time>2026-03-30T13:19:57.001Z</time></trkpt><trkpt lat="33.00062950536427" lon="9.616415087813893"><ele>219.99999999999997</ele><time>2026-03-30T13:19:58.001Z</time></trkpt><trkpt lat="33.000556471400785" lon="9.616454280301843"><ele>220.0</ele><time>2026-03-30T13:19:59.001Z</time></trkpt><trkpt lat="33.000493611972665" lon="9.616480948023694"><ele>219.99999999999997</ele><time>2026-03-30T13:20:00.001Z</time></trkpt><trkpt lat="33.00042625352944" lon="9.61650920672082"><ele>220.0</ele><time>2026-03-30T13:20:01.001Z</time></trkpt><trkpt lat="33.00034927691565" lon="9.616532804773325"><ele>220.0</ele><time>2026-03-30T13:20:02.001Z</time></trkpt><trkpt lat="33.00026903625737" lon="9.616562139898534"><ele>220.0</ele><time>2026-03-30T13:20:03.001Z</time></trkpt><trkpt lat="33.00020577837156" lon="9.6166043833225"><ele>219.99999999999997</ele><time>2026-03-30T13:20:04.001Z</time></trkpt><trkpt lat="33.00013849138143" lon="9.61665051780639"><ele>220.0</ele><time>2026-03-30T13:20:05.001Z</time></trkpt><trkpt lat="33.00006474767913" lon="9.616695504089087"><ele>220.0</ele><time>2026-03-30T13:20:06.001Z</time></trkpt><trkpt lat="32.999986510324476" lon="9.61674546438656"><ele>220.0</ele><time>2026-03-30T13:20:07.001Z</time></trkpt><trkpt lat="32.99990640348285" lon="9.616804681611418"><ele>220.0</ele><time>2026-03-30T13:20:08.001Z</time></trkpt><trkpt lat="32.99982886091326" lon="9.61686374264532"><ele>220.0</ele><time>2026-03-30T13:20:09.001Z</time></trkpt><trkpt lat="32.99975512973933" lon="9.616915935849278"><ele>220.0</ele><time>2026-03-30T13:20:10.001Z</time></trkpt><trkpt lat="32.999671975028534" lon="9.61696485578782"><ele>219.66666666666666</ele><time>2026-03-30T13:20:11.001Z</time></trkpt><trkpt lat="32.99959157621463" lon="9.617009821102668"><ele>219.33333333333331</ele><time>2026-03-30T13:20:12.001Z</time></trkpt><trkpt lat="32.99952386589822" lon="9.617057698580785"><ele>219.0</ele><time>2026-03-30T13:20:13.001Z</time></trkpt><trkpt lat="32.99947595931795" lon="9.617112412642953"><ele>218.66666666666669</ele><time>2026-03-30T13:20:14.001Z</time></trkpt><trkpt lat="32.9994337353088" lon="9.61719125579259"><ele>218.33333333333334</ele><time>2026-03-30T13:20:15.001Z</time></trkpt><trkpt lat="32.9993922150207" lon="9.617282391559794"><ele>218.0</ele><time>2026-03-30T13:20:16.001Z</time></trkpt><trkpt lat="32.99934375857499" lon="9.6173766885202"><ele>218.00000000000003</ele><time>2026-03-30T13:20:17.001Z</time></trkpt><trkpt lat="32.999290666903796" lon="9.617463221989638"><ele>218.0</ele><time>2026-03-30T13:20:18.001Z</time></trkpt><trkpt lat="32.99923489875588" lon="9.617544452859844"><ele>218.0</ele><time>2026-03-30T13:20:19.001Z</time></trkpt><trkpt lat="32.99916454224077" lon="9.617619750200701"><ele>218.0</ele><time>2026-03-30T13:20:20.001Z</time></trkpt><trkpt lat="32.99908551458619" lon="9.617663612239607"><ele>218.00000000000003</ele><time>2026-03-30T13:20:21.001Z</time></trkpt><trkpt lat="32.999002744558666" lon="9.617686229990039"><ele>218.0</ele><time>2026-03-30T13:20:22.001Z</time></trkpt><trkpt lat="32.99891701432087" lon="9.617707352929726"><ele>218.00000000000003</ele><time>2026-03-30T13:20:23.001Z</time></trkpt><trkpt lat="32.998829052553766" lon="9.617732496771387"><ele>218.0</ele><time>2026-03-30T13:20:24.001Z</time></trkpt><trkpt lat="32.998747905767104" lon="9.617759238724592"><ele>218.0</ele><time>2026-03-30T13:20:25.001Z</time></trkpt><trkpt lat="32.998661090637675" lon="9.617795974233067"><ele>218.0</ele><time>2026-03-30T13:20:26.001Z</time></trkpt><trkpt lat="32.99858362570929" lon="9.617842997824438"><ele>218.00000000000003</ele><time>2026-03-30T13:20:27.001Z</time></trkpt><trkpt lat="32.998522858914356" lon="9.617907263917925"><ele>218.0</ele><time>2026-03-30T13:20:28.001Z</time></trkpt><trkpt lat="32.998453500369735" lon="9.617975056863592"><ele>218.16666666666669</ele><time>2026-03-30T13:20:29.001Z</time></trkpt><trkpt lat="32.99838872849338" lon="9.618032096308877"><ele>218.33333333333334</ele><time>2026-03-30T13:20:30.001Z</time></trkpt><trkpt lat="32.99832240565425" lon="9.618084980757914"><ele>218.5</ele><time>2026-03-30T13:20:31.001Z</time></trkpt><trkpt lat="32.99824628650857" lon="9.618141520077549"><ele>218.66666666666669</ele><time>2026-03-30T13:20:32.001Z</time></trkpt><trkpt lat="32.998159401068534" lon="9.618214214992449"><ele>218.83333333333334</ele><time>2026-03-30T13:20:33.001Z</time></trkpt><trkpt lat="32.99808813811299" lon="9.618278216401826"><ele>219.0</ele><time>2026-03-30T13:20:34.001Z</time></trkpt><trkpt lat="32.99801574403863" lon="9.618336194795317"><ele>219.0</ele><time>2026-03-30T13:20:35.001Z</time></trkpt><trkpt lat="32.9979280000642" lon="9.618402635438569"><ele>218.99999999999997</ele><time>2026-03-30T13:20:36.001Z</time></trkpt><trkpt lat="32.99784408250392" lon="9.618471313896576"><ele>218.99999999999997</ele><time>2026-03-30T13:20:37.001Z</time></trkpt><trkpt lat="32.99776996944715" lon="9.618537219947498"><ele>219.0</ele><time>2026-03-30T13:20:38.001Z</time></trkpt><trkpt lat="32.99769813553881" lon="9.618611709644705"><ele>219.0</ele><time>2026-03-30T13:20:39.001Z</time></trkpt><trkpt lat="32.99765596571736" lon="9.61867425036761"><ele>219.0</ele><time>2026-03-30T13:20:40.001Z</time></trkpt><trkpt lat="32.99760963559323" lon="9.618749644727727"><ele>219.0</ele><time>2026-03-30T13:20:41.001Z</time></trkpt><trkpt lat="32.99753009645719" lon="9.61887155783704"><ele>219.0</ele><time>2026-03-30T13:20:43.001Z</time></trkpt><trkpt lat="32.997486590767785" lon="9.618939006961055"><ele>219.0</ele><time>2026-03-30T13:20:44.001Z</time></trkpt><trkpt lat="32.99745321703681" lon="9.619023496873849"><ele>219.0</ele><time>2026-03-30T13:20:45.001Z</time></trkpt><trkpt lat="32.997423397987966" lon="9.619123032701838"><ele>219.0</ele><time>2026-03-30T13:20:46.001Z</time></trkpt><trkpt lat="32.9973925269791" lon="9.61923143284787"><ele>219.2</ele><time>2026-03-30T13:20:47.001Z</time></trkpt><trkpt lat="32.99734500420954" lon="9.619346797552062"><ele>219.39999999999998</ele><time>2026-03-30T13:20:48.001Z</time></trkpt><trkpt lat="32.99730390199524" lon="9.619462504218491"><ele>219.6</ele><time>2026-03-30T13:20:49.001Z</time></trkpt><trkpt lat="32.99726629801591" lon="9.619563427421244"><ele>219.8</ele><time>2026-03-30T13:20:50.001Z</time></trkpt><trkpt lat="32.99723082516061" lon="9.619656423225125"><ele>220.0</ele><time>2026-03-30T13:20:51.001Z</time></trkpt><trkpt lat="32.997186695711754" lon="9.619761249935308"><ele>219.49999999999997</ele><time>2026-03-30T13:20:52.001Z</time></trkpt><trkpt lat="32.99714586566105" lon="9.61985008136198"><ele>219.0</ele><time>2026-03-30T13:20:53.001Z</time></trkpt><trkpt lat="32.99710090761187" lon="9.619938886301046"><ele>218.5</ele><time>2026-03-30T13:20:54.001Z</time></trkpt><trkpt lat="32.99705751220142" lon="9.62001345962291"><ele>218.0</ele><time>2026-03-30T13:20:55.001Z</time></trkpt><trkpt lat="32.99700742519652" lon="9.620093684419945"><ele>217.49999999999997</ele><time>2026-03-30T13:20:56.001Z</time></trkpt><trkpt lat="32.99695428712307" lon="9.620171523674955"><ele>217.0</ele><time>2026-03-30T13:20:57.001Z</time></trkpt><trkpt lat="32.99690867700958" lon="9.620240393857237"><ele>216.39999999999998</ele><time>2026-03-30T13:20:58.001Z</time></trkpt><trkpt lat="32.99685256205542" lon="9.62032831967641"><ele>215.79999999999998</ele><time>2026-03-30T13:20:59.001Z</time></trkpt><trkpt lat="32.99679999765432" lon="9.620421522395537"><ele>215.2</ele><time>2026-03-30T13:21:00.001Z</time></trkpt><trkpt lat="32.99675237793845" lon="9.62052628955932"><ele>214.6</ele><time>2026-03-30T13:21:01.001Z</time></trkpt><trkpt lat="32.996716215709014" lon="9.620629510202104"><ele>214.0</ele><time>2026-03-30T13:21:02.001Z</time></trkpt><trkpt lat="32.99668233686347" lon="9.6207296637058"><ele>214.0</ele><time>2026-03-30T13:21:03.001Z</time></trkpt><trkpt lat="32.996652647462646" lon="9.620818789972796"><ele>213.99999999999997</ele><time>2026-03-30T13:21:04.001Z</time></trkpt><trkpt lat="32.996620227734425" lon="9.620887172440431"><ele>213.99999999999997</ele><time>2026-03-30T13:21:05.001Z</time></trkpt><trkpt lat="32.99655169273007" lon="9.621025293388023"><ele>214.0</ele><time>2026-03-30T13:21:07.001Z</time></trkpt><trkpt lat="32.99650888809213" lon="9.621116186226512"><ele>214.0</ele><time>2026-03-30T13:21:08.001Z</time></trkpt><trkpt lat="32.9964628639599" lon="9.621213522809112"><ele>213.66666666666666</ele><time>2026-03-30T13:21:09.001Z</time></trkpt><trkpt lat="32.99641931088113" lon="9.621296565121346"><ele>213.33333333333331</ele><time>2026-03-30T13:21:10.001Z</time></trkpt><trkpt lat="32.99637352838027" lon="9.62137393912896"><ele>213.0</ele><time>2026-03-30T13:21:11.001Z</time></trkpt><trkpt lat="32.996316206724735" lon="9.62145918202658"><ele>212.66666666666669</ele><time>2026-03-30T13:21:12.001Z</time></trkpt><trkpt lat="32.99625856782676" lon="9.621555835367783"><ele>212.33333333333334</ele><time>2026-03-30T13:21:13.001Z</time></trkpt><trkpt lat="32.99621678910726" lon="9.621648493208438"><ele>212.0</ele><time>2026-03-30T13:21:14.001Z</time></trkpt><trkpt lat="32.99619047731502" lon="9.621740589760474"><ele>212.0</ele><time>2026-03-30T13:21:15.001Z</time></trkpt><trkpt lat="32.9961756455965" lon="9.621817245911371"><ele>212.0</ele><time>2026-03-30T13:21:16.001Z</time></trkpt><trkpt lat="32.99612015463059" lon="9.621986534343419"><ele>212.0</ele><time>2026-03-30T13:21:18.001Z</time></trkpt><trkpt lat="32.99608016786221" lon="9.622061672850625"><ele>212.0</ele><time>2026-03-30T13:21:19.001Z</time></trkpt><trkpt lat="32.99604416645255" lon="9.622148251800558"><ele>212.0</ele><time>2026-03-30T13:21:21.001Z</time></trkpt><trkpt lat="32.99603214957674" lon="9.622240408750228"><ele>211.83333333333334</ele><time>2026-03-30T13:21:22.001Z</time></trkpt><trkpt lat="32.99601856465052" lon="9.622322380612662"><ele>211.66666666666669</ele><time>2026-03-30T13:21:23.001Z</time></trkpt><trkpt lat="32.996006843224656" lon="9.622406932476236"><ele>211.5</ele><time>2026-03-30T13:21:24.001Z</time></trkpt><trkpt lat="32.99598768442626" lon="9.622496644585993"><ele>211.33333333333331</ele><time>2026-03-30T13:21:25.001Z</time></trkpt><trkpt lat="32.99596446264134" lon="9.622597017698224"><ele>211.16666666666666</ele><time>2026-03-30T13:21:26.001Z</time></trkpt><trkpt lat="32.995938603344115" lon="9.62268616788632"><ele>211.0</ele><time>2026-03-30T13:21:27.001Z</time></trkpt><trkpt lat="32.99591578153313" lon="9.6227827833565"><ele>211.16666666666666</ele><time>2026-03-30T13:21:28.001Z</time></trkpt><trkpt lat="32.99589564229994" lon="9.62286548523582"><ele>211.33333333333331</ele><time>2026-03-30T13:21:29.001Z</time></trkpt><trkpt lat="32.995824116150864" lon="9.622985834440739"><ele>211.5</ele><time>2026-03-30T13:21:31.001Z</time></trkpt><trkpt lat="32.995764651866445" lon="9.62304803405637"><ele>211.66666666666669</ele><time>2026-03-30T13:21:32.001Z</time></trkpt><trkpt lat="32.99570171826679" lon="9.62311931017335"><ele>211.83333333333334</ele><time>2026-03-30T13:21:33.001Z</time></trkpt><trkpt lat="32.99566766428698" lon="9.623186958668429"><ele>212.0</ele><time>2026-03-30T13:21:34.001Z</time></trkpt><trkpt lat="32.99562570051599" lon="9.6232628645265"><ele>212.0</ele><time>2026-03-30T13:21:35.001Z</time></trkpt><trkpt lat="32.99557465894662" lon="9.62333762781232"><ele>212.0</ele><time>2026-03-30T13:21:36.001Z</time></trkpt><trkpt lat="32.9955244555854" lon="9.623397375816111"><ele>212.0</ele><time>2026-03-30T13:21:37.001Z</time></trkpt><trkpt lat="32.99547933474921" lon="9.623452045472023"><ele>212.0</ele><time>2026-03-30T13:21:38.001Z</time></trkpt><trkpt lat="32.99543587056393" lon="9.623521056973095"><ele>212.0</ele><time>2026-03-30T13:21:39.001Z</time></trkpt><trkpt lat="32.99539183847838" lon="9.623589937367301"><ele>212.0</ele><time>2026-03-30T13:21:40.001Z</time></trkpt><trkpt lat="32.99534851822291" lon="9.623651222217829"><ele>212.0</ele><time>2026-03-30T13:21:41.001Z</time></trkpt><trkpt lat="32.99529517875423" lon="9.623728276274926"><ele>212.0</ele><time>2026-03-30T13:21:42Z</time></trkpt><trkpt lat="32.99524492575109" lon="9.623799662271404"><ele>212.0</ele><time>2026-03-30T13:21:43Z</time></trkpt><trkpt lat="32.995196479810446" lon="9.623871607360433"><ele>212.0</ele><time>2026-03-30T13:21:44Z</time></trkpt><trkpt lat="32.99515944120889" lon="9.62394295443938"><ele>212.0</ele><time>2026-03-30T13:21:45Z</time></trkpt><trkpt lat="32.99514211788931" lon="9.624017964516344"><ele>212.0</ele><time>2026-03-30T13:21:46Z</time></trkpt><trkpt lat="32.99513605469719" lon="9.624106251278485"><ele>212.0</ele><time>2026-03-30T13:21:47Z</time></trkpt><trkpt lat="32.995126216746705" lon="9.624195995278294"><ele>212.0</ele><time>2026-03-30T13:21:48Z</time></trkpt><trkpt lat="32.99511154051064" lon="9.624293881407612"><ele>212.0</ele><time>2026-03-30T13:21:49Z</time></trkpt><trkpt lat="32.995090666246355" lon="9.624398125698509"><ele>212.0</ele><time>2026-03-30T13:21:50Z</time></trkpt><trkpt lat="32.9950631925583" lon="9.624494915500303"><ele>212.0</ele><time>2026-03-30T13:21:51Z</time></trkpt><trkpt lat="32.99502001881048" lon="9.6246389687605"><ele>212.0</ele><time>2026-03-30T13:21:53Z</time></trkpt><trkpt lat="32.99499052434769" lon="9.624715301901082"><ele>212.0</ele><time>2026-03-30T13:21:54Z</time></trkpt><trkpt lat="32.9949460436191" lon="9.624792424838594"><ele>211.66666666666669</ele><time>2026-03-30T13:21:55Z</time></trkpt><trkpt lat="32.99489894337964" lon="9.624867481494123"><ele>211.33333333333334</ele><time>2026-03-30T13:21:56Z</time></trkpt><trkpt lat="32.99485803498564" lon="9.624932561656488"><ele>211.0</ele><time>2026-03-30T13:21:57Z</time></trkpt><trkpt lat="32.99482091821551" lon="9.624997794255112"><ele>210.66666666666669</ele><time>2026-03-30T13:22:01Z</time></trkpt><trkpt lat="32.99480933066594" lon="9.625073120107977"><ele>210.33333333333334</ele><time>2026-03-30T13:22:21Z</time></trkpt><trkpt lat="32.99480255962587" lon="9.625182572862368"><ele>210.0</ele><time>2026-03-30T13:22:23Z</time></trkpt><trkpt lat="32.99477031216284" lon="9.625307808127713"><ele>209.83333333333334</ele><time>2026-03-30T13:22:25Z</time></trkpt><trkpt lat="32.99474419837092" lon="9.625379181194342"><ele>209.66666666666669</ele><time>2026-03-30T13:22:26Z</time></trkpt><trkpt lat="32.99470549836653" lon="9.625462562061633"><ele>209.5</ele><time>2026-03-30T13:22:27Z</time></trkpt><trkpt lat="32.99467562607986" lon="9.62553885183834"><ele>209.33333333333334</ele><time>2026-03-30T13:22:28Z</time></trkpt><trkpt lat="32.994657421759044" lon="9.62561504071737"><ele>209.16666666666669</ele><time>2026-03-30T13:22:29Z</time></trkpt><trkpt lat="32.994648306141436" lon="9.62569384625464"><ele>209.0</ele><time>2026-03-30T13:22:30Z</time></trkpt><trkpt lat="32.99463214219844" lon="9.625838647887552"><ele>209.0</ele><time>2026-03-30T13:22:32Z</time></trkpt><trkpt lat="32.99462191620296" lon="9.625916196637835"><ele>209.0</ele><time>2026-03-30T13:22:33Z</time></trkpt><trkpt lat="32.99459674957642" lon="9.626031674263281"><ele>209.0</ele><time>2026-03-30T13:22:35Z</time></trkpt><trkpt lat="32.99458053580416" lon="9.626158450616254"><ele>209.0</ele><time>2026-03-30T13:22:37Z</time></trkpt><trkpt lat="32.994576021022084" lon="9.626264878367241"><ele>209.0</ele><time>2026-03-30T13:22:39Z</time></trkpt><trkpt lat="32.99461419622785" lon="9.626399621718623"><ele>209.39999999999998</ele><time>2026-03-30T13:22:41Z</time></trkpt><trkpt lat="32.9946333970509" lon="9.626478401488415"><ele>209.8</ele><time>2026-03-30T13:22:42Z</time></trkpt><trkpt lat="32.99464463256905" lon="9.62656697011935"><ele>210.2</ele><time>2026-03-30T13:22:43Z</time></trkpt><trkpt lat="32.99464521174366" lon="9.626726457181562"><ele>210.60000000000002</ele><time>2026-03-30T13:22:45Z</time></trkpt><trkpt lat="32.994642590034864" lon="9.62680708016394"><ele>211.0</ele><time>2026-03-30T13:22:46Z</time></trkpt><trkpt lat="32.99463655458928" lon="9.626957112667691"><ele>210.85714285714286</ele><time>2026-03-30T13:22:48Z</time></trkpt><trkpt lat="32.99462540756828" lon="9.627041258978664"><ele>210.71428571428572</ele><time>2026-03-30T13:22:49Z</time></trkpt><trkpt lat="32.99460557918182" lon="9.627113211108034"><ele>210.57142857142856</ele><time>2026-03-30T13:22:50Z</time></trkpt><trkpt lat="32.99457724848366" lon="9.627181275138136"><ele>210.42857142857144</ele><time>2026-03-30T13:22:51Z</time></trkpt><trkpt lat="32.99452958408403" lon="9.62725088058333"><ele>210.28571428571428</ele><time>2026-03-30T13:22:52Z</time></trkpt><trkpt lat="32.994470182278995" lon="9.62731612639161"><ele>210.14285714285714</ele><time>2026-03-30T13:22:53Z</time></trkpt><trkpt lat="32.99441132820386" lon="9.627370986993347"><ele>210.0</ele><time>2026-03-30T13:22:54Z</time></trkpt><trkpt lat="32.99436372943065" lon="9.627437242986003"><ele>210.0</ele><time>2026-03-30T13:22:55Z</time></trkpt><trkpt lat="32.99433162459483" lon="9.627516541068267"><ele>210.0</ele><time>2026-03-30T13:22:56Z</time></trkpt><trkpt lat="32.99430952479567" lon="9.627602727791178"><ele>210.0</ele><time>2026-03-30T13:22:57Z</time></trkpt><trkpt lat="32.99430365611569" lon="9.627683006632584"><ele>210.0</ele><time>2026-03-30T13:22:58Z</time></trkpt><trkpt lat="32.99430373543955" lon="9.62782006673273"><ele>210.0</ele><time>2026-03-30T13:23:00Z</time></trkpt><trkpt lat="32.99422805803976" lon="9.627947791282422"><ele>209.83333333333334</ele><time>2026-03-30T13:23:02Z</time></trkpt><trkpt lat="32.99416216463013" lon="9.62799514054021"><ele>209.66666666666669</ele><time>2026-03-30T13:23:03Z</time></trkpt><trkpt lat="32.994107504489136" lon="9.628046301219955"><ele>209.5</ele><time>2026-03-30T13:23:04Z</time></trkpt><trkpt lat="32.99406929332273" lon="9.62810614237459"><ele>209.33333333333334</ele><time>2026-03-30T13:23:05Z</time></trkpt><trkpt lat="32.99400672725032" lon="9.628251977995532"><ele>209.16666666666669</ele><time>2026-03-30T13:23:07Z</time></trkpt><trkpt lat="32.993966170594135" lon="9.62832105993174"><ele>209.0</ele><time>2026-03-30T13:23:08Z</time></trkpt><trkpt lat="32.99390881594867" lon="9.628402109961973"><ele>209.0</ele><time>2026-03-30T13:23:09Z</time></trkpt><trkpt lat="32.993860797027985" lon="9.628470180277864"><ele>209.0</ele><time>2026-03-30T13:23:10Z</time></trkpt><trkpt lat="32.993810708801824" lon="9.6285381858706"><ele>209.0</ele><time>2026-03-30T13:23:11Z</time></trkpt><trkpt lat="32.9937690022885" lon="9.628613492945922"><ele>209.0</ele><time>2026-03-30T13:23:12Z</time></trkpt><trkpt lat="32.99373903582728" lon="9.628693853119586"><ele>209.0</ele><time>2026-03-30T13:23:13Z</time></trkpt><trkpt lat="32.99372777117016" lon="9.628779232501524"><ele>209.0</ele><time>2026-03-30T13:23:14Z</time></trkpt><trkpt lat="32.99371393514686" lon="9.628867888678519"><ele>209.0</ele><time>2026-03-30T13:23:15Z</time></trkpt><trkpt lat="32.99368520196206" lon="9.628944480302641"><ele>209.14285714285714</ele><time>2026-03-30T13:23:16Z</time></trkpt><trkpt lat="32.99365273361388" lon="9.629024640233808"><ele>209.28571428571428</ele><time>2026-03-30T13:23:17Z</time></trkpt><trkpt lat="32.99361237895019" lon="9.62909989087864"><ele>209.42857142857144</ele><time>2026-03-30T13:23:18Z</time></trkpt><trkpt lat="32.99357394547787" lon="9.629170388395352"><ele>209.57142857142856</ele><time>2026-03-30T13:23:19Z</time></trkpt><trkpt lat="32.993537765303316" lon="9.629243715957832"><ele>209.71428571428572</ele><time>2026-03-30T13:23:20Z</time></trkpt><trkpt lat="32.99350183769473" lon="9.629318587774648"><ele>209.85714285714286</ele><time>2026-03-30T13:23:21Z</time></trkpt><trkpt lat="32.99346058002119" lon="9.62940180102368"><ele>210.0</ele><time>2026-03-30T13:23:22Z</time></trkpt><trkpt lat="32.993433973000045" lon="9.629471628259784"><ele>209.83333333333334</ele><time>2026-03-30T13:23:23Z</time></trkpt><trkpt lat="32.99342543196904" lon="9.629619426633198"><ele>209.66666666666669</ele><time>2026-03-30T13:23:25Z</time></trkpt><trkpt lat="32.993431262108395" lon="9.629694767682764"><ele>209.5</ele><time>2026-03-30T13:23:26Z</time></trkpt><trkpt lat="32.993426323932674" lon="9.629777868298852"><ele>209.33333333333334</ele><time>2026-03-30T13:23:27Z</time></trkpt><trkpt lat="32.99341379105226" lon="9.62986861538148"><ele>209.16666666666669</ele><time>2026-03-30T13:23:28Z</time></trkpt><trkpt lat="32.99340129935862" lon="9.629967917788425"><ele>209.0</ele><time>2026-03-30T13:23:29Z</time></trkpt><trkpt lat="32.99338898548688" lon="9.63006907072343"><ele>209.00000000000003</ele><time>2026-03-30T13:23:30Z</time></trkpt><trkpt lat="32.99337289930392" lon="9.630170046222883"><ele>209.0</ele><time>2026-03-30T13:23:31Z</time></trkpt><trkpt lat="32.99335655677862" lon="9.630254370829363"><ele>209.0</ele><time>2026-03-30T13:23:32Z</time></trkpt><trkpt lat="32.99334041753583" lon="9.630335254970975"><ele>209.0</ele><time>2026-03-30T13:23:33Z</time></trkpt><trkpt lat="32.993315921107154" lon="9.630421993894046"><ele>209.00000000000003</ele><time>2026-03-30T13:23:34Z</time></trkpt><trkpt lat="32.993279251071506" lon="9.630506570141184"><ele>209.0</ele><time>2026-03-30T13:23:35Z</time></trkpt><trkpt lat="32.99323401739869" lon="9.630578589772716"><ele>209.16666666666669</ele><time>2026-03-30T13:23:36Z</time></trkpt><trkpt lat="32.99317469605535" lon="9.630658655092102"><ele>209.33333333333334</ele><time>2026-03-30T13:23:37Z</time></trkpt><trkpt lat="32.99310819439306" lon="9.630733577015281"><ele>209.5</ele><time>2026-03-30T13:23:38Z</time></trkpt><trkpt lat="32.99303997444166" lon="9.630814040442825"><ele>209.66666666666669</ele><time>2026-03-30T13:23:39Z</time></trkpt><trkpt lat="32.99298533508539" lon="9.63090130859722"><ele>209.83333333333334</ele><time>2026-03-30T13:23:40Z</time></trkpt><trkpt lat="32.99295004526293" lon="9.630988106991664"><ele>210.0</ele><time>2026-03-30T13:23:41Z</time></trkpt><trkpt lat="32.99292469646306" lon="9.63107704758524"><ele>210.0</ele><time>2026-03-30T13:23:42Z</time></trkpt><trkpt lat="32.992905083100254" lon="9.631156194263873"><ele>210.0</ele><time>2026-03-30T13:23:43Z</time></trkpt><trkpt lat="32.99287410482186" lon="9.631280474624512"><ele>210.0</ele><time>2026-03-30T13:23:45Z</time></trkpt><trkpt lat="32.992841681788555" lon="9.63137391241211"><ele>210.0</ele><time>2026-03-30T13:23:46Z</time></trkpt><trkpt lat="32.992804274642744" lon="9.631460672942595"><ele>210.0</ele><time>2026-03-30T13:23:47Z</time></trkpt><trkpt lat="32.992757611880855" lon="9.63155674588867"><ele>210.0</ele><time>2026-03-30T13:23:48Z</time></trkpt><trkpt lat="32.99271376565039" lon="9.631639835884325"><ele>210.0</ele><time>2026-03-30T13:23:49Z</time></trkpt><trkpt lat="32.99268126534814" lon="9.631713162313012"><ele>210.0</ele><time>2026-03-30T13:23:50Z</time></trkpt><trkpt lat="32.99264647917798" lon="9.631795898542508"><ele>210.0</ele><time>2026-03-30T13:23:51Z</time></trkpt><trkpt lat="32.99260799991021" lon="9.63188928697667"><ele>210.0</ele><time>2026-03-30T13:23:52Z</time></trkpt><trkpt lat="32.992559373431995" lon="9.631975474382342"><ele>210.0</ele><time>2026-03-30T13:23:53Z</time></trkpt><trkpt lat="32.99250666160678" lon="9.632037370635912"><ele>210.0</ele><time>2026-03-30T13:23:54Z</time></trkpt><trkpt lat="32.99244668754361" lon="9.632088978746271"><ele>209.85714285714286</ele><time>2026-03-30T13:23:55Z</time></trkpt><trkpt lat="32.992397941493934" lon="9.632147268883774"><ele>209.71428571428572</ele><time>2026-03-30T13:23:56Z</time></trkpt><trkpt lat="32.99236599312981" lon="9.632224388358187"><ele>209.57142857142856</ele><time>2026-03-30T13:23:57Z</time></trkpt><trkpt lat="32.99233964450198" lon="9.63231386743048"><ele>209.42857142857144</ele><time>2026-03-30T13:23:58Z</time></trkpt><trkpt lat="32.99231129883946" lon="9.632413105119198"><ele>209.28571428571428</ele><time>2026-03-30T13:23:59Z</time></trkpt><trkpt lat="32.9922990561853" lon="9.63249461564551"><ele>209.14285714285714</ele><time>2026-03-30T13:24:00Z</time></trkpt><trkpt lat="32.99230729665351" lon="9.632573481739108"><ele>209.0</ele><time>2026-03-30T13:24:01Z</time></trkpt><trkpt lat="32.99232896666998" lon="9.632665499525531"><ele>209.00000000000003</ele><time>2026-03-30T13:24:02Z</time></trkpt><trkpt lat="32.99232714504577" lon="9.632753267008518"><ele>209.0</ele><time>2026-03-30T13:24:03Z</time></trkpt><trkpt lat="32.992305098136434" lon="9.632838776998312"><ele>209.0</ele><time>2026-03-30T13:24:04Z</time></trkpt><trkpt lat="32.99228286969779" lon="9.632922228152657"><ele>209.0</ele><time>2026-03-30T13:24:05Z</time></trkpt><trkpt lat="32.99226240279264" lon="9.633008619487683"><ele>209.00000000000003</ele><time>2026-03-30T13:24:06Z</time></trkpt><trkpt lat="32.992237963950274" lon="9.633100155620461"><ele>209.0</ele><time>2026-03-30T13:24:07Z</time></trkpt><trkpt lat="32.99220914750399" lon="9.63319638613804"><ele>209.16666666666669</ele><time>2026-03-30T13:24:08Z</time></trkpt><trkpt lat="32.992174778821266" lon="9.633286929823084"><ele>209.33333333333334</ele><time>2026-03-30T13:24:09Z</time></trkpt><trkpt lat="32.99213973867651" lon="9.633375817328469"><ele>209.5</ele><time>2026-03-30T13:24:10Z</time></trkpt><trkpt lat="32.99209640930985" lon="9.633459278507141"><ele>209.66666666666669</ele><time>2026-03-30T13:24:11Z</time></trkpt><trkpt lat="32.992051198044976" lon="9.633537022046982"><ele>209.83333333333334</ele><time>2026-03-30T13:24:12Z</time></trkpt><trkpt lat="32.99201616526139" lon="9.633607952698648"><ele>210.0</ele><time>2026-03-30T13:24:13Z</time></trkpt><trkpt lat="32.99198283751581" lon="9.633688079249106"><ele>210.0</ele><time>2026-03-30T13:24:14Z</time></trkpt><trkpt lat="32.99195701767789" lon="9.633763128184055"><ele>210.0</ele><time>2026-03-30T13:24:15Z</time></trkpt><trkpt lat="32.99192622625734" lon="9.633841158525051"><ele>210.0</ele><time>2026-03-30T13:24:16Z</time></trkpt><trkpt lat="32.99190551665042" lon="9.633914341738233"><ele>210.0</ele><time>2026-03-30T13:24:17Z</time></trkpt><trkpt lat="32.9918850740519" lon="9.633988123656628"><ele>210.0</ele><time>2026-03-30T13:24:18Z</time></trkpt><trkpt lat="32.99185492590015" lon="9.63406858423732"><ele>210.0</ele><time>2026-03-30T13:24:19Z</time></trkpt><trkpt lat="32.99181048220286" lon="9.634138788549414"><ele>210.0</ele><time>2026-03-30T13:24:20Z</time></trkpt><trkpt lat="32.99175915235545" lon="9.634206292901832"><ele>210.0</ele><time>2026-03-30T13:24:21Z</time></trkpt><trkpt lat="32.99170606872813" lon="9.634285594309114"><ele>210.0</ele><time>2026-03-30T13:24:22Z</time></trkpt><trkpt lat="32.991652076625144" lon="9.634355426756045"><ele>210.0</ele><time>2026-03-30T13:24:23Z</time></trkpt><trkpt lat="32.991606158856214" lon="9.63443132138152"><ele>210.0</ele><time>2026-03-30T13:24:24Z</time></trkpt><trkpt lat="32.99157309845816" lon="9.6345111591569"><ele>210.0</ele><time>2026-03-30T13:24:25Z</time></trkpt><trkpt lat="32.991553807039764" lon="9.634608338883073"><ele>210.0</ele><time>2026-03-30T13:24:26Z</time></trkpt><trkpt lat="32.99154126443337" lon="9.63469559089844"><ele>210.16666666666666</ele><time>2026-03-30T13:24:27Z</time></trkpt><trkpt lat="32.9915297921408" lon="9.63485842440635"><ele>210.33333333333331</ele><time>2026-03-30T13:24:29Z</time></trkpt><trkpt lat="32.99150615934225" lon="9.634937887865144"><ele>210.5</ele><time>2026-03-30T13:24:30Z</time></trkpt><trkpt lat="32.99146609522587" lon="9.635007504722301"><ele>210.66666666666666</ele><time>2026-03-30T13:24:31Z</time></trkpt><trkpt lat="32.9914067785881" lon="9.635079881255036"><ele>210.83333333333331</ele><time>2026-03-30T13:24:32Z</time></trkpt><trkpt lat="32.99135273714173" lon="9.63515446904451"><ele>211.0</ele><time>2026-03-30T13:24:33Z</time></trkpt><trkpt lat="32.991309419993414" lon="9.635236357109298"><ele>211.0</ele><time>2026-03-30T13:24:34Z</time></trkpt><trkpt lat="32.991280987848725" lon="9.635313921002462"><ele>211.0</ele><time>2026-03-30T13:24:35Z</time></trkpt><trkpt lat="32.99125806780657" lon="9.635389055154931"><ele>211.0</ele><time>2026-03-30T13:24:36Z</time></trkpt><trkpt lat="32.99124212902595" lon="9.635464788176307"><ele>211.0</ele><time>2026-03-30T13:24:37Z</time></trkpt><trkpt lat="32.991226376390586" lon="9.63557806614905"><ele>211.0</ele><time>2026-03-30T13:24:39Z</time></trkpt><trkpt lat="32.99120434991806" lon="9.635648898356138"><ele>211.0</ele><time>2026-03-30T13:24:41Z</time></trkpt><trkpt lat="32.99118882627882" lon="9.635738988222496"><ele>211.0</ele><time>2026-03-30T13:25:13Z</time></trkpt><trkpt lat="32.99119036192565" lon="9.635885001877593"><ele>210.99999999999997</ele><time>2026-03-30T13:25:15Z</time></trkpt><trkpt lat="32.9912123288606" lon="9.636029818706263"><ele>211.0</ele><time>2026-03-30T13:25:17Z</time></trkpt><trkpt lat="32.99121186193071" lon="9.636110039378565"><ele>211.0</ele><time>2026-03-30T13:25:18Z</time></trkpt><trkpt lat="32.99120204925518" lon="9.636184656936173"><ele>211.0</ele><time>2026-03-30T13:25:19Z</time></trkpt><trkpt lat="32.99118029034279" lon="9.636258943087286"><ele>210.99999999999997</ele><time>2026-03-30T13:25:20Z</time></trkpt><trkpt lat="32.99114615037075" lon="9.636368173394866"><ele>211.0</ele><time>2026-03-30T13:25:22Z</time></trkpt><trkpt lat="32.99109881592044" lon="9.636486029794199"><ele>210.66666666666666</ele><time>2026-03-30T13:25:24Z</time></trkpt><trkpt lat="32.99107598590696" lon="9.636556171909483"><ele>210.33333333333331</ele><time>2026-03-30T13:25:25Z</time></trkpt><trkpt lat="32.991059536851544" lon="9.636630830896673"><ele>210.0</ele><time>2026-03-30T13:25:27Z</time></trkpt><trkpt lat="32.99105545136669" lon="9.636736854622772"><ele>209.66666666666669</ele><time>2026-03-30T13:25:29Z</time></trkpt><trkpt lat="32.99103467709651" lon="9.636845743290861"><ele>209.33333333333334</ele><time>2026-03-30T13:25:31Z</time></trkpt><trkpt lat="32.991057434122666" lon="9.636950901849254"><ele>209.0</ele><time>2026-03-30T13:25:33Z</time></trkpt><trkpt lat="32.99107517754112" lon="9.637077447943913"><ele>209.0</ele><time>2026-03-30T13:25:35Z</time></trkpt><trkpt lat="32.991034570602" lon="9.637170217108455"><ele>209.0</ele><time>2026-03-30T13:25:37Z</time></trkpt><trkpt lat="32.99103804699917" lon="9.637313737399642"><ele>209.0</ele><time>2026-03-30T13:25:39Z</time></trkpt><trkpt lat="32.99103413926185" lon="9.637449989354336"><ele>209.0</ele><time>2026-03-30T13:25:41Z</time></trkpt><trkpt lat="32.99102373752621" lon="9.637528106406732"><ele>209.0</ele><time>2026-03-30T13:25:42Z</time></trkpt><trkpt lat="32.99101533461833" lon="9.637665012673192"><ele>209.0</ele><time>2026-03-30T13:25:44Z</time></trkpt><trkpt lat="32.991020400018776" lon="9.637752721247661"><ele>209.0</ele><time>2026-03-30T13:25:46Z</time></trkpt><trkpt lat="32.990991961796716" lon="9.637829379442536"><ele>209.0</ele><time>2026-03-30T13:25:48Z</time></trkpt><trkpt lat="32.99090841902771" lon="9.637917810123898"><ele>209.0</ele><time>2026-03-30T13:25:57Z</time></trkpt><trkpt lat="32.99085288846494" lon="9.63804098447499"><ele>209.0</ele><time>2026-03-30T13:25:59Z</time></trkpt><trkpt lat="32.990830593166194" lon="9.638141429031936"><ele>209.2</ele><time>2026-03-30T13:26:01Z</time></trkpt><trkpt lat="32.99080323202459" lon="9.638288998377076"><ele>209.39999999999998</ele><time>2026-03-30T13:26:03Z</time></trkpt><trkpt lat="32.99079265892978" lon="9.638380647525938"><ele>209.6</ele><time>2026-03-30T13:26:04Z</time></trkpt><trkpt lat="32.99076761061425" lon="9.638525074969534"><ele>209.8</ele><time>2026-03-30T13:26:06Z</time></trkpt><trkpt lat="32.99074325961755" lon="9.63859667786411"><ele>210.0</ele><time>2026-03-30T13:26:07Z</time></trkpt><trkpt lat="32.990702780425686" lon="9.638669240524354"><ele>210.14285714285714</ele><time>2026-03-30T13:26:08Z</time></trkpt><trkpt lat="32.9906635338653" lon="9.638746340200749"><ele>210.28571428571428</ele><time>2026-03-30T13:26:09Z</time></trkpt><trkpt lat="32.990628574005775" lon="9.63881979982555"><ele>210.42857142857144</ele><time>2026-03-30T13:26:10Z</time></trkpt><trkpt lat="32.9905951825995" lon="9.638885892571485"><ele>210.57142857142856</ele><time>2026-03-30T13:26:11Z</time></trkpt><trkpt lat="32.99056192483386" lon="9.63895984536226"><ele>210.71428571428572</ele><time>2026-03-30T13:26:12Z</time></trkpt><trkpt lat="32.990532857490564" lon="9.639039153993515"><ele>210.85714285714286</ele><time>2026-03-30T13:26:13Z</time></trkpt><trkpt lat="32.99050610787948" lon="9.639112928939776"><ele>211.0</ele><time>2026-03-30T13:26:14Z</time></trkpt><trkpt lat="32.99045520301141" lon="9.639237332904386"><ele>210.99999999999997</ele><time>2026-03-30T13:26:16Z</time></trkpt><trkpt lat="32.99041254085168" lon="9.63934755213137"><ele>211.0</ele><time>2026-03-30T13:26:18Z</time></trkpt><trkpt lat="32.99037958028069" lon="9.639429940272638"><ele>211.0</ele><time>2026-03-30T13:26:21Z</time></trkpt><trkpt lat="32.99033632478402" lon="9.639504121688638"><ele>211.0</ele><time>2026-03-30T13:26:23Z</time></trkpt><trkpt lat="32.99027667791282" lon="9.639594199194091"><ele>210.99999999999997</ele><time>2026-03-30T13:26:25Z</time></trkpt><trkpt lat="32.990251643290996" lon="9.639708253455629"><ele>211.0</ele><time>2026-03-30T13:26:27Z</time></trkpt><trkpt lat="32.99026134815543" lon="9.639809779512616"><ele>210.60000000000002</ele><time>2026-03-30T13:26:29Z</time></trkpt><trkpt lat="32.990258096678346" lon="9.639918793494273"><ele>210.2</ele><time>2026-03-30T13:26:31Z</time></trkpt><trkpt lat="32.990237185017406" lon="9.640040553093025"><ele>209.8</ele><time>2026-03-30T13:26:33Z</time></trkpt><trkpt lat="32.990195432353026" lon="9.640139917032542"><ele>209.39999999999998</ele><time>2026-03-30T13:26:35Z</time></trkpt><trkpt lat="32.9901486466743" lon="9.64021959288564"><ele>209.0</ele><time>2026-03-30T13:26:37Z</time></trkpt><trkpt lat="32.990069820149586" lon="9.640263337165262"><ele>209.6</ele><time>2026-03-30T13:26:39Z</time></trkpt><trkpt lat="32.98995782281432" lon="9.64026004442459"><ele>210.2</ele><time>2026-03-30T13:26:41Z</time></trkpt><trkpt lat="32.98985823230736" lon="9.640243957520187"><ele>210.79999999999998</ele><time>2026-03-30T13:26:43Z</time></trkpt><trkpt lat="32.98979194747296" lon="9.640239979379494"><ele>211.39999999999998</ele><time>2026-03-30T13:26:44Z</time></trkpt><trkpt lat="32.98972859684972" lon="9.640237242197957"><ele>212.0</ele><time>2026-03-30T13:26:45Z</time></trkpt><trkpt lat="32.98960854036266" lon="9.64020406820088"><ele>212.0</ele><time>2026-03-30T13:26:47Z</time></trkpt><trkpt lat="32.98949897140123" lon="9.640173496158141"><ele>212.0</ele><time>2026-03-30T13:26:49Z</time></trkpt><trkpt lat="32.98938219465446" lon="9.640168304087968"><ele>212.0</ele><time>2026-03-30T13:26:51Z</time></trkpt><trkpt lat="32.98927364512794" lon="9.640149472569691"><ele>212.0</ele><time>2026-03-30T13:26:53Z</time></trkpt><trkpt lat="32.98918832066577" lon="9.640083764397572"><ele>212.0</ele><time>2026-03-30T13:26:55Z</time></trkpt><trkpt lat="32.98910017708652" lon="9.640052063045953"><ele>213.25</ele><time>2026-03-30T13:26:57Z</time></trkpt><trkpt lat="32.98899814295706" lon="9.640016980888797"><ele>214.5</ele><time>2026-03-30T13:26:59Z</time></trkpt><trkpt lat="32.98889751064639" lon="9.639956388776545"><ele>215.75</ele><time>2026-03-30T13:27:01Z</time></trkpt><trkpt lat="32.98880063200522" lon="9.63988498328343"><ele>217.0</ele><time>2026-03-30T13:27:03Z</time></trkpt><trkpt lat="32.988692682422815" lon="9.639831024845062"><ele>217.0</ele><time>2026-03-30T13:27:05Z</time></trkpt><trkpt lat="32.98859398654045" lon="9.639801609925899"><ele>217.0</ele><time>2026-03-30T13:27:07Z</time></trkpt><trkpt lat="32.988522426204206" lon="9.639792893450013"><ele>217.0</ele><time>2026-03-30T13:27:09Z</time></trkpt></trkseg></trk></gpx>